<?xml version="1.0" encoding="UTF-8" standalone="no" ?>
<gpx xmlns="http://www.topografix.com/GPX/1/1" xmlns:xsi="http://www.w3.org/2001/XMLSchema-instance" xsi:schemaLocation="http://www.topografix.com/GPX/1/1 http://www.topografix.com/GPX/1/1/gpx.xsd" version="1.1" creator="VisuGPX - https://www.visugpx.com">
  <metadata>
    <name>Roc d'Azur 2015 à 2023</name>
    <desc><![CDATA[Tous les ingrédients sont de la partie : sections cassantes, piquantes, rugueuses mais parfois lisses et rapides.

Le Fournel, La Flûte, Les Clapiers, La Bastide Neuve, Le Car Brûlé, Le Bougnon, La Gaillarde, La Dalle en Béton, La plage de La Galiote sont autant de point marquant du parcours qui ne laisseront sans aucun de doute que des souvenirs mémorable d’une belle randonnée surplombant la Méditerranée et retour par le bord de mer.
Superbe et toujours une belle organistaion]]></desc>
  </metadata>
  <trk>
    <name><![CDATA[2022]]></name>
    <extensions>
      <line xmlns="http://www.topografix.com/GPX/gpx_style/0/2">
        <color>FF00FF</color>
        <width>4</width>
      </line>
    </extensions>
    <trkseg>
      <trkpt lat="43.41799" lon="6.73709">
        <ele>2.2</ele>
        <time>2022-10-09T08:59:53Z</time>
      </trkpt>
      <trkpt lat="43.41796" lon="6.73709">
        <ele>2.2</ele>
        <time>2022-10-09T08:59:54Z</time>
      </trkpt>
      <trkpt lat="43.41779" lon="6.73702">
        <ele>2.2</ele>
        <time>2022-10-09T09:00:00Z</time>
      </trkpt>
      <trkpt lat="43.41772" lon="6.73701">
        <ele>2.2</ele>
        <time>2022-10-09T09:00:02Z</time>
      </trkpt>
      <trkpt lat="43.41769" lon="6.737">
        <ele>2.2</ele>
        <time>2022-10-09T09:00:03Z</time>
      </trkpt>
      <trkpt lat="43.41763" lon="6.73698">
        <ele>2.2</ele>
        <time>2022-10-09T09:00:05Z</time>
      </trkpt>
      <trkpt lat="43.4176" lon="6.73698">
        <ele>2.2</ele>
        <time>2022-10-09T09:00:06Z</time>
      </trkpt>
      <trkpt lat="43.41757" lon="6.73697">
        <ele>2.2</ele>
        <time>2022-10-09T09:00:07Z</time>
      </trkpt>
      <trkpt lat="43.41754" lon="6.73696">
        <ele>2.2</ele>
        <time>2022-10-09T09:00:08Z</time>
      </trkpt>
      <trkpt lat="43.41751" lon="6.73696">
        <ele>2.2</ele>
        <time>2022-10-09T09:00:09Z</time>
      </trkpt>
      <trkpt lat="43.41749" lon="6.73695">
        <ele>2.2</ele>
        <time>2022-10-09T09:00:10Z</time>
      </trkpt>
      <trkpt lat="43.41743" lon="6.73694">
        <ele>2.2</ele>
        <time>2022-10-09T09:00:12Z</time>
      </trkpt>
      <trkpt lat="43.41721" lon="6.73687">
        <ele>2.1</ele>
        <time>2022-10-09T09:00:19Z</time>
      </trkpt>
      <trkpt lat="43.41718" lon="6.73686">
        <ele>2.1</ele>
        <time>2022-10-09T09:00:20Z</time>
      </trkpt>
      <trkpt lat="43.41694" lon="6.73678">
        <ele>2.1</ele>
        <time>2022-10-09T09:00:27Z</time>
      </trkpt>
      <trkpt lat="43.41687" lon="6.73676">
        <ele>2.2</ele>
        <time>2022-10-09T09:00:29Z</time>
      </trkpt>
      <trkpt lat="43.41681" lon="6.73672">
        <ele>2.2</ele>
        <time>2022-10-09T09:00:31Z</time>
      </trkpt>
      <trkpt lat="43.41678" lon="6.73669">
        <ele>2.2</ele>
        <time>2022-10-09T09:00:32Z</time>
      </trkpt>
      <trkpt lat="43.41675" lon="6.73667">
        <ele>2.2</ele>
        <time>2022-10-09T09:00:33Z</time>
      </trkpt>
      <trkpt lat="43.41655" lon="6.73644">
        <ele>2.1</ele>
        <time>2022-10-09T09:00:40Z</time>
      </trkpt>
      <trkpt lat="43.41647" lon="6.73632">
        <ele>2.1</ele>
        <time>2022-10-09T09:00:43Z</time>
      </trkpt>
      <trkpt lat="43.4164" lon="6.73619">
        <ele>2.1</ele>
        <time>2022-10-09T09:00:46Z</time>
      </trkpt>
      <trkpt lat="43.41635" lon="6.7361">
        <ele>2.1</ele>
        <time>2022-10-09T09:00:48Z</time>
      </trkpt>
      <trkpt lat="43.41633" lon="6.73605">
        <ele>2.1</ele>
        <time>2022-10-09T09:00:49Z</time>
      </trkpt>
      <trkpt lat="43.41631" lon="6.73601">
        <ele>2.1</ele>
        <time>2022-10-09T09:00:50Z</time>
      </trkpt>
      <trkpt lat="43.41628" lon="6.73597">
        <ele>2.1</ele>
        <time>2022-10-09T09:00:51Z</time>
      </trkpt>
      <trkpt lat="43.41622" lon="6.73582">
        <ele>2.1</ele>
        <time>2022-10-09T09:00:54Z</time>
      </trkpt>
      <trkpt lat="43.41621" lon="6.73577">
        <ele>2.1</ele>
        <time>2022-10-09T09:00:55Z</time>
      </trkpt>
      <trkpt lat="43.41619" lon="6.73572">
        <ele>2.1</ele>
        <time>2022-10-09T09:00:56Z</time>
      </trkpt>
      <trkpt lat="43.41618" lon="6.73567">
        <ele>2.1</ele>
        <time>2022-10-09T09:00:57Z</time>
      </trkpt>
      <trkpt lat="43.41617" lon="6.73562">
        <ele>2.1</ele>
        <time>2022-10-09T09:00:58Z</time>
      </trkpt>
      <trkpt lat="43.41616" lon="6.73535">
        <ele>2</ele>
        <time>2022-10-09T09:01:03Z</time>
      </trkpt>
      <trkpt lat="43.41616" lon="6.7353">
        <ele>2.1</ele>
        <time>2022-10-09T09:01:04Z</time>
      </trkpt>
      <trkpt lat="43.41617" lon="6.73524">
        <ele>2.1</ele>
        <time>2022-10-09T09:01:05Z</time>
      </trkpt>
      <trkpt lat="43.41621" lon="6.73508">
        <ele>2.2</ele>
        <time>2022-10-09T09:01:08Z</time>
      </trkpt>
      <trkpt lat="43.41622" lon="6.73503">
        <ele>2.1</ele>
        <time>2022-10-09T09:01:09Z</time>
      </trkpt>
      <trkpt lat="43.41624" lon="6.73497">
        <ele>2.1</ele>
        <time>2022-10-09T09:01:10Z</time>
      </trkpt>
      <trkpt lat="43.41626" lon="6.73493">
        <ele>2.3</ele>
        <time>2022-10-09T09:01:11Z</time>
      </trkpt>
      <trkpt lat="43.41639" lon="6.73464">
        <ele>2.5</ele>
        <time>2022-10-09T09:01:17Z</time>
      </trkpt>
      <trkpt lat="43.41641" lon="6.73459">
        <ele>2.7</ele>
        <time>2022-10-09T09:01:18Z</time>
      </trkpt>
      <trkpt lat="43.41655" lon="6.73438">
        <ele>2.8</ele>
        <time>2022-10-09T09:01:23Z</time>
      </trkpt>
      <trkpt lat="43.41658" lon="6.73434">
        <ele>2.8</ele>
        <time>2022-10-09T09:01:24Z</time>
      </trkpt>
      <trkpt lat="43.4166" lon="6.7343">
        <ele>2.7</ele>
        <time>2022-10-09T09:01:25Z</time>
      </trkpt>
      <trkpt lat="43.41663" lon="6.73425">
        <ele>2.9</ele>
        <time>2022-10-09T09:01:26Z</time>
      </trkpt>
      <trkpt lat="43.41665" lon="6.73421">
        <ele>2.7</ele>
        <time>2022-10-09T09:01:27Z</time>
      </trkpt>
      <trkpt lat="43.41668" lon="6.73416">
        <ele>2.6</ele>
        <time>2022-10-09T09:01:28Z</time>
      </trkpt>
      <trkpt lat="43.41672" lon="6.73407">
        <ele>2.8</ele>
        <time>2022-10-09T09:01:30Z</time>
      </trkpt>
      <trkpt lat="43.41674" lon="6.73402">
        <ele>2.8</ele>
        <time>2022-10-09T09:01:31Z</time>
      </trkpt>
      <trkpt lat="43.41679" lon="6.73388">
        <ele>2.7</ele>
        <time>2022-10-09T09:01:34Z</time>
      </trkpt>
      <trkpt lat="43.41686" lon="6.73349">
        <ele>3</ele>
        <time>2022-10-09T09:01:41Z</time>
      </trkpt>
      <trkpt lat="43.41687" lon="6.73344">
        <ele>3</ele>
        <time>2022-10-09T09:01:42Z</time>
      </trkpt>
      <trkpt lat="43.41689" lon="6.73333">
        <ele>3</ele>
        <time>2022-10-09T09:01:44Z</time>
      </trkpt>
      <trkpt lat="43.41689" lon="6.73328">
        <ele>2.9</ele>
        <time>2022-10-09T09:01:45Z</time>
      </trkpt>
      <trkpt lat="43.4169" lon="6.73322">
        <ele>2.7</ele>
        <time>2022-10-09T09:01:46Z</time>
      </trkpt>
      <trkpt lat="43.41693" lon="6.73306">
        <ele>2.7</ele>
        <time>2022-10-09T09:01:49Z</time>
      </trkpt>
      <trkpt lat="43.41693" lon="6.733">
        <ele>2.6</ele>
        <time>2022-10-09T09:01:50Z</time>
      </trkpt>
      <trkpt lat="43.41694" lon="6.73295">
        <ele>2.6</ele>
        <time>2022-10-09T09:01:51Z</time>
      </trkpt>
      <trkpt lat="43.41695" lon="6.73289">
        <ele>2.5</ele>
        <time>2022-10-09T09:01:52Z</time>
      </trkpt>
      <trkpt lat="43.41695" lon="6.73284">
        <ele>2.4</ele>
        <time>2022-10-09T09:01:53Z</time>
      </trkpt>
      <trkpt lat="43.41696" lon="6.73278">
        <ele>2.4</ele>
        <time>2022-10-09T09:01:54Z</time>
      </trkpt>
      <trkpt lat="43.41697" lon="6.73268">
        <ele>2.3</ele>
        <time>2022-10-09T09:01:56Z</time>
      </trkpt>
      <trkpt lat="43.41699" lon="6.73251">
        <ele>2.2</ele>
        <time>2022-10-09T09:01:59Z</time>
      </trkpt>
      <trkpt lat="43.41699" lon="6.73246">
        <ele>2.2</ele>
        <time>2022-10-09T09:02:00Z</time>
      </trkpt>
      <trkpt lat="43.41701" lon="6.73236">
        <ele>2</ele>
        <time>2022-10-09T09:02:02Z</time>
      </trkpt>
      <trkpt lat="43.41701" lon="6.7323">
        <ele>2</ele>
        <time>2022-10-09T09:02:03Z</time>
      </trkpt>
      <trkpt lat="43.41704" lon="6.73209">
        <ele>1.7</ele>
        <time>2022-10-09T09:02:07Z</time>
      </trkpt>
      <trkpt lat="43.41705" lon="6.73204">
        <ele>1.5</ele>
        <time>2022-10-09T09:02:08Z</time>
      </trkpt>
      <trkpt lat="43.41707" lon="6.73188">
        <ele>1.5</ele>
        <time>2022-10-09T09:02:11Z</time>
      </trkpt>
      <trkpt lat="43.41708" lon="6.73183">
        <ele>1.3</ele>
        <time>2022-10-09T09:02:12Z</time>
      </trkpt>
      <trkpt lat="43.4171" lon="6.73179">
        <ele>1.2</ele>
        <time>2022-10-09T09:02:13Z</time>
      </trkpt>
      <trkpt lat="43.41711" lon="6.73175">
        <ele>1.2</ele>
        <time>2022-10-09T09:02:14Z</time>
      </trkpt>
      <trkpt lat="43.41711" lon="6.73171">
        <ele>1.1</ele>
        <time>2022-10-09T09:02:15Z</time>
      </trkpt>
      <trkpt lat="43.41711" lon="6.73168">
        <ele>1</ele>
        <time>2022-10-09T09:02:16Z</time>
      </trkpt>
      <trkpt lat="43.41712" lon="6.73157">
        <ele>0.9</ele>
        <time>2022-10-09T09:02:19Z</time>
      </trkpt>
      <trkpt lat="43.41713" lon="6.73145">
        <ele>0.7</ele>
        <time>2022-10-09T09:02:22Z</time>
      </trkpt>
      <trkpt lat="43.41713" lon="6.73137">
        <ele>0.7</ele>
        <time>2022-10-09T09:02:24Z</time>
      </trkpt>
      <trkpt lat="43.41714" lon="6.73133">
        <ele>0.5</ele>
        <time>2022-10-09T09:02:25Z</time>
      </trkpt>
      <trkpt lat="43.41715" lon="6.73129">
        <ele>0.3</ele>
        <time>2022-10-09T09:02:26Z</time>
      </trkpt>
      <trkpt lat="43.41716" lon="6.73107">
        <ele>0.2</ele>
        <time>2022-10-09T09:02:31Z</time>
      </trkpt>
      <trkpt lat="43.41718" lon="6.73079">
        <ele>0.9</ele>
        <time>2022-10-09T09:02:37Z</time>
      </trkpt>
      <trkpt lat="43.41719" lon="6.73065">
        <ele>1.4</ele>
        <time>2022-10-09T09:02:40Z</time>
      </trkpt>
      <trkpt lat="43.41719" lon="6.73055">
        <ele>1.4</ele>
        <time>2022-10-09T09:02:42Z</time>
      </trkpt>
      <trkpt lat="43.41719" lon="6.7305">
        <ele>1.3</ele>
        <time>2022-10-09T09:02:43Z</time>
      </trkpt>
      <trkpt lat="43.41718" lon="6.73041">
        <ele>1.9</ele>
        <time>2022-10-09T09:02:45Z</time>
      </trkpt>
      <trkpt lat="43.41718" lon="6.73036">
        <ele>1.8</ele>
        <time>2022-10-09T09:02:46Z</time>
      </trkpt>
      <trkpt lat="43.41717" lon="6.73032">
        <ele>2.3</ele>
        <time>2022-10-09T09:02:47Z</time>
      </trkpt>
      <trkpt lat="43.41707" lon="6.72999">
        <ele>2.2</ele>
        <time>2022-10-09T09:02:54Z</time>
      </trkpt>
      <trkpt lat="43.41692" lon="6.72956">
        <ele>2.8</ele>
        <time>2022-10-09T09:03:02Z</time>
      </trkpt>
      <trkpt lat="43.41684" lon="6.72932">
        <ele>2.7</ele>
        <time>2022-10-09T09:03:06Z</time>
      </trkpt>
      <trkpt lat="43.41682" lon="6.72926">
        <ele>2.9</ele>
        <time>2022-10-09T09:03:07Z</time>
      </trkpt>
      <trkpt lat="43.4168" lon="6.7292">
        <ele>2.8</ele>
        <time>2022-10-09T09:03:08Z</time>
      </trkpt>
      <trkpt lat="43.41678" lon="6.72914">
        <ele>2.8</ele>
        <time>2022-10-09T09:03:09Z</time>
      </trkpt>
      <trkpt lat="43.41671" lon="6.72896">
        <ele>2.9</ele>
        <time>2022-10-09T09:03:12Z</time>
      </trkpt>
      <trkpt lat="43.41669" lon="6.7289">
        <ele>3.2</ele>
        <time>2022-10-09T09:03:13Z</time>
      </trkpt>
      <trkpt lat="43.41666" lon="6.72885">
        <ele>3.1</ele>
        <time>2022-10-09T09:03:14Z</time>
      </trkpt>
      <trkpt lat="43.41664" lon="6.72879">
        <ele>3.1</ele>
        <time>2022-10-09T09:03:15Z</time>
      </trkpt>
      <trkpt lat="43.41662" lon="6.72873">
        <ele>3.3</ele>
        <time>2022-10-09T09:03:16Z</time>
      </trkpt>
      <trkpt lat="43.41661" lon="6.72868">
        <ele>3.3</ele>
        <time>2022-10-09T09:03:17Z</time>
      </trkpt>
      <trkpt lat="43.41659" lon="6.72862">
        <ele>3.2</ele>
        <time>2022-10-09T09:03:18Z</time>
      </trkpt>
      <trkpt lat="43.41657" lon="6.72857">
        <ele>3.5</ele>
        <time>2022-10-09T09:03:19Z</time>
      </trkpt>
      <trkpt lat="43.41655" lon="6.72852">
        <ele>3.4</ele>
        <time>2022-10-09T09:03:20Z</time>
      </trkpt>
      <trkpt lat="43.41653" lon="6.72847">
        <ele>3.4</ele>
        <time>2022-10-09T09:03:21Z</time>
      </trkpt>
      <trkpt lat="43.41651" lon="6.72842">
        <ele>3.5</ele>
        <time>2022-10-09T09:03:22Z</time>
      </trkpt>
      <trkpt lat="43.41649" lon="6.72838">
        <ele>3.5</ele>
        <time>2022-10-09T09:03:23Z</time>
      </trkpt>
      <trkpt lat="43.41647" lon="6.72833">
        <ele>3.5</ele>
        <time>2022-10-09T09:03:24Z</time>
      </trkpt>
      <trkpt lat="43.41645" lon="6.72829">
        <ele>3.6</ele>
        <time>2022-10-09T09:03:25Z</time>
      </trkpt>
      <trkpt lat="43.4164" lon="6.72821">
        <ele>3.6</ele>
        <time>2022-10-09T09:03:27Z</time>
      </trkpt>
      <trkpt lat="43.41637" lon="6.72818">
        <ele>3.6</ele>
        <time>2022-10-09T09:03:28Z</time>
      </trkpt>
      <trkpt lat="43.41633" lon="6.72816">
        <ele>3.6</ele>
        <time>2022-10-09T09:03:29Z</time>
      </trkpt>
      <trkpt lat="43.4163" lon="6.72815">
        <ele>3.6</ele>
        <time>2022-10-09T09:03:30Z</time>
      </trkpt>
      <trkpt lat="43.41626" lon="6.72814">
        <ele>3.7</ele>
        <time>2022-10-09T09:03:31Z</time>
      </trkpt>
      <trkpt lat="43.41622" lon="6.72813">
        <ele>3.7</ele>
        <time>2022-10-09T09:03:32Z</time>
      </trkpt>
      <trkpt lat="43.41618" lon="6.72813">
        <ele>3.7</ele>
        <time>2022-10-09T09:03:33Z</time>
      </trkpt>
      <trkpt lat="43.41602" lon="6.72814">
        <ele>3.8</ele>
        <time>2022-10-09T09:03:37Z</time>
      </trkpt>
      <trkpt lat="43.41582" lon="6.72822">
        <ele>3.9</ele>
        <time>2022-10-09T09:03:42Z</time>
      </trkpt>
      <trkpt lat="43.41574" lon="6.72827">
        <ele>4</ele>
        <time>2022-10-09T09:03:44Z</time>
      </trkpt>
      <trkpt lat="43.4157" lon="6.7283">
        <ele>4</ele>
        <time>2022-10-09T09:03:45Z</time>
      </trkpt>
      <trkpt lat="43.41567" lon="6.72833">
        <ele>4</ele>
        <time>2022-10-09T09:03:46Z</time>
      </trkpt>
      <trkpt lat="43.41563" lon="6.72836">
        <ele>3.9</ele>
        <time>2022-10-09T09:03:47Z</time>
      </trkpt>
      <trkpt lat="43.4156" lon="6.72838">
        <ele>3.9</ele>
        <time>2022-10-09T09:03:48Z</time>
      </trkpt>
      <trkpt lat="43.41556" lon="6.7284">
        <ele>3.9</ele>
        <time>2022-10-09T09:03:49Z</time>
      </trkpt>
      <trkpt lat="43.41552" lon="6.72842">
        <ele>3.9</ele>
        <time>2022-10-09T09:03:50Z</time>
      </trkpt>
      <trkpt lat="43.41541" lon="6.72848">
        <ele>3.9</ele>
        <time>2022-10-09T09:03:53Z</time>
      </trkpt>
      <trkpt lat="43.41537" lon="6.7285">
        <ele>3.9</ele>
        <time>2022-10-09T09:03:54Z</time>
      </trkpt>
      <trkpt lat="43.41534" lon="6.72851">
        <ele>3.9</ele>
        <time>2022-10-09T09:03:55Z</time>
      </trkpt>
      <trkpt lat="43.4153" lon="6.72853">
        <ele>3.9</ele>
        <time>2022-10-09T09:03:56Z</time>
      </trkpt>
      <trkpt lat="43.41526" lon="6.72854">
        <ele>3.9</ele>
        <time>2022-10-09T09:03:57Z</time>
      </trkpt>
      <trkpt lat="43.41523" lon="6.72857">
        <ele>3.9</ele>
        <time>2022-10-09T09:03:58Z</time>
      </trkpt>
      <trkpt lat="43.4152" lon="6.7286">
        <ele>3.9</ele>
        <time>2022-10-09T09:03:59Z</time>
      </trkpt>
      <trkpt lat="43.41516" lon="6.72863">
        <ele>3.9</ele>
        <time>2022-10-09T09:04:00Z</time>
      </trkpt>
      <trkpt lat="43.41507" lon="6.72874">
        <ele>3.9</ele>
        <time>2022-10-09T09:04:03Z</time>
      </trkpt>
      <trkpt lat="43.41495" lon="6.72891">
        <ele>3.9</ele>
        <time>2022-10-09T09:04:07Z</time>
      </trkpt>
      <trkpt lat="43.41493" lon="6.72895">
        <ele>3.9</ele>
        <time>2022-10-09T09:04:08Z</time>
      </trkpt>
      <trkpt lat="43.41487" lon="6.72903">
        <ele>3.9</ele>
        <time>2022-10-09T09:04:10Z</time>
      </trkpt>
      <trkpt lat="43.41485" lon="6.72907">
        <ele>3.9</ele>
        <time>2022-10-09T09:04:11Z</time>
      </trkpt>
      <trkpt lat="43.41482" lon="6.72911">
        <ele>3.9</ele>
        <time>2022-10-09T09:04:12Z</time>
      </trkpt>
      <trkpt lat="43.41479" lon="6.72915">
        <ele>4</ele>
        <time>2022-10-09T09:04:13Z</time>
      </trkpt>
      <trkpt lat="43.41477" lon="6.72919">
        <ele>4</ele>
        <time>2022-10-09T09:04:14Z</time>
      </trkpt>
      <trkpt lat="43.41474" lon="6.72923">
        <ele>4</ele>
        <time>2022-10-09T09:04:15Z</time>
      </trkpt>
      <trkpt lat="43.41472" lon="6.72927">
        <ele>4</ele>
        <time>2022-10-09T09:04:16Z</time>
      </trkpt>
      <trkpt lat="43.41465" lon="6.72938">
        <ele>4</ele>
        <time>2022-10-09T09:04:19Z</time>
      </trkpt>
      <trkpt lat="43.41463" lon="6.72942">
        <ele>4</ele>
        <time>2022-10-09T09:04:20Z</time>
      </trkpt>
      <trkpt lat="43.41462" lon="6.72945">
        <ele>4</ele>
        <time>2022-10-09T09:04:21Z</time>
      </trkpt>
      <trkpt lat="43.41458" lon="6.72952">
        <ele>4</ele>
        <time>2022-10-09T09:04:23Z</time>
      </trkpt>
      <trkpt lat="43.4145" lon="6.72962">
        <ele>4</ele>
        <time>2022-10-09T09:04:26Z</time>
      </trkpt>
      <trkpt lat="43.4143" lon="6.72989">
        <ele>3.5</ele>
        <time>2022-10-09T09:04:32Z</time>
      </trkpt>
      <trkpt lat="43.41426" lon="6.72995">
        <ele>3.4</ele>
        <time>2022-10-09T09:04:33Z</time>
      </trkpt>
      <trkpt lat="43.41419" lon="6.73005">
        <ele>3.3</ele>
        <time>2022-10-09T09:04:35Z</time>
      </trkpt>
      <trkpt lat="43.41416" lon="6.7301">
        <ele>3.3</ele>
        <time>2022-10-09T09:04:36Z</time>
      </trkpt>
      <trkpt lat="43.41413" lon="6.73016">
        <ele>3.3</ele>
        <time>2022-10-09T09:04:37Z</time>
      </trkpt>
      <trkpt lat="43.4141" lon="6.7302">
        <ele>3.3</ele>
        <time>2022-10-09T09:04:38Z</time>
      </trkpt>
      <trkpt lat="43.41403" lon="6.7303">
        <ele>3.3</ele>
        <time>2022-10-09T09:04:40Z</time>
      </trkpt>
      <trkpt lat="43.41392" lon="6.73044">
        <ele>3.4</ele>
        <time>2022-10-09T09:04:43Z</time>
      </trkpt>
      <trkpt lat="43.41389" lon="6.73048">
        <ele>3.4</ele>
        <time>2022-10-09T09:04:44Z</time>
      </trkpt>
      <trkpt lat="43.41386" lon="6.73052">
        <ele>3.4</ele>
        <time>2022-10-09T09:04:45Z</time>
      </trkpt>
      <trkpt lat="43.41379" lon="6.73061">
        <ele>3.5</ele>
        <time>2022-10-09T09:04:47Z</time>
      </trkpt>
      <trkpt lat="43.41376" lon="6.73065">
        <ele>3.6</ele>
        <time>2022-10-09T09:04:48Z</time>
      </trkpt>
      <trkpt lat="43.41362" lon="6.73082">
        <ele>3.6</ele>
        <time>2022-10-09T09:04:52Z</time>
      </trkpt>
      <trkpt lat="43.41349" lon="6.73099">
        <ele>3.6</ele>
        <time>2022-10-09T09:04:56Z</time>
      </trkpt>
      <trkpt lat="43.41346" lon="6.73104">
        <ele>3.7</ele>
        <time>2022-10-09T09:04:57Z</time>
      </trkpt>
      <trkpt lat="43.41344" lon="6.73109">
        <ele>3.7</ele>
        <time>2022-10-09T09:04:58Z</time>
      </trkpt>
      <trkpt lat="43.41341" lon="6.73113">
        <ele>3.7</ele>
        <time>2022-10-09T09:04:59Z</time>
      </trkpt>
      <trkpt lat="43.41335" lon="6.73123">
        <ele>3.7</ele>
        <time>2022-10-09T09:05:01Z</time>
      </trkpt>
      <trkpt lat="43.41333" lon="6.73128">
        <ele>3.7</ele>
        <time>2022-10-09T09:05:02Z</time>
      </trkpt>
      <trkpt lat="43.41332" lon="6.73134">
        <ele>3.7</ele>
        <time>2022-10-09T09:05:03Z</time>
      </trkpt>
      <trkpt lat="43.41331" lon="6.7314">
        <ele>3.8</ele>
        <time>2022-10-09T09:05:04Z</time>
      </trkpt>
      <trkpt lat="43.4133" lon="6.73145">
        <ele>3.8</ele>
        <time>2022-10-09T09:05:05Z</time>
      </trkpt>
      <trkpt lat="43.41329" lon="6.73151">
        <ele>3.8</ele>
        <time>2022-10-09T09:05:06Z</time>
      </trkpt>
      <trkpt lat="43.41329" lon="6.73156">
        <ele>3.8</ele>
        <time>2022-10-09T09:05:07Z</time>
      </trkpt>
      <trkpt lat="43.41328" lon="6.73162">
        <ele>3.8</ele>
        <time>2022-10-09T09:05:08Z</time>
      </trkpt>
      <trkpt lat="43.41326" lon="6.73166">
        <ele>3.8</ele>
        <time>2022-10-09T09:05:09Z</time>
      </trkpt>
      <trkpt lat="43.41324" lon="6.7317">
        <ele>3.8</ele>
        <time>2022-10-09T09:05:10Z</time>
      </trkpt>
      <trkpt lat="43.4132" lon="6.73172">
        <ele>3.8</ele>
        <time>2022-10-09T09:05:11Z</time>
      </trkpt>
      <trkpt lat="43.41316" lon="6.73173">
        <ele>3.8</ele>
        <time>2022-10-09T09:05:12Z</time>
      </trkpt>
      <trkpt lat="43.41312" lon="6.73173">
        <ele>3.8</ele>
        <time>2022-10-09T09:05:13Z</time>
      </trkpt>
      <trkpt lat="43.41308" lon="6.73174">
        <ele>3.8</ele>
        <time>2022-10-09T09:05:14Z</time>
      </trkpt>
      <trkpt lat="43.41304" lon="6.73175">
        <ele>3.7</ele>
        <time>2022-10-09T09:05:15Z</time>
      </trkpt>
      <trkpt lat="43.413" lon="6.73177">
        <ele>3.7</ele>
        <time>2022-10-09T09:05:16Z</time>
      </trkpt>
      <trkpt lat="43.41296" lon="6.7318">
        <ele>3.6</ele>
        <time>2022-10-09T09:05:17Z</time>
      </trkpt>
      <trkpt lat="43.41293" lon="6.73183">
        <ele>3.6</ele>
        <time>2022-10-09T09:05:18Z</time>
      </trkpt>
      <trkpt lat="43.4129" lon="6.73187">
        <ele>3.5</ele>
        <time>2022-10-09T09:05:19Z</time>
      </trkpt>
      <trkpt lat="43.41283" lon="6.73194">
        <ele>3.4</ele>
        <time>2022-10-09T09:05:21Z</time>
      </trkpt>
      <trkpt lat="43.41279" lon="6.73197">
        <ele>3.4</ele>
        <time>2022-10-09T09:05:22Z</time>
      </trkpt>
      <trkpt lat="43.41275" lon="6.73198">
        <ele>3.4</ele>
        <time>2022-10-09T09:05:23Z</time>
      </trkpt>
      <trkpt lat="43.41271" lon="6.73199">
        <ele>3.3</ele>
        <time>2022-10-09T09:05:24Z</time>
      </trkpt>
      <trkpt lat="43.41268" lon="6.73199">
        <ele>3.2</ele>
        <time>2022-10-09T09:05:25Z</time>
      </trkpt>
      <trkpt lat="43.41264" lon="6.73199">
        <ele>3.2</ele>
        <time>2022-10-09T09:05:26Z</time>
      </trkpt>
      <trkpt lat="43.41261" lon="6.73198">
        <ele>3.1</ele>
        <time>2022-10-09T09:05:27Z</time>
      </trkpt>
      <trkpt lat="43.41257" lon="6.73198">
        <ele>3.1</ele>
        <time>2022-10-09T09:05:28Z</time>
      </trkpt>
      <trkpt lat="43.41254" lon="6.73196">
        <ele>3</ele>
        <time>2022-10-09T09:05:29Z</time>
      </trkpt>
      <trkpt lat="43.41251" lon="6.73194">
        <ele>3</ele>
        <time>2022-10-09T09:05:30Z</time>
      </trkpt>
      <trkpt lat="43.41248" lon="6.73193">
        <ele>3</ele>
        <time>2022-10-09T09:05:31Z</time>
      </trkpt>
      <trkpt lat="43.41245" lon="6.73191">
        <ele>3</ele>
        <time>2022-10-09T09:05:32Z</time>
      </trkpt>
      <trkpt lat="43.41238" lon="6.73191">
        <ele>2.9</ele>
        <time>2022-10-09T09:05:34Z</time>
      </trkpt>
      <trkpt lat="43.41234" lon="6.73191">
        <ele>2.9</ele>
        <time>2022-10-09T09:05:35Z</time>
      </trkpt>
      <trkpt lat="43.41231" lon="6.73191">
        <ele>3</ele>
        <time>2022-10-09T09:05:36Z</time>
      </trkpt>
      <trkpt lat="43.41228" lon="6.73191">
        <ele>3</ele>
        <time>2022-10-09T09:05:37Z</time>
      </trkpt>
      <trkpt lat="43.41225" lon="6.73191">
        <ele>3</ele>
        <time>2022-10-09T09:05:38Z</time>
      </trkpt>
      <trkpt lat="43.41223" lon="6.73191">
        <ele>3</ele>
        <time>2022-10-09T09:05:39Z</time>
      </trkpt>
      <trkpt lat="43.41222" lon="6.73189">
        <ele>3</ele>
        <time>2022-10-09T09:05:40Z</time>
      </trkpt>
      <trkpt lat="43.41221" lon="6.73188">
        <ele>3</ele>
        <time>2022-10-09T09:05:41Z</time>
      </trkpt>
      <trkpt lat="43.41219" lon="6.73187">
        <ele>2.7</ele>
        <time>2022-10-09T09:05:42Z</time>
      </trkpt>
      <trkpt lat="43.41217" lon="6.73184">
        <ele>2.7</ele>
        <time>2022-10-09T09:05:43Z</time>
      </trkpt>
      <trkpt lat="43.41214" lon="6.7318">
        <ele>2.4</ele>
        <time>2022-10-09T09:05:44Z</time>
      </trkpt>
      <trkpt lat="43.41211" lon="6.73176">
        <ele>2.4</ele>
        <time>2022-10-09T09:05:45Z</time>
      </trkpt>
      <trkpt lat="43.41198" lon="6.73159">
        <ele>1.2</ele>
        <time>2022-10-09T09:05:49Z</time>
      </trkpt>
      <trkpt lat="43.41195" lon="6.73155">
        <ele>1.3</ele>
        <time>2022-10-09T09:05:50Z</time>
      </trkpt>
      <trkpt lat="43.41192" lon="6.73151">
        <ele>1.4</ele>
        <time>2022-10-09T09:05:51Z</time>
      </trkpt>
      <trkpt lat="43.41189" lon="6.73147">
        <ele>0.6</ele>
        <time>2022-10-09T09:05:52Z</time>
      </trkpt>
      <trkpt lat="43.41187" lon="6.73144">
        <ele>0.7</ele>
        <time>2022-10-09T09:05:53Z</time>
      </trkpt>
      <trkpt lat="43.41185" lon="6.7314">
        <ele>0.7</ele>
        <time>2022-10-09T09:05:54Z</time>
      </trkpt>
      <trkpt lat="43.41183" lon="6.73137">
        <ele>0.7</ele>
        <time>2022-10-09T09:05:55Z</time>
      </trkpt>
      <trkpt lat="43.4118" lon="6.73134">
        <ele>1.7</ele>
        <time>2022-10-09T09:05:56Z</time>
      </trkpt>
      <trkpt lat="43.41178" lon="6.73132">
        <ele>1.7</ele>
        <time>2022-10-09T09:05:57Z</time>
      </trkpt>
      <trkpt lat="43.41177" lon="6.7313">
        <ele>1.7</ele>
        <time>2022-10-09T09:05:58Z</time>
      </trkpt>
      <trkpt lat="43.41175" lon="6.73128">
        <ele>1.7</ele>
        <time>2022-10-09T09:05:59Z</time>
      </trkpt>
      <trkpt lat="43.41175" lon="6.73125">
        <ele>1.7</ele>
        <time>2022-10-09T09:06:00Z</time>
      </trkpt>
      <trkpt lat="43.41175" lon="6.73124">
        <ele>1.7</ele>
        <time>2022-10-09T09:06:01Z</time>
      </trkpt>
      <trkpt lat="43.41176" lon="6.73122">
        <ele>1.7</ele>
        <time>2022-10-09T09:06:02Z</time>
      </trkpt>
      <trkpt lat="43.41176" lon="6.7312">
        <ele>1.7</ele>
        <time>2022-10-09T09:06:03Z</time>
      </trkpt>
      <trkpt lat="43.41177" lon="6.73119">
        <ele>1.7</ele>
        <time>2022-10-09T09:06:04Z</time>
      </trkpt>
      <trkpt lat="43.41178" lon="6.73118">
        <ele>2</ele>
        <time>2022-10-09T09:06:05Z</time>
      </trkpt>
      <trkpt lat="43.4118" lon="6.73115">
        <ele>1.9</ele>
        <time>2022-10-09T09:06:07Z</time>
      </trkpt>
      <trkpt lat="43.41181" lon="6.73114">
        <ele>1.9</ele>
        <time>2022-10-09T09:06:08Z</time>
      </trkpt>
      <trkpt lat="43.41181" lon="6.73113">
        <ele>1.9</ele>
        <time>2022-10-09T09:06:09Z</time>
      </trkpt>
      <trkpt lat="43.41188" lon="6.73108">
        <ele>1.9</ele>
        <time>2022-10-09T09:06:13Z</time>
      </trkpt>
      <trkpt lat="43.4119" lon="6.73108">
        <ele>2</ele>
        <time>2022-10-09T09:06:14Z</time>
      </trkpt>
      <trkpt lat="43.41192" lon="6.73109">
        <ele>2</ele>
        <time>2022-10-09T09:06:15Z</time>
      </trkpt>
      <trkpt lat="43.41194" lon="6.73109">
        <ele>2</ele>
        <time>2022-10-09T09:06:16Z</time>
      </trkpt>
      <trkpt lat="43.41196" lon="6.73107">
        <ele>2</ele>
        <time>2022-10-09T09:06:17Z</time>
      </trkpt>
      <trkpt lat="43.41198" lon="6.73105">
        <ele>2.1</ele>
        <time>2022-10-09T09:06:18Z</time>
      </trkpt>
      <trkpt lat="43.41203" lon="6.73098">
        <ele>2.2</ele>
        <time>2022-10-09T09:06:20Z</time>
      </trkpt>
      <trkpt lat="43.41205" lon="6.73094">
        <ele>2.2</ele>
        <time>2022-10-09T09:06:21Z</time>
      </trkpt>
      <trkpt lat="43.41216" lon="6.73079">
        <ele>2.5</ele>
        <time>2022-10-09T09:06:25Z</time>
      </trkpt>
      <trkpt lat="43.41219" lon="6.73076">
        <ele>2.5</ele>
        <time>2022-10-09T09:06:26Z</time>
      </trkpt>
      <trkpt lat="43.41222" lon="6.73072">
        <ele>2.6</ele>
        <time>2022-10-09T09:06:27Z</time>
      </trkpt>
      <trkpt lat="43.41224" lon="6.73069">
        <ele>2.7</ele>
        <time>2022-10-09T09:06:28Z</time>
      </trkpt>
      <trkpt lat="43.41227" lon="6.73065">
        <ele>2.7</ele>
        <time>2022-10-09T09:06:29Z</time>
      </trkpt>
      <trkpt lat="43.4123" lon="6.73062">
        <ele>2.8</ele>
        <time>2022-10-09T09:06:30Z</time>
      </trkpt>
      <trkpt lat="43.41232" lon="6.73058">
        <ele>2.8</ele>
        <time>2022-10-09T09:06:31Z</time>
      </trkpt>
      <trkpt lat="43.41235" lon="6.73055">
        <ele>2.9</ele>
        <time>2022-10-09T09:06:32Z</time>
      </trkpt>
      <trkpt lat="43.41241" lon="6.73048">
        <ele>3</ele>
        <time>2022-10-09T09:06:34Z</time>
      </trkpt>
      <trkpt lat="43.41264" lon="6.73015">
        <ele>3.3</ele>
        <time>2022-10-09T09:06:42Z</time>
      </trkpt>
      <trkpt lat="43.41284" lon="6.72989">
        <ele>3.6</ele>
        <time>2022-10-09T09:06:48Z</time>
      </trkpt>
      <trkpt lat="43.41291" lon="6.72981">
        <ele>3.6</ele>
        <time>2022-10-09T09:06:50Z</time>
      </trkpt>
      <trkpt lat="43.41295" lon="6.72977">
        <ele>3.6</ele>
        <time>2022-10-09T09:06:51Z</time>
      </trkpt>
      <trkpt lat="43.41298" lon="6.72973">
        <ele>3.6</ele>
        <time>2022-10-09T09:06:52Z</time>
      </trkpt>
      <trkpt lat="43.41325" lon="6.72938">
        <ele>3.6</ele>
        <time>2022-10-09T09:07:00Z</time>
      </trkpt>
      <trkpt lat="43.41329" lon="6.72934">
        <ele>3.6</ele>
        <time>2022-10-09T09:07:01Z</time>
      </trkpt>
      <trkpt lat="43.41335" lon="6.72925">
        <ele>3.7</ele>
        <time>2022-10-09T09:07:03Z</time>
      </trkpt>
      <trkpt lat="43.41339" lon="6.72921">
        <ele>3.7</ele>
        <time>2022-10-09T09:07:04Z</time>
      </trkpt>
      <trkpt lat="43.41345" lon="6.72913">
        <ele>3.7</ele>
        <time>2022-10-09T09:07:06Z</time>
      </trkpt>
      <trkpt lat="43.41352" lon="6.72904">
        <ele>3.8</ele>
        <time>2022-10-09T09:07:08Z</time>
      </trkpt>
      <trkpt lat="43.41358" lon="6.72896">
        <ele>3.8</ele>
        <time>2022-10-09T09:07:10Z</time>
      </trkpt>
      <trkpt lat="43.41377" lon="6.72871">
        <ele>3.9</ele>
        <time>2022-10-09T09:07:16Z</time>
      </trkpt>
      <trkpt lat="43.41397" lon="6.72846">
        <ele>4.1</ele>
        <time>2022-10-09T09:07:22Z</time>
      </trkpt>
      <trkpt lat="43.414" lon="6.72841">
        <ele>4.1</ele>
        <time>2022-10-09T09:07:23Z</time>
      </trkpt>
      <trkpt lat="43.41403" lon="6.72837">
        <ele>4.1</ele>
        <time>2022-10-09T09:07:24Z</time>
      </trkpt>
      <trkpt lat="43.41413" lon="6.72824">
        <ele>4.1</ele>
        <time>2022-10-09T09:07:27Z</time>
      </trkpt>
      <trkpt lat="43.4143" lon="6.72802">
        <ele>4.2</ele>
        <time>2022-10-09T09:07:32Z</time>
      </trkpt>
      <trkpt lat="43.41469" lon="6.72752">
        <ele>4.5</ele>
        <time>2022-10-09T09:07:43Z</time>
      </trkpt>
      <trkpt lat="43.41472" lon="6.72747">
        <ele>4.6</ele>
        <time>2022-10-09T09:07:44Z</time>
      </trkpt>
      <trkpt lat="43.41475" lon="6.72742">
        <ele>4.6</ele>
        <time>2022-10-09T09:07:45Z</time>
      </trkpt>
      <trkpt lat="43.41485" lon="6.72715">
        <ele>4.4</ele>
        <time>2022-10-09T09:07:49Z</time>
      </trkpt>
      <trkpt lat="43.41489" lon="6.72707">
        <ele>4.3</ele>
        <time>2022-10-09T09:07:50Z</time>
      </trkpt>
      <trkpt lat="43.41493" lon="6.727">
        <ele>4.2</ele>
        <time>2022-10-09T09:07:51Z</time>
      </trkpt>
      <trkpt lat="43.41497" lon="6.72693">
        <ele>4.3</ele>
        <time>2022-10-09T09:07:52Z</time>
      </trkpt>
      <trkpt lat="43.41501" lon="6.72688">
        <ele>4.3</ele>
        <time>2022-10-09T09:07:53Z</time>
      </trkpt>
      <trkpt lat="43.41505" lon="6.72682">
        <ele>4.4</ele>
        <time>2022-10-09T09:07:54Z</time>
      </trkpt>
      <trkpt lat="43.41509" lon="6.72678">
        <ele>4.4</ele>
        <time>2022-10-09T09:07:55Z</time>
      </trkpt>
      <trkpt lat="43.41513" lon="6.72673">
        <ele>4.5</ele>
        <time>2022-10-09T09:07:56Z</time>
      </trkpt>
      <trkpt lat="43.41516" lon="6.72668">
        <ele>4.6</ele>
        <time>2022-10-09T09:07:57Z</time>
      </trkpt>
      <trkpt lat="43.41517" lon="6.72661">
        <ele>4.7</ele>
        <time>2022-10-09T09:07:58Z</time>
      </trkpt>
      <trkpt lat="43.41517" lon="6.72655">
        <ele>4.8</ele>
        <time>2022-10-09T09:07:59Z</time>
      </trkpt>
      <trkpt lat="43.41515" lon="6.72651">
        <ele>4.8</ele>
        <time>2022-10-09T09:08:00Z</time>
      </trkpt>
      <trkpt lat="43.41511" lon="6.72648">
        <ele>4.8</ele>
        <time>2022-10-09T09:08:01Z</time>
      </trkpt>
      <trkpt lat="43.41497" lon="6.72644">
        <ele>4.8</ele>
        <time>2022-10-09T09:08:04Z</time>
      </trkpt>
      <trkpt lat="43.41492" lon="6.72642">
        <ele>4.8</ele>
        <time>2022-10-09T09:08:05Z</time>
      </trkpt>
      <trkpt lat="43.41488" lon="6.7264">
        <ele>4.8</ele>
        <time>2022-10-09T09:08:06Z</time>
      </trkpt>
      <trkpt lat="43.41484" lon="6.72637">
        <ele>4.8</ele>
        <time>2022-10-09T09:08:07Z</time>
      </trkpt>
      <trkpt lat="43.4148" lon="6.72635">
        <ele>4.7</ele>
        <time>2022-10-09T09:08:08Z</time>
      </trkpt>
      <trkpt lat="43.41476" lon="6.72633">
        <ele>4.7</ele>
        <time>2022-10-09T09:08:09Z</time>
      </trkpt>
      <trkpt lat="43.41472" lon="6.72632">
        <ele>4.7</ele>
        <time>2022-10-09T09:08:10Z</time>
      </trkpt>
      <trkpt lat="43.41467" lon="6.7263">
        <ele>4.7</ele>
        <time>2022-10-09T09:08:11Z</time>
      </trkpt>
      <trkpt lat="43.41463" lon="6.72628">
        <ele>4.7</ele>
        <time>2022-10-09T09:08:12Z</time>
      </trkpt>
      <trkpt lat="43.41459" lon="6.72627">
        <ele>4.7</ele>
        <time>2022-10-09T09:08:13Z</time>
      </trkpt>
      <trkpt lat="43.41456" lon="6.72625">
        <ele>4.7</ele>
        <time>2022-10-09T09:08:14Z</time>
      </trkpt>
      <trkpt lat="43.41453" lon="6.72623">
        <ele>4.7</ele>
        <time>2022-10-09T09:08:15Z</time>
      </trkpt>
      <trkpt lat="43.4145" lon="6.72621">
        <ele>4.7</ele>
        <time>2022-10-09T09:08:16Z</time>
      </trkpt>
      <trkpt lat="43.41447" lon="6.72619">
        <ele>4.7</ele>
        <time>2022-10-09T09:08:17Z</time>
      </trkpt>
      <trkpt lat="43.41445" lon="6.72618">
        <ele>4.7</ele>
        <time>2022-10-09T09:08:18Z</time>
      </trkpt>
      <trkpt lat="43.41442" lon="6.72616">
        <ele>4.7</ele>
        <time>2022-10-09T09:08:19Z</time>
      </trkpt>
      <trkpt lat="43.41439" lon="6.72609">
        <ele>4.7</ele>
        <time>2022-10-09T09:08:21Z</time>
      </trkpt>
      <trkpt lat="43.41438" lon="6.72605">
        <ele>4.7</ele>
        <time>2022-10-09T09:08:22Z</time>
      </trkpt>
      <trkpt lat="43.41436" lon="6.72601">
        <ele>4.7</ele>
        <time>2022-10-09T09:08:23Z</time>
      </trkpt>
      <trkpt lat="43.41431" lon="6.72588">
        <ele>4.7</ele>
        <time>2022-10-09T09:08:26Z</time>
      </trkpt>
      <trkpt lat="43.41429" lon="6.72584">
        <ele>4.6</ele>
        <time>2022-10-09T09:08:27Z</time>
      </trkpt>
      <trkpt lat="43.41421" lon="6.72571">
        <ele>4.6</ele>
        <time>2022-10-09T09:08:30Z</time>
      </trkpt>
      <trkpt lat="43.41419" lon="6.72567">
        <ele>4.6</ele>
        <time>2022-10-09T09:08:31Z</time>
      </trkpt>
      <trkpt lat="43.41411" lon="6.72547">
        <ele>4.6</ele>
        <time>2022-10-09T09:08:35Z</time>
      </trkpt>
      <trkpt lat="43.41403" lon="6.72524">
        <ele>4.6</ele>
        <time>2022-10-09T09:08:39Z</time>
      </trkpt>
      <trkpt lat="43.41397" lon="6.72515">
        <ele>4.6</ele>
        <time>2022-10-09T09:08:41Z</time>
      </trkpt>
      <trkpt lat="43.41394" lon="6.7251">
        <ele>4.5</ele>
        <time>2022-10-09T09:08:42Z</time>
      </trkpt>
      <trkpt lat="43.41391" lon="6.72506">
        <ele>4.5</ele>
        <time>2022-10-09T09:08:43Z</time>
      </trkpt>
      <trkpt lat="43.41388" lon="6.72502">
        <ele>4.5</ele>
        <time>2022-10-09T09:08:44Z</time>
      </trkpt>
      <trkpt lat="43.41385" lon="6.72498">
        <ele>4.5</ele>
        <time>2022-10-09T09:08:45Z</time>
      </trkpt>
      <trkpt lat="43.41383" lon="6.72493">
        <ele>4.5</ele>
        <time>2022-10-09T09:08:46Z</time>
      </trkpt>
      <trkpt lat="43.4138" lon="6.72489">
        <ele>4.5</ele>
        <time>2022-10-09T09:08:47Z</time>
      </trkpt>
      <trkpt lat="43.41377" lon="6.72485">
        <ele>4.5</ele>
        <time>2022-10-09T09:08:48Z</time>
      </trkpt>
      <trkpt lat="43.41374" lon="6.72482">
        <ele>4.5</ele>
        <time>2022-10-09T09:08:49Z</time>
      </trkpt>
      <trkpt lat="43.41371" lon="6.72478">
        <ele>4.5</ele>
        <time>2022-10-09T09:08:50Z</time>
      </trkpt>
      <trkpt lat="43.41368" lon="6.72475">
        <ele>4.5</ele>
        <time>2022-10-09T09:08:51Z</time>
      </trkpt>
      <trkpt lat="43.41365" lon="6.72473">
        <ele>4.5</ele>
        <time>2022-10-09T09:08:52Z</time>
      </trkpt>
      <trkpt lat="43.41363" lon="6.7247">
        <ele>4.5</ele>
        <time>2022-10-09T09:08:53Z</time>
      </trkpt>
      <trkpt lat="43.4136" lon="6.72467">
        <ele>4.5</ele>
        <time>2022-10-09T09:08:54Z</time>
      </trkpt>
      <trkpt lat="43.41354" lon="6.72463">
        <ele>4.5</ele>
        <time>2022-10-09T09:08:56Z</time>
      </trkpt>
      <trkpt lat="43.41351" lon="6.72461">
        <ele>4.5</ele>
        <time>2022-10-09T09:08:57Z</time>
      </trkpt>
      <trkpt lat="43.41336" lon="6.72454">
        <ele>4.4</ele>
        <time>2022-10-09T09:09:01Z</time>
      </trkpt>
      <trkpt lat="43.41319" lon="6.72455">
        <ele>4.4</ele>
        <time>2022-10-09T09:09:05Z</time>
      </trkpt>
      <trkpt lat="43.41315" lon="6.72457">
        <ele>4.4</ele>
        <time>2022-10-09T09:09:06Z</time>
      </trkpt>
      <trkpt lat="43.41311" lon="6.72458">
        <ele>4.4</ele>
        <time>2022-10-09T09:09:07Z</time>
      </trkpt>
      <trkpt lat="43.41308" lon="6.72459">
        <ele>4.4</ele>
        <time>2022-10-09T09:09:08Z</time>
      </trkpt>
      <trkpt lat="43.413" lon="6.72461">
        <ele>4.4</ele>
        <time>2022-10-09T09:09:10Z</time>
      </trkpt>
      <trkpt lat="43.41296" lon="6.72463">
        <ele>4.4</ele>
        <time>2022-10-09T09:09:11Z</time>
      </trkpt>
      <trkpt lat="43.41292" lon="6.72465">
        <ele>4.4</ele>
        <time>2022-10-09T09:09:12Z</time>
      </trkpt>
      <trkpt lat="43.41289" lon="6.72467">
        <ele>4.4</ele>
        <time>2022-10-09T09:09:13Z</time>
      </trkpt>
      <trkpt lat="43.41286" lon="6.72469">
        <ele>4.4</ele>
        <time>2022-10-09T09:09:14Z</time>
      </trkpt>
      <trkpt lat="43.41283" lon="6.72471">
        <ele>4.4</ele>
        <time>2022-10-09T09:09:15Z</time>
      </trkpt>
      <trkpt lat="43.41281" lon="6.72472">
        <ele>4.3</ele>
        <time>2022-10-09T09:09:16Z</time>
      </trkpt>
      <trkpt lat="43.41279" lon="6.72473">
        <ele>4.3</ele>
        <time>2022-10-09T09:09:17Z</time>
      </trkpt>
      <trkpt lat="43.41276" lon="6.72474">
        <ele>4.3</ele>
        <time>2022-10-09T09:09:18Z</time>
      </trkpt>
      <trkpt lat="43.41274" lon="6.72474">
        <ele>4.3</ele>
        <time>2022-10-09T09:09:19Z</time>
      </trkpt>
      <trkpt lat="43.41272" lon="6.72474">
        <ele>4.3</ele>
        <time>2022-10-09T09:09:20Z</time>
      </trkpt>
      <trkpt lat="43.41268" lon="6.72474">
        <ele>4.3</ele>
        <time>2022-10-09T09:09:22Z</time>
      </trkpt>
      <trkpt lat="43.41267" lon="6.72474">
        <ele>4.3</ele>
        <time>2022-10-09T09:09:23Z</time>
      </trkpt>
      <trkpt lat="43.41265" lon="6.72474">
        <ele>4.3</ele>
        <time>2022-10-09T09:09:24Z</time>
      </trkpt>
      <trkpt lat="43.41264" lon="6.72474">
        <ele>4.3</ele>
        <time>2022-10-09T09:09:25Z</time>
      </trkpt>
      <trkpt lat="43.41263" lon="6.72474">
        <ele>4.3</ele>
        <time>2022-10-09T09:09:26Z</time>
      </trkpt>
      <trkpt lat="43.41261" lon="6.72474">
        <ele>4.3</ele>
        <time>2022-10-09T09:09:27Z</time>
      </trkpt>
      <trkpt lat="43.4126" lon="6.72474">
        <ele>4.3</ele>
        <time>2022-10-09T09:09:28Z</time>
      </trkpt>
      <trkpt lat="43.41255" lon="6.72473">
        <ele>4.3</ele>
        <time>2022-10-09T09:09:32Z</time>
      </trkpt>
      <trkpt lat="43.41254" lon="6.72473">
        <ele>4.3</ele>
        <time>2022-10-09T09:09:33Z</time>
      </trkpt>
      <trkpt lat="43.41251" lon="6.72473">
        <ele>4.3</ele>
        <time>2022-10-09T09:09:35Z</time>
      </trkpt>
      <trkpt lat="43.4125" lon="6.72472">
        <ele>4.3</ele>
        <time>2022-10-09T09:09:36Z</time>
      </trkpt>
      <trkpt lat="43.4125" lon="6.72472">
        <ele>4.3</ele>
        <time>2022-10-09T09:09:38Z</time>
      </trkpt>
      <trkpt lat="43.41184" lon="6.72493">
        <ele>4.2</ele>
        <time>2022-10-09T09:11:07Z</time>
      </trkpt>
      <trkpt lat="43.41181" lon="6.72494">
        <ele>4.2</ele>
        <time>2022-10-09T09:11:08Z</time>
      </trkpt>
      <trkpt lat="43.41178" lon="6.72496">
        <ele>4.2</ele>
        <time>2022-10-09T09:11:09Z</time>
      </trkpt>
      <trkpt lat="43.41175" lon="6.72497">
        <ele>4.2</ele>
        <time>2022-10-09T09:11:10Z</time>
      </trkpt>
      <trkpt lat="43.41172" lon="6.72497">
        <ele>4.2</ele>
        <time>2022-10-09T09:11:11Z</time>
      </trkpt>
      <trkpt lat="43.4117" lon="6.72496">
        <ele>4.2</ele>
        <time>2022-10-09T09:11:12Z</time>
      </trkpt>
      <trkpt lat="43.41169" lon="6.72496">
        <ele>4.2</ele>
        <time>2022-10-09T09:11:13Z</time>
      </trkpt>
      <trkpt lat="43.41167" lon="6.72494">
        <ele>4.2</ele>
        <time>2022-10-09T09:11:14Z</time>
      </trkpt>
      <trkpt lat="43.41167" lon="6.72493">
        <ele>4.2</ele>
        <time>2022-10-09T09:11:15Z</time>
      </trkpt>
      <trkpt lat="43.41166" lon="6.72491">
        <ele>4.2</ele>
        <time>2022-10-09T09:11:16Z</time>
      </trkpt>
      <trkpt lat="43.41166" lon="6.72489">
        <ele>4.4</ele>
        <time>2022-10-09T09:11:17Z</time>
      </trkpt>
      <trkpt lat="43.41165" lon="6.72488">
        <ele>4.5</ele>
        <time>2022-10-09T09:11:18Z</time>
      </trkpt>
      <trkpt lat="43.41165" lon="6.72485">
        <ele>4.6</ele>
        <time>2022-10-09T09:11:19Z</time>
      </trkpt>
      <trkpt lat="43.41164" lon="6.72484">
        <ele>4.7</ele>
        <time>2022-10-09T09:11:20Z</time>
      </trkpt>
      <trkpt lat="43.41164" lon="6.72483">
        <ele>3.3</ele>
        <time>2022-10-09T09:11:21Z</time>
      </trkpt>
      <trkpt lat="43.41164" lon="6.72482">
        <ele>3.4</ele>
        <time>2022-10-09T09:11:22Z</time>
      </trkpt>
      <trkpt lat="43.41165" lon="6.72482">
        <ele>3.5</ele>
        <time>2022-10-09T09:11:23Z</time>
      </trkpt>
      <trkpt lat="43.41165" lon="6.72481">
        <ele>3.6</ele>
        <time>2022-10-09T09:11:24Z</time>
      </trkpt>
      <trkpt lat="43.41165" lon="6.7248">
        <ele>3.8</ele>
        <time>2022-10-09T09:11:25Z</time>
      </trkpt>
      <trkpt lat="43.41165" lon="6.72478">
        <ele>3.9</ele>
        <time>2022-10-09T09:11:27Z</time>
      </trkpt>
      <trkpt lat="43.41165" lon="6.72477">
        <ele>4</ele>
        <time>2022-10-09T09:11:28Z</time>
      </trkpt>
      <trkpt lat="43.41165" lon="6.72471">
        <ele>4.1</ele>
        <time>2022-10-09T09:11:32Z</time>
      </trkpt>
      <trkpt lat="43.41165" lon="6.72469">
        <ele>4.2</ele>
        <time>2022-10-09T09:11:33Z</time>
      </trkpt>
      <trkpt lat="43.41164" lon="6.72465">
        <ele>2.7</ele>
        <time>2022-10-09T09:11:35Z</time>
      </trkpt>
      <trkpt lat="43.41163" lon="6.72464">
        <ele>2.8</ele>
        <time>2022-10-09T09:11:36Z</time>
      </trkpt>
      <trkpt lat="43.41161" lon="6.72464">
        <ele>2.9</ele>
        <time>2022-10-09T09:11:37Z</time>
      </trkpt>
      <trkpt lat="43.41159" lon="6.72465">
        <ele>3</ele>
        <time>2022-10-09T09:11:38Z</time>
      </trkpt>
      <trkpt lat="43.41156" lon="6.72466">
        <ele>3.1</ele>
        <time>2022-10-09T09:11:40Z</time>
      </trkpt>
      <trkpt lat="43.41154" lon="6.72466">
        <ele>3.2</ele>
        <time>2022-10-09T09:11:41Z</time>
      </trkpt>
      <trkpt lat="43.41152" lon="6.72464">
        <ele>2.7</ele>
        <time>2022-10-09T09:11:42Z</time>
      </trkpt>
      <trkpt lat="43.41148" lon="6.72463">
        <ele>2.8</ele>
        <time>2022-10-09T09:11:43Z</time>
      </trkpt>
      <trkpt lat="43.41144" lon="6.72461">
        <ele>2.9</ele>
        <time>2022-10-09T09:11:44Z</time>
      </trkpt>
      <trkpt lat="43.4114" lon="6.7246">
        <ele>3.1</ele>
        <time>2022-10-09T09:11:45Z</time>
      </trkpt>
      <trkpt lat="43.41119" lon="6.72454">
        <ele>3.3</ele>
        <time>2022-10-09T09:11:50Z</time>
      </trkpt>
      <trkpt lat="43.4111" lon="6.72451">
        <ele>3.2</ele>
        <time>2022-10-09T09:11:52Z</time>
      </trkpt>
      <trkpt lat="43.41106" lon="6.72449">
        <ele>3.2</ele>
        <time>2022-10-09T09:11:53Z</time>
      </trkpt>
      <trkpt lat="43.41103" lon="6.72448">
        <ele>3.5</ele>
        <time>2022-10-09T09:11:54Z</time>
      </trkpt>
      <trkpt lat="43.41099" lon="6.72446">
        <ele>3.6</ele>
        <time>2022-10-09T09:11:55Z</time>
      </trkpt>
      <trkpt lat="43.41095" lon="6.72444">
        <ele>3.7</ele>
        <time>2022-10-09T09:11:56Z</time>
      </trkpt>
      <trkpt lat="43.41091" lon="6.72442">
        <ele>3.8</ele>
        <time>2022-10-09T09:11:57Z</time>
      </trkpt>
      <trkpt lat="43.41088" lon="6.7244">
        <ele>5.1</ele>
        <time>2022-10-09T09:11:58Z</time>
      </trkpt>
      <trkpt lat="43.41084" lon="6.72439">
        <ele>5.2</ele>
        <time>2022-10-09T09:11:59Z</time>
      </trkpt>
      <trkpt lat="43.41077" lon="6.72436">
        <ele>6.6</ele>
        <time>2022-10-09T09:12:01Z</time>
      </trkpt>
      <trkpt lat="43.41074" lon="6.72437">
        <ele>6.7</ele>
        <time>2022-10-09T09:12:02Z</time>
      </trkpt>
      <trkpt lat="43.41071" lon="6.72439">
        <ele>6.7</ele>
        <time>2022-10-09T09:12:03Z</time>
      </trkpt>
      <trkpt lat="43.41068" lon="6.7244">
        <ele>6.6</ele>
        <time>2022-10-09T09:12:04Z</time>
      </trkpt>
      <trkpt lat="43.41065" lon="6.72439">
        <ele>6.6</ele>
        <time>2022-10-09T09:12:05Z</time>
      </trkpt>
      <trkpt lat="43.41062" lon="6.72436">
        <ele>6.5</ele>
        <time>2022-10-09T09:12:06Z</time>
      </trkpt>
      <trkpt lat="43.41059" lon="6.72432">
        <ele>6.4</ele>
        <time>2022-10-09T09:12:07Z</time>
      </trkpt>
      <trkpt lat="43.41055" lon="6.72429">
        <ele>6.3</ele>
        <time>2022-10-09T09:12:08Z</time>
      </trkpt>
      <trkpt lat="43.41051" lon="6.72426">
        <ele>6.3</ele>
        <time>2022-10-09T09:12:09Z</time>
      </trkpt>
      <trkpt lat="43.41047" lon="6.72423">
        <ele>6.2</ele>
        <time>2022-10-09T09:12:10Z</time>
      </trkpt>
      <trkpt lat="43.41042" lon="6.72421">
        <ele>6.1</ele>
        <time>2022-10-09T09:12:11Z</time>
      </trkpt>
      <trkpt lat="43.41037" lon="6.72419">
        <ele>6.1</ele>
        <time>2022-10-09T09:12:12Z</time>
      </trkpt>
      <trkpt lat="43.41032" lon="6.72418">
        <ele>6.1</ele>
        <time>2022-10-09T09:12:13Z</time>
      </trkpt>
      <trkpt lat="43.41028" lon="6.72417">
        <ele>6</ele>
        <time>2022-10-09T09:12:14Z</time>
      </trkpt>
      <trkpt lat="43.41018" lon="6.72415">
        <ele>6</ele>
        <time>2022-10-09T09:12:16Z</time>
      </trkpt>
      <trkpt lat="43.41002" lon="6.72413">
        <ele>5.9</ele>
        <time>2022-10-09T09:12:19Z</time>
      </trkpt>
      <trkpt lat="43.4096" lon="6.72413">
        <ele>5.9</ele>
        <time>2022-10-09T09:12:27Z</time>
      </trkpt>
      <trkpt lat="43.40944" lon="6.72416">
        <ele>6</ele>
        <time>2022-10-09T09:12:30Z</time>
      </trkpt>
      <trkpt lat="43.40939" lon="6.72417">
        <ele>6.1</ele>
        <time>2022-10-09T09:12:31Z</time>
      </trkpt>
      <trkpt lat="43.40929" lon="6.72421">
        <ele>6.2</ele>
        <time>2022-10-09T09:12:33Z</time>
      </trkpt>
      <trkpt lat="43.40924" lon="6.72422">
        <ele>6.2</ele>
        <time>2022-10-09T09:12:34Z</time>
      </trkpt>
      <trkpt lat="43.40919" lon="6.7242">
        <ele>6.1</ele>
        <time>2022-10-09T09:12:35Z</time>
      </trkpt>
      <trkpt lat="43.40915" lon="6.72418">
        <ele>6.1</ele>
        <time>2022-10-09T09:12:36Z</time>
      </trkpt>
      <trkpt lat="43.40911" lon="6.72413">
        <ele>5.8</ele>
        <time>2022-10-09T09:12:37Z</time>
      </trkpt>
      <trkpt lat="43.40909" lon="6.72396">
        <ele>4.8</ele>
        <time>2022-10-09T09:12:39Z</time>
      </trkpt>
      <trkpt lat="43.40908" lon="6.72387">
        <ele>4.7</ele>
        <time>2022-10-09T09:12:40Z</time>
      </trkpt>
      <trkpt lat="43.40906" lon="6.72377">
        <ele>4.6</ele>
        <time>2022-10-09T09:12:41Z</time>
      </trkpt>
      <trkpt lat="43.40903" lon="6.72369">
        <ele>4.6</ele>
        <time>2022-10-09T09:12:42Z</time>
      </trkpt>
      <trkpt lat="43.40899" lon="6.72362">
        <ele>4.5</ele>
        <time>2022-10-09T09:12:43Z</time>
      </trkpt>
      <trkpt lat="43.40895" lon="6.72356">
        <ele>4.3</ele>
        <time>2022-10-09T09:12:44Z</time>
      </trkpt>
      <trkpt lat="43.4089" lon="6.72351">
        <ele>4.1</ele>
        <time>2022-10-09T09:12:45Z</time>
      </trkpt>
      <trkpt lat="43.40885" lon="6.72346">
        <ele>4</ele>
        <time>2022-10-09T09:12:46Z</time>
      </trkpt>
      <trkpt lat="43.40879" lon="6.72342">
        <ele>3.8</ele>
        <time>2022-10-09T09:12:47Z</time>
      </trkpt>
      <trkpt lat="43.40874" lon="6.72339">
        <ele>3.7</ele>
        <time>2022-10-09T09:12:48Z</time>
      </trkpt>
      <trkpt lat="43.40862" lon="6.72333">
        <ele>3.5</ele>
        <time>2022-10-09T09:12:50Z</time>
      </trkpt>
      <trkpt lat="43.4085" lon="6.72331">
        <ele>3.4</ele>
        <time>2022-10-09T09:12:52Z</time>
      </trkpt>
      <trkpt lat="43.40843" lon="6.72332">
        <ele>3.4</ele>
        <time>2022-10-09T09:12:53Z</time>
      </trkpt>
      <trkpt lat="43.40831" lon="6.72332">
        <ele>3.4</ele>
        <time>2022-10-09T09:12:55Z</time>
      </trkpt>
      <trkpt lat="43.40826" lon="6.72331">
        <ele>3.4</ele>
        <time>2022-10-09T09:12:56Z</time>
      </trkpt>
      <trkpt lat="43.4082" lon="6.7233">
        <ele>3.4</ele>
        <time>2022-10-09T09:12:57Z</time>
      </trkpt>
      <trkpt lat="43.40814" lon="6.72328">
        <ele>3.4</ele>
        <time>2022-10-09T09:12:58Z</time>
      </trkpt>
      <trkpt lat="43.40767" lon="6.7231">
        <ele>3.2</ele>
        <time>2022-10-09T09:13:06Z</time>
      </trkpt>
      <trkpt lat="43.40761" lon="6.72308">
        <ele>3.2</ele>
        <time>2022-10-09T09:13:07Z</time>
      </trkpt>
      <trkpt lat="43.40749" lon="6.72303">
        <ele>3.2</ele>
        <time>2022-10-09T09:13:09Z</time>
      </trkpt>
      <trkpt lat="43.40739" lon="6.72294">
        <ele>3.3</ele>
        <time>2022-10-09T09:13:11Z</time>
      </trkpt>
      <trkpt lat="43.40735" lon="6.72288">
        <ele>3.3</ele>
        <time>2022-10-09T09:13:12Z</time>
      </trkpt>
      <trkpt lat="43.40732" lon="6.72281">
        <ele>3.3</ele>
        <time>2022-10-09T09:13:13Z</time>
      </trkpt>
      <trkpt lat="43.4073" lon="6.72273">
        <ele>3.3</ele>
        <time>2022-10-09T09:13:14Z</time>
      </trkpt>
      <trkpt lat="43.4073" lon="6.72265">
        <ele>3.3</ele>
        <time>2022-10-09T09:13:15Z</time>
      </trkpt>
      <trkpt lat="43.4073" lon="6.72256">
        <ele>3.3</ele>
        <time>2022-10-09T09:13:16Z</time>
      </trkpt>
      <trkpt lat="43.40731" lon="6.72249">
        <ele>3.3</ele>
        <time>2022-10-09T09:13:17Z</time>
      </trkpt>
      <trkpt lat="43.40734" lon="6.72241">
        <ele>3.3</ele>
        <time>2022-10-09T09:13:18Z</time>
      </trkpt>
      <trkpt lat="43.40737" lon="6.72235">
        <ele>3.2</ele>
        <time>2022-10-09T09:13:19Z</time>
      </trkpt>
      <trkpt lat="43.40741" lon="6.72228">
        <ele>3.2</ele>
        <time>2022-10-09T09:13:20Z</time>
      </trkpt>
      <trkpt lat="43.40745" lon="6.72222">
        <ele>3.2</ele>
        <time>2022-10-09T09:13:21Z</time>
      </trkpt>
      <trkpt lat="43.40765" lon="6.7218">
        <ele>3.3</ele>
        <time>2022-10-09T09:13:27Z</time>
      </trkpt>
      <trkpt lat="43.40772" lon="6.72165">
        <ele>3.4</ele>
        <time>2022-10-09T09:13:29Z</time>
      </trkpt>
      <trkpt lat="43.40782" lon="6.72143">
        <ele>3.4</ele>
        <time>2022-10-09T09:13:32Z</time>
      </trkpt>
      <trkpt lat="43.40784" lon="6.72135">
        <ele>3.4</ele>
        <time>2022-10-09T09:13:33Z</time>
      </trkpt>
      <trkpt lat="43.40786" lon="6.72127">
        <ele>3.5</ele>
        <time>2022-10-09T09:13:34Z</time>
      </trkpt>
      <trkpt lat="43.40788" lon="6.72119">
        <ele>3.5</ele>
        <time>2022-10-09T09:13:35Z</time>
      </trkpt>
      <trkpt lat="43.40789" lon="6.7211">
        <ele>3.5</ele>
        <time>2022-10-09T09:13:36Z</time>
      </trkpt>
      <trkpt lat="43.4079" lon="6.72102">
        <ele>3.5</ele>
        <time>2022-10-09T09:13:37Z</time>
      </trkpt>
      <trkpt lat="43.4079" lon="6.72094">
        <ele>3.5</ele>
        <time>2022-10-09T09:13:38Z</time>
      </trkpt>
      <trkpt lat="43.40791" lon="6.72085">
        <ele>3.5</ele>
        <time>2022-10-09T09:13:39Z</time>
      </trkpt>
      <trkpt lat="43.40791" lon="6.72069">
        <ele>3.5</ele>
        <time>2022-10-09T09:13:41Z</time>
      </trkpt>
      <trkpt lat="43.40792" lon="6.72061">
        <ele>3.5</ele>
        <time>2022-10-09T09:13:42Z</time>
      </trkpt>
      <trkpt lat="43.40794" lon="6.72053">
        <ele>3.5</ele>
        <time>2022-10-09T09:13:43Z</time>
      </trkpt>
      <trkpt lat="43.40795" lon="6.72045">
        <ele>3.5</ele>
        <time>2022-10-09T09:13:44Z</time>
      </trkpt>
      <trkpt lat="43.40796" lon="6.72037">
        <ele>3.5</ele>
        <time>2022-10-09T09:13:45Z</time>
      </trkpt>
      <trkpt lat="43.40797" lon="6.72029">
        <ele>3.5</ele>
        <time>2022-10-09T09:13:46Z</time>
      </trkpt>
      <trkpt lat="43.408" lon="6.72013">
        <ele>3.5</ele>
        <time>2022-10-09T09:13:48Z</time>
      </trkpt>
      <trkpt lat="43.40804" lon="6.71989">
        <ele>3.3</ele>
        <time>2022-10-09T09:13:51Z</time>
      </trkpt>
      <trkpt lat="43.40809" lon="6.71973">
        <ele>3.3</ele>
        <time>2022-10-09T09:13:53Z</time>
      </trkpt>
      <trkpt lat="43.40814" lon="6.71957">
        <ele>3.2</ele>
        <time>2022-10-09T09:13:55Z</time>
      </trkpt>
      <trkpt lat="43.40816" lon="6.7195">
        <ele>3.2</ele>
        <time>2022-10-09T09:13:56Z</time>
      </trkpt>
      <trkpt lat="43.40821" lon="6.71935">
        <ele>3.2</ele>
        <time>2022-10-09T09:13:58Z</time>
      </trkpt>
      <trkpt lat="43.40824" lon="6.71927">
        <ele>3.2</ele>
        <time>2022-10-09T09:13:59Z</time>
      </trkpt>
      <trkpt lat="43.40826" lon="6.7192">
        <ele>3.2</ele>
        <time>2022-10-09T09:14:00Z</time>
      </trkpt>
      <trkpt lat="43.40829" lon="6.71912">
        <ele>3.2</ele>
        <time>2022-10-09T09:14:01Z</time>
      </trkpt>
      <trkpt lat="43.40831" lon="6.71905">
        <ele>3.2</ele>
        <time>2022-10-09T09:14:02Z</time>
      </trkpt>
      <trkpt lat="43.40834" lon="6.71898">
        <ele>3.2</ele>
        <time>2022-10-09T09:14:03Z</time>
      </trkpt>
      <trkpt lat="43.40845" lon="6.7187">
        <ele>3.2</ele>
        <time>2022-10-09T09:14:07Z</time>
      </trkpt>
      <trkpt lat="43.40848" lon="6.71864">
        <ele>3.2</ele>
        <time>2022-10-09T09:14:08Z</time>
      </trkpt>
      <trkpt lat="43.40852" lon="6.71857">
        <ele>3.2</ele>
        <time>2022-10-09T09:14:09Z</time>
      </trkpt>
      <trkpt lat="43.40855" lon="6.71851">
        <ele>3.2</ele>
        <time>2022-10-09T09:14:10Z</time>
      </trkpt>
      <trkpt lat="43.40861" lon="6.71837">
        <ele>3.2</ele>
        <time>2022-10-09T09:14:12Z</time>
      </trkpt>
      <trkpt lat="43.40864" lon="6.71831">
        <ele>3.2</ele>
        <time>2022-10-09T09:14:13Z</time>
      </trkpt>
      <trkpt lat="43.40868" lon="6.71826">
        <ele>3.2</ele>
        <time>2022-10-09T09:14:14Z</time>
      </trkpt>
      <trkpt lat="43.40872" lon="6.7182">
        <ele>3.2</ele>
        <time>2022-10-09T09:14:15Z</time>
      </trkpt>
      <trkpt lat="43.40884" lon="6.71803">
        <ele>3.2</ele>
        <time>2022-10-09T09:14:18Z</time>
      </trkpt>
      <trkpt lat="43.40891" lon="6.71792">
        <ele>3.1</ele>
        <time>2022-10-09T09:14:20Z</time>
      </trkpt>
      <trkpt lat="43.40896" lon="6.71778">
        <ele>3.1</ele>
        <time>2022-10-09T09:14:22Z</time>
      </trkpt>
      <trkpt lat="43.40899" lon="6.71763">
        <ele>3.1</ele>
        <time>2022-10-09T09:14:24Z</time>
      </trkpt>
      <trkpt lat="43.40901" lon="6.71747">
        <ele>3.1</ele>
        <time>2022-10-09T09:14:26Z</time>
      </trkpt>
      <trkpt lat="43.40902" lon="6.7174">
        <ele>3</ele>
        <time>2022-10-09T09:14:27Z</time>
      </trkpt>
      <trkpt lat="43.40903" lon="6.71732">
        <ele>3</ele>
        <time>2022-10-09T09:14:28Z</time>
      </trkpt>
      <trkpt lat="43.40906" lon="6.71717">
        <ele>2.9</ele>
        <time>2022-10-09T09:14:30Z</time>
      </trkpt>
      <trkpt lat="43.40907" lon="6.7171">
        <ele>2.9</ele>
        <time>2022-10-09T09:14:31Z</time>
      </trkpt>
      <trkpt lat="43.40909" lon="6.71703">
        <ele>2.8</ele>
        <time>2022-10-09T09:14:32Z</time>
      </trkpt>
      <trkpt lat="43.40918" lon="6.71663">
        <ele>2.7</ele>
        <time>2022-10-09T09:14:37Z</time>
      </trkpt>
      <trkpt lat="43.40927" lon="6.71618">
        <ele>2.6</ele>
        <time>2022-10-09T09:14:42Z</time>
      </trkpt>
      <trkpt lat="43.40929" lon="6.71609">
        <ele>2.5</ele>
        <time>2022-10-09T09:14:43Z</time>
      </trkpt>
      <trkpt lat="43.4093" lon="6.716">
        <ele>2.5</ele>
        <time>2022-10-09T09:14:44Z</time>
      </trkpt>
      <trkpt lat="43.40932" lon="6.71592">
        <ele>2.5</ele>
        <time>2022-10-09T09:14:45Z</time>
      </trkpt>
      <trkpt lat="43.40934" lon="6.71583">
        <ele>2.5</ele>
        <time>2022-10-09T09:14:46Z</time>
      </trkpt>
      <trkpt lat="43.40939" lon="6.71557">
        <ele>2.5</ele>
        <time>2022-10-09T09:14:49Z</time>
      </trkpt>
      <trkpt lat="43.4094" lon="6.71548">
        <ele>2.5</ele>
        <time>2022-10-09T09:14:50Z</time>
      </trkpt>
      <trkpt lat="43.40943" lon="6.71513">
        <ele>2.7</ele>
        <time>2022-10-09T09:14:54Z</time>
      </trkpt>
      <trkpt lat="43.40942" lon="6.71505">
        <ele>2.8</ele>
        <time>2022-10-09T09:14:55Z</time>
      </trkpt>
      <trkpt lat="43.40941" lon="6.71498">
        <ele>2.9</ele>
        <time>2022-10-09T09:14:56Z</time>
      </trkpt>
      <trkpt lat="43.40939" lon="6.71494">
        <ele>3</ele>
        <time>2022-10-09T09:14:57Z</time>
      </trkpt>
      <trkpt lat="43.40937" lon="6.7149">
        <ele>3</ele>
        <time>2022-10-09T09:14:58Z</time>
      </trkpt>
      <trkpt lat="43.40936" lon="6.71488">
        <ele>3</ele>
        <time>2022-10-09T09:14:59Z</time>
      </trkpt>
      <trkpt lat="43.40936" lon="6.71487">
        <ele>3.1</ele>
        <time>2022-10-09T09:15:00Z</time>
      </trkpt>
      <trkpt lat="43.40935" lon="6.71486">
        <ele>3.1</ele>
        <time>2022-10-09T09:15:01Z</time>
      </trkpt>
      <trkpt lat="43.40935" lon="6.71484">
        <ele>3.1</ele>
        <time>2022-10-09T09:15:02Z</time>
      </trkpt>
      <trkpt lat="43.40934" lon="6.71483">
        <ele>3.1</ele>
        <time>2022-10-09T09:15:03Z</time>
      </trkpt>
      <trkpt lat="43.40935" lon="6.71482">
        <ele>3.1</ele>
        <time>2022-10-09T09:15:04Z</time>
      </trkpt>
      <trkpt lat="43.40935" lon="6.71481">
        <ele>3.1</ele>
        <time>2022-10-09T09:15:05Z</time>
      </trkpt>
      <trkpt lat="43.40936" lon="6.71479">
        <ele>3.1</ele>
        <time>2022-10-09T09:15:06Z</time>
      </trkpt>
      <trkpt lat="43.40937" lon="6.71478">
        <ele>3.1</ele>
        <time>2022-10-09T09:15:07Z</time>
      </trkpt>
      <trkpt lat="43.40938" lon="6.71477">
        <ele>3.1</ele>
        <time>2022-10-09T09:15:09Z</time>
      </trkpt>
      <trkpt lat="43.40942" lon="6.71471">
        <ele>3.1</ele>
        <time>2022-10-09T09:15:12Z</time>
      </trkpt>
      <trkpt lat="43.40945" lon="6.71463">
        <ele>3</ele>
        <time>2022-10-09T09:15:14Z</time>
      </trkpt>
      <trkpt lat="43.40947" lon="6.71456">
        <ele>3</ele>
        <time>2022-10-09T09:15:15Z</time>
      </trkpt>
      <trkpt lat="43.4095" lon="6.71445">
        <ele>3</ele>
        <time>2022-10-09T09:15:17Z</time>
      </trkpt>
      <trkpt lat="43.40952" lon="6.71441">
        <ele>3</ele>
        <time>2022-10-09T09:15:18Z</time>
      </trkpt>
      <trkpt lat="43.40952" lon="6.71437">
        <ele>2.9</ele>
        <time>2022-10-09T09:15:19Z</time>
      </trkpt>
      <trkpt lat="43.40952" lon="6.71433">
        <ele>2.9</ele>
        <time>2022-10-09T09:15:20Z</time>
      </trkpt>
      <trkpt lat="43.40953" lon="6.7142">
        <ele>2.8</ele>
        <time>2022-10-09T09:15:23Z</time>
      </trkpt>
      <trkpt lat="43.40953" lon="6.71416">
        <ele>2.8</ele>
        <time>2022-10-09T09:15:24Z</time>
      </trkpt>
      <trkpt lat="43.40955" lon="6.71414">
        <ele>2.8</ele>
        <time>2022-10-09T09:15:25Z</time>
      </trkpt>
      <trkpt lat="43.40958" lon="6.71412">
        <ele>2.8</ele>
        <time>2022-10-09T09:15:26Z</time>
      </trkpt>
      <trkpt lat="43.40971" lon="6.71408">
        <ele>2.8</ele>
        <time>2022-10-09T09:15:29Z</time>
      </trkpt>
      <trkpt lat="43.40975" lon="6.71406">
        <ele>2.8</ele>
        <time>2022-10-09T09:15:30Z</time>
      </trkpt>
      <trkpt lat="43.40998" lon="6.71394">
        <ele>2.9</ele>
        <time>2022-10-09T09:15:35Z</time>
      </trkpt>
      <trkpt lat="43.41008" lon="6.71389">
        <ele>3.1</ele>
        <time>2022-10-09T09:15:37Z</time>
      </trkpt>
      <trkpt lat="43.41012" lon="6.71387">
        <ele>3.1</ele>
        <time>2022-10-09T09:15:38Z</time>
      </trkpt>
      <trkpt lat="43.41021" lon="6.71381">
        <ele>3.2</ele>
        <time>2022-10-09T09:15:40Z</time>
      </trkpt>
      <trkpt lat="43.41025" lon="6.71378">
        <ele>3.2</ele>
        <time>2022-10-09T09:15:41Z</time>
      </trkpt>
      <trkpt lat="43.41029" lon="6.71373">
        <ele>3.2</ele>
        <time>2022-10-09T09:15:42Z</time>
      </trkpt>
      <trkpt lat="43.41032" lon="6.71369">
        <ele>3.2</ele>
        <time>2022-10-09T09:15:43Z</time>
      </trkpt>
      <trkpt lat="43.41038" lon="6.71358">
        <ele>3.2</ele>
        <time>2022-10-09T09:15:45Z</time>
      </trkpt>
      <trkpt lat="43.41041" lon="6.71352">
        <ele>3.2</ele>
        <time>2022-10-09T09:15:46Z</time>
      </trkpt>
      <trkpt lat="43.41044" lon="6.71347">
        <ele>3.1</ele>
        <time>2022-10-09T09:15:47Z</time>
      </trkpt>
      <trkpt lat="43.4105" lon="6.71336">
        <ele>3.1</ele>
        <time>2022-10-09T09:15:49Z</time>
      </trkpt>
      <trkpt lat="43.41063" lon="6.71315">
        <ele>3</ele>
        <time>2022-10-09T09:15:53Z</time>
      </trkpt>
      <trkpt lat="43.41074" lon="6.71298">
        <ele>3.1</ele>
        <time>2022-10-09T09:15:56Z</time>
      </trkpt>
      <trkpt lat="43.41077" lon="6.71293">
        <ele>3.1</ele>
        <time>2022-10-09T09:15:57Z</time>
      </trkpt>
      <trkpt lat="43.41081" lon="6.71288">
        <ele>3.1</ele>
        <time>2022-10-09T09:15:58Z</time>
      </trkpt>
      <trkpt lat="43.41085" lon="6.71283">
        <ele>3.1</ele>
        <time>2022-10-09T09:15:59Z</time>
      </trkpt>
      <trkpt lat="43.41088" lon="6.71278">
        <ele>3.2</ele>
        <time>2022-10-09T09:16:00Z</time>
      </trkpt>
      <trkpt lat="43.41092" lon="6.71274">
        <ele>3.2</ele>
        <time>2022-10-09T09:16:01Z</time>
      </trkpt>
      <trkpt lat="43.41096" lon="6.71269">
        <ele>3.2</ele>
        <time>2022-10-09T09:16:02Z</time>
      </trkpt>
      <trkpt lat="43.41099" lon="6.71264">
        <ele>3.3</ele>
        <time>2022-10-09T09:16:03Z</time>
      </trkpt>
      <trkpt lat="43.41101" lon="6.71259">
        <ele>3.2</ele>
        <time>2022-10-09T09:16:04Z</time>
      </trkpt>
      <trkpt lat="43.41102" lon="6.71254">
        <ele>3.2</ele>
        <time>2022-10-09T09:16:05Z</time>
      </trkpt>
      <trkpt lat="43.41103" lon="6.71248">
        <ele>3.2</ele>
        <time>2022-10-09T09:16:06Z</time>
      </trkpt>
      <trkpt lat="43.41102" lon="6.71242">
        <ele>3.3</ele>
        <time>2022-10-09T09:16:07Z</time>
      </trkpt>
      <trkpt lat="43.41101" lon="6.71236">
        <ele>3.2</ele>
        <time>2022-10-09T09:16:08Z</time>
      </trkpt>
      <trkpt lat="43.41099" lon="6.7123">
        <ele>3.3</ele>
        <time>2022-10-09T09:16:09Z</time>
      </trkpt>
      <trkpt lat="43.41097" lon="6.71224">
        <ele>3.3</ele>
        <time>2022-10-09T09:16:10Z</time>
      </trkpt>
      <trkpt lat="43.41095" lon="6.71218">
        <ele>3.3</ele>
        <time>2022-10-09T09:16:11Z</time>
      </trkpt>
      <trkpt lat="43.41094" lon="6.71212">
        <ele>3.4</ele>
        <time>2022-10-09T09:16:12Z</time>
      </trkpt>
      <trkpt lat="43.4109" lon="6.712">
        <ele>3.2</ele>
        <time>2022-10-09T09:16:14Z</time>
      </trkpt>
      <trkpt lat="43.41088" lon="6.71194">
        <ele>3.3</ele>
        <time>2022-10-09T09:16:15Z</time>
      </trkpt>
      <trkpt lat="43.41086" lon="6.71188">
        <ele>3.2</ele>
        <time>2022-10-09T09:16:16Z</time>
      </trkpt>
      <trkpt lat="43.41084" lon="6.71183">
        <ele>3.2</ele>
        <time>2022-10-09T09:16:17Z</time>
      </trkpt>
      <trkpt lat="43.41083" lon="6.71178">
        <ele>3.2</ele>
        <time>2022-10-09T09:16:18Z</time>
      </trkpt>
      <trkpt lat="43.41082" lon="6.71172">
        <ele>3.2</ele>
        <time>2022-10-09T09:16:19Z</time>
      </trkpt>
      <trkpt lat="43.41082" lon="6.71167">
        <ele>3.2</ele>
        <time>2022-10-09T09:16:20Z</time>
      </trkpt>
      <trkpt lat="43.41081" lon="6.7116">
        <ele>3.1</ele>
        <time>2022-10-09T09:16:21Z</time>
      </trkpt>
      <trkpt lat="43.41079" lon="6.71153">
        <ele>3.1</ele>
        <time>2022-10-09T09:16:22Z</time>
      </trkpt>
      <trkpt lat="43.41073" lon="6.71134">
        <ele>2.9</ele>
        <time>2022-10-09T09:16:25Z</time>
      </trkpt>
      <trkpt lat="43.41071" lon="6.71129">
        <ele>2.9</ele>
        <time>2022-10-09T09:16:26Z</time>
      </trkpt>
      <trkpt lat="43.41065" lon="6.71119">
        <ele>2.8</ele>
        <time>2022-10-09T09:16:28Z</time>
      </trkpt>
      <trkpt lat="43.41063" lon="6.71114">
        <ele>2.7</ele>
        <time>2022-10-09T09:16:29Z</time>
      </trkpt>
      <trkpt lat="43.41061" lon="6.71109">
        <ele>2.8</ele>
        <time>2022-10-09T09:16:30Z</time>
      </trkpt>
      <trkpt lat="43.41059" lon="6.71104">
        <ele>2.7</ele>
        <time>2022-10-09T09:16:31Z</time>
      </trkpt>
      <trkpt lat="43.41057" lon="6.71099">
        <ele>2.7</ele>
        <time>2022-10-09T09:16:32Z</time>
      </trkpt>
      <trkpt lat="43.41055" lon="6.71094">
        <ele>2.7</ele>
        <time>2022-10-09T09:16:33Z</time>
      </trkpt>
      <trkpt lat="43.41054" lon="6.71089">
        <ele>2.8</ele>
        <time>2022-10-09T09:16:34Z</time>
      </trkpt>
      <trkpt lat="43.41052" lon="6.71083">
        <ele>2.6</ele>
        <time>2022-10-09T09:16:35Z</time>
      </trkpt>
      <trkpt lat="43.41051" lon="6.71078">
        <ele>2.6</ele>
        <time>2022-10-09T09:16:36Z</time>
      </trkpt>
      <trkpt lat="43.41049" lon="6.71072">
        <ele>2.8</ele>
        <time>2022-10-09T09:16:37Z</time>
      </trkpt>
      <trkpt lat="43.41048" lon="6.71067">
        <ele>2.7</ele>
        <time>2022-10-09T09:16:38Z</time>
      </trkpt>
      <trkpt lat="43.41043" lon="6.71044">
        <ele>3</ele>
        <time>2022-10-09T09:16:42Z</time>
      </trkpt>
      <trkpt lat="43.41043" lon="6.71039">
        <ele>3.3</ele>
        <time>2022-10-09T09:16:43Z</time>
      </trkpt>
      <trkpt lat="43.41044" lon="6.71033">
        <ele>3.2</ele>
        <time>2022-10-09T09:16:44Z</time>
      </trkpt>
      <trkpt lat="43.41047" lon="6.71028">
        <ele>3.2</ele>
        <time>2022-10-09T09:16:45Z</time>
      </trkpt>
      <trkpt lat="43.41058" lon="6.71016">
        <ele>3.7</ele>
        <time>2022-10-09T09:16:48Z</time>
      </trkpt>
      <trkpt lat="43.41063" lon="6.71012">
        <ele>3.7</ele>
        <time>2022-10-09T09:16:49Z</time>
      </trkpt>
      <trkpt lat="43.41068" lon="6.71009">
        <ele>3.8</ele>
        <time>2022-10-09T09:16:50Z</time>
      </trkpt>
      <trkpt lat="43.41077" lon="6.71002">
        <ele>3.9</ele>
        <time>2022-10-09T09:16:52Z</time>
      </trkpt>
      <trkpt lat="43.41083" lon="6.70999">
        <ele>3.9</ele>
        <time>2022-10-09T09:16:53Z</time>
      </trkpt>
      <trkpt lat="43.41088" lon="6.70997">
        <ele>3.9</ele>
        <time>2022-10-09T09:16:54Z</time>
      </trkpt>
      <trkpt lat="43.41093" lon="6.70994">
        <ele>3.8</ele>
        <time>2022-10-09T09:16:55Z</time>
      </trkpt>
      <trkpt lat="43.41098" lon="6.7099">
        <ele>3.7</ele>
        <time>2022-10-09T09:16:56Z</time>
      </trkpt>
      <trkpt lat="43.41102" lon="6.70987">
        <ele>3.8</ele>
        <time>2022-10-09T09:16:57Z</time>
      </trkpt>
      <trkpt lat="43.41106" lon="6.70984">
        <ele>3.6</ele>
        <time>2022-10-09T09:16:58Z</time>
      </trkpt>
      <trkpt lat="43.41107" lon="6.70979">
        <ele>3.6</ele>
        <time>2022-10-09T09:16:59Z</time>
      </trkpt>
      <trkpt lat="43.41107" lon="6.70974">
        <ele>3.5</ele>
        <time>2022-10-09T09:17:00Z</time>
      </trkpt>
      <trkpt lat="43.41103" lon="6.70956">
        <ele>3.6</ele>
        <time>2022-10-09T09:17:03Z</time>
      </trkpt>
      <trkpt lat="43.41101" lon="6.7095">
        <ele>3.6</ele>
        <time>2022-10-09T09:17:04Z</time>
      </trkpt>
      <trkpt lat="43.41092" lon="6.70918">
        <ele>3.6</ele>
        <time>2022-10-09T09:17:09Z</time>
      </trkpt>
      <trkpt lat="43.41085" lon="6.70898">
        <ele>3.6</ele>
        <time>2022-10-09T09:17:12Z</time>
      </trkpt>
      <trkpt lat="43.4108" lon="6.70884">
        <ele>3.6</ele>
        <time>2022-10-09T09:17:14Z</time>
      </trkpt>
      <trkpt lat="43.41071" lon="6.70856">
        <ele>3.9</ele>
        <time>2022-10-09T09:17:18Z</time>
      </trkpt>
      <trkpt lat="43.41069" lon="6.70849">
        <ele>4.5</ele>
        <time>2022-10-09T09:17:19Z</time>
      </trkpt>
      <trkpt lat="43.41066" lon="6.70842">
        <ele>4.5</ele>
        <time>2022-10-09T09:17:20Z</time>
      </trkpt>
      <trkpt lat="43.41063" lon="6.70837">
        <ele>4.5</ele>
        <time>2022-10-09T09:17:21Z</time>
      </trkpt>
      <trkpt lat="43.4106" lon="6.70832">
        <ele>5.4</ele>
        <time>2022-10-09T09:17:22Z</time>
      </trkpt>
      <trkpt lat="43.41056" lon="6.70827">
        <ele>5.4</ele>
        <time>2022-10-09T09:17:23Z</time>
      </trkpt>
      <trkpt lat="43.41054" lon="6.70821">
        <ele>5.4</ele>
        <time>2022-10-09T09:17:24Z</time>
      </trkpt>
      <trkpt lat="43.41052" lon="6.70815">
        <ele>6.6</ele>
        <time>2022-10-09T09:17:25Z</time>
      </trkpt>
      <trkpt lat="43.41052" lon="6.70809">
        <ele>6.6</ele>
        <time>2022-10-09T09:17:26Z</time>
      </trkpt>
      <trkpt lat="43.41052" lon="6.70803">
        <ele>6.5</ele>
        <time>2022-10-09T09:17:27Z</time>
      </trkpt>
      <trkpt lat="43.41056" lon="6.70792">
        <ele>7.9</ele>
        <time>2022-10-09T09:17:29Z</time>
      </trkpt>
      <trkpt lat="43.41059" lon="6.70787">
        <ele>8</ele>
        <time>2022-10-09T09:17:30Z</time>
      </trkpt>
      <trkpt lat="43.41063" lon="6.70785">
        <ele>8</ele>
        <time>2022-10-09T09:17:31Z</time>
      </trkpt>
      <trkpt lat="43.41073" lon="6.70785">
        <ele>8</ele>
        <time>2022-10-09T09:17:33Z</time>
      </trkpt>
      <trkpt lat="43.41078" lon="6.70785">
        <ele>8.1</ele>
        <time>2022-10-09T09:17:34Z</time>
      </trkpt>
      <trkpt lat="43.41085" lon="6.70786">
        <ele>8.1</ele>
        <time>2022-10-09T09:17:35Z</time>
      </trkpt>
      <trkpt lat="43.41103" lon="6.70787">
        <ele>8.2</ele>
        <time>2022-10-09T09:17:38Z</time>
      </trkpt>
      <trkpt lat="43.41115" lon="6.70788">
        <ele>8.3</ele>
        <time>2022-10-09T09:17:40Z</time>
      </trkpt>
      <trkpt lat="43.41121" lon="6.70788">
        <ele>8.3</ele>
        <time>2022-10-09T09:17:41Z</time>
      </trkpt>
      <trkpt lat="43.41127" lon="6.70787">
        <ele>8.3</ele>
        <time>2022-10-09T09:17:42Z</time>
      </trkpt>
      <trkpt lat="43.41133" lon="6.70787">
        <ele>8.4</ele>
        <time>2022-10-09T09:17:43Z</time>
      </trkpt>
      <trkpt lat="43.41138" lon="6.70786">
        <ele>8.4</ele>
        <time>2022-10-09T09:17:44Z</time>
      </trkpt>
      <trkpt lat="43.41143" lon="6.70786">
        <ele>8.4</ele>
        <time>2022-10-09T09:17:45Z</time>
      </trkpt>
      <trkpt lat="43.41147" lon="6.70786">
        <ele>8.4</ele>
        <time>2022-10-09T09:17:46Z</time>
      </trkpt>
      <trkpt lat="43.41151" lon="6.70784">
        <ele>8.4</ele>
        <time>2022-10-09T09:17:47Z</time>
      </trkpt>
      <trkpt lat="43.41158" lon="6.70777">
        <ele>8.4</ele>
        <time>2022-10-09T09:17:49Z</time>
      </trkpt>
      <trkpt lat="43.41161" lon="6.70771">
        <ele>8.4</ele>
        <time>2022-10-09T09:17:50Z</time>
      </trkpt>
      <trkpt lat="43.41164" lon="6.70765">
        <ele>8.4</ele>
        <time>2022-10-09T09:17:51Z</time>
      </trkpt>
      <trkpt lat="43.41167" lon="6.7076">
        <ele>8.4</ele>
        <time>2022-10-09T09:17:52Z</time>
      </trkpt>
      <trkpt lat="43.41179" lon="6.70734">
        <ele>8.4</ele>
        <time>2022-10-09T09:17:56Z</time>
      </trkpt>
      <trkpt lat="43.41184" lon="6.70721">
        <ele>8.4</ele>
        <time>2022-10-09T09:17:58Z</time>
      </trkpt>
      <trkpt lat="43.4119" lon="6.70708">
        <ele>8.4</ele>
        <time>2022-10-09T09:18:00Z</time>
      </trkpt>
      <trkpt lat="43.41193" lon="6.70702">
        <ele>8.4</ele>
        <time>2022-10-09T09:18:01Z</time>
      </trkpt>
      <trkpt lat="43.41198" lon="6.7069">
        <ele>8.3</ele>
        <time>2022-10-09T09:18:03Z</time>
      </trkpt>
      <trkpt lat="43.41204" lon="6.70677">
        <ele>8.2</ele>
        <time>2022-10-09T09:18:05Z</time>
      </trkpt>
      <trkpt lat="43.41207" lon="6.70671">
        <ele>8.1</ele>
        <time>2022-10-09T09:18:06Z</time>
      </trkpt>
      <trkpt lat="43.41214" lon="6.70651">
        <ele>7.9</ele>
        <time>2022-10-09T09:18:09Z</time>
      </trkpt>
      <trkpt lat="43.41216" lon="6.70645">
        <ele>7.9</ele>
        <time>2022-10-09T09:18:10Z</time>
      </trkpt>
      <trkpt lat="43.41219" lon="6.70639">
        <ele>7.9</ele>
        <time>2022-10-09T09:18:11Z</time>
      </trkpt>
      <trkpt lat="43.41238" lon="6.70599">
        <ele>7.5</ele>
        <time>2022-10-09T09:18:17Z</time>
      </trkpt>
      <trkpt lat="43.41241" lon="6.70592">
        <ele>7.5</ele>
        <time>2022-10-09T09:18:18Z</time>
      </trkpt>
      <trkpt lat="43.41244" lon="6.70586">
        <ele>7.5</ele>
        <time>2022-10-09T09:18:19Z</time>
      </trkpt>
      <trkpt lat="43.41246" lon="6.7058">
        <ele>7.5</ele>
        <time>2022-10-09T09:18:20Z</time>
      </trkpt>
      <trkpt lat="43.41249" lon="6.70574">
        <ele>7.4</ele>
        <time>2022-10-09T09:18:21Z</time>
      </trkpt>
      <trkpt lat="43.41251" lon="6.70569">
        <ele>7.4</ele>
        <time>2022-10-09T09:18:22Z</time>
      </trkpt>
      <trkpt lat="43.41253" lon="6.70564">
        <ele>7.4</ele>
        <time>2022-10-09T09:18:23Z</time>
      </trkpt>
      <trkpt lat="43.41265" lon="6.70536">
        <ele>7.4</ele>
        <time>2022-10-09T09:18:28Z</time>
      </trkpt>
      <trkpt lat="43.41267" lon="6.7053">
        <ele>7.4</ele>
        <time>2022-10-09T09:18:29Z</time>
      </trkpt>
      <trkpt lat="43.41267" lon="6.70524">
        <ele>7.4</ele>
        <time>2022-10-09T09:18:30Z</time>
      </trkpt>
      <trkpt lat="43.41267" lon="6.70518">
        <ele>7.4</ele>
        <time>2022-10-09T09:18:31Z</time>
      </trkpt>
      <trkpt lat="43.41268" lon="6.70512">
        <ele>7.4</ele>
        <time>2022-10-09T09:18:32Z</time>
      </trkpt>
      <trkpt lat="43.4127" lon="6.70506">
        <ele>7.4</ele>
        <time>2022-10-09T09:18:33Z</time>
      </trkpt>
      <trkpt lat="43.41272" lon="6.70501">
        <ele>7.4</ele>
        <time>2022-10-09T09:18:34Z</time>
      </trkpt>
      <trkpt lat="43.41275" lon="6.70495">
        <ele>7.4</ele>
        <time>2022-10-09T09:18:35Z</time>
      </trkpt>
      <trkpt lat="43.41278" lon="6.70489">
        <ele>7.4</ele>
        <time>2022-10-09T09:18:36Z</time>
      </trkpt>
      <trkpt lat="43.41285" lon="6.70472">
        <ele>7.4</ele>
        <time>2022-10-09T09:18:39Z</time>
      </trkpt>
      <trkpt lat="43.41293" lon="6.70455">
        <ele>7.4</ele>
        <time>2022-10-09T09:18:42Z</time>
      </trkpt>
      <trkpt lat="43.413" lon="6.70437">
        <ele>7.5</ele>
        <time>2022-10-09T09:18:45Z</time>
      </trkpt>
      <trkpt lat="43.41312" lon="6.70408">
        <ele>7.6</ele>
        <time>2022-10-09T09:18:50Z</time>
      </trkpt>
      <trkpt lat="43.41317" lon="6.70395">
        <ele>7.6</ele>
        <time>2022-10-09T09:18:52Z</time>
      </trkpt>
      <trkpt lat="43.4132" lon="6.70389">
        <ele>7.6</ele>
        <time>2022-10-09T09:18:53Z</time>
      </trkpt>
      <trkpt lat="43.41326" lon="6.70369">
        <ele>7.6</ele>
        <time>2022-10-09T09:18:56Z</time>
      </trkpt>
      <trkpt lat="43.41329" lon="6.70355">
        <ele>7.5</ele>
        <time>2022-10-09T09:18:58Z</time>
      </trkpt>
      <trkpt lat="43.41335" lon="6.7031">
        <ele>7.3</ele>
        <time>2022-10-09T09:19:04Z</time>
      </trkpt>
      <trkpt lat="43.41333" lon="6.7026">
        <ele>7.3</ele>
        <time>2022-10-09T09:19:10Z</time>
      </trkpt>
      <trkpt lat="43.41333" lon="6.70252">
        <ele>7.3</ele>
        <time>2022-10-09T09:19:11Z</time>
      </trkpt>
      <trkpt lat="43.41331" lon="6.70244">
        <ele>7.4</ele>
        <time>2022-10-09T09:19:12Z</time>
      </trkpt>
      <trkpt lat="43.4133" lon="6.70237">
        <ele>7.4</ele>
        <time>2022-10-09T09:19:13Z</time>
      </trkpt>
      <trkpt lat="43.41329" lon="6.7023">
        <ele>7.4</ele>
        <time>2022-10-09T09:19:14Z</time>
      </trkpt>
      <trkpt lat="43.41328" lon="6.70224">
        <ele>7.4</ele>
        <time>2022-10-09T09:19:15Z</time>
      </trkpt>
      <trkpt lat="43.41327" lon="6.70217">
        <ele>7.5</ele>
        <time>2022-10-09T09:19:16Z</time>
      </trkpt>
      <trkpt lat="43.41325" lon="6.70211">
        <ele>7.5</ele>
        <time>2022-10-09T09:19:17Z</time>
      </trkpt>
      <trkpt lat="43.41324" lon="6.70205">
        <ele>7.5</ele>
        <time>2022-10-09T09:19:18Z</time>
      </trkpt>
      <trkpt lat="43.41319" lon="6.70181">
        <ele>7.6</ele>
        <time>2022-10-09T09:19:22Z</time>
      </trkpt>
      <trkpt lat="43.41317" lon="6.70175">
        <ele>7.7</ele>
        <time>2022-10-09T09:19:23Z</time>
      </trkpt>
      <trkpt lat="43.41316" lon="6.70169">
        <ele>7.7</ele>
        <time>2022-10-09T09:19:24Z</time>
      </trkpt>
      <trkpt lat="43.41313" lon="6.70163">
        <ele>7.8</ele>
        <time>2022-10-09T09:19:25Z</time>
      </trkpt>
      <trkpt lat="43.41311" lon="6.70158">
        <ele>7.8</ele>
        <time>2022-10-09T09:19:26Z</time>
      </trkpt>
      <trkpt lat="43.41309" lon="6.70154">
        <ele>7.8</ele>
        <time>2022-10-09T09:19:27Z</time>
      </trkpt>
      <trkpt lat="43.41306" lon="6.7015">
        <ele>7.9</ele>
        <time>2022-10-09T09:19:28Z</time>
      </trkpt>
      <trkpt lat="43.41303" lon="6.70147">
        <ele>7.9</ele>
        <time>2022-10-09T09:19:29Z</time>
      </trkpt>
      <trkpt lat="43.413" lon="6.70144">
        <ele>8</ele>
        <time>2022-10-09T09:19:30Z</time>
      </trkpt>
      <trkpt lat="43.41298" lon="6.7014">
        <ele>8</ele>
        <time>2022-10-09T09:19:31Z</time>
      </trkpt>
      <trkpt lat="43.41296" lon="6.70135">
        <ele>8.1</ele>
        <time>2022-10-09T09:19:32Z</time>
      </trkpt>
      <trkpt lat="43.41295" lon="6.70131">
        <ele>8.1</ele>
        <time>2022-10-09T09:19:33Z</time>
      </trkpt>
      <trkpt lat="43.41295" lon="6.70127">
        <ele>8.1</ele>
        <time>2022-10-09T09:19:34Z</time>
      </trkpt>
      <trkpt lat="43.41295" lon="6.70124">
        <ele>8.1</ele>
        <time>2022-10-09T09:19:35Z</time>
      </trkpt>
      <trkpt lat="43.41294" lon="6.70121">
        <ele>8.2</ele>
        <time>2022-10-09T09:19:36Z</time>
      </trkpt>
      <trkpt lat="43.41293" lon="6.70117">
        <ele>8.2</ele>
        <time>2022-10-09T09:19:37Z</time>
      </trkpt>
      <trkpt lat="43.41289" lon="6.70108">
        <ele>8.3</ele>
        <time>2022-10-09T09:19:39Z</time>
      </trkpt>
      <trkpt lat="43.41286" lon="6.70103">
        <ele>8.3</ele>
        <time>2022-10-09T09:19:40Z</time>
      </trkpt>
      <trkpt lat="43.41282" lon="6.70092">
        <ele>8.3</ele>
        <time>2022-10-09T09:19:42Z</time>
      </trkpt>
      <trkpt lat="43.4128" lon="6.70087">
        <ele>8.3</ele>
        <time>2022-10-09T09:19:43Z</time>
      </trkpt>
      <trkpt lat="43.4128" lon="6.70082">
        <ele>8.4</ele>
        <time>2022-10-09T09:19:44Z</time>
      </trkpt>
      <trkpt lat="43.4128" lon="6.70077">
        <ele>8.4</ele>
        <time>2022-10-09T09:19:45Z</time>
      </trkpt>
      <trkpt lat="43.41281" lon="6.70073">
        <ele>8.4</ele>
        <time>2022-10-09T09:19:46Z</time>
      </trkpt>
      <trkpt lat="43.41281" lon="6.7007">
        <ele>8.4</ele>
        <time>2022-10-09T09:19:47Z</time>
      </trkpt>
      <trkpt lat="43.41281" lon="6.70065">
        <ele>8.4</ele>
        <time>2022-10-09T09:19:48Z</time>
      </trkpt>
      <trkpt lat="43.41281" lon="6.7006">
        <ele>8.4</ele>
        <time>2022-10-09T09:19:49Z</time>
      </trkpt>
      <trkpt lat="43.41281" lon="6.70052">
        <ele>8.4</ele>
        <time>2022-10-09T09:19:50Z</time>
      </trkpt>
      <trkpt lat="43.4128" lon="6.70035">
        <ele>8.3</ele>
        <time>2022-10-09T09:19:52Z</time>
      </trkpt>
      <trkpt lat="43.41279" lon="6.70027">
        <ele>8.3</ele>
        <time>2022-10-09T09:19:53Z</time>
      </trkpt>
      <trkpt lat="43.41278" lon="6.70018">
        <ele>8.3</ele>
        <time>2022-10-09T09:19:54Z</time>
      </trkpt>
      <trkpt lat="43.41277" lon="6.7001">
        <ele>8.2</ele>
        <time>2022-10-09T09:19:55Z</time>
      </trkpt>
      <trkpt lat="43.41276" lon="6.70003">
        <ele>8.2</ele>
        <time>2022-10-09T09:19:56Z</time>
      </trkpt>
      <trkpt lat="43.41275" lon="6.69996">
        <ele>8.2</ele>
        <time>2022-10-09T09:19:57Z</time>
      </trkpt>
      <trkpt lat="43.41273" lon="6.69988">
        <ele>8.1</ele>
        <time>2022-10-09T09:19:58Z</time>
      </trkpt>
      <trkpt lat="43.41272" lon="6.69981">
        <ele>8.1</ele>
        <time>2022-10-09T09:19:59Z</time>
      </trkpt>
      <trkpt lat="43.41266" lon="6.69952">
        <ele>8.1</ele>
        <time>2022-10-09T09:20:03Z</time>
      </trkpt>
      <trkpt lat="43.41263" lon="6.69938">
        <ele>8.1</ele>
        <time>2022-10-09T09:20:05Z</time>
      </trkpt>
      <trkpt lat="43.41259" lon="6.69915">
        <ele>8.2</ele>
        <time>2022-10-09T09:20:08Z</time>
      </trkpt>
      <trkpt lat="43.41257" lon="6.69908">
        <ele>8.2</ele>
        <time>2022-10-09T09:20:09Z</time>
      </trkpt>
      <trkpt lat="43.41256" lon="6.69901">
        <ele>8.2</ele>
        <time>2022-10-09T09:20:10Z</time>
      </trkpt>
      <trkpt lat="43.41254" lon="6.69894">
        <ele>8.2</ele>
        <time>2022-10-09T09:20:11Z</time>
      </trkpt>
      <trkpt lat="43.41252" lon="6.69887">
        <ele>8.2</ele>
        <time>2022-10-09T09:20:12Z</time>
      </trkpt>
      <trkpt lat="43.41245" lon="6.69867">
        <ele>8.2</ele>
        <time>2022-10-09T09:20:15Z</time>
      </trkpt>
      <trkpt lat="43.41243" lon="6.6986">
        <ele>8.2</ele>
        <time>2022-10-09T09:20:16Z</time>
      </trkpt>
      <trkpt lat="43.41241" lon="6.69854">
        <ele>8.2</ele>
        <time>2022-10-09T09:20:17Z</time>
      </trkpt>
      <trkpt lat="43.41239" lon="6.69849">
        <ele>8.2</ele>
        <time>2022-10-09T09:20:18Z</time>
      </trkpt>
      <trkpt lat="43.41236" lon="6.69844">
        <ele>8.2</ele>
        <time>2022-10-09T09:20:19Z</time>
      </trkpt>
      <trkpt lat="43.41234" lon="6.69839">
        <ele>8.2</ele>
        <time>2022-10-09T09:20:20Z</time>
      </trkpt>
      <trkpt lat="43.41232" lon="6.69835">
        <ele>8.3</ele>
        <time>2022-10-09T09:20:21Z</time>
      </trkpt>
      <trkpt lat="43.41227" lon="6.69827">
        <ele>8.3</ele>
        <time>2022-10-09T09:20:23Z</time>
      </trkpt>
      <trkpt lat="43.41224" lon="6.69823">
        <ele>8.3</ele>
        <time>2022-10-09T09:20:24Z</time>
      </trkpt>
      <trkpt lat="43.41222" lon="6.6982">
        <ele>8.3</ele>
        <time>2022-10-09T09:20:25Z</time>
      </trkpt>
      <trkpt lat="43.4122" lon="6.69815">
        <ele>8.3</ele>
        <time>2022-10-09T09:20:26Z</time>
      </trkpt>
      <trkpt lat="43.41215" lon="6.698">
        <ele>8.4</ele>
        <time>2022-10-09T09:20:29Z</time>
      </trkpt>
      <trkpt lat="43.4121" lon="6.69784">
        <ele>8.4</ele>
        <time>2022-10-09T09:20:32Z</time>
      </trkpt>
      <trkpt lat="43.41209" lon="6.69779">
        <ele>8.4</ele>
        <time>2022-10-09T09:20:33Z</time>
      </trkpt>
      <trkpt lat="43.41204" lon="6.69765">
        <ele>8.4</ele>
        <time>2022-10-09T09:20:36Z</time>
      </trkpt>
      <trkpt lat="43.41201" lon="6.69755">
        <ele>8.4</ele>
        <time>2022-10-09T09:20:38Z</time>
      </trkpt>
      <trkpt lat="43.41188" lon="6.69727">
        <ele>8.3</ele>
        <time>2022-10-09T09:20:43Z</time>
      </trkpt>
      <trkpt lat="43.41182" lon="6.69716">
        <ele>8.3</ele>
        <time>2022-10-09T09:20:45Z</time>
      </trkpt>
      <trkpt lat="43.41179" lon="6.6971">
        <ele>7.9</ele>
        <time>2022-10-09T09:20:46Z</time>
      </trkpt>
      <trkpt lat="43.41177" lon="6.69705">
        <ele>7.8</ele>
        <time>2022-10-09T09:20:47Z</time>
      </trkpt>
      <trkpt lat="43.41174" lon="6.697">
        <ele>7.8</ele>
        <time>2022-10-09T09:20:48Z</time>
      </trkpt>
      <trkpt lat="43.41172" lon="6.69696">
        <ele>7.7</ele>
        <time>2022-10-09T09:20:49Z</time>
      </trkpt>
      <trkpt lat="43.41168" lon="6.69693">
        <ele>7.7</ele>
        <time>2022-10-09T09:20:50Z</time>
      </trkpt>
      <trkpt lat="43.41165" lon="6.6969">
        <ele>7.6</ele>
        <time>2022-10-09T09:20:51Z</time>
      </trkpt>
      <trkpt lat="43.41161" lon="6.69689">
        <ele>7.6</ele>
        <time>2022-10-09T09:20:52Z</time>
      </trkpt>
      <trkpt lat="43.41157" lon="6.69688">
        <ele>7.5</ele>
        <time>2022-10-09T09:20:53Z</time>
      </trkpt>
      <trkpt lat="43.41153" lon="6.69688">
        <ele>7.4</ele>
        <time>2022-10-09T09:20:54Z</time>
      </trkpt>
      <trkpt lat="43.41149" lon="6.69688">
        <ele>7.3</ele>
        <time>2022-10-09T09:20:55Z</time>
      </trkpt>
      <trkpt lat="43.41145" lon="6.6969">
        <ele>7.3</ele>
        <time>2022-10-09T09:20:56Z</time>
      </trkpt>
      <trkpt lat="43.41141" lon="6.69693">
        <ele>7.4</ele>
        <time>2022-10-09T09:20:57Z</time>
      </trkpt>
      <trkpt lat="43.41138" lon="6.69697">
        <ele>7.4</ele>
        <time>2022-10-09T09:20:58Z</time>
      </trkpt>
      <trkpt lat="43.41135" lon="6.69701">
        <ele>7.5</ele>
        <time>2022-10-09T09:20:59Z</time>
      </trkpt>
      <trkpt lat="43.41133" lon="6.69706">
        <ele>7.6</ele>
        <time>2022-10-09T09:21:00Z</time>
      </trkpt>
      <trkpt lat="43.41132" lon="6.6971">
        <ele>7.8</ele>
        <time>2022-10-09T09:21:01Z</time>
      </trkpt>
      <trkpt lat="43.41131" lon="6.69714">
        <ele>7.9</ele>
        <time>2022-10-09T09:21:02Z</time>
      </trkpt>
      <trkpt lat="43.41129" lon="6.69718">
        <ele>8.1</ele>
        <time>2022-10-09T09:21:03Z</time>
      </trkpt>
      <trkpt lat="43.41128" lon="6.69722">
        <ele>8.2</ele>
        <time>2022-10-09T09:21:04Z</time>
      </trkpt>
      <trkpt lat="43.41127" lon="6.69725">
        <ele>8.4</ele>
        <time>2022-10-09T09:21:05Z</time>
      </trkpt>
      <trkpt lat="43.41125" lon="6.69733">
        <ele>8.8</ele>
        <time>2022-10-09T09:21:07Z</time>
      </trkpt>
      <trkpt lat="43.41123" lon="6.6974">
        <ele>9.3</ele>
        <time>2022-10-09T09:21:09Z</time>
      </trkpt>
      <trkpt lat="43.41122" lon="6.69743">
        <ele>9.5</ele>
        <time>2022-10-09T09:21:10Z</time>
      </trkpt>
      <trkpt lat="43.41121" lon="6.69747">
        <ele>9.8</ele>
        <time>2022-10-09T09:21:11Z</time>
      </trkpt>
      <trkpt lat="43.41119" lon="6.6975">
        <ele>10</ele>
        <time>2022-10-09T09:21:12Z</time>
      </trkpt>
      <trkpt lat="43.41118" lon="6.69753">
        <ele>10.3</ele>
        <time>2022-10-09T09:21:13Z</time>
      </trkpt>
      <trkpt lat="43.41116" lon="6.69755">
        <ele>10.5</ele>
        <time>2022-10-09T09:21:14Z</time>
      </trkpt>
      <trkpt lat="43.41115" lon="6.69758">
        <ele>10.8</ele>
        <time>2022-10-09T09:21:15Z</time>
      </trkpt>
      <trkpt lat="43.41113" lon="6.6976">
        <ele>11.1</ele>
        <time>2022-10-09T09:21:16Z</time>
      </trkpt>
      <trkpt lat="43.41111" lon="6.69763">
        <ele>11.3</ele>
        <time>2022-10-09T09:21:17Z</time>
      </trkpt>
      <trkpt lat="43.41109" lon="6.69765">
        <ele>11.6</ele>
        <time>2022-10-09T09:21:18Z</time>
      </trkpt>
      <trkpt lat="43.41108" lon="6.69767">
        <ele>11.9</ele>
        <time>2022-10-09T09:21:19Z</time>
      </trkpt>
      <trkpt lat="43.41106" lon="6.69769">
        <ele>12.1</ele>
        <time>2022-10-09T09:21:20Z</time>
      </trkpt>
      <trkpt lat="43.41105" lon="6.69772">
        <ele>12.4</ele>
        <time>2022-10-09T09:21:21Z</time>
      </trkpt>
      <trkpt lat="43.41103" lon="6.69774">
        <ele>12.6</ele>
        <time>2022-10-09T09:21:22Z</time>
      </trkpt>
      <trkpt lat="43.41101" lon="6.69776">
        <ele>12.9</ele>
        <time>2022-10-09T09:21:23Z</time>
      </trkpt>
      <trkpt lat="43.411" lon="6.69779">
        <ele>13.1</ele>
        <time>2022-10-09T09:21:24Z</time>
      </trkpt>
      <trkpt lat="43.41098" lon="6.69781">
        <ele>13.4</ele>
        <time>2022-10-09T09:21:25Z</time>
      </trkpt>
      <trkpt lat="43.41097" lon="6.69784">
        <ele>13.6</ele>
        <time>2022-10-09T09:21:26Z</time>
      </trkpt>
      <trkpt lat="43.41095" lon="6.69787">
        <ele>13.9</ele>
        <time>2022-10-09T09:21:27Z</time>
      </trkpt>
      <trkpt lat="43.41094" lon="6.69789">
        <ele>14.2</ele>
        <time>2022-10-09T09:21:28Z</time>
      </trkpt>
      <trkpt lat="43.41092" lon="6.69792">
        <ele>14.4</ele>
        <time>2022-10-09T09:21:29Z</time>
      </trkpt>
      <trkpt lat="43.41091" lon="6.69795">
        <ele>14.7</ele>
        <time>2022-10-09T09:21:30Z</time>
      </trkpt>
      <trkpt lat="43.41089" lon="6.69798">
        <ele>14.9</ele>
        <time>2022-10-09T09:21:31Z</time>
      </trkpt>
      <trkpt lat="43.41088" lon="6.69801">
        <ele>15.1</ele>
        <time>2022-10-09T09:21:32Z</time>
      </trkpt>
      <trkpt lat="43.41086" lon="6.69804">
        <ele>15.4</ele>
        <time>2022-10-09T09:21:33Z</time>
      </trkpt>
      <trkpt lat="43.41085" lon="6.69807">
        <ele>15.6</ele>
        <time>2022-10-09T09:21:34Z</time>
      </trkpt>
      <trkpt lat="43.41084" lon="6.6981">
        <ele>15.8</ele>
        <time>2022-10-09T09:21:35Z</time>
      </trkpt>
      <trkpt lat="43.41083" lon="6.69813">
        <ele>16</ele>
        <time>2022-10-09T09:21:36Z</time>
      </trkpt>
      <trkpt lat="43.41082" lon="6.69816">
        <ele>16.2</ele>
        <time>2022-10-09T09:21:37Z</time>
      </trkpt>
      <trkpt lat="43.4108" lon="6.69818">
        <ele>16.4</ele>
        <time>2022-10-09T09:21:38Z</time>
      </trkpt>
      <trkpt lat="43.41079" lon="6.69821">
        <ele>16.6</ele>
        <time>2022-10-09T09:21:39Z</time>
      </trkpt>
      <trkpt lat="43.41078" lon="6.69824">
        <ele>16.8</ele>
        <time>2022-10-09T09:21:40Z</time>
      </trkpt>
      <trkpt lat="43.41077" lon="6.69827">
        <ele>17</ele>
        <time>2022-10-09T09:21:41Z</time>
      </trkpt>
      <trkpt lat="43.41076" lon="6.6983">
        <ele>17.2</ele>
        <time>2022-10-09T09:21:42Z</time>
      </trkpt>
      <trkpt lat="43.41074" lon="6.69832">
        <ele>17.4</ele>
        <time>2022-10-09T09:21:43Z</time>
      </trkpt>
      <trkpt lat="43.41073" lon="6.69835">
        <ele>17.6</ele>
        <time>2022-10-09T09:21:44Z</time>
      </trkpt>
      <trkpt lat="43.41071" lon="6.69838">
        <ele>17.9</ele>
        <time>2022-10-09T09:21:45Z</time>
      </trkpt>
      <trkpt lat="43.4107" lon="6.6984">
        <ele>18.1</ele>
        <time>2022-10-09T09:21:46Z</time>
      </trkpt>
      <trkpt lat="43.41069" lon="6.69843">
        <ele>18.3</ele>
        <time>2022-10-09T09:21:47Z</time>
      </trkpt>
      <trkpt lat="43.41068" lon="6.69846">
        <ele>18.5</ele>
        <time>2022-10-09T09:21:48Z</time>
      </trkpt>
      <trkpt lat="43.41067" lon="6.6985">
        <ele>18.7</ele>
        <time>2022-10-09T09:21:49Z</time>
      </trkpt>
      <trkpt lat="43.41067" lon="6.69853">
        <ele>18.9</ele>
        <time>2022-10-09T09:21:50Z</time>
      </trkpt>
      <trkpt lat="43.41066" lon="6.69856">
        <ele>19.2</ele>
        <time>2022-10-09T09:21:51Z</time>
      </trkpt>
      <trkpt lat="43.41065" lon="6.69859">
        <ele>19.4</ele>
        <time>2022-10-09T09:21:52Z</time>
      </trkpt>
      <trkpt lat="43.41064" lon="6.69862">
        <ele>19.6</ele>
        <time>2022-10-09T09:21:53Z</time>
      </trkpt>
      <trkpt lat="43.41063" lon="6.69865">
        <ele>19.8</ele>
        <time>2022-10-09T09:21:54Z</time>
      </trkpt>
      <trkpt lat="43.41062" lon="6.69868">
        <ele>20.1</ele>
        <time>2022-10-09T09:21:55Z</time>
      </trkpt>
      <trkpt lat="43.41061" lon="6.69871">
        <ele>20.3</ele>
        <time>2022-10-09T09:21:56Z</time>
      </trkpt>
      <trkpt lat="43.4106" lon="6.69874">
        <ele>20.5</ele>
        <time>2022-10-09T09:21:57Z</time>
      </trkpt>
      <trkpt lat="43.41058" lon="6.69876">
        <ele>20.7</ele>
        <time>2022-10-09T09:21:58Z</time>
      </trkpt>
      <trkpt lat="43.41056" lon="6.69878">
        <ele>20.9</ele>
        <time>2022-10-09T09:21:59Z</time>
      </trkpt>
      <trkpt lat="43.41055" lon="6.6988">
        <ele>21.2</ele>
        <time>2022-10-09T09:22:00Z</time>
      </trkpt>
      <trkpt lat="43.41053" lon="6.69881">
        <ele>21.4</ele>
        <time>2022-10-09T09:22:01Z</time>
      </trkpt>
      <trkpt lat="43.41051" lon="6.69883">
        <ele>21.6</ele>
        <time>2022-10-09T09:22:02Z</time>
      </trkpt>
      <trkpt lat="43.4105" lon="6.69884">
        <ele>21.8</ele>
        <time>2022-10-09T09:22:03Z</time>
      </trkpt>
      <trkpt lat="43.41048" lon="6.69886">
        <ele>22.1</ele>
        <time>2022-10-09T09:22:04Z</time>
      </trkpt>
      <trkpt lat="43.41047" lon="6.69889">
        <ele>22.3</ele>
        <time>2022-10-09T09:22:05Z</time>
      </trkpt>
      <trkpt lat="43.41046" lon="6.69891">
        <ele>22.5</ele>
        <time>2022-10-09T09:22:06Z</time>
      </trkpt>
      <trkpt lat="43.41045" lon="6.69893">
        <ele>22.7</ele>
        <time>2022-10-09T09:22:07Z</time>
      </trkpt>
      <trkpt lat="43.41045" lon="6.69896">
        <ele>22.9</ele>
        <time>2022-10-09T09:22:08Z</time>
      </trkpt>
      <trkpt lat="43.41045" lon="6.69898">
        <ele>23.2</ele>
        <time>2022-10-09T09:22:09Z</time>
      </trkpt>
      <trkpt lat="43.41045" lon="6.69901">
        <ele>23.4</ele>
        <time>2022-10-09T09:22:10Z</time>
      </trkpt>
      <trkpt lat="43.41046" lon="6.69903">
        <ele>23.6</ele>
        <time>2022-10-09T09:22:11Z</time>
      </trkpt>
      <trkpt lat="43.41047" lon="6.69906">
        <ele>23.8</ele>
        <time>2022-10-09T09:22:12Z</time>
      </trkpt>
      <trkpt lat="43.41047" lon="6.69908">
        <ele>24</ele>
        <time>2022-10-09T09:22:13Z</time>
      </trkpt>
      <trkpt lat="43.41048" lon="6.69911">
        <ele>24.3</ele>
        <time>2022-10-09T09:22:14Z</time>
      </trkpt>
      <trkpt lat="43.41048" lon="6.69913">
        <ele>24.4</ele>
        <time>2022-10-09T09:22:15Z</time>
      </trkpt>
      <trkpt lat="43.41048" lon="6.69916">
        <ele>24.5</ele>
        <time>2022-10-09T09:22:16Z</time>
      </trkpt>
      <trkpt lat="43.41048" lon="6.69919">
        <ele>24.6</ele>
        <time>2022-10-09T09:22:17Z</time>
      </trkpt>
      <trkpt lat="43.41048" lon="6.69921">
        <ele>24.7</ele>
        <time>2022-10-09T09:22:18Z</time>
      </trkpt>
      <trkpt lat="43.41047" lon="6.69924">
        <ele>24.8</ele>
        <time>2022-10-09T09:22:19Z</time>
      </trkpt>
      <trkpt lat="43.41047" lon="6.69927">
        <ele>24.9</ele>
        <time>2022-10-09T09:22:20Z</time>
      </trkpt>
      <trkpt lat="43.41046" lon="6.69929">
        <ele>25.1</ele>
        <time>2022-10-09T09:22:21Z</time>
      </trkpt>
      <trkpt lat="43.41045" lon="6.69931">
        <ele>25.3</ele>
        <time>2022-10-09T09:22:22Z</time>
      </trkpt>
      <trkpt lat="43.41044" lon="6.69933">
        <ele>25.6</ele>
        <time>2022-10-09T09:22:23Z</time>
      </trkpt>
      <trkpt lat="43.41042" lon="6.69935">
        <ele>25.8</ele>
        <time>2022-10-09T09:22:24Z</time>
      </trkpt>
      <trkpt lat="43.41041" lon="6.69937">
        <ele>26</ele>
        <time>2022-10-09T09:22:25Z</time>
      </trkpt>
      <trkpt lat="43.4104" lon="6.69939">
        <ele>26.3</ele>
        <time>2022-10-09T09:22:26Z</time>
      </trkpt>
      <trkpt lat="43.41039" lon="6.69941">
        <ele>26.5</ele>
        <time>2022-10-09T09:22:27Z</time>
      </trkpt>
      <trkpt lat="43.41037" lon="6.69943">
        <ele>26.7</ele>
        <time>2022-10-09T09:22:28Z</time>
      </trkpt>
      <trkpt lat="43.41037" lon="6.69945">
        <ele>26.9</ele>
        <time>2022-10-09T09:22:29Z</time>
      </trkpt>
      <trkpt lat="43.41036" lon="6.69947">
        <ele>27.1</ele>
        <time>2022-10-09T09:22:30Z</time>
      </trkpt>
      <trkpt lat="43.41035" lon="6.69949">
        <ele>27.4</ele>
        <time>2022-10-09T09:22:31Z</time>
      </trkpt>
      <trkpt lat="43.41034" lon="6.69951">
        <ele>27.6</ele>
        <time>2022-10-09T09:22:32Z</time>
      </trkpt>
      <trkpt lat="43.41033" lon="6.69953">
        <ele>27.8</ele>
        <time>2022-10-09T09:22:33Z</time>
      </trkpt>
      <trkpt lat="43.41033" lon="6.69955">
        <ele>28</ele>
        <time>2022-10-09T09:22:34Z</time>
      </trkpt>
      <trkpt lat="43.41032" lon="6.69958">
        <ele>28.2</ele>
        <time>2022-10-09T09:22:35Z</time>
      </trkpt>
      <trkpt lat="43.41031" lon="6.6996">
        <ele>28.4</ele>
        <time>2022-10-09T09:22:36Z</time>
      </trkpt>
      <trkpt lat="43.41031" lon="6.69962">
        <ele>28.6</ele>
        <time>2022-10-09T09:22:37Z</time>
      </trkpt>
      <trkpt lat="43.4103" lon="6.69964">
        <ele>28.9</ele>
        <time>2022-10-09T09:22:38Z</time>
      </trkpt>
      <trkpt lat="43.4103" lon="6.69967">
        <ele>29.1</ele>
        <time>2022-10-09T09:22:39Z</time>
      </trkpt>
      <trkpt lat="43.4103" lon="6.69969">
        <ele>29.3</ele>
        <time>2022-10-09T09:22:40Z</time>
      </trkpt>
      <trkpt lat="43.4103" lon="6.69971">
        <ele>29.5</ele>
        <time>2022-10-09T09:22:41Z</time>
      </trkpt>
      <trkpt lat="43.41029" lon="6.69973">
        <ele>29.7</ele>
        <time>2022-10-09T09:22:42Z</time>
      </trkpt>
      <trkpt lat="43.4103" lon="6.69975">
        <ele>29.8</ele>
        <time>2022-10-09T09:22:43Z</time>
      </trkpt>
      <trkpt lat="43.4103" lon="6.69977">
        <ele>30</ele>
        <time>2022-10-09T09:22:44Z</time>
      </trkpt>
      <trkpt lat="43.4103" lon="6.6998">
        <ele>30.3</ele>
        <time>2022-10-09T09:22:45Z</time>
      </trkpt>
      <trkpt lat="43.4103" lon="6.69982">
        <ele>30.5</ele>
        <time>2022-10-09T09:22:46Z</time>
      </trkpt>
      <trkpt lat="43.41031" lon="6.69985">
        <ele>30.8</ele>
        <time>2022-10-09T09:22:47Z</time>
      </trkpt>
      <trkpt lat="43.41031" lon="6.69987">
        <ele>31</ele>
        <time>2022-10-09T09:22:48Z</time>
      </trkpt>
      <trkpt lat="43.41031" lon="6.6999">
        <ele>31.2</ele>
        <time>2022-10-09T09:22:49Z</time>
      </trkpt>
      <trkpt lat="43.41032" lon="6.69992">
        <ele>31.4</ele>
        <time>2022-10-09T09:22:50Z</time>
      </trkpt>
      <trkpt lat="43.41032" lon="6.69994">
        <ele>31.6</ele>
        <time>2022-10-09T09:22:51Z</time>
      </trkpt>
      <trkpt lat="43.41033" lon="6.69996">
        <ele>31.8</ele>
        <time>2022-10-09T09:22:52Z</time>
      </trkpt>
      <trkpt lat="43.41033" lon="6.69998">
        <ele>32</ele>
        <time>2022-10-09T09:22:53Z</time>
      </trkpt>
      <trkpt lat="43.41033" lon="6.69999">
        <ele>32.2</ele>
        <time>2022-10-09T09:22:54Z</time>
      </trkpt>
      <trkpt lat="43.41033" lon="6.70001">
        <ele>32.4</ele>
        <time>2022-10-09T09:22:55Z</time>
      </trkpt>
      <trkpt lat="43.41033" lon="6.70003">
        <ele>32.6</ele>
        <time>2022-10-09T09:22:56Z</time>
      </trkpt>
      <trkpt lat="43.41034" lon="6.70005">
        <ele>32.8</ele>
        <time>2022-10-09T09:22:57Z</time>
      </trkpt>
      <trkpt lat="43.41034" lon="6.70007">
        <ele>33</ele>
        <time>2022-10-09T09:22:58Z</time>
      </trkpt>
      <trkpt lat="43.41034" lon="6.70008">
        <ele>33.2</ele>
        <time>2022-10-09T09:22:59Z</time>
      </trkpt>
      <trkpt lat="43.41034" lon="6.7001">
        <ele>33.3</ele>
        <time>2022-10-09T09:23:00Z</time>
      </trkpt>
      <trkpt lat="43.41034" lon="6.70012">
        <ele>33.5</ele>
        <time>2022-10-09T09:23:01Z</time>
      </trkpt>
      <trkpt lat="43.41034" lon="6.70014">
        <ele>33.7</ele>
        <time>2022-10-09T09:23:02Z</time>
      </trkpt>
      <trkpt lat="43.41034" lon="6.70016">
        <ele>33.9</ele>
        <time>2022-10-09T09:23:03Z</time>
      </trkpt>
      <trkpt lat="43.41034" lon="6.70017">
        <ele>34.1</ele>
        <time>2022-10-09T09:23:04Z</time>
      </trkpt>
      <trkpt lat="43.41034" lon="6.70019">
        <ele>34.3</ele>
        <time>2022-10-09T09:23:05Z</time>
      </trkpt>
      <trkpt lat="43.41034" lon="6.70021">
        <ele>34.5</ele>
        <time>2022-10-09T09:23:06Z</time>
      </trkpt>
      <trkpt lat="43.41034" lon="6.70023">
        <ele>34.7</ele>
        <time>2022-10-09T09:23:07Z</time>
      </trkpt>
      <trkpt lat="43.41034" lon="6.70025">
        <ele>34.9</ele>
        <time>2022-10-09T09:23:08Z</time>
      </trkpt>
      <trkpt lat="43.41034" lon="6.70027">
        <ele>35.1</ele>
        <time>2022-10-09T09:23:09Z</time>
      </trkpt>
      <trkpt lat="43.41035" lon="6.70028">
        <ele>35.2</ele>
        <time>2022-10-09T09:23:10Z</time>
      </trkpt>
      <trkpt lat="43.41035" lon="6.7003">
        <ele>35.4</ele>
        <time>2022-10-09T09:23:11Z</time>
      </trkpt>
      <trkpt lat="43.41035" lon="6.70032">
        <ele>35.6</ele>
        <time>2022-10-09T09:23:12Z</time>
      </trkpt>
      <trkpt lat="43.41036" lon="6.70033">
        <ele>35.7</ele>
        <time>2022-10-09T09:23:13Z</time>
      </trkpt>
      <trkpt lat="43.41036" lon="6.70035">
        <ele>35.9</ele>
        <time>2022-10-09T09:23:14Z</time>
      </trkpt>
      <trkpt lat="43.41036" lon="6.70037">
        <ele>36.1</ele>
        <time>2022-10-09T09:23:15Z</time>
      </trkpt>
      <trkpt lat="43.41037" lon="6.70039">
        <ele>36.3</ele>
        <time>2022-10-09T09:23:16Z</time>
      </trkpt>
      <trkpt lat="43.41037" lon="6.70041">
        <ele>36.5</ele>
        <time>2022-10-09T09:23:17Z</time>
      </trkpt>
      <trkpt lat="43.41038" lon="6.70043">
        <ele>36.7</ele>
        <time>2022-10-09T09:23:18Z</time>
      </trkpt>
      <trkpt lat="43.41038" lon="6.70045">
        <ele>36.9</ele>
        <time>2022-10-09T09:23:19Z</time>
      </trkpt>
      <trkpt lat="43.41039" lon="6.70047">
        <ele>37.1</ele>
        <time>2022-10-09T09:23:20Z</time>
      </trkpt>
      <trkpt lat="43.41039" lon="6.7005">
        <ele>37.3</ele>
        <time>2022-10-09T09:23:21Z</time>
      </trkpt>
      <trkpt lat="43.4104" lon="6.70052">
        <ele>37.4</ele>
        <time>2022-10-09T09:23:22Z</time>
      </trkpt>
      <trkpt lat="43.4104" lon="6.70054">
        <ele>37.6</ele>
        <time>2022-10-09T09:23:23Z</time>
      </trkpt>
      <trkpt lat="43.4104" lon="6.70056">
        <ele>37.8</ele>
        <time>2022-10-09T09:23:24Z</time>
      </trkpt>
      <trkpt lat="43.41041" lon="6.70058">
        <ele>38</ele>
        <time>2022-10-09T09:23:25Z</time>
      </trkpt>
      <trkpt lat="43.41041" lon="6.70061">
        <ele>38.2</ele>
        <time>2022-10-09T09:23:26Z</time>
      </trkpt>
      <trkpt lat="43.41042" lon="6.70063">
        <ele>38.4</ele>
        <time>2022-10-09T09:23:27Z</time>
      </trkpt>
      <trkpt lat="43.41043" lon="6.70065">
        <ele>38.5</ele>
        <time>2022-10-09T09:23:28Z</time>
      </trkpt>
      <trkpt lat="43.41043" lon="6.70067">
        <ele>38.7</ele>
        <time>2022-10-09T09:23:29Z</time>
      </trkpt>
      <trkpt lat="43.41044" lon="6.70069">
        <ele>38.8</ele>
        <time>2022-10-09T09:23:30Z</time>
      </trkpt>
      <trkpt lat="43.41045" lon="6.70071">
        <ele>39</ele>
        <time>2022-10-09T09:23:31Z</time>
      </trkpt>
      <trkpt lat="43.41045" lon="6.70074">
        <ele>39.2</ele>
        <time>2022-10-09T09:23:32Z</time>
      </trkpt>
      <trkpt lat="43.41046" lon="6.70076">
        <ele>39.4</ele>
        <time>2022-10-09T09:23:33Z</time>
      </trkpt>
      <trkpt lat="43.41046" lon="6.70078">
        <ele>39.5</ele>
        <time>2022-10-09T09:23:34Z</time>
      </trkpt>
      <trkpt lat="43.41047" lon="6.7008">
        <ele>39.7</ele>
        <time>2022-10-09T09:23:35Z</time>
      </trkpt>
      <trkpt lat="43.41047" lon="6.70082">
        <ele>39.8</ele>
        <time>2022-10-09T09:23:36Z</time>
      </trkpt>
      <trkpt lat="43.41048" lon="6.70083">
        <ele>40</ele>
        <time>2022-10-09T09:23:37Z</time>
      </trkpt>
      <trkpt lat="43.41048" lon="6.70085">
        <ele>40.1</ele>
        <time>2022-10-09T09:23:38Z</time>
      </trkpt>
      <trkpt lat="43.41048" lon="6.70087">
        <ele>40.3</ele>
        <time>2022-10-09T09:23:39Z</time>
      </trkpt>
      <trkpt lat="43.41049" lon="6.70089">
        <ele>40.5</ele>
        <time>2022-10-09T09:23:40Z</time>
      </trkpt>
      <trkpt lat="43.41049" lon="6.70091">
        <ele>40.6</ele>
        <time>2022-10-09T09:23:41Z</time>
      </trkpt>
      <trkpt lat="43.41049" lon="6.70094">
        <ele>40.8</ele>
        <time>2022-10-09T09:23:42Z</time>
      </trkpt>
      <trkpt lat="43.41049" lon="6.70096">
        <ele>41</ele>
        <time>2022-10-09T09:23:43Z</time>
      </trkpt>
      <trkpt lat="43.41049" lon="6.70098">
        <ele>41.2</ele>
        <time>2022-10-09T09:23:44Z</time>
      </trkpt>
      <trkpt lat="43.41048" lon="6.701">
        <ele>41.3</ele>
        <time>2022-10-09T09:23:45Z</time>
      </trkpt>
      <trkpt lat="43.41047" lon="6.70101">
        <ele>41.5</ele>
        <time>2022-10-09T09:23:46Z</time>
      </trkpt>
      <trkpt lat="43.41046" lon="6.70103">
        <ele>41.7</ele>
        <time>2022-10-09T09:23:47Z</time>
      </trkpt>
      <trkpt lat="43.41045" lon="6.70104">
        <ele>41.8</ele>
        <time>2022-10-09T09:23:48Z</time>
      </trkpt>
      <trkpt lat="43.41044" lon="6.70106">
        <ele>42</ele>
        <time>2022-10-09T09:23:49Z</time>
      </trkpt>
      <trkpt lat="43.41044" lon="6.70107">
        <ele>42.1</ele>
        <time>2022-10-09T09:23:50Z</time>
      </trkpt>
      <trkpt lat="43.41044" lon="6.70108">
        <ele>42.2</ele>
        <time>2022-10-09T09:23:51Z</time>
      </trkpt>
      <trkpt lat="43.41044" lon="6.70109">
        <ele>42.3</ele>
        <time>2022-10-09T09:23:52Z</time>
      </trkpt>
      <trkpt lat="43.41043" lon="6.7011">
        <ele>42.4</ele>
        <time>2022-10-09T09:23:53Z</time>
      </trkpt>
      <trkpt lat="43.41043" lon="6.70111">
        <ele>42.5</ele>
        <time>2022-10-09T09:23:54Z</time>
      </trkpt>
      <trkpt lat="43.41043" lon="6.70112">
        <ele>42.6</ele>
        <time>2022-10-09T09:23:55Z</time>
      </trkpt>
      <trkpt lat="43.41043" lon="6.70113">
        <ele>42.7</ele>
        <time>2022-10-09T09:23:56Z</time>
      </trkpt>
      <trkpt lat="43.41043" lon="6.70114">
        <ele>42.8</ele>
        <time>2022-10-09T09:23:57Z</time>
      </trkpt>
      <trkpt lat="43.41043" lon="6.70116">
        <ele>42.9</ele>
        <time>2022-10-09T09:23:58Z</time>
      </trkpt>
      <trkpt lat="43.41042" lon="6.70117">
        <ele>43.1</ele>
        <time>2022-10-09T09:23:59Z</time>
      </trkpt>
      <trkpt lat="43.41042" lon="6.70119">
        <ele>43.3</ele>
        <time>2022-10-09T09:24:00Z</time>
      </trkpt>
      <trkpt lat="43.41041" lon="6.7012">
        <ele>43.4</ele>
        <time>2022-10-09T09:24:01Z</time>
      </trkpt>
      <trkpt lat="43.41041" lon="6.70122">
        <ele>43.6</ele>
        <time>2022-10-09T09:24:02Z</time>
      </trkpt>
      <trkpt lat="43.4104" lon="6.70123">
        <ele>43.8</ele>
        <time>2022-10-09T09:24:03Z</time>
      </trkpt>
      <trkpt lat="43.41039" lon="6.70125">
        <ele>44</ele>
        <time>2022-10-09T09:24:04Z</time>
      </trkpt>
      <trkpt lat="43.41038" lon="6.70126">
        <ele>44.2</ele>
        <time>2022-10-09T09:24:05Z</time>
      </trkpt>
      <trkpt lat="43.41037" lon="6.70126">
        <ele>44.4</ele>
        <time>2022-10-09T09:24:06Z</time>
      </trkpt>
      <trkpt lat="43.41037" lon="6.70127">
        <ele>44.5</ele>
        <time>2022-10-09T09:24:07Z</time>
      </trkpt>
      <trkpt lat="43.41036" lon="6.70127">
        <ele>44.6</ele>
        <time>2022-10-09T09:24:08Z</time>
      </trkpt>
      <trkpt lat="43.41035" lon="6.70127">
        <ele>44.7</ele>
        <time>2022-10-09T09:24:09Z</time>
      </trkpt>
      <trkpt lat="43.41035" lon="6.70127">
        <ele>44.8</ele>
        <time>2022-10-09T09:24:10Z</time>
      </trkpt>
      <trkpt lat="43.41034" lon="6.70127">
        <ele>44.9</ele>
        <time>2022-10-09T09:24:11Z</time>
      </trkpt>
      <trkpt lat="43.41033" lon="6.70127">
        <ele>45</ele>
        <time>2022-10-09T09:24:12Z</time>
      </trkpt>
      <trkpt lat="43.41033" lon="6.70126">
        <ele>45.2</ele>
        <time>2022-10-09T09:24:13Z</time>
      </trkpt>
      <trkpt lat="43.41032" lon="6.70127">
        <ele>45.4</ele>
        <time>2022-10-09T09:24:14Z</time>
      </trkpt>
      <trkpt lat="43.41031" lon="6.70127">
        <ele>45.5</ele>
        <time>2022-10-09T09:24:15Z</time>
      </trkpt>
      <trkpt lat="43.4103" lon="6.70127">
        <ele>45.6</ele>
        <time>2022-10-09T09:24:16Z</time>
      </trkpt>
      <trkpt lat="43.41029" lon="6.70128">
        <ele>45.8</ele>
        <time>2022-10-09T09:24:17Z</time>
      </trkpt>
      <trkpt lat="43.41028" lon="6.70128">
        <ele>46</ele>
        <time>2022-10-09T09:24:18Z</time>
      </trkpt>
      <trkpt lat="43.41027" lon="6.70129">
        <ele>46.2</ele>
        <time>2022-10-09T09:24:19Z</time>
      </trkpt>
      <trkpt lat="43.41026" lon="6.70129">
        <ele>46.4</ele>
        <time>2022-10-09T09:24:20Z</time>
      </trkpt>
      <trkpt lat="43.41025" lon="6.7013">
        <ele>46.6</ele>
        <time>2022-10-09T09:24:21Z</time>
      </trkpt>
      <trkpt lat="43.41024" lon="6.7013">
        <ele>46.8</ele>
        <time>2022-10-09T09:24:22Z</time>
      </trkpt>
      <trkpt lat="43.41023" lon="6.70131">
        <ele>47</ele>
        <time>2022-10-09T09:24:23Z</time>
      </trkpt>
      <trkpt lat="43.41022" lon="6.70131">
        <ele>47.2</ele>
        <time>2022-10-09T09:24:24Z</time>
      </trkpt>
      <trkpt lat="43.41021" lon="6.70132">
        <ele>47.4</ele>
        <time>2022-10-09T09:24:25Z</time>
      </trkpt>
      <trkpt lat="43.4102" lon="6.70132">
        <ele>47.5</ele>
        <time>2022-10-09T09:24:26Z</time>
      </trkpt>
      <trkpt lat="43.41018" lon="6.70133">
        <ele>47.7</ele>
        <time>2022-10-09T09:24:27Z</time>
      </trkpt>
      <trkpt lat="43.41017" lon="6.70133">
        <ele>47.9</ele>
        <time>2022-10-09T09:24:28Z</time>
      </trkpt>
      <trkpt lat="43.41016" lon="6.70134">
        <ele>48.1</ele>
        <time>2022-10-09T09:24:29Z</time>
      </trkpt>
      <trkpt lat="43.41015" lon="6.70134">
        <ele>48.2</ele>
        <time>2022-10-09T09:24:30Z</time>
      </trkpt>
      <trkpt lat="43.41014" lon="6.70136">
        <ele>48.4</ele>
        <time>2022-10-09T09:24:31Z</time>
      </trkpt>
      <trkpt lat="43.41013" lon="6.70137">
        <ele>48.6</ele>
        <time>2022-10-09T09:24:32Z</time>
      </trkpt>
      <trkpt lat="43.41012" lon="6.70138">
        <ele>48.7</ele>
        <time>2022-10-09T09:24:33Z</time>
      </trkpt>
      <trkpt lat="43.41011" lon="6.7014">
        <ele>48.9</ele>
        <time>2022-10-09T09:24:34Z</time>
      </trkpt>
      <trkpt lat="43.41011" lon="6.70141">
        <ele>49</ele>
        <time>2022-10-09T09:24:35Z</time>
      </trkpt>
      <trkpt lat="43.4101" lon="6.70142">
        <ele>49.2</ele>
        <time>2022-10-09T09:24:36Z</time>
      </trkpt>
      <trkpt lat="43.4101" lon="6.70144">
        <ele>49.3</ele>
        <time>2022-10-09T09:24:37Z</time>
      </trkpt>
      <trkpt lat="43.41009" lon="6.70145">
        <ele>49.4</ele>
        <time>2022-10-09T09:24:38Z</time>
      </trkpt>
      <trkpt lat="43.41009" lon="6.70146">
        <ele>49.5</ele>
        <time>2022-10-09T09:24:39Z</time>
      </trkpt>
      <trkpt lat="43.41009" lon="6.70148">
        <ele>49.6</ele>
        <time>2022-10-09T09:24:40Z</time>
      </trkpt>
      <trkpt lat="43.41008" lon="6.7015">
        <ele>49.6</ele>
        <time>2022-10-09T09:24:41Z</time>
      </trkpt>
      <trkpt lat="43.41008" lon="6.70151">
        <ele>49.7</ele>
        <time>2022-10-09T09:24:42Z</time>
      </trkpt>
      <trkpt lat="43.41007" lon="6.70153">
        <ele>49.8</ele>
        <time>2022-10-09T09:24:43Z</time>
      </trkpt>
      <trkpt lat="43.41006" lon="6.70154">
        <ele>49.9</ele>
        <time>2022-10-09T09:24:44Z</time>
      </trkpt>
      <trkpt lat="43.41006" lon="6.70155">
        <ele>49.9</ele>
        <time>2022-10-09T09:24:45Z</time>
      </trkpt>
      <trkpt lat="43.41006" lon="6.70156">
        <ele>49.9</ele>
        <time>2022-10-09T09:24:46Z</time>
      </trkpt>
      <trkpt lat="43.41005" lon="6.70156">
        <ele>50</ele>
        <time>2022-10-09T09:24:47Z</time>
      </trkpt>
      <trkpt lat="43.41004" lon="6.70157">
        <ele>50</ele>
        <time>2022-10-09T09:24:48Z</time>
      </trkpt>
      <trkpt lat="43.41002" lon="6.70157">
        <ele>50</ele>
        <time>2022-10-09T09:24:49Z</time>
      </trkpt>
      <trkpt lat="43.41001" lon="6.70156">
        <ele>50</ele>
        <time>2022-10-09T09:24:50Z</time>
      </trkpt>
      <trkpt lat="43.40999" lon="6.70154">
        <ele>50.1</ele>
        <time>2022-10-09T09:24:51Z</time>
      </trkpt>
      <trkpt lat="43.40997" lon="6.70152">
        <ele>50.1</ele>
        <time>2022-10-09T09:24:52Z</time>
      </trkpt>
      <trkpt lat="43.40994" lon="6.7015">
        <ele>50</ele>
        <time>2022-10-09T09:24:53Z</time>
      </trkpt>
      <trkpt lat="43.4099" lon="6.70148">
        <ele>50</ele>
        <time>2022-10-09T09:24:54Z</time>
      </trkpt>
      <trkpt lat="43.40986" lon="6.70146">
        <ele>50.1</ele>
        <time>2022-10-09T09:24:55Z</time>
      </trkpt>
      <trkpt lat="43.40977" lon="6.70142">
        <ele>50.3</ele>
        <time>2022-10-09T09:24:57Z</time>
      </trkpt>
      <trkpt lat="43.40974" lon="6.70142">
        <ele>50.5</ele>
        <time>2022-10-09T09:24:58Z</time>
      </trkpt>
      <trkpt lat="43.40971" lon="6.70141">
        <ele>50.7</ele>
        <time>2022-10-09T09:24:59Z</time>
      </trkpt>
      <trkpt lat="43.4097" lon="6.70141">
        <ele>50.8</ele>
        <time>2022-10-09T09:25:00Z</time>
      </trkpt>
      <trkpt lat="43.40968" lon="6.70142">
        <ele>50.8</ele>
        <time>2022-10-09T09:25:01Z</time>
      </trkpt>
      <trkpt lat="43.40966" lon="6.70142">
        <ele>51.1</ele>
        <time>2022-10-09T09:25:02Z</time>
      </trkpt>
      <trkpt lat="43.40963" lon="6.70144">
        <ele>51.5</ele>
        <time>2022-10-09T09:25:04Z</time>
      </trkpt>
      <trkpt lat="43.40962" lon="6.70146">
        <ele>51.8</ele>
        <time>2022-10-09T09:25:05Z</time>
      </trkpt>
      <trkpt lat="43.40961" lon="6.70148">
        <ele>52</ele>
        <time>2022-10-09T09:25:06Z</time>
      </trkpt>
      <trkpt lat="43.4096" lon="6.70149">
        <ele>52.2</ele>
        <time>2022-10-09T09:25:07Z</time>
      </trkpt>
      <trkpt lat="43.40958" lon="6.70149">
        <ele>52.4</ele>
        <time>2022-10-09T09:25:08Z</time>
      </trkpt>
      <trkpt lat="43.40957" lon="6.7015">
        <ele>52.6</ele>
        <time>2022-10-09T09:25:09Z</time>
      </trkpt>
      <trkpt lat="43.40955" lon="6.7015">
        <ele>52.9</ele>
        <time>2022-10-09T09:25:10Z</time>
      </trkpt>
      <trkpt lat="43.40954" lon="6.70152">
        <ele>53.2</ele>
        <time>2022-10-09T09:25:11Z</time>
      </trkpt>
      <trkpt lat="43.40953" lon="6.70153">
        <ele>53.4</ele>
        <time>2022-10-09T09:25:12Z</time>
      </trkpt>
      <trkpt lat="43.40951" lon="6.70154">
        <ele>53.7</ele>
        <time>2022-10-09T09:25:13Z</time>
      </trkpt>
      <trkpt lat="43.4095" lon="6.70156">
        <ele>54</ele>
        <time>2022-10-09T09:25:14Z</time>
      </trkpt>
      <trkpt lat="43.40949" lon="6.70157">
        <ele>54.2</ele>
        <time>2022-10-09T09:25:15Z</time>
      </trkpt>
      <trkpt lat="43.40948" lon="6.70159">
        <ele>54.5</ele>
        <time>2022-10-09T09:25:16Z</time>
      </trkpt>
      <trkpt lat="43.40947" lon="6.7016">
        <ele>54.7</ele>
        <time>2022-10-09T09:25:17Z</time>
      </trkpt>
      <trkpt lat="43.40946" lon="6.70161">
        <ele>54.9</ele>
        <time>2022-10-09T09:25:18Z</time>
      </trkpt>
      <trkpt lat="43.40945" lon="6.70163">
        <ele>55.1</ele>
        <time>2022-10-09T09:25:19Z</time>
      </trkpt>
      <trkpt lat="43.40944" lon="6.70164">
        <ele>55.4</ele>
        <time>2022-10-09T09:25:20Z</time>
      </trkpt>
      <trkpt lat="43.40942" lon="6.70165">
        <ele>55.7</ele>
        <time>2022-10-09T09:25:21Z</time>
      </trkpt>
      <trkpt lat="43.40941" lon="6.70167">
        <ele>55.9</ele>
        <time>2022-10-09T09:25:22Z</time>
      </trkpt>
      <trkpt lat="43.4094" lon="6.70168">
        <ele>56.2</ele>
        <time>2022-10-09T09:25:23Z</time>
      </trkpt>
      <trkpt lat="43.40938" lon="6.70169">
        <ele>56.4</ele>
        <time>2022-10-09T09:25:24Z</time>
      </trkpt>
      <trkpt lat="43.40937" lon="6.70171">
        <ele>56.7</ele>
        <time>2022-10-09T09:25:25Z</time>
      </trkpt>
      <trkpt lat="43.40935" lon="6.70172">
        <ele>56.9</ele>
        <time>2022-10-09T09:25:26Z</time>
      </trkpt>
      <trkpt lat="43.40934" lon="6.70173">
        <ele>57.1</ele>
        <time>2022-10-09T09:25:27Z</time>
      </trkpt>
      <trkpt lat="43.40932" lon="6.70173">
        <ele>57.3</ele>
        <time>2022-10-09T09:25:28Z</time>
      </trkpt>
      <trkpt lat="43.4093" lon="6.70174">
        <ele>57.5</ele>
        <time>2022-10-09T09:25:29Z</time>
      </trkpt>
      <trkpt lat="43.40928" lon="6.70174">
        <ele>57.7</ele>
        <time>2022-10-09T09:25:30Z</time>
      </trkpt>
      <trkpt lat="43.40926" lon="6.70174">
        <ele>57.9</ele>
        <time>2022-10-09T09:25:31Z</time>
      </trkpt>
      <trkpt lat="43.40924" lon="6.70174">
        <ele>58.1</ele>
        <time>2022-10-09T09:25:32Z</time>
      </trkpt>
      <trkpt lat="43.40922" lon="6.70174">
        <ele>58.2</ele>
        <time>2022-10-09T09:25:33Z</time>
      </trkpt>
      <trkpt lat="43.4092" lon="6.70174">
        <ele>58.4</ele>
        <time>2022-10-09T09:25:34Z</time>
      </trkpt>
      <trkpt lat="43.40919" lon="6.70173">
        <ele>58.5</ele>
        <time>2022-10-09T09:25:35Z</time>
      </trkpt>
      <trkpt lat="43.40917" lon="6.70171">
        <ele>58.5</ele>
        <time>2022-10-09T09:25:36Z</time>
      </trkpt>
      <trkpt lat="43.40915" lon="6.7017">
        <ele>58.6</ele>
        <time>2022-10-09T09:25:37Z</time>
      </trkpt>
      <trkpt lat="43.40912" lon="6.7017">
        <ele>58.7</ele>
        <time>2022-10-09T09:25:38Z</time>
      </trkpt>
      <trkpt lat="43.4091" lon="6.7017">
        <ele>58.7</ele>
        <time>2022-10-09T09:25:39Z</time>
      </trkpt>
      <trkpt lat="43.40907" lon="6.70169">
        <ele>58.8</ele>
        <time>2022-10-09T09:25:40Z</time>
      </trkpt>
      <trkpt lat="43.40904" lon="6.70169">
        <ele>58.8</ele>
        <time>2022-10-09T09:25:41Z</time>
      </trkpt>
      <trkpt lat="43.40901" lon="6.70169">
        <ele>58.9</ele>
        <time>2022-10-09T09:25:42Z</time>
      </trkpt>
      <trkpt lat="43.40898" lon="6.7017">
        <ele>58.9</ele>
        <time>2022-10-09T09:25:43Z</time>
      </trkpt>
      <trkpt lat="43.40895" lon="6.7017">
        <ele>59</ele>
        <time>2022-10-09T09:25:44Z</time>
      </trkpt>
      <trkpt lat="43.40893" lon="6.70171">
        <ele>59</ele>
        <time>2022-10-09T09:25:45Z</time>
      </trkpt>
      <trkpt lat="43.4089" lon="6.70172">
        <ele>59</ele>
        <time>2022-10-09T09:25:46Z</time>
      </trkpt>
      <trkpt lat="43.40887" lon="6.70172">
        <ele>59.1</ele>
        <time>2022-10-09T09:25:47Z</time>
      </trkpt>
      <trkpt lat="43.40884" lon="6.70173">
        <ele>59.1</ele>
        <time>2022-10-09T09:25:48Z</time>
      </trkpt>
      <trkpt lat="43.40882" lon="6.70173">
        <ele>59.1</ele>
        <time>2022-10-09T09:25:49Z</time>
      </trkpt>
      <trkpt lat="43.40864" lon="6.7018">
        <ele>59</ele>
        <time>2022-10-09T09:25:54Z</time>
      </trkpt>
      <trkpt lat="43.40856" lon="6.70186">
        <ele>58.9</ele>
        <time>2022-10-09T09:25:56Z</time>
      </trkpt>
      <trkpt lat="43.40845" lon="6.7019">
        <ele>58.7</ele>
        <time>2022-10-09T09:25:58Z</time>
      </trkpt>
      <trkpt lat="43.4084" lon="6.70193">
        <ele>58.5</ele>
        <time>2022-10-09T09:25:59Z</time>
      </trkpt>
      <trkpt lat="43.40828" lon="6.702">
        <ele>57.5</ele>
        <time>2022-10-09T09:26:01Z</time>
      </trkpt>
      <trkpt lat="43.40816" lon="6.70203">
        <ele>57.2</ele>
        <time>2022-10-09T09:26:03Z</time>
      </trkpt>
      <trkpt lat="43.40811" lon="6.70204">
        <ele>57.1</ele>
        <time>2022-10-09T09:26:04Z</time>
      </trkpt>
      <trkpt lat="43.40806" lon="6.70206">
        <ele>57.1</ele>
        <time>2022-10-09T09:26:05Z</time>
      </trkpt>
      <trkpt lat="43.40801" lon="6.70207">
        <ele>57.2</ele>
        <time>2022-10-09T09:26:06Z</time>
      </trkpt>
      <trkpt lat="43.40797" lon="6.70209">
        <ele>57.3</ele>
        <time>2022-10-09T09:26:07Z</time>
      </trkpt>
      <trkpt lat="43.40792" lon="6.70211">
        <ele>57.4</ele>
        <time>2022-10-09T09:26:08Z</time>
      </trkpt>
      <trkpt lat="43.40788" lon="6.70211">
        <ele>57.5</ele>
        <time>2022-10-09T09:26:09Z</time>
      </trkpt>
      <trkpt lat="43.40784" lon="6.7021">
        <ele>57.6</ele>
        <time>2022-10-09T09:26:10Z</time>
      </trkpt>
      <trkpt lat="43.40781" lon="6.70208">
        <ele>57.7</ele>
        <time>2022-10-09T09:26:11Z</time>
      </trkpt>
      <trkpt lat="43.40779" lon="6.70206">
        <ele>57.8</ele>
        <time>2022-10-09T09:26:12Z</time>
      </trkpt>
      <trkpt lat="43.40776" lon="6.70204">
        <ele>58</ele>
        <time>2022-10-09T09:26:13Z</time>
      </trkpt>
      <trkpt lat="43.40773" lon="6.70202">
        <ele>58.1</ele>
        <time>2022-10-09T09:26:14Z</time>
      </trkpt>
      <trkpt lat="43.4077" lon="6.70201">
        <ele>58.3</ele>
        <time>2022-10-09T09:26:15Z</time>
      </trkpt>
      <trkpt lat="43.40768" lon="6.70201">
        <ele>58.5</ele>
        <time>2022-10-09T09:26:16Z</time>
      </trkpt>
      <trkpt lat="43.40766" lon="6.70201">
        <ele>58.6</ele>
        <time>2022-10-09T09:26:17Z</time>
      </trkpt>
      <trkpt lat="43.40764" lon="6.70202">
        <ele>58.7</ele>
        <time>2022-10-09T09:26:18Z</time>
      </trkpt>
      <trkpt lat="43.40763" lon="6.70202">
        <ele>58.8</ele>
        <time>2022-10-09T09:26:19Z</time>
      </trkpt>
      <trkpt lat="43.40756" lon="6.70204">
        <ele>59.3</ele>
        <time>2022-10-09T09:26:22Z</time>
      </trkpt>
      <trkpt lat="43.40754" lon="6.70205">
        <ele>59.5</ele>
        <time>2022-10-09T09:26:23Z</time>
      </trkpt>
      <trkpt lat="43.4075" lon="6.70204">
        <ele>59.9</ele>
        <time>2022-10-09T09:26:25Z</time>
      </trkpt>
      <trkpt lat="43.40748" lon="6.70202">
        <ele>60.1</ele>
        <time>2022-10-09T09:26:26Z</time>
      </trkpt>
      <trkpt lat="43.40747" lon="6.70201">
        <ele>60.3</ele>
        <time>2022-10-09T09:26:27Z</time>
      </trkpt>
      <trkpt lat="43.40745" lon="6.70199">
        <ele>60.5</ele>
        <time>2022-10-09T09:26:28Z</time>
      </trkpt>
      <trkpt lat="43.40744" lon="6.70198">
        <ele>60.8</ele>
        <time>2022-10-09T09:26:29Z</time>
      </trkpt>
      <trkpt lat="43.40742" lon="6.70197">
        <ele>61</ele>
        <time>2022-10-09T09:26:30Z</time>
      </trkpt>
      <trkpt lat="43.40741" lon="6.70195">
        <ele>61.2</ele>
        <time>2022-10-09T09:26:31Z</time>
      </trkpt>
      <trkpt lat="43.40739" lon="6.70195">
        <ele>61.3</ele>
        <time>2022-10-09T09:26:32Z</time>
      </trkpt>
      <trkpt lat="43.40738" lon="6.70194">
        <ele>61.5</ele>
        <time>2022-10-09T09:26:33Z</time>
      </trkpt>
      <trkpt lat="43.40736" lon="6.70193">
        <ele>61.8</ele>
        <time>2022-10-09T09:26:34Z</time>
      </trkpt>
      <trkpt lat="43.40734" lon="6.70193">
        <ele>62</ele>
        <time>2022-10-09T09:26:35Z</time>
      </trkpt>
      <trkpt lat="43.40733" lon="6.70192">
        <ele>62.2</ele>
        <time>2022-10-09T09:26:36Z</time>
      </trkpt>
      <trkpt lat="43.40731" lon="6.70191">
        <ele>62.4</ele>
        <time>2022-10-09T09:26:37Z</time>
      </trkpt>
      <trkpt lat="43.4073" lon="6.7019">
        <ele>62.6</ele>
        <time>2022-10-09T09:26:38Z</time>
      </trkpt>
      <trkpt lat="43.40728" lon="6.70189">
        <ele>62.8</ele>
        <time>2022-10-09T09:26:39Z</time>
      </trkpt>
      <trkpt lat="43.40727" lon="6.70189">
        <ele>62.9</ele>
        <time>2022-10-09T09:26:40Z</time>
      </trkpt>
      <trkpt lat="43.40726" lon="6.70188">
        <ele>63.1</ele>
        <time>2022-10-09T09:26:41Z</time>
      </trkpt>
      <trkpt lat="43.40724" lon="6.70187">
        <ele>63.3</ele>
        <time>2022-10-09T09:26:42Z</time>
      </trkpt>
      <trkpt lat="43.40723" lon="6.70186">
        <ele>63.5</ele>
        <time>2022-10-09T09:26:43Z</time>
      </trkpt>
      <trkpt lat="43.40721" lon="6.70186">
        <ele>63.7</ele>
        <time>2022-10-09T09:26:44Z</time>
      </trkpt>
      <trkpt lat="43.4072" lon="6.70185">
        <ele>63.9</ele>
        <time>2022-10-09T09:26:45Z</time>
      </trkpt>
      <trkpt lat="43.40718" lon="6.70184">
        <ele>64.1</ele>
        <time>2022-10-09T09:26:46Z</time>
      </trkpt>
      <trkpt lat="43.40717" lon="6.70183">
        <ele>64.2</ele>
        <time>2022-10-09T09:26:47Z</time>
      </trkpt>
      <trkpt lat="43.40716" lon="6.70182">
        <ele>64.4</ele>
        <time>2022-10-09T09:26:48Z</time>
      </trkpt>
      <trkpt lat="43.40714" lon="6.70181">
        <ele>64.6</ele>
        <time>2022-10-09T09:26:49Z</time>
      </trkpt>
      <trkpt lat="43.40713" lon="6.7018">
        <ele>64.7</ele>
        <time>2022-10-09T09:26:50Z</time>
      </trkpt>
      <trkpt lat="43.40712" lon="6.70179">
        <ele>64.9</ele>
        <time>2022-10-09T09:26:51Z</time>
      </trkpt>
      <trkpt lat="43.40711" lon="6.70178">
        <ele>65</ele>
        <time>2022-10-09T09:26:52Z</time>
      </trkpt>
      <trkpt lat="43.40709" lon="6.70177">
        <ele>65.2</ele>
        <time>2022-10-09T09:26:53Z</time>
      </trkpt>
      <trkpt lat="43.40708" lon="6.70176">
        <ele>65.3</ele>
        <time>2022-10-09T09:26:54Z</time>
      </trkpt>
      <trkpt lat="43.40707" lon="6.70175">
        <ele>65.5</ele>
        <time>2022-10-09T09:26:55Z</time>
      </trkpt>
      <trkpt lat="43.40705" lon="6.70174">
        <ele>65.6</ele>
        <time>2022-10-09T09:26:56Z</time>
      </trkpt>
      <trkpt lat="43.40704" lon="6.70173">
        <ele>65.8</ele>
        <time>2022-10-09T09:26:57Z</time>
      </trkpt>
      <trkpt lat="43.40702" lon="6.70171">
        <ele>65.9</ele>
        <time>2022-10-09T09:26:58Z</time>
      </trkpt>
      <trkpt lat="43.40701" lon="6.7017">
        <ele>66</ele>
        <time>2022-10-09T09:26:59Z</time>
      </trkpt>
      <trkpt lat="43.40699" lon="6.70169">
        <ele>66.2</ele>
        <time>2022-10-09T09:27:00Z</time>
      </trkpt>
      <trkpt lat="43.40698" lon="6.70168">
        <ele>66.3</ele>
        <time>2022-10-09T09:27:01Z</time>
      </trkpt>
      <trkpt lat="43.40696" lon="6.70167">
        <ele>66.4</ele>
        <time>2022-10-09T09:27:02Z</time>
      </trkpt>
      <trkpt lat="43.40694" lon="6.70166">
        <ele>66.5</ele>
        <time>2022-10-09T09:27:03Z</time>
      </trkpt>
      <trkpt lat="43.40692" lon="6.70166">
        <ele>66.7</ele>
        <time>2022-10-09T09:27:04Z</time>
      </trkpt>
      <trkpt lat="43.4069" lon="6.70165">
        <ele>66.8</ele>
        <time>2022-10-09T09:27:05Z</time>
      </trkpt>
      <trkpt lat="43.40687" lon="6.70164">
        <ele>67</ele>
        <time>2022-10-09T09:27:06Z</time>
      </trkpt>
      <trkpt lat="43.40685" lon="6.70163">
        <ele>67.1</ele>
        <time>2022-10-09T09:27:07Z</time>
      </trkpt>
      <trkpt lat="43.40683" lon="6.70162">
        <ele>67.2</ele>
        <time>2022-10-09T09:27:08Z</time>
      </trkpt>
      <trkpt lat="43.4068" lon="6.70161">
        <ele>67.3</ele>
        <time>2022-10-09T09:27:09Z</time>
      </trkpt>
      <trkpt lat="43.40678" lon="6.70161">
        <ele>67.4</ele>
        <time>2022-10-09T09:27:10Z</time>
      </trkpt>
      <trkpt lat="43.40676" lon="6.7016">
        <ele>67.5</ele>
        <time>2022-10-09T09:27:11Z</time>
      </trkpt>
      <trkpt lat="43.40673" lon="6.70159">
        <ele>67.6</ele>
        <time>2022-10-09T09:27:12Z</time>
      </trkpt>
      <trkpt lat="43.40671" lon="6.70159">
        <ele>67.7</ele>
        <time>2022-10-09T09:27:13Z</time>
      </trkpt>
      <trkpt lat="43.40669" lon="6.70158">
        <ele>67.8</ele>
        <time>2022-10-09T09:27:14Z</time>
      </trkpt>
      <trkpt lat="43.40666" lon="6.70157">
        <ele>67.8</ele>
        <time>2022-10-09T09:27:15Z</time>
      </trkpt>
      <trkpt lat="43.40664" lon="6.70157">
        <ele>67.9</ele>
        <time>2022-10-09T09:27:16Z</time>
      </trkpt>
      <trkpt lat="43.40662" lon="6.70156">
        <ele>68</ele>
        <time>2022-10-09T09:27:17Z</time>
      </trkpt>
      <trkpt lat="43.4066" lon="6.70155">
        <ele>68</ele>
        <time>2022-10-09T09:27:18Z</time>
      </trkpt>
      <trkpt lat="43.40657" lon="6.70154">
        <ele>68.1</ele>
        <time>2022-10-09T09:27:19Z</time>
      </trkpt>
      <trkpt lat="43.40655" lon="6.70153">
        <ele>68.1</ele>
        <time>2022-10-09T09:27:20Z</time>
      </trkpt>
      <trkpt lat="43.40652" lon="6.70153">
        <ele>68.2</ele>
        <time>2022-10-09T09:27:21Z</time>
      </trkpt>
      <trkpt lat="43.4065" lon="6.70152">
        <ele>68.2</ele>
        <time>2022-10-09T09:27:22Z</time>
      </trkpt>
      <trkpt lat="43.40647" lon="6.70151">
        <ele>68.2</ele>
        <time>2022-10-09T09:27:23Z</time>
      </trkpt>
      <trkpt lat="43.40645" lon="6.7015">
        <ele>68.2</ele>
        <time>2022-10-09T09:27:24Z</time>
      </trkpt>
      <trkpt lat="43.40642" lon="6.70149">
        <ele>68.2</ele>
        <time>2022-10-09T09:27:25Z</time>
      </trkpt>
      <trkpt lat="43.40639" lon="6.70148">
        <ele>68.2</ele>
        <time>2022-10-09T09:27:26Z</time>
      </trkpt>
      <trkpt lat="43.40636" lon="6.70146">
        <ele>68.1</ele>
        <time>2022-10-09T09:27:27Z</time>
      </trkpt>
      <trkpt lat="43.40633" lon="6.70144">
        <ele>68.1</ele>
        <time>2022-10-09T09:27:28Z</time>
      </trkpt>
      <trkpt lat="43.4063" lon="6.70142">
        <ele>68</ele>
        <time>2022-10-09T09:27:29Z</time>
      </trkpt>
      <trkpt lat="43.40626" lon="6.7014">
        <ele>67.9</ele>
        <time>2022-10-09T09:27:30Z</time>
      </trkpt>
      <trkpt lat="43.40622" lon="6.70137">
        <ele>67.8</ele>
        <time>2022-10-09T09:27:31Z</time>
      </trkpt>
      <trkpt lat="43.40597" lon="6.70123">
        <ele>66.9</ele>
        <time>2022-10-09T09:27:37Z</time>
      </trkpt>
      <trkpt lat="43.40592" lon="6.70121">
        <ele>66.7</ele>
        <time>2022-10-09T09:27:38Z</time>
      </trkpt>
      <trkpt lat="43.40576" lon="6.70117">
        <ele>66.1</ele>
        <time>2022-10-09T09:27:41Z</time>
      </trkpt>
      <trkpt lat="43.40565" lon="6.70116">
        <ele>65.8</ele>
        <time>2022-10-09T09:27:43Z</time>
      </trkpt>
      <trkpt lat="43.4056" lon="6.70114">
        <ele>65.7</ele>
        <time>2022-10-09T09:27:44Z</time>
      </trkpt>
      <trkpt lat="43.40554" lon="6.70113">
        <ele>65.6</ele>
        <time>2022-10-09T09:27:45Z</time>
      </trkpt>
      <trkpt lat="43.40549" lon="6.70112">
        <ele>65.5</ele>
        <time>2022-10-09T09:27:46Z</time>
      </trkpt>
      <trkpt lat="43.40545" lon="6.70111">
        <ele>65.5</ele>
        <time>2022-10-09T09:27:47Z</time>
      </trkpt>
      <trkpt lat="43.40541" lon="6.70111">
        <ele>65.5</ele>
        <time>2022-10-09T09:27:48Z</time>
      </trkpt>
      <trkpt lat="43.40537" lon="6.7011">
        <ele>65.5</ele>
        <time>2022-10-09T09:27:49Z</time>
      </trkpt>
      <trkpt lat="43.40533" lon="6.70109">
        <ele>65.5</ele>
        <time>2022-10-09T09:27:50Z</time>
      </trkpt>
      <trkpt lat="43.40529" lon="6.70108">
        <ele>65.6</ele>
        <time>2022-10-09T09:27:51Z</time>
      </trkpt>
      <trkpt lat="43.40525" lon="6.70107">
        <ele>65.7</ele>
        <time>2022-10-09T09:27:52Z</time>
      </trkpt>
      <trkpt lat="43.40522" lon="6.70106">
        <ele>65.8</ele>
        <time>2022-10-09T09:27:53Z</time>
      </trkpt>
      <trkpt lat="43.40519" lon="6.70105">
        <ele>65.8</ele>
        <time>2022-10-09T09:27:54Z</time>
      </trkpt>
      <trkpt lat="43.40516" lon="6.70104">
        <ele>66</ele>
        <time>2022-10-09T09:27:55Z</time>
      </trkpt>
      <trkpt lat="43.40512" lon="6.70104">
        <ele>66.1</ele>
        <time>2022-10-09T09:27:56Z</time>
      </trkpt>
      <trkpt lat="43.40509" lon="6.70103">
        <ele>66.2</ele>
        <time>2022-10-09T09:27:57Z</time>
      </trkpt>
      <trkpt lat="43.40506" lon="6.70103">
        <ele>66.4</ele>
        <time>2022-10-09T09:27:58Z</time>
      </trkpt>
      <trkpt lat="43.40502" lon="6.70103">
        <ele>66.6</ele>
        <time>2022-10-09T09:27:59Z</time>
      </trkpt>
      <trkpt lat="43.40499" lon="6.70103">
        <ele>66.8</ele>
        <time>2022-10-09T09:28:00Z</time>
      </trkpt>
      <trkpt lat="43.40496" lon="6.70103">
        <ele>67</ele>
        <time>2022-10-09T09:28:01Z</time>
      </trkpt>
      <trkpt lat="43.40493" lon="6.70104">
        <ele>67.2</ele>
        <time>2022-10-09T09:28:02Z</time>
      </trkpt>
      <trkpt lat="43.4049" lon="6.70104">
        <ele>67.4</ele>
        <time>2022-10-09T09:28:03Z</time>
      </trkpt>
      <trkpt lat="43.40487" lon="6.70104">
        <ele>67.7</ele>
        <time>2022-10-09T09:28:04Z</time>
      </trkpt>
      <trkpt lat="43.40484" lon="6.70104">
        <ele>67.9</ele>
        <time>2022-10-09T09:28:05Z</time>
      </trkpt>
      <trkpt lat="43.40481" lon="6.70105">
        <ele>68.2</ele>
        <time>2022-10-09T09:28:06Z</time>
      </trkpt>
      <trkpt lat="43.40479" lon="6.70105">
        <ele>68.4</ele>
        <time>2022-10-09T09:28:07Z</time>
      </trkpt>
      <trkpt lat="43.40476" lon="6.70105">
        <ele>68.7</ele>
        <time>2022-10-09T09:28:08Z</time>
      </trkpt>
      <trkpt lat="43.40474" lon="6.70106">
        <ele>69</ele>
        <time>2022-10-09T09:28:09Z</time>
      </trkpt>
      <trkpt lat="43.40472" lon="6.70106">
        <ele>69.3</ele>
        <time>2022-10-09T09:28:10Z</time>
      </trkpt>
      <trkpt lat="43.40469" lon="6.70106">
        <ele>69.6</ele>
        <time>2022-10-09T09:28:11Z</time>
      </trkpt>
      <trkpt lat="43.40467" lon="6.70107">
        <ele>69.9</ele>
        <time>2022-10-09T09:28:12Z</time>
      </trkpt>
      <trkpt lat="43.40465" lon="6.70107">
        <ele>70.2</ele>
        <time>2022-10-09T09:28:13Z</time>
      </trkpt>
      <trkpt lat="43.40463" lon="6.70108">
        <ele>70.5</ele>
        <time>2022-10-09T09:28:14Z</time>
      </trkpt>
      <trkpt lat="43.40461" lon="6.70108">
        <ele>70.9</ele>
        <time>2022-10-09T09:28:15Z</time>
      </trkpt>
      <trkpt lat="43.40459" lon="6.70108">
        <ele>71.3</ele>
        <time>2022-10-09T09:28:16Z</time>
      </trkpt>
      <trkpt lat="43.40456" lon="6.70108">
        <ele>71.7</ele>
        <time>2022-10-09T09:28:17Z</time>
      </trkpt>
      <trkpt lat="43.40454" lon="6.70108">
        <ele>72</ele>
        <time>2022-10-09T09:28:18Z</time>
      </trkpt>
      <trkpt lat="43.40453" lon="6.70108">
        <ele>72.4</ele>
        <time>2022-10-09T09:28:19Z</time>
      </trkpt>
      <trkpt lat="43.40451" lon="6.70108">
        <ele>72.7</ele>
        <time>2022-10-09T09:28:20Z</time>
      </trkpt>
      <trkpt lat="43.4045" lon="6.70108">
        <ele>73</ele>
        <time>2022-10-09T09:28:21Z</time>
      </trkpt>
      <trkpt lat="43.40448" lon="6.70107">
        <ele>73.3</ele>
        <time>2022-10-09T09:28:22Z</time>
      </trkpt>
      <trkpt lat="43.40446" lon="6.70107">
        <ele>73.6</ele>
        <time>2022-10-09T09:28:23Z</time>
      </trkpt>
      <trkpt lat="43.40445" lon="6.70106">
        <ele>73.9</ele>
        <time>2022-10-09T09:28:24Z</time>
      </trkpt>
      <trkpt lat="43.40444" lon="6.70104">
        <ele>74.2</ele>
        <time>2022-10-09T09:28:25Z</time>
      </trkpt>
      <trkpt lat="43.40442" lon="6.70103">
        <ele>74.4</ele>
        <time>2022-10-09T09:28:26Z</time>
      </trkpt>
      <trkpt lat="43.40441" lon="6.70102">
        <ele>74.6</ele>
        <time>2022-10-09T09:28:27Z</time>
      </trkpt>
      <trkpt lat="43.4044" lon="6.70101">
        <ele>74.9</ele>
        <time>2022-10-09T09:28:28Z</time>
      </trkpt>
      <trkpt lat="43.40439" lon="6.70099">
        <ele>75.2</ele>
        <time>2022-10-09T09:28:29Z</time>
      </trkpt>
      <trkpt lat="43.40437" lon="6.70098">
        <ele>75.5</ele>
        <time>2022-10-09T09:28:30Z</time>
      </trkpt>
      <trkpt lat="43.40436" lon="6.70097">
        <ele>75.8</ele>
        <time>2022-10-09T09:28:31Z</time>
      </trkpt>
      <trkpt lat="43.40434" lon="6.70096">
        <ele>76</ele>
        <time>2022-10-09T09:28:32Z</time>
      </trkpt>
      <trkpt lat="43.40433" lon="6.70095">
        <ele>76.2</ele>
        <time>2022-10-09T09:28:33Z</time>
      </trkpt>
      <trkpt lat="43.40432" lon="6.70094">
        <ele>76.4</ele>
        <time>2022-10-09T09:28:34Z</time>
      </trkpt>
      <trkpt lat="43.4043" lon="6.70093">
        <ele>76.6</ele>
        <time>2022-10-09T09:28:35Z</time>
      </trkpt>
      <trkpt lat="43.40429" lon="6.70092">
        <ele>76.8</ele>
        <time>2022-10-09T09:28:36Z</time>
      </trkpt>
      <trkpt lat="43.40427" lon="6.70091">
        <ele>77</ele>
        <time>2022-10-09T09:28:37Z</time>
      </trkpt>
      <trkpt lat="43.40426" lon="6.7009">
        <ele>77.2</ele>
        <time>2022-10-09T09:28:38Z</time>
      </trkpt>
      <trkpt lat="43.40424" lon="6.70089">
        <ele>77.4</ele>
        <time>2022-10-09T09:28:39Z</time>
      </trkpt>
      <trkpt lat="43.40423" lon="6.70088">
        <ele>77.5</ele>
        <time>2022-10-09T09:28:40Z</time>
      </trkpt>
      <trkpt lat="43.40421" lon="6.70087">
        <ele>77.7</ele>
        <time>2022-10-09T09:28:41Z</time>
      </trkpt>
      <trkpt lat="43.4042" lon="6.70086">
        <ele>77.8</ele>
        <time>2022-10-09T09:28:42Z</time>
      </trkpt>
      <trkpt lat="43.40418" lon="6.70084">
        <ele>78</ele>
        <time>2022-10-09T09:28:43Z</time>
      </trkpt>
      <trkpt lat="43.40417" lon="6.70083">
        <ele>78.1</ele>
        <time>2022-10-09T09:28:44Z</time>
      </trkpt>
      <trkpt lat="43.40415" lon="6.70082">
        <ele>78.2</ele>
        <time>2022-10-09T09:28:45Z</time>
      </trkpt>
      <trkpt lat="43.40414" lon="6.70081">
        <ele>78.3</ele>
        <time>2022-10-09T09:28:46Z</time>
      </trkpt>
      <trkpt lat="43.40413" lon="6.7008">
        <ele>78.4</ele>
        <time>2022-10-09T09:28:47Z</time>
      </trkpt>
      <trkpt lat="43.40411" lon="6.70079">
        <ele>78.5</ele>
        <time>2022-10-09T09:28:48Z</time>
      </trkpt>
      <trkpt lat="43.4041" lon="6.70078">
        <ele>78.7</ele>
        <time>2022-10-09T09:28:49Z</time>
      </trkpt>
      <trkpt lat="43.40408" lon="6.70077">
        <ele>78.7</ele>
        <time>2022-10-09T09:28:50Z</time>
      </trkpt>
      <trkpt lat="43.40407" lon="6.70077">
        <ele>78.8</ele>
        <time>2022-10-09T09:28:51Z</time>
      </trkpt>
      <trkpt lat="43.40405" lon="6.70076">
        <ele>78.9</ele>
        <time>2022-10-09T09:28:52Z</time>
      </trkpt>
      <trkpt lat="43.40404" lon="6.70075">
        <ele>79</ele>
        <time>2022-10-09T09:28:53Z</time>
      </trkpt>
      <trkpt lat="43.40402" lon="6.70075">
        <ele>79.1</ele>
        <time>2022-10-09T09:28:54Z</time>
      </trkpt>
      <trkpt lat="43.404" lon="6.70074">
        <ele>79.2</ele>
        <time>2022-10-09T09:28:55Z</time>
      </trkpt>
      <trkpt lat="43.40398" lon="6.70073">
        <ele>79.3</ele>
        <time>2022-10-09T09:28:56Z</time>
      </trkpt>
      <trkpt lat="43.40396" lon="6.70072">
        <ele>79.4</ele>
        <time>2022-10-09T09:28:57Z</time>
      </trkpt>
      <trkpt lat="43.40394" lon="6.70072">
        <ele>79.5</ele>
        <time>2022-10-09T09:28:58Z</time>
      </trkpt>
      <trkpt lat="43.40392" lon="6.70071">
        <ele>79.6</ele>
        <time>2022-10-09T09:28:59Z</time>
      </trkpt>
      <trkpt lat="43.4039" lon="6.7007">
        <ele>79.7</ele>
        <time>2022-10-09T09:29:00Z</time>
      </trkpt>
      <trkpt lat="43.40388" lon="6.7007">
        <ele>79.8</ele>
        <time>2022-10-09T09:29:01Z</time>
      </trkpt>
      <trkpt lat="43.40386" lon="6.70069">
        <ele>79.9</ele>
        <time>2022-10-09T09:29:02Z</time>
      </trkpt>
      <trkpt lat="43.40383" lon="6.70067">
        <ele>80</ele>
        <time>2022-10-09T09:29:03Z</time>
      </trkpt>
      <trkpt lat="43.40381" lon="6.70066">
        <ele>80.1</ele>
        <time>2022-10-09T09:29:04Z</time>
      </trkpt>
      <trkpt lat="43.40379" lon="6.70065">
        <ele>80.2</ele>
        <time>2022-10-09T09:29:05Z</time>
      </trkpt>
      <trkpt lat="43.40377" lon="6.70064">
        <ele>80.3</ele>
        <time>2022-10-09T09:29:06Z</time>
      </trkpt>
      <trkpt lat="43.40375" lon="6.70063">
        <ele>80.4</ele>
        <time>2022-10-09T09:29:07Z</time>
      </trkpt>
      <trkpt lat="43.40372" lon="6.70063">
        <ele>80.4</ele>
        <time>2022-10-09T09:29:08Z</time>
      </trkpt>
      <trkpt lat="43.4037" lon="6.70062">
        <ele>80.5</ele>
        <time>2022-10-09T09:29:09Z</time>
      </trkpt>
      <trkpt lat="43.40368" lon="6.70061">
        <ele>80.6</ele>
        <time>2022-10-09T09:29:10Z</time>
      </trkpt>
      <trkpt lat="43.40365" lon="6.7006">
        <ele>80.7</ele>
        <time>2022-10-09T09:29:11Z</time>
      </trkpt>
      <trkpt lat="43.40363" lon="6.70058">
        <ele>80.7</ele>
        <time>2022-10-09T09:29:12Z</time>
      </trkpt>
      <trkpt lat="43.40359" lon="6.70056">
        <ele>80.9</ele>
        <time>2022-10-09T09:29:14Z</time>
      </trkpt>
      <trkpt lat="43.40344" lon="6.70047">
        <ele>81.3</ele>
        <time>2022-10-09T09:29:20Z</time>
      </trkpt>
      <trkpt lat="43.40341" lon="6.70046">
        <ele>81.3</ele>
        <time>2022-10-09T09:29:21Z</time>
      </trkpt>
      <trkpt lat="43.40337" lon="6.70042">
        <ele>81.4</ele>
        <time>2022-10-09T09:29:23Z</time>
      </trkpt>
      <trkpt lat="43.40335" lon="6.70041">
        <ele>81.5</ele>
        <time>2022-10-09T09:29:24Z</time>
      </trkpt>
      <trkpt lat="43.40322" lon="6.70031">
        <ele>81.6</ele>
        <time>2022-10-09T09:29:29Z</time>
      </trkpt>
      <trkpt lat="43.40304" lon="6.70017">
        <ele>81.4</ele>
        <time>2022-10-09T09:29:35Z</time>
      </trkpt>
      <trkpt lat="43.40283" lon="6.6999">
        <ele>80.7</ele>
        <time>2022-10-09T09:29:41Z</time>
      </trkpt>
      <trkpt lat="43.40279" lon="6.69985">
        <ele>80.5</ele>
        <time>2022-10-09T09:29:42Z</time>
      </trkpt>
      <trkpt lat="43.40271" lon="6.69975">
        <ele>80.2</ele>
        <time>2022-10-09T09:29:44Z</time>
      </trkpt>
      <trkpt lat="43.40262" lon="6.69966">
        <ele>79.7</ele>
        <time>2022-10-09T09:29:46Z</time>
      </trkpt>
      <trkpt lat="43.40252" lon="6.69959">
        <ele>79.1</ele>
        <time>2022-10-09T09:29:48Z</time>
      </trkpt>
      <trkpt lat="43.40236" lon="6.69948">
        <ele>77.6</ele>
        <time>2022-10-09T09:29:51Z</time>
      </trkpt>
      <trkpt lat="43.40231" lon="6.69945">
        <ele>77</ele>
        <time>2022-10-09T09:29:52Z</time>
      </trkpt>
      <trkpt lat="43.40226" lon="6.69944">
        <ele>76.4</ele>
        <time>2022-10-09T09:29:53Z</time>
      </trkpt>
      <trkpt lat="43.40221" lon="6.69944">
        <ele>75.7</ele>
        <time>2022-10-09T09:29:54Z</time>
      </trkpt>
      <trkpt lat="43.40217" lon="6.69946">
        <ele>75</ele>
        <time>2022-10-09T09:29:55Z</time>
      </trkpt>
      <trkpt lat="43.40211" lon="6.69949">
        <ele>74</ele>
        <time>2022-10-09T09:29:56Z</time>
      </trkpt>
      <trkpt lat="43.40205" lon="6.69955">
        <ele>72.7</ele>
        <time>2022-10-09T09:29:57Z</time>
      </trkpt>
      <trkpt lat="43.40198" lon="6.69961">
        <ele>71.3</ele>
        <time>2022-10-09T09:29:58Z</time>
      </trkpt>
      <trkpt lat="43.4019" lon="6.69968">
        <ele>69.9</ele>
        <time>2022-10-09T09:29:59Z</time>
      </trkpt>
      <trkpt lat="43.40182" lon="6.69975">
        <ele>68.6</ele>
        <time>2022-10-09T09:30:00Z</time>
      </trkpt>
      <trkpt lat="43.40167" lon="6.69993">
        <ele>66.1</ele>
        <time>2022-10-09T09:30:02Z</time>
      </trkpt>
      <trkpt lat="43.40158" lon="6.70003">
        <ele>65</ele>
        <time>2022-10-09T09:30:03Z</time>
      </trkpt>
      <trkpt lat="43.4015" lon="6.70013">
        <ele>64</ele>
        <time>2022-10-09T09:30:04Z</time>
      </trkpt>
      <trkpt lat="43.40142" lon="6.70022">
        <ele>63.2</ele>
        <time>2022-10-09T09:30:05Z</time>
      </trkpt>
      <trkpt lat="43.40134" lon="6.70031">
        <ele>63.1</ele>
        <time>2022-10-09T09:30:06Z</time>
      </trkpt>
      <trkpt lat="43.40127" lon="6.7004">
        <ele>63.3</ele>
        <time>2022-10-09T09:30:07Z</time>
      </trkpt>
      <trkpt lat="43.40121" lon="6.70048">
        <ele>63.6</ele>
        <time>2022-10-09T09:30:08Z</time>
      </trkpt>
      <trkpt lat="43.40116" lon="6.70055">
        <ele>64.1</ele>
        <time>2022-10-09T09:30:09Z</time>
      </trkpt>
      <trkpt lat="43.40111" lon="6.70062">
        <ele>64.6</ele>
        <time>2022-10-09T09:30:10Z</time>
      </trkpt>
      <trkpt lat="43.40107" lon="6.70068">
        <ele>65.1</ele>
        <time>2022-10-09T09:30:11Z</time>
      </trkpt>
      <trkpt lat="43.40104" lon="6.70073">
        <ele>65.6</ele>
        <time>2022-10-09T09:30:12Z</time>
      </trkpt>
      <trkpt lat="43.40102" lon="6.70078">
        <ele>66</ele>
        <time>2022-10-09T09:30:13Z</time>
      </trkpt>
      <trkpt lat="43.401" lon="6.70083">
        <ele>66.4</ele>
        <time>2022-10-09T09:30:14Z</time>
      </trkpt>
      <trkpt lat="43.40097" lon="6.70086">
        <ele>66.8</ele>
        <time>2022-10-09T09:30:15Z</time>
      </trkpt>
      <trkpt lat="43.40095" lon="6.70089">
        <ele>67.1</ele>
        <time>2022-10-09T09:30:16Z</time>
      </trkpt>
      <trkpt lat="43.40093" lon="6.70092">
        <ele>67.5</ele>
        <time>2022-10-09T09:30:17Z</time>
      </trkpt>
      <trkpt lat="43.40092" lon="6.70095">
        <ele>67.8</ele>
        <time>2022-10-09T09:30:18Z</time>
      </trkpt>
      <trkpt lat="43.40091" lon="6.70098">
        <ele>68.1</ele>
        <time>2022-10-09T09:30:19Z</time>
      </trkpt>
      <trkpt lat="43.40089" lon="6.701">
        <ele>68.5</ele>
        <time>2022-10-09T09:30:20Z</time>
      </trkpt>
      <trkpt lat="43.40088" lon="6.70103">
        <ele>68.8</ele>
        <time>2022-10-09T09:30:21Z</time>
      </trkpt>
      <trkpt lat="43.40087" lon="6.70105">
        <ele>69.1</ele>
        <time>2022-10-09T09:30:22Z</time>
      </trkpt>
      <trkpt lat="43.40086" lon="6.70107">
        <ele>69.4</ele>
        <time>2022-10-09T09:30:23Z</time>
      </trkpt>
      <trkpt lat="43.40085" lon="6.70109">
        <ele>69.7</ele>
        <time>2022-10-09T09:30:24Z</time>
      </trkpt>
      <trkpt lat="43.40084" lon="6.70111">
        <ele>70</ele>
        <time>2022-10-09T09:30:25Z</time>
      </trkpt>
      <trkpt lat="43.40083" lon="6.70113">
        <ele>70.3</ele>
        <time>2022-10-09T09:30:26Z</time>
      </trkpt>
      <trkpt lat="43.40082" lon="6.70115">
        <ele>70.6</ele>
        <time>2022-10-09T09:30:27Z</time>
      </trkpt>
      <trkpt lat="43.40081" lon="6.70116">
        <ele>70.9</ele>
        <time>2022-10-09T09:30:28Z</time>
      </trkpt>
      <trkpt lat="43.40081" lon="6.70117">
        <ele>71.2</ele>
        <time>2022-10-09T09:30:29Z</time>
      </trkpt>
      <trkpt lat="43.4008" lon="6.70119">
        <ele>71.4</ele>
        <time>2022-10-09T09:30:31Z</time>
      </trkpt>
      <trkpt lat="43.4008" lon="6.70119">
        <ele>71.5</ele>
        <time>2022-10-09T09:30:32Z</time>
      </trkpt>
      <trkpt lat="43.4008" lon="6.70121">
        <ele>71.7</ele>
        <time>2022-10-09T09:30:33Z</time>
      </trkpt>
      <trkpt lat="43.40079" lon="6.70122">
        <ele>71.9</ele>
        <time>2022-10-09T09:30:34Z</time>
      </trkpt>
      <trkpt lat="43.40079" lon="6.70123">
        <ele>72.1</ele>
        <time>2022-10-09T09:30:35Z</time>
      </trkpt>
      <trkpt lat="43.40078" lon="6.70124">
        <ele>72.3</ele>
        <time>2022-10-09T09:30:36Z</time>
      </trkpt>
      <trkpt lat="43.40077" lon="6.70124">
        <ele>72.5</ele>
        <time>2022-10-09T09:30:37Z</time>
      </trkpt>
      <trkpt lat="43.40076" lon="6.70125">
        <ele>72.7</ele>
        <time>2022-10-09T09:30:38Z</time>
      </trkpt>
      <trkpt lat="43.40076" lon="6.70126">
        <ele>72.9</ele>
        <time>2022-10-09T09:30:39Z</time>
      </trkpt>
      <trkpt lat="43.40075" lon="6.70127">
        <ele>73.2</ele>
        <time>2022-10-09T09:30:40Z</time>
      </trkpt>
      <trkpt lat="43.40074" lon="6.70127">
        <ele>73.4</ele>
        <time>2022-10-09T09:30:41Z</time>
      </trkpt>
      <trkpt lat="43.40073" lon="6.70128">
        <ele>73.6</ele>
        <time>2022-10-09T09:30:42Z</time>
      </trkpt>
      <trkpt lat="43.40072" lon="6.70129">
        <ele>73.8</ele>
        <time>2022-10-09T09:30:43Z</time>
      </trkpt>
      <trkpt lat="43.40071" lon="6.7013">
        <ele>74</ele>
        <time>2022-10-09T09:30:44Z</time>
      </trkpt>
      <trkpt lat="43.4007" lon="6.7013">
        <ele>74.2</ele>
        <time>2022-10-09T09:30:45Z</time>
      </trkpt>
      <trkpt lat="43.4007" lon="6.7013">
        <ele>74.4</ele>
        <time>2022-10-09T09:30:46Z</time>
      </trkpt>
      <trkpt lat="43.40069" lon="6.70131">
        <ele>74.5</ele>
        <time>2022-10-09T09:30:47Z</time>
      </trkpt>
      <trkpt lat="43.40068" lon="6.70131">
        <ele>74.7</ele>
        <time>2022-10-09T09:30:48Z</time>
      </trkpt>
      <trkpt lat="43.40067" lon="6.70131">
        <ele>74.9</ele>
        <time>2022-10-09T09:30:49Z</time>
      </trkpt>
      <trkpt lat="43.40066" lon="6.70131">
        <ele>75.1</ele>
        <time>2022-10-09T09:30:50Z</time>
      </trkpt>
      <trkpt lat="43.40065" lon="6.70131">
        <ele>75.4</ele>
        <time>2022-10-09T09:30:51Z</time>
      </trkpt>
      <trkpt lat="43.40064" lon="6.70131">
        <ele>75.5</ele>
        <time>2022-10-09T09:30:52Z</time>
      </trkpt>
      <trkpt lat="43.40063" lon="6.70131">
        <ele>75.7</ele>
        <time>2022-10-09T09:30:53Z</time>
      </trkpt>
      <trkpt lat="43.40061" lon="6.70131">
        <ele>76</ele>
        <time>2022-10-09T09:30:54Z</time>
      </trkpt>
      <trkpt lat="43.4006" lon="6.7013">
        <ele>76.2</ele>
        <time>2022-10-09T09:30:55Z</time>
      </trkpt>
      <trkpt lat="43.40058" lon="6.7013">
        <ele>76.4</ele>
        <time>2022-10-09T09:30:56Z</time>
      </trkpt>
      <trkpt lat="43.40057" lon="6.7013">
        <ele>76.7</ele>
        <time>2022-10-09T09:30:57Z</time>
      </trkpt>
      <trkpt lat="43.40056" lon="6.70129">
        <ele>76.9</ele>
        <time>2022-10-09T09:30:58Z</time>
      </trkpt>
      <trkpt lat="43.40054" lon="6.70128">
        <ele>77.1</ele>
        <time>2022-10-09T09:30:59Z</time>
      </trkpt>
      <trkpt lat="43.40053" lon="6.70127">
        <ele>77.3</ele>
        <time>2022-10-09T09:31:00Z</time>
      </trkpt>
      <trkpt lat="43.40052" lon="6.70127">
        <ele>77.4</ele>
        <time>2022-10-09T09:31:01Z</time>
      </trkpt>
      <trkpt lat="43.40051" lon="6.70126">
        <ele>77.6</ele>
        <time>2022-10-09T09:31:02Z</time>
      </trkpt>
      <trkpt lat="43.40049" lon="6.70126">
        <ele>77.8</ele>
        <time>2022-10-09T09:31:03Z</time>
      </trkpt>
      <trkpt lat="43.40048" lon="6.70125">
        <ele>78</ele>
        <time>2022-10-09T09:31:04Z</time>
      </trkpt>
      <trkpt lat="43.40047" lon="6.70125">
        <ele>78.1</ele>
        <time>2022-10-09T09:31:05Z</time>
      </trkpt>
      <trkpt lat="43.40046" lon="6.70124">
        <ele>78.3</ele>
        <time>2022-10-09T09:31:06Z</time>
      </trkpt>
      <trkpt lat="43.40045" lon="6.70123">
        <ele>78.5</ele>
        <time>2022-10-09T09:31:07Z</time>
      </trkpt>
      <trkpt lat="43.40044" lon="6.70122">
        <ele>78.7</ele>
        <time>2022-10-09T09:31:08Z</time>
      </trkpt>
      <trkpt lat="43.40043" lon="6.70122">
        <ele>78.8</ele>
        <time>2022-10-09T09:31:09Z</time>
      </trkpt>
      <trkpt lat="43.40042" lon="6.70121">
        <ele>79</ele>
        <time>2022-10-09T09:31:10Z</time>
      </trkpt>
      <trkpt lat="43.40041" lon="6.7012">
        <ele>79.2</ele>
        <time>2022-10-09T09:31:11Z</time>
      </trkpt>
      <trkpt lat="43.4004" lon="6.7012">
        <ele>79.3</ele>
        <time>2022-10-09T09:31:12Z</time>
      </trkpt>
      <trkpt lat="43.40039" lon="6.70119">
        <ele>79.5</ele>
        <time>2022-10-09T09:31:13Z</time>
      </trkpt>
      <trkpt lat="43.40037" lon="6.70119">
        <ele>79.7</ele>
        <time>2022-10-09T09:31:14Z</time>
      </trkpt>
      <trkpt lat="43.40036" lon="6.70118">
        <ele>79.8</ele>
        <time>2022-10-09T09:31:15Z</time>
      </trkpt>
      <trkpt lat="43.40035" lon="6.70117">
        <ele>80</ele>
        <time>2022-10-09T09:31:16Z</time>
      </trkpt>
      <trkpt lat="43.40034" lon="6.70117">
        <ele>80.2</ele>
        <time>2022-10-09T09:31:17Z</time>
      </trkpt>
      <trkpt lat="43.40033" lon="6.70116">
        <ele>80.3</ele>
        <time>2022-10-09T09:31:18Z</time>
      </trkpt>
      <trkpt lat="43.40032" lon="6.70116">
        <ele>80.5</ele>
        <time>2022-10-09T09:31:19Z</time>
      </trkpt>
      <trkpt lat="43.40031" lon="6.70115">
        <ele>80.7</ele>
        <time>2022-10-09T09:31:20Z</time>
      </trkpt>
      <trkpt lat="43.4003" lon="6.70114">
        <ele>80.8</ele>
        <time>2022-10-09T09:31:21Z</time>
      </trkpt>
      <trkpt lat="43.40029" lon="6.70113">
        <ele>81</ele>
        <time>2022-10-09T09:31:22Z</time>
      </trkpt>
      <trkpt lat="43.40028" lon="6.70113">
        <ele>81.2</ele>
        <time>2022-10-09T09:31:23Z</time>
      </trkpt>
      <trkpt lat="43.40027" lon="6.70112">
        <ele>81.3</ele>
        <time>2022-10-09T09:31:24Z</time>
      </trkpt>
      <trkpt lat="43.40026" lon="6.70111">
        <ele>81.5</ele>
        <time>2022-10-09T09:31:25Z</time>
      </trkpt>
      <trkpt lat="43.40025" lon="6.70111">
        <ele>81.7</ele>
        <time>2022-10-09T09:31:26Z</time>
      </trkpt>
      <trkpt lat="43.40024" lon="6.7011">
        <ele>81.8</ele>
        <time>2022-10-09T09:31:27Z</time>
      </trkpt>
      <trkpt lat="43.40023" lon="6.7011">
        <ele>82</ele>
        <time>2022-10-09T09:31:28Z</time>
      </trkpt>
      <trkpt lat="43.40022" lon="6.70109">
        <ele>82.1</ele>
        <time>2022-10-09T09:31:29Z</time>
      </trkpt>
      <trkpt lat="43.40021" lon="6.70108">
        <ele>82.3</ele>
        <time>2022-10-09T09:31:30Z</time>
      </trkpt>
      <trkpt lat="43.4002" lon="6.70108">
        <ele>82.5</ele>
        <time>2022-10-09T09:31:31Z</time>
      </trkpt>
      <trkpt lat="43.40018" lon="6.70107">
        <ele>82.6</ele>
        <time>2022-10-09T09:31:32Z</time>
      </trkpt>
      <trkpt lat="43.40017" lon="6.70107">
        <ele>82.8</ele>
        <time>2022-10-09T09:31:33Z</time>
      </trkpt>
      <trkpt lat="43.40016" lon="6.70106">
        <ele>82.9</ele>
        <time>2022-10-09T09:31:34Z</time>
      </trkpt>
      <trkpt lat="43.40015" lon="6.70106">
        <ele>83.1</ele>
        <time>2022-10-09T09:31:35Z</time>
      </trkpt>
      <trkpt lat="43.40014" lon="6.70106">
        <ele>83.3</ele>
        <time>2022-10-09T09:31:36Z</time>
      </trkpt>
      <trkpt lat="43.40013" lon="6.70105">
        <ele>83.4</ele>
        <time>2022-10-09T09:31:37Z</time>
      </trkpt>
      <trkpt lat="43.40012" lon="6.70105">
        <ele>83.6</ele>
        <time>2022-10-09T09:31:38Z</time>
      </trkpt>
      <trkpt lat="43.40011" lon="6.70105">
        <ele>83.7</ele>
        <time>2022-10-09T09:31:39Z</time>
      </trkpt>
      <trkpt lat="43.4001" lon="6.70105">
        <ele>83.9</ele>
        <time>2022-10-09T09:31:40Z</time>
      </trkpt>
      <trkpt lat="43.40009" lon="6.70105">
        <ele>84.1</ele>
        <time>2022-10-09T09:31:41Z</time>
      </trkpt>
      <trkpt lat="43.40007" lon="6.70105">
        <ele>84.2</ele>
        <time>2022-10-09T09:31:42Z</time>
      </trkpt>
      <trkpt lat="43.40006" lon="6.70105">
        <ele>84.4</ele>
        <time>2022-10-09T09:31:43Z</time>
      </trkpt>
      <trkpt lat="43.40005" lon="6.70105">
        <ele>84.5</ele>
        <time>2022-10-09T09:31:44Z</time>
      </trkpt>
      <trkpt lat="43.40004" lon="6.70105">
        <ele>84.7</ele>
        <time>2022-10-09T09:31:45Z</time>
      </trkpt>
      <trkpt lat="43.40003" lon="6.70106">
        <ele>84.9</ele>
        <time>2022-10-09T09:31:46Z</time>
      </trkpt>
      <trkpt lat="43.40002" lon="6.70106">
        <ele>85</ele>
        <time>2022-10-09T09:31:47Z</time>
      </trkpt>
      <trkpt lat="43.40001" lon="6.70106">
        <ele>85.1</ele>
        <time>2022-10-09T09:31:48Z</time>
      </trkpt>
      <trkpt lat="43.4" lon="6.70106">
        <ele>85.3</ele>
        <time>2022-10-09T09:31:49Z</time>
      </trkpt>
      <trkpt lat="43.39999" lon="6.70106">
        <ele>85.5</ele>
        <time>2022-10-09T09:31:50Z</time>
      </trkpt>
      <trkpt lat="43.39998" lon="6.70107">
        <ele>85.6</ele>
        <time>2022-10-09T09:31:51Z</time>
      </trkpt>
      <trkpt lat="43.39997" lon="6.70107">
        <ele>85.8</ele>
        <time>2022-10-09T09:31:52Z</time>
      </trkpt>
      <trkpt lat="43.39996" lon="6.70107">
        <ele>85.9</ele>
        <time>2022-10-09T09:31:53Z</time>
      </trkpt>
      <trkpt lat="43.39995" lon="6.70108">
        <ele>86.1</ele>
        <time>2022-10-09T09:31:54Z</time>
      </trkpt>
      <trkpt lat="43.39994" lon="6.70108">
        <ele>86.2</ele>
        <time>2022-10-09T09:31:55Z</time>
      </trkpt>
      <trkpt lat="43.39993" lon="6.70108">
        <ele>86.4</ele>
        <time>2022-10-09T09:31:56Z</time>
      </trkpt>
      <trkpt lat="43.39992" lon="6.70109">
        <ele>86.6</ele>
        <time>2022-10-09T09:31:57Z</time>
      </trkpt>
      <trkpt lat="43.39991" lon="6.7011">
        <ele>86.7</ele>
        <time>2022-10-09T09:31:58Z</time>
      </trkpt>
      <trkpt lat="43.3999" lon="6.7011">
        <ele>86.9</ele>
        <time>2022-10-09T09:31:59Z</time>
      </trkpt>
      <trkpt lat="43.39989" lon="6.7011">
        <ele>87</ele>
        <time>2022-10-09T09:32:00Z</time>
      </trkpt>
      <trkpt lat="43.39988" lon="6.70111">
        <ele>87.2</ele>
        <time>2022-10-09T09:32:01Z</time>
      </trkpt>
      <trkpt lat="43.39987" lon="6.70111">
        <ele>87.3</ele>
        <time>2022-10-09T09:32:02Z</time>
      </trkpt>
      <trkpt lat="43.39986" lon="6.70111">
        <ele>87.4</ele>
        <time>2022-10-09T09:32:03Z</time>
      </trkpt>
      <trkpt lat="43.39985" lon="6.70112">
        <ele>87.6</ele>
        <time>2022-10-09T09:32:04Z</time>
      </trkpt>
      <trkpt lat="43.39983" lon="6.70112">
        <ele>87.7</ele>
        <time>2022-10-09T09:32:05Z</time>
      </trkpt>
      <trkpt lat="43.39982" lon="6.70113">
        <ele>87.8</ele>
        <time>2022-10-09T09:32:06Z</time>
      </trkpt>
      <trkpt lat="43.39981" lon="6.70113">
        <ele>88</ele>
        <time>2022-10-09T09:32:07Z</time>
      </trkpt>
      <trkpt lat="43.3998" lon="6.70114">
        <ele>88.1</ele>
        <time>2022-10-09T09:32:08Z</time>
      </trkpt>
      <trkpt lat="43.39979" lon="6.70115">
        <ele>88.2</ele>
        <time>2022-10-09T09:32:09Z</time>
      </trkpt>
      <trkpt lat="43.39977" lon="6.70115">
        <ele>88.4</ele>
        <time>2022-10-09T09:32:10Z</time>
      </trkpt>
      <trkpt lat="43.39976" lon="6.70116">
        <ele>88.5</ele>
        <time>2022-10-09T09:32:11Z</time>
      </trkpt>
      <trkpt lat="43.39975" lon="6.70116">
        <ele>88.7</ele>
        <time>2022-10-09T09:32:12Z</time>
      </trkpt>
      <trkpt lat="43.39973" lon="6.70117">
        <ele>88.8</ele>
        <time>2022-10-09T09:32:13Z</time>
      </trkpt>
      <trkpt lat="43.39972" lon="6.70117">
        <ele>89</ele>
        <time>2022-10-09T09:32:14Z</time>
      </trkpt>
      <trkpt lat="43.39971" lon="6.70117">
        <ele>89.1</ele>
        <time>2022-10-09T09:32:15Z</time>
      </trkpt>
      <trkpt lat="43.3997" lon="6.70117">
        <ele>89.2</ele>
        <time>2022-10-09T09:32:16Z</time>
      </trkpt>
      <trkpt lat="43.39969" lon="6.70118">
        <ele>89.4</ele>
        <time>2022-10-09T09:32:17Z</time>
      </trkpt>
      <trkpt lat="43.39968" lon="6.70118">
        <ele>89.5</ele>
        <time>2022-10-09T09:32:18Z</time>
      </trkpt>
      <trkpt lat="43.39967" lon="6.70118">
        <ele>89.6</ele>
        <time>2022-10-09T09:32:19Z</time>
      </trkpt>
      <trkpt lat="43.39966" lon="6.70119">
        <ele>89.8</ele>
        <time>2022-10-09T09:32:20Z</time>
      </trkpt>
      <trkpt lat="43.39965" lon="6.70119">
        <ele>89.9</ele>
        <time>2022-10-09T09:32:21Z</time>
      </trkpt>
      <trkpt lat="43.39964" lon="6.70119">
        <ele>90.1</ele>
        <time>2022-10-09T09:32:22Z</time>
      </trkpt>
      <trkpt lat="43.39963" lon="6.7012">
        <ele>90.2</ele>
        <time>2022-10-09T09:32:23Z</time>
      </trkpt>
      <trkpt lat="43.39962" lon="6.7012">
        <ele>90.4</ele>
        <time>2022-10-09T09:32:24Z</time>
      </trkpt>
      <trkpt lat="43.39961" lon="6.70121">
        <ele>90.5</ele>
        <time>2022-10-09T09:32:25Z</time>
      </trkpt>
      <trkpt lat="43.3996" lon="6.70121">
        <ele>90.7</ele>
        <time>2022-10-09T09:32:26Z</time>
      </trkpt>
      <trkpt lat="43.39959" lon="6.70121">
        <ele>90.9</ele>
        <time>2022-10-09T09:32:27Z</time>
      </trkpt>
      <trkpt lat="43.39958" lon="6.70122">
        <ele>91.1</ele>
        <time>2022-10-09T09:32:28Z</time>
      </trkpt>
      <trkpt lat="43.39957" lon="6.70122">
        <ele>91.2</ele>
        <time>2022-10-09T09:32:29Z</time>
      </trkpt>
      <trkpt lat="43.39956" lon="6.70122">
        <ele>91.4</ele>
        <time>2022-10-09T09:32:30Z</time>
      </trkpt>
      <trkpt lat="43.39955" lon="6.70123">
        <ele>91.6</ele>
        <time>2022-10-09T09:32:31Z</time>
      </trkpt>
      <trkpt lat="43.39954" lon="6.70123">
        <ele>91.8</ele>
        <time>2022-10-09T09:32:32Z</time>
      </trkpt>
      <trkpt lat="43.39953" lon="6.70123">
        <ele>91.9</ele>
        <time>2022-10-09T09:32:33Z</time>
      </trkpt>
      <trkpt lat="43.39952" lon="6.70124">
        <ele>92.1</ele>
        <time>2022-10-09T09:32:34Z</time>
      </trkpt>
      <trkpt lat="43.39952" lon="6.70124">
        <ele>92.3</ele>
        <time>2022-10-09T09:32:35Z</time>
      </trkpt>
      <trkpt lat="43.39951" lon="6.70124">
        <ele>92.5</ele>
        <time>2022-10-09T09:32:36Z</time>
      </trkpt>
      <trkpt lat="43.3995" lon="6.70125">
        <ele>92.7</ele>
        <time>2022-10-09T09:32:37Z</time>
      </trkpt>
      <trkpt lat="43.39949" lon="6.70125">
        <ele>92.9</ele>
        <time>2022-10-09T09:32:38Z</time>
      </trkpt>
      <trkpt lat="43.39948" lon="6.70126">
        <ele>93</ele>
        <time>2022-10-09T09:32:39Z</time>
      </trkpt>
      <trkpt lat="43.39947" lon="6.70126">
        <ele>93.2</ele>
        <time>2022-10-09T09:32:40Z</time>
      </trkpt>
      <trkpt lat="43.39947" lon="6.70126">
        <ele>93.3</ele>
        <time>2022-10-09T09:32:41Z</time>
      </trkpt>
      <trkpt lat="43.39946" lon="6.70126">
        <ele>93.5</ele>
        <time>2022-10-09T09:32:42Z</time>
      </trkpt>
      <trkpt lat="43.39945" lon="6.70126">
        <ele>93.7</ele>
        <time>2022-10-09T09:32:43Z</time>
      </trkpt>
      <trkpt lat="43.39944" lon="6.70127">
        <ele>93.9</ele>
        <time>2022-10-09T09:32:44Z</time>
      </trkpt>
      <trkpt lat="43.39944" lon="6.70127">
        <ele>94.1</ele>
        <time>2022-10-09T09:32:45Z</time>
      </trkpt>
      <trkpt lat="43.39943" lon="6.70127">
        <ele>94.2</ele>
        <time>2022-10-09T09:32:46Z</time>
      </trkpt>
      <trkpt lat="43.39942" lon="6.70128">
        <ele>94.4</ele>
        <time>2022-10-09T09:32:47Z</time>
      </trkpt>
      <trkpt lat="43.39941" lon="6.70128">
        <ele>94.6</ele>
        <time>2022-10-09T09:32:48Z</time>
      </trkpt>
      <trkpt lat="43.39941" lon="6.70128">
        <ele>94.8</ele>
        <time>2022-10-09T09:32:49Z</time>
      </trkpt>
      <trkpt lat="43.3994" lon="6.70129">
        <ele>94.9</ele>
        <time>2022-10-09T09:32:50Z</time>
      </trkpt>
      <trkpt lat="43.39939" lon="6.70129">
        <ele>95.1</ele>
        <time>2022-10-09T09:32:51Z</time>
      </trkpt>
      <trkpt lat="43.39938" lon="6.70129">
        <ele>95.3</ele>
        <time>2022-10-09T09:32:52Z</time>
      </trkpt>
      <trkpt lat="43.39937" lon="6.70129">
        <ele>95.5</ele>
        <time>2022-10-09T09:32:53Z</time>
      </trkpt>
      <trkpt lat="43.39936" lon="6.70129">
        <ele>95.7</ele>
        <time>2022-10-09T09:32:54Z</time>
      </trkpt>
      <trkpt lat="43.39936" lon="6.7013">
        <ele>95.9</ele>
        <time>2022-10-09T09:32:55Z</time>
      </trkpt>
      <trkpt lat="43.39935" lon="6.7013">
        <ele>96</ele>
        <time>2022-10-09T09:32:56Z</time>
      </trkpt>
      <trkpt lat="43.39934" lon="6.7013">
        <ele>96.2</ele>
        <time>2022-10-09T09:32:57Z</time>
      </trkpt>
      <trkpt lat="43.39933" lon="6.7013">
        <ele>96.4</ele>
        <time>2022-10-09T09:32:58Z</time>
      </trkpt>
      <trkpt lat="43.39932" lon="6.7013">
        <ele>96.5</ele>
        <time>2022-10-09T09:32:59Z</time>
      </trkpt>
      <trkpt lat="43.39932" lon="6.7013">
        <ele>96.7</ele>
        <time>2022-10-09T09:33:00Z</time>
      </trkpt>
      <trkpt lat="43.39931" lon="6.7013">
        <ele>96.8</ele>
        <time>2022-10-09T09:33:01Z</time>
      </trkpt>
      <trkpt lat="43.3993" lon="6.7013">
        <ele>97</ele>
        <time>2022-10-09T09:33:02Z</time>
      </trkpt>
      <trkpt lat="43.39929" lon="6.7013">
        <ele>97.2</ele>
        <time>2022-10-09T09:33:03Z</time>
      </trkpt>
      <trkpt lat="43.39928" lon="6.7013">
        <ele>97.3</ele>
        <time>2022-10-09T09:33:04Z</time>
      </trkpt>
      <trkpt lat="43.39927" lon="6.7013">
        <ele>97.5</ele>
        <time>2022-10-09T09:33:05Z</time>
      </trkpt>
      <trkpt lat="43.39926" lon="6.70129">
        <ele>97.7</ele>
        <time>2022-10-09T09:33:06Z</time>
      </trkpt>
      <trkpt lat="43.39925" lon="6.70129">
        <ele>97.8</ele>
        <time>2022-10-09T09:33:07Z</time>
      </trkpt>
      <trkpt lat="43.39924" lon="6.7013">
        <ele>98.1</ele>
        <time>2022-10-09T09:33:08Z</time>
      </trkpt>
      <trkpt lat="43.39922" lon="6.7013">
        <ele>98.3</ele>
        <time>2022-10-09T09:33:09Z</time>
      </trkpt>
      <trkpt lat="43.39921" lon="6.7013">
        <ele>98.5</ele>
        <time>2022-10-09T09:33:10Z</time>
      </trkpt>
      <trkpt lat="43.3992" lon="6.7013">
        <ele>98.6</ele>
        <time>2022-10-09T09:33:11Z</time>
      </trkpt>
      <trkpt lat="43.39919" lon="6.7013">
        <ele>98.8</ele>
        <time>2022-10-09T09:33:12Z</time>
      </trkpt>
      <trkpt lat="43.39918" lon="6.7013">
        <ele>99</ele>
        <time>2022-10-09T09:33:13Z</time>
      </trkpt>
      <trkpt lat="43.39917" lon="6.7013">
        <ele>99.1</ele>
        <time>2022-10-09T09:33:14Z</time>
      </trkpt>
      <trkpt lat="43.39916" lon="6.7013">
        <ele>99.2</ele>
        <time>2022-10-09T09:33:15Z</time>
      </trkpt>
      <trkpt lat="43.39915" lon="6.7013">
        <ele>99.3</ele>
        <time>2022-10-09T09:33:16Z</time>
      </trkpt>
      <trkpt lat="43.39914" lon="6.7013">
        <ele>99.5</ele>
        <time>2022-10-09T09:33:17Z</time>
      </trkpt>
      <trkpt lat="43.39913" lon="6.70131">
        <ele>99.6</ele>
        <time>2022-10-09T09:33:18Z</time>
      </trkpt>
      <trkpt lat="43.39913" lon="6.70131">
        <ele>99.7</ele>
        <time>2022-10-09T09:33:19Z</time>
      </trkpt>
      <trkpt lat="43.39912" lon="6.70131">
        <ele>99.9</ele>
        <time>2022-10-09T09:33:20Z</time>
      </trkpt>
      <trkpt lat="43.39911" lon="6.70132">
        <ele>100</ele>
        <time>2022-10-09T09:33:21Z</time>
      </trkpt>
      <trkpt lat="43.3991" lon="6.70132">
        <ele>100.1</ele>
        <time>2022-10-09T09:33:22Z</time>
      </trkpt>
      <trkpt lat="43.39909" lon="6.70133">
        <ele>100.3</ele>
        <time>2022-10-09T09:33:23Z</time>
      </trkpt>
      <trkpt lat="43.39908" lon="6.70133">
        <ele>100.4</ele>
        <time>2022-10-09T09:33:24Z</time>
      </trkpt>
      <trkpt lat="43.39907" lon="6.70134">
        <ele>100.6</ele>
        <time>2022-10-09T09:33:25Z</time>
      </trkpt>
      <trkpt lat="43.39906" lon="6.70134">
        <ele>100.7</ele>
        <time>2022-10-09T09:33:26Z</time>
      </trkpt>
      <trkpt lat="43.39905" lon="6.70135">
        <ele>100.9</ele>
        <time>2022-10-09T09:33:27Z</time>
      </trkpt>
      <trkpt lat="43.39904" lon="6.70135">
        <ele>101</ele>
        <time>2022-10-09T09:33:28Z</time>
      </trkpt>
      <trkpt lat="43.39903" lon="6.70136">
        <ele>101.2</ele>
        <time>2022-10-09T09:33:29Z</time>
      </trkpt>
      <trkpt lat="43.39902" lon="6.70136">
        <ele>101.3</ele>
        <time>2022-10-09T09:33:30Z</time>
      </trkpt>
      <trkpt lat="43.39901" lon="6.70137">
        <ele>101.5</ele>
        <time>2022-10-09T09:33:31Z</time>
      </trkpt>
      <trkpt lat="43.399" lon="6.70137">
        <ele>101.6</ele>
        <time>2022-10-09T09:33:32Z</time>
      </trkpt>
      <trkpt lat="43.399" lon="6.70137">
        <ele>101.7</ele>
        <time>2022-10-09T09:33:34Z</time>
      </trkpt>
      <trkpt lat="43.39895" lon="6.70142">
        <ele>102.4</ele>
        <time>2022-10-09T09:33:40Z</time>
      </trkpt>
      <trkpt lat="43.39894" lon="6.70143">
        <ele>102.6</ele>
        <time>2022-10-09T09:33:41Z</time>
      </trkpt>
      <trkpt lat="43.39893" lon="6.70145">
        <ele>102.7</ele>
        <time>2022-10-09T09:33:42Z</time>
      </trkpt>
      <trkpt lat="43.39891" lon="6.70146">
        <ele>102.9</ele>
        <time>2022-10-09T09:33:43Z</time>
      </trkpt>
      <trkpt lat="43.3989" lon="6.70148">
        <ele>103.1</ele>
        <time>2022-10-09T09:33:44Z</time>
      </trkpt>
      <trkpt lat="43.39888" lon="6.70149">
        <ele>103.2</ele>
        <time>2022-10-09T09:33:45Z</time>
      </trkpt>
      <trkpt lat="43.39886" lon="6.70151">
        <ele>103.3</ele>
        <time>2022-10-09T09:33:46Z</time>
      </trkpt>
      <trkpt lat="43.39885" lon="6.70152">
        <ele>103.5</ele>
        <time>2022-10-09T09:33:47Z</time>
      </trkpt>
      <trkpt lat="43.39883" lon="6.70153">
        <ele>103.6</ele>
        <time>2022-10-09T09:33:48Z</time>
      </trkpt>
      <trkpt lat="43.39881" lon="6.70155">
        <ele>103.7</ele>
        <time>2022-10-09T09:33:49Z</time>
      </trkpt>
      <trkpt lat="43.39879" lon="6.70157">
        <ele>103.8</ele>
        <time>2022-10-09T09:33:50Z</time>
      </trkpt>
      <trkpt lat="43.39878" lon="6.70159">
        <ele>103.9</ele>
        <time>2022-10-09T09:33:51Z</time>
      </trkpt>
      <trkpt lat="43.39876" lon="6.70161">
        <ele>104</ele>
        <time>2022-10-09T09:33:52Z</time>
      </trkpt>
      <trkpt lat="43.39874" lon="6.70163">
        <ele>104.1</ele>
        <time>2022-10-09T09:33:53Z</time>
      </trkpt>
      <trkpt lat="43.39872" lon="6.70165">
        <ele>104.2</ele>
        <time>2022-10-09T09:33:54Z</time>
      </trkpt>
      <trkpt lat="43.3987" lon="6.70167">
        <ele>104.3</ele>
        <time>2022-10-09T09:33:55Z</time>
      </trkpt>
      <trkpt lat="43.39869" lon="6.70169">
        <ele>104.3</ele>
        <time>2022-10-09T09:33:56Z</time>
      </trkpt>
      <trkpt lat="43.39867" lon="6.70172">
        <ele>104.4</ele>
        <time>2022-10-09T09:33:57Z</time>
      </trkpt>
      <trkpt lat="43.39865" lon="6.70174">
        <ele>104.5</ele>
        <time>2022-10-09T09:33:58Z</time>
      </trkpt>
      <trkpt lat="43.39863" lon="6.70176">
        <ele>104.5</ele>
        <time>2022-10-09T09:33:59Z</time>
      </trkpt>
      <trkpt lat="43.39861" lon="6.70179">
        <ele>104.6</ele>
        <time>2022-10-09T09:34:00Z</time>
      </trkpt>
      <trkpt lat="43.39859" lon="6.70181">
        <ele>104.6</ele>
        <time>2022-10-09T09:34:01Z</time>
      </trkpt>
      <trkpt lat="43.39857" lon="6.70182">
        <ele>104.7</ele>
        <time>2022-10-09T09:34:02Z</time>
      </trkpt>
      <trkpt lat="43.39855" lon="6.70184">
        <ele>104.7</ele>
        <time>2022-10-09T09:34:03Z</time>
      </trkpt>
      <trkpt lat="43.39839" lon="6.70188">
        <ele>104.8</ele>
        <time>2022-10-09T09:34:08Z</time>
      </trkpt>
      <trkpt lat="43.39804" lon="6.70185">
        <ele>104.8</ele>
        <time>2022-10-09T09:34:17Z</time>
      </trkpt>
      <trkpt lat="43.39801" lon="6.70185">
        <ele>104.8</ele>
        <time>2022-10-09T09:34:18Z</time>
      </trkpt>
      <trkpt lat="43.39776" lon="6.70183">
        <ele>104.7</ele>
        <time>2022-10-09T09:34:24Z</time>
      </trkpt>
      <trkpt lat="43.39772" lon="6.70183">
        <ele>104.7</ele>
        <time>2022-10-09T09:34:25Z</time>
      </trkpt>
      <trkpt lat="43.39751" lon="6.7018">
        <ele>104.6</ele>
        <time>2022-10-09T09:34:30Z</time>
      </trkpt>
      <trkpt lat="43.39738" lon="6.70177">
        <ele>104.4</ele>
        <time>2022-10-09T09:34:33Z</time>
      </trkpt>
      <trkpt lat="43.39706" lon="6.70166">
        <ele>103.7</ele>
        <time>2022-10-09T09:34:39Z</time>
      </trkpt>
      <trkpt lat="43.3969" lon="6.70159">
        <ele>103.5</ele>
        <time>2022-10-09T09:34:42Z</time>
      </trkpt>
      <trkpt lat="43.39686" lon="6.70155">
        <ele>103.5</ele>
        <time>2022-10-09T09:34:43Z</time>
      </trkpt>
      <trkpt lat="43.39682" lon="6.70151">
        <ele>103.5</ele>
        <time>2022-10-09T09:34:44Z</time>
      </trkpt>
      <trkpt lat="43.39678" lon="6.70146">
        <ele>103.6</ele>
        <time>2022-10-09T09:34:45Z</time>
      </trkpt>
      <trkpt lat="43.39674" lon="6.70142">
        <ele>103.7</ele>
        <time>2022-10-09T09:34:46Z</time>
      </trkpt>
      <trkpt lat="43.39671" lon="6.70139">
        <ele>103.8</ele>
        <time>2022-10-09T09:34:47Z</time>
      </trkpt>
      <trkpt lat="43.39668" lon="6.70135">
        <ele>103.9</ele>
        <time>2022-10-09T09:34:48Z</time>
      </trkpt>
      <trkpt lat="43.39665" lon="6.70132">
        <ele>104.1</ele>
        <time>2022-10-09T09:34:49Z</time>
      </trkpt>
      <trkpt lat="43.39663" lon="6.70128">
        <ele>104.3</ele>
        <time>2022-10-09T09:34:50Z</time>
      </trkpt>
      <trkpt lat="43.39661" lon="6.70125">
        <ele>104.5</ele>
        <time>2022-10-09T09:34:51Z</time>
      </trkpt>
      <trkpt lat="43.39659" lon="6.70122">
        <ele>104.7</ele>
        <time>2022-10-09T09:34:52Z</time>
      </trkpt>
      <trkpt lat="43.39657" lon="6.70119">
        <ele>104.9</ele>
        <time>2022-10-09T09:34:53Z</time>
      </trkpt>
      <trkpt lat="43.39655" lon="6.70116">
        <ele>105.2</ele>
        <time>2022-10-09T09:34:54Z</time>
      </trkpt>
      <trkpt lat="43.39653" lon="6.70114">
        <ele>105.4</ele>
        <time>2022-10-09T09:34:55Z</time>
      </trkpt>
      <trkpt lat="43.39652" lon="6.70112">
        <ele>105.6</ele>
        <time>2022-10-09T09:34:56Z</time>
      </trkpt>
      <trkpt lat="43.3965" lon="6.7011">
        <ele>105.9</ele>
        <time>2022-10-09T09:34:57Z</time>
      </trkpt>
      <trkpt lat="43.39648" lon="6.70105">
        <ele>106.4</ele>
        <time>2022-10-09T09:34:59Z</time>
      </trkpt>
      <trkpt lat="43.39647" lon="6.70103">
        <ele>106.6</ele>
        <time>2022-10-09T09:35:00Z</time>
      </trkpt>
      <trkpt lat="43.39646" lon="6.701">
        <ele>106.9</ele>
        <time>2022-10-09T09:35:01Z</time>
      </trkpt>
      <trkpt lat="43.39644" lon="6.70098">
        <ele>107.1</ele>
        <time>2022-10-09T09:35:02Z</time>
      </trkpt>
      <trkpt lat="43.39643" lon="6.70095">
        <ele>107.4</ele>
        <time>2022-10-09T09:35:03Z</time>
      </trkpt>
      <trkpt lat="43.39643" lon="6.70093">
        <ele>107.7</ele>
        <time>2022-10-09T09:35:04Z</time>
      </trkpt>
      <trkpt lat="43.39642" lon="6.70091">
        <ele>107.9</ele>
        <time>2022-10-09T09:35:05Z</time>
      </trkpt>
      <trkpt lat="43.39641" lon="6.70088">
        <ele>108.2</ele>
        <time>2022-10-09T09:35:06Z</time>
      </trkpt>
      <trkpt lat="43.39639" lon="6.70086">
        <ele>108.5</ele>
        <time>2022-10-09T09:35:07Z</time>
      </trkpt>
      <trkpt lat="43.39638" lon="6.70084">
        <ele>108.7</ele>
        <time>2022-10-09T09:35:08Z</time>
      </trkpt>
      <trkpt lat="43.39636" lon="6.70082">
        <ele>109</ele>
        <time>2022-10-09T09:35:09Z</time>
      </trkpt>
      <trkpt lat="43.39635" lon="6.70079">
        <ele>109.3</ele>
        <time>2022-10-09T09:35:10Z</time>
      </trkpt>
      <trkpt lat="43.39633" lon="6.70077">
        <ele>109.5</ele>
        <time>2022-10-09T09:35:11Z</time>
      </trkpt>
      <trkpt lat="43.39631" lon="6.70076">
        <ele>109.8</ele>
        <time>2022-10-09T09:35:12Z</time>
      </trkpt>
      <trkpt lat="43.39629" lon="6.70074">
        <ele>110</ele>
        <time>2022-10-09T09:35:13Z</time>
      </trkpt>
      <trkpt lat="43.39627" lon="6.70072">
        <ele>110.2</ele>
        <time>2022-10-09T09:35:14Z</time>
      </trkpt>
      <trkpt lat="43.39625" lon="6.70071">
        <ele>110.4</ele>
        <time>2022-10-09T09:35:15Z</time>
      </trkpt>
      <trkpt lat="43.39623" lon="6.70069">
        <ele>110.6</ele>
        <time>2022-10-09T09:35:16Z</time>
      </trkpt>
      <trkpt lat="43.39621" lon="6.70068">
        <ele>110.8</ele>
        <time>2022-10-09T09:35:17Z</time>
      </trkpt>
      <trkpt lat="43.39618" lon="6.70067">
        <ele>111</ele>
        <time>2022-10-09T09:35:18Z</time>
      </trkpt>
      <trkpt lat="43.39616" lon="6.70066">
        <ele>111.1</ele>
        <time>2022-10-09T09:35:19Z</time>
      </trkpt>
      <trkpt lat="43.39613" lon="6.70065">
        <ele>111.3</ele>
        <time>2022-10-09T09:35:20Z</time>
      </trkpt>
      <trkpt lat="43.3961" lon="6.70065">
        <ele>111.5</ele>
        <time>2022-10-09T09:35:21Z</time>
      </trkpt>
      <trkpt lat="43.39607" lon="6.70065">
        <ele>111.6</ele>
        <time>2022-10-09T09:35:22Z</time>
      </trkpt>
      <trkpt lat="43.39604" lon="6.70065">
        <ele>111.7</ele>
        <time>2022-10-09T09:35:23Z</time>
      </trkpt>
      <trkpt lat="43.39601" lon="6.70065">
        <ele>111.8</ele>
        <time>2022-10-09T09:35:24Z</time>
      </trkpt>
      <trkpt lat="43.39598" lon="6.70066">
        <ele>111.9</ele>
        <time>2022-10-09T09:35:25Z</time>
      </trkpt>
      <trkpt lat="43.39595" lon="6.70067">
        <ele>112</ele>
        <time>2022-10-09T09:35:26Z</time>
      </trkpt>
      <trkpt lat="43.39592" lon="6.70068">
        <ele>112.1</ele>
        <time>2022-10-09T09:35:27Z</time>
      </trkpt>
      <trkpt lat="43.39589" lon="6.70069">
        <ele>112.1</ele>
        <time>2022-10-09T09:35:28Z</time>
      </trkpt>
      <trkpt lat="43.39586" lon="6.7007">
        <ele>112.2</ele>
        <time>2022-10-09T09:35:29Z</time>
      </trkpt>
      <trkpt lat="43.39583" lon="6.70072">
        <ele>112.2</ele>
        <time>2022-10-09T09:35:30Z</time>
      </trkpt>
      <trkpt lat="43.39579" lon="6.70073">
        <ele>112.1</ele>
        <time>2022-10-09T09:35:31Z</time>
      </trkpt>
      <trkpt lat="43.39575" lon="6.70075">
        <ele>112.1</ele>
        <time>2022-10-09T09:35:32Z</time>
      </trkpt>
      <trkpt lat="43.39571" lon="6.70077">
        <ele>112</ele>
        <time>2022-10-09T09:35:33Z</time>
      </trkpt>
      <trkpt lat="43.39567" lon="6.70078">
        <ele>111.9</ele>
        <time>2022-10-09T09:35:34Z</time>
      </trkpt>
      <trkpt lat="43.39563" lon="6.7008">
        <ele>111.8</ele>
        <time>2022-10-09T09:35:35Z</time>
      </trkpt>
      <trkpt lat="43.39559" lon="6.70083">
        <ele>111.7</ele>
        <time>2022-10-09T09:35:36Z</time>
      </trkpt>
      <trkpt lat="43.39554" lon="6.70085">
        <ele>111.5</ele>
        <time>2022-10-09T09:35:37Z</time>
      </trkpt>
      <trkpt lat="43.39549" lon="6.70087">
        <ele>111.2</ele>
        <time>2022-10-09T09:35:38Z</time>
      </trkpt>
      <trkpt lat="43.39538" lon="6.70093">
        <ele>110.6</ele>
        <time>2022-10-09T09:35:40Z</time>
      </trkpt>
      <trkpt lat="43.39526" lon="6.701">
        <ele>109.8</ele>
        <time>2022-10-09T09:35:42Z</time>
      </trkpt>
      <trkpt lat="43.39519" lon="6.70103">
        <ele>109.5</ele>
        <time>2022-10-09T09:35:43Z</time>
      </trkpt>
      <trkpt lat="43.39505" lon="6.70107">
        <ele>109</ele>
        <time>2022-10-09T09:35:45Z</time>
      </trkpt>
      <trkpt lat="43.39499" lon="6.70108">
        <ele>108.8</ele>
        <time>2022-10-09T09:35:46Z</time>
      </trkpt>
      <trkpt lat="43.39492" lon="6.70109">
        <ele>108.7</ele>
        <time>2022-10-09T09:35:47Z</time>
      </trkpt>
      <trkpt lat="43.39486" lon="6.70109">
        <ele>108.6</ele>
        <time>2022-10-09T09:35:48Z</time>
      </trkpt>
      <trkpt lat="43.39479" lon="6.70109">
        <ele>108.4</ele>
        <time>2022-10-09T09:35:49Z</time>
      </trkpt>
      <trkpt lat="43.39473" lon="6.70108">
        <ele>108.3</ele>
        <time>2022-10-09T09:35:50Z</time>
      </trkpt>
      <trkpt lat="43.39453" lon="6.70104">
        <ele>107.3</ele>
        <time>2022-10-09T09:35:53Z</time>
      </trkpt>
      <trkpt lat="43.39438" lon="6.70101">
        <ele>106.5</ele>
        <time>2022-10-09T09:35:55Z</time>
      </trkpt>
      <trkpt lat="43.39413" lon="6.70098">
        <ele>105.5</ele>
        <time>2022-10-09T09:35:58Z</time>
      </trkpt>
      <trkpt lat="43.39405" lon="6.70096">
        <ele>105.3</ele>
        <time>2022-10-09T09:35:59Z</time>
      </trkpt>
      <trkpt lat="43.39398" lon="6.70093">
        <ele>105.2</ele>
        <time>2022-10-09T09:36:00Z</time>
      </trkpt>
      <trkpt lat="43.39391" lon="6.7009">
        <ele>105.1</ele>
        <time>2022-10-09T09:36:01Z</time>
      </trkpt>
      <trkpt lat="43.39385" lon="6.70087">
        <ele>104.9</ele>
        <time>2022-10-09T09:36:02Z</time>
      </trkpt>
      <trkpt lat="43.39378" lon="6.70083">
        <ele>104.8</ele>
        <time>2022-10-09T09:36:03Z</time>
      </trkpt>
      <trkpt lat="43.39372" lon="6.70079">
        <ele>104.7</ele>
        <time>2022-10-09T09:36:04Z</time>
      </trkpt>
      <trkpt lat="43.39366" lon="6.70073">
        <ele>104.5</ele>
        <time>2022-10-09T09:36:05Z</time>
      </trkpt>
      <trkpt lat="43.3936" lon="6.70068">
        <ele>104.3</ele>
        <time>2022-10-09T09:36:06Z</time>
      </trkpt>
      <trkpt lat="43.39354" lon="6.70063">
        <ele>104</ele>
        <time>2022-10-09T09:36:07Z</time>
      </trkpt>
      <trkpt lat="43.39348" lon="6.70056">
        <ele>103.8</ele>
        <time>2022-10-09T09:36:08Z</time>
      </trkpt>
      <trkpt lat="43.39336" lon="6.70041">
        <ele>103.3</ele>
        <time>2022-10-09T09:36:10Z</time>
      </trkpt>
      <trkpt lat="43.39325" lon="6.70026">
        <ele>102.9</ele>
        <time>2022-10-09T09:36:12Z</time>
      </trkpt>
      <trkpt lat="43.3932" lon="6.70019">
        <ele>102.8</ele>
        <time>2022-10-09T09:36:13Z</time>
      </trkpt>
      <trkpt lat="43.39314" lon="6.70013">
        <ele>102.7</ele>
        <time>2022-10-09T09:36:14Z</time>
      </trkpt>
      <trkpt lat="43.39309" lon="6.70006">
        <ele>102.8</ele>
        <time>2022-10-09T09:36:15Z</time>
      </trkpt>
      <trkpt lat="43.39304" lon="6.7">
        <ele>102.8</ele>
        <time>2022-10-09T09:36:16Z</time>
      </trkpt>
      <trkpt lat="43.393" lon="6.69994">
        <ele>102.9</ele>
        <time>2022-10-09T09:36:17Z</time>
      </trkpt>
      <trkpt lat="43.39296" lon="6.69989">
        <ele>103</ele>
        <time>2022-10-09T09:36:18Z</time>
      </trkpt>
      <trkpt lat="43.39292" lon="6.69984">
        <ele>103</ele>
        <time>2022-10-09T09:36:19Z</time>
      </trkpt>
      <trkpt lat="43.39288" lon="6.6998">
        <ele>103.1</ele>
        <time>2022-10-09T09:36:20Z</time>
      </trkpt>
      <trkpt lat="43.39285" lon="6.69975">
        <ele>103.2</ele>
        <time>2022-10-09T09:36:21Z</time>
      </trkpt>
      <trkpt lat="43.39282" lon="6.69972">
        <ele>103.4</ele>
        <time>2022-10-09T09:36:22Z</time>
      </trkpt>
      <trkpt lat="43.39279" lon="6.69968">
        <ele>103.7</ele>
        <time>2022-10-09T09:36:23Z</time>
      </trkpt>
      <trkpt lat="43.39276" lon="6.69964">
        <ele>103.9</ele>
        <time>2022-10-09T09:36:24Z</time>
      </trkpt>
      <trkpt lat="43.39274" lon="6.6996">
        <ele>104.1</ele>
        <time>2022-10-09T09:36:25Z</time>
      </trkpt>
      <trkpt lat="43.39271" lon="6.69957">
        <ele>104.4</ele>
        <time>2022-10-09T09:36:26Z</time>
      </trkpt>
      <trkpt lat="43.39269" lon="6.69953">
        <ele>104.6</ele>
        <time>2022-10-09T09:36:27Z</time>
      </trkpt>
      <trkpt lat="43.39266" lon="6.6995">
        <ele>104.8</ele>
        <time>2022-10-09T09:36:28Z</time>
      </trkpt>
      <trkpt lat="43.39264" lon="6.69947">
        <ele>105</ele>
        <time>2022-10-09T09:36:29Z</time>
      </trkpt>
      <trkpt lat="43.39258" lon="6.69941">
        <ele>105.3</ele>
        <time>2022-10-09T09:36:31Z</time>
      </trkpt>
      <trkpt lat="43.39246" lon="6.69935">
        <ele>105.6</ele>
        <time>2022-10-09T09:36:34Z</time>
      </trkpt>
      <trkpt lat="43.39242" lon="6.69934">
        <ele>105.5</ele>
        <time>2022-10-09T09:36:35Z</time>
      </trkpt>
      <trkpt lat="43.39237" lon="6.69932">
        <ele>105.5</ele>
        <time>2022-10-09T09:36:36Z</time>
      </trkpt>
      <trkpt lat="43.39232" lon="6.69931">
        <ele>105.3</ele>
        <time>2022-10-09T09:36:37Z</time>
      </trkpt>
      <trkpt lat="43.39227" lon="6.6993">
        <ele>105.1</ele>
        <time>2022-10-09T09:36:38Z</time>
      </trkpt>
      <trkpt lat="43.39221" lon="6.69927">
        <ele>104.9</ele>
        <time>2022-10-09T09:36:39Z</time>
      </trkpt>
      <trkpt lat="43.39211" lon="6.69916">
        <ele>104.2</ele>
        <time>2022-10-09T09:36:41Z</time>
      </trkpt>
      <trkpt lat="43.39206" lon="6.69908">
        <ele>103.9</ele>
        <time>2022-10-09T09:36:42Z</time>
      </trkpt>
      <trkpt lat="43.392" lon="6.699">
        <ele>103.8</ele>
        <time>2022-10-09T09:36:43Z</time>
      </trkpt>
      <trkpt lat="43.39195" lon="6.69892">
        <ele>103.7</ele>
        <time>2022-10-09T09:36:44Z</time>
      </trkpt>
      <trkpt lat="43.3919" lon="6.69885">
        <ele>103.7</ele>
        <time>2022-10-09T09:36:45Z</time>
      </trkpt>
      <trkpt lat="43.39185" lon="6.69879">
        <ele>103.6</ele>
        <time>2022-10-09T09:36:46Z</time>
      </trkpt>
      <trkpt lat="43.39181" lon="6.69874">
        <ele>103.9</ele>
        <time>2022-10-09T09:36:47Z</time>
      </trkpt>
      <trkpt lat="43.39177" lon="6.6987">
        <ele>104.3</ele>
        <time>2022-10-09T09:36:48Z</time>
      </trkpt>
      <trkpt lat="43.39173" lon="6.69868">
        <ele>104.6</ele>
        <time>2022-10-09T09:36:49Z</time>
      </trkpt>
      <trkpt lat="43.3917" lon="6.69866">
        <ele>104.9</ele>
        <time>2022-10-09T09:36:50Z</time>
      </trkpt>
      <trkpt lat="43.39168" lon="6.69865">
        <ele>105.3</ele>
        <time>2022-10-09T09:36:51Z</time>
      </trkpt>
      <trkpt lat="43.39165" lon="6.69863">
        <ele>105.6</ele>
        <time>2022-10-09T09:36:52Z</time>
      </trkpt>
      <trkpt lat="43.39163" lon="6.69862">
        <ele>105.9</ele>
        <time>2022-10-09T09:36:53Z</time>
      </trkpt>
      <trkpt lat="43.39161" lon="6.69861">
        <ele>106.2</ele>
        <time>2022-10-09T09:36:54Z</time>
      </trkpt>
      <trkpt lat="43.39157" lon="6.69859">
        <ele>106.8</ele>
        <time>2022-10-09T09:36:56Z</time>
      </trkpt>
      <trkpt lat="43.39155" lon="6.69858">
        <ele>107.1</ele>
        <time>2022-10-09T09:36:57Z</time>
      </trkpt>
      <trkpt lat="43.39153" lon="6.69857">
        <ele>107.4</ele>
        <time>2022-10-09T09:36:58Z</time>
      </trkpt>
      <trkpt lat="43.39152" lon="6.69856">
        <ele>107.7</ele>
        <time>2022-10-09T09:36:59Z</time>
      </trkpt>
      <trkpt lat="43.3915" lon="6.69854">
        <ele>108</ele>
        <time>2022-10-09T09:37:00Z</time>
      </trkpt>
      <trkpt lat="43.39149" lon="6.69853">
        <ele>108.2</ele>
        <time>2022-10-09T09:37:01Z</time>
      </trkpt>
      <trkpt lat="43.39147" lon="6.69852">
        <ele>108.5</ele>
        <time>2022-10-09T09:37:02Z</time>
      </trkpt>
      <trkpt lat="43.39145" lon="6.69851">
        <ele>108.8</ele>
        <time>2022-10-09T09:37:03Z</time>
      </trkpt>
      <trkpt lat="43.39144" lon="6.6985">
        <ele>109.1</ele>
        <time>2022-10-09T09:37:04Z</time>
      </trkpt>
      <trkpt lat="43.39142" lon="6.69848">
        <ele>109.3</ele>
        <time>2022-10-09T09:37:05Z</time>
      </trkpt>
      <trkpt lat="43.39141" lon="6.69847">
        <ele>109.6</ele>
        <time>2022-10-09T09:37:06Z</time>
      </trkpt>
      <trkpt lat="43.39139" lon="6.69845">
        <ele>109.8</ele>
        <time>2022-10-09T09:37:07Z</time>
      </trkpt>
      <trkpt lat="43.39138" lon="6.69843">
        <ele>110.1</ele>
        <time>2022-10-09T09:37:08Z</time>
      </trkpt>
      <trkpt lat="43.39137" lon="6.69841">
        <ele>110.3</ele>
        <time>2022-10-09T09:37:09Z</time>
      </trkpt>
      <trkpt lat="43.39136" lon="6.69838">
        <ele>110.6</ele>
        <time>2022-10-09T09:37:10Z</time>
      </trkpt>
      <trkpt lat="43.39135" lon="6.69835">
        <ele>110.8</ele>
        <time>2022-10-09T09:37:11Z</time>
      </trkpt>
      <trkpt lat="43.39135" lon="6.69833">
        <ele>111.1</ele>
        <time>2022-10-09T09:37:12Z</time>
      </trkpt>
      <trkpt lat="43.39134" lon="6.6983">
        <ele>111.3</ele>
        <time>2022-10-09T09:37:13Z</time>
      </trkpt>
      <trkpt lat="43.39133" lon="6.69828">
        <ele>111.5</ele>
        <time>2022-10-09T09:37:14Z</time>
      </trkpt>
      <trkpt lat="43.39133" lon="6.69825">
        <ele>111.7</ele>
        <time>2022-10-09T09:37:15Z</time>
      </trkpt>
      <trkpt lat="43.39133" lon="6.69822">
        <ele>111.9</ele>
        <time>2022-10-09T09:37:16Z</time>
      </trkpt>
      <trkpt lat="43.39133" lon="6.6982">
        <ele>112.1</ele>
        <time>2022-10-09T09:37:17Z</time>
      </trkpt>
      <trkpt lat="43.39133" lon="6.69817">
        <ele>112.3</ele>
        <time>2022-10-09T09:37:18Z</time>
      </trkpt>
      <trkpt lat="43.39133" lon="6.69815">
        <ele>112.4</ele>
        <time>2022-10-09T09:37:19Z</time>
      </trkpt>
      <trkpt lat="43.39133" lon="6.69813">
        <ele>112.6</ele>
        <time>2022-10-09T09:37:20Z</time>
      </trkpt>
      <trkpt lat="43.39132" lon="6.6981">
        <ele>112.8</ele>
        <time>2022-10-09T09:37:21Z</time>
      </trkpt>
      <trkpt lat="43.39132" lon="6.69806">
        <ele>113</ele>
        <time>2022-10-09T09:37:22Z</time>
      </trkpt>
      <trkpt lat="43.39132" lon="6.69803">
        <ele>113.2</ele>
        <time>2022-10-09T09:37:23Z</time>
      </trkpt>
      <trkpt lat="43.39131" lon="6.698">
        <ele>113.4</ele>
        <time>2022-10-09T09:37:24Z</time>
      </trkpt>
      <trkpt lat="43.39131" lon="6.69797">
        <ele>113.6</ele>
        <time>2022-10-09T09:37:25Z</time>
      </trkpt>
      <trkpt lat="43.39131" lon="6.69794">
        <ele>113.8</ele>
        <time>2022-10-09T09:37:26Z</time>
      </trkpt>
      <trkpt lat="43.3913" lon="6.69792">
        <ele>113.9</ele>
        <time>2022-10-09T09:37:27Z</time>
      </trkpt>
      <trkpt lat="43.3913" lon="6.69789">
        <ele>114.1</ele>
        <time>2022-10-09T09:37:28Z</time>
      </trkpt>
      <trkpt lat="43.3913" lon="6.69787">
        <ele>114.3</ele>
        <time>2022-10-09T09:37:29Z</time>
      </trkpt>
      <trkpt lat="43.3913" lon="6.69784">
        <ele>114.5</ele>
        <time>2022-10-09T09:37:30Z</time>
      </trkpt>
      <trkpt lat="43.39129" lon="6.69782">
        <ele>114.7</ele>
        <time>2022-10-09T09:37:31Z</time>
      </trkpt>
      <trkpt lat="43.39129" lon="6.6978">
        <ele>114.9</ele>
        <time>2022-10-09T09:37:32Z</time>
      </trkpt>
      <trkpt lat="43.39129" lon="6.69777">
        <ele>115.1</ele>
        <time>2022-10-09T09:37:33Z</time>
      </trkpt>
      <trkpt lat="43.39129" lon="6.69775">
        <ele>115.3</ele>
        <time>2022-10-09T09:37:34Z</time>
      </trkpt>
      <trkpt lat="43.39129" lon="6.69773">
        <ele>115.5</ele>
        <time>2022-10-09T09:37:35Z</time>
      </trkpt>
      <trkpt lat="43.39129" lon="6.69771">
        <ele>115.7</ele>
        <time>2022-10-09T09:37:36Z</time>
      </trkpt>
      <trkpt lat="43.39129" lon="6.69769">
        <ele>115.9</ele>
        <time>2022-10-09T09:37:37Z</time>
      </trkpt>
      <trkpt lat="43.39129" lon="6.69767">
        <ele>116.1</ele>
        <time>2022-10-09T09:37:38Z</time>
      </trkpt>
      <trkpt lat="43.39129" lon="6.69765">
        <ele>116.3</ele>
        <time>2022-10-09T09:37:39Z</time>
      </trkpt>
      <trkpt lat="43.39129" lon="6.69763">
        <ele>116.5</ele>
        <time>2022-10-09T09:37:40Z</time>
      </trkpt>
      <trkpt lat="43.39129" lon="6.69761">
        <ele>116.7</ele>
        <time>2022-10-09T09:37:41Z</time>
      </trkpt>
      <trkpt lat="43.39129" lon="6.69759">
        <ele>116.9</ele>
        <time>2022-10-09T09:37:42Z</time>
      </trkpt>
      <trkpt lat="43.39129" lon="6.69757">
        <ele>117.1</ele>
        <time>2022-10-09T09:37:43Z</time>
      </trkpt>
      <trkpt lat="43.39129" lon="6.69755">
        <ele>117.3</ele>
        <time>2022-10-09T09:37:44Z</time>
      </trkpt>
      <trkpt lat="43.39129" lon="6.69753">
        <ele>117.5</ele>
        <time>2022-10-09T09:37:45Z</time>
      </trkpt>
      <trkpt lat="43.3913" lon="6.69751">
        <ele>117.7</ele>
        <time>2022-10-09T09:37:46Z</time>
      </trkpt>
      <trkpt lat="43.3913" lon="6.69749">
        <ele>117.9</ele>
        <time>2022-10-09T09:37:47Z</time>
      </trkpt>
      <trkpt lat="43.3913" lon="6.69747">
        <ele>118.1</ele>
        <time>2022-10-09T09:37:48Z</time>
      </trkpt>
      <trkpt lat="43.3913" lon="6.69746">
        <ele>118.3</ele>
        <time>2022-10-09T09:37:49Z</time>
      </trkpt>
      <trkpt lat="43.3913" lon="6.69744">
        <ele>118.5</ele>
        <time>2022-10-09T09:37:50Z</time>
      </trkpt>
      <trkpt lat="43.3913" lon="6.69742">
        <ele>118.7</ele>
        <time>2022-10-09T09:37:51Z</time>
      </trkpt>
      <trkpt lat="43.3913" lon="6.6974">
        <ele>118.9</ele>
        <time>2022-10-09T09:37:52Z</time>
      </trkpt>
      <trkpt lat="43.3913" lon="6.69738">
        <ele>119.1</ele>
        <time>2022-10-09T09:37:53Z</time>
      </trkpt>
      <trkpt lat="43.3913" lon="6.69737">
        <ele>119.3</ele>
        <time>2022-10-09T09:37:54Z</time>
      </trkpt>
      <trkpt lat="43.3913" lon="6.69735">
        <ele>119.5</ele>
        <time>2022-10-09T09:37:55Z</time>
      </trkpt>
      <trkpt lat="43.3913" lon="6.69733">
        <ele>119.7</ele>
        <time>2022-10-09T09:37:56Z</time>
      </trkpt>
      <trkpt lat="43.3913" lon="6.69731">
        <ele>120</ele>
        <time>2022-10-09T09:37:57Z</time>
      </trkpt>
      <trkpt lat="43.3913" lon="6.69729">
        <ele>120.2</ele>
        <time>2022-10-09T09:37:58Z</time>
      </trkpt>
      <trkpt lat="43.39129" lon="6.69728">
        <ele>120.4</ele>
        <time>2022-10-09T09:37:59Z</time>
      </trkpt>
      <trkpt lat="43.39129" lon="6.69726">
        <ele>120.6</ele>
        <time>2022-10-09T09:38:00Z</time>
      </trkpt>
      <trkpt lat="43.39129" lon="6.69724">
        <ele>120.7</ele>
        <time>2022-10-09T09:38:01Z</time>
      </trkpt>
      <trkpt lat="43.39129" lon="6.69723">
        <ele>120.9</ele>
        <time>2022-10-09T09:38:02Z</time>
      </trkpt>
      <trkpt lat="43.39129" lon="6.69721">
        <ele>121.1</ele>
        <time>2022-10-09T09:38:03Z</time>
      </trkpt>
      <trkpt lat="43.39129" lon="6.69719">
        <ele>121.3</ele>
        <time>2022-10-09T09:38:04Z</time>
      </trkpt>
      <trkpt lat="43.39129" lon="6.69718">
        <ele>121.5</ele>
        <time>2022-10-09T09:38:05Z</time>
      </trkpt>
      <trkpt lat="43.39128" lon="6.69716">
        <ele>121.7</ele>
        <time>2022-10-09T09:38:06Z</time>
      </trkpt>
      <trkpt lat="43.39128" lon="6.69715">
        <ele>121.9</ele>
        <time>2022-10-09T09:38:07Z</time>
      </trkpt>
      <trkpt lat="43.39128" lon="6.69713">
        <ele>122.1</ele>
        <time>2022-10-09T09:38:08Z</time>
      </trkpt>
      <trkpt lat="43.39128" lon="6.69712">
        <ele>122.3</ele>
        <time>2022-10-09T09:38:09Z</time>
      </trkpt>
      <trkpt lat="43.39127" lon="6.69711">
        <ele>122.4</ele>
        <time>2022-10-09T09:38:10Z</time>
      </trkpt>
      <trkpt lat="43.39127" lon="6.6971">
        <ele>122.5</ele>
        <time>2022-10-09T09:38:12Z</time>
      </trkpt>
      <trkpt lat="43.39112" lon="6.69648">
        <ele>129.4</ele>
        <time>2022-10-09T09:40:11Z</time>
      </trkpt>
      <trkpt lat="43.39112" lon="6.69646">
        <ele>129.6</ele>
        <time>2022-10-09T09:40:12Z</time>
      </trkpt>
      <trkpt lat="43.39112" lon="6.69644">
        <ele>129.8</ele>
        <time>2022-10-09T09:40:13Z</time>
      </trkpt>
      <trkpt lat="43.39112" lon="6.69642">
        <ele>129.9</ele>
        <time>2022-10-09T09:40:14Z</time>
      </trkpt>
      <trkpt lat="43.39111" lon="6.6964">
        <ele>130.1</ele>
        <time>2022-10-09T09:40:15Z</time>
      </trkpt>
      <trkpt lat="43.39111" lon="6.69639">
        <ele>130.3</ele>
        <time>2022-10-09T09:40:16Z</time>
      </trkpt>
      <trkpt lat="43.3911" lon="6.69637">
        <ele>130.5</ele>
        <time>2022-10-09T09:40:17Z</time>
      </trkpt>
      <trkpt lat="43.3911" lon="6.69636">
        <ele>130.6</ele>
        <time>2022-10-09T09:40:18Z</time>
      </trkpt>
      <trkpt lat="43.3911" lon="6.69634">
        <ele>130.7</ele>
        <time>2022-10-09T09:40:19Z</time>
      </trkpt>
      <trkpt lat="43.39109" lon="6.69633">
        <ele>130.9</ele>
        <time>2022-10-09T09:40:20Z</time>
      </trkpt>
      <trkpt lat="43.39109" lon="6.69631">
        <ele>131.1</ele>
        <time>2022-10-09T09:40:21Z</time>
      </trkpt>
      <trkpt lat="43.39109" lon="6.6963">
        <ele>131.2</ele>
        <time>2022-10-09T09:40:22Z</time>
      </trkpt>
      <trkpt lat="43.39109" lon="6.69628">
        <ele>131.4</ele>
        <time>2022-10-09T09:40:23Z</time>
      </trkpt>
      <trkpt lat="43.39108" lon="6.69627">
        <ele>131.5</ele>
        <time>2022-10-09T09:40:24Z</time>
      </trkpt>
      <trkpt lat="43.39108" lon="6.69625">
        <ele>131.7</ele>
        <time>2022-10-09T09:40:25Z</time>
      </trkpt>
      <trkpt lat="43.39108" lon="6.69624">
        <ele>131.8</ele>
        <time>2022-10-09T09:40:26Z</time>
      </trkpt>
      <trkpt lat="43.39108" lon="6.69623">
        <ele>132</ele>
        <time>2022-10-09T09:40:27Z</time>
      </trkpt>
      <trkpt lat="43.39107" lon="6.69621">
        <ele>132.1</ele>
        <time>2022-10-09T09:40:28Z</time>
      </trkpt>
      <trkpt lat="43.39107" lon="6.6962">
        <ele>132.3</ele>
        <time>2022-10-09T09:40:29Z</time>
      </trkpt>
      <trkpt lat="43.39107" lon="6.69618">
        <ele>132.4</ele>
        <time>2022-10-09T09:40:30Z</time>
      </trkpt>
      <trkpt lat="43.39106" lon="6.69617">
        <ele>132.6</ele>
        <time>2022-10-09T09:40:31Z</time>
      </trkpt>
      <trkpt lat="43.39106" lon="6.69616">
        <ele>132.7</ele>
        <time>2022-10-09T09:40:32Z</time>
      </trkpt>
      <trkpt lat="43.39105" lon="6.69615">
        <ele>132.9</ele>
        <time>2022-10-09T09:40:33Z</time>
      </trkpt>
      <trkpt lat="43.39105" lon="6.69613">
        <ele>133</ele>
        <time>2022-10-09T09:40:34Z</time>
      </trkpt>
      <trkpt lat="43.39105" lon="6.69612">
        <ele>133.2</ele>
        <time>2022-10-09T09:40:35Z</time>
      </trkpt>
      <trkpt lat="43.39104" lon="6.6961">
        <ele>133.4</ele>
        <time>2022-10-09T09:40:36Z</time>
      </trkpt>
      <trkpt lat="43.39104" lon="6.69609">
        <ele>133.6</ele>
        <time>2022-10-09T09:40:37Z</time>
      </trkpt>
      <trkpt lat="43.39104" lon="6.69607">
        <ele>133.7</ele>
        <time>2022-10-09T09:40:38Z</time>
      </trkpt>
      <trkpt lat="43.39103" lon="6.69606">
        <ele>133.9</ele>
        <time>2022-10-09T09:40:39Z</time>
      </trkpt>
      <trkpt lat="43.39103" lon="6.69604">
        <ele>134.1</ele>
        <time>2022-10-09T09:40:40Z</time>
      </trkpt>
      <trkpt lat="43.39103" lon="6.69603">
        <ele>134.2</ele>
        <time>2022-10-09T09:40:41Z</time>
      </trkpt>
      <trkpt lat="43.39102" lon="6.69602">
        <ele>134.4</ele>
        <time>2022-10-09T09:40:42Z</time>
      </trkpt>
      <trkpt lat="43.39102" lon="6.696">
        <ele>134.6</ele>
        <time>2022-10-09T09:40:43Z</time>
      </trkpt>
      <trkpt lat="43.39102" lon="6.69599">
        <ele>134.7</ele>
        <time>2022-10-09T09:40:44Z</time>
      </trkpt>
      <trkpt lat="43.39101" lon="6.69598">
        <ele>134.9</ele>
        <time>2022-10-09T09:40:45Z</time>
      </trkpt>
      <trkpt lat="43.39101" lon="6.69596">
        <ele>135.1</ele>
        <time>2022-10-09T09:40:46Z</time>
      </trkpt>
      <trkpt lat="43.391" lon="6.69595">
        <ele>135.2</ele>
        <time>2022-10-09T09:40:47Z</time>
      </trkpt>
      <trkpt lat="43.391" lon="6.69594">
        <ele>135.4</ele>
        <time>2022-10-09T09:40:48Z</time>
      </trkpt>
      <trkpt lat="43.391" lon="6.69592">
        <ele>135.6</ele>
        <time>2022-10-09T09:40:49Z</time>
      </trkpt>
      <trkpt lat="43.39099" lon="6.69591">
        <ele>135.8</ele>
        <time>2022-10-09T09:40:50Z</time>
      </trkpt>
      <trkpt lat="43.39099" lon="6.69589">
        <ele>136</ele>
        <time>2022-10-09T09:40:51Z</time>
      </trkpt>
      <trkpt lat="43.39099" lon="6.69588">
        <ele>136.1</ele>
        <time>2022-10-09T09:40:52Z</time>
      </trkpt>
      <trkpt lat="43.39098" lon="6.69587">
        <ele>136.3</ele>
        <time>2022-10-09T09:40:53Z</time>
      </trkpt>
      <trkpt lat="43.39098" lon="6.69586">
        <ele>136.4</ele>
        <time>2022-10-09T09:40:54Z</time>
      </trkpt>
      <trkpt lat="43.39097" lon="6.69585">
        <ele>136.6</ele>
        <time>2022-10-09T09:40:55Z</time>
      </trkpt>
      <trkpt lat="43.39097" lon="6.69583">
        <ele>136.8</ele>
        <time>2022-10-09T09:40:56Z</time>
      </trkpt>
      <trkpt lat="43.39096" lon="6.69582">
        <ele>136.9</ele>
        <time>2022-10-09T09:40:57Z</time>
      </trkpt>
      <trkpt lat="43.39096" lon="6.69581">
        <ele>137.1</ele>
        <time>2022-10-09T09:40:58Z</time>
      </trkpt>
      <trkpt lat="43.39096" lon="6.6958">
        <ele>137.3</ele>
        <time>2022-10-09T09:40:59Z</time>
      </trkpt>
      <trkpt lat="43.39095" lon="6.69578">
        <ele>137.5</ele>
        <time>2022-10-09T09:41:00Z</time>
      </trkpt>
      <trkpt lat="43.39095" lon="6.69577">
        <ele>137.7</ele>
        <time>2022-10-09T09:41:01Z</time>
      </trkpt>
      <trkpt lat="43.39095" lon="6.69576">
        <ele>137.8</ele>
        <time>2022-10-09T09:41:02Z</time>
      </trkpt>
      <trkpt lat="43.39094" lon="6.69575">
        <ele>138</ele>
        <time>2022-10-09T09:41:03Z</time>
      </trkpt>
      <trkpt lat="43.39094" lon="6.69574">
        <ele>138.1</ele>
        <time>2022-10-09T09:41:04Z</time>
      </trkpt>
      <trkpt lat="43.39094" lon="6.69573">
        <ele>138.2</ele>
        <time>2022-10-09T09:41:05Z</time>
      </trkpt>
      <trkpt lat="43.39094" lon="6.69572">
        <ele>138.4</ele>
        <time>2022-10-09T09:41:06Z</time>
      </trkpt>
      <trkpt lat="43.39093" lon="6.69571">
        <ele>138.5</ele>
        <time>2022-10-09T09:41:07Z</time>
      </trkpt>
      <trkpt lat="43.39093" lon="6.69569">
        <ele>138.7</ele>
        <time>2022-10-09T09:41:08Z</time>
      </trkpt>
      <trkpt lat="43.39093" lon="6.69568">
        <ele>138.8</ele>
        <time>2022-10-09T09:41:09Z</time>
      </trkpt>
      <trkpt lat="43.39092" lon="6.69567">
        <ele>139</ele>
        <time>2022-10-09T09:41:10Z</time>
      </trkpt>
      <trkpt lat="43.39092" lon="6.69566">
        <ele>139.1</ele>
        <time>2022-10-09T09:41:11Z</time>
      </trkpt>
      <trkpt lat="43.39092" lon="6.69565">
        <ele>139.3</ele>
        <time>2022-10-09T09:41:12Z</time>
      </trkpt>
      <trkpt lat="43.39091" lon="6.69564">
        <ele>139.5</ele>
        <time>2022-10-09T09:41:13Z</time>
      </trkpt>
      <trkpt lat="43.39091" lon="6.69563">
        <ele>139.6</ele>
        <time>2022-10-09T09:41:14Z</time>
      </trkpt>
      <trkpt lat="43.3909" lon="6.69562">
        <ele>139.8</ele>
        <time>2022-10-09T09:41:15Z</time>
      </trkpt>
      <trkpt lat="43.3909" lon="6.69561">
        <ele>139.9</ele>
        <time>2022-10-09T09:41:16Z</time>
      </trkpt>
      <trkpt lat="43.3909" lon="6.6956">
        <ele>140.1</ele>
        <time>2022-10-09T09:41:17Z</time>
      </trkpt>
      <trkpt lat="43.39089" lon="6.69558">
        <ele>140.3</ele>
        <time>2022-10-09T09:41:18Z</time>
      </trkpt>
      <trkpt lat="43.39088" lon="6.69557">
        <ele>140.5</ele>
        <time>2022-10-09T09:41:19Z</time>
      </trkpt>
      <trkpt lat="43.39088" lon="6.69555">
        <ele>140.7</ele>
        <time>2022-10-09T09:41:20Z</time>
      </trkpt>
      <trkpt lat="43.39087" lon="6.69553">
        <ele>140.9</ele>
        <time>2022-10-09T09:41:21Z</time>
      </trkpt>
      <trkpt lat="43.39086" lon="6.69552">
        <ele>141.2</ele>
        <time>2022-10-09T09:41:22Z</time>
      </trkpt>
      <trkpt lat="43.39085" lon="6.69551">
        <ele>141.3</ele>
        <time>2022-10-09T09:41:23Z</time>
      </trkpt>
      <trkpt lat="43.39084" lon="6.6955">
        <ele>141.5</ele>
        <time>2022-10-09T09:41:24Z</time>
      </trkpt>
      <trkpt lat="43.39083" lon="6.6955">
        <ele>141.7</ele>
        <time>2022-10-09T09:41:25Z</time>
      </trkpt>
      <trkpt lat="43.39082" lon="6.69549">
        <ele>141.8</ele>
        <time>2022-10-09T09:41:26Z</time>
      </trkpt>
      <trkpt lat="43.39082" lon="6.69548">
        <ele>142</ele>
        <time>2022-10-09T09:41:27Z</time>
      </trkpt>
      <trkpt lat="43.39081" lon="6.69547">
        <ele>142.1</ele>
        <time>2022-10-09T09:41:28Z</time>
      </trkpt>
      <trkpt lat="43.3908" lon="6.69547">
        <ele>142.3</ele>
        <time>2022-10-09T09:41:29Z</time>
      </trkpt>
      <trkpt lat="43.3908" lon="6.69546">
        <ele>142.4</ele>
        <time>2022-10-09T09:41:30Z</time>
      </trkpt>
      <trkpt lat="43.39079" lon="6.69544">
        <ele>142.5</ele>
        <time>2022-10-09T09:41:31Z</time>
      </trkpt>
      <trkpt lat="43.39078" lon="6.69543">
        <ele>142.7</ele>
        <time>2022-10-09T09:41:32Z</time>
      </trkpt>
      <trkpt lat="43.39078" lon="6.69542">
        <ele>142.8</ele>
        <time>2022-10-09T09:41:33Z</time>
      </trkpt>
      <trkpt lat="43.39077" lon="6.69541">
        <ele>143</ele>
        <time>2022-10-09T09:41:34Z</time>
      </trkpt>
      <trkpt lat="43.39076" lon="6.6954">
        <ele>143.2</ele>
        <time>2022-10-09T09:41:35Z</time>
      </trkpt>
      <trkpt lat="43.39075" lon="6.69539">
        <ele>143.3</ele>
        <time>2022-10-09T09:41:36Z</time>
      </trkpt>
      <trkpt lat="43.39075" lon="6.69538">
        <ele>143.5</ele>
        <time>2022-10-09T09:41:37Z</time>
      </trkpt>
      <trkpt lat="43.39074" lon="6.69537">
        <ele>143.7</ele>
        <time>2022-10-09T09:41:38Z</time>
      </trkpt>
      <trkpt lat="43.39073" lon="6.69536">
        <ele>143.8</ele>
        <time>2022-10-09T09:41:39Z</time>
      </trkpt>
      <trkpt lat="43.39072" lon="6.69535">
        <ele>144</ele>
        <time>2022-10-09T09:41:40Z</time>
      </trkpt>
      <trkpt lat="43.39071" lon="6.69534">
        <ele>144.2</ele>
        <time>2022-10-09T09:41:41Z</time>
      </trkpt>
      <trkpt lat="43.3907" lon="6.69533">
        <ele>144.3</ele>
        <time>2022-10-09T09:41:42Z</time>
      </trkpt>
      <trkpt lat="43.39069" lon="6.69532">
        <ele>144.5</ele>
        <time>2022-10-09T09:41:43Z</time>
      </trkpt>
      <trkpt lat="43.39068" lon="6.69531">
        <ele>144.7</ele>
        <time>2022-10-09T09:41:44Z</time>
      </trkpt>
      <trkpt lat="43.39067" lon="6.6953">
        <ele>144.8</ele>
        <time>2022-10-09T09:41:45Z</time>
      </trkpt>
      <trkpt lat="43.39066" lon="6.6953">
        <ele>145</ele>
        <time>2022-10-09T09:41:46Z</time>
      </trkpt>
      <trkpt lat="43.39065" lon="6.6953">
        <ele>145.2</ele>
        <time>2022-10-09T09:41:47Z</time>
      </trkpt>
      <trkpt lat="43.39064" lon="6.69529">
        <ele>145.3</ele>
        <time>2022-10-09T09:41:48Z</time>
      </trkpt>
      <trkpt lat="43.39063" lon="6.69529">
        <ele>145.5</ele>
        <time>2022-10-09T09:41:49Z</time>
      </trkpt>
      <trkpt lat="43.39062" lon="6.69529">
        <ele>145.7</ele>
        <time>2022-10-09T09:41:50Z</time>
      </trkpt>
      <trkpt lat="43.3906" lon="6.69528">
        <ele>145.8</ele>
        <time>2022-10-09T09:41:51Z</time>
      </trkpt>
      <trkpt lat="43.39059" lon="6.69528">
        <ele>146</ele>
        <time>2022-10-09T09:41:52Z</time>
      </trkpt>
      <trkpt lat="43.39058" lon="6.69527">
        <ele>146.2</ele>
        <time>2022-10-09T09:41:53Z</time>
      </trkpt>
      <trkpt lat="43.39057" lon="6.69526">
        <ele>146.4</ele>
        <time>2022-10-09T09:41:54Z</time>
      </trkpt>
      <trkpt lat="43.39056" lon="6.69525">
        <ele>146.6</ele>
        <time>2022-10-09T09:41:55Z</time>
      </trkpt>
      <trkpt lat="43.39054" lon="6.69525">
        <ele>146.7</ele>
        <time>2022-10-09T09:41:56Z</time>
      </trkpt>
      <trkpt lat="43.39053" lon="6.69524">
        <ele>146.9</ele>
        <time>2022-10-09T09:41:57Z</time>
      </trkpt>
      <trkpt lat="43.39052" lon="6.69524">
        <ele>147</ele>
        <time>2022-10-09T09:41:58Z</time>
      </trkpt>
      <trkpt lat="43.39051" lon="6.69523">
        <ele>147.2</ele>
        <time>2022-10-09T09:41:59Z</time>
      </trkpt>
      <trkpt lat="43.3905" lon="6.69523">
        <ele>147.3</ele>
        <time>2022-10-09T09:42:00Z</time>
      </trkpt>
      <trkpt lat="43.39049" lon="6.69522">
        <ele>147.5</ele>
        <time>2022-10-09T09:42:01Z</time>
      </trkpt>
      <trkpt lat="43.39048" lon="6.69521">
        <ele>147.6</ele>
        <time>2022-10-09T09:42:02Z</time>
      </trkpt>
      <trkpt lat="43.39047" lon="6.69521">
        <ele>147.8</ele>
        <time>2022-10-09T09:42:03Z</time>
      </trkpt>
      <trkpt lat="43.39046" lon="6.6952">
        <ele>147.9</ele>
        <time>2022-10-09T09:42:04Z</time>
      </trkpt>
      <trkpt lat="43.39045" lon="6.6952">
        <ele>148.1</ele>
        <time>2022-10-09T09:42:05Z</time>
      </trkpt>
      <trkpt lat="43.39044" lon="6.69519">
        <ele>148.2</ele>
        <time>2022-10-09T09:42:06Z</time>
      </trkpt>
      <trkpt lat="43.39043" lon="6.69518">
        <ele>148.4</ele>
        <time>2022-10-09T09:42:07Z</time>
      </trkpt>
      <trkpt lat="43.39042" lon="6.69518">
        <ele>148.5</ele>
        <time>2022-10-09T09:42:08Z</time>
      </trkpt>
      <trkpt lat="43.39041" lon="6.69517">
        <ele>148.6</ele>
        <time>2022-10-09T09:42:09Z</time>
      </trkpt>
      <trkpt lat="43.3904" lon="6.69517">
        <ele>148.8</ele>
        <time>2022-10-09T09:42:10Z</time>
      </trkpt>
      <trkpt lat="43.39039" lon="6.69516">
        <ele>148.9</ele>
        <time>2022-10-09T09:42:11Z</time>
      </trkpt>
      <trkpt lat="43.39038" lon="6.69515">
        <ele>149.1</ele>
        <time>2022-10-09T09:42:12Z</time>
      </trkpt>
      <trkpt lat="43.39037" lon="6.69514">
        <ele>149.2</ele>
        <time>2022-10-09T09:42:13Z</time>
      </trkpt>
      <trkpt lat="43.39037" lon="6.69513">
        <ele>149.4</ele>
        <time>2022-10-09T09:42:14Z</time>
      </trkpt>
      <trkpt lat="43.39036" lon="6.69512">
        <ele>149.5</ele>
        <time>2022-10-09T09:42:15Z</time>
      </trkpt>
      <trkpt lat="43.39035" lon="6.69511">
        <ele>149.6</ele>
        <time>2022-10-09T09:42:16Z</time>
      </trkpt>
      <trkpt lat="43.39034" lon="6.69511">
        <ele>149.8</ele>
        <time>2022-10-09T09:42:17Z</time>
      </trkpt>
      <trkpt lat="43.39033" lon="6.6951">
        <ele>149.9</ele>
        <time>2022-10-09T09:42:18Z</time>
      </trkpt>
      <trkpt lat="43.39032" lon="6.69509">
        <ele>150.1</ele>
        <time>2022-10-09T09:42:19Z</time>
      </trkpt>
      <trkpt lat="43.39031" lon="6.69508">
        <ele>150.2</ele>
        <time>2022-10-09T09:42:20Z</time>
      </trkpt>
      <trkpt lat="43.3903" lon="6.69507">
        <ele>150.4</ele>
        <time>2022-10-09T09:42:21Z</time>
      </trkpt>
      <trkpt lat="43.39029" lon="6.69506">
        <ele>150.5</ele>
        <time>2022-10-09T09:42:22Z</time>
      </trkpt>
      <trkpt lat="43.39028" lon="6.69506">
        <ele>150.7</ele>
        <time>2022-10-09T09:42:23Z</time>
      </trkpt>
      <trkpt lat="43.39028" lon="6.69505">
        <ele>150.8</ele>
        <time>2022-10-09T09:42:24Z</time>
      </trkpt>
      <trkpt lat="43.39027" lon="6.69504">
        <ele>151</ele>
        <time>2022-10-09T09:42:25Z</time>
      </trkpt>
      <trkpt lat="43.39026" lon="6.69503">
        <ele>151.1</ele>
        <time>2022-10-09T09:42:26Z</time>
      </trkpt>
      <trkpt lat="43.39025" lon="6.69502">
        <ele>151.2</ele>
        <time>2022-10-09T09:42:27Z</time>
      </trkpt>
      <trkpt lat="43.39024" lon="6.69501">
        <ele>151.4</ele>
        <time>2022-10-09T09:42:28Z</time>
      </trkpt>
      <trkpt lat="43.39024" lon="6.69501">
        <ele>151.5</ele>
        <time>2022-10-09T09:42:29Z</time>
      </trkpt>
      <trkpt lat="43.39023" lon="6.695">
        <ele>151.6</ele>
        <time>2022-10-09T09:42:30Z</time>
      </trkpt>
      <trkpt lat="43.39022" lon="6.69499">
        <ele>151.8</ele>
        <time>2022-10-09T09:42:31Z</time>
      </trkpt>
      <trkpt lat="43.39021" lon="6.69498">
        <ele>151.9</ele>
        <time>2022-10-09T09:42:32Z</time>
      </trkpt>
      <trkpt lat="43.3902" lon="6.69497">
        <ele>152</ele>
        <time>2022-10-09T09:42:33Z</time>
      </trkpt>
      <trkpt lat="43.3902" lon="6.69496">
        <ele>152.2</ele>
        <time>2022-10-09T09:42:34Z</time>
      </trkpt>
      <trkpt lat="43.39019" lon="6.69495">
        <ele>152.3</ele>
        <time>2022-10-09T09:42:35Z</time>
      </trkpt>
      <trkpt lat="43.39018" lon="6.69494">
        <ele>152.5</ele>
        <time>2022-10-09T09:42:36Z</time>
      </trkpt>
      <trkpt lat="43.39016" lon="6.69493">
        <ele>152.7</ele>
        <time>2022-10-09T09:42:37Z</time>
      </trkpt>
      <trkpt lat="43.39015" lon="6.69492">
        <ele>152.8</ele>
        <time>2022-10-09T09:42:38Z</time>
      </trkpt>
      <trkpt lat="43.39014" lon="6.69491">
        <ele>153</ele>
        <time>2022-10-09T09:42:39Z</time>
      </trkpt>
      <trkpt lat="43.39013" lon="6.6949">
        <ele>153.2</ele>
        <time>2022-10-09T09:42:40Z</time>
      </trkpt>
      <trkpt lat="43.39012" lon="6.69489">
        <ele>153.3</ele>
        <time>2022-10-09T09:42:41Z</time>
      </trkpt>
      <trkpt lat="43.39011" lon="6.69489">
        <ele>153.4</ele>
        <time>2022-10-09T09:42:42Z</time>
      </trkpt>
      <trkpt lat="43.3901" lon="6.69488">
        <ele>153.5</ele>
        <time>2022-10-09T09:42:43Z</time>
      </trkpt>
      <trkpt lat="43.39009" lon="6.69487">
        <ele>153.7</ele>
        <time>2022-10-09T09:42:44Z</time>
      </trkpt>
      <trkpt lat="43.39008" lon="6.69487">
        <ele>153.8</ele>
        <time>2022-10-09T09:42:45Z</time>
      </trkpt>
      <trkpt lat="43.39007" lon="6.69486">
        <ele>153.9</ele>
        <time>2022-10-09T09:42:46Z</time>
      </trkpt>
      <trkpt lat="43.39006" lon="6.69486">
        <ele>154.1</ele>
        <time>2022-10-09T09:42:47Z</time>
      </trkpt>
      <trkpt lat="43.39005" lon="6.69485">
        <ele>154.2</ele>
        <time>2022-10-09T09:42:48Z</time>
      </trkpt>
      <trkpt lat="43.39003" lon="6.69484">
        <ele>154.4</ele>
        <time>2022-10-09T09:42:49Z</time>
      </trkpt>
      <trkpt lat="43.39002" lon="6.69484">
        <ele>154.5</ele>
        <time>2022-10-09T09:42:50Z</time>
      </trkpt>
      <trkpt lat="43.39001" lon="6.69483">
        <ele>154.7</ele>
        <time>2022-10-09T09:42:51Z</time>
      </trkpt>
      <trkpt lat="43.39" lon="6.69483">
        <ele>154.8</ele>
        <time>2022-10-09T09:42:52Z</time>
      </trkpt>
      <trkpt lat="43.38999" lon="6.69482">
        <ele>155</ele>
        <time>2022-10-09T09:42:53Z</time>
      </trkpt>
      <trkpt lat="43.38998" lon="6.69481">
        <ele>155.1</ele>
        <time>2022-10-09T09:42:54Z</time>
      </trkpt>
      <trkpt lat="43.38997" lon="6.6948">
        <ele>155.3</ele>
        <time>2022-10-09T09:42:55Z</time>
      </trkpt>
      <trkpt lat="43.38996" lon="6.69479">
        <ele>155.4</ele>
        <time>2022-10-09T09:42:56Z</time>
      </trkpt>
      <trkpt lat="43.38995" lon="6.69479">
        <ele>155.5</ele>
        <time>2022-10-09T09:42:57Z</time>
      </trkpt>
      <trkpt lat="43.38994" lon="6.69478">
        <ele>155.7</ele>
        <time>2022-10-09T09:42:58Z</time>
      </trkpt>
      <trkpt lat="43.38993" lon="6.69477">
        <ele>155.8</ele>
        <time>2022-10-09T09:42:59Z</time>
      </trkpt>
      <trkpt lat="43.38992" lon="6.69476">
        <ele>156</ele>
        <time>2022-10-09T09:43:00Z</time>
      </trkpt>
      <trkpt lat="43.38991" lon="6.69476">
        <ele>156.1</ele>
        <time>2022-10-09T09:43:01Z</time>
      </trkpt>
      <trkpt lat="43.3899" lon="6.69475">
        <ele>156.3</ele>
        <time>2022-10-09T09:43:02Z</time>
      </trkpt>
      <trkpt lat="43.38989" lon="6.69474">
        <ele>156.5</ele>
        <time>2022-10-09T09:43:03Z</time>
      </trkpt>
      <trkpt lat="43.38988" lon="6.69473">
        <ele>156.7</ele>
        <time>2022-10-09T09:43:04Z</time>
      </trkpt>
      <trkpt lat="43.38987" lon="6.69472">
        <ele>156.8</ele>
        <time>2022-10-09T09:43:05Z</time>
      </trkpt>
      <trkpt lat="43.38986" lon="6.69471">
        <ele>156.9</ele>
        <time>2022-10-09T09:43:06Z</time>
      </trkpt>
      <trkpt lat="43.38985" lon="6.6947">
        <ele>157.1</ele>
        <time>2022-10-09T09:43:07Z</time>
      </trkpt>
      <trkpt lat="43.38984" lon="6.69469">
        <ele>157.3</ele>
        <time>2022-10-09T09:43:08Z</time>
      </trkpt>
      <trkpt lat="43.38984" lon="6.69468">
        <ele>157.5</ele>
        <time>2022-10-09T09:43:09Z</time>
      </trkpt>
      <trkpt lat="43.38982" lon="6.69467">
        <ele>157.6</ele>
        <time>2022-10-09T09:43:10Z</time>
      </trkpt>
      <trkpt lat="43.38982" lon="6.69466">
        <ele>157.8</ele>
        <time>2022-10-09T09:43:11Z</time>
      </trkpt>
      <trkpt lat="43.38981" lon="6.69465">
        <ele>158</ele>
        <time>2022-10-09T09:43:12Z</time>
      </trkpt>
      <trkpt lat="43.3898" lon="6.69464">
        <ele>158.1</ele>
        <time>2022-10-09T09:43:13Z</time>
      </trkpt>
      <trkpt lat="43.38979" lon="6.69464">
        <ele>158.2</ele>
        <time>2022-10-09T09:43:14Z</time>
      </trkpt>
      <trkpt lat="43.38978" lon="6.69462">
        <ele>158.4</ele>
        <time>2022-10-09T09:43:15Z</time>
      </trkpt>
      <trkpt lat="43.38978" lon="6.69461">
        <ele>158.6</ele>
        <time>2022-10-09T09:43:16Z</time>
      </trkpt>
      <trkpt lat="43.38977" lon="6.6946">
        <ele>158.7</ele>
        <time>2022-10-09T09:43:17Z</time>
      </trkpt>
      <trkpt lat="43.38976" lon="6.69459">
        <ele>158.8</ele>
        <time>2022-10-09T09:43:18Z</time>
      </trkpt>
      <trkpt lat="43.38975" lon="6.69458">
        <ele>159</ele>
        <time>2022-10-09T09:43:19Z</time>
      </trkpt>
      <trkpt lat="43.38975" lon="6.69457">
        <ele>159.1</ele>
        <time>2022-10-09T09:43:20Z</time>
      </trkpt>
      <trkpt lat="43.38974" lon="6.69456">
        <ele>159.3</ele>
        <time>2022-10-09T09:43:21Z</time>
      </trkpt>
      <trkpt lat="43.38973" lon="6.69455">
        <ele>159.4</ele>
        <time>2022-10-09T09:43:22Z</time>
      </trkpt>
      <trkpt lat="43.38972" lon="6.69454">
        <ele>159.6</ele>
        <time>2022-10-09T09:43:23Z</time>
      </trkpt>
      <trkpt lat="43.38972" lon="6.69453">
        <ele>159.8</ele>
        <time>2022-10-09T09:43:24Z</time>
      </trkpt>
      <trkpt lat="43.38971" lon="6.69452">
        <ele>159.9</ele>
        <time>2022-10-09T09:43:25Z</time>
      </trkpt>
      <trkpt lat="43.38971" lon="6.69451">
        <ele>160.1</ele>
        <time>2022-10-09T09:43:26Z</time>
      </trkpt>
      <trkpt lat="43.3897" lon="6.6945">
        <ele>160.2</ele>
        <time>2022-10-09T09:43:27Z</time>
      </trkpt>
      <trkpt lat="43.38969" lon="6.69449">
        <ele>160.4</ele>
        <time>2022-10-09T09:43:28Z</time>
      </trkpt>
      <trkpt lat="43.38969" lon="6.69448">
        <ele>160.5</ele>
        <time>2022-10-09T09:43:29Z</time>
      </trkpt>
      <trkpt lat="43.38968" lon="6.69447">
        <ele>160.7</ele>
        <time>2022-10-09T09:43:30Z</time>
      </trkpt>
      <trkpt lat="43.38967" lon="6.69446">
        <ele>160.8</ele>
        <time>2022-10-09T09:43:31Z</time>
      </trkpt>
      <trkpt lat="43.38967" lon="6.69445">
        <ele>161</ele>
        <time>2022-10-09T09:43:32Z</time>
      </trkpt>
      <trkpt lat="43.38966" lon="6.69444">
        <ele>161.1</ele>
        <time>2022-10-09T09:43:33Z</time>
      </trkpt>
      <trkpt lat="43.38966" lon="6.69442">
        <ele>161.3</ele>
        <time>2022-10-09T09:43:34Z</time>
      </trkpt>
      <trkpt lat="43.38965" lon="6.69441">
        <ele>161.4</ele>
        <time>2022-10-09T09:43:35Z</time>
      </trkpt>
      <trkpt lat="43.38965" lon="6.6944">
        <ele>161.6</ele>
        <time>2022-10-09T09:43:36Z</time>
      </trkpt>
      <trkpt lat="43.38964" lon="6.69439">
        <ele>161.7</ele>
        <time>2022-10-09T09:43:37Z</time>
      </trkpt>
      <trkpt lat="43.38964" lon="6.69438">
        <ele>161.8</ele>
        <time>2022-10-09T09:43:38Z</time>
      </trkpt>
      <trkpt lat="43.38963" lon="6.69437">
        <ele>162</ele>
        <time>2022-10-09T09:43:39Z</time>
      </trkpt>
      <trkpt lat="43.38963" lon="6.69435">
        <ele>162.2</ele>
        <time>2022-10-09T09:43:40Z</time>
      </trkpt>
      <trkpt lat="43.38963" lon="6.69434">
        <ele>162.3</ele>
        <time>2022-10-09T09:43:41Z</time>
      </trkpt>
      <trkpt lat="43.38962" lon="6.69433">
        <ele>162.5</ele>
        <time>2022-10-09T09:43:42Z</time>
      </trkpt>
      <trkpt lat="43.38962" lon="6.69432">
        <ele>162.6</ele>
        <time>2022-10-09T09:43:43Z</time>
      </trkpt>
      <trkpt lat="43.38961" lon="6.69431">
        <ele>162.8</ele>
        <time>2022-10-09T09:43:44Z</time>
      </trkpt>
      <trkpt lat="43.38961" lon="6.69429">
        <ele>162.9</ele>
        <time>2022-10-09T09:43:45Z</time>
      </trkpt>
      <trkpt lat="43.3896" lon="6.69428">
        <ele>163.1</ele>
        <time>2022-10-09T09:43:46Z</time>
      </trkpt>
      <trkpt lat="43.3896" lon="6.69427">
        <ele>163.3</ele>
        <time>2022-10-09T09:43:47Z</time>
      </trkpt>
      <trkpt lat="43.3896" lon="6.69426">
        <ele>163.4</ele>
        <time>2022-10-09T09:43:48Z</time>
      </trkpt>
      <trkpt lat="43.38959" lon="6.69424">
        <ele>163.6</ele>
        <time>2022-10-09T09:43:49Z</time>
      </trkpt>
      <trkpt lat="43.38959" lon="6.69423">
        <ele>163.7</ele>
        <time>2022-10-09T09:43:50Z</time>
      </trkpt>
      <trkpt lat="43.38958" lon="6.69422">
        <ele>163.9</ele>
        <time>2022-10-09T09:43:51Z</time>
      </trkpt>
      <trkpt lat="43.38958" lon="6.69421">
        <ele>164</ele>
        <time>2022-10-09T09:43:52Z</time>
      </trkpt>
      <trkpt lat="43.38958" lon="6.6942">
        <ele>164.1</ele>
        <time>2022-10-09T09:43:53Z</time>
      </trkpt>
      <trkpt lat="43.38957" lon="6.69419">
        <ele>164.3</ele>
        <time>2022-10-09T09:43:54Z</time>
      </trkpt>
      <trkpt lat="43.38957" lon="6.69417">
        <ele>164.5</ele>
        <time>2022-10-09T09:43:55Z</time>
      </trkpt>
      <trkpt lat="43.38957" lon="6.69416">
        <ele>164.6</ele>
        <time>2022-10-09T09:43:56Z</time>
      </trkpt>
      <trkpt lat="43.38957" lon="6.69415">
        <ele>164.7</ele>
        <time>2022-10-09T09:43:57Z</time>
      </trkpt>
      <trkpt lat="43.38957" lon="6.69413">
        <ele>164.9</ele>
        <time>2022-10-09T09:43:58Z</time>
      </trkpt>
      <trkpt lat="43.38956" lon="6.69412">
        <ele>165.1</ele>
        <time>2022-10-09T09:43:59Z</time>
      </trkpt>
      <trkpt lat="43.38956" lon="6.6941">
        <ele>165.3</ele>
        <time>2022-10-09T09:44:00Z</time>
      </trkpt>
      <trkpt lat="43.38956" lon="6.69408">
        <ele>165.4</ele>
        <time>2022-10-09T09:44:01Z</time>
      </trkpt>
      <trkpt lat="43.38955" lon="6.69407">
        <ele>165.6</ele>
        <time>2022-10-09T09:44:02Z</time>
      </trkpt>
      <trkpt lat="43.38955" lon="6.69405">
        <ele>165.8</ele>
        <time>2022-10-09T09:44:03Z</time>
      </trkpt>
      <trkpt lat="43.38954" lon="6.69404">
        <ele>165.9</ele>
        <time>2022-10-09T09:44:04Z</time>
      </trkpt>
      <trkpt lat="43.38953" lon="6.69403">
        <ele>166.1</ele>
        <time>2022-10-09T09:44:05Z</time>
      </trkpt>
      <trkpt lat="43.38953" lon="6.69401">
        <ele>166.2</ele>
        <time>2022-10-09T09:44:06Z</time>
      </trkpt>
      <trkpt lat="43.38952" lon="6.694">
        <ele>166.4</ele>
        <time>2022-10-09T09:44:07Z</time>
      </trkpt>
      <trkpt lat="43.38952" lon="6.69399">
        <ele>166.6</ele>
        <time>2022-10-09T09:44:08Z</time>
      </trkpt>
      <trkpt lat="43.38952" lon="6.69397">
        <ele>166.7</ele>
        <time>2022-10-09T09:44:09Z</time>
      </trkpt>
      <trkpt lat="43.38951" lon="6.69396">
        <ele>166.9</ele>
        <time>2022-10-09T09:44:10Z</time>
      </trkpt>
      <trkpt lat="43.38951" lon="6.69395">
        <ele>167</ele>
        <time>2022-10-09T09:44:11Z</time>
      </trkpt>
      <trkpt lat="43.3895" lon="6.69393">
        <ele>167.2</ele>
        <time>2022-10-09T09:44:12Z</time>
      </trkpt>
      <trkpt lat="43.3895" lon="6.69392">
        <ele>167.3</ele>
        <time>2022-10-09T09:44:13Z</time>
      </trkpt>
      <trkpt lat="43.38949" lon="6.69391">
        <ele>167.5</ele>
        <time>2022-10-09T09:44:14Z</time>
      </trkpt>
      <trkpt lat="43.38949" lon="6.69389">
        <ele>167.6</ele>
        <time>2022-10-09T09:44:15Z</time>
      </trkpt>
      <trkpt lat="43.38949" lon="6.69388">
        <ele>167.8</ele>
        <time>2022-10-09T09:44:16Z</time>
      </trkpt>
      <trkpt lat="43.38948" lon="6.69386">
        <ele>168</ele>
        <time>2022-10-09T09:44:17Z</time>
      </trkpt>
      <trkpt lat="43.38948" lon="6.69385">
        <ele>168.1</ele>
        <time>2022-10-09T09:44:18Z</time>
      </trkpt>
      <trkpt lat="43.38947" lon="6.69384">
        <ele>168.2</ele>
        <time>2022-10-09T09:44:19Z</time>
      </trkpt>
      <trkpt lat="43.38947" lon="6.69383">
        <ele>168.4</ele>
        <time>2022-10-09T09:44:20Z</time>
      </trkpt>
      <trkpt lat="43.38946" lon="6.69382">
        <ele>168.5</ele>
        <time>2022-10-09T09:44:21Z</time>
      </trkpt>
      <trkpt lat="43.38946" lon="6.6938">
        <ele>168.7</ele>
        <time>2022-10-09T09:44:22Z</time>
      </trkpt>
      <trkpt lat="43.38946" lon="6.69379">
        <ele>168.8</ele>
        <time>2022-10-09T09:44:23Z</time>
      </trkpt>
      <trkpt lat="43.38945" lon="6.69378">
        <ele>169</ele>
        <time>2022-10-09T09:44:24Z</time>
      </trkpt>
      <trkpt lat="43.38945" lon="6.69377">
        <ele>169.1</ele>
        <time>2022-10-09T09:44:25Z</time>
      </trkpt>
      <trkpt lat="43.38944" lon="6.69376">
        <ele>169.2</ele>
        <time>2022-10-09T09:44:26Z</time>
      </trkpt>
      <trkpt lat="43.38944" lon="6.69374">
        <ele>169.4</ele>
        <time>2022-10-09T09:44:27Z</time>
      </trkpt>
      <trkpt lat="43.38943" lon="6.69373">
        <ele>169.6</ele>
        <time>2022-10-09T09:44:28Z</time>
      </trkpt>
      <trkpt lat="43.38943" lon="6.69372">
        <ele>169.7</ele>
        <time>2022-10-09T09:44:29Z</time>
      </trkpt>
      <trkpt lat="43.38942" lon="6.69371">
        <ele>169.9</ele>
        <time>2022-10-09T09:44:30Z</time>
      </trkpt>
      <trkpt lat="43.38942" lon="6.69369">
        <ele>170</ele>
        <time>2022-10-09T09:44:31Z</time>
      </trkpt>
      <trkpt lat="43.38942" lon="6.69368">
        <ele>170.1</ele>
        <time>2022-10-09T09:44:32Z</time>
      </trkpt>
      <trkpt lat="43.38942" lon="6.69367">
        <ele>170.3</ele>
        <time>2022-10-09T09:44:33Z</time>
      </trkpt>
      <trkpt lat="43.38941" lon="6.69366">
        <ele>170.4</ele>
        <time>2022-10-09T09:44:34Z</time>
      </trkpt>
      <trkpt lat="43.3894" lon="6.69365">
        <ele>170.6</ele>
        <time>2022-10-09T09:44:35Z</time>
      </trkpt>
      <trkpt lat="43.3894" lon="6.69364">
        <ele>170.8</ele>
        <time>2022-10-09T09:44:36Z</time>
      </trkpt>
      <trkpt lat="43.38939" lon="6.69363">
        <ele>170.9</ele>
        <time>2022-10-09T09:44:37Z</time>
      </trkpt>
      <trkpt lat="43.38939" lon="6.69362">
        <ele>171.1</ele>
        <time>2022-10-09T09:44:38Z</time>
      </trkpt>
      <trkpt lat="43.38938" lon="6.6936">
        <ele>171.2</ele>
        <time>2022-10-09T09:44:39Z</time>
      </trkpt>
      <trkpt lat="43.38938" lon="6.69359">
        <ele>171.4</ele>
        <time>2022-10-09T09:44:40Z</time>
      </trkpt>
      <trkpt lat="43.38938" lon="6.69358">
        <ele>171.6</ele>
        <time>2022-10-09T09:44:41Z</time>
      </trkpt>
      <trkpt lat="43.38937" lon="6.69357">
        <ele>171.7</ele>
        <time>2022-10-09T09:44:42Z</time>
      </trkpt>
      <trkpt lat="43.38936" lon="6.69356">
        <ele>171.9</ele>
        <time>2022-10-09T09:44:43Z</time>
      </trkpt>
      <trkpt lat="43.38936" lon="6.69355">
        <ele>172</ele>
        <time>2022-10-09T09:44:44Z</time>
      </trkpt>
      <trkpt lat="43.38935" lon="6.69354">
        <ele>172.2</ele>
        <time>2022-10-09T09:44:45Z</time>
      </trkpt>
      <trkpt lat="43.38935" lon="6.69353">
        <ele>172.4</ele>
        <time>2022-10-09T09:44:46Z</time>
      </trkpt>
      <trkpt lat="43.38934" lon="6.69352">
        <ele>172.5</ele>
        <time>2022-10-09T09:44:47Z</time>
      </trkpt>
      <trkpt lat="43.38934" lon="6.69351">
        <ele>172.7</ele>
        <time>2022-10-09T09:44:48Z</time>
      </trkpt>
      <trkpt lat="43.38933" lon="6.6935">
        <ele>172.9</ele>
        <time>2022-10-09T09:44:49Z</time>
      </trkpt>
      <trkpt lat="43.38932" lon="6.69349">
        <ele>173.1</ele>
        <time>2022-10-09T09:44:50Z</time>
      </trkpt>
      <trkpt lat="43.38932" lon="6.69348">
        <ele>173.2</ele>
        <time>2022-10-09T09:44:51Z</time>
      </trkpt>
      <trkpt lat="43.38932" lon="6.69346">
        <ele>173.4</ele>
        <time>2022-10-09T09:44:52Z</time>
      </trkpt>
      <trkpt lat="43.38931" lon="6.69345">
        <ele>173.6</ele>
        <time>2022-10-09T09:44:53Z</time>
      </trkpt>
      <trkpt lat="43.38931" lon="6.69344">
        <ele>173.7</ele>
        <time>2022-10-09T09:44:54Z</time>
      </trkpt>
      <trkpt lat="43.3893" lon="6.69343">
        <ele>173.9</ele>
        <time>2022-10-09T09:44:55Z</time>
      </trkpt>
      <trkpt lat="43.38929" lon="6.69342">
        <ele>174.1</ele>
        <time>2022-10-09T09:44:56Z</time>
      </trkpt>
      <trkpt lat="43.38929" lon="6.69341">
        <ele>174.2</ele>
        <time>2022-10-09T09:44:57Z</time>
      </trkpt>
      <trkpt lat="43.38929" lon="6.6934">
        <ele>174.4</ele>
        <time>2022-10-09T09:44:58Z</time>
      </trkpt>
      <trkpt lat="43.38928" lon="6.69339">
        <ele>174.6</ele>
        <time>2022-10-09T09:44:59Z</time>
      </trkpt>
      <trkpt lat="43.38928" lon="6.69338">
        <ele>174.7</ele>
        <time>2022-10-09T09:45:00Z</time>
      </trkpt>
      <trkpt lat="43.38927" lon="6.69337">
        <ele>174.9</ele>
        <time>2022-10-09T09:45:01Z</time>
      </trkpt>
      <trkpt lat="43.38927" lon="6.69336">
        <ele>175.1</ele>
        <time>2022-10-09T09:45:02Z</time>
      </trkpt>
      <trkpt lat="43.38926" lon="6.69335">
        <ele>175.3</ele>
        <time>2022-10-09T09:45:03Z</time>
      </trkpt>
      <trkpt lat="43.38926" lon="6.69334">
        <ele>175.4</ele>
        <time>2022-10-09T09:45:04Z</time>
      </trkpt>
      <trkpt lat="43.38925" lon="6.69333">
        <ele>175.5</ele>
        <time>2022-10-09T09:45:05Z</time>
      </trkpt>
      <trkpt lat="43.38925" lon="6.69332">
        <ele>175.7</ele>
        <time>2022-10-09T09:45:06Z</time>
      </trkpt>
      <trkpt lat="43.38924" lon="6.69332">
        <ele>175.9</ele>
        <time>2022-10-09T09:45:07Z</time>
      </trkpt>
      <trkpt lat="43.38923" lon="6.69331">
        <ele>176</ele>
        <time>2022-10-09T09:45:08Z</time>
      </trkpt>
      <trkpt lat="43.38923" lon="6.69331">
        <ele>176.2</ele>
        <time>2022-10-09T09:45:09Z</time>
      </trkpt>
      <trkpt lat="43.38922" lon="6.6933">
        <ele>176.4</ele>
        <time>2022-10-09T09:45:10Z</time>
      </trkpt>
      <trkpt lat="43.38921" lon="6.6933">
        <ele>176.5</ele>
        <time>2022-10-09T09:45:11Z</time>
      </trkpt>
      <trkpt lat="43.38921" lon="6.69329">
        <ele>176.6</ele>
        <time>2022-10-09T09:45:12Z</time>
      </trkpt>
      <trkpt lat="43.3892" lon="6.69328">
        <ele>176.8</ele>
        <time>2022-10-09T09:45:13Z</time>
      </trkpt>
      <trkpt lat="43.3892" lon="6.69327">
        <ele>177</ele>
        <time>2022-10-09T09:45:14Z</time>
      </trkpt>
      <trkpt lat="43.38919" lon="6.69326">
        <ele>177.2</ele>
        <time>2022-10-09T09:45:15Z</time>
      </trkpt>
      <trkpt lat="43.38919" lon="6.69325">
        <ele>177.3</ele>
        <time>2022-10-09T09:45:16Z</time>
      </trkpt>
      <trkpt lat="43.38918" lon="6.69324">
        <ele>177.5</ele>
        <time>2022-10-09T09:45:17Z</time>
      </trkpt>
      <trkpt lat="43.38918" lon="6.69324">
        <ele>177.7</ele>
        <time>2022-10-09T09:45:18Z</time>
      </trkpt>
      <trkpt lat="43.38917" lon="6.69323">
        <ele>177.8</ele>
        <time>2022-10-09T09:45:19Z</time>
      </trkpt>
      <trkpt lat="43.38916" lon="6.69322">
        <ele>178</ele>
        <time>2022-10-09T09:45:20Z</time>
      </trkpt>
      <trkpt lat="43.38916" lon="6.69321">
        <ele>178.1</ele>
        <time>2022-10-09T09:45:21Z</time>
      </trkpt>
      <trkpt lat="43.38916" lon="6.69321">
        <ele>178.2</ele>
        <time>2022-10-09T09:45:22Z</time>
      </trkpt>
      <trkpt lat="43.38915" lon="6.6932">
        <ele>178.3</ele>
        <time>2022-10-09T09:45:23Z</time>
      </trkpt>
      <trkpt lat="43.38915" lon="6.69319">
        <ele>178.5</ele>
        <time>2022-10-09T09:45:24Z</time>
      </trkpt>
      <trkpt lat="43.38914" lon="6.69319">
        <ele>178.6</ele>
        <time>2022-10-09T09:45:25Z</time>
      </trkpt>
      <trkpt lat="43.38914" lon="6.69318">
        <ele>178.7</ele>
        <time>2022-10-09T09:45:26Z</time>
      </trkpt>
      <trkpt lat="43.38914" lon="6.69317">
        <ele>178.8</ele>
        <time>2022-10-09T09:45:27Z</time>
      </trkpt>
      <trkpt lat="43.38913" lon="6.69316">
        <ele>179</ele>
        <time>2022-10-09T09:45:28Z</time>
      </trkpt>
      <trkpt lat="43.38913" lon="6.69315">
        <ele>179.1</ele>
        <time>2022-10-09T09:45:29Z</time>
      </trkpt>
      <trkpt lat="43.38912" lon="6.69314">
        <ele>179.3</ele>
        <time>2022-10-09T09:45:30Z</time>
      </trkpt>
      <trkpt lat="43.38911" lon="6.69313">
        <ele>179.5</ele>
        <time>2022-10-09T09:45:31Z</time>
      </trkpt>
      <trkpt lat="43.3891" lon="6.69312">
        <ele>179.8</ele>
        <time>2022-10-09T09:45:32Z</time>
      </trkpt>
      <trkpt lat="43.38909" lon="6.69312">
        <ele>180</ele>
        <time>2022-10-09T09:45:33Z</time>
      </trkpt>
      <trkpt lat="43.38908" lon="6.69312">
        <ele>180.1</ele>
        <time>2022-10-09T09:45:34Z</time>
      </trkpt>
      <trkpt lat="43.38907" lon="6.69311">
        <ele>180.2</ele>
        <time>2022-10-09T09:45:35Z</time>
      </trkpt>
      <trkpt lat="43.38906" lon="6.69311">
        <ele>180.4</ele>
        <time>2022-10-09T09:45:36Z</time>
      </trkpt>
      <trkpt lat="43.38905" lon="6.69311">
        <ele>180.5</ele>
        <time>2022-10-09T09:45:37Z</time>
      </trkpt>
      <trkpt lat="43.38904" lon="6.69311">
        <ele>180.6</ele>
        <time>2022-10-09T09:45:38Z</time>
      </trkpt>
      <trkpt lat="43.38904" lon="6.6931">
        <ele>180.8</ele>
        <time>2022-10-09T09:45:39Z</time>
      </trkpt>
      <trkpt lat="43.38903" lon="6.6931">
        <ele>180.9</ele>
        <time>2022-10-09T09:45:40Z</time>
      </trkpt>
      <trkpt lat="43.38902" lon="6.6931">
        <ele>181.1</ele>
        <time>2022-10-09T09:45:41Z</time>
      </trkpt>
      <trkpt lat="43.38901" lon="6.69309">
        <ele>181.2</ele>
        <time>2022-10-09T09:45:42Z</time>
      </trkpt>
      <trkpt lat="43.389" lon="6.69309">
        <ele>181.3</ele>
        <time>2022-10-09T09:45:43Z</time>
      </trkpt>
      <trkpt lat="43.38899" lon="6.69309">
        <ele>181.5</ele>
        <time>2022-10-09T09:45:44Z</time>
      </trkpt>
      <trkpt lat="43.38898" lon="6.69309">
        <ele>181.7</ele>
        <time>2022-10-09T09:45:45Z</time>
      </trkpt>
      <trkpt lat="43.38897" lon="6.69308">
        <ele>181.8</ele>
        <time>2022-10-09T09:45:46Z</time>
      </trkpt>
      <trkpt lat="43.38896" lon="6.69308">
        <ele>182</ele>
        <time>2022-10-09T09:45:47Z</time>
      </trkpt>
      <trkpt lat="43.38895" lon="6.69307">
        <ele>182.1</ele>
        <time>2022-10-09T09:45:48Z</time>
      </trkpt>
      <trkpt lat="43.38894" lon="6.69307">
        <ele>182.3</ele>
        <time>2022-10-09T09:45:49Z</time>
      </trkpt>
      <trkpt lat="43.38893" lon="6.69306">
        <ele>182.4</ele>
        <time>2022-10-09T09:45:50Z</time>
      </trkpt>
      <trkpt lat="43.38892" lon="6.69306">
        <ele>182.5</ele>
        <time>2022-10-09T09:45:51Z</time>
      </trkpt>
      <trkpt lat="43.38891" lon="6.69306">
        <ele>182.7</ele>
        <time>2022-10-09T09:45:52Z</time>
      </trkpt>
      <trkpt lat="43.3889" lon="6.69305">
        <ele>182.9</ele>
        <time>2022-10-09T09:45:53Z</time>
      </trkpt>
      <trkpt lat="43.38889" lon="6.69304">
        <ele>183</ele>
        <time>2022-10-09T09:45:54Z</time>
      </trkpt>
      <trkpt lat="43.38888" lon="6.69304">
        <ele>183.2</ele>
        <time>2022-10-09T09:45:55Z</time>
      </trkpt>
      <trkpt lat="43.38887" lon="6.69303">
        <ele>183.4</ele>
        <time>2022-10-09T09:45:56Z</time>
      </trkpt>
      <trkpt lat="43.38886" lon="6.69302">
        <ele>183.5</ele>
        <time>2022-10-09T09:45:57Z</time>
      </trkpt>
      <trkpt lat="43.38885" lon="6.69302">
        <ele>183.7</ele>
        <time>2022-10-09T09:45:58Z</time>
      </trkpt>
      <trkpt lat="43.38884" lon="6.69301">
        <ele>183.9</ele>
        <time>2022-10-09T09:45:59Z</time>
      </trkpt>
      <trkpt lat="43.38883" lon="6.69301">
        <ele>184</ele>
        <time>2022-10-09T09:46:00Z</time>
      </trkpt>
      <trkpt lat="43.38882" lon="6.693">
        <ele>184.2</ele>
        <time>2022-10-09T09:46:01Z</time>
      </trkpt>
      <trkpt lat="43.38881" lon="6.69299">
        <ele>184.4</ele>
        <time>2022-10-09T09:46:02Z</time>
      </trkpt>
      <trkpt lat="43.3888" lon="6.69299">
        <ele>184.5</ele>
        <time>2022-10-09T09:46:03Z</time>
      </trkpt>
      <trkpt lat="43.38879" lon="6.69298">
        <ele>184.7</ele>
        <time>2022-10-09T09:46:04Z</time>
      </trkpt>
      <trkpt lat="43.38878" lon="6.69297">
        <ele>184.8</ele>
        <time>2022-10-09T09:46:05Z</time>
      </trkpt>
      <trkpt lat="43.38877" lon="6.69297">
        <ele>185</ele>
        <time>2022-10-09T09:46:06Z</time>
      </trkpt>
      <trkpt lat="43.38876" lon="6.69296">
        <ele>185.1</ele>
        <time>2022-10-09T09:46:07Z</time>
      </trkpt>
      <trkpt lat="43.38875" lon="6.69296">
        <ele>185.2</ele>
        <time>2022-10-09T09:46:08Z</time>
      </trkpt>
      <trkpt lat="43.38874" lon="6.69295">
        <ele>185.4</ele>
        <time>2022-10-09T09:46:09Z</time>
      </trkpt>
      <trkpt lat="43.38873" lon="6.69295">
        <ele>185.6</ele>
        <time>2022-10-09T09:46:10Z</time>
      </trkpt>
      <trkpt lat="43.38872" lon="6.69294">
        <ele>185.7</ele>
        <time>2022-10-09T09:46:11Z</time>
      </trkpt>
      <trkpt lat="43.38871" lon="6.69294">
        <ele>185.8</ele>
        <time>2022-10-09T09:46:12Z</time>
      </trkpt>
      <trkpt lat="43.38871" lon="6.69293">
        <ele>186</ele>
        <time>2022-10-09T09:46:13Z</time>
      </trkpt>
      <trkpt lat="43.3887" lon="6.69292">
        <ele>186.1</ele>
        <time>2022-10-09T09:46:14Z</time>
      </trkpt>
      <trkpt lat="43.38869" lon="6.69292">
        <ele>186.3</ele>
        <time>2022-10-09T09:46:15Z</time>
      </trkpt>
      <trkpt lat="43.38868" lon="6.69291">
        <ele>186.4</ele>
        <time>2022-10-09T09:46:16Z</time>
      </trkpt>
      <trkpt lat="43.38867" lon="6.69291">
        <ele>186.6</ele>
        <time>2022-10-09T09:46:17Z</time>
      </trkpt>
      <trkpt lat="43.38866" lon="6.6929">
        <ele>186.7</ele>
        <time>2022-10-09T09:46:18Z</time>
      </trkpt>
      <trkpt lat="43.38866" lon="6.6929">
        <ele>186.8</ele>
        <time>2022-10-09T09:46:19Z</time>
      </trkpt>
      <trkpt lat="43.38865" lon="6.69289">
        <ele>186.9</ele>
        <time>2022-10-09T09:46:20Z</time>
      </trkpt>
      <trkpt lat="43.38864" lon="6.69289">
        <ele>187.1</ele>
        <time>2022-10-09T09:46:21Z</time>
      </trkpt>
      <trkpt lat="43.38863" lon="6.69288">
        <ele>187.3</ele>
        <time>2022-10-09T09:46:22Z</time>
      </trkpt>
      <trkpt lat="43.38862" lon="6.69288">
        <ele>187.4</ele>
        <time>2022-10-09T09:46:23Z</time>
      </trkpt>
      <trkpt lat="43.38861" lon="6.69287">
        <ele>187.6</ele>
        <time>2022-10-09T09:46:24Z</time>
      </trkpt>
      <trkpt lat="43.3886" lon="6.69287">
        <ele>187.7</ele>
        <time>2022-10-09T09:46:25Z</time>
      </trkpt>
      <trkpt lat="43.38859" lon="6.69286">
        <ele>187.9</ele>
        <time>2022-10-09T09:46:26Z</time>
      </trkpt>
      <trkpt lat="43.38858" lon="6.69286">
        <ele>188</ele>
        <time>2022-10-09T09:46:27Z</time>
      </trkpt>
      <trkpt lat="43.38858" lon="6.69285">
        <ele>188.2</ele>
        <time>2022-10-09T09:46:28Z</time>
      </trkpt>
      <trkpt lat="43.38857" lon="6.69285">
        <ele>188.3</ele>
        <time>2022-10-09T09:46:29Z</time>
      </trkpt>
      <trkpt lat="43.38856" lon="6.69284">
        <ele>188.5</ele>
        <time>2022-10-09T09:46:30Z</time>
      </trkpt>
      <trkpt lat="43.38855" lon="6.69284">
        <ele>188.7</ele>
        <time>2022-10-09T09:46:31Z</time>
      </trkpt>
      <trkpt lat="43.38854" lon="6.69284">
        <ele>188.8</ele>
        <time>2022-10-09T09:46:32Z</time>
      </trkpt>
      <trkpt lat="43.38853" lon="6.69284">
        <ele>189</ele>
        <time>2022-10-09T09:46:33Z</time>
      </trkpt>
      <trkpt lat="43.38852" lon="6.69283">
        <ele>189.1</ele>
        <time>2022-10-09T09:46:34Z</time>
      </trkpt>
      <trkpt lat="43.38852" lon="6.69283">
        <ele>189.3</ele>
        <time>2022-10-09T09:46:35Z</time>
      </trkpt>
      <trkpt lat="43.38851" lon="6.69283">
        <ele>189.4</ele>
        <time>2022-10-09T09:46:36Z</time>
      </trkpt>
      <trkpt lat="43.3885" lon="6.69282">
        <ele>189.6</ele>
        <time>2022-10-09T09:46:37Z</time>
      </trkpt>
      <trkpt lat="43.38849" lon="6.69282">
        <ele>189.7</ele>
        <time>2022-10-09T09:46:38Z</time>
      </trkpt>
      <trkpt lat="43.38848" lon="6.69281">
        <ele>189.9</ele>
        <time>2022-10-09T09:46:39Z</time>
      </trkpt>
      <trkpt lat="43.38847" lon="6.69281">
        <ele>190</ele>
        <time>2022-10-09T09:46:40Z</time>
      </trkpt>
      <trkpt lat="43.38847" lon="6.6928">
        <ele>190.2</ele>
        <time>2022-10-09T09:46:41Z</time>
      </trkpt>
      <trkpt lat="43.38846" lon="6.6928">
        <ele>190.4</ele>
        <time>2022-10-09T09:46:42Z</time>
      </trkpt>
      <trkpt lat="43.38845" lon="6.69279">
        <ele>190.5</ele>
        <time>2022-10-09T09:46:43Z</time>
      </trkpt>
      <trkpt lat="43.38845" lon="6.69279">
        <ele>190.6</ele>
        <time>2022-10-09T09:46:44Z</time>
      </trkpt>
      <trkpt lat="43.38844" lon="6.69278">
        <ele>190.8</ele>
        <time>2022-10-09T09:46:45Z</time>
      </trkpt>
      <trkpt lat="43.38843" lon="6.69278">
        <ele>190.9</ele>
        <time>2022-10-09T09:46:46Z</time>
      </trkpt>
      <trkpt lat="43.38843" lon="6.69277">
        <ele>191</ele>
        <time>2022-10-09T09:46:47Z</time>
      </trkpt>
      <trkpt lat="43.38842" lon="6.69277">
        <ele>191.2</ele>
        <time>2022-10-09T09:46:48Z</time>
      </trkpt>
      <trkpt lat="43.38841" lon="6.69276">
        <ele>191.3</ele>
        <time>2022-10-09T09:46:49Z</time>
      </trkpt>
      <trkpt lat="43.38841" lon="6.69275">
        <ele>191.5</ele>
        <time>2022-10-09T09:46:50Z</time>
      </trkpt>
      <trkpt lat="43.3884" lon="6.69275">
        <ele>191.6</ele>
        <time>2022-10-09T09:46:51Z</time>
      </trkpt>
      <trkpt lat="43.38839" lon="6.69274">
        <ele>191.8</ele>
        <time>2022-10-09T09:46:52Z</time>
      </trkpt>
      <trkpt lat="43.38839" lon="6.69274">
        <ele>191.9</ele>
        <time>2022-10-09T09:46:53Z</time>
      </trkpt>
      <trkpt lat="43.38838" lon="6.69273">
        <ele>192.1</ele>
        <time>2022-10-09T09:46:54Z</time>
      </trkpt>
      <trkpt lat="43.38837" lon="6.69273">
        <ele>192.2</ele>
        <time>2022-10-09T09:46:55Z</time>
      </trkpt>
      <trkpt lat="43.38836" lon="6.69273">
        <ele>192.4</ele>
        <time>2022-10-09T09:46:56Z</time>
      </trkpt>
      <trkpt lat="43.38836" lon="6.69272">
        <ele>192.5</ele>
        <time>2022-10-09T09:46:57Z</time>
      </trkpt>
      <trkpt lat="43.38835" lon="6.69271">
        <ele>192.7</ele>
        <time>2022-10-09T09:46:58Z</time>
      </trkpt>
      <trkpt lat="43.38834" lon="6.69271">
        <ele>192.8</ele>
        <time>2022-10-09T09:46:59Z</time>
      </trkpt>
      <trkpt lat="43.38834" lon="6.6927">
        <ele>193</ele>
        <time>2022-10-09T09:47:00Z</time>
      </trkpt>
      <trkpt lat="43.38833" lon="6.69269">
        <ele>193.2</ele>
        <time>2022-10-09T09:47:01Z</time>
      </trkpt>
      <trkpt lat="43.38832" lon="6.69268">
        <ele>193.3</ele>
        <time>2022-10-09T09:47:02Z</time>
      </trkpt>
      <trkpt lat="43.38831" lon="6.69267">
        <ele>193.5</ele>
        <time>2022-10-09T09:47:03Z</time>
      </trkpt>
      <trkpt lat="43.3883" lon="6.69267">
        <ele>193.7</ele>
        <time>2022-10-09T09:47:04Z</time>
      </trkpt>
      <trkpt lat="43.38829" lon="6.69267">
        <ele>193.9</ele>
        <time>2022-10-09T09:47:05Z</time>
      </trkpt>
      <trkpt lat="43.38828" lon="6.69266">
        <ele>194</ele>
        <time>2022-10-09T09:47:06Z</time>
      </trkpt>
      <trkpt lat="43.38827" lon="6.69266">
        <ele>194.1</ele>
        <time>2022-10-09T09:47:07Z</time>
      </trkpt>
      <trkpt lat="43.38826" lon="6.69266">
        <ele>194.2</ele>
        <time>2022-10-09T09:47:08Z</time>
      </trkpt>
      <trkpt lat="43.38825" lon="6.69266">
        <ele>194.3</ele>
        <time>2022-10-09T09:47:09Z</time>
      </trkpt>
      <trkpt lat="43.38825" lon="6.69265">
        <ele>194.5</ele>
        <time>2022-10-09T09:47:10Z</time>
      </trkpt>
      <trkpt lat="43.38824" lon="6.69265">
        <ele>194.6</ele>
        <time>2022-10-09T09:47:11Z</time>
      </trkpt>
      <trkpt lat="43.38823" lon="6.69264">
        <ele>194.7</ele>
        <time>2022-10-09T09:47:12Z</time>
      </trkpt>
      <trkpt lat="43.38822" lon="6.69263">
        <ele>194.9</ele>
        <time>2022-10-09T09:47:13Z</time>
      </trkpt>
      <trkpt lat="43.38822" lon="6.69262">
        <ele>195</ele>
        <time>2022-10-09T09:47:14Z</time>
      </trkpt>
      <trkpt lat="43.38821" lon="6.69261">
        <ele>195.1</ele>
        <time>2022-10-09T09:47:15Z</time>
      </trkpt>
      <trkpt lat="43.3882" lon="6.6926">
        <ele>195.3</ele>
        <time>2022-10-09T09:47:16Z</time>
      </trkpt>
      <trkpt lat="43.3882" lon="6.69259">
        <ele>195.4</ele>
        <time>2022-10-09T09:47:17Z</time>
      </trkpt>
      <trkpt lat="43.38819" lon="6.69258">
        <ele>195.6</ele>
        <time>2022-10-09T09:47:18Z</time>
      </trkpt>
      <trkpt lat="43.38818" lon="6.69258">
        <ele>195.7</ele>
        <time>2022-10-09T09:47:19Z</time>
      </trkpt>
      <trkpt lat="43.38818" lon="6.69257">
        <ele>195.8</ele>
        <time>2022-10-09T09:47:20Z</time>
      </trkpt>
      <trkpt lat="43.38817" lon="6.69256">
        <ele>196</ele>
        <time>2022-10-09T09:47:21Z</time>
      </trkpt>
      <trkpt lat="43.38816" lon="6.69255">
        <ele>196.1</ele>
        <time>2022-10-09T09:47:22Z</time>
      </trkpt>
      <trkpt lat="43.38816" lon="6.69254">
        <ele>196.2</ele>
        <time>2022-10-09T09:47:23Z</time>
      </trkpt>
      <trkpt lat="43.38815" lon="6.69253">
        <ele>196.4</ele>
        <time>2022-10-09T09:47:24Z</time>
      </trkpt>
      <trkpt lat="43.38814" lon="6.69252">
        <ele>196.5</ele>
        <time>2022-10-09T09:47:25Z</time>
      </trkpt>
      <trkpt lat="43.38814" lon="6.69251">
        <ele>196.7</ele>
        <time>2022-10-09T09:47:26Z</time>
      </trkpt>
      <trkpt lat="43.38813" lon="6.69249">
        <ele>196.8</ele>
        <time>2022-10-09T09:47:27Z</time>
      </trkpt>
      <trkpt lat="43.38812" lon="6.69248">
        <ele>196.9</ele>
        <time>2022-10-09T09:47:28Z</time>
      </trkpt>
      <trkpt lat="43.38812" lon="6.69247">
        <ele>197.1</ele>
        <time>2022-10-09T09:47:29Z</time>
      </trkpt>
      <trkpt lat="43.38811" lon="6.69246">
        <ele>197.2</ele>
        <time>2022-10-09T09:47:30Z</time>
      </trkpt>
      <trkpt lat="43.3881" lon="6.69245">
        <ele>197.4</ele>
        <time>2022-10-09T09:47:31Z</time>
      </trkpt>
      <trkpt lat="43.3881" lon="6.69244">
        <ele>197.5</ele>
        <time>2022-10-09T09:47:32Z</time>
      </trkpt>
      <trkpt lat="43.38809" lon="6.69242">
        <ele>197.7</ele>
        <time>2022-10-09T09:47:33Z</time>
      </trkpt>
      <trkpt lat="43.38808" lon="6.69241">
        <ele>197.8</ele>
        <time>2022-10-09T09:47:34Z</time>
      </trkpt>
      <trkpt lat="43.38808" lon="6.6924">
        <ele>198</ele>
        <time>2022-10-09T09:47:35Z</time>
      </trkpt>
      <trkpt lat="43.38807" lon="6.69239">
        <ele>198.1</ele>
        <time>2022-10-09T09:47:36Z</time>
      </trkpt>
      <trkpt lat="43.38807" lon="6.69238">
        <ele>198.3</ele>
        <time>2022-10-09T09:47:37Z</time>
      </trkpt>
      <trkpt lat="43.38806" lon="6.69236">
        <ele>198.4</ele>
        <time>2022-10-09T09:47:38Z</time>
      </trkpt>
      <trkpt lat="43.38806" lon="6.69235">
        <ele>198.5</ele>
        <time>2022-10-09T09:47:39Z</time>
      </trkpt>
      <trkpt lat="43.38805" lon="6.69234">
        <ele>198.7</ele>
        <time>2022-10-09T09:47:40Z</time>
      </trkpt>
      <trkpt lat="43.38805" lon="6.69233">
        <ele>198.8</ele>
        <time>2022-10-09T09:47:41Z</time>
      </trkpt>
      <trkpt lat="43.38804" lon="6.69232">
        <ele>199</ele>
        <time>2022-10-09T09:47:42Z</time>
      </trkpt>
      <trkpt lat="43.38803" lon="6.69231">
        <ele>199.1</ele>
        <time>2022-10-09T09:47:43Z</time>
      </trkpt>
      <trkpt lat="43.38802" lon="6.6923">
        <ele>199.2</ele>
        <time>2022-10-09T09:47:44Z</time>
      </trkpt>
      <trkpt lat="43.38802" lon="6.69229">
        <ele>199.4</ele>
        <time>2022-10-09T09:47:45Z</time>
      </trkpt>
      <trkpt lat="43.38801" lon="6.69228">
        <ele>199.5</ele>
        <time>2022-10-09T09:47:46Z</time>
      </trkpt>
      <trkpt lat="43.388" lon="6.69227">
        <ele>199.7</ele>
        <time>2022-10-09T09:47:47Z</time>
      </trkpt>
      <trkpt lat="43.388" lon="6.69226">
        <ele>199.8</ele>
        <time>2022-10-09T09:47:48Z</time>
      </trkpt>
      <trkpt lat="43.38799" lon="6.69225">
        <ele>199.9</ele>
        <time>2022-10-09T09:47:49Z</time>
      </trkpt>
      <trkpt lat="43.38798" lon="6.69224">
        <ele>200.1</ele>
        <time>2022-10-09T09:47:50Z</time>
      </trkpt>
      <trkpt lat="43.38798" lon="6.69223">
        <ele>200.2</ele>
        <time>2022-10-09T09:47:51Z</time>
      </trkpt>
      <trkpt lat="43.38797" lon="6.69222">
        <ele>200.4</ele>
        <time>2022-10-09T09:47:52Z</time>
      </trkpt>
      <trkpt lat="43.38796" lon="6.69221">
        <ele>200.5</ele>
        <time>2022-10-09T09:47:53Z</time>
      </trkpt>
      <trkpt lat="43.38796" lon="6.6922">
        <ele>200.7</ele>
        <time>2022-10-09T09:47:54Z</time>
      </trkpt>
      <trkpt lat="43.38795" lon="6.69219">
        <ele>200.8</ele>
        <time>2022-10-09T09:47:55Z</time>
      </trkpt>
      <trkpt lat="43.38794" lon="6.69218">
        <ele>201</ele>
        <time>2022-10-09T09:47:56Z</time>
      </trkpt>
      <trkpt lat="43.38794" lon="6.69218">
        <ele>201.1</ele>
        <time>2022-10-09T09:47:57Z</time>
      </trkpt>
      <trkpt lat="43.38793" lon="6.69217">
        <ele>201.3</ele>
        <time>2022-10-09T09:47:58Z</time>
      </trkpt>
      <trkpt lat="43.38793" lon="6.69216">
        <ele>201.4</ele>
        <time>2022-10-09T09:47:59Z</time>
      </trkpt>
      <trkpt lat="43.38792" lon="6.69215">
        <ele>201.5</ele>
        <time>2022-10-09T09:48:00Z</time>
      </trkpt>
      <trkpt lat="43.38791" lon="6.69214">
        <ele>201.7</ele>
        <time>2022-10-09T09:48:01Z</time>
      </trkpt>
      <trkpt lat="43.38791" lon="6.69214">
        <ele>201.8</ele>
        <time>2022-10-09T09:48:02Z</time>
      </trkpt>
      <trkpt lat="43.3879" lon="6.69213">
        <ele>201.9</ele>
        <time>2022-10-09T09:48:03Z</time>
      </trkpt>
      <trkpt lat="43.38789" lon="6.69212">
        <ele>202.1</ele>
        <time>2022-10-09T09:48:04Z</time>
      </trkpt>
      <trkpt lat="43.38788" lon="6.69212">
        <ele>202.2</ele>
        <time>2022-10-09T09:48:05Z</time>
      </trkpt>
      <trkpt lat="43.38788" lon="6.69211">
        <ele>202.3</ele>
        <time>2022-10-09T09:48:06Z</time>
      </trkpt>
      <trkpt lat="43.38787" lon="6.69211">
        <ele>202.4</ele>
        <time>2022-10-09T09:48:07Z</time>
      </trkpt>
      <trkpt lat="43.38786" lon="6.6921">
        <ele>202.6</ele>
        <time>2022-10-09T09:48:08Z</time>
      </trkpt>
      <trkpt lat="43.38785" lon="6.69209">
        <ele>202.7</ele>
        <time>2022-10-09T09:48:09Z</time>
      </trkpt>
      <trkpt lat="43.38785" lon="6.69209">
        <ele>202.8</ele>
        <time>2022-10-09T09:48:10Z</time>
      </trkpt>
      <trkpt lat="43.38784" lon="6.69209">
        <ele>202.9</ele>
        <time>2022-10-09T09:48:11Z</time>
      </trkpt>
      <trkpt lat="43.38783" lon="6.69208">
        <ele>203</ele>
        <time>2022-10-09T09:48:12Z</time>
      </trkpt>
      <trkpt lat="43.38783" lon="6.69208">
        <ele>203.1</ele>
        <time>2022-10-09T09:48:14Z</time>
      </trkpt>
      <trkpt lat="43.3878" lon="6.69204">
        <ele>203.7</ele>
        <time>2022-10-09T09:48:18Z</time>
      </trkpt>
      <trkpt lat="43.38778" lon="6.69203">
        <ele>204</ele>
        <time>2022-10-09T09:48:19Z</time>
      </trkpt>
      <trkpt lat="43.38777" lon="6.69202">
        <ele>204.2</ele>
        <time>2022-10-09T09:48:20Z</time>
      </trkpt>
      <trkpt lat="43.38775" lon="6.69201">
        <ele>204.3</ele>
        <time>2022-10-09T09:48:21Z</time>
      </trkpt>
      <trkpt lat="43.38774" lon="6.69201">
        <ele>204.5</ele>
        <time>2022-10-09T09:48:22Z</time>
      </trkpt>
      <trkpt lat="43.38774" lon="6.692">
        <ele>204.6</ele>
        <time>2022-10-09T09:48:23Z</time>
      </trkpt>
      <trkpt lat="43.38773" lon="6.69199">
        <ele>204.7</ele>
        <time>2022-10-09T09:48:24Z</time>
      </trkpt>
      <trkpt lat="43.38772" lon="6.69198">
        <ele>204.9</ele>
        <time>2022-10-09T09:48:25Z</time>
      </trkpt>
      <trkpt lat="43.38771" lon="6.69197">
        <ele>205</ele>
        <time>2022-10-09T09:48:26Z</time>
      </trkpt>
      <trkpt lat="43.3877" lon="6.69196">
        <ele>205.2</ele>
        <time>2022-10-09T09:48:27Z</time>
      </trkpt>
      <trkpt lat="43.38769" lon="6.69195">
        <ele>205.3</ele>
        <time>2022-10-09T09:48:28Z</time>
      </trkpt>
      <trkpt lat="43.38768" lon="6.69193">
        <ele>205.5</ele>
        <time>2022-10-09T09:48:29Z</time>
      </trkpt>
      <trkpt lat="43.38767" lon="6.69191">
        <ele>205.6</ele>
        <time>2022-10-09T09:48:30Z</time>
      </trkpt>
      <trkpt lat="43.38766" lon="6.6919">
        <ele>205.8</ele>
        <time>2022-10-09T09:48:31Z</time>
      </trkpt>
      <trkpt lat="43.38765" lon="6.69188">
        <ele>206</ele>
        <time>2022-10-09T09:48:32Z</time>
      </trkpt>
      <trkpt lat="43.38764" lon="6.69187">
        <ele>206.1</ele>
        <time>2022-10-09T09:48:33Z</time>
      </trkpt>
      <trkpt lat="43.38763" lon="6.69185">
        <ele>206.3</ele>
        <time>2022-10-09T09:48:34Z</time>
      </trkpt>
      <trkpt lat="43.38762" lon="6.69184">
        <ele>206.4</ele>
        <time>2022-10-09T09:48:35Z</time>
      </trkpt>
      <trkpt lat="43.38761" lon="6.69182">
        <ele>206.5</ele>
        <time>2022-10-09T09:48:36Z</time>
      </trkpt>
      <trkpt lat="43.3876" lon="6.69181">
        <ele>206.7</ele>
        <time>2022-10-09T09:48:37Z</time>
      </trkpt>
      <trkpt lat="43.38759" lon="6.69179">
        <ele>206.8</ele>
        <time>2022-10-09T09:48:38Z</time>
      </trkpt>
      <trkpt lat="43.38758" lon="6.69178">
        <ele>206.9</ele>
        <time>2022-10-09T09:48:39Z</time>
      </trkpt>
      <trkpt lat="43.38757" lon="6.69176">
        <ele>207.1</ele>
        <time>2022-10-09T09:48:40Z</time>
      </trkpt>
      <trkpt lat="43.38756" lon="6.69175">
        <ele>207.2</ele>
        <time>2022-10-09T09:48:41Z</time>
      </trkpt>
      <trkpt lat="43.38755" lon="6.69173">
        <ele>207.3</ele>
        <time>2022-10-09T09:48:42Z</time>
      </trkpt>
      <trkpt lat="43.38754" lon="6.69172">
        <ele>207.4</ele>
        <time>2022-10-09T09:48:43Z</time>
      </trkpt>
      <trkpt lat="43.38752" lon="6.6917">
        <ele>207.5</ele>
        <time>2022-10-09T09:48:44Z</time>
      </trkpt>
      <trkpt lat="43.38751" lon="6.69169">
        <ele>207.6</ele>
        <time>2022-10-09T09:48:45Z</time>
      </trkpt>
      <trkpt lat="43.3875" lon="6.69167">
        <ele>207.7</ele>
        <time>2022-10-09T09:48:46Z</time>
      </trkpt>
      <trkpt lat="43.38748" lon="6.69166">
        <ele>207.8</ele>
        <time>2022-10-09T09:48:47Z</time>
      </trkpt>
      <trkpt lat="43.38747" lon="6.69164">
        <ele>207.9</ele>
        <time>2022-10-09T09:48:48Z</time>
      </trkpt>
      <trkpt lat="43.38745" lon="6.69163">
        <ele>208</ele>
        <time>2022-10-09T09:48:49Z</time>
      </trkpt>
      <trkpt lat="43.38744" lon="6.69162">
        <ele>208.1</ele>
        <time>2022-10-09T09:48:50Z</time>
      </trkpt>
      <trkpt lat="43.38735" lon="6.69155">
        <ele>208.5</ele>
        <time>2022-10-09T09:48:55Z</time>
      </trkpt>
      <trkpt lat="43.38717" lon="6.69143">
        <ele>209</ele>
        <time>2022-10-09T09:49:03Z</time>
      </trkpt>
      <trkpt lat="43.38715" lon="6.69141">
        <ele>209</ele>
        <time>2022-10-09T09:49:04Z</time>
      </trkpt>
      <trkpt lat="43.38714" lon="6.69139">
        <ele>209.1</ele>
        <time>2022-10-09T09:49:05Z</time>
      </trkpt>
      <trkpt lat="43.38712" lon="6.69136">
        <ele>209.1</ele>
        <time>2022-10-09T09:49:06Z</time>
      </trkpt>
      <trkpt lat="43.38712" lon="6.69134">
        <ele>209.2</ele>
        <time>2022-10-09T09:49:07Z</time>
      </trkpt>
      <trkpt lat="43.38712" lon="6.69133">
        <ele>209.2</ele>
        <time>2022-10-09T09:49:08Z</time>
      </trkpt>
      <trkpt lat="43.38711" lon="6.69132">
        <ele>209.7</ele>
        <time>2022-10-09T09:49:09Z</time>
      </trkpt>
      <trkpt lat="43.38711" lon="6.69131">
        <ele>209.8</ele>
        <time>2022-10-09T09:49:10Z</time>
      </trkpt>
      <trkpt lat="43.38711" lon="6.6913">
        <ele>209.9</ele>
        <time>2022-10-09T09:49:11Z</time>
      </trkpt>
      <trkpt lat="43.38711" lon="6.69129">
        <ele>210</ele>
        <time>2022-10-09T09:49:12Z</time>
      </trkpt>
      <trkpt lat="43.38711" lon="6.69128">
        <ele>210.1</ele>
        <time>2022-10-09T09:49:13Z</time>
      </trkpt>
      <trkpt lat="43.38711" lon="6.69127">
        <ele>210.1</ele>
        <time>2022-10-09T09:49:14Z</time>
      </trkpt>
      <trkpt lat="43.38711" lon="6.69126">
        <ele>210.2</ele>
        <time>2022-10-09T09:49:15Z</time>
      </trkpt>
      <trkpt lat="43.38711" lon="6.69125">
        <ele>210.3</ele>
        <time>2022-10-09T09:49:16Z</time>
      </trkpt>
      <trkpt lat="43.38712" lon="6.69124">
        <ele>210.4</ele>
        <time>2022-10-09T09:49:17Z</time>
      </trkpt>
      <trkpt lat="43.38712" lon="6.69123">
        <ele>210.7</ele>
        <time>2022-10-09T09:49:19Z</time>
      </trkpt>
      <trkpt lat="43.38712" lon="6.69121">
        <ele>210.8</ele>
        <time>2022-10-09T09:49:20Z</time>
      </trkpt>
      <trkpt lat="43.38713" lon="6.69121">
        <ele>210.9</ele>
        <time>2022-10-09T09:49:21Z</time>
      </trkpt>
      <trkpt lat="43.38713" lon="6.6912">
        <ele>211</ele>
        <time>2022-10-09T09:49:22Z</time>
      </trkpt>
      <trkpt lat="43.38713" lon="6.69119">
        <ele>211.2</ele>
        <time>2022-10-09T09:49:23Z</time>
      </trkpt>
      <trkpt lat="43.38714" lon="6.69118">
        <ele>211.3</ele>
        <time>2022-10-09T09:49:24Z</time>
      </trkpt>
      <trkpt lat="43.38714" lon="6.69117">
        <ele>211.4</ele>
        <time>2022-10-09T09:49:25Z</time>
      </trkpt>
      <trkpt lat="43.38714" lon="6.69116">
        <ele>211.6</ele>
        <time>2022-10-09T09:49:26Z</time>
      </trkpt>
      <trkpt lat="43.38715" lon="6.69115">
        <ele>211.8</ele>
        <time>2022-10-09T09:49:27Z</time>
      </trkpt>
      <trkpt lat="43.38715" lon="6.69114">
        <ele>211.9</ele>
        <time>2022-10-09T09:49:28Z</time>
      </trkpt>
      <trkpt lat="43.38715" lon="6.69113">
        <ele>212.1</ele>
        <time>2022-10-09T09:49:29Z</time>
      </trkpt>
      <trkpt lat="43.38716" lon="6.69112">
        <ele>212.2</ele>
        <time>2022-10-09T09:49:30Z</time>
      </trkpt>
      <trkpt lat="43.38716" lon="6.69111">
        <ele>212.3</ele>
        <time>2022-10-09T09:49:31Z</time>
      </trkpt>
      <trkpt lat="43.38717" lon="6.6911">
        <ele>212.5</ele>
        <time>2022-10-09T09:49:32Z</time>
      </trkpt>
      <trkpt lat="43.38717" lon="6.69109">
        <ele>212.6</ele>
        <time>2022-10-09T09:49:33Z</time>
      </trkpt>
      <trkpt lat="43.38718" lon="6.69109">
        <ele>212.8</ele>
        <time>2022-10-09T09:49:34Z</time>
      </trkpt>
      <trkpt lat="43.38719" lon="6.69108">
        <ele>212.9</ele>
        <time>2022-10-09T09:49:35Z</time>
      </trkpt>
      <trkpt lat="43.3872" lon="6.69108">
        <ele>213.1</ele>
        <time>2022-10-09T09:49:36Z</time>
      </trkpt>
      <trkpt lat="43.38721" lon="6.69108">
        <ele>213.3</ele>
        <time>2022-10-09T09:49:37Z</time>
      </trkpt>
      <trkpt lat="43.38722" lon="6.69107">
        <ele>213.5</ele>
        <time>2022-10-09T09:49:38Z</time>
      </trkpt>
      <trkpt lat="43.38723" lon="6.69107">
        <ele>213.8</ele>
        <time>2022-10-09T09:49:39Z</time>
      </trkpt>
      <trkpt lat="43.38724" lon="6.69106">
        <ele>214</ele>
        <time>2022-10-09T09:49:40Z</time>
      </trkpt>
      <trkpt lat="43.38725" lon="6.69105">
        <ele>214.2</ele>
        <time>2022-10-09T09:49:41Z</time>
      </trkpt>
      <trkpt lat="43.38726" lon="6.69105">
        <ele>214.3</ele>
        <time>2022-10-09T09:49:42Z</time>
      </trkpt>
      <trkpt lat="43.38727" lon="6.69105">
        <ele>214.5</ele>
        <time>2022-10-09T09:49:43Z</time>
      </trkpt>
      <trkpt lat="43.38728" lon="6.69105">
        <ele>214.6</ele>
        <time>2022-10-09T09:49:44Z</time>
      </trkpt>
      <trkpt lat="43.38729" lon="6.69105">
        <ele>214.7</ele>
        <time>2022-10-09T09:49:45Z</time>
      </trkpt>
      <trkpt lat="43.3873" lon="6.69105">
        <ele>214.9</ele>
        <time>2022-10-09T09:49:46Z</time>
      </trkpt>
      <trkpt lat="43.38731" lon="6.69105">
        <ele>215</ele>
        <time>2022-10-09T09:49:47Z</time>
      </trkpt>
      <trkpt lat="43.38732" lon="6.69105">
        <ele>215.2</ele>
        <time>2022-10-09T09:49:48Z</time>
      </trkpt>
      <trkpt lat="43.38733" lon="6.69104">
        <ele>215.3</ele>
        <time>2022-10-09T09:49:49Z</time>
      </trkpt>
      <trkpt lat="43.38734" lon="6.69104">
        <ele>215.5</ele>
        <time>2022-10-09T09:49:50Z</time>
      </trkpt>
      <trkpt lat="43.38735" lon="6.69104">
        <ele>215.7</ele>
        <time>2022-10-09T09:49:51Z</time>
      </trkpt>
      <trkpt lat="43.38736" lon="6.69104">
        <ele>215.8</ele>
        <time>2022-10-09T09:49:52Z</time>
      </trkpt>
      <trkpt lat="43.38737" lon="6.69104">
        <ele>215.9</ele>
        <time>2022-10-09T09:49:53Z</time>
      </trkpt>
      <trkpt lat="43.38738" lon="6.69104">
        <ele>216.1</ele>
        <time>2022-10-09T09:49:54Z</time>
      </trkpt>
      <trkpt lat="43.38739" lon="6.69104">
        <ele>216.2</ele>
        <time>2022-10-09T09:49:55Z</time>
      </trkpt>
      <trkpt lat="43.3874" lon="6.69103">
        <ele>216.3</ele>
        <time>2022-10-09T09:49:56Z</time>
      </trkpt>
      <trkpt lat="43.38741" lon="6.69103">
        <ele>216.5</ele>
        <time>2022-10-09T09:49:57Z</time>
      </trkpt>
      <trkpt lat="43.38742" lon="6.69103">
        <ele>216.6</ele>
        <time>2022-10-09T09:49:58Z</time>
      </trkpt>
      <trkpt lat="43.38744" lon="6.69103">
        <ele>216.7</ele>
        <time>2022-10-09T09:49:59Z</time>
      </trkpt>
      <trkpt lat="43.38744" lon="6.69103">
        <ele>216.9</ele>
        <time>2022-10-09T09:50:00Z</time>
      </trkpt>
      <trkpt lat="43.38745" lon="6.69103">
        <ele>217</ele>
        <time>2022-10-09T09:50:01Z</time>
      </trkpt>
      <trkpt lat="43.38746" lon="6.69103">
        <ele>217.1</ele>
        <time>2022-10-09T09:50:02Z</time>
      </trkpt>
      <trkpt lat="43.38747" lon="6.69104">
        <ele>217.2</ele>
        <time>2022-10-09T09:50:03Z</time>
      </trkpt>
      <trkpt lat="43.38748" lon="6.69104">
        <ele>217.3</ele>
        <time>2022-10-09T09:50:04Z</time>
      </trkpt>
      <trkpt lat="43.38749" lon="6.69105">
        <ele>217.5</ele>
        <time>2022-10-09T09:50:05Z</time>
      </trkpt>
      <trkpt lat="43.3875" lon="6.69106">
        <ele>217.6</ele>
        <time>2022-10-09T09:50:06Z</time>
      </trkpt>
      <trkpt lat="43.38751" lon="6.69107">
        <ele>217.7</ele>
        <time>2022-10-09T09:50:07Z</time>
      </trkpt>
      <trkpt lat="43.38751" lon="6.69107">
        <ele>217.7</ele>
        <time>2022-10-09T09:50:08Z</time>
      </trkpt>
      <trkpt lat="43.38751" lon="6.69107">
        <ele>217.7</ele>
        <time>2022-10-09T09:50:09Z</time>
      </trkpt>
      <trkpt lat="43.38755" lon="6.69111">
        <ele>218.2</ele>
        <time>2022-10-09T09:50:14Z</time>
      </trkpt>
      <trkpt lat="43.38757" lon="6.69112">
        <ele>218.4</ele>
        <time>2022-10-09T09:50:15Z</time>
      </trkpt>
      <trkpt lat="43.38759" lon="6.69113">
        <ele>218.5</ele>
        <time>2022-10-09T09:50:16Z</time>
      </trkpt>
      <trkpt lat="43.38766" lon="6.69119">
        <ele>219</ele>
        <time>2022-10-09T09:50:20Z</time>
      </trkpt>
      <trkpt lat="43.38767" lon="6.6912">
        <ele>219.1</ele>
        <time>2022-10-09T09:50:21Z</time>
      </trkpt>
      <trkpt lat="43.38769" lon="6.6912">
        <ele>219.2</ele>
        <time>2022-10-09T09:50:22Z</time>
      </trkpt>
      <trkpt lat="43.38773" lon="6.69121">
        <ele>219.4</ele>
        <time>2022-10-09T09:50:24Z</time>
      </trkpt>
      <trkpt lat="43.38774" lon="6.69121">
        <ele>219.4</ele>
        <time>2022-10-09T09:50:25Z</time>
      </trkpt>
      <trkpt lat="43.38776" lon="6.69121">
        <ele>219.5</ele>
        <time>2022-10-09T09:50:26Z</time>
      </trkpt>
      <trkpt lat="43.38778" lon="6.69121">
        <ele>219.6</ele>
        <time>2022-10-09T09:50:27Z</time>
      </trkpt>
      <trkpt lat="43.38779" lon="6.69121">
        <ele>219.7</ele>
        <time>2022-10-09T09:50:28Z</time>
      </trkpt>
      <trkpt lat="43.38787" lon="6.69123">
        <ele>219.9</ele>
        <time>2022-10-09T09:50:32Z</time>
      </trkpt>
      <trkpt lat="43.38801" lon="6.69134">
        <ele>220.1</ele>
        <time>2022-10-09T09:50:38Z</time>
      </trkpt>
      <trkpt lat="43.38809" lon="6.69142">
        <ele>220</ele>
        <time>2022-10-09T09:50:41Z</time>
      </trkpt>
      <trkpt lat="43.38817" lon="6.69143">
        <ele>219.8</ele>
        <time>2022-10-09T09:50:43Z</time>
      </trkpt>
      <trkpt lat="43.3882" lon="6.69142">
        <ele>219.7</ele>
        <time>2022-10-09T09:50:44Z</time>
      </trkpt>
      <trkpt lat="43.38822" lon="6.6914">
        <ele>219.5</ele>
        <time>2022-10-09T09:50:45Z</time>
      </trkpt>
      <trkpt lat="43.38825" lon="6.69138">
        <ele>219.4</ele>
        <time>2022-10-09T09:50:46Z</time>
      </trkpt>
      <trkpt lat="43.38827" lon="6.69136">
        <ele>219.3</ele>
        <time>2022-10-09T09:50:47Z</time>
      </trkpt>
      <trkpt lat="43.38829" lon="6.69134">
        <ele>219.1</ele>
        <time>2022-10-09T09:50:48Z</time>
      </trkpt>
      <trkpt lat="43.38834" lon="6.69129">
        <ele>218.7</ele>
        <time>2022-10-09T09:50:50Z</time>
      </trkpt>
      <trkpt lat="43.38842" lon="6.69123">
        <ele>218.1</ele>
        <time>2022-10-09T09:50:52Z</time>
      </trkpt>
      <trkpt lat="43.38846" lon="6.6912">
        <ele>217.7</ele>
        <time>2022-10-09T09:50:53Z</time>
      </trkpt>
      <trkpt lat="43.3885" lon="6.69116">
        <ele>217.4</ele>
        <time>2022-10-09T09:50:54Z</time>
      </trkpt>
      <trkpt lat="43.38858" lon="6.69109">
        <ele>216.7</ele>
        <time>2022-10-09T09:50:56Z</time>
      </trkpt>
      <trkpt lat="43.38862" lon="6.69105">
        <ele>216.4</ele>
        <time>2022-10-09T09:50:57Z</time>
      </trkpt>
      <trkpt lat="43.38865" lon="6.69102">
        <ele>216.1</ele>
        <time>2022-10-09T09:50:58Z</time>
      </trkpt>
      <trkpt lat="43.38867" lon="6.691">
        <ele>215.8</ele>
        <time>2022-10-09T09:50:59Z</time>
      </trkpt>
      <trkpt lat="43.38869" lon="6.69099">
        <ele>215.7</ele>
        <time>2022-10-09T09:51:00Z</time>
      </trkpt>
      <trkpt lat="43.3887" lon="6.69099">
        <ele>215.6</ele>
        <time>2022-10-09T09:51:01Z</time>
      </trkpt>
      <trkpt lat="43.3887" lon="6.69099">
        <ele>215.6</ele>
        <time>2022-10-09T09:51:03Z</time>
      </trkpt>
      <trkpt lat="43.3887" lon="6.69098">
        <ele>215.6</ele>
        <time>2022-10-09T09:51:04Z</time>
      </trkpt>
      <trkpt lat="43.38877" lon="6.69094">
        <ele>214.8</ele>
        <time>2022-10-09T09:51:52Z</time>
      </trkpt>
      <trkpt lat="43.3888" lon="6.69092">
        <ele>214.5</ele>
        <time>2022-10-09T09:51:53Z</time>
      </trkpt>
      <trkpt lat="43.38884" lon="6.69089">
        <ele>214</ele>
        <time>2022-10-09T09:51:54Z</time>
      </trkpt>
      <trkpt lat="43.38888" lon="6.69085">
        <ele>213.4</ele>
        <time>2022-10-09T09:51:55Z</time>
      </trkpt>
      <trkpt lat="43.38897" lon="6.69075">
        <ele>212</ele>
        <time>2022-10-09T09:51:57Z</time>
      </trkpt>
      <trkpt lat="43.38902" lon="6.6907">
        <ele>211.4</ele>
        <time>2022-10-09T09:51:58Z</time>
      </trkpt>
      <trkpt lat="43.38913" lon="6.6906">
        <ele>209.9</ele>
        <time>2022-10-09T09:52:00Z</time>
      </trkpt>
      <trkpt lat="43.38919" lon="6.69056">
        <ele>209.2</ele>
        <time>2022-10-09T09:52:01Z</time>
      </trkpt>
      <trkpt lat="43.38925" lon="6.69053">
        <ele>208.5</ele>
        <time>2022-10-09T09:52:02Z</time>
      </trkpt>
      <trkpt lat="43.38938" lon="6.69048">
        <ele>207.2</ele>
        <time>2022-10-09T09:52:04Z</time>
      </trkpt>
      <trkpt lat="43.38957" lon="6.69043">
        <ele>205.3</ele>
        <time>2022-10-09T09:52:07Z</time>
      </trkpt>
      <trkpt lat="43.38964" lon="6.69042">
        <ele>204.7</ele>
        <time>2022-10-09T09:52:08Z</time>
      </trkpt>
      <trkpt lat="43.3897" lon="6.69041">
        <ele>204</ele>
        <time>2022-10-09T09:52:09Z</time>
      </trkpt>
      <trkpt lat="43.38977" lon="6.6904">
        <ele>203.2</ele>
        <time>2022-10-09T09:52:10Z</time>
      </trkpt>
      <trkpt lat="43.38983" lon="6.69038">
        <ele>202.4</ele>
        <time>2022-10-09T09:52:11Z</time>
      </trkpt>
      <trkpt lat="43.3899" lon="6.69037">
        <ele>201.4</ele>
        <time>2022-10-09T09:52:12Z</time>
      </trkpt>
      <trkpt lat="43.38997" lon="6.69034">
        <ele>200.5</ele>
        <time>2022-10-09T09:52:13Z</time>
      </trkpt>
      <trkpt lat="43.39004" lon="6.69032">
        <ele>199.5</ele>
        <time>2022-10-09T09:52:14Z</time>
      </trkpt>
      <trkpt lat="43.39018" lon="6.69028">
        <ele>197.7</ele>
        <time>2022-10-09T09:52:16Z</time>
      </trkpt>
      <trkpt lat="43.39024" lon="6.69026">
        <ele>196.7</ele>
        <time>2022-10-09T09:52:17Z</time>
      </trkpt>
      <trkpt lat="43.3903" lon="6.69023">
        <ele>195.8</ele>
        <time>2022-10-09T09:52:18Z</time>
      </trkpt>
      <trkpt lat="43.39036" lon="6.6902">
        <ele>194.9</ele>
        <time>2022-10-09T09:52:19Z</time>
      </trkpt>
      <trkpt lat="43.39041" lon="6.69018">
        <ele>194</ele>
        <time>2022-10-09T09:52:20Z</time>
      </trkpt>
      <trkpt lat="43.39045" lon="6.69015">
        <ele>193.2</ele>
        <time>2022-10-09T09:52:21Z</time>
      </trkpt>
      <trkpt lat="43.39049" lon="6.69012">
        <ele>192.4</ele>
        <time>2022-10-09T09:52:22Z</time>
      </trkpt>
      <trkpt lat="43.39053" lon="6.6901">
        <ele>191.7</ele>
        <time>2022-10-09T09:52:23Z</time>
      </trkpt>
      <trkpt lat="43.39057" lon="6.69007">
        <ele>191.1</ele>
        <time>2022-10-09T09:52:24Z</time>
      </trkpt>
      <trkpt lat="43.3906" lon="6.69003">
        <ele>190.3</ele>
        <time>2022-10-09T09:52:25Z</time>
      </trkpt>
      <trkpt lat="43.39064" lon="6.69">
        <ele>189.6</ele>
        <time>2022-10-09T09:52:26Z</time>
      </trkpt>
      <trkpt lat="43.39067" lon="6.68998">
        <ele>188.8</ele>
        <time>2022-10-09T09:52:27Z</time>
      </trkpt>
      <trkpt lat="43.3907" lon="6.68997">
        <ele>188.2</ele>
        <time>2022-10-09T09:52:28Z</time>
      </trkpt>
      <trkpt lat="43.39073" lon="6.68997">
        <ele>187.5</ele>
        <time>2022-10-09T09:52:29Z</time>
      </trkpt>
      <trkpt lat="43.39079" lon="6.68996">
        <ele>186.1</ele>
        <time>2022-10-09T09:52:31Z</time>
      </trkpt>
      <trkpt lat="43.39086" lon="6.68993">
        <ele>184.6</ele>
        <time>2022-10-09T09:52:33Z</time>
      </trkpt>
      <trkpt lat="43.39092" lon="6.68988">
        <ele>182.9</ele>
        <time>2022-10-09T09:52:35Z</time>
      </trkpt>
      <trkpt lat="43.39095" lon="6.68985">
        <ele>182.1</ele>
        <time>2022-10-09T09:52:36Z</time>
      </trkpt>
      <trkpt lat="43.39097" lon="6.68981">
        <ele>181.3</ele>
        <time>2022-10-09T09:52:37Z</time>
      </trkpt>
      <trkpt lat="43.391" lon="6.68976">
        <ele>180.4</ele>
        <time>2022-10-09T09:52:38Z</time>
      </trkpt>
      <trkpt lat="43.39102" lon="6.68971">
        <ele>179.5</ele>
        <time>2022-10-09T09:52:39Z</time>
      </trkpt>
      <trkpt lat="43.39107" lon="6.68955">
        <ele>177</ele>
        <time>2022-10-09T09:52:42Z</time>
      </trkpt>
      <trkpt lat="43.39113" lon="6.68947">
        <ele>175.4</ele>
        <time>2022-10-09T09:52:44Z</time>
      </trkpt>
      <trkpt lat="43.39117" lon="6.68945">
        <ele>174.6</ele>
        <time>2022-10-09T09:52:45Z</time>
      </trkpt>
      <trkpt lat="43.3912" lon="6.68944">
        <ele>174</ele>
        <time>2022-10-09T09:52:46Z</time>
      </trkpt>
      <trkpt lat="43.39121" lon="6.68943">
        <ele>173.6</ele>
        <time>2022-10-09T09:52:47Z</time>
      </trkpt>
      <trkpt lat="43.39122" lon="6.68943">
        <ele>173.5</ele>
        <time>2022-10-09T09:52:48Z</time>
      </trkpt>
      <trkpt lat="43.39122" lon="6.68943">
        <ele>173.4</ele>
        <time>2022-10-09T09:52:50Z</time>
      </trkpt>
      <trkpt lat="43.39127" lon="6.68944">
        <ele>172.3</ele>
        <time>2022-10-09T09:53:17Z</time>
      </trkpt>
      <trkpt lat="43.39129" lon="6.68945">
        <ele>171.8</ele>
        <time>2022-10-09T09:53:18Z</time>
      </trkpt>
      <trkpt lat="43.39132" lon="6.68946">
        <ele>171.2</ele>
        <time>2022-10-09T09:53:19Z</time>
      </trkpt>
      <trkpt lat="43.39135" lon="6.68947">
        <ele>170.6</ele>
        <time>2022-10-09T09:53:20Z</time>
      </trkpt>
      <trkpt lat="43.39139" lon="6.68947">
        <ele>169.9</ele>
        <time>2022-10-09T09:53:21Z</time>
      </trkpt>
      <trkpt lat="43.39146" lon="6.68947">
        <ele>168.4</ele>
        <time>2022-10-09T09:53:23Z</time>
      </trkpt>
      <trkpt lat="43.3915" lon="6.68946">
        <ele>167.6</ele>
        <time>2022-10-09T09:53:24Z</time>
      </trkpt>
      <trkpt lat="43.39153" lon="6.68944">
        <ele>166.8</ele>
        <time>2022-10-09T09:53:25Z</time>
      </trkpt>
      <trkpt lat="43.39157" lon="6.68941">
        <ele>165.8</ele>
        <time>2022-10-09T09:53:26Z</time>
      </trkpt>
      <trkpt lat="43.3916" lon="6.68937">
        <ele>164.9</ele>
        <time>2022-10-09T09:53:27Z</time>
      </trkpt>
      <trkpt lat="43.39164" lon="6.68933">
        <ele>164</ele>
        <time>2022-10-09T09:53:28Z</time>
      </trkpt>
      <trkpt lat="43.39177" lon="6.68921">
        <ele>161.3</ele>
        <time>2022-10-09T09:53:31Z</time>
      </trkpt>
      <trkpt lat="43.39182" lon="6.68918">
        <ele>160.4</ele>
        <time>2022-10-09T09:53:32Z</time>
      </trkpt>
      <trkpt lat="43.39194" lon="6.68915">
        <ele>158.6</ele>
        <time>2022-10-09T09:53:34Z</time>
      </trkpt>
      <trkpt lat="43.39201" lon="6.68916">
        <ele>157.7</ele>
        <time>2022-10-09T09:53:35Z</time>
      </trkpt>
      <trkpt lat="43.39207" lon="6.68916">
        <ele>156.8</ele>
        <time>2022-10-09T09:53:36Z</time>
      </trkpt>
      <trkpt lat="43.39214" lon="6.68916">
        <ele>155.8</ele>
        <time>2022-10-09T09:53:37Z</time>
      </trkpt>
      <trkpt lat="43.39236" lon="6.68914">
        <ele>153.8</ele>
        <time>2022-10-09T09:53:40Z</time>
      </trkpt>
      <trkpt lat="43.39243" lon="6.68914">
        <ele>153.4</ele>
        <time>2022-10-09T09:53:41Z</time>
      </trkpt>
      <trkpt lat="43.3925" lon="6.68914">
        <ele>152.9</ele>
        <time>2022-10-09T09:53:42Z</time>
      </trkpt>
      <trkpt lat="43.39256" lon="6.68915">
        <ele>152.5</ele>
        <time>2022-10-09T09:53:43Z</time>
      </trkpt>
      <trkpt lat="43.39259" lon="6.68916">
        <ele>152.1</ele>
        <time>2022-10-09T09:53:44Z</time>
      </trkpt>
      <trkpt lat="43.39262" lon="6.68917">
        <ele>151.8</ele>
        <time>2022-10-09T09:53:45Z</time>
      </trkpt>
      <trkpt lat="43.39265" lon="6.68919">
        <ele>151.4</ele>
        <time>2022-10-09T09:53:46Z</time>
      </trkpt>
      <trkpt lat="43.39269" lon="6.6892">
        <ele>151</ele>
        <time>2022-10-09T09:53:47Z</time>
      </trkpt>
      <trkpt lat="43.39273" lon="6.68921">
        <ele>150.4</ele>
        <time>2022-10-09T09:53:48Z</time>
      </trkpt>
      <trkpt lat="43.39277" lon="6.6892">
        <ele>149.8</ele>
        <time>2022-10-09T09:53:49Z</time>
      </trkpt>
      <trkpt lat="43.39282" lon="6.68918">
        <ele>149</ele>
        <time>2022-10-09T09:53:50Z</time>
      </trkpt>
      <trkpt lat="43.39287" lon="6.68916">
        <ele>148.2</ele>
        <time>2022-10-09T09:53:51Z</time>
      </trkpt>
      <trkpt lat="43.39292" lon="6.68913">
        <ele>147.2</ele>
        <time>2022-10-09T09:53:52Z</time>
      </trkpt>
      <trkpt lat="43.39298" lon="6.68909">
        <ele>146.2</ele>
        <time>2022-10-09T09:53:53Z</time>
      </trkpt>
      <trkpt lat="43.39305" lon="6.68905">
        <ele>145.3</ele>
        <time>2022-10-09T09:53:54Z</time>
      </trkpt>
      <trkpt lat="43.39311" lon="6.689">
        <ele>144.3</ele>
        <time>2022-10-09T09:53:55Z</time>
      </trkpt>
      <trkpt lat="43.39324" lon="6.6889">
        <ele>142.6</ele>
        <time>2022-10-09T09:53:57Z</time>
      </trkpt>
      <trkpt lat="43.39329" lon="6.68886">
        <ele>141.9</ele>
        <time>2022-10-09T09:53:58Z</time>
      </trkpt>
      <trkpt lat="43.39333" lon="6.68884">
        <ele>141.2</ele>
        <time>2022-10-09T09:53:59Z</time>
      </trkpt>
      <trkpt lat="43.39337" lon="6.68883">
        <ele>140.6</ele>
        <time>2022-10-09T09:54:00Z</time>
      </trkpt>
      <trkpt lat="43.39341" lon="6.68883">
        <ele>139.9</ele>
        <time>2022-10-09T09:54:01Z</time>
      </trkpt>
      <trkpt lat="43.39345" lon="6.68885">
        <ele>139</ele>
        <time>2022-10-09T09:54:02Z</time>
      </trkpt>
      <trkpt lat="43.39351" lon="6.68887">
        <ele>137.9</ele>
        <time>2022-10-09T09:54:03Z</time>
      </trkpt>
      <trkpt lat="43.39357" lon="6.68888">
        <ele>136.7</ele>
        <time>2022-10-09T09:54:04Z</time>
      </trkpt>
      <trkpt lat="43.39364" lon="6.6889">
        <ele>135.7</ele>
        <time>2022-10-09T09:54:05Z</time>
      </trkpt>
      <trkpt lat="43.39369" lon="6.68892">
        <ele>134.8</ele>
        <time>2022-10-09T09:54:06Z</time>
      </trkpt>
      <trkpt lat="43.39373" lon="6.68895">
        <ele>134.1</ele>
        <time>2022-10-09T09:54:07Z</time>
      </trkpt>
      <trkpt lat="43.39377" lon="6.68897">
        <ele>133.5</ele>
        <time>2022-10-09T09:54:08Z</time>
      </trkpt>
      <trkpt lat="43.39381" lon="6.68899">
        <ele>132.9</ele>
        <time>2022-10-09T09:54:09Z</time>
      </trkpt>
      <trkpt lat="43.39385" lon="6.68901">
        <ele>132.2</ele>
        <time>2022-10-09T09:54:10Z</time>
      </trkpt>
      <trkpt lat="43.39395" lon="6.68906">
        <ele>130.6</ele>
        <time>2022-10-09T09:54:12Z</time>
      </trkpt>
      <trkpt lat="43.39406" lon="6.6891">
        <ele>129</ele>
        <time>2022-10-09T09:54:14Z</time>
      </trkpt>
      <trkpt lat="43.39417" lon="6.68916">
        <ele>127.5</ele>
        <time>2022-10-09T09:54:16Z</time>
      </trkpt>
      <trkpt lat="43.39421" lon="6.68919">
        <ele>126.9</ele>
        <time>2022-10-09T09:54:17Z</time>
      </trkpt>
      <trkpt lat="43.39423" lon="6.68921">
        <ele>126.5</ele>
        <time>2022-10-09T09:54:18Z</time>
      </trkpt>
      <trkpt lat="43.39425" lon="6.68922">
        <ele>126.2</ele>
        <time>2022-10-09T09:54:19Z</time>
      </trkpt>
      <trkpt lat="43.39426" lon="6.68922">
        <ele>126</ele>
        <time>2022-10-09T09:54:20Z</time>
      </trkpt>
      <trkpt lat="43.39428" lon="6.68923">
        <ele>125.8</ele>
        <time>2022-10-09T09:54:21Z</time>
      </trkpt>
      <trkpt lat="43.39428" lon="6.68922">
        <ele>125.7</ele>
        <time>2022-10-09T09:54:22Z</time>
      </trkpt>
      <trkpt lat="43.39429" lon="6.68923">
        <ele>125.7</ele>
        <time>2022-10-09T09:54:23Z</time>
      </trkpt>
      <trkpt lat="43.39429" lon="6.68923">
        <ele>125.7</ele>
        <time>2022-10-09T09:54:24Z</time>
      </trkpt>
      <trkpt lat="43.39433" lon="6.68925">
        <ele>125</ele>
        <time>2022-10-09T09:55:06Z</time>
      </trkpt>
      <trkpt lat="43.39438" lon="6.68924">
        <ele>124.1</ele>
        <time>2022-10-09T09:55:08Z</time>
      </trkpt>
      <trkpt lat="43.39455" lon="6.68914">
        <ele>121.2</ele>
        <time>2022-10-09T09:55:13Z</time>
      </trkpt>
      <trkpt lat="43.39459" lon="6.6891">
        <ele>120.6</ele>
        <time>2022-10-09T09:55:14Z</time>
      </trkpt>
      <trkpt lat="43.39463" lon="6.68907">
        <ele>119.9</ele>
        <time>2022-10-09T09:55:15Z</time>
      </trkpt>
      <trkpt lat="43.39467" lon="6.68904">
        <ele>119.4</ele>
        <time>2022-10-09T09:55:16Z</time>
      </trkpt>
      <trkpt lat="43.3947" lon="6.68901">
        <ele>118.9</ele>
        <time>2022-10-09T09:55:17Z</time>
      </trkpt>
      <trkpt lat="43.39474" lon="6.68898">
        <ele>118.4</ele>
        <time>2022-10-09T09:55:18Z</time>
      </trkpt>
      <trkpt lat="43.39477" lon="6.68895">
        <ele>117.9</ele>
        <time>2022-10-09T09:55:19Z</time>
      </trkpt>
      <trkpt lat="43.3948" lon="6.68892">
        <ele>117.5</ele>
        <time>2022-10-09T09:55:20Z</time>
      </trkpt>
      <trkpt lat="43.39483" lon="6.6889">
        <ele>117.2</ele>
        <time>2022-10-09T09:55:21Z</time>
      </trkpt>
      <trkpt lat="43.39485" lon="6.68888">
        <ele>116.9</ele>
        <time>2022-10-09T09:55:22Z</time>
      </trkpt>
      <trkpt lat="43.39488" lon="6.68887">
        <ele>116.6</ele>
        <time>2022-10-09T09:55:23Z</time>
      </trkpt>
      <trkpt lat="43.3949" lon="6.68885">
        <ele>116.2</ele>
        <time>2022-10-09T09:55:24Z</time>
      </trkpt>
      <trkpt lat="43.39492" lon="6.68883">
        <ele>115.9</ele>
        <time>2022-10-09T09:55:25Z</time>
      </trkpt>
      <trkpt lat="43.39498" lon="6.6888">
        <ele>114.9</ele>
        <time>2022-10-09T09:55:27Z</time>
      </trkpt>
      <trkpt lat="43.39501" lon="6.68878">
        <ele>114.4</ele>
        <time>2022-10-09T09:55:28Z</time>
      </trkpt>
      <trkpt lat="43.3951" lon="6.6887">
        <ele>112.7</ele>
        <time>2022-10-09T09:55:31Z</time>
      </trkpt>
      <trkpt lat="43.39512" lon="6.68868">
        <ele>112.2</ele>
        <time>2022-10-09T09:55:32Z</time>
      </trkpt>
      <trkpt lat="43.39514" lon="6.68866">
        <ele>111.7</ele>
        <time>2022-10-09T09:55:33Z</time>
      </trkpt>
      <trkpt lat="43.3952" lon="6.68859">
        <ele>110.4</ele>
        <time>2022-10-09T09:55:35Z</time>
      </trkpt>
      <trkpt lat="43.39523" lon="6.68856">
        <ele>109.8</ele>
        <time>2022-10-09T09:55:36Z</time>
      </trkpt>
      <trkpt lat="43.39525" lon="6.68851">
        <ele>109.2</ele>
        <time>2022-10-09T09:55:37Z</time>
      </trkpt>
      <trkpt lat="43.39527" lon="6.68847">
        <ele>108.5</ele>
        <time>2022-10-09T09:55:38Z</time>
      </trkpt>
      <trkpt lat="43.39529" lon="6.68842">
        <ele>107.9</ele>
        <time>2022-10-09T09:55:39Z</time>
      </trkpt>
      <trkpt lat="43.3953" lon="6.68837">
        <ele>107.2</ele>
        <time>2022-10-09T09:55:40Z</time>
      </trkpt>
      <trkpt lat="43.39531" lon="6.68833">
        <ele>106.6</ele>
        <time>2022-10-09T09:55:41Z</time>
      </trkpt>
      <trkpt lat="43.39532" lon="6.68829">
        <ele>105.9</ele>
        <time>2022-10-09T09:55:42Z</time>
      </trkpt>
      <trkpt lat="43.39532" lon="6.68825">
        <ele>105.8</ele>
        <time>2022-10-09T09:55:43Z</time>
      </trkpt>
      <trkpt lat="43.39531" lon="6.68822">
        <ele>105.6</ele>
        <time>2022-10-09T09:55:44Z</time>
      </trkpt>
      <trkpt lat="43.39529" lon="6.68818">
        <ele>105.4</ele>
        <time>2022-10-09T09:55:45Z</time>
      </trkpt>
      <trkpt lat="43.39527" lon="6.68813">
        <ele>105.2</ele>
        <time>2022-10-09T09:55:46Z</time>
      </trkpt>
      <trkpt lat="43.39525" lon="6.68808">
        <ele>104.9</ele>
        <time>2022-10-09T09:55:47Z</time>
      </trkpt>
      <trkpt lat="43.39516" lon="6.6879">
        <ele>104</ele>
        <time>2022-10-09T09:55:51Z</time>
      </trkpt>
      <trkpt lat="43.39514" lon="6.68785">
        <ele>103.8</ele>
        <time>2022-10-09T09:55:52Z</time>
      </trkpt>
      <trkpt lat="43.39511" lon="6.68781">
        <ele>103.7</ele>
        <time>2022-10-09T09:55:53Z</time>
      </trkpt>
      <trkpt lat="43.39496" lon="6.6876">
        <ele>102.6</ele>
        <time>2022-10-09T09:55:58Z</time>
      </trkpt>
      <trkpt lat="43.39491" lon="6.68755">
        <ele>102.2</ele>
        <time>2022-10-09T09:55:59Z</time>
      </trkpt>
      <trkpt lat="43.39486" lon="6.6875">
        <ele>101.9</ele>
        <time>2022-10-09T09:56:00Z</time>
      </trkpt>
      <trkpt lat="43.39481" lon="6.68744">
        <ele>101.5</ele>
        <time>2022-10-09T09:56:01Z</time>
      </trkpt>
      <trkpt lat="43.39473" lon="6.68728">
        <ele>101.1</ele>
        <time>2022-10-09T09:56:03Z</time>
      </trkpt>
      <trkpt lat="43.3947" lon="6.68721">
        <ele>101</ele>
        <time>2022-10-09T09:56:04Z</time>
      </trkpt>
      <trkpt lat="43.39467" lon="6.68713">
        <ele>100.9</ele>
        <time>2022-10-09T09:56:05Z</time>
      </trkpt>
      <trkpt lat="43.39464" lon="6.68705">
        <ele>100.9</ele>
        <time>2022-10-09T09:56:06Z</time>
      </trkpt>
      <trkpt lat="43.39462" lon="6.68699">
        <ele>100.9</ele>
        <time>2022-10-09T09:56:07Z</time>
      </trkpt>
      <trkpt lat="43.39461" lon="6.68693">
        <ele>101</ele>
        <time>2022-10-09T09:56:08Z</time>
      </trkpt>
      <trkpt lat="43.39461" lon="6.68688">
        <ele>100.9</ele>
        <time>2022-10-09T09:56:09Z</time>
      </trkpt>
      <trkpt lat="43.39461" lon="6.68683">
        <ele>100.6</ele>
        <time>2022-10-09T09:56:10Z</time>
      </trkpt>
      <trkpt lat="43.39462" lon="6.68678">
        <ele>100.3</ele>
        <time>2022-10-09T09:56:11Z</time>
      </trkpt>
      <trkpt lat="43.39463" lon="6.68672">
        <ele>100</ele>
        <time>2022-10-09T09:56:12Z</time>
      </trkpt>
      <trkpt lat="43.39465" lon="6.68658">
        <ele>99.1</ele>
        <time>2022-10-09T09:56:14Z</time>
      </trkpt>
      <trkpt lat="43.39466" lon="6.68643">
        <ele>98</ele>
        <time>2022-10-09T09:56:16Z</time>
      </trkpt>
      <trkpt lat="43.39467" lon="6.68635">
        <ele>97.5</ele>
        <time>2022-10-09T09:56:17Z</time>
      </trkpt>
      <trkpt lat="43.39468" lon="6.68627">
        <ele>96.9</ele>
        <time>2022-10-09T09:56:18Z</time>
      </trkpt>
      <trkpt lat="43.39474" lon="6.68601">
        <ele>95.3</ele>
        <time>2022-10-09T09:56:21Z</time>
      </trkpt>
      <trkpt lat="43.39475" lon="6.68593">
        <ele>94.9</ele>
        <time>2022-10-09T09:56:22Z</time>
      </trkpt>
      <trkpt lat="43.39478" lon="6.68575">
        <ele>94</ele>
        <time>2022-10-09T09:56:24Z</time>
      </trkpt>
      <trkpt lat="43.3948" lon="6.68565">
        <ele>93.7</ele>
        <time>2022-10-09T09:56:25Z</time>
      </trkpt>
      <trkpt lat="43.39481" lon="6.68556">
        <ele>93.4</ele>
        <time>2022-10-09T09:56:26Z</time>
      </trkpt>
      <trkpt lat="43.39482" lon="6.68547">
        <ele>93.1</ele>
        <time>2022-10-09T09:56:27Z</time>
      </trkpt>
      <trkpt lat="43.39482" lon="6.6854">
        <ele>92.9</ele>
        <time>2022-10-09T09:56:28Z</time>
      </trkpt>
      <trkpt lat="43.39482" lon="6.68534">
        <ele>92.8</ele>
        <time>2022-10-09T09:56:29Z</time>
      </trkpt>
      <trkpt lat="43.39481" lon="6.6853">
        <ele>92.4</ele>
        <time>2022-10-09T09:56:30Z</time>
      </trkpt>
      <trkpt lat="43.39478" lon="6.68527">
        <ele>92</ele>
        <time>2022-10-09T09:56:31Z</time>
      </trkpt>
      <trkpt lat="43.39475" lon="6.68525">
        <ele>91.5</ele>
        <time>2022-10-09T09:56:32Z</time>
      </trkpt>
      <trkpt lat="43.39468" lon="6.68522">
        <ele>90.6</ele>
        <time>2022-10-09T09:56:34Z</time>
      </trkpt>
      <trkpt lat="43.39464" lon="6.6852">
        <ele>90.1</ele>
        <time>2022-10-09T09:56:35Z</time>
      </trkpt>
      <trkpt lat="43.39461" lon="6.6852">
        <ele>89.5</ele>
        <time>2022-10-09T09:56:36Z</time>
      </trkpt>
      <trkpt lat="43.39457" lon="6.6852">
        <ele>89</ele>
        <time>2022-10-09T09:56:37Z</time>
      </trkpt>
      <trkpt lat="43.39454" lon="6.6852">
        <ele>88.5</ele>
        <time>2022-10-09T09:56:38Z</time>
      </trkpt>
      <trkpt lat="43.39451" lon="6.68521">
        <ele>88</ele>
        <time>2022-10-09T09:56:39Z</time>
      </trkpt>
      <trkpt lat="43.39444" lon="6.68519">
        <ele>86.7</ele>
        <time>2022-10-09T09:56:41Z</time>
      </trkpt>
      <trkpt lat="43.3944" lon="6.68516">
        <ele>85.9</ele>
        <time>2022-10-09T09:56:42Z</time>
      </trkpt>
      <trkpt lat="43.39436" lon="6.68511">
        <ele>85</ele>
        <time>2022-10-09T09:56:43Z</time>
      </trkpt>
      <trkpt lat="43.39433" lon="6.68507">
        <ele>84.3</ele>
        <time>2022-10-09T09:56:44Z</time>
      </trkpt>
      <trkpt lat="43.39429" lon="6.68502">
        <ele>83.6</ele>
        <time>2022-10-09T09:56:45Z</time>
      </trkpt>
      <trkpt lat="43.39426" lon="6.68497">
        <ele>82.9</ele>
        <time>2022-10-09T09:56:46Z</time>
      </trkpt>
      <trkpt lat="43.3942" lon="6.68487">
        <ele>81.7</ele>
        <time>2022-10-09T09:56:48Z</time>
      </trkpt>
      <trkpt lat="43.39416" lon="6.68483">
        <ele>81.2</ele>
        <time>2022-10-09T09:56:49Z</time>
      </trkpt>
      <trkpt lat="43.39408" lon="6.68476">
        <ele>80.1</ele>
        <time>2022-10-09T09:56:51Z</time>
      </trkpt>
      <trkpt lat="43.39405" lon="6.6847">
        <ele>79.5</ele>
        <time>2022-10-09T09:56:52Z</time>
      </trkpt>
      <trkpt lat="43.39401" lon="6.68464">
        <ele>79</ele>
        <time>2022-10-09T09:56:53Z</time>
      </trkpt>
      <trkpt lat="43.39395" lon="6.68452">
        <ele>78.1</ele>
        <time>2022-10-09T09:56:55Z</time>
      </trkpt>
      <trkpt lat="43.39392" lon="6.68446">
        <ele>77.8</ele>
        <time>2022-10-09T09:56:56Z</time>
      </trkpt>
      <trkpt lat="43.3939" lon="6.6844">
        <ele>77.5</ele>
        <time>2022-10-09T09:56:57Z</time>
      </trkpt>
      <trkpt lat="43.39387" lon="6.68433">
        <ele>77.3</ele>
        <time>2022-10-09T09:56:58Z</time>
      </trkpt>
      <trkpt lat="43.39384" lon="6.68428">
        <ele>77</ele>
        <time>2022-10-09T09:56:59Z</time>
      </trkpt>
      <trkpt lat="43.3938" lon="6.68424">
        <ele>76.8</ele>
        <time>2022-10-09T09:57:00Z</time>
      </trkpt>
      <trkpt lat="43.39376" lon="6.68421">
        <ele>76.5</ele>
        <time>2022-10-09T09:57:01Z</time>
      </trkpt>
      <trkpt lat="43.39372" lon="6.68416">
        <ele>76.1</ele>
        <time>2022-10-09T09:57:02Z</time>
      </trkpt>
      <trkpt lat="43.39366" lon="6.68403">
        <ele>75.4</ele>
        <time>2022-10-09T09:57:04Z</time>
      </trkpt>
      <trkpt lat="43.39365" lon="6.68396">
        <ele>75</ele>
        <time>2022-10-09T09:57:05Z</time>
      </trkpt>
      <trkpt lat="43.39364" lon="6.68389">
        <ele>74.6</ele>
        <time>2022-10-09T09:57:06Z</time>
      </trkpt>
      <trkpt lat="43.39363" lon="6.68382">
        <ele>74.2</ele>
        <time>2022-10-09T09:57:07Z</time>
      </trkpt>
      <trkpt lat="43.39362" lon="6.68376">
        <ele>73.8</ele>
        <time>2022-10-09T09:57:08Z</time>
      </trkpt>
      <trkpt lat="43.39361" lon="6.6837">
        <ele>73.4</ele>
        <time>2022-10-09T09:57:09Z</time>
      </trkpt>
      <trkpt lat="43.39359" lon="6.68363">
        <ele>72.9</ele>
        <time>2022-10-09T09:57:10Z</time>
      </trkpt>
      <trkpt lat="43.39355" lon="6.68351">
        <ele>71.9</ele>
        <time>2022-10-09T09:57:12Z</time>
      </trkpt>
      <trkpt lat="43.39353" lon="6.68345">
        <ele>71.5</ele>
        <time>2022-10-09T09:57:13Z</time>
      </trkpt>
      <trkpt lat="43.3935" lon="6.6834">
        <ele>71.2</ele>
        <time>2022-10-09T09:57:14Z</time>
      </trkpt>
      <trkpt lat="43.39347" lon="6.68336">
        <ele>70.8</ele>
        <time>2022-10-09T09:57:15Z</time>
      </trkpt>
      <trkpt lat="43.39343" lon="6.68334">
        <ele>70.3</ele>
        <time>2022-10-09T09:57:16Z</time>
      </trkpt>
      <trkpt lat="43.39339" lon="6.68334">
        <ele>69.9</ele>
        <time>2022-10-09T09:57:17Z</time>
      </trkpt>
      <trkpt lat="43.39335" lon="6.68335">
        <ele>69.6</ele>
        <time>2022-10-09T09:57:18Z</time>
      </trkpt>
      <trkpt lat="43.39332" lon="6.68336">
        <ele>69.2</ele>
        <time>2022-10-09T09:57:19Z</time>
      </trkpt>
      <trkpt lat="43.39329" lon="6.68337">
        <ele>69</ele>
        <time>2022-10-09T09:57:20Z</time>
      </trkpt>
      <trkpt lat="43.39327" lon="6.68338">
        <ele>68.8</ele>
        <time>2022-10-09T09:57:21Z</time>
      </trkpt>
      <trkpt lat="43.39325" lon="6.68338">
        <ele>68.6</ele>
        <time>2022-10-09T09:57:22Z</time>
      </trkpt>
      <trkpt lat="43.39314" lon="6.68336">
        <ele>67.8</ele>
        <time>2022-10-09T09:57:26Z</time>
      </trkpt>
      <trkpt lat="43.39311" lon="6.68334">
        <ele>67.7</ele>
        <time>2022-10-09T09:57:27Z</time>
      </trkpt>
      <trkpt lat="43.39309" lon="6.68329">
        <ele>67.5</ele>
        <time>2022-10-09T09:57:28Z</time>
      </trkpt>
      <trkpt lat="43.39308" lon="6.68324">
        <ele>67.4</ele>
        <time>2022-10-09T09:57:29Z</time>
      </trkpt>
      <trkpt lat="43.39309" lon="6.68319">
        <ele>67.3</ele>
        <time>2022-10-09T09:57:30Z</time>
      </trkpt>
      <trkpt lat="43.3931" lon="6.68314">
        <ele>67.2</ele>
        <time>2022-10-09T09:57:31Z</time>
      </trkpt>
      <trkpt lat="43.39313" lon="6.68306">
        <ele>67.2</ele>
        <time>2022-10-09T09:57:33Z</time>
      </trkpt>
      <trkpt lat="43.39315" lon="6.68302">
        <ele>67.2</ele>
        <time>2022-10-09T09:57:34Z</time>
      </trkpt>
      <trkpt lat="43.39317" lon="6.68297">
        <ele>67.2</ele>
        <time>2022-10-09T09:57:35Z</time>
      </trkpt>
      <trkpt lat="43.39318" lon="6.68293">
        <ele>67.3</ele>
        <time>2022-10-09T09:57:36Z</time>
      </trkpt>
      <trkpt lat="43.39318" lon="6.68289">
        <ele>67.4</ele>
        <time>2022-10-09T09:57:37Z</time>
      </trkpt>
      <trkpt lat="43.39318" lon="6.68285">
        <ele>67.5</ele>
        <time>2022-10-09T09:57:38Z</time>
      </trkpt>
      <trkpt lat="43.39318" lon="6.68281">
        <ele>67.7</ele>
        <time>2022-10-09T09:57:39Z</time>
      </trkpt>
      <trkpt lat="43.39317" lon="6.68277">
        <ele>67.8</ele>
        <time>2022-10-09T09:57:40Z</time>
      </trkpt>
      <trkpt lat="43.39316" lon="6.68274">
        <ele>68</ele>
        <time>2022-10-09T09:57:41Z</time>
      </trkpt>
      <trkpt lat="43.39315" lon="6.68271">
        <ele>68.2</ele>
        <time>2022-10-09T09:57:42Z</time>
      </trkpt>
      <trkpt lat="43.39315" lon="6.68269">
        <ele>68.4</ele>
        <time>2022-10-09T09:57:43Z</time>
      </trkpt>
      <trkpt lat="43.39314" lon="6.68268">
        <ele>68.5</ele>
        <time>2022-10-09T09:57:44Z</time>
      </trkpt>
      <trkpt lat="43.39314" lon="6.68268">
        <ele>68.5</ele>
        <time>2022-10-09T09:57:46Z</time>
      </trkpt>
      <trkpt lat="43.3929" lon="6.68247">
        <ele>72.3</ele>
        <time>2022-10-09T09:58:18Z</time>
      </trkpt>
      <trkpt lat="43.39289" lon="6.68245">
        <ele>72.5</ele>
        <time>2022-10-09T09:58:19Z</time>
      </trkpt>
      <trkpt lat="43.39288" lon="6.68244">
        <ele>72.6</ele>
        <time>2022-10-09T09:58:20Z</time>
      </trkpt>
      <trkpt lat="43.39287" lon="6.68244">
        <ele>72.8</ele>
        <time>2022-10-09T09:58:21Z</time>
      </trkpt>
      <trkpt lat="43.39286" lon="6.68243">
        <ele>72.9</ele>
        <time>2022-10-09T09:58:22Z</time>
      </trkpt>
      <trkpt lat="43.39285" lon="6.68242">
        <ele>73.1</ele>
        <time>2022-10-09T09:58:23Z</time>
      </trkpt>
      <trkpt lat="43.39284" lon="6.68242">
        <ele>73.2</ele>
        <time>2022-10-09T09:58:24Z</time>
      </trkpt>
      <trkpt lat="43.39283" lon="6.68241">
        <ele>73.3</ele>
        <time>2022-10-09T09:58:25Z</time>
      </trkpt>
      <trkpt lat="43.39283" lon="6.68241">
        <ele>73.5</ele>
        <time>2022-10-09T09:58:26Z</time>
      </trkpt>
      <trkpt lat="43.39282" lon="6.6824">
        <ele>73.6</ele>
        <time>2022-10-09T09:58:27Z</time>
      </trkpt>
      <trkpt lat="43.39281" lon="6.6824">
        <ele>73.7</ele>
        <time>2022-10-09T09:58:28Z</time>
      </trkpt>
      <trkpt lat="43.3928" lon="6.68239">
        <ele>73.8</ele>
        <time>2022-10-09T09:58:29Z</time>
      </trkpt>
      <trkpt lat="43.39279" lon="6.68239">
        <ele>74</ele>
        <time>2022-10-09T09:58:30Z</time>
      </trkpt>
      <trkpt lat="43.39279" lon="6.68239">
        <ele>74.1</ele>
        <time>2022-10-09T09:58:31Z</time>
      </trkpt>
      <trkpt lat="43.39278" lon="6.68238">
        <ele>74.2</ele>
        <time>2022-10-09T09:58:32Z</time>
      </trkpt>
      <trkpt lat="43.39278" lon="6.68238">
        <ele>74.3</ele>
        <time>2022-10-09T09:58:33Z</time>
      </trkpt>
      <trkpt lat="43.39277" lon="6.68237">
        <ele>74.4</ele>
        <time>2022-10-09T09:58:34Z</time>
      </trkpt>
      <trkpt lat="43.39276" lon="6.68236">
        <ele>75.9</ele>
        <time>2022-10-09T09:58:35Z</time>
      </trkpt>
      <trkpt lat="43.39276" lon="6.68235">
        <ele>76</ele>
        <time>2022-10-09T09:58:36Z</time>
      </trkpt>
      <trkpt lat="43.39275" lon="6.68233">
        <ele>76</ele>
        <time>2022-10-09T09:58:37Z</time>
      </trkpt>
      <trkpt lat="43.39275" lon="6.68233">
        <ele>76.1</ele>
        <time>2022-10-09T09:58:38Z</time>
      </trkpt>
      <trkpt lat="43.39276" lon="6.68231">
        <ele>76.1</ele>
        <time>2022-10-09T09:58:39Z</time>
      </trkpt>
      <trkpt lat="43.39276" lon="6.6823">
        <ele>76.2</ele>
        <time>2022-10-09T09:58:40Z</time>
      </trkpt>
      <trkpt lat="43.39275" lon="6.68227">
        <ele>76.3</ele>
        <time>2022-10-09T09:58:41Z</time>
      </trkpt>
      <trkpt lat="43.39275" lon="6.68225">
        <ele>76.4</ele>
        <time>2022-10-09T09:58:42Z</time>
      </trkpt>
      <trkpt lat="43.39274" lon="6.68221">
        <ele>76.5</ele>
        <time>2022-10-09T09:58:43Z</time>
      </trkpt>
      <trkpt lat="43.39273" lon="6.68218">
        <ele>76.6</ele>
        <time>2022-10-09T09:58:44Z</time>
      </trkpt>
      <trkpt lat="43.39272" lon="6.68214">
        <ele>76.7</ele>
        <time>2022-10-09T09:58:45Z</time>
      </trkpt>
      <trkpt lat="43.39272" lon="6.6821">
        <ele>76.7</ele>
        <time>2022-10-09T09:58:46Z</time>
      </trkpt>
      <trkpt lat="43.39272" lon="6.68205">
        <ele>76.8</ele>
        <time>2022-10-09T09:58:47Z</time>
      </trkpt>
      <trkpt lat="43.39274" lon="6.682">
        <ele>76.9</ele>
        <time>2022-10-09T09:58:48Z</time>
      </trkpt>
      <trkpt lat="43.39275" lon="6.68195">
        <ele>76.9</ele>
        <time>2022-10-09T09:58:49Z</time>
      </trkpt>
      <trkpt lat="43.39275" lon="6.68191">
        <ele>77</ele>
        <time>2022-10-09T09:58:50Z</time>
      </trkpt>
      <trkpt lat="43.39275" lon="6.68187">
        <ele>77</ele>
        <time>2022-10-09T09:58:51Z</time>
      </trkpt>
      <trkpt lat="43.39273" lon="6.68184">
        <ele>76.8</ele>
        <time>2022-10-09T09:58:52Z</time>
      </trkpt>
      <trkpt lat="43.3927" lon="6.68183">
        <ele>76.5</ele>
        <time>2022-10-09T09:58:53Z</time>
      </trkpt>
      <trkpt lat="43.39263" lon="6.68182">
        <ele>75.6</ele>
        <time>2022-10-09T09:58:55Z</time>
      </trkpt>
      <trkpt lat="43.39259" lon="6.6818">
        <ele>75.2</ele>
        <time>2022-10-09T09:58:56Z</time>
      </trkpt>
      <trkpt lat="43.39256" lon="6.68176">
        <ele>74.8</ele>
        <time>2022-10-09T09:58:57Z</time>
      </trkpt>
      <trkpt lat="43.39253" lon="6.68172">
        <ele>74.5</ele>
        <time>2022-10-09T09:58:58Z</time>
      </trkpt>
      <trkpt lat="43.39249" lon="6.68169">
        <ele>74.1</ele>
        <time>2022-10-09T09:58:59Z</time>
      </trkpt>
      <trkpt lat="43.39241" lon="6.68164">
        <ele>73.5</ele>
        <time>2022-10-09T09:59:01Z</time>
      </trkpt>
      <trkpt lat="43.3923" lon="6.68156">
        <ele>72.9</ele>
        <time>2022-10-09T09:59:04Z</time>
      </trkpt>
      <trkpt lat="43.39226" lon="6.68153">
        <ele>72.7</ele>
        <time>2022-10-09T09:59:05Z</time>
      </trkpt>
      <trkpt lat="43.39223" lon="6.6815">
        <ele>72.5</ele>
        <time>2022-10-09T09:59:06Z</time>
      </trkpt>
      <trkpt lat="43.3922" lon="6.68147">
        <ele>72.3</ele>
        <time>2022-10-09T09:59:07Z</time>
      </trkpt>
      <trkpt lat="43.39217" lon="6.68144">
        <ele>72.3</ele>
        <time>2022-10-09T09:59:08Z</time>
      </trkpt>
      <trkpt lat="43.39215" lon="6.68141">
        <ele>72.2</ele>
        <time>2022-10-09T09:59:09Z</time>
      </trkpt>
      <trkpt lat="43.39212" lon="6.68139">
        <ele>72.2</ele>
        <time>2022-10-09T09:59:10Z</time>
      </trkpt>
      <trkpt lat="43.3921" lon="6.68136">
        <ele>72.2</ele>
        <time>2022-10-09T09:59:11Z</time>
      </trkpt>
      <trkpt lat="43.39208" lon="6.68134">
        <ele>72.2</ele>
        <time>2022-10-09T09:59:12Z</time>
      </trkpt>
      <trkpt lat="43.39199" lon="6.6812">
        <ele>71.7</ele>
        <time>2022-10-09T09:59:16Z</time>
      </trkpt>
      <trkpt lat="43.39196" lon="6.68116">
        <ele>71.5</ele>
        <time>2022-10-09T09:59:17Z</time>
      </trkpt>
      <trkpt lat="43.39194" lon="6.6811">
        <ele>71.2</ele>
        <time>2022-10-09T09:59:18Z</time>
      </trkpt>
      <trkpt lat="43.39191" lon="6.68097">
        <ele>70.5</ele>
        <time>2022-10-09T09:59:20Z</time>
      </trkpt>
      <trkpt lat="43.3919" lon="6.68091">
        <ele>70.3</ele>
        <time>2022-10-09T09:59:21Z</time>
      </trkpt>
      <trkpt lat="43.3919" lon="6.68086">
        <ele>70.2</ele>
        <time>2022-10-09T09:59:22Z</time>
      </trkpt>
      <trkpt lat="43.3919" lon="6.68081">
        <ele>70.1</ele>
        <time>2022-10-09T09:59:23Z</time>
      </trkpt>
      <trkpt lat="43.3919" lon="6.68076">
        <ele>70</ele>
        <time>2022-10-09T09:59:24Z</time>
      </trkpt>
      <trkpt lat="43.39189" lon="6.68071">
        <ele>69.9</ele>
        <time>2022-10-09T09:59:25Z</time>
      </trkpt>
      <trkpt lat="43.39189" lon="6.68067">
        <ele>69.9</ele>
        <time>2022-10-09T09:59:26Z</time>
      </trkpt>
      <trkpt lat="43.39188" lon="6.68063">
        <ele>69.8</ele>
        <time>2022-10-09T09:59:27Z</time>
      </trkpt>
      <trkpt lat="43.39186" lon="6.68059">
        <ele>69.7</ele>
        <time>2022-10-09T09:59:28Z</time>
      </trkpt>
      <trkpt lat="43.39183" lon="6.68051">
        <ele>69.6</ele>
        <time>2022-10-09T09:59:30Z</time>
      </trkpt>
      <trkpt lat="43.39169" lon="6.68032">
        <ele>68.9</ele>
        <time>2022-10-09T09:59:35Z</time>
      </trkpt>
      <trkpt lat="43.39164" lon="6.68019">
        <ele>68.6</ele>
        <time>2022-10-09T09:59:37Z</time>
      </trkpt>
      <trkpt lat="43.39163" lon="6.68012">
        <ele>68.4</ele>
        <time>2022-10-09T09:59:38Z</time>
      </trkpt>
      <trkpt lat="43.39162" lon="6.68005">
        <ele>68.2</ele>
        <time>2022-10-09T09:59:39Z</time>
      </trkpt>
      <trkpt lat="43.39162" lon="6.67999">
        <ele>68</ele>
        <time>2022-10-09T09:59:40Z</time>
      </trkpt>
      <trkpt lat="43.39161" lon="6.67994">
        <ele>67.8</ele>
        <time>2022-10-09T09:59:41Z</time>
      </trkpt>
      <trkpt lat="43.3916" lon="6.67988">
        <ele>67.5</ele>
        <time>2022-10-09T09:59:42Z</time>
      </trkpt>
      <trkpt lat="43.39157" lon="6.67984">
        <ele>67.2</ele>
        <time>2022-10-09T09:59:43Z</time>
      </trkpt>
      <trkpt lat="43.39155" lon="6.67979">
        <ele>66.9</ele>
        <time>2022-10-09T09:59:44Z</time>
      </trkpt>
      <trkpt lat="43.39153" lon="6.67973">
        <ele>66.6</ele>
        <time>2022-10-09T09:59:45Z</time>
      </trkpt>
      <trkpt lat="43.39151" lon="6.67967">
        <ele>66.3</ele>
        <time>2022-10-09T09:59:46Z</time>
      </trkpt>
      <trkpt lat="43.3915" lon="6.67961">
        <ele>66.1</ele>
        <time>2022-10-09T09:59:47Z</time>
      </trkpt>
      <trkpt lat="43.3915" lon="6.67954">
        <ele>65.8</ele>
        <time>2022-10-09T09:59:48Z</time>
      </trkpt>
      <trkpt lat="43.39149" lon="6.67948">
        <ele>65.6</ele>
        <time>2022-10-09T09:59:49Z</time>
      </trkpt>
      <trkpt lat="43.39149" lon="6.67942">
        <ele>65.3</ele>
        <time>2022-10-09T09:59:50Z</time>
      </trkpt>
      <trkpt lat="43.39148" lon="6.67937">
        <ele>65.1</ele>
        <time>2022-10-09T09:59:51Z</time>
      </trkpt>
      <trkpt lat="43.39146" lon="6.67934">
        <ele>64.9</ele>
        <time>2022-10-09T09:59:52Z</time>
      </trkpt>
      <trkpt lat="43.39144" lon="6.6793">
        <ele>64.7</ele>
        <time>2022-10-09T09:59:53Z</time>
      </trkpt>
      <trkpt lat="43.39144" lon="6.67926">
        <ele>64.5</ele>
        <time>2022-10-09T09:59:54Z</time>
      </trkpt>
      <trkpt lat="43.39142" lon="6.67918">
        <ele>63.8</ele>
        <time>2022-10-09T09:59:56Z</time>
      </trkpt>
      <trkpt lat="43.3914" lon="6.67914">
        <ele>63.5</ele>
        <time>2022-10-09T09:59:57Z</time>
      </trkpt>
      <trkpt lat="43.39139" lon="6.6791">
        <ele>63.1</ele>
        <time>2022-10-09T09:59:58Z</time>
      </trkpt>
      <trkpt lat="43.39138" lon="6.67906">
        <ele>62.7</ele>
        <time>2022-10-09T09:59:59Z</time>
      </trkpt>
      <trkpt lat="43.39137" lon="6.67904">
        <ele>62.5</ele>
        <time>2022-10-09T10:00:00Z</time>
      </trkpt>
      <trkpt lat="43.39137" lon="6.67902">
        <ele>62.3</ele>
        <time>2022-10-09T10:00:01Z</time>
      </trkpt>
      <trkpt lat="43.39137" lon="6.67902">
        <ele>62.2</ele>
        <time>2022-10-09T10:00:03Z</time>
      </trkpt>
      <trkpt lat="43.39133" lon="6.67861">
        <ele>57.3</ele>
        <time>2022-10-09T10:00:32Z</time>
      </trkpt>
      <trkpt lat="43.39133" lon="6.6786">
        <ele>57.1</ele>
        <time>2022-10-09T10:00:33Z</time>
      </trkpt>
      <trkpt lat="43.39133" lon="6.67858">
        <ele>56.9</ele>
        <time>2022-10-09T10:00:34Z</time>
      </trkpt>
      <trkpt lat="43.39133" lon="6.67857">
        <ele>56.7</ele>
        <time>2022-10-09T10:00:35Z</time>
      </trkpt>
      <trkpt lat="43.39133" lon="6.67855">
        <ele>56.4</ele>
        <time>2022-10-09T10:00:36Z</time>
      </trkpt>
      <trkpt lat="43.39133" lon="6.67854">
        <ele>56.2</ele>
        <time>2022-10-09T10:00:37Z</time>
      </trkpt>
      <trkpt lat="43.39133" lon="6.67853">
        <ele>56.1</ele>
        <time>2022-10-09T10:00:38Z</time>
      </trkpt>
      <trkpt lat="43.39132" lon="6.67847">
        <ele>55.2</ele>
        <time>2022-10-09T10:00:42Z</time>
      </trkpt>
      <trkpt lat="43.39129" lon="6.67841">
        <ele>54.2</ele>
        <time>2022-10-09T10:00:46Z</time>
      </trkpt>
      <trkpt lat="43.39128" lon="6.67838">
        <ele>53.8</ele>
        <time>2022-10-09T10:00:48Z</time>
      </trkpt>
      <trkpt lat="43.39128" lon="6.67837">
        <ele>53.5</ele>
        <time>2022-10-09T10:00:49Z</time>
      </trkpt>
      <trkpt lat="43.39126" lon="6.67834">
        <ele>53</ele>
        <time>2022-10-09T10:00:51Z</time>
      </trkpt>
      <trkpt lat="43.39126" lon="6.67832">
        <ele>52.8</ele>
        <time>2022-10-09T10:00:52Z</time>
      </trkpt>
      <trkpt lat="43.39125" lon="6.67831">
        <ele>52.6</ele>
        <time>2022-10-09T10:00:53Z</time>
      </trkpt>
      <trkpt lat="43.39124" lon="6.67828">
        <ele>52.2</ele>
        <time>2022-10-09T10:00:55Z</time>
      </trkpt>
      <trkpt lat="43.39123" lon="6.67822">
        <ele>51.4</ele>
        <time>2022-10-09T10:00:58Z</time>
      </trkpt>
      <trkpt lat="43.39122" lon="6.6782">
        <ele>51.2</ele>
        <time>2022-10-09T10:00:59Z</time>
      </trkpt>
      <trkpt lat="43.39121" lon="6.67818">
        <ele>51</ele>
        <time>2022-10-09T10:01:00Z</time>
      </trkpt>
      <trkpt lat="43.3912" lon="6.67815">
        <ele>50.6</ele>
        <time>2022-10-09T10:01:02Z</time>
      </trkpt>
      <trkpt lat="43.3912" lon="6.67814">
        <ele>50.4</ele>
        <time>2022-10-09T10:01:03Z</time>
      </trkpt>
      <trkpt lat="43.3912" lon="6.67812">
        <ele>50.2</ele>
        <time>2022-10-09T10:01:04Z</time>
      </trkpt>
      <trkpt lat="43.3912" lon="6.6781">
        <ele>50</ele>
        <time>2022-10-09T10:01:05Z</time>
      </trkpt>
      <trkpt lat="43.3912" lon="6.67809">
        <ele>49.8</ele>
        <time>2022-10-09T10:01:06Z</time>
      </trkpt>
      <trkpt lat="43.3912" lon="6.67807">
        <ele>49.6</ele>
        <time>2022-10-09T10:01:07Z</time>
      </trkpt>
      <trkpt lat="43.3912" lon="6.67806">
        <ele>49.4</ele>
        <time>2022-10-09T10:01:08Z</time>
      </trkpt>
      <trkpt lat="43.3912" lon="6.67805">
        <ele>49.3</ele>
        <time>2022-10-09T10:01:09Z</time>
      </trkpt>
      <trkpt lat="43.39121" lon="6.67802">
        <ele>48.9</ele>
        <time>2022-10-09T10:01:11Z</time>
      </trkpt>
      <trkpt lat="43.39121" lon="6.67802">
        <ele>48.8</ele>
        <time>2022-10-09T10:01:12Z</time>
      </trkpt>
      <trkpt lat="43.39122" lon="6.67801">
        <ele>48.7</ele>
        <time>2022-10-09T10:01:13Z</time>
      </trkpt>
      <trkpt lat="43.39123" lon="6.678">
        <ele>48.4</ele>
        <time>2022-10-09T10:01:15Z</time>
      </trkpt>
      <trkpt lat="43.39127" lon="6.67798">
        <ele>47.7</ele>
        <time>2022-10-09T10:01:18Z</time>
      </trkpt>
      <trkpt lat="43.39128" lon="6.67798">
        <ele>47.5</ele>
        <time>2022-10-09T10:01:19Z</time>
      </trkpt>
      <trkpt lat="43.39129" lon="6.67797">
        <ele>47.3</ele>
        <time>2022-10-09T10:01:20Z</time>
      </trkpt>
      <trkpt lat="43.39129" lon="6.67797">
        <ele>47.2</ele>
        <time>2022-10-09T10:01:21Z</time>
      </trkpt>
      <trkpt lat="43.3913" lon="6.67796">
        <ele>47.1</ele>
        <time>2022-10-09T10:01:23Z</time>
      </trkpt>
      <trkpt lat="43.39192" lon="6.67716">
        <ele>25.4</ele>
        <time>2022-10-09T10:05:19Z</time>
      </trkpt>
      <trkpt lat="43.39189" lon="6.67709">
        <ele>24.5</ele>
        <time>2022-10-09T10:05:21Z</time>
      </trkpt>
      <trkpt lat="43.39188" lon="6.67707">
        <ele>24</ele>
        <time>2022-10-09T10:05:22Z</time>
      </trkpt>
      <trkpt lat="43.39186" lon="6.67704">
        <ele>23.6</ele>
        <time>2022-10-09T10:05:23Z</time>
      </trkpt>
      <trkpt lat="43.39185" lon="6.677">
        <ele>23.3</ele>
        <time>2022-10-09T10:05:24Z</time>
      </trkpt>
      <trkpt lat="43.39186" lon="6.67696">
        <ele>22.9</ele>
        <time>2022-10-09T10:05:25Z</time>
      </trkpt>
      <trkpt lat="43.39187" lon="6.67693">
        <ele>22.5</ele>
        <time>2022-10-09T10:05:26Z</time>
      </trkpt>
      <trkpt lat="43.39192" lon="6.67687">
        <ele>21.6</ele>
        <time>2022-10-09T10:05:28Z</time>
      </trkpt>
      <trkpt lat="43.39195" lon="6.67684">
        <ele>21.2</ele>
        <time>2022-10-09T10:05:29Z</time>
      </trkpt>
      <trkpt lat="43.39197" lon="6.6768">
        <ele>20.9</ele>
        <time>2022-10-09T10:05:30Z</time>
      </trkpt>
      <trkpt lat="43.392" lon="6.67677">
        <ele>20.5</ele>
        <time>2022-10-09T10:05:31Z</time>
      </trkpt>
      <trkpt lat="43.39203" lon="6.67674">
        <ele>20.2</ele>
        <time>2022-10-09T10:05:32Z</time>
      </trkpt>
      <trkpt lat="43.39206" lon="6.67672">
        <ele>19.9</ele>
        <time>2022-10-09T10:05:33Z</time>
      </trkpt>
      <trkpt lat="43.39209" lon="6.6767">
        <ele>19.7</ele>
        <time>2022-10-09T10:05:34Z</time>
      </trkpt>
      <trkpt lat="43.39212" lon="6.67667">
        <ele>19.4</ele>
        <time>2022-10-09T10:05:35Z</time>
      </trkpt>
      <trkpt lat="43.39214" lon="6.67665">
        <ele>19.2</ele>
        <time>2022-10-09T10:05:36Z</time>
      </trkpt>
      <trkpt lat="43.39216" lon="6.67662">
        <ele>19.1</ele>
        <time>2022-10-09T10:05:37Z</time>
      </trkpt>
      <trkpt lat="43.39217" lon="6.6766">
        <ele>19.5</ele>
        <time>2022-10-09T10:05:38Z</time>
      </trkpt>
      <trkpt lat="43.39219" lon="6.67659">
        <ele>19.9</ele>
        <time>2022-10-09T10:05:39Z</time>
      </trkpt>
      <trkpt lat="43.3922" lon="6.67657">
        <ele>20.2</ele>
        <time>2022-10-09T10:05:40Z</time>
      </trkpt>
      <trkpt lat="43.39225" lon="6.67649">
        <ele>21.7</ele>
        <time>2022-10-09T10:05:43Z</time>
      </trkpt>
      <trkpt lat="43.39225" lon="6.67646">
        <ele>22.1</ele>
        <time>2022-10-09T10:05:44Z</time>
      </trkpt>
      <trkpt lat="43.39222" lon="6.67643">
        <ele>24.3</ele>
        <time>2022-10-09T10:05:46Z</time>
      </trkpt>
      <trkpt lat="43.3922" lon="6.67642">
        <ele>25</ele>
        <time>2022-10-09T10:05:47Z</time>
      </trkpt>
      <trkpt lat="43.39218" lon="6.67641">
        <ele>25.4</ele>
        <time>2022-10-09T10:05:48Z</time>
      </trkpt>
      <trkpt lat="43.39218" lon="6.67638">
        <ele>25.8</ele>
        <time>2022-10-09T10:05:49Z</time>
      </trkpt>
      <trkpt lat="43.39217" lon="6.67634">
        <ele>26.2</ele>
        <time>2022-10-09T10:05:50Z</time>
      </trkpt>
      <trkpt lat="43.39217" lon="6.67627">
        <ele>26.6</ele>
        <time>2022-10-09T10:05:52Z</time>
      </trkpt>
      <trkpt lat="43.39219" lon="6.67625">
        <ele>26.4</ele>
        <time>2022-10-09T10:05:53Z</time>
      </trkpt>
      <trkpt lat="43.39221" lon="6.67624">
        <ele>26.2</ele>
        <time>2022-10-09T10:05:54Z</time>
      </trkpt>
      <trkpt lat="43.39229" lon="6.67623">
        <ele>25.6</ele>
        <time>2022-10-09T10:05:57Z</time>
      </trkpt>
      <trkpt lat="43.39232" lon="6.67622">
        <ele>25.4</ele>
        <time>2022-10-09T10:05:58Z</time>
      </trkpt>
      <trkpt lat="43.39235" lon="6.67622">
        <ele>25.3</ele>
        <time>2022-10-09T10:05:59Z</time>
      </trkpt>
      <trkpt lat="43.39251" lon="6.67622">
        <ele>24.7</ele>
        <time>2022-10-09T10:06:04Z</time>
      </trkpt>
      <trkpt lat="43.39254" lon="6.67622">
        <ele>24.7</ele>
        <time>2022-10-09T10:06:05Z</time>
      </trkpt>
      <trkpt lat="43.39257" lon="6.67621">
        <ele>24.6</ele>
        <time>2022-10-09T10:06:06Z</time>
      </trkpt>
      <trkpt lat="43.3926" lon="6.67621">
        <ele>24.6</ele>
        <time>2022-10-09T10:06:07Z</time>
      </trkpt>
      <trkpt lat="43.39263" lon="6.67621">
        <ele>24.5</ele>
        <time>2022-10-09T10:06:08Z</time>
      </trkpt>
      <trkpt lat="43.39268" lon="6.67618">
        <ele>24.4</ele>
        <time>2022-10-09T10:06:10Z</time>
      </trkpt>
      <trkpt lat="43.39271" lon="6.67617">
        <ele>24.4</ele>
        <time>2022-10-09T10:06:11Z</time>
      </trkpt>
      <trkpt lat="43.39274" lon="6.67616">
        <ele>24.4</ele>
        <time>2022-10-09T10:06:12Z</time>
      </trkpt>
      <trkpt lat="43.39276" lon="6.67615">
        <ele>24.3</ele>
        <time>2022-10-09T10:06:13Z</time>
      </trkpt>
      <trkpt lat="43.39286" lon="6.67616">
        <ele>24.3</ele>
        <time>2022-10-09T10:06:16Z</time>
      </trkpt>
      <trkpt lat="43.39311" lon="6.67615">
        <ele>23.9</ele>
        <time>2022-10-09T10:06:23Z</time>
      </trkpt>
      <trkpt lat="43.39315" lon="6.67614">
        <ele>23.8</ele>
        <time>2022-10-09T10:06:24Z</time>
      </trkpt>
      <trkpt lat="43.39319" lon="6.67613">
        <ele>23.7</ele>
        <time>2022-10-09T10:06:25Z</time>
      </trkpt>
      <trkpt lat="43.39322" lon="6.67614">
        <ele>23.6</ele>
        <time>2022-10-09T10:06:26Z</time>
      </trkpt>
      <trkpt lat="43.39328" lon="6.67614">
        <ele>23.4</ele>
        <time>2022-10-09T10:06:28Z</time>
      </trkpt>
      <trkpt lat="43.39332" lon="6.67614">
        <ele>23.3</ele>
        <time>2022-10-09T10:06:29Z</time>
      </trkpt>
      <trkpt lat="43.39336" lon="6.67613">
        <ele>23.1</ele>
        <time>2022-10-09T10:06:30Z</time>
      </trkpt>
      <trkpt lat="43.3934" lon="6.6761">
        <ele>22.9</ele>
        <time>2022-10-09T10:06:31Z</time>
      </trkpt>
      <trkpt lat="43.39345" lon="6.67608">
        <ele>22.7</ele>
        <time>2022-10-09T10:06:32Z</time>
      </trkpt>
      <trkpt lat="43.39349" lon="6.67604">
        <ele>22.6</ele>
        <time>2022-10-09T10:06:33Z</time>
      </trkpt>
      <trkpt lat="43.39354" lon="6.67602">
        <ele>22.4</ele>
        <time>2022-10-09T10:06:34Z</time>
      </trkpt>
      <trkpt lat="43.39358" lon="6.676">
        <ele>22.2</ele>
        <time>2022-10-09T10:06:35Z</time>
      </trkpt>
      <trkpt lat="43.39361" lon="6.67597">
        <ele>22.1</ele>
        <time>2022-10-09T10:06:36Z</time>
      </trkpt>
      <trkpt lat="43.39364" lon="6.67596">
        <ele>22</ele>
        <time>2022-10-09T10:06:37Z</time>
      </trkpt>
      <trkpt lat="43.39367" lon="6.67594">
        <ele>22</ele>
        <time>2022-10-09T10:06:38Z</time>
      </trkpt>
      <trkpt lat="43.3937" lon="6.67593">
        <ele>21.9</ele>
        <time>2022-10-09T10:06:39Z</time>
      </trkpt>
      <trkpt lat="43.39372" lon="6.67592">
        <ele>21.9</ele>
        <time>2022-10-09T10:06:40Z</time>
      </trkpt>
      <trkpt lat="43.39375" lon="6.67591">
        <ele>21.9</ele>
        <time>2022-10-09T10:06:41Z</time>
      </trkpt>
      <trkpt lat="43.3938" lon="6.67588">
        <ele>21.8</ele>
        <time>2022-10-09T10:06:43Z</time>
      </trkpt>
      <trkpt lat="43.39382" lon="6.67587">
        <ele>21.8</ele>
        <time>2022-10-09T10:06:44Z</time>
      </trkpt>
      <trkpt lat="43.39384" lon="6.67585">
        <ele>21.9</ele>
        <time>2022-10-09T10:06:45Z</time>
      </trkpt>
      <trkpt lat="43.39392" lon="6.67577">
        <ele>22</ele>
        <time>2022-10-09T10:06:49Z</time>
      </trkpt>
      <trkpt lat="43.39394" lon="6.67575">
        <ele>22</ele>
        <time>2022-10-09T10:06:50Z</time>
      </trkpt>
      <trkpt lat="43.39399" lon="6.67573">
        <ele>22</ele>
        <time>2022-10-09T10:06:52Z</time>
      </trkpt>
      <trkpt lat="43.39403" lon="6.67572">
        <ele>22.1</ele>
        <time>2022-10-09T10:06:53Z</time>
      </trkpt>
      <trkpt lat="43.39407" lon="6.67573">
        <ele>22</ele>
        <time>2022-10-09T10:06:54Z</time>
      </trkpt>
      <trkpt lat="43.39411" lon="6.67574">
        <ele>22</ele>
        <time>2022-10-09T10:06:55Z</time>
      </trkpt>
      <trkpt lat="43.39414" lon="6.67575">
        <ele>21.9</ele>
        <time>2022-10-09T10:06:56Z</time>
      </trkpt>
      <trkpt lat="43.39416" lon="6.67577">
        <ele>21.9</ele>
        <time>2022-10-09T10:06:57Z</time>
      </trkpt>
      <trkpt lat="43.39426" lon="6.67579">
        <ele>21.7</ele>
        <time>2022-10-09T10:07:00Z</time>
      </trkpt>
      <trkpt lat="43.39429" lon="6.67579">
        <ele>21.7</ele>
        <time>2022-10-09T10:07:01Z</time>
      </trkpt>
      <trkpt lat="43.39432" lon="6.67579">
        <ele>21.6</ele>
        <time>2022-10-09T10:07:02Z</time>
      </trkpt>
      <trkpt lat="43.39434" lon="6.67578">
        <ele>21.6</ele>
        <time>2022-10-09T10:07:03Z</time>
      </trkpt>
      <trkpt lat="43.39437" lon="6.67577">
        <ele>21.5</ele>
        <time>2022-10-09T10:07:04Z</time>
      </trkpt>
      <trkpt lat="43.3944" lon="6.67577">
        <ele>21.4</ele>
        <time>2022-10-09T10:07:05Z</time>
      </trkpt>
      <trkpt lat="43.39447" lon="6.67578">
        <ele>21.2</ele>
        <time>2022-10-09T10:07:07Z</time>
      </trkpt>
      <trkpt lat="43.39461" lon="6.67573">
        <ele>20.8</ele>
        <time>2022-10-09T10:07:11Z</time>
      </trkpt>
      <trkpt lat="43.39464" lon="6.67571">
        <ele>20.6</ele>
        <time>2022-10-09T10:07:12Z</time>
      </trkpt>
      <trkpt lat="43.39467" lon="6.67569">
        <ele>20.5</ele>
        <time>2022-10-09T10:07:13Z</time>
      </trkpt>
      <trkpt lat="43.3947" lon="6.67565">
        <ele>20.4</ele>
        <time>2022-10-09T10:07:14Z</time>
      </trkpt>
      <trkpt lat="43.39473" lon="6.67561">
        <ele>20.2</ele>
        <time>2022-10-09T10:07:15Z</time>
      </trkpt>
      <trkpt lat="43.39476" lon="6.67557">
        <ele>20.1</ele>
        <time>2022-10-09T10:07:16Z</time>
      </trkpt>
      <trkpt lat="43.3948" lon="6.67554">
        <ele>20</ele>
        <time>2022-10-09T10:07:17Z</time>
      </trkpt>
      <trkpt lat="43.39484" lon="6.67552">
        <ele>19.8</ele>
        <time>2022-10-09T10:07:18Z</time>
      </trkpt>
      <trkpt lat="43.3949" lon="6.67551">
        <ele>19.6</ele>
        <time>2022-10-09T10:07:19Z</time>
      </trkpt>
      <trkpt lat="43.39496" lon="6.67551">
        <ele>19.5</ele>
        <time>2022-10-09T10:07:20Z</time>
      </trkpt>
      <trkpt lat="43.39502" lon="6.67551">
        <ele>19.4</ele>
        <time>2022-10-09T10:07:21Z</time>
      </trkpt>
      <trkpt lat="43.39506" lon="6.67552">
        <ele>19.3</ele>
        <time>2022-10-09T10:07:22Z</time>
      </trkpt>
      <trkpt lat="43.39509" lon="6.6755">
        <ele>19.3</ele>
        <time>2022-10-09T10:07:23Z</time>
      </trkpt>
      <trkpt lat="43.39512" lon="6.67548">
        <ele>19.3</ele>
        <time>2022-10-09T10:07:24Z</time>
      </trkpt>
      <trkpt lat="43.39514" lon="6.67544">
        <ele>19.2</ele>
        <time>2022-10-09T10:07:25Z</time>
      </trkpt>
      <trkpt lat="43.39516" lon="6.6754">
        <ele>19.2</ele>
        <time>2022-10-09T10:07:26Z</time>
      </trkpt>
      <trkpt lat="43.39519" lon="6.67536">
        <ele>19.1</ele>
        <time>2022-10-09T10:07:27Z</time>
      </trkpt>
      <trkpt lat="43.39528" lon="6.67525">
        <ele>18.6</ele>
        <time>2022-10-09T10:07:30Z</time>
      </trkpt>
      <trkpt lat="43.39533" lon="6.67521">
        <ele>18.4</ele>
        <time>2022-10-09T10:07:31Z</time>
      </trkpt>
      <trkpt lat="43.39541" lon="6.67516">
        <ele>18.1</ele>
        <time>2022-10-09T10:07:33Z</time>
      </trkpt>
      <trkpt lat="43.39546" lon="6.67514">
        <ele>17.9</ele>
        <time>2022-10-09T10:07:34Z</time>
      </trkpt>
      <trkpt lat="43.3955" lon="6.67511">
        <ele>17.8</ele>
        <time>2022-10-09T10:07:35Z</time>
      </trkpt>
      <trkpt lat="43.39558" lon="6.67506">
        <ele>17.6</ele>
        <time>2022-10-09T10:07:37Z</time>
      </trkpt>
      <trkpt lat="43.39562" lon="6.67504">
        <ele>17.5</ele>
        <time>2022-10-09T10:07:38Z</time>
      </trkpt>
      <trkpt lat="43.39566" lon="6.67502">
        <ele>17.4</ele>
        <time>2022-10-09T10:07:39Z</time>
      </trkpt>
      <trkpt lat="43.3957" lon="6.675">
        <ele>17.3</ele>
        <time>2022-10-09T10:07:40Z</time>
      </trkpt>
      <trkpt lat="43.39574" lon="6.67499">
        <ele>17.2</ele>
        <time>2022-10-09T10:07:41Z</time>
      </trkpt>
      <trkpt lat="43.39578" lon="6.67498">
        <ele>17.1</ele>
        <time>2022-10-09T10:07:42Z</time>
      </trkpt>
      <trkpt lat="43.39588" lon="6.67495">
        <ele>16.8</ele>
        <time>2022-10-09T10:07:44Z</time>
      </trkpt>
      <trkpt lat="43.39604" lon="6.67488">
        <ele>16.5</ele>
        <time>2022-10-09T10:07:47Z</time>
      </trkpt>
      <trkpt lat="43.39621" lon="6.67484">
        <ele>16.2</ele>
        <time>2022-10-09T10:07:50Z</time>
      </trkpt>
      <trkpt lat="43.3965" lon="6.67477">
        <ele>15.7</ele>
        <time>2022-10-09T10:07:55Z</time>
      </trkpt>
      <trkpt lat="43.39655" lon="6.67477">
        <ele>15.6</ele>
        <time>2022-10-09T10:07:56Z</time>
      </trkpt>
      <trkpt lat="43.3966" lon="6.67476">
        <ele>15.6</ele>
        <time>2022-10-09T10:07:57Z</time>
      </trkpt>
      <trkpt lat="43.39666" lon="6.67475">
        <ele>15.5</ele>
        <time>2022-10-09T10:07:58Z</time>
      </trkpt>
      <trkpt lat="43.3967" lon="6.67474">
        <ele>15.5</ele>
        <time>2022-10-09T10:07:59Z</time>
      </trkpt>
      <trkpt lat="43.39674" lon="6.67472">
        <ele>15.4</ele>
        <time>2022-10-09T10:08:00Z</time>
      </trkpt>
      <trkpt lat="43.39677" lon="6.67471">
        <ele>15.4</ele>
        <time>2022-10-09T10:08:01Z</time>
      </trkpt>
      <trkpt lat="43.39682" lon="6.67472">
        <ele>15.3</ele>
        <time>2022-10-09T10:08:02Z</time>
      </trkpt>
      <trkpt lat="43.39686" lon="6.67472">
        <ele>15.3</ele>
        <time>2022-10-09T10:08:03Z</time>
      </trkpt>
      <trkpt lat="43.3969" lon="6.67473">
        <ele>15.2</ele>
        <time>2022-10-09T10:08:04Z</time>
      </trkpt>
      <trkpt lat="43.39702" lon="6.67475">
        <ele>15</ele>
        <time>2022-10-09T10:08:07Z</time>
      </trkpt>
      <trkpt lat="43.39704" lon="6.67476">
        <ele>14.9</ele>
        <time>2022-10-09T10:08:08Z</time>
      </trkpt>
      <trkpt lat="43.39706" lon="6.67478">
        <ele>14.9</ele>
        <time>2022-10-09T10:08:09Z</time>
      </trkpt>
      <trkpt lat="43.39708" lon="6.67481">
        <ele>14.9</ele>
        <time>2022-10-09T10:08:10Z</time>
      </trkpt>
      <trkpt lat="43.3971" lon="6.67485">
        <ele>14.8</ele>
        <time>2022-10-09T10:08:11Z</time>
      </trkpt>
      <trkpt lat="43.39713" lon="6.67489">
        <ele>14.8</ele>
        <time>2022-10-09T10:08:12Z</time>
      </trkpt>
      <trkpt lat="43.3972" lon="6.67492">
        <ele>14.7</ele>
        <time>2022-10-09T10:08:14Z</time>
      </trkpt>
      <trkpt lat="43.39722" lon="6.67492">
        <ele>14.7</ele>
        <time>2022-10-09T10:08:15Z</time>
      </trkpt>
      <trkpt lat="43.39723" lon="6.67491">
        <ele>14.7</ele>
        <time>2022-10-09T10:08:16Z</time>
      </trkpt>
      <trkpt lat="43.39724" lon="6.67491">
        <ele>14.7</ele>
        <time>2022-10-09T10:08:17Z</time>
      </trkpt>
      <trkpt lat="43.39725" lon="6.67491">
        <ele>14.6</ele>
        <time>2022-10-09T10:08:18Z</time>
      </trkpt>
      <trkpt lat="43.39727" lon="6.67489">
        <ele>14.6</ele>
        <time>2022-10-09T10:08:19Z</time>
      </trkpt>
      <trkpt lat="43.39729" lon="6.67485">
        <ele>14.5</ele>
        <time>2022-10-09T10:08:21Z</time>
      </trkpt>
      <trkpt lat="43.39732" lon="6.67477">
        <ele>14.4</ele>
        <time>2022-10-09T10:08:23Z</time>
      </trkpt>
      <trkpt lat="43.39735" lon="6.67463">
        <ele>14.3</ele>
        <time>2022-10-09T10:08:26Z</time>
      </trkpt>
      <trkpt lat="43.39734" lon="6.67459">
        <ele>14.3</ele>
        <time>2022-10-09T10:08:27Z</time>
      </trkpt>
      <trkpt lat="43.39734" lon="6.67454">
        <ele>14.4</ele>
        <time>2022-10-09T10:08:28Z</time>
      </trkpt>
      <trkpt lat="43.39734" lon="6.67451">
        <ele>14.4</ele>
        <time>2022-10-09T10:08:29Z</time>
      </trkpt>
      <trkpt lat="43.39734" lon="6.67446">
        <ele>14.5</ele>
        <time>2022-10-09T10:08:30Z</time>
      </trkpt>
      <trkpt lat="43.39734" lon="6.67442">
        <ele>14.6</ele>
        <time>2022-10-09T10:08:31Z</time>
      </trkpt>
      <trkpt lat="43.39735" lon="6.67433">
        <ele>14.7</ele>
        <time>2022-10-09T10:08:33Z</time>
      </trkpt>
      <trkpt lat="43.39735" lon="6.67428">
        <ele>14.8</ele>
        <time>2022-10-09T10:08:34Z</time>
      </trkpt>
      <trkpt lat="43.39738" lon="6.67411">
        <ele>15</ele>
        <time>2022-10-09T10:08:37Z</time>
      </trkpt>
      <trkpt lat="43.39741" lon="6.67399">
        <ele>15.1</ele>
        <time>2022-10-09T10:08:39Z</time>
      </trkpt>
      <trkpt lat="43.39747" lon="6.67368">
        <ele>15.1</ele>
        <time>2022-10-09T10:08:44Z</time>
      </trkpt>
      <trkpt lat="43.39748" lon="6.67362">
        <ele>15.1</ele>
        <time>2022-10-09T10:08:45Z</time>
      </trkpt>
      <trkpt lat="43.39748" lon="6.67356">
        <ele>15</ele>
        <time>2022-10-09T10:08:46Z</time>
      </trkpt>
      <trkpt lat="43.39749" lon="6.6735">
        <ele>15</ele>
        <time>2022-10-09T10:08:47Z</time>
      </trkpt>
      <trkpt lat="43.3975" lon="6.67344">
        <ele>15</ele>
        <time>2022-10-09T10:08:48Z</time>
      </trkpt>
      <trkpt lat="43.3975" lon="6.67337">
        <ele>15</ele>
        <time>2022-10-09T10:08:49Z</time>
      </trkpt>
      <trkpt lat="43.39749" lon="6.67331">
        <ele>15</ele>
        <time>2022-10-09T10:08:50Z</time>
      </trkpt>
      <trkpt lat="43.39749" lon="6.67325">
        <ele>15</ele>
        <time>2022-10-09T10:08:51Z</time>
      </trkpt>
      <trkpt lat="43.39748" lon="6.6732">
        <ele>15</ele>
        <time>2022-10-09T10:08:52Z</time>
      </trkpt>
      <trkpt lat="43.39745" lon="6.67302">
        <ele>15.1</ele>
        <time>2022-10-09T10:08:55Z</time>
      </trkpt>
      <trkpt lat="43.39744" lon="6.67296">
        <ele>15.1</ele>
        <time>2022-10-09T10:08:56Z</time>
      </trkpt>
      <trkpt lat="43.39742" lon="6.67291">
        <ele>15.1</ele>
        <time>2022-10-09T10:08:57Z</time>
      </trkpt>
      <trkpt lat="43.39741" lon="6.67285">
        <ele>15.2</ele>
        <time>2022-10-09T10:08:58Z</time>
      </trkpt>
      <trkpt lat="43.39737" lon="6.67275">
        <ele>15.3</ele>
        <time>2022-10-09T10:09:00Z</time>
      </trkpt>
      <trkpt lat="43.39733" lon="6.67266">
        <ele>15.4</ele>
        <time>2022-10-09T10:09:02Z</time>
      </trkpt>
      <trkpt lat="43.39731" lon="6.67261">
        <ele>15.4</ele>
        <time>2022-10-09T10:09:03Z</time>
      </trkpt>
      <trkpt lat="43.39728" lon="6.67257">
        <ele>15.5</ele>
        <time>2022-10-09T10:09:04Z</time>
      </trkpt>
      <trkpt lat="43.39725" lon="6.67253">
        <ele>15.5</ele>
        <time>2022-10-09T10:09:05Z</time>
      </trkpt>
      <trkpt lat="43.39723" lon="6.6725">
        <ele>15.6</ele>
        <time>2022-10-09T10:09:06Z</time>
      </trkpt>
      <trkpt lat="43.3972" lon="6.67246">
        <ele>15.7</ele>
        <time>2022-10-09T10:09:07Z</time>
      </trkpt>
      <trkpt lat="43.39717" lon="6.67244">
        <ele>15.7</ele>
        <time>2022-10-09T10:09:08Z</time>
      </trkpt>
      <trkpt lat="43.39714" lon="6.67241">
        <ele>15.8</ele>
        <time>2022-10-09T10:09:09Z</time>
      </trkpt>
      <trkpt lat="43.39711" lon="6.6724">
        <ele>15.9</ele>
        <time>2022-10-09T10:09:10Z</time>
      </trkpt>
      <trkpt lat="43.39708" lon="6.67238">
        <ele>15.9</ele>
        <time>2022-10-09T10:09:11Z</time>
      </trkpt>
      <trkpt lat="43.39705" lon="6.67237">
        <ele>16</ele>
        <time>2022-10-09T10:09:12Z</time>
      </trkpt>
      <trkpt lat="43.39703" lon="6.67236">
        <ele>16</ele>
        <time>2022-10-09T10:09:13Z</time>
      </trkpt>
      <trkpt lat="43.397" lon="6.67234">
        <ele>16.1</ele>
        <time>2022-10-09T10:09:14Z</time>
      </trkpt>
      <trkpt lat="43.39695" lon="6.67232">
        <ele>16.1</ele>
        <time>2022-10-09T10:09:16Z</time>
      </trkpt>
      <trkpt lat="43.39694" lon="6.67231">
        <ele>16.1</ele>
        <time>2022-10-09T10:09:17Z</time>
      </trkpt>
      <trkpt lat="43.39693" lon="6.67231">
        <ele>16.1</ele>
        <time>2022-10-09T10:09:18Z</time>
      </trkpt>
      <trkpt lat="43.39693" lon="6.67231">
        <ele>16.1</ele>
        <time>2022-10-09T10:09:19Z</time>
      </trkpt>
      <trkpt lat="43.39692" lon="6.67231">
        <ele>16.1</ele>
        <time>2022-10-09T10:09:20Z</time>
      </trkpt>
      <trkpt lat="43.39692" lon="6.67231">
        <ele>16.1</ele>
        <time>2022-10-09T10:09:21Z</time>
      </trkpt>
      <trkpt lat="43.39679" lon="6.67209">
        <ele>15.9</ele>
        <time>2022-10-09T10:13:41Z</time>
      </trkpt>
      <trkpt lat="43.39677" lon="6.67207">
        <ele>15.8</ele>
        <time>2022-10-09T10:13:42Z</time>
      </trkpt>
      <trkpt lat="43.39668" lon="6.672">
        <ele>15.6</ele>
        <time>2022-10-09T10:13:45Z</time>
      </trkpt>
      <trkpt lat="43.3966" lon="6.67198">
        <ele>15.4</ele>
        <time>2022-10-09T10:13:47Z</time>
      </trkpt>
      <trkpt lat="43.39655" lon="6.67197">
        <ele>15.2</ele>
        <time>2022-10-09T10:13:48Z</time>
      </trkpt>
      <trkpt lat="43.39651" lon="6.67197">
        <ele>15.2</ele>
        <time>2022-10-09T10:13:49Z</time>
      </trkpt>
      <trkpt lat="43.39637" lon="6.67201">
        <ele>14.9</ele>
        <time>2022-10-09T10:13:52Z</time>
      </trkpt>
      <trkpt lat="43.39628" lon="6.67205">
        <ele>14.8</ele>
        <time>2022-10-09T10:13:54Z</time>
      </trkpt>
      <trkpt lat="43.39625" lon="6.67208">
        <ele>14.8</ele>
        <time>2022-10-09T10:13:55Z</time>
      </trkpt>
      <trkpt lat="43.39621" lon="6.67209">
        <ele>14.8</ele>
        <time>2022-10-09T10:13:56Z</time>
      </trkpt>
      <trkpt lat="43.39617" lon="6.67212">
        <ele>14.8</ele>
        <time>2022-10-09T10:13:57Z</time>
      </trkpt>
      <trkpt lat="43.39606" lon="6.67218">
        <ele>14.7</ele>
        <time>2022-10-09T10:14:00Z</time>
      </trkpt>
      <trkpt lat="43.39602" lon="6.67219">
        <ele>14.7</ele>
        <time>2022-10-09T10:14:01Z</time>
      </trkpt>
      <trkpt lat="43.39599" lon="6.67221">
        <ele>14.7</ele>
        <time>2022-10-09T10:14:02Z</time>
      </trkpt>
      <trkpt lat="43.39595" lon="6.67224">
        <ele>14.7</ele>
        <time>2022-10-09T10:14:03Z</time>
      </trkpt>
      <trkpt lat="43.39591" lon="6.67226">
        <ele>14.6</ele>
        <time>2022-10-09T10:14:04Z</time>
      </trkpt>
      <trkpt lat="43.39584" lon="6.67228">
        <ele>14.6</ele>
        <time>2022-10-09T10:14:06Z</time>
      </trkpt>
      <trkpt lat="43.39576" lon="6.67226">
        <ele>14.6</ele>
        <time>2022-10-09T10:14:08Z</time>
      </trkpt>
      <trkpt lat="43.39572" lon="6.67224">
        <ele>14.6</ele>
        <time>2022-10-09T10:14:09Z</time>
      </trkpt>
      <trkpt lat="43.39568" lon="6.67221">
        <ele>14.6</ele>
        <time>2022-10-09T10:14:10Z</time>
      </trkpt>
      <trkpt lat="43.39565" lon="6.67217">
        <ele>14.6</ele>
        <time>2022-10-09T10:14:11Z</time>
      </trkpt>
      <trkpt lat="43.39562" lon="6.67213">
        <ele>14.6</ele>
        <time>2022-10-09T10:14:12Z</time>
      </trkpt>
      <trkpt lat="43.39559" lon="6.67208">
        <ele>14.6</ele>
        <time>2022-10-09T10:14:13Z</time>
      </trkpt>
      <trkpt lat="43.39556" lon="6.67203">
        <ele>14.6</ele>
        <time>2022-10-09T10:14:14Z</time>
      </trkpt>
      <trkpt lat="43.39553" lon="6.67198">
        <ele>14.6</ele>
        <time>2022-10-09T10:14:15Z</time>
      </trkpt>
      <trkpt lat="43.39551" lon="6.67193">
        <ele>14.6</ele>
        <time>2022-10-09T10:14:16Z</time>
      </trkpt>
      <trkpt lat="43.39549" lon="6.67188">
        <ele>14.6</ele>
        <time>2022-10-09T10:14:17Z</time>
      </trkpt>
      <trkpt lat="43.39546" lon="6.67182">
        <ele>14.6</ele>
        <time>2022-10-09T10:14:18Z</time>
      </trkpt>
      <trkpt lat="43.39544" lon="6.67177">
        <ele>14.6</ele>
        <time>2022-10-09T10:14:19Z</time>
      </trkpt>
      <trkpt lat="43.39541" lon="6.67172">
        <ele>14.7</ele>
        <time>2022-10-09T10:14:20Z</time>
      </trkpt>
      <trkpt lat="43.39536" lon="6.67162">
        <ele>14.7</ele>
        <time>2022-10-09T10:14:22Z</time>
      </trkpt>
      <trkpt lat="43.39533" lon="6.67158">
        <ele>14.7</ele>
        <time>2022-10-09T10:14:23Z</time>
      </trkpt>
      <trkpt lat="43.39525" lon="6.67151">
        <ele>14.8</ele>
        <time>2022-10-09T10:14:25Z</time>
      </trkpt>
      <trkpt lat="43.39521" lon="6.67148">
        <ele>14.9</ele>
        <time>2022-10-09T10:14:26Z</time>
      </trkpt>
      <trkpt lat="43.39517" lon="6.67145">
        <ele>14.9</ele>
        <time>2022-10-09T10:14:27Z</time>
      </trkpt>
      <trkpt lat="43.39513" lon="6.67143">
        <ele>15</ele>
        <time>2022-10-09T10:14:28Z</time>
      </trkpt>
      <trkpt lat="43.39509" lon="6.67141">
        <ele>15</ele>
        <time>2022-10-09T10:14:29Z</time>
      </trkpt>
      <trkpt lat="43.39505" lon="6.67138">
        <ele>15</ele>
        <time>2022-10-09T10:14:30Z</time>
      </trkpt>
      <trkpt lat="43.39501" lon="6.67134">
        <ele>15</ele>
        <time>2022-10-09T10:14:31Z</time>
      </trkpt>
      <trkpt lat="43.39498" lon="6.67129">
        <ele>15</ele>
        <time>2022-10-09T10:14:32Z</time>
      </trkpt>
      <trkpt lat="43.39496" lon="6.67123">
        <ele>15.1</ele>
        <time>2022-10-09T10:14:33Z</time>
      </trkpt>
      <trkpt lat="43.39493" lon="6.67117">
        <ele>15.1</ele>
        <time>2022-10-09T10:14:34Z</time>
      </trkpt>
      <trkpt lat="43.39491" lon="6.67111">
        <ele>15.2</ele>
        <time>2022-10-09T10:14:35Z</time>
      </trkpt>
      <trkpt lat="43.39488" lon="6.67107">
        <ele>15.3</ele>
        <time>2022-10-09T10:14:36Z</time>
      </trkpt>
      <trkpt lat="43.39484" lon="6.67103">
        <ele>15.4</ele>
        <time>2022-10-09T10:14:37Z</time>
      </trkpt>
      <trkpt lat="43.39481" lon="6.67101">
        <ele>15.6</ele>
        <time>2022-10-09T10:14:38Z</time>
      </trkpt>
      <trkpt lat="43.39478" lon="6.671">
        <ele>15.7</ele>
        <time>2022-10-09T10:14:39Z</time>
      </trkpt>
      <trkpt lat="43.39475" lon="6.67098">
        <ele>15.8</ele>
        <time>2022-10-09T10:14:40Z</time>
      </trkpt>
      <trkpt lat="43.39472" lon="6.67097">
        <ele>15.9</ele>
        <time>2022-10-09T10:14:41Z</time>
      </trkpt>
      <trkpt lat="43.39463" lon="6.6709">
        <ele>16.1</ele>
        <time>2022-10-09T10:14:44Z</time>
      </trkpt>
      <trkpt lat="43.3946" lon="6.67087">
        <ele>16.2</ele>
        <time>2022-10-09T10:14:45Z</time>
      </trkpt>
      <trkpt lat="43.39458" lon="6.67085">
        <ele>16.3</ele>
        <time>2022-10-09T10:14:46Z</time>
      </trkpt>
      <trkpt lat="43.39456" lon="6.67081">
        <ele>16.3</ele>
        <time>2022-10-09T10:14:47Z</time>
      </trkpt>
      <trkpt lat="43.39449" lon="6.67071">
        <ele>16.5</ele>
        <time>2022-10-09T10:14:50Z</time>
      </trkpt>
      <trkpt lat="43.39447" lon="6.67067">
        <ele>16.6</ele>
        <time>2022-10-09T10:14:51Z</time>
      </trkpt>
      <trkpt lat="43.39445" lon="6.67063">
        <ele>16.6</ele>
        <time>2022-10-09T10:14:52Z</time>
      </trkpt>
      <trkpt lat="43.39441" lon="6.67056">
        <ele>16.7</ele>
        <time>2022-10-09T10:14:54Z</time>
      </trkpt>
      <trkpt lat="43.39439" lon="6.67053">
        <ele>16.8</ele>
        <time>2022-10-09T10:14:55Z</time>
      </trkpt>
      <trkpt lat="43.39435" lon="6.67046">
        <ele>16.9</ele>
        <time>2022-10-09T10:14:57Z</time>
      </trkpt>
      <trkpt lat="43.39418" lon="6.67011">
        <ele>17.1</ele>
        <time>2022-10-09T10:15:05Z</time>
      </trkpt>
      <trkpt lat="43.39412" lon="6.67001">
        <ele>17.1</ele>
        <time>2022-10-09T10:15:07Z</time>
      </trkpt>
      <trkpt lat="43.39406" lon="6.6699">
        <ele>17.2</ele>
        <time>2022-10-09T10:15:09Z</time>
      </trkpt>
      <trkpt lat="43.39399" lon="6.66979">
        <ele>17.3</ele>
        <time>2022-10-09T10:15:11Z</time>
      </trkpt>
      <trkpt lat="43.39395" lon="6.66975">
        <ele>17.3</ele>
        <time>2022-10-09T10:15:12Z</time>
      </trkpt>
      <trkpt lat="43.3939" lon="6.6697">
        <ele>17.3</ele>
        <time>2022-10-09T10:15:13Z</time>
      </trkpt>
      <trkpt lat="43.39387" lon="6.66966">
        <ele>17.3</ele>
        <time>2022-10-09T10:15:14Z</time>
      </trkpt>
      <trkpt lat="43.39383" lon="6.66961">
        <ele>17.3</ele>
        <time>2022-10-09T10:15:15Z</time>
      </trkpt>
      <trkpt lat="43.39378" lon="6.66957">
        <ele>17.3</ele>
        <time>2022-10-09T10:15:16Z</time>
      </trkpt>
      <trkpt lat="43.39368" lon="6.66949">
        <ele>17.4</ele>
        <time>2022-10-09T10:15:18Z</time>
      </trkpt>
      <trkpt lat="43.39358" lon="6.66939">
        <ele>17.5</ele>
        <time>2022-10-09T10:15:20Z</time>
      </trkpt>
      <trkpt lat="43.39343" lon="6.66927">
        <ele>17.7</ele>
        <time>2022-10-09T10:15:23Z</time>
      </trkpt>
      <trkpt lat="43.39339" lon="6.66923">
        <ele>17.8</ele>
        <time>2022-10-09T10:15:24Z</time>
      </trkpt>
      <trkpt lat="43.39319" lon="6.66907">
        <ele>18</ele>
        <time>2022-10-09T10:15:28Z</time>
      </trkpt>
      <trkpt lat="43.39314" lon="6.66904">
        <ele>18</ele>
        <time>2022-10-09T10:15:29Z</time>
      </trkpt>
      <trkpt lat="43.39298" lon="6.66899">
        <ele>17.9</ele>
        <time>2022-10-09T10:15:32Z</time>
      </trkpt>
      <trkpt lat="43.39292" lon="6.66897">
        <ele>17.7</ele>
        <time>2022-10-09T10:15:33Z</time>
      </trkpt>
      <trkpt lat="43.39286" lon="6.66894">
        <ele>17.5</ele>
        <time>2022-10-09T10:15:34Z</time>
      </trkpt>
      <trkpt lat="43.3928" lon="6.66889">
        <ele>17.2</ele>
        <time>2022-10-09T10:15:35Z</time>
      </trkpt>
      <trkpt lat="43.39275" lon="6.66883">
        <ele>17</ele>
        <time>2022-10-09T10:15:36Z</time>
      </trkpt>
      <trkpt lat="43.3927" lon="6.66877">
        <ele>16.7</ele>
        <time>2022-10-09T10:15:37Z</time>
      </trkpt>
      <trkpt lat="43.39265" lon="6.66869">
        <ele>16.5</ele>
        <time>2022-10-09T10:15:38Z</time>
      </trkpt>
      <trkpt lat="43.39262" lon="6.66861">
        <ele>16.4</ele>
        <time>2022-10-09T10:15:39Z</time>
      </trkpt>
      <trkpt lat="43.39258" lon="6.66853">
        <ele>16.3</ele>
        <time>2022-10-09T10:15:40Z</time>
      </trkpt>
      <trkpt lat="43.39255" lon="6.66845">
        <ele>16.2</ele>
        <time>2022-10-09T10:15:41Z</time>
      </trkpt>
      <trkpt lat="43.39252" lon="6.66838">
        <ele>16.2</ele>
        <time>2022-10-09T10:15:42Z</time>
      </trkpt>
      <trkpt lat="43.39249" lon="6.66832">
        <ele>16.3</ele>
        <time>2022-10-09T10:15:43Z</time>
      </trkpt>
      <trkpt lat="43.39246" lon="6.66827">
        <ele>16.4</ele>
        <time>2022-10-09T10:15:44Z</time>
      </trkpt>
      <trkpt lat="43.39244" lon="6.66822">
        <ele>16.6</ele>
        <time>2022-10-09T10:15:45Z</time>
      </trkpt>
      <trkpt lat="43.39242" lon="6.66818">
        <ele>16.7</ele>
        <time>2022-10-09T10:15:46Z</time>
      </trkpt>
      <trkpt lat="43.39242" lon="6.66815">
        <ele>16.8</ele>
        <time>2022-10-09T10:15:47Z</time>
      </trkpt>
      <trkpt lat="43.39242" lon="6.66811">
        <ele>16.9</ele>
        <time>2022-10-09T10:15:48Z</time>
      </trkpt>
      <trkpt lat="43.39243" lon="6.66808">
        <ele>17</ele>
        <time>2022-10-09T10:15:49Z</time>
      </trkpt>
      <trkpt lat="43.39245" lon="6.66804">
        <ele>17.2</ele>
        <time>2022-10-09T10:15:50Z</time>
      </trkpt>
      <trkpt lat="43.39249" lon="6.66797">
        <ele>17.5</ele>
        <time>2022-10-09T10:15:52Z</time>
      </trkpt>
      <trkpt lat="43.39254" lon="6.66785">
        <ele>17.9</ele>
        <time>2022-10-09T10:15:55Z</time>
      </trkpt>
      <trkpt lat="43.3926" lon="6.66773">
        <ele>18.3</ele>
        <time>2022-10-09T10:15:58Z</time>
      </trkpt>
      <trkpt lat="43.39261" lon="6.66769">
        <ele>18.4</ele>
        <time>2022-10-09T10:15:59Z</time>
      </trkpt>
      <trkpt lat="43.39263" lon="6.66765">
        <ele>18.5</ele>
        <time>2022-10-09T10:16:00Z</time>
      </trkpt>
      <trkpt lat="43.39264" lon="6.66761">
        <ele>18.6</ele>
        <time>2022-10-09T10:16:01Z</time>
      </trkpt>
      <trkpt lat="43.39266" lon="6.66757">
        <ele>18.7</ele>
        <time>2022-10-09T10:16:02Z</time>
      </trkpt>
      <trkpt lat="43.39267" lon="6.66753">
        <ele>18.8</ele>
        <time>2022-10-09T10:16:03Z</time>
      </trkpt>
      <trkpt lat="43.39268" lon="6.6675">
        <ele>18.9</ele>
        <time>2022-10-09T10:16:04Z</time>
      </trkpt>
      <trkpt lat="43.3927" lon="6.66747">
        <ele>19</ele>
        <time>2022-10-09T10:16:05Z</time>
      </trkpt>
      <trkpt lat="43.39271" lon="6.66743">
        <ele>19.1</ele>
        <time>2022-10-09T10:16:06Z</time>
      </trkpt>
      <trkpt lat="43.39276" lon="6.66726">
        <ele>19.8</ele>
        <time>2022-10-09T10:16:10Z</time>
      </trkpt>
      <trkpt lat="43.39277" lon="6.66722">
        <ele>20</ele>
        <time>2022-10-09T10:16:11Z</time>
      </trkpt>
      <trkpt lat="43.39278" lon="6.66719">
        <ele>20.2</ele>
        <time>2022-10-09T10:16:12Z</time>
      </trkpt>
      <trkpt lat="43.39279" lon="6.66715">
        <ele>20.5</ele>
        <time>2022-10-09T10:16:13Z</time>
      </trkpt>
      <trkpt lat="43.3928" lon="6.66712">
        <ele>20.7</ele>
        <time>2022-10-09T10:16:14Z</time>
      </trkpt>
      <trkpt lat="43.3928" lon="6.66709">
        <ele>21</ele>
        <time>2022-10-09T10:16:15Z</time>
      </trkpt>
      <trkpt lat="43.3928" lon="6.66707">
        <ele>21.2</ele>
        <time>2022-10-09T10:16:16Z</time>
      </trkpt>
      <trkpt lat="43.39279" lon="6.66704">
        <ele>21.5</ele>
        <time>2022-10-09T10:16:17Z</time>
      </trkpt>
      <trkpt lat="43.39279" lon="6.66701">
        <ele>21.8</ele>
        <time>2022-10-09T10:16:18Z</time>
      </trkpt>
      <trkpt lat="43.39279" lon="6.66698">
        <ele>22.2</ele>
        <time>2022-10-09T10:16:19Z</time>
      </trkpt>
      <trkpt lat="43.39279" lon="6.66696">
        <ele>22.5</ele>
        <time>2022-10-09T10:16:20Z</time>
      </trkpt>
      <trkpt lat="43.39279" lon="6.66693">
        <ele>22.8</ele>
        <time>2022-10-09T10:16:21Z</time>
      </trkpt>
      <trkpt lat="43.39278" lon="6.66691">
        <ele>23.1</ele>
        <time>2022-10-09T10:16:22Z</time>
      </trkpt>
      <trkpt lat="43.39278" lon="6.66689">
        <ele>23.3</ele>
        <time>2022-10-09T10:16:23Z</time>
      </trkpt>
      <trkpt lat="43.39278" lon="6.66687">
        <ele>23.6</ele>
        <time>2022-10-09T10:16:24Z</time>
      </trkpt>
      <trkpt lat="43.39278" lon="6.66684">
        <ele>23.9</ele>
        <time>2022-10-09T10:16:25Z</time>
      </trkpt>
      <trkpt lat="43.39277" lon="6.66683">
        <ele>24.2</ele>
        <time>2022-10-09T10:16:26Z</time>
      </trkpt>
      <trkpt lat="43.39276" lon="6.66681">
        <ele>24.5</ele>
        <time>2022-10-09T10:16:27Z</time>
      </trkpt>
      <trkpt lat="43.39276" lon="6.66679">
        <ele>24.8</ele>
        <time>2022-10-09T10:16:28Z</time>
      </trkpt>
      <trkpt lat="43.39275" lon="6.66677">
        <ele>25.1</ele>
        <time>2022-10-09T10:16:29Z</time>
      </trkpt>
      <trkpt lat="43.39273" lon="6.66675">
        <ele>25.5</ele>
        <time>2022-10-09T10:16:30Z</time>
      </trkpt>
      <trkpt lat="43.39272" lon="6.66673">
        <ele>25.8</ele>
        <time>2022-10-09T10:16:31Z</time>
      </trkpt>
      <trkpt lat="43.39271" lon="6.66672">
        <ele>26.1</ele>
        <time>2022-10-09T10:16:32Z</time>
      </trkpt>
      <trkpt lat="43.39269" lon="6.6667">
        <ele>26.5</ele>
        <time>2022-10-09T10:16:33Z</time>
      </trkpt>
      <trkpt lat="43.39268" lon="6.66669">
        <ele>26.7</ele>
        <time>2022-10-09T10:16:34Z</time>
      </trkpt>
      <trkpt lat="43.39268" lon="6.66667">
        <ele>27</ele>
        <time>2022-10-09T10:16:35Z</time>
      </trkpt>
      <trkpt lat="43.39267" lon="6.66665">
        <ele>27.3</ele>
        <time>2022-10-09T10:16:36Z</time>
      </trkpt>
      <trkpt lat="43.39266" lon="6.66662">
        <ele>27.7</ele>
        <time>2022-10-09T10:16:37Z</time>
      </trkpt>
      <trkpt lat="43.39266" lon="6.6666">
        <ele>28.9</ele>
        <time>2022-10-09T10:16:38Z</time>
      </trkpt>
      <trkpt lat="43.39266" lon="6.66656">
        <ele>29</ele>
        <time>2022-10-09T10:16:39Z</time>
      </trkpt>
      <trkpt lat="43.39266" lon="6.66652">
        <ele>29.1</ele>
        <time>2022-10-09T10:16:40Z</time>
      </trkpt>
      <trkpt lat="43.39267" lon="6.66648">
        <ele>29.1</ele>
        <time>2022-10-09T10:16:41Z</time>
      </trkpt>
      <trkpt lat="43.39268" lon="6.66644">
        <ele>29.2</ele>
        <time>2022-10-09T10:16:42Z</time>
      </trkpt>
      <trkpt lat="43.39269" lon="6.6664">
        <ele>29.3</ele>
        <time>2022-10-09T10:16:43Z</time>
      </trkpt>
      <trkpt lat="43.39271" lon="6.66636">
        <ele>29.4</ele>
        <time>2022-10-09T10:16:44Z</time>
      </trkpt>
      <trkpt lat="43.39273" lon="6.66632">
        <ele>29.4</ele>
        <time>2022-10-09T10:16:45Z</time>
      </trkpt>
      <trkpt lat="43.39275" lon="6.66629">
        <ele>29.5</ele>
        <time>2022-10-09T10:16:46Z</time>
      </trkpt>
      <trkpt lat="43.39277" lon="6.66625">
        <ele>29.5</ele>
        <time>2022-10-09T10:16:47Z</time>
      </trkpt>
      <trkpt lat="43.39279" lon="6.66622">
        <ele>29.6</ele>
        <time>2022-10-09T10:16:48Z</time>
      </trkpt>
      <trkpt lat="43.3928" lon="6.66618">
        <ele>29.6</ele>
        <time>2022-10-09T10:16:49Z</time>
      </trkpt>
      <trkpt lat="43.39282" lon="6.66615">
        <ele>29.6</ele>
        <time>2022-10-09T10:16:50Z</time>
      </trkpt>
      <trkpt lat="43.39284" lon="6.66611">
        <ele>29.7</ele>
        <time>2022-10-09T10:16:51Z</time>
      </trkpt>
      <trkpt lat="43.39285" lon="6.66606">
        <ele>29.7</ele>
        <time>2022-10-09T10:16:52Z</time>
      </trkpt>
      <trkpt lat="43.39287" lon="6.66602">
        <ele>29.7</ele>
        <time>2022-10-09T10:16:53Z</time>
      </trkpt>
      <trkpt lat="43.39289" lon="6.66597">
        <ele>29.7</ele>
        <time>2022-10-09T10:16:54Z</time>
      </trkpt>
      <trkpt lat="43.39292" lon="6.66592">
        <ele>29.5</ele>
        <time>2022-10-09T10:16:55Z</time>
      </trkpt>
      <trkpt lat="43.39294" lon="6.66588">
        <ele>29.4</ele>
        <time>2022-10-09T10:16:56Z</time>
      </trkpt>
      <trkpt lat="43.39297" lon="6.66583">
        <ele>29.2</ele>
        <time>2022-10-09T10:16:57Z</time>
      </trkpt>
      <trkpt lat="43.393" lon="6.66577">
        <ele>29</ele>
        <time>2022-10-09T10:16:58Z</time>
      </trkpt>
      <trkpt lat="43.39303" lon="6.66571">
        <ele>28.7</ele>
        <time>2022-10-09T10:16:59Z</time>
      </trkpt>
      <trkpt lat="43.39305" lon="6.66563">
        <ele>28.3</ele>
        <time>2022-10-09T10:17:00Z</time>
      </trkpt>
      <trkpt lat="43.39308" lon="6.66555">
        <ele>28</ele>
        <time>2022-10-09T10:17:01Z</time>
      </trkpt>
      <trkpt lat="43.39313" lon="6.6654">
        <ele>27.5</ele>
        <time>2022-10-09T10:17:03Z</time>
      </trkpt>
      <trkpt lat="43.39316" lon="6.66537">
        <ele>27.3</ele>
        <time>2022-10-09T10:17:04Z</time>
      </trkpt>
      <trkpt lat="43.39318" lon="6.66535">
        <ele>27.2</ele>
        <time>2022-10-09T10:17:05Z</time>
      </trkpt>
      <trkpt lat="43.3932" lon="6.66533">
        <ele>27.1</ele>
        <time>2022-10-09T10:17:06Z</time>
      </trkpt>
      <trkpt lat="43.39321" lon="6.66532">
        <ele>27.3</ele>
        <time>2022-10-09T10:17:07Z</time>
      </trkpt>
      <trkpt lat="43.39322" lon="6.6653">
        <ele>27.4</ele>
        <time>2022-10-09T10:17:08Z</time>
      </trkpt>
      <trkpt lat="43.39323" lon="6.66529">
        <ele>27.6</ele>
        <time>2022-10-09T10:17:09Z</time>
      </trkpt>
      <trkpt lat="43.39323" lon="6.66527">
        <ele>27.7</ele>
        <time>2022-10-09T10:17:10Z</time>
      </trkpt>
      <trkpt lat="43.39325" lon="6.66522">
        <ele>28.1</ele>
        <time>2022-10-09T10:17:12Z</time>
      </trkpt>
      <trkpt lat="43.39326" lon="6.6652">
        <ele>28.3</ele>
        <time>2022-10-09T10:17:13Z</time>
      </trkpt>
      <trkpt lat="43.39327" lon="6.66518">
        <ele>28.5</ele>
        <time>2022-10-09T10:17:14Z</time>
      </trkpt>
      <trkpt lat="43.39329" lon="6.66512">
        <ele>29.2</ele>
        <time>2022-10-09T10:17:17Z</time>
      </trkpt>
      <trkpt lat="43.39331" lon="6.66509">
        <ele>29.6</ele>
        <time>2022-10-09T10:17:19Z</time>
      </trkpt>
      <trkpt lat="43.39332" lon="6.66507">
        <ele>29.8</ele>
        <time>2022-10-09T10:17:20Z</time>
      </trkpt>
      <trkpt lat="43.39333" lon="6.66507">
        <ele>30</ele>
        <time>2022-10-09T10:17:21Z</time>
      </trkpt>
      <trkpt lat="43.39335" lon="6.66506">
        <ele>30.2</ele>
        <time>2022-10-09T10:17:22Z</time>
      </trkpt>
      <trkpt lat="43.39336" lon="6.66505">
        <ele>30.4</ele>
        <time>2022-10-09T10:17:23Z</time>
      </trkpt>
      <trkpt lat="43.39337" lon="6.66504">
        <ele>30.6</ele>
        <time>2022-10-09T10:17:24Z</time>
      </trkpt>
      <trkpt lat="43.3934" lon="6.66503">
        <ele>31</ele>
        <time>2022-10-09T10:17:26Z</time>
      </trkpt>
      <trkpt lat="43.39341" lon="6.66503">
        <ele>31.2</ele>
        <time>2022-10-09T10:17:27Z</time>
      </trkpt>
      <trkpt lat="43.39343" lon="6.66503">
        <ele>31.5</ele>
        <time>2022-10-09T10:17:28Z</time>
      </trkpt>
      <trkpt lat="43.39344" lon="6.66503">
        <ele>31.7</ele>
        <time>2022-10-09T10:17:29Z</time>
      </trkpt>
      <trkpt lat="43.39346" lon="6.66502">
        <ele>31.9</ele>
        <time>2022-10-09T10:17:30Z</time>
      </trkpt>
      <trkpt lat="43.39347" lon="6.66502">
        <ele>32</ele>
        <time>2022-10-09T10:17:31Z</time>
      </trkpt>
      <trkpt lat="43.39349" lon="6.66501">
        <ele>32</ele>
        <time>2022-10-09T10:17:32Z</time>
      </trkpt>
      <trkpt lat="43.3935" lon="6.66501">
        <ele>32.1</ele>
        <time>2022-10-09T10:17:33Z</time>
      </trkpt>
      <trkpt lat="43.39351" lon="6.66501">
        <ele>32.2</ele>
        <time>2022-10-09T10:17:34Z</time>
      </trkpt>
      <trkpt lat="43.39352" lon="6.665">
        <ele>32.2</ele>
        <time>2022-10-09T10:17:35Z</time>
      </trkpt>
      <trkpt lat="43.39354" lon="6.665">
        <ele>32.3</ele>
        <time>2022-10-09T10:17:36Z</time>
      </trkpt>
      <trkpt lat="43.39355" lon="6.66499">
        <ele>32.4</ele>
        <time>2022-10-09T10:17:37Z</time>
      </trkpt>
      <trkpt lat="43.39356" lon="6.66499">
        <ele>32.4</ele>
        <time>2022-10-09T10:17:38Z</time>
      </trkpt>
      <trkpt lat="43.39357" lon="6.66499">
        <ele>32.5</ele>
        <time>2022-10-09T10:17:39Z</time>
      </trkpt>
      <trkpt lat="43.39358" lon="6.66499">
        <ele>32.5</ele>
        <time>2022-10-09T10:17:40Z</time>
      </trkpt>
      <trkpt lat="43.39359" lon="6.66499">
        <ele>32.6</ele>
        <time>2022-10-09T10:17:41Z</time>
      </trkpt>
      <trkpt lat="43.3936" lon="6.66499">
        <ele>32.6</ele>
        <time>2022-10-09T10:17:42Z</time>
      </trkpt>
      <trkpt lat="43.39361" lon="6.66498">
        <ele>32.8</ele>
        <time>2022-10-09T10:17:43Z</time>
      </trkpt>
      <trkpt lat="43.39363" lon="6.66497">
        <ele>32.9</ele>
        <time>2022-10-09T10:17:44Z</time>
      </trkpt>
      <trkpt lat="43.39364" lon="6.66497">
        <ele>33.1</ele>
        <time>2022-10-09T10:17:45Z</time>
      </trkpt>
      <trkpt lat="43.39365" lon="6.66496">
        <ele>33.2</ele>
        <time>2022-10-09T10:17:46Z</time>
      </trkpt>
      <trkpt lat="43.39366" lon="6.66495">
        <ele>33.3</ele>
        <time>2022-10-09T10:17:47Z</time>
      </trkpt>
      <trkpt lat="43.39368" lon="6.66494">
        <ele>33.5</ele>
        <time>2022-10-09T10:17:48Z</time>
      </trkpt>
      <trkpt lat="43.3937" lon="6.66493">
        <ele>33.7</ele>
        <time>2022-10-09T10:17:49Z</time>
      </trkpt>
      <trkpt lat="43.39372" lon="6.66492">
        <ele>33.9</ele>
        <time>2022-10-09T10:17:50Z</time>
      </trkpt>
      <trkpt lat="43.39374" lon="6.66491">
        <ele>34.1</ele>
        <time>2022-10-09T10:17:51Z</time>
      </trkpt>
      <trkpt lat="43.39376" lon="6.6649">
        <ele>34.3</ele>
        <time>2022-10-09T10:17:52Z</time>
      </trkpt>
      <trkpt lat="43.39378" lon="6.66489">
        <ele>34.4</ele>
        <time>2022-10-09T10:17:53Z</time>
      </trkpt>
      <trkpt lat="43.39379" lon="6.66488">
        <ele>34.6</ele>
        <time>2022-10-09T10:17:54Z</time>
      </trkpt>
      <trkpt lat="43.39381" lon="6.66488">
        <ele>34.7</ele>
        <time>2022-10-09T10:17:55Z</time>
      </trkpt>
      <trkpt lat="43.39383" lon="6.66487">
        <ele>34.9</ele>
        <time>2022-10-09T10:17:56Z</time>
      </trkpt>
      <trkpt lat="43.39385" lon="6.66487">
        <ele>35</ele>
        <time>2022-10-09T10:17:57Z</time>
      </trkpt>
      <trkpt lat="43.39386" lon="6.66486">
        <ele>35.2</ele>
        <time>2022-10-09T10:17:58Z</time>
      </trkpt>
      <trkpt lat="43.39388" lon="6.66485">
        <ele>35.3</ele>
        <time>2022-10-09T10:17:59Z</time>
      </trkpt>
      <trkpt lat="43.3939" lon="6.66485">
        <ele>35.4</ele>
        <time>2022-10-09T10:18:00Z</time>
      </trkpt>
      <trkpt lat="43.39392" lon="6.66484">
        <ele>35.5</ele>
        <time>2022-10-09T10:18:01Z</time>
      </trkpt>
      <trkpt lat="43.39394" lon="6.66484">
        <ele>35.6</ele>
        <time>2022-10-09T10:18:02Z</time>
      </trkpt>
      <trkpt lat="43.39396" lon="6.66483">
        <ele>35.8</ele>
        <time>2022-10-09T10:18:03Z</time>
      </trkpt>
      <trkpt lat="43.39398" lon="6.66482">
        <ele>35.9</ele>
        <time>2022-10-09T10:18:04Z</time>
      </trkpt>
      <trkpt lat="43.39399" lon="6.66481">
        <ele>36</ele>
        <time>2022-10-09T10:18:05Z</time>
      </trkpt>
      <trkpt lat="43.39401" lon="6.6648">
        <ele>36.1</ele>
        <time>2022-10-09T10:18:06Z</time>
      </trkpt>
      <trkpt lat="43.39403" lon="6.6648">
        <ele>36.2</ele>
        <time>2022-10-09T10:18:07Z</time>
      </trkpt>
      <trkpt lat="43.39405" lon="6.66479">
        <ele>36.3</ele>
        <time>2022-10-09T10:18:08Z</time>
      </trkpt>
      <trkpt lat="43.39407" lon="6.66478">
        <ele>36.4</ele>
        <time>2022-10-09T10:18:09Z</time>
      </trkpt>
      <trkpt lat="43.39409" lon="6.66477">
        <ele>36.5</ele>
        <time>2022-10-09T10:18:10Z</time>
      </trkpt>
      <trkpt lat="43.39411" lon="6.66477">
        <ele>36.6</ele>
        <time>2022-10-09T10:18:11Z</time>
      </trkpt>
      <trkpt lat="43.39413" lon="6.66476">
        <ele>36.8</ele>
        <time>2022-10-09T10:18:12Z</time>
      </trkpt>
      <trkpt lat="43.39415" lon="6.66475">
        <ele>36.9</ele>
        <time>2022-10-09T10:18:13Z</time>
      </trkpt>
      <trkpt lat="43.39417" lon="6.66475">
        <ele>37</ele>
        <time>2022-10-09T10:18:14Z</time>
      </trkpt>
      <trkpt lat="43.39419" lon="6.66474">
        <ele>37.1</ele>
        <time>2022-10-09T10:18:15Z</time>
      </trkpt>
      <trkpt lat="43.39421" lon="6.66473">
        <ele>37.2</ele>
        <time>2022-10-09T10:18:16Z</time>
      </trkpt>
      <trkpt lat="43.39422" lon="6.66473">
        <ele>37.3</ele>
        <time>2022-10-09T10:18:17Z</time>
      </trkpt>
      <trkpt lat="43.39424" lon="6.66472">
        <ele>37.5</ele>
        <time>2022-10-09T10:18:18Z</time>
      </trkpt>
      <trkpt lat="43.39426" lon="6.66472">
        <ele>37.6</ele>
        <time>2022-10-09T10:18:19Z</time>
      </trkpt>
      <trkpt lat="43.39428" lon="6.66471">
        <ele>37.7</ele>
        <time>2022-10-09T10:18:20Z</time>
      </trkpt>
      <trkpt lat="43.3943" lon="6.6647">
        <ele>37.8</ele>
        <time>2022-10-09T10:18:21Z</time>
      </trkpt>
      <trkpt lat="43.39432" lon="6.66468">
        <ele>37.9</ele>
        <time>2022-10-09T10:18:22Z</time>
      </trkpt>
      <trkpt lat="43.39434" lon="6.66467">
        <ele>38.1</ele>
        <time>2022-10-09T10:18:23Z</time>
      </trkpt>
      <trkpt lat="43.39435" lon="6.66467">
        <ele>38.2</ele>
        <time>2022-10-09T10:18:24Z</time>
      </trkpt>
      <trkpt lat="43.39437" lon="6.66466">
        <ele>38.3</ele>
        <time>2022-10-09T10:18:25Z</time>
      </trkpt>
      <trkpt lat="43.39438" lon="6.66465">
        <ele>38.4</ele>
        <time>2022-10-09T10:18:26Z</time>
      </trkpt>
      <trkpt lat="43.3944" lon="6.66464">
        <ele>38.6</ele>
        <time>2022-10-09T10:18:27Z</time>
      </trkpt>
      <trkpt lat="43.39442" lon="6.66463">
        <ele>38.7</ele>
        <time>2022-10-09T10:18:28Z</time>
      </trkpt>
      <trkpt lat="43.39443" lon="6.66462">
        <ele>38.9</ele>
        <time>2022-10-09T10:18:29Z</time>
      </trkpt>
      <trkpt lat="43.39445" lon="6.66461">
        <ele>39</ele>
        <time>2022-10-09T10:18:30Z</time>
      </trkpt>
      <trkpt lat="43.39446" lon="6.6646">
        <ele>39.2</ele>
        <time>2022-10-09T10:18:31Z</time>
      </trkpt>
      <trkpt lat="43.39448" lon="6.66459">
        <ele>39.4</ele>
        <time>2022-10-09T10:18:32Z</time>
      </trkpt>
      <trkpt lat="43.3945" lon="6.66458">
        <ele>39.5</ele>
        <time>2022-10-09T10:18:33Z</time>
      </trkpt>
      <trkpt lat="43.39452" lon="6.66457">
        <ele>39.7</ele>
        <time>2022-10-09T10:18:34Z</time>
      </trkpt>
      <trkpt lat="43.39453" lon="6.66456">
        <ele>39.9</ele>
        <time>2022-10-09T10:18:35Z</time>
      </trkpt>
      <trkpt lat="43.39455" lon="6.66456">
        <ele>40.1</ele>
        <time>2022-10-09T10:18:36Z</time>
      </trkpt>
      <trkpt lat="43.39457" lon="6.66455">
        <ele>40.3</ele>
        <time>2022-10-09T10:18:37Z</time>
      </trkpt>
      <trkpt lat="43.39459" lon="6.66454">
        <ele>40.5</ele>
        <time>2022-10-09T10:18:38Z</time>
      </trkpt>
      <trkpt lat="43.39461" lon="6.66454">
        <ele>40.7</ele>
        <time>2022-10-09T10:18:39Z</time>
      </trkpt>
      <trkpt lat="43.39463" lon="6.66453">
        <ele>40.8</ele>
        <time>2022-10-09T10:18:40Z</time>
      </trkpt>
      <trkpt lat="43.39464" lon="6.66453">
        <ele>41</ele>
        <time>2022-10-09T10:18:41Z</time>
      </trkpt>
      <trkpt lat="43.39466" lon="6.66453">
        <ele>41.2</ele>
        <time>2022-10-09T10:18:42Z</time>
      </trkpt>
      <trkpt lat="43.39468" lon="6.66452">
        <ele>41.3</ele>
        <time>2022-10-09T10:18:43Z</time>
      </trkpt>
      <trkpt lat="43.39469" lon="6.66452">
        <ele>41.5</ele>
        <time>2022-10-09T10:18:44Z</time>
      </trkpt>
      <trkpt lat="43.39471" lon="6.66451">
        <ele>41.7</ele>
        <time>2022-10-09T10:18:45Z</time>
      </trkpt>
      <trkpt lat="43.39473" lon="6.66451">
        <ele>41.8</ele>
        <time>2022-10-09T10:18:46Z</time>
      </trkpt>
      <trkpt lat="43.39475" lon="6.6645">
        <ele>42</ele>
        <time>2022-10-09T10:18:47Z</time>
      </trkpt>
      <trkpt lat="43.39476" lon="6.66449">
        <ele>42.2</ele>
        <time>2022-10-09T10:18:48Z</time>
      </trkpt>
      <trkpt lat="43.39478" lon="6.66449">
        <ele>42.3</ele>
        <time>2022-10-09T10:18:49Z</time>
      </trkpt>
      <trkpt lat="43.3948" lon="6.66448">
        <ele>42.5</ele>
        <time>2022-10-09T10:18:50Z</time>
      </trkpt>
      <trkpt lat="43.39482" lon="6.66448">
        <ele>42.7</ele>
        <time>2022-10-09T10:18:51Z</time>
      </trkpt>
      <trkpt lat="43.39483" lon="6.66447">
        <ele>42.8</ele>
        <time>2022-10-09T10:18:52Z</time>
      </trkpt>
      <trkpt lat="43.39485" lon="6.66447">
        <ele>43</ele>
        <time>2022-10-09T10:18:53Z</time>
      </trkpt>
      <trkpt lat="43.39487" lon="6.66447">
        <ele>43.1</ele>
        <time>2022-10-09T10:18:54Z</time>
      </trkpt>
      <trkpt lat="43.39488" lon="6.66447">
        <ele>43.3</ele>
        <time>2022-10-09T10:18:55Z</time>
      </trkpt>
      <trkpt lat="43.3949" lon="6.66446">
        <ele>43.4</ele>
        <time>2022-10-09T10:18:56Z</time>
      </trkpt>
      <trkpt lat="43.39491" lon="6.66446">
        <ele>43.5</ele>
        <time>2022-10-09T10:18:57Z</time>
      </trkpt>
      <trkpt lat="43.39492" lon="6.66446">
        <ele>43.7</ele>
        <time>2022-10-09T10:18:58Z</time>
      </trkpt>
      <trkpt lat="43.39494" lon="6.66445">
        <ele>43.8</ele>
        <time>2022-10-09T10:18:59Z</time>
      </trkpt>
      <trkpt lat="43.39496" lon="6.66445">
        <ele>44</ele>
        <time>2022-10-09T10:19:00Z</time>
      </trkpt>
      <trkpt lat="43.39498" lon="6.66445">
        <ele>44.2</ele>
        <time>2022-10-09T10:19:01Z</time>
      </trkpt>
      <trkpt lat="43.39499" lon="6.66444">
        <ele>44.3</ele>
        <time>2022-10-09T10:19:02Z</time>
      </trkpt>
      <trkpt lat="43.39501" lon="6.66444">
        <ele>44.5</ele>
        <time>2022-10-09T10:19:03Z</time>
      </trkpt>
      <trkpt lat="43.39503" lon="6.66443">
        <ele>44.6</ele>
        <time>2022-10-09T10:19:04Z</time>
      </trkpt>
      <trkpt lat="43.39505" lon="6.66443">
        <ele>44.8</ele>
        <time>2022-10-09T10:19:05Z</time>
      </trkpt>
      <trkpt lat="43.39507" lon="6.66442">
        <ele>45</ele>
        <time>2022-10-09T10:19:06Z</time>
      </trkpt>
      <trkpt lat="43.39508" lon="6.66442">
        <ele>45.1</ele>
        <time>2022-10-09T10:19:07Z</time>
      </trkpt>
      <trkpt lat="43.3951" lon="6.66441">
        <ele>45.3</ele>
        <time>2022-10-09T10:19:08Z</time>
      </trkpt>
      <trkpt lat="43.39512" lon="6.6644">
        <ele>45.5</ele>
        <time>2022-10-09T10:19:09Z</time>
      </trkpt>
      <trkpt lat="43.39514" lon="6.6644">
        <ele>45.6</ele>
        <time>2022-10-09T10:19:10Z</time>
      </trkpt>
      <trkpt lat="43.39515" lon="6.6644">
        <ele>45.8</ele>
        <time>2022-10-09T10:19:11Z</time>
      </trkpt>
      <trkpt lat="43.39517" lon="6.66439">
        <ele>46</ele>
        <time>2022-10-09T10:19:12Z</time>
      </trkpt>
      <trkpt lat="43.39519" lon="6.66439">
        <ele>46.1</ele>
        <time>2022-10-09T10:19:13Z</time>
      </trkpt>
      <trkpt lat="43.39521" lon="6.66438">
        <ele>46.3</ele>
        <time>2022-10-09T10:19:14Z</time>
      </trkpt>
      <trkpt lat="43.39523" lon="6.66438">
        <ele>46.5</ele>
        <time>2022-10-09T10:19:15Z</time>
      </trkpt>
      <trkpt lat="43.39525" lon="6.66437">
        <ele>46.7</ele>
        <time>2022-10-09T10:19:16Z</time>
      </trkpt>
      <trkpt lat="43.39526" lon="6.66437">
        <ele>46.8</ele>
        <time>2022-10-09T10:19:17Z</time>
      </trkpt>
      <trkpt lat="43.39528" lon="6.66436">
        <ele>47</ele>
        <time>2022-10-09T10:19:18Z</time>
      </trkpt>
      <trkpt lat="43.39529" lon="6.66436">
        <ele>47.1</ele>
        <time>2022-10-09T10:19:19Z</time>
      </trkpt>
      <trkpt lat="43.39531" lon="6.66435">
        <ele>47.3</ele>
        <time>2022-10-09T10:19:20Z</time>
      </trkpt>
      <trkpt lat="43.39532" lon="6.66435">
        <ele>47.4</ele>
        <time>2022-10-09T10:19:21Z</time>
      </trkpt>
      <trkpt lat="43.39534" lon="6.66434">
        <ele>47.6</ele>
        <time>2022-10-09T10:19:22Z</time>
      </trkpt>
      <trkpt lat="43.39535" lon="6.66433">
        <ele>47.8</ele>
        <time>2022-10-09T10:19:23Z</time>
      </trkpt>
      <trkpt lat="43.39537" lon="6.66433">
        <ele>47.9</ele>
        <time>2022-10-09T10:19:24Z</time>
      </trkpt>
      <trkpt lat="43.39539" lon="6.66434">
        <ele>48.1</ele>
        <time>2022-10-09T10:19:25Z</time>
      </trkpt>
      <trkpt lat="43.3954" lon="6.66434">
        <ele>48.2</ele>
        <time>2022-10-09T10:19:26Z</time>
      </trkpt>
      <trkpt lat="43.39542" lon="6.66434">
        <ele>48.4</ele>
        <time>2022-10-09T10:19:27Z</time>
      </trkpt>
      <trkpt lat="43.39544" lon="6.66433">
        <ele>48.6</ele>
        <time>2022-10-09T10:19:28Z</time>
      </trkpt>
      <trkpt lat="43.39546" lon="6.66433">
        <ele>48.8</ele>
        <time>2022-10-09T10:19:29Z</time>
      </trkpt>
      <trkpt lat="43.39548" lon="6.66433">
        <ele>49</ele>
        <time>2022-10-09T10:19:30Z</time>
      </trkpt>
      <trkpt lat="43.3955" lon="6.66432">
        <ele>49.2</ele>
        <time>2022-10-09T10:19:31Z</time>
      </trkpt>
      <trkpt lat="43.39552" lon="6.66432">
        <ele>49.3</ele>
        <time>2022-10-09T10:19:32Z</time>
      </trkpt>
      <trkpt lat="43.39554" lon="6.66432">
        <ele>49.5</ele>
        <time>2022-10-09T10:19:33Z</time>
      </trkpt>
      <trkpt lat="43.39555" lon="6.66431">
        <ele>49.7</ele>
        <time>2022-10-09T10:19:34Z</time>
      </trkpt>
      <trkpt lat="43.39557" lon="6.66432">
        <ele>49.8</ele>
        <time>2022-10-09T10:19:35Z</time>
      </trkpt>
      <trkpt lat="43.39559" lon="6.66432">
        <ele>50</ele>
        <time>2022-10-09T10:19:36Z</time>
      </trkpt>
      <trkpt lat="43.3956" lon="6.66433">
        <ele>50.1</ele>
        <time>2022-10-09T10:19:37Z</time>
      </trkpt>
      <trkpt lat="43.39562" lon="6.66433">
        <ele>50.2</ele>
        <time>2022-10-09T10:19:38Z</time>
      </trkpt>
      <trkpt lat="43.39564" lon="6.66433">
        <ele>50.4</ele>
        <time>2022-10-09T10:19:39Z</time>
      </trkpt>
      <trkpt lat="43.39565" lon="6.66434">
        <ele>50.5</ele>
        <time>2022-10-09T10:19:40Z</time>
      </trkpt>
      <trkpt lat="43.39567" lon="6.66434">
        <ele>50.6</ele>
        <time>2022-10-09T10:19:41Z</time>
      </trkpt>
      <trkpt lat="43.39568" lon="6.66434">
        <ele>50.7</ele>
        <time>2022-10-09T10:19:42Z</time>
      </trkpt>
      <trkpt lat="43.3957" lon="6.66435">
        <ele>50.8</ele>
        <time>2022-10-09T10:19:43Z</time>
      </trkpt>
      <trkpt lat="43.39572" lon="6.66436">
        <ele>50.9</ele>
        <time>2022-10-09T10:19:44Z</time>
      </trkpt>
      <trkpt lat="43.39574" lon="6.66436">
        <ele>51</ele>
        <time>2022-10-09T10:19:45Z</time>
      </trkpt>
      <trkpt lat="43.39576" lon="6.66437">
        <ele>51.1</ele>
        <time>2022-10-09T10:19:46Z</time>
      </trkpt>
      <trkpt lat="43.39578" lon="6.66438">
        <ele>51.2</ele>
        <time>2022-10-09T10:19:47Z</time>
      </trkpt>
      <trkpt lat="43.39581" lon="6.66439">
        <ele>51.3</ele>
        <time>2022-10-09T10:19:48Z</time>
      </trkpt>
      <trkpt lat="43.39584" lon="6.6644">
        <ele>51.4</ele>
        <time>2022-10-09T10:19:49Z</time>
      </trkpt>
      <trkpt lat="43.39587" lon="6.66441">
        <ele>51.5</ele>
        <time>2022-10-09T10:19:50Z</time>
      </trkpt>
      <trkpt lat="43.3959" lon="6.66442">
        <ele>51.6</ele>
        <time>2022-10-09T10:19:51Z</time>
      </trkpt>
      <trkpt lat="43.39593" lon="6.66442">
        <ele>51.7</ele>
        <time>2022-10-09T10:19:52Z</time>
      </trkpt>
      <trkpt lat="43.39596" lon="6.66442">
        <ele>51.7</ele>
        <time>2022-10-09T10:19:53Z</time>
      </trkpt>
      <trkpt lat="43.39599" lon="6.66442">
        <ele>51.8</ele>
        <time>2022-10-09T10:19:54Z</time>
      </trkpt>
      <trkpt lat="43.39602" lon="6.66441">
        <ele>51.9</ele>
        <time>2022-10-09T10:19:55Z</time>
      </trkpt>
      <trkpt lat="43.39604" lon="6.66441">
        <ele>52</ele>
        <time>2022-10-09T10:19:56Z</time>
      </trkpt>
      <trkpt lat="43.39607" lon="6.66441">
        <ele>52</ele>
        <time>2022-10-09T10:19:57Z</time>
      </trkpt>
      <trkpt lat="43.39609" lon="6.6644">
        <ele>52.1</ele>
        <time>2022-10-09T10:19:58Z</time>
      </trkpt>
      <trkpt lat="43.39612" lon="6.6644">
        <ele>52.2</ele>
        <time>2022-10-09T10:19:59Z</time>
      </trkpt>
      <trkpt lat="43.39616" lon="6.66438">
        <ele>52.4</ele>
        <time>2022-10-09T10:20:01Z</time>
      </trkpt>
      <trkpt lat="43.39618" lon="6.66438">
        <ele>52.5</ele>
        <time>2022-10-09T10:20:02Z</time>
      </trkpt>
      <trkpt lat="43.39621" lon="6.66437">
        <ele>52.6</ele>
        <time>2022-10-09T10:20:03Z</time>
      </trkpt>
      <trkpt lat="43.39625" lon="6.66435">
        <ele>52.8</ele>
        <time>2022-10-09T10:20:05Z</time>
      </trkpt>
      <trkpt lat="43.3963" lon="6.66434">
        <ele>53.1</ele>
        <time>2022-10-09T10:20:07Z</time>
      </trkpt>
      <trkpt lat="43.39632" lon="6.66433">
        <ele>53.2</ele>
        <time>2022-10-09T10:20:08Z</time>
      </trkpt>
      <trkpt lat="43.39635" lon="6.66433">
        <ele>53.3</ele>
        <time>2022-10-09T10:20:09Z</time>
      </trkpt>
      <trkpt lat="43.39637" lon="6.66432">
        <ele>53.4</ele>
        <time>2022-10-09T10:20:10Z</time>
      </trkpt>
      <trkpt lat="43.39639" lon="6.66431">
        <ele>53.6</ele>
        <time>2022-10-09T10:20:11Z</time>
      </trkpt>
      <trkpt lat="43.39642" lon="6.6643">
        <ele>53.9</ele>
        <time>2022-10-09T10:20:12Z</time>
      </trkpt>
      <trkpt lat="43.39644" lon="6.66429">
        <ele>54.1</ele>
        <time>2022-10-09T10:20:13Z</time>
      </trkpt>
      <trkpt lat="43.39646" lon="6.66427">
        <ele>54.2</ele>
        <time>2022-10-09T10:20:14Z</time>
      </trkpt>
      <trkpt lat="43.39648" lon="6.66426">
        <ele>54.4</ele>
        <time>2022-10-09T10:20:15Z</time>
      </trkpt>
      <trkpt lat="43.3965" lon="6.66425">
        <ele>54.6</ele>
        <time>2022-10-09T10:20:16Z</time>
      </trkpt>
      <trkpt lat="43.39651" lon="6.66423">
        <ele>54.7</ele>
        <time>2022-10-09T10:20:17Z</time>
      </trkpt>
      <trkpt lat="43.39653" lon="6.66422">
        <ele>54.9</ele>
        <time>2022-10-09T10:20:18Z</time>
      </trkpt>
      <trkpt lat="43.39654" lon="6.6642">
        <ele>55</ele>
        <time>2022-10-09T10:20:19Z</time>
      </trkpt>
      <trkpt lat="43.39656" lon="6.66419">
        <ele>55.2</ele>
        <time>2022-10-09T10:20:20Z</time>
      </trkpt>
      <trkpt lat="43.39657" lon="6.66418">
        <ele>55.4</ele>
        <time>2022-10-09T10:20:21Z</time>
      </trkpt>
      <trkpt lat="43.39659" lon="6.66417">
        <ele>55.5</ele>
        <time>2022-10-09T10:20:22Z</time>
      </trkpt>
      <trkpt lat="43.39661" lon="6.66417">
        <ele>55.7</ele>
        <time>2022-10-09T10:20:23Z</time>
      </trkpt>
      <trkpt lat="43.39663" lon="6.66416">
        <ele>55.9</ele>
        <time>2022-10-09T10:20:24Z</time>
      </trkpt>
      <trkpt lat="43.39664" lon="6.66416">
        <ele>56</ele>
        <time>2022-10-09T10:20:25Z</time>
      </trkpt>
      <trkpt lat="43.39666" lon="6.66416">
        <ele>56.2</ele>
        <time>2022-10-09T10:20:26Z</time>
      </trkpt>
      <trkpt lat="43.39668" lon="6.66416">
        <ele>56.4</ele>
        <time>2022-10-09T10:20:27Z</time>
      </trkpt>
      <trkpt lat="43.39669" lon="6.66415">
        <ele>56.6</ele>
        <time>2022-10-09T10:20:28Z</time>
      </trkpt>
      <trkpt lat="43.39671" lon="6.66416">
        <ele>56.7</ele>
        <time>2022-10-09T10:20:29Z</time>
      </trkpt>
      <trkpt lat="43.39673" lon="6.66416">
        <ele>56.9</ele>
        <time>2022-10-09T10:20:30Z</time>
      </trkpt>
      <trkpt lat="43.39674" lon="6.66417">
        <ele>57.1</ele>
        <time>2022-10-09T10:20:31Z</time>
      </trkpt>
      <trkpt lat="43.39676" lon="6.66417">
        <ele>57.3</ele>
        <time>2022-10-09T10:20:32Z</time>
      </trkpt>
      <trkpt lat="43.39678" lon="6.66418">
        <ele>57.4</ele>
        <time>2022-10-09T10:20:33Z</time>
      </trkpt>
      <trkpt lat="43.39679" lon="6.66419">
        <ele>57.6</ele>
        <time>2022-10-09T10:20:34Z</time>
      </trkpt>
      <trkpt lat="43.39681" lon="6.6642">
        <ele>57.8</ele>
        <time>2022-10-09T10:20:35Z</time>
      </trkpt>
      <trkpt lat="43.39682" lon="6.66421">
        <ele>58</ele>
        <time>2022-10-09T10:20:36Z</time>
      </trkpt>
      <trkpt lat="43.39684" lon="6.66423">
        <ele>58.1</ele>
        <time>2022-10-09T10:20:37Z</time>
      </trkpt>
      <trkpt lat="43.39685" lon="6.66425">
        <ele>58.3</ele>
        <time>2022-10-09T10:20:38Z</time>
      </trkpt>
      <trkpt lat="43.39686" lon="6.66427">
        <ele>58.5</ele>
        <time>2022-10-09T10:20:39Z</time>
      </trkpt>
      <trkpt lat="43.39687" lon="6.66429">
        <ele>58.7</ele>
        <time>2022-10-09T10:20:40Z</time>
      </trkpt>
      <trkpt lat="43.39688" lon="6.66432">
        <ele>58.9</ele>
        <time>2022-10-09T10:20:41Z</time>
      </trkpt>
      <trkpt lat="43.39689" lon="6.66434">
        <ele>59</ele>
        <time>2022-10-09T10:20:42Z</time>
      </trkpt>
      <trkpt lat="43.39691" lon="6.66436">
        <ele>59.2</ele>
        <time>2022-10-09T10:20:43Z</time>
      </trkpt>
      <trkpt lat="43.39692" lon="6.66439">
        <ele>59.4</ele>
        <time>2022-10-09T10:20:44Z</time>
      </trkpt>
      <trkpt lat="43.39693" lon="6.66441">
        <ele>59.6</ele>
        <time>2022-10-09T10:20:45Z</time>
      </trkpt>
      <trkpt lat="43.39695" lon="6.66443">
        <ele>59.8</ele>
        <time>2022-10-09T10:20:46Z</time>
      </trkpt>
      <trkpt lat="43.39697" lon="6.66445">
        <ele>60</ele>
        <time>2022-10-09T10:20:47Z</time>
      </trkpt>
      <trkpt lat="43.39699" lon="6.66446">
        <ele>60.2</ele>
        <time>2022-10-09T10:20:48Z</time>
      </trkpt>
      <trkpt lat="43.39701" lon="6.66446">
        <ele>60.9</ele>
        <time>2022-10-09T10:20:49Z</time>
      </trkpt>
      <trkpt lat="43.39702" lon="6.66444">
        <ele>61.1</ele>
        <time>2022-10-09T10:20:50Z</time>
      </trkpt>
      <trkpt lat="43.39703" lon="6.66441">
        <ele>61.3</ele>
        <time>2022-10-09T10:20:51Z</time>
      </trkpt>
      <trkpt lat="43.39703" lon="6.66439">
        <ele>61.5</ele>
        <time>2022-10-09T10:20:52Z</time>
      </trkpt>
      <trkpt lat="43.39703" lon="6.66436">
        <ele>61.7</ele>
        <time>2022-10-09T10:20:53Z</time>
      </trkpt>
      <trkpt lat="43.39702" lon="6.66434">
        <ele>61.8</ele>
        <time>2022-10-09T10:20:54Z</time>
      </trkpt>
      <trkpt lat="43.39702" lon="6.66431">
        <ele>62</ele>
        <time>2022-10-09T10:20:55Z</time>
      </trkpt>
      <trkpt lat="43.39702" lon="6.66428">
        <ele>62.1</ele>
        <time>2022-10-09T10:20:56Z</time>
      </trkpt>
      <trkpt lat="43.39701" lon="6.66426">
        <ele>62.3</ele>
        <time>2022-10-09T10:20:57Z</time>
      </trkpt>
      <trkpt lat="43.39701" lon="6.66423">
        <ele>62.5</ele>
        <time>2022-10-09T10:20:58Z</time>
      </trkpt>
      <trkpt lat="43.397" lon="6.66419">
        <ele>62.7</ele>
        <time>2022-10-09T10:20:59Z</time>
      </trkpt>
      <trkpt lat="43.397" lon="6.66416">
        <ele>62.8</ele>
        <time>2022-10-09T10:21:00Z</time>
      </trkpt>
      <trkpt lat="43.397" lon="6.66413">
        <ele>63</ele>
        <time>2022-10-09T10:21:01Z</time>
      </trkpt>
      <trkpt lat="43.397" lon="6.6641">
        <ele>63.2</ele>
        <time>2022-10-09T10:21:02Z</time>
      </trkpt>
      <trkpt lat="43.397" lon="6.66407">
        <ele>63.3</ele>
        <time>2022-10-09T10:21:03Z</time>
      </trkpt>
      <trkpt lat="43.39701" lon="6.66404">
        <ele>63.5</ele>
        <time>2022-10-09T10:21:04Z</time>
      </trkpt>
      <trkpt lat="43.39701" lon="6.66402">
        <ele>63.7</ele>
        <time>2022-10-09T10:21:05Z</time>
      </trkpt>
      <trkpt lat="43.39702" lon="6.66399">
        <ele>63.8</ele>
        <time>2022-10-09T10:21:06Z</time>
      </trkpt>
      <trkpt lat="43.39703" lon="6.66397">
        <ele>64</ele>
        <time>2022-10-09T10:21:07Z</time>
      </trkpt>
      <trkpt lat="43.39704" lon="6.66395">
        <ele>64.1</ele>
        <time>2022-10-09T10:21:08Z</time>
      </trkpt>
      <trkpt lat="43.39705" lon="6.66394">
        <ele>64.3</ele>
        <time>2022-10-09T10:21:09Z</time>
      </trkpt>
      <trkpt lat="43.39707" lon="6.66392">
        <ele>64.4</ele>
        <time>2022-10-09T10:21:10Z</time>
      </trkpt>
      <trkpt lat="43.39709" lon="6.66391">
        <ele>64.6</ele>
        <time>2022-10-09T10:21:11Z</time>
      </trkpt>
      <trkpt lat="43.3971" lon="6.6639">
        <ele>64.8</ele>
        <time>2022-10-09T10:21:12Z</time>
      </trkpt>
      <trkpt lat="43.39712" lon="6.66389">
        <ele>64.9</ele>
        <time>2022-10-09T10:21:13Z</time>
      </trkpt>
      <trkpt lat="43.39714" lon="6.66388">
        <ele>65.1</ele>
        <time>2022-10-09T10:21:14Z</time>
      </trkpt>
      <trkpt lat="43.39715" lon="6.66388">
        <ele>65.2</ele>
        <time>2022-10-09T10:21:15Z</time>
      </trkpt>
      <trkpt lat="43.39717" lon="6.66387">
        <ele>65.4</ele>
        <time>2022-10-09T10:21:16Z</time>
      </trkpt>
      <trkpt lat="43.39719" lon="6.66387">
        <ele>65.6</ele>
        <time>2022-10-09T10:21:17Z</time>
      </trkpt>
      <trkpt lat="43.39721" lon="6.66387">
        <ele>65.8</ele>
        <time>2022-10-09T10:21:18Z</time>
      </trkpt>
      <trkpt lat="43.39723" lon="6.66388">
        <ele>65.9</ele>
        <time>2022-10-09T10:21:19Z</time>
      </trkpt>
      <trkpt lat="43.39724" lon="6.66388">
        <ele>66.1</ele>
        <time>2022-10-09T10:21:20Z</time>
      </trkpt>
      <trkpt lat="43.39726" lon="6.66389">
        <ele>66.2</ele>
        <time>2022-10-09T10:21:21Z</time>
      </trkpt>
      <trkpt lat="43.39728" lon="6.6639">
        <ele>66.4</ele>
        <time>2022-10-09T10:21:22Z</time>
      </trkpt>
      <trkpt lat="43.39729" lon="6.66391">
        <ele>66.6</ele>
        <time>2022-10-09T10:21:23Z</time>
      </trkpt>
      <trkpt lat="43.39731" lon="6.66391">
        <ele>66.7</ele>
        <time>2022-10-09T10:21:24Z</time>
      </trkpt>
      <trkpt lat="43.39732" lon="6.66392">
        <ele>66.9</ele>
        <time>2022-10-09T10:21:25Z</time>
      </trkpt>
      <trkpt lat="43.39734" lon="6.66392">
        <ele>67</ele>
        <time>2022-10-09T10:21:26Z</time>
      </trkpt>
      <trkpt lat="43.39735" lon="6.66393">
        <ele>67.2</ele>
        <time>2022-10-09T10:21:27Z</time>
      </trkpt>
      <trkpt lat="43.39736" lon="6.66394">
        <ele>67.3</ele>
        <time>2022-10-09T10:21:28Z</time>
      </trkpt>
      <trkpt lat="43.39738" lon="6.66394">
        <ele>67.4</ele>
        <time>2022-10-09T10:21:29Z</time>
      </trkpt>
      <trkpt lat="43.39739" lon="6.66395">
        <ele>67.6</ele>
        <time>2022-10-09T10:21:30Z</time>
      </trkpt>
      <trkpt lat="43.3974" lon="6.66396">
        <ele>67.7</ele>
        <time>2022-10-09T10:21:31Z</time>
      </trkpt>
      <trkpt lat="43.39742" lon="6.66397">
        <ele>67.9</ele>
        <time>2022-10-09T10:21:32Z</time>
      </trkpt>
      <trkpt lat="43.39743" lon="6.66398">
        <ele>68</ele>
        <time>2022-10-09T10:21:33Z</time>
      </trkpt>
      <trkpt lat="43.39745" lon="6.66398">
        <ele>68.2</ele>
        <time>2022-10-09T10:21:34Z</time>
      </trkpt>
      <trkpt lat="43.39746" lon="6.66399">
        <ele>68.3</ele>
        <time>2022-10-09T10:21:35Z</time>
      </trkpt>
      <trkpt lat="43.39748" lon="6.664">
        <ele>68.5</ele>
        <time>2022-10-09T10:21:36Z</time>
      </trkpt>
      <trkpt lat="43.39749" lon="6.66401">
        <ele>68.6</ele>
        <time>2022-10-09T10:21:37Z</time>
      </trkpt>
      <trkpt lat="43.3975" lon="6.66402">
        <ele>68.8</ele>
        <time>2022-10-09T10:21:38Z</time>
      </trkpt>
      <trkpt lat="43.39752" lon="6.66403">
        <ele>68.9</ele>
        <time>2022-10-09T10:21:39Z</time>
      </trkpt>
      <trkpt lat="43.39753" lon="6.66404">
        <ele>69.1</ele>
        <time>2022-10-09T10:21:40Z</time>
      </trkpt>
      <trkpt lat="43.39754" lon="6.66405">
        <ele>69.2</ele>
        <time>2022-10-09T10:21:41Z</time>
      </trkpt>
      <trkpt lat="43.39756" lon="6.66406">
        <ele>69.4</ele>
        <time>2022-10-09T10:21:42Z</time>
      </trkpt>
      <trkpt lat="43.39757" lon="6.66407">
        <ele>69.5</ele>
        <time>2022-10-09T10:21:43Z</time>
      </trkpt>
      <trkpt lat="43.39759" lon="6.66408">
        <ele>69.7</ele>
        <time>2022-10-09T10:21:44Z</time>
      </trkpt>
      <trkpt lat="43.3976" lon="6.66409">
        <ele>69.8</ele>
        <time>2022-10-09T10:21:45Z</time>
      </trkpt>
      <trkpt lat="43.39762" lon="6.6641">
        <ele>70</ele>
        <time>2022-10-09T10:21:46Z</time>
      </trkpt>
      <trkpt lat="43.39763" lon="6.66411">
        <ele>70.1</ele>
        <time>2022-10-09T10:21:47Z</time>
      </trkpt>
      <trkpt lat="43.39765" lon="6.66412">
        <ele>70.3</ele>
        <time>2022-10-09T10:21:48Z</time>
      </trkpt>
      <trkpt lat="43.39766" lon="6.66412">
        <ele>70.4</ele>
        <time>2022-10-09T10:21:49Z</time>
      </trkpt>
      <trkpt lat="43.39767" lon="6.66413">
        <ele>70.5</ele>
        <time>2022-10-09T10:21:50Z</time>
      </trkpt>
      <trkpt lat="43.39769" lon="6.66413">
        <ele>70.7</ele>
        <time>2022-10-09T10:21:51Z</time>
      </trkpt>
      <trkpt lat="43.39771" lon="6.66412">
        <ele>70.8</ele>
        <time>2022-10-09T10:21:52Z</time>
      </trkpt>
      <trkpt lat="43.39772" lon="6.66412">
        <ele>71</ele>
        <time>2022-10-09T10:21:53Z</time>
      </trkpt>
      <trkpt lat="43.39774" lon="6.66412">
        <ele>71.1</ele>
        <time>2022-10-09T10:21:54Z</time>
      </trkpt>
      <trkpt lat="43.39775" lon="6.66411">
        <ele>71.2</ele>
        <time>2022-10-09T10:21:55Z</time>
      </trkpt>
      <trkpt lat="43.39776" lon="6.6641">
        <ele>71.4</ele>
        <time>2022-10-09T10:21:56Z</time>
      </trkpt>
      <trkpt lat="43.39778" lon="6.66409">
        <ele>71.5</ele>
        <time>2022-10-09T10:21:57Z</time>
      </trkpt>
      <trkpt lat="43.3978" lon="6.66408">
        <ele>71.7</ele>
        <time>2022-10-09T10:21:58Z</time>
      </trkpt>
      <trkpt lat="43.39781" lon="6.66407">
        <ele>71.8</ele>
        <time>2022-10-09T10:21:59Z</time>
      </trkpt>
      <trkpt lat="43.39782" lon="6.66406">
        <ele>71.9</ele>
        <time>2022-10-09T10:22:00Z</time>
      </trkpt>
      <trkpt lat="43.39784" lon="6.66405">
        <ele>72.1</ele>
        <time>2022-10-09T10:22:01Z</time>
      </trkpt>
      <trkpt lat="43.39785" lon="6.66404">
        <ele>72.2</ele>
        <time>2022-10-09T10:22:02Z</time>
      </trkpt>
      <trkpt lat="43.39786" lon="6.66402">
        <ele>72.4</ele>
        <time>2022-10-09T10:22:03Z</time>
      </trkpt>
      <trkpt lat="43.39787" lon="6.66401">
        <ele>72.5</ele>
        <time>2022-10-09T10:22:04Z</time>
      </trkpt>
      <trkpt lat="43.39788" lon="6.664">
        <ele>72.6</ele>
        <time>2022-10-09T10:22:05Z</time>
      </trkpt>
      <trkpt lat="43.39789" lon="6.66398">
        <ele>72.8</ele>
        <time>2022-10-09T10:22:06Z</time>
      </trkpt>
      <trkpt lat="43.3979" lon="6.66397">
        <ele>72.9</ele>
        <time>2022-10-09T10:22:07Z</time>
      </trkpt>
      <trkpt lat="43.39791" lon="6.66395">
        <ele>73</ele>
        <time>2022-10-09T10:22:08Z</time>
      </trkpt>
      <trkpt lat="43.39792" lon="6.66393">
        <ele>73.1</ele>
        <time>2022-10-09T10:22:09Z</time>
      </trkpt>
      <trkpt lat="43.39793" lon="6.66392">
        <ele>73.3</ele>
        <time>2022-10-09T10:22:10Z</time>
      </trkpt>
      <trkpt lat="43.39794" lon="6.6639">
        <ele>73.4</ele>
        <time>2022-10-09T10:22:11Z</time>
      </trkpt>
      <trkpt lat="43.39794" lon="6.66388">
        <ele>73.5</ele>
        <time>2022-10-09T10:22:12Z</time>
      </trkpt>
      <trkpt lat="43.39795" lon="6.66386">
        <ele>73.6</ele>
        <time>2022-10-09T10:22:13Z</time>
      </trkpt>
      <trkpt lat="43.39796" lon="6.66385">
        <ele>73.7</ele>
        <time>2022-10-09T10:22:14Z</time>
      </trkpt>
      <trkpt lat="43.39796" lon="6.66383">
        <ele>73.8</ele>
        <time>2022-10-09T10:22:15Z</time>
      </trkpt>
      <trkpt lat="43.39797" lon="6.66381">
        <ele>73.9</ele>
        <time>2022-10-09T10:22:16Z</time>
      </trkpt>
      <trkpt lat="43.39797" lon="6.66379">
        <ele>74</ele>
        <time>2022-10-09T10:22:17Z</time>
      </trkpt>
      <trkpt lat="43.39798" lon="6.66378">
        <ele>74.1</ele>
        <time>2022-10-09T10:22:18Z</time>
      </trkpt>
      <trkpt lat="43.39798" lon="6.66375">
        <ele>74.2</ele>
        <time>2022-10-09T10:22:19Z</time>
      </trkpt>
      <trkpt lat="43.39799" lon="6.66374">
        <ele>74.3</ele>
        <time>2022-10-09T10:22:20Z</time>
      </trkpt>
      <trkpt lat="43.39799" lon="6.66371">
        <ele>74.4</ele>
        <time>2022-10-09T10:22:21Z</time>
      </trkpt>
      <trkpt lat="43.398" lon="6.66369">
        <ele>74.5</ele>
        <time>2022-10-09T10:22:22Z</time>
      </trkpt>
      <trkpt lat="43.398" lon="6.66367">
        <ele>74.5</ele>
        <time>2022-10-09T10:22:23Z</time>
      </trkpt>
      <trkpt lat="43.398" lon="6.66364">
        <ele>74.6</ele>
        <time>2022-10-09T10:22:24Z</time>
      </trkpt>
      <trkpt lat="43.39801" lon="6.66362">
        <ele>74.7</ele>
        <time>2022-10-09T10:22:25Z</time>
      </trkpt>
      <trkpt lat="43.39801" lon="6.6636">
        <ele>74.8</ele>
        <time>2022-10-09T10:22:26Z</time>
      </trkpt>
      <trkpt lat="43.39802" lon="6.66357">
        <ele>74.9</ele>
        <time>2022-10-09T10:22:27Z</time>
      </trkpt>
      <trkpt lat="43.39802" lon="6.66354">
        <ele>74.9</ele>
        <time>2022-10-09T10:22:28Z</time>
      </trkpt>
      <trkpt lat="43.39802" lon="6.66352">
        <ele>75</ele>
        <time>2022-10-09T10:22:29Z</time>
      </trkpt>
      <trkpt lat="43.39803" lon="6.66349">
        <ele>75</ele>
        <time>2022-10-09T10:22:30Z</time>
      </trkpt>
      <trkpt lat="43.39803" lon="6.66347">
        <ele>75.1</ele>
        <time>2022-10-09T10:22:31Z</time>
      </trkpt>
      <trkpt lat="43.39803" lon="6.66344">
        <ele>75.1</ele>
        <time>2022-10-09T10:22:32Z</time>
      </trkpt>
      <trkpt lat="43.39803" lon="6.66341">
        <ele>75.2</ele>
        <time>2022-10-09T10:22:33Z</time>
      </trkpt>
      <trkpt lat="43.39803" lon="6.66337">
        <ele>75.2</ele>
        <time>2022-10-09T10:22:34Z</time>
      </trkpt>
      <trkpt lat="43.39803" lon="6.66334">
        <ele>75.3</ele>
        <time>2022-10-09T10:22:35Z</time>
      </trkpt>
      <trkpt lat="43.39803" lon="6.6633">
        <ele>75.3</ele>
        <time>2022-10-09T10:22:36Z</time>
      </trkpt>
      <trkpt lat="43.39802" lon="6.66326">
        <ele>75.4</ele>
        <time>2022-10-09T10:22:37Z</time>
      </trkpt>
      <trkpt lat="43.398" lon="6.66318">
        <ele>75.6</ele>
        <time>2022-10-09T10:22:39Z</time>
      </trkpt>
      <trkpt lat="43.39798" lon="6.66315">
        <ele>75.7</ele>
        <time>2022-10-09T10:22:40Z</time>
      </trkpt>
      <trkpt lat="43.39796" lon="6.66312">
        <ele>75.8</ele>
        <time>2022-10-09T10:22:41Z</time>
      </trkpt>
      <trkpt lat="43.39794" lon="6.66309">
        <ele>75.9</ele>
        <time>2022-10-09T10:22:42Z</time>
      </trkpt>
      <trkpt lat="43.39792" lon="6.66307">
        <ele>76</ele>
        <time>2022-10-09T10:22:43Z</time>
      </trkpt>
      <trkpt lat="43.3979" lon="6.66305">
        <ele>76.1</ele>
        <time>2022-10-09T10:22:44Z</time>
      </trkpt>
      <trkpt lat="43.39788" lon="6.66304">
        <ele>76.3</ele>
        <time>2022-10-09T10:22:45Z</time>
      </trkpt>
      <trkpt lat="43.39786" lon="6.66302">
        <ele>76.4</ele>
        <time>2022-10-09T10:22:46Z</time>
      </trkpt>
      <trkpt lat="43.39784" lon="6.663">
        <ele>76.6</ele>
        <time>2022-10-09T10:22:47Z</time>
      </trkpt>
      <trkpt lat="43.39782" lon="6.66298">
        <ele>76.7</ele>
        <time>2022-10-09T10:22:48Z</time>
      </trkpt>
      <trkpt lat="43.3978" lon="6.66297">
        <ele>76.9</ele>
        <time>2022-10-09T10:22:49Z</time>
      </trkpt>
      <trkpt lat="43.39779" lon="6.66295">
        <ele>77</ele>
        <time>2022-10-09T10:22:50Z</time>
      </trkpt>
      <trkpt lat="43.39777" lon="6.66293">
        <ele>77.2</ele>
        <time>2022-10-09T10:22:51Z</time>
      </trkpt>
      <trkpt lat="43.39774" lon="6.66289">
        <ele>77.6</ele>
        <time>2022-10-09T10:22:53Z</time>
      </trkpt>
      <trkpt lat="43.39773" lon="6.66287">
        <ele>77.8</ele>
        <time>2022-10-09T10:22:54Z</time>
      </trkpt>
      <trkpt lat="43.39772" lon="6.66285">
        <ele>77.9</ele>
        <time>2022-10-09T10:22:55Z</time>
      </trkpt>
      <trkpt lat="43.39771" lon="6.66283">
        <ele>78.1</ele>
        <time>2022-10-09T10:22:56Z</time>
      </trkpt>
      <trkpt lat="43.39769" lon="6.66281">
        <ele>78.3</ele>
        <time>2022-10-09T10:22:57Z</time>
      </trkpt>
      <trkpt lat="43.39768" lon="6.66279">
        <ele>78.5</ele>
        <time>2022-10-09T10:22:58Z</time>
      </trkpt>
      <trkpt lat="43.39768" lon="6.66277">
        <ele>78.6</ele>
        <time>2022-10-09T10:22:59Z</time>
      </trkpt>
      <trkpt lat="43.39767" lon="6.66275">
        <ele>78.8</ele>
        <time>2022-10-09T10:23:00Z</time>
      </trkpt>
      <trkpt lat="43.39767" lon="6.66273">
        <ele>79</ele>
        <time>2022-10-09T10:23:01Z</time>
      </trkpt>
      <trkpt lat="43.39767" lon="6.66271">
        <ele>79.2</ele>
        <time>2022-10-09T10:23:02Z</time>
      </trkpt>
      <trkpt lat="43.39768" lon="6.66269">
        <ele>79.4</ele>
        <time>2022-10-09T10:23:03Z</time>
      </trkpt>
      <trkpt lat="43.39768" lon="6.66267">
        <ele>79.6</ele>
        <time>2022-10-09T10:23:04Z</time>
      </trkpt>
      <trkpt lat="43.39769" lon="6.66266">
        <ele>79.7</ele>
        <time>2022-10-09T10:23:05Z</time>
      </trkpt>
      <trkpt lat="43.3977" lon="6.66265">
        <ele>79.9</ele>
        <time>2022-10-09T10:23:06Z</time>
      </trkpt>
      <trkpt lat="43.39772" lon="6.66265">
        <ele>80.1</ele>
        <time>2022-10-09T10:23:07Z</time>
      </trkpt>
      <trkpt lat="43.39773" lon="6.66265">
        <ele>80.3</ele>
        <time>2022-10-09T10:23:08Z</time>
      </trkpt>
      <trkpt lat="43.39775" lon="6.66265">
        <ele>80.5</ele>
        <time>2022-10-09T10:23:09Z</time>
      </trkpt>
      <trkpt lat="43.39776" lon="6.66265">
        <ele>80.7</ele>
        <time>2022-10-09T10:23:10Z</time>
      </trkpt>
      <trkpt lat="43.39778" lon="6.66266">
        <ele>80.9</ele>
        <time>2022-10-09T10:23:11Z</time>
      </trkpt>
      <trkpt lat="43.39779" lon="6.66266">
        <ele>81.1</ele>
        <time>2022-10-09T10:23:12Z</time>
      </trkpt>
      <trkpt lat="43.3978" lon="6.66267">
        <ele>81.3</ele>
        <time>2022-10-09T10:23:13Z</time>
      </trkpt>
      <trkpt lat="43.39782" lon="6.66267">
        <ele>81.5</ele>
        <time>2022-10-09T10:23:14Z</time>
      </trkpt>
      <trkpt lat="43.39783" lon="6.66268">
        <ele>81.7</ele>
        <time>2022-10-09T10:23:15Z</time>
      </trkpt>
      <trkpt lat="43.39785" lon="6.66268">
        <ele>81.8</ele>
        <time>2022-10-09T10:23:16Z</time>
      </trkpt>
      <trkpt lat="43.39786" lon="6.66269">
        <ele>82</ele>
        <time>2022-10-09T10:23:17Z</time>
      </trkpt>
      <trkpt lat="43.39787" lon="6.66269">
        <ele>82.2</ele>
        <time>2022-10-09T10:23:18Z</time>
      </trkpt>
      <trkpt lat="43.39789" lon="6.66269">
        <ele>82.4</ele>
        <time>2022-10-09T10:23:19Z</time>
      </trkpt>
      <trkpt lat="43.3979" lon="6.66268">
        <ele>82.6</ele>
        <time>2022-10-09T10:23:20Z</time>
      </trkpt>
      <trkpt lat="43.39791" lon="6.66268">
        <ele>82.7</ele>
        <time>2022-10-09T10:23:21Z</time>
      </trkpt>
      <trkpt lat="43.39793" lon="6.66267">
        <ele>82.9</ele>
        <time>2022-10-09T10:23:22Z</time>
      </trkpt>
      <trkpt lat="43.39794" lon="6.66265">
        <ele>83.1</ele>
        <time>2022-10-09T10:23:23Z</time>
      </trkpt>
      <trkpt lat="43.39794" lon="6.66264">
        <ele>83.2</ele>
        <time>2022-10-09T10:23:24Z</time>
      </trkpt>
      <trkpt lat="43.39795" lon="6.66262">
        <ele>83.4</ele>
        <time>2022-10-09T10:23:25Z</time>
      </trkpt>
      <trkpt lat="43.39795" lon="6.6626">
        <ele>83.5</ele>
        <time>2022-10-09T10:23:26Z</time>
      </trkpt>
      <trkpt lat="43.39795" lon="6.66258">
        <ele>83.7</ele>
        <time>2022-10-09T10:23:27Z</time>
      </trkpt>
      <trkpt lat="43.39795" lon="6.66256">
        <ele>83.8</ele>
        <time>2022-10-09T10:23:28Z</time>
      </trkpt>
      <trkpt lat="43.39794" lon="6.66254">
        <ele>84</ele>
        <time>2022-10-09T10:23:29Z</time>
      </trkpt>
      <trkpt lat="43.39793" lon="6.66253">
        <ele>84.1</ele>
        <time>2022-10-09T10:23:30Z</time>
      </trkpt>
      <trkpt lat="43.39792" lon="6.66251">
        <ele>84.3</ele>
        <time>2022-10-09T10:23:31Z</time>
      </trkpt>
      <trkpt lat="43.39791" lon="6.66249">
        <ele>84.4</ele>
        <time>2022-10-09T10:23:32Z</time>
      </trkpt>
      <trkpt lat="43.3979" lon="6.66247">
        <ele>84.6</ele>
        <time>2022-10-09T10:23:33Z</time>
      </trkpt>
      <trkpt lat="43.3979" lon="6.66246">
        <ele>84.7</ele>
        <time>2022-10-09T10:23:34Z</time>
      </trkpt>
      <trkpt lat="43.39789" lon="6.66244">
        <ele>84.8</ele>
        <time>2022-10-09T10:23:35Z</time>
      </trkpt>
      <trkpt lat="43.39788" lon="6.66242">
        <ele>84.9</ele>
        <time>2022-10-09T10:23:36Z</time>
      </trkpt>
      <trkpt lat="43.39787" lon="6.66241">
        <ele>85.1</ele>
        <time>2022-10-09T10:23:37Z</time>
      </trkpt>
      <trkpt lat="43.39786" lon="6.66239">
        <ele>85.2</ele>
        <time>2022-10-09T10:23:38Z</time>
      </trkpt>
      <trkpt lat="43.39785" lon="6.66237">
        <ele>85.3</ele>
        <time>2022-10-09T10:23:39Z</time>
      </trkpt>
      <trkpt lat="43.39784" lon="6.66235">
        <ele>85.4</ele>
        <time>2022-10-09T10:23:40Z</time>
      </trkpt>
      <trkpt lat="43.39782" lon="6.66234">
        <ele>85.6</ele>
        <time>2022-10-09T10:23:41Z</time>
      </trkpt>
      <trkpt lat="43.39781" lon="6.66233">
        <ele>85.7</ele>
        <time>2022-10-09T10:23:42Z</time>
      </trkpt>
      <trkpt lat="43.3978" lon="6.66231">
        <ele>85.8</ele>
        <time>2022-10-09T10:23:43Z</time>
      </trkpt>
      <trkpt lat="43.39778" lon="6.6623">
        <ele>85.9</ele>
        <time>2022-10-09T10:23:44Z</time>
      </trkpt>
      <trkpt lat="43.39777" lon="6.66228">
        <ele>86</ele>
        <time>2022-10-09T10:23:45Z</time>
      </trkpt>
      <trkpt lat="43.39776" lon="6.66226">
        <ele>86.1</ele>
        <time>2022-10-09T10:23:46Z</time>
      </trkpt>
      <trkpt lat="43.39775" lon="6.66225">
        <ele>86.3</ele>
        <time>2022-10-09T10:23:47Z</time>
      </trkpt>
      <trkpt lat="43.39774" lon="6.66223">
        <ele>86.4</ele>
        <time>2022-10-09T10:23:48Z</time>
      </trkpt>
      <trkpt lat="43.39773" lon="6.6622">
        <ele>86.5</ele>
        <time>2022-10-09T10:23:49Z</time>
      </trkpt>
      <trkpt lat="43.39773" lon="6.66218">
        <ele>86.6</ele>
        <time>2022-10-09T10:23:50Z</time>
      </trkpt>
      <trkpt lat="43.39772" lon="6.66216">
        <ele>86.7</ele>
        <time>2022-10-09T10:23:51Z</time>
      </trkpt>
      <trkpt lat="43.39772" lon="6.66214">
        <ele>86.9</ele>
        <time>2022-10-09T10:23:52Z</time>
      </trkpt>
      <trkpt lat="43.39772" lon="6.66212">
        <ele>87</ele>
        <time>2022-10-09T10:23:53Z</time>
      </trkpt>
      <trkpt lat="43.39772" lon="6.66209">
        <ele>87.1</ele>
        <time>2022-10-09T10:23:54Z</time>
      </trkpt>
      <trkpt lat="43.39773" lon="6.66207">
        <ele>87.3</ele>
        <time>2022-10-09T10:23:55Z</time>
      </trkpt>
      <trkpt lat="43.39774" lon="6.66206">
        <ele>87.4</ele>
        <time>2022-10-09T10:23:56Z</time>
      </trkpt>
      <trkpt lat="43.39775" lon="6.66205">
        <ele>87.5</ele>
        <time>2022-10-09T10:23:57Z</time>
      </trkpt>
      <trkpt lat="43.39777" lon="6.66204">
        <ele>87.6</ele>
        <time>2022-10-09T10:23:58Z</time>
      </trkpt>
      <trkpt lat="43.39778" lon="6.66204">
        <ele>87.7</ele>
        <time>2022-10-09T10:23:59Z</time>
      </trkpt>
      <trkpt lat="43.3978" lon="6.66204">
        <ele>87.9</ele>
        <time>2022-10-09T10:24:00Z</time>
      </trkpt>
      <trkpt lat="43.39781" lon="6.66204">
        <ele>88</ele>
        <time>2022-10-09T10:24:01Z</time>
      </trkpt>
      <trkpt lat="43.39783" lon="6.66205">
        <ele>88.1</ele>
        <time>2022-10-09T10:24:02Z</time>
      </trkpt>
      <trkpt lat="43.39784" lon="6.66206">
        <ele>88.3</ele>
        <time>2022-10-09T10:24:03Z</time>
      </trkpt>
      <trkpt lat="43.39785" lon="6.66207">
        <ele>88.4</ele>
        <time>2022-10-09T10:24:04Z</time>
      </trkpt>
      <trkpt lat="43.39787" lon="6.66208">
        <ele>88.5</ele>
        <time>2022-10-09T10:24:05Z</time>
      </trkpt>
      <trkpt lat="43.39788" lon="6.66208">
        <ele>88.7</ele>
        <time>2022-10-09T10:24:06Z</time>
      </trkpt>
      <trkpt lat="43.3979" lon="6.66209">
        <ele>88.8</ele>
        <time>2022-10-09T10:24:07Z</time>
      </trkpt>
      <trkpt lat="43.39791" lon="6.66211">
        <ele>89</ele>
        <time>2022-10-09T10:24:08Z</time>
      </trkpt>
      <trkpt lat="43.39792" lon="6.66212">
        <ele>89.1</ele>
        <time>2022-10-09T10:24:09Z</time>
      </trkpt>
      <trkpt lat="43.39793" lon="6.66212">
        <ele>89.2</ele>
        <time>2022-10-09T10:24:10Z</time>
      </trkpt>
      <trkpt lat="43.39795" lon="6.66213">
        <ele>89.4</ele>
        <time>2022-10-09T10:24:11Z</time>
      </trkpt>
      <trkpt lat="43.39796" lon="6.66214">
        <ele>89.5</ele>
        <time>2022-10-09T10:24:12Z</time>
      </trkpt>
      <trkpt lat="43.39798" lon="6.66214">
        <ele>89.7</ele>
        <time>2022-10-09T10:24:13Z</time>
      </trkpt>
      <trkpt lat="43.39799" lon="6.66214">
        <ele>89.8</ele>
        <time>2022-10-09T10:24:14Z</time>
      </trkpt>
      <trkpt lat="43.39801" lon="6.66214">
        <ele>89.9</ele>
        <time>2022-10-09T10:24:15Z</time>
      </trkpt>
      <trkpt lat="43.39802" lon="6.66214">
        <ele>90</ele>
        <time>2022-10-09T10:24:16Z</time>
      </trkpt>
      <trkpt lat="43.39804" lon="6.66214">
        <ele>90.2</ele>
        <time>2022-10-09T10:24:17Z</time>
      </trkpt>
      <trkpt lat="43.39806" lon="6.66213">
        <ele>90.3</ele>
        <time>2022-10-09T10:24:18Z</time>
      </trkpt>
      <trkpt lat="43.39807" lon="6.66212">
        <ele>90.5</ele>
        <time>2022-10-09T10:24:19Z</time>
      </trkpt>
      <trkpt lat="43.39808" lon="6.66211">
        <ele>90.6</ele>
        <time>2022-10-09T10:24:20Z</time>
      </trkpt>
      <trkpt lat="43.39809" lon="6.66209">
        <ele>90.8</ele>
        <time>2022-10-09T10:24:21Z</time>
      </trkpt>
      <trkpt lat="43.3981" lon="6.66207">
        <ele>91</ele>
        <time>2022-10-09T10:24:22Z</time>
      </trkpt>
      <trkpt lat="43.39811" lon="6.66205">
        <ele>91.1</ele>
        <time>2022-10-09T10:24:23Z</time>
      </trkpt>
      <trkpt lat="43.39812" lon="6.66203">
        <ele>91.3</ele>
        <time>2022-10-09T10:24:24Z</time>
      </trkpt>
      <trkpt lat="43.39813" lon="6.66201">
        <ele>91.5</ele>
        <time>2022-10-09T10:24:25Z</time>
      </trkpt>
      <trkpt lat="43.39814" lon="6.66199">
        <ele>91.7</ele>
        <time>2022-10-09T10:24:26Z</time>
      </trkpt>
      <trkpt lat="43.39814" lon="6.66197">
        <ele>91.8</ele>
        <time>2022-10-09T10:24:27Z</time>
      </trkpt>
      <trkpt lat="43.39815" lon="6.66196">
        <ele>92</ele>
        <time>2022-10-09T10:24:28Z</time>
      </trkpt>
      <trkpt lat="43.39816" lon="6.66194">
        <ele>92.2</ele>
        <time>2022-10-09T10:24:29Z</time>
      </trkpt>
      <trkpt lat="43.39817" lon="6.66192">
        <ele>92.3</ele>
        <time>2022-10-09T10:24:30Z</time>
      </trkpt>
      <trkpt lat="43.39817" lon="6.66191">
        <ele>92.5</ele>
        <time>2022-10-09T10:24:31Z</time>
      </trkpt>
      <trkpt lat="43.39818" lon="6.6619">
        <ele>92.6</ele>
        <time>2022-10-09T10:24:32Z</time>
      </trkpt>
      <trkpt lat="43.39819" lon="6.66188">
        <ele>92.8</ele>
        <time>2022-10-09T10:24:33Z</time>
      </trkpt>
      <trkpt lat="43.39819" lon="6.66187">
        <ele>92.9</ele>
        <time>2022-10-09T10:24:34Z</time>
      </trkpt>
      <trkpt lat="43.3982" lon="6.66185">
        <ele>93.1</ele>
        <time>2022-10-09T10:24:35Z</time>
      </trkpt>
      <trkpt lat="43.39821" lon="6.66184">
        <ele>93.2</ele>
        <time>2022-10-09T10:24:36Z</time>
      </trkpt>
      <trkpt lat="43.39821" lon="6.66182">
        <ele>93.4</ele>
        <time>2022-10-09T10:24:37Z</time>
      </trkpt>
      <trkpt lat="43.39822" lon="6.6618">
        <ele>93.5</ele>
        <time>2022-10-09T10:24:38Z</time>
      </trkpt>
      <trkpt lat="43.39823" lon="6.66179">
        <ele>93.7</ele>
        <time>2022-10-09T10:24:39Z</time>
      </trkpt>
      <trkpt lat="43.39824" lon="6.66177">
        <ele>93.9</ele>
        <time>2022-10-09T10:24:40Z</time>
      </trkpt>
      <trkpt lat="43.39825" lon="6.66176">
        <ele>94.1</ele>
        <time>2022-10-09T10:24:41Z</time>
      </trkpt>
      <trkpt lat="43.39825" lon="6.66174">
        <ele>94.2</ele>
        <time>2022-10-09T10:24:42Z</time>
      </trkpt>
      <trkpt lat="43.39826" lon="6.66173">
        <ele>94.4</ele>
        <time>2022-10-09T10:24:43Z</time>
      </trkpt>
      <trkpt lat="43.39827" lon="6.66171">
        <ele>94.6</ele>
        <time>2022-10-09T10:24:44Z</time>
      </trkpt>
      <trkpt lat="43.39828" lon="6.66169">
        <ele>94.7</ele>
        <time>2022-10-09T10:24:45Z</time>
      </trkpt>
      <trkpt lat="43.39829" lon="6.66168">
        <ele>94.9</ele>
        <time>2022-10-09T10:24:46Z</time>
      </trkpt>
      <trkpt lat="43.39829" lon="6.66166">
        <ele>95</ele>
        <time>2022-10-09T10:24:47Z</time>
      </trkpt>
      <trkpt lat="43.3983" lon="6.66165">
        <ele>95.2</ele>
        <time>2022-10-09T10:24:48Z</time>
      </trkpt>
      <trkpt lat="43.39831" lon="6.66163">
        <ele>95.3</ele>
        <time>2022-10-09T10:24:49Z</time>
      </trkpt>
      <trkpt lat="43.39832" lon="6.66162">
        <ele>95.4</ele>
        <time>2022-10-09T10:24:50Z</time>
      </trkpt>
      <trkpt lat="43.39833" lon="6.6616">
        <ele>95.6</ele>
        <time>2022-10-09T10:24:51Z</time>
      </trkpt>
      <trkpt lat="43.39834" lon="6.66159">
        <ele>95.7</ele>
        <time>2022-10-09T10:24:52Z</time>
      </trkpt>
      <trkpt lat="43.39836" lon="6.66157">
        <ele>95.8</ele>
        <time>2022-10-09T10:24:53Z</time>
      </trkpt>
      <trkpt lat="43.39837" lon="6.66156">
        <ele>95.9</ele>
        <time>2022-10-09T10:24:54Z</time>
      </trkpt>
      <trkpt lat="43.39838" lon="6.66154">
        <ele>96.1</ele>
        <time>2022-10-09T10:24:55Z</time>
      </trkpt>
      <trkpt lat="43.39839" lon="6.66152">
        <ele>96.2</ele>
        <time>2022-10-09T10:24:56Z</time>
      </trkpt>
      <trkpt lat="43.3984" lon="6.66151">
        <ele>96.3</ele>
        <time>2022-10-09T10:24:57Z</time>
      </trkpt>
      <trkpt lat="43.39841" lon="6.66149">
        <ele>96.4</ele>
        <time>2022-10-09T10:24:58Z</time>
      </trkpt>
      <trkpt lat="43.39843" lon="6.66147">
        <ele>96.6</ele>
        <time>2022-10-09T10:24:59Z</time>
      </trkpt>
      <trkpt lat="43.39844" lon="6.66146">
        <ele>96.7</ele>
        <time>2022-10-09T10:25:00Z</time>
      </trkpt>
      <trkpt lat="43.39845" lon="6.66144">
        <ele>96.8</ele>
        <time>2022-10-09T10:25:01Z</time>
      </trkpt>
      <trkpt lat="43.39846" lon="6.66142">
        <ele>96.9</ele>
        <time>2022-10-09T10:25:02Z</time>
      </trkpt>
      <trkpt lat="43.39847" lon="6.6614">
        <ele>97.1</ele>
        <time>2022-10-09T10:25:03Z</time>
      </trkpt>
      <trkpt lat="43.39849" lon="6.66139">
        <ele>97.2</ele>
        <time>2022-10-09T10:25:04Z</time>
      </trkpt>
      <trkpt lat="43.3985" lon="6.66137">
        <ele>97.3</ele>
        <time>2022-10-09T10:25:05Z</time>
      </trkpt>
      <trkpt lat="43.39851" lon="6.66135">
        <ele>97.4</ele>
        <time>2022-10-09T10:25:06Z</time>
      </trkpt>
      <trkpt lat="43.39852" lon="6.66133">
        <ele>97.5</ele>
        <time>2022-10-09T10:25:07Z</time>
      </trkpt>
      <trkpt lat="43.39853" lon="6.66132">
        <ele>97.6</ele>
        <time>2022-10-09T10:25:08Z</time>
      </trkpt>
      <trkpt lat="43.39855" lon="6.6613">
        <ele>97.8</ele>
        <time>2022-10-09T10:25:09Z</time>
      </trkpt>
      <trkpt lat="43.39856" lon="6.66129">
        <ele>97.9</ele>
        <time>2022-10-09T10:25:10Z</time>
      </trkpt>
      <trkpt lat="43.39857" lon="6.66127">
        <ele>98</ele>
        <time>2022-10-09T10:25:11Z</time>
      </trkpt>
      <trkpt lat="43.39859" lon="6.66125">
        <ele>98.2</ele>
        <time>2022-10-09T10:25:12Z</time>
      </trkpt>
      <trkpt lat="43.3986" lon="6.66123">
        <ele>98.3</ele>
        <time>2022-10-09T10:25:13Z</time>
      </trkpt>
      <trkpt lat="43.39861" lon="6.66122">
        <ele>98.4</ele>
        <time>2022-10-09T10:25:14Z</time>
      </trkpt>
      <trkpt lat="43.39863" lon="6.6612">
        <ele>98.6</ele>
        <time>2022-10-09T10:25:15Z</time>
      </trkpt>
      <trkpt lat="43.39864" lon="6.66119">
        <ele>98.7</ele>
        <time>2022-10-09T10:25:16Z</time>
      </trkpt>
      <trkpt lat="43.39865" lon="6.66117">
        <ele>98.9</ele>
        <time>2022-10-09T10:25:17Z</time>
      </trkpt>
      <trkpt lat="43.39866" lon="6.66116">
        <ele>99</ele>
        <time>2022-10-09T10:25:18Z</time>
      </trkpt>
      <trkpt lat="43.39867" lon="6.66114">
        <ele>99.1</ele>
        <time>2022-10-09T10:25:19Z</time>
      </trkpt>
      <trkpt lat="43.39868" lon="6.66113">
        <ele>99.3</ele>
        <time>2022-10-09T10:25:20Z</time>
      </trkpt>
      <trkpt lat="43.39869" lon="6.66112">
        <ele>99.4</ele>
        <time>2022-10-09T10:25:21Z</time>
      </trkpt>
      <trkpt lat="43.3987" lon="6.66111">
        <ele>99.5</ele>
        <time>2022-10-09T10:25:22Z</time>
      </trkpt>
      <trkpt lat="43.39872" lon="6.66109">
        <ele>99.6</ele>
        <time>2022-10-09T10:25:23Z</time>
      </trkpt>
      <trkpt lat="43.39873" lon="6.66108">
        <ele>99.8</ele>
        <time>2022-10-09T10:25:24Z</time>
      </trkpt>
      <trkpt lat="43.39874" lon="6.66107">
        <ele>99.9</ele>
        <time>2022-10-09T10:25:25Z</time>
      </trkpt>
      <trkpt lat="43.39875" lon="6.66105">
        <ele>100</ele>
        <time>2022-10-09T10:25:26Z</time>
      </trkpt>
      <trkpt lat="43.39875" lon="6.66104">
        <ele>100.1</ele>
        <time>2022-10-09T10:25:27Z</time>
      </trkpt>
      <trkpt lat="43.39876" lon="6.66103">
        <ele>100.2</ele>
        <time>2022-10-09T10:25:28Z</time>
      </trkpt>
      <trkpt lat="43.39877" lon="6.66102">
        <ele>100.4</ele>
        <time>2022-10-09T10:25:29Z</time>
      </trkpt>
      <trkpt lat="43.39878" lon="6.661">
        <ele>100.5</ele>
        <time>2022-10-09T10:25:30Z</time>
      </trkpt>
      <trkpt lat="43.39879" lon="6.66098">
        <ele>100.7</ele>
        <time>2022-10-09T10:25:31Z</time>
      </trkpt>
      <trkpt lat="43.3988" lon="6.66096">
        <ele>100.8</ele>
        <time>2022-10-09T10:25:32Z</time>
      </trkpt>
      <trkpt lat="43.39881" lon="6.66093">
        <ele>101</ele>
        <time>2022-10-09T10:25:33Z</time>
      </trkpt>
      <trkpt lat="43.39882" lon="6.66091">
        <ele>101.2</ele>
        <time>2022-10-09T10:25:34Z</time>
      </trkpt>
      <trkpt lat="43.39883" lon="6.66089">
        <ele>101.4</ele>
        <time>2022-10-09T10:25:35Z</time>
      </trkpt>
      <trkpt lat="43.39884" lon="6.66087">
        <ele>101.6</ele>
        <time>2022-10-09T10:25:36Z</time>
      </trkpt>
      <trkpt lat="43.39885" lon="6.66085">
        <ele>101.8</ele>
        <time>2022-10-09T10:25:37Z</time>
      </trkpt>
      <trkpt lat="43.39886" lon="6.66083">
        <ele>101.9</ele>
        <time>2022-10-09T10:25:38Z</time>
      </trkpt>
      <trkpt lat="43.39887" lon="6.66081">
        <ele>102.1</ele>
        <time>2022-10-09T10:25:39Z</time>
      </trkpt>
      <trkpt lat="43.39887" lon="6.66079">
        <ele>102.3</ele>
        <time>2022-10-09T10:25:40Z</time>
      </trkpt>
      <trkpt lat="43.39888" lon="6.66078">
        <ele>102.4</ele>
        <time>2022-10-09T10:25:41Z</time>
      </trkpt>
      <trkpt lat="43.39889" lon="6.66076">
        <ele>102.6</ele>
        <time>2022-10-09T10:25:42Z</time>
      </trkpt>
      <trkpt lat="43.3989" lon="6.66075">
        <ele>102.8</ele>
        <time>2022-10-09T10:25:43Z</time>
      </trkpt>
      <trkpt lat="43.39891" lon="6.66073">
        <ele>102.9</ele>
        <time>2022-10-09T10:25:44Z</time>
      </trkpt>
      <trkpt lat="43.39891" lon="6.66071">
        <ele>103.1</ele>
        <time>2022-10-09T10:25:45Z</time>
      </trkpt>
      <trkpt lat="43.39892" lon="6.6607">
        <ele>103.3</ele>
        <time>2022-10-09T10:25:46Z</time>
      </trkpt>
      <trkpt lat="43.39892" lon="6.66068">
        <ele>103.4</ele>
        <time>2022-10-09T10:25:47Z</time>
      </trkpt>
      <trkpt lat="43.39893" lon="6.66067">
        <ele>103.6</ele>
        <time>2022-10-09T10:25:48Z</time>
      </trkpt>
      <trkpt lat="43.39894" lon="6.66065">
        <ele>103.8</ele>
        <time>2022-10-09T10:25:49Z</time>
      </trkpt>
      <trkpt lat="43.39895" lon="6.66064">
        <ele>104</ele>
        <time>2022-10-09T10:25:50Z</time>
      </trkpt>
      <trkpt lat="43.39896" lon="6.66062">
        <ele>104.2</ele>
        <time>2022-10-09T10:25:51Z</time>
      </trkpt>
      <trkpt lat="43.39897" lon="6.66061">
        <ele>104.4</ele>
        <time>2022-10-09T10:25:52Z</time>
      </trkpt>
      <trkpt lat="43.39898" lon="6.66059">
        <ele>104.6</ele>
        <time>2022-10-09T10:25:53Z</time>
      </trkpt>
      <trkpt lat="43.39898" lon="6.66057">
        <ele>104.8</ele>
        <time>2022-10-09T10:25:54Z</time>
      </trkpt>
      <trkpt lat="43.39899" lon="6.66056">
        <ele>105</ele>
        <time>2022-10-09T10:25:55Z</time>
      </trkpt>
      <trkpt lat="43.399" lon="6.66054">
        <ele>105.2</ele>
        <time>2022-10-09T10:25:56Z</time>
      </trkpt>
      <trkpt lat="43.399" lon="6.66052">
        <ele>105.4</ele>
        <time>2022-10-09T10:25:57Z</time>
      </trkpt>
      <trkpt lat="43.39901" lon="6.6605">
        <ele>105.6</ele>
        <time>2022-10-09T10:25:58Z</time>
      </trkpt>
      <trkpt lat="43.39902" lon="6.66048">
        <ele>105.8</ele>
        <time>2022-10-09T10:25:59Z</time>
      </trkpt>
      <trkpt lat="43.39902" lon="6.66046">
        <ele>106</ele>
        <time>2022-10-09T10:26:00Z</time>
      </trkpt>
      <trkpt lat="43.39903" lon="6.66044">
        <ele>106.2</ele>
        <time>2022-10-09T10:26:01Z</time>
      </trkpt>
      <trkpt lat="43.39903" lon="6.66042">
        <ele>106.4</ele>
        <time>2022-10-09T10:26:02Z</time>
      </trkpt>
      <trkpt lat="43.39904" lon="6.6604">
        <ele>106.6</ele>
        <time>2022-10-09T10:26:03Z</time>
      </trkpt>
      <trkpt lat="43.39904" lon="6.66038">
        <ele>106.7</ele>
        <time>2022-10-09T10:26:04Z</time>
      </trkpt>
      <trkpt lat="43.39905" lon="6.66036">
        <ele>106.9</ele>
        <time>2022-10-09T10:26:05Z</time>
      </trkpt>
      <trkpt lat="43.39905" lon="6.66034">
        <ele>107.1</ele>
        <time>2022-10-09T10:26:06Z</time>
      </trkpt>
      <trkpt lat="43.39905" lon="6.66032">
        <ele>107.2</ele>
        <time>2022-10-09T10:26:07Z</time>
      </trkpt>
      <trkpt lat="43.39906" lon="6.6603">
        <ele>107.4</ele>
        <time>2022-10-09T10:26:08Z</time>
      </trkpt>
      <trkpt lat="43.39906" lon="6.66028">
        <ele>107.5</ele>
        <time>2022-10-09T10:26:09Z</time>
      </trkpt>
      <trkpt lat="43.39907" lon="6.66026">
        <ele>107.7</ele>
        <time>2022-10-09T10:26:10Z</time>
      </trkpt>
      <trkpt lat="43.39907" lon="6.66024">
        <ele>107.8</ele>
        <time>2022-10-09T10:26:11Z</time>
      </trkpt>
      <trkpt lat="43.39908" lon="6.66022">
        <ele>107.9</ele>
        <time>2022-10-09T10:26:12Z</time>
      </trkpt>
      <trkpt lat="43.39908" lon="6.6602">
        <ele>108.1</ele>
        <time>2022-10-09T10:26:13Z</time>
      </trkpt>
      <trkpt lat="43.39908" lon="6.66018">
        <ele>108.2</ele>
        <time>2022-10-09T10:26:14Z</time>
      </trkpt>
      <trkpt lat="43.39909" lon="6.66016">
        <ele>108.3</ele>
        <time>2022-10-09T10:26:15Z</time>
      </trkpt>
      <trkpt lat="43.39909" lon="6.66015">
        <ele>108.4</ele>
        <time>2022-10-09T10:26:16Z</time>
      </trkpt>
      <trkpt lat="43.39909" lon="6.66013">
        <ele>108.5</ele>
        <time>2022-10-09T10:26:17Z</time>
      </trkpt>
      <trkpt lat="43.3991" lon="6.66011">
        <ele>108.6</ele>
        <time>2022-10-09T10:26:18Z</time>
      </trkpt>
      <trkpt lat="43.3991" lon="6.66009">
        <ele>108.7</ele>
        <time>2022-10-09T10:26:19Z</time>
      </trkpt>
      <trkpt lat="43.39911" lon="6.66007">
        <ele>108.9</ele>
        <time>2022-10-09T10:26:20Z</time>
      </trkpt>
      <trkpt lat="43.39912" lon="6.66005">
        <ele>109</ele>
        <time>2022-10-09T10:26:21Z</time>
      </trkpt>
      <trkpt lat="43.39912" lon="6.66003">
        <ele>109.1</ele>
        <time>2022-10-09T10:26:22Z</time>
      </trkpt>
      <trkpt lat="43.39913" lon="6.66">
        <ele>109.2</ele>
        <time>2022-10-09T10:26:23Z</time>
      </trkpt>
      <trkpt lat="43.39914" lon="6.65998">
        <ele>109.3</ele>
        <time>2022-10-09T10:26:24Z</time>
      </trkpt>
      <trkpt lat="43.39914" lon="6.65996">
        <ele>109.4</ele>
        <time>2022-10-09T10:26:25Z</time>
      </trkpt>
      <trkpt lat="43.39915" lon="6.65994">
        <ele>109.5</ele>
        <time>2022-10-09T10:26:26Z</time>
      </trkpt>
      <trkpt lat="43.39915" lon="6.65992">
        <ele>109.6</ele>
        <time>2022-10-09T10:26:27Z</time>
      </trkpt>
      <trkpt lat="43.39915" lon="6.65989">
        <ele>109.8</ele>
        <time>2022-10-09T10:26:28Z</time>
      </trkpt>
      <trkpt lat="43.39916" lon="6.65987">
        <ele>109.9</ele>
        <time>2022-10-09T10:26:29Z</time>
      </trkpt>
      <trkpt lat="43.39916" lon="6.65984">
        <ele>110</ele>
        <time>2022-10-09T10:26:30Z</time>
      </trkpt>
      <trkpt lat="43.39916" lon="6.65982">
        <ele>110.1</ele>
        <time>2022-10-09T10:26:31Z</time>
      </trkpt>
      <trkpt lat="43.39917" lon="6.65979">
        <ele>110.2</ele>
        <time>2022-10-09T10:26:32Z</time>
      </trkpt>
      <trkpt lat="43.39917" lon="6.65977">
        <ele>110.3</ele>
        <time>2022-10-09T10:26:33Z</time>
      </trkpt>
      <trkpt lat="43.39917" lon="6.65974">
        <ele>110.4</ele>
        <time>2022-10-09T10:26:34Z</time>
      </trkpt>
      <trkpt lat="43.39918" lon="6.65972">
        <ele>110.5</ele>
        <time>2022-10-09T10:26:35Z</time>
      </trkpt>
      <trkpt lat="43.39918" lon="6.65969">
        <ele>110.7</ele>
        <time>2022-10-09T10:26:36Z</time>
      </trkpt>
      <trkpt lat="43.39917" lon="6.65967">
        <ele>110.8</ele>
        <time>2022-10-09T10:26:37Z</time>
      </trkpt>
      <trkpt lat="43.39918" lon="6.65964">
        <ele>110.9</ele>
        <time>2022-10-09T10:26:38Z</time>
      </trkpt>
      <trkpt lat="43.39918" lon="6.65962">
        <ele>111</ele>
        <time>2022-10-09T10:26:39Z</time>
      </trkpt>
      <trkpt lat="43.39918" lon="6.6596">
        <ele>111.2</ele>
        <time>2022-10-09T10:26:40Z</time>
      </trkpt>
      <trkpt lat="43.39918" lon="6.65957">
        <ele>111.3</ele>
        <time>2022-10-09T10:26:41Z</time>
      </trkpt>
      <trkpt lat="43.39918" lon="6.65955">
        <ele>111.4</ele>
        <time>2022-10-09T10:26:42Z</time>
      </trkpt>
      <trkpt lat="43.39918" lon="6.65953">
        <ele>111.5</ele>
        <time>2022-10-09T10:26:43Z</time>
      </trkpt>
      <trkpt lat="43.39918" lon="6.65951">
        <ele>111.7</ele>
        <time>2022-10-09T10:26:44Z</time>
      </trkpt>
      <trkpt lat="43.39918" lon="6.65949">
        <ele>111.8</ele>
        <time>2022-10-09T10:26:45Z</time>
      </trkpt>
      <trkpt lat="43.39918" lon="6.65947">
        <ele>111.9</ele>
        <time>2022-10-09T10:26:46Z</time>
      </trkpt>
      <trkpt lat="43.39918" lon="6.65945">
        <ele>112</ele>
        <time>2022-10-09T10:26:47Z</time>
      </trkpt>
      <trkpt lat="43.39917" lon="6.65943">
        <ele>112.1</ele>
        <time>2022-10-09T10:26:48Z</time>
      </trkpt>
      <trkpt lat="43.39917" lon="6.65941">
        <ele>112.3</ele>
        <time>2022-10-09T10:26:49Z</time>
      </trkpt>
      <trkpt lat="43.39917" lon="6.65939">
        <ele>112.4</ele>
        <time>2022-10-09T10:26:50Z</time>
      </trkpt>
      <trkpt lat="43.39917" lon="6.65937">
        <ele>112.5</ele>
        <time>2022-10-09T10:26:51Z</time>
      </trkpt>
      <trkpt lat="43.39917" lon="6.65936">
        <ele>112.6</ele>
        <time>2022-10-09T10:26:52Z</time>
      </trkpt>
      <trkpt lat="43.39917" lon="6.65934">
        <ele>112.7</ele>
        <time>2022-10-09T10:26:53Z</time>
      </trkpt>
      <trkpt lat="43.39917" lon="6.65932">
        <ele>112.9</ele>
        <time>2022-10-09T10:26:54Z</time>
      </trkpt>
      <trkpt lat="43.39917" lon="6.6593">
        <ele>113</ele>
        <time>2022-10-09T10:26:55Z</time>
      </trkpt>
      <trkpt lat="43.39917" lon="6.65928">
        <ele>113.1</ele>
        <time>2022-10-09T10:26:56Z</time>
      </trkpt>
      <trkpt lat="43.39918" lon="6.65926">
        <ele>113.3</ele>
        <time>2022-10-09T10:26:57Z</time>
      </trkpt>
      <trkpt lat="43.39917" lon="6.65924">
        <ele>113.4</ele>
        <time>2022-10-09T10:26:58Z</time>
      </trkpt>
      <trkpt lat="43.39917" lon="6.65922">
        <ele>113.5</ele>
        <time>2022-10-09T10:26:59Z</time>
      </trkpt>
      <trkpt lat="43.39917" lon="6.6592">
        <ele>113.6</ele>
        <time>2022-10-09T10:27:00Z</time>
      </trkpt>
      <trkpt lat="43.39917" lon="6.65918">
        <ele>113.8</ele>
        <time>2022-10-09T10:27:01Z</time>
      </trkpt>
      <trkpt lat="43.39917" lon="6.65916">
        <ele>113.9</ele>
        <time>2022-10-09T10:27:02Z</time>
      </trkpt>
      <trkpt lat="43.39917" lon="6.65914">
        <ele>114</ele>
        <time>2022-10-09T10:27:03Z</time>
      </trkpt>
      <trkpt lat="43.39916" lon="6.65912">
        <ele>114.1</ele>
        <time>2022-10-09T10:27:04Z</time>
      </trkpt>
      <trkpt lat="43.39916" lon="6.65911">
        <ele>114.2</ele>
        <time>2022-10-09T10:27:05Z</time>
      </trkpt>
      <trkpt lat="43.39916" lon="6.65909">
        <ele>114.4</ele>
        <time>2022-10-09T10:27:06Z</time>
      </trkpt>
      <trkpt lat="43.39915" lon="6.65907">
        <ele>114.5</ele>
        <time>2022-10-09T10:27:07Z</time>
      </trkpt>
      <trkpt lat="43.39915" lon="6.65905">
        <ele>114.6</ele>
        <time>2022-10-09T10:27:08Z</time>
      </trkpt>
      <trkpt lat="43.39915" lon="6.65903">
        <ele>114.7</ele>
        <time>2022-10-09T10:27:09Z</time>
      </trkpt>
      <trkpt lat="43.39915" lon="6.65901">
        <ele>114.9</ele>
        <time>2022-10-09T10:27:10Z</time>
      </trkpt>
      <trkpt lat="43.39915" lon="6.65899">
        <ele>115</ele>
        <time>2022-10-09T10:27:11Z</time>
      </trkpt>
      <trkpt lat="43.39915" lon="6.65896">
        <ele>115.2</ele>
        <time>2022-10-09T10:27:12Z</time>
      </trkpt>
      <trkpt lat="43.39914" lon="6.65894">
        <ele>115.3</ele>
        <time>2022-10-09T10:27:13Z</time>
      </trkpt>
      <trkpt lat="43.39914" lon="6.65892">
        <ele>115.4</ele>
        <time>2022-10-09T10:27:14Z</time>
      </trkpt>
      <trkpt lat="43.39914" lon="6.65889">
        <ele>115.6</ele>
        <time>2022-10-09T10:27:15Z</time>
      </trkpt>
      <trkpt lat="43.39913" lon="6.65887">
        <ele>115.7</ele>
        <time>2022-10-09T10:27:16Z</time>
      </trkpt>
      <trkpt lat="43.39913" lon="6.65885">
        <ele>115.9</ele>
        <time>2022-10-09T10:27:17Z</time>
      </trkpt>
      <trkpt lat="43.39913" lon="6.65883">
        <ele>116</ele>
        <time>2022-10-09T10:27:18Z</time>
      </trkpt>
      <trkpt lat="43.39913" lon="6.65881">
        <ele>116.1</ele>
        <time>2022-10-09T10:27:19Z</time>
      </trkpt>
      <trkpt lat="43.39912" lon="6.65878">
        <ele>116.2</ele>
        <time>2022-10-09T10:27:20Z</time>
      </trkpt>
      <trkpt lat="43.39912" lon="6.65876">
        <ele>116.4</ele>
        <time>2022-10-09T10:27:21Z</time>
      </trkpt>
      <trkpt lat="43.39911" lon="6.65874">
        <ele>116.5</ele>
        <time>2022-10-09T10:27:22Z</time>
      </trkpt>
      <trkpt lat="43.39911" lon="6.65872">
        <ele>116.6</ele>
        <time>2022-10-09T10:27:23Z</time>
      </trkpt>
      <trkpt lat="43.39911" lon="6.6587">
        <ele>116.8</ele>
        <time>2022-10-09T10:27:24Z</time>
      </trkpt>
      <trkpt lat="43.39911" lon="6.65868">
        <ele>116.9</ele>
        <time>2022-10-09T10:27:25Z</time>
      </trkpt>
      <trkpt lat="43.39911" lon="6.65866">
        <ele>117</ele>
        <time>2022-10-09T10:27:26Z</time>
      </trkpt>
      <trkpt lat="43.39911" lon="6.65864">
        <ele>117.1</ele>
        <time>2022-10-09T10:27:27Z</time>
      </trkpt>
      <trkpt lat="43.39911" lon="6.65862">
        <ele>117.3</ele>
        <time>2022-10-09T10:27:28Z</time>
      </trkpt>
      <trkpt lat="43.3991" lon="6.6586">
        <ele>117.4</ele>
        <time>2022-10-09T10:27:29Z</time>
      </trkpt>
      <trkpt lat="43.3991" lon="6.65858">
        <ele>117.5</ele>
        <time>2022-10-09T10:27:30Z</time>
      </trkpt>
      <trkpt lat="43.3991" lon="6.65857">
        <ele>117.6</ele>
        <time>2022-10-09T10:27:31Z</time>
      </trkpt>
      <trkpt lat="43.3991" lon="6.65855">
        <ele>117.8</ele>
        <time>2022-10-09T10:27:32Z</time>
      </trkpt>
      <trkpt lat="43.3991" lon="6.65853">
        <ele>117.9</ele>
        <time>2022-10-09T10:27:33Z</time>
      </trkpt>
      <trkpt lat="43.3991" lon="6.65851">
        <ele>118</ele>
        <time>2022-10-09T10:27:34Z</time>
      </trkpt>
      <trkpt lat="43.39909" lon="6.65849">
        <ele>118.2</ele>
        <time>2022-10-09T10:27:35Z</time>
      </trkpt>
      <trkpt lat="43.39909" lon="6.65847">
        <ele>118.3</ele>
        <time>2022-10-09T10:27:36Z</time>
      </trkpt>
      <trkpt lat="43.3991" lon="6.65845">
        <ele>118.4</ele>
        <time>2022-10-09T10:27:37Z</time>
      </trkpt>
      <trkpt lat="43.39911" lon="6.65844">
        <ele>118.6</ele>
        <time>2022-10-09T10:27:38Z</time>
      </trkpt>
      <trkpt lat="43.39911" lon="6.65842">
        <ele>118.7</ele>
        <time>2022-10-09T10:27:39Z</time>
      </trkpt>
      <trkpt lat="43.39912" lon="6.65841">
        <ele>118.8</ele>
        <time>2022-10-09T10:27:40Z</time>
      </trkpt>
      <trkpt lat="43.39913" lon="6.6584">
        <ele>118.9</ele>
        <time>2022-10-09T10:27:41Z</time>
      </trkpt>
      <trkpt lat="43.39914" lon="6.65839">
        <ele>119.1</ele>
        <time>2022-10-09T10:27:42Z</time>
      </trkpt>
      <trkpt lat="43.39916" lon="6.65837">
        <ele>119.2</ele>
        <time>2022-10-09T10:27:43Z</time>
      </trkpt>
      <trkpt lat="43.39917" lon="6.65836">
        <ele>119.4</ele>
        <time>2022-10-09T10:27:44Z</time>
      </trkpt>
      <trkpt lat="43.39918" lon="6.65835">
        <ele>119.5</ele>
        <time>2022-10-09T10:27:45Z</time>
      </trkpt>
      <trkpt lat="43.39919" lon="6.65835">
        <ele>119.6</ele>
        <time>2022-10-09T10:27:46Z</time>
      </trkpt>
      <trkpt lat="43.3992" lon="6.65834">
        <ele>119.7</ele>
        <time>2022-10-09T10:27:47Z</time>
      </trkpt>
      <trkpt lat="43.39921" lon="6.65833">
        <ele>119.9</ele>
        <time>2022-10-09T10:27:48Z</time>
      </trkpt>
      <trkpt lat="43.39922" lon="6.65832">
        <ele>120</ele>
        <time>2022-10-09T10:27:49Z</time>
      </trkpt>
      <trkpt lat="43.39923" lon="6.65831">
        <ele>120.1</ele>
        <time>2022-10-09T10:27:50Z</time>
      </trkpt>
      <trkpt lat="43.39924" lon="6.6583">
        <ele>120.2</ele>
        <time>2022-10-09T10:27:51Z</time>
      </trkpt>
      <trkpt lat="43.39925" lon="6.65829">
        <ele>120.3</ele>
        <time>2022-10-09T10:27:52Z</time>
      </trkpt>
      <trkpt lat="43.39927" lon="6.65828">
        <ele>120.5</ele>
        <time>2022-10-09T10:27:53Z</time>
      </trkpt>
      <trkpt lat="43.39928" lon="6.65826">
        <ele>120.7</ele>
        <time>2022-10-09T10:27:54Z</time>
      </trkpt>
      <trkpt lat="43.39929" lon="6.65825">
        <ele>120.8</ele>
        <time>2022-10-09T10:27:55Z</time>
      </trkpt>
      <trkpt lat="43.39931" lon="6.65824">
        <ele>120.9</ele>
        <time>2022-10-09T10:27:56Z</time>
      </trkpt>
      <trkpt lat="43.39932" lon="6.65823">
        <ele>121.1</ele>
        <time>2022-10-09T10:27:57Z</time>
      </trkpt>
      <trkpt lat="43.39933" lon="6.65822">
        <ele>121.2</ele>
        <time>2022-10-09T10:27:58Z</time>
      </trkpt>
      <trkpt lat="43.39935" lon="6.65821">
        <ele>121.4</ele>
        <time>2022-10-09T10:27:59Z</time>
      </trkpt>
      <trkpt lat="43.39936" lon="6.65821">
        <ele>121.5</ele>
        <time>2022-10-09T10:28:00Z</time>
      </trkpt>
      <trkpt lat="43.39938" lon="6.6582">
        <ele>121.6</ele>
        <time>2022-10-09T10:28:01Z</time>
      </trkpt>
      <trkpt lat="43.39939" lon="6.65819">
        <ele>121.8</ele>
        <time>2022-10-09T10:28:02Z</time>
      </trkpt>
      <trkpt lat="43.3994" lon="6.65818">
        <ele>121.9</ele>
        <time>2022-10-09T10:28:03Z</time>
      </trkpt>
      <trkpt lat="43.39941" lon="6.65816">
        <ele>122</ele>
        <time>2022-10-09T10:28:04Z</time>
      </trkpt>
      <trkpt lat="43.39943" lon="6.65815">
        <ele>122.2</ele>
        <time>2022-10-09T10:28:05Z</time>
      </trkpt>
      <trkpt lat="43.39944" lon="6.65814">
        <ele>122.3</ele>
        <time>2022-10-09T10:28:06Z</time>
      </trkpt>
      <trkpt lat="43.39945" lon="6.65814">
        <ele>122.4</ele>
        <time>2022-10-09T10:28:07Z</time>
      </trkpt>
      <trkpt lat="43.39946" lon="6.65813">
        <ele>122.5</ele>
        <time>2022-10-09T10:28:08Z</time>
      </trkpt>
      <trkpt lat="43.39947" lon="6.65812">
        <ele>122.6</ele>
        <time>2022-10-09T10:28:09Z</time>
      </trkpt>
      <trkpt lat="43.39949" lon="6.65811">
        <ele>122.8</ele>
        <time>2022-10-09T10:28:10Z</time>
      </trkpt>
      <trkpt lat="43.3995" lon="6.6581">
        <ele>122.9</ele>
        <time>2022-10-09T10:28:11Z</time>
      </trkpt>
      <trkpt lat="43.39951" lon="6.65809">
        <ele>123</ele>
        <time>2022-10-09T10:28:12Z</time>
      </trkpt>
      <trkpt lat="43.39952" lon="6.65808">
        <ele>123.2</ele>
        <time>2022-10-09T10:28:13Z</time>
      </trkpt>
      <trkpt lat="43.39954" lon="6.65807">
        <ele>123.3</ele>
        <time>2022-10-09T10:28:14Z</time>
      </trkpt>
      <trkpt lat="43.39955" lon="6.65806">
        <ele>123.4</ele>
        <time>2022-10-09T10:28:15Z</time>
      </trkpt>
      <trkpt lat="43.39956" lon="6.65805">
        <ele>123.5</ele>
        <time>2022-10-09T10:28:16Z</time>
      </trkpt>
      <trkpt lat="43.39957" lon="6.65804">
        <ele>123.6</ele>
        <time>2022-10-09T10:28:17Z</time>
      </trkpt>
      <trkpt lat="43.39959" lon="6.65803">
        <ele>123.8</ele>
        <time>2022-10-09T10:28:18Z</time>
      </trkpt>
      <trkpt lat="43.3996" lon="6.65802">
        <ele>123.9</ele>
        <time>2022-10-09T10:28:19Z</time>
      </trkpt>
      <trkpt lat="43.39961" lon="6.65801">
        <ele>124</ele>
        <time>2022-10-09T10:28:20Z</time>
      </trkpt>
      <trkpt lat="43.39963" lon="6.658">
        <ele>124.2</ele>
        <time>2022-10-09T10:28:21Z</time>
      </trkpt>
      <trkpt lat="43.39964" lon="6.658">
        <ele>124.3</ele>
        <time>2022-10-09T10:28:22Z</time>
      </trkpt>
      <trkpt lat="43.39966" lon="6.65799">
        <ele>124.4</ele>
        <time>2022-10-09T10:28:23Z</time>
      </trkpt>
      <trkpt lat="43.39967" lon="6.65798">
        <ele>124.5</ele>
        <time>2022-10-09T10:28:24Z</time>
      </trkpt>
      <trkpt lat="43.39968" lon="6.65798">
        <ele>124.6</ele>
        <time>2022-10-09T10:28:25Z</time>
      </trkpt>
      <trkpt lat="43.3997" lon="6.65797">
        <ele>124.8</ele>
        <time>2022-10-09T10:28:26Z</time>
      </trkpt>
      <trkpt lat="43.39971" lon="6.65797">
        <ele>124.9</ele>
        <time>2022-10-09T10:28:27Z</time>
      </trkpt>
      <trkpt lat="43.39973" lon="6.65797">
        <ele>125</ele>
        <time>2022-10-09T10:28:28Z</time>
      </trkpt>
      <trkpt lat="43.39975" lon="6.65796">
        <ele>125.1</ele>
        <time>2022-10-09T10:28:29Z</time>
      </trkpt>
      <trkpt lat="43.39976" lon="6.65796">
        <ele>125.2</ele>
        <time>2022-10-09T10:28:30Z</time>
      </trkpt>
      <trkpt lat="43.39978" lon="6.65796">
        <ele>125.4</ele>
        <time>2022-10-09T10:28:31Z</time>
      </trkpt>
      <trkpt lat="43.3998" lon="6.65796">
        <ele>125.5</ele>
        <time>2022-10-09T10:28:32Z</time>
      </trkpt>
      <trkpt lat="43.39981" lon="6.65796">
        <ele>125.7</ele>
        <time>2022-10-09T10:28:33Z</time>
      </trkpt>
      <trkpt lat="43.39983" lon="6.65795">
        <ele>125.8</ele>
        <time>2022-10-09T10:28:34Z</time>
      </trkpt>
      <trkpt lat="43.39985" lon="6.65794">
        <ele>125.9</ele>
        <time>2022-10-09T10:28:35Z</time>
      </trkpt>
      <trkpt lat="43.39987" lon="6.65793">
        <ele>126.1</ele>
        <time>2022-10-09T10:28:36Z</time>
      </trkpt>
      <trkpt lat="43.39988" lon="6.65792">
        <ele>126.2</ele>
        <time>2022-10-09T10:28:37Z</time>
      </trkpt>
      <trkpt lat="43.3999" lon="6.65791">
        <ele>126.4</ele>
        <time>2022-10-09T10:28:38Z</time>
      </trkpt>
      <trkpt lat="43.39991" lon="6.65789">
        <ele>126.5</ele>
        <time>2022-10-09T10:28:39Z</time>
      </trkpt>
      <trkpt lat="43.39993" lon="6.65788">
        <ele>126.7</ele>
        <time>2022-10-09T10:28:40Z</time>
      </trkpt>
      <trkpt lat="43.39995" lon="6.65787">
        <ele>126.8</ele>
        <time>2022-10-09T10:28:41Z</time>
      </trkpt>
      <trkpt lat="43.39996" lon="6.65786">
        <ele>127</ele>
        <time>2022-10-09T10:28:42Z</time>
      </trkpt>
      <trkpt lat="43.39998" lon="6.65785">
        <ele>127.1</ele>
        <time>2022-10-09T10:28:43Z</time>
      </trkpt>
      <trkpt lat="43.39999" lon="6.65784">
        <ele>127.3</ele>
        <time>2022-10-09T10:28:44Z</time>
      </trkpt>
      <trkpt lat="43.40001" lon="6.65783">
        <ele>127.4</ele>
        <time>2022-10-09T10:28:45Z</time>
      </trkpt>
      <trkpt lat="43.40002" lon="6.65781">
        <ele>127.6</ele>
        <time>2022-10-09T10:28:46Z</time>
      </trkpt>
      <trkpt lat="43.40004" lon="6.6578">
        <ele>127.8</ele>
        <time>2022-10-09T10:28:47Z</time>
      </trkpt>
      <trkpt lat="43.40005" lon="6.65778">
        <ele>127.9</ele>
        <time>2022-10-09T10:28:48Z</time>
      </trkpt>
      <trkpt lat="43.40006" lon="6.65777">
        <ele>128.1</ele>
        <time>2022-10-09T10:28:49Z</time>
      </trkpt>
      <trkpt lat="43.40007" lon="6.65775">
        <ele>128.2</ele>
        <time>2022-10-09T10:28:50Z</time>
      </trkpt>
      <trkpt lat="43.40008" lon="6.65773">
        <ele>128.3</ele>
        <time>2022-10-09T10:28:51Z</time>
      </trkpt>
      <trkpt lat="43.4001" lon="6.65772">
        <ele>128.5</ele>
        <time>2022-10-09T10:28:52Z</time>
      </trkpt>
      <trkpt lat="43.40011" lon="6.65769">
        <ele>128.7</ele>
        <time>2022-10-09T10:28:53Z</time>
      </trkpt>
      <trkpt lat="43.40012" lon="6.65767">
        <ele>128.9</ele>
        <time>2022-10-09T10:28:54Z</time>
      </trkpt>
      <trkpt lat="43.40013" lon="6.65765">
        <ele>129</ele>
        <time>2022-10-09T10:28:55Z</time>
      </trkpt>
      <trkpt lat="43.40014" lon="6.65762">
        <ele>129.2</ele>
        <time>2022-10-09T10:28:56Z</time>
      </trkpt>
      <trkpt lat="43.40015" lon="6.6576">
        <ele>129.3</ele>
        <time>2022-10-09T10:28:57Z</time>
      </trkpt>
      <trkpt lat="43.40016" lon="6.65758">
        <ele>129.5</ele>
        <time>2022-10-09T10:28:58Z</time>
      </trkpt>
      <trkpt lat="43.40017" lon="6.65756">
        <ele>129.6</ele>
        <time>2022-10-09T10:28:59Z</time>
      </trkpt>
      <trkpt lat="43.40018" lon="6.65755">
        <ele>129.8</ele>
        <time>2022-10-09T10:29:00Z</time>
      </trkpt>
      <trkpt lat="43.40018" lon="6.65753">
        <ele>129.9</ele>
        <time>2022-10-09T10:29:01Z</time>
      </trkpt>
      <trkpt lat="43.40019" lon="6.6575">
        <ele>130</ele>
        <time>2022-10-09T10:29:02Z</time>
      </trkpt>
      <trkpt lat="43.4002" lon="6.65748">
        <ele>130.2</ele>
        <time>2022-10-09T10:29:03Z</time>
      </trkpt>
      <trkpt lat="43.4002" lon="6.65746">
        <ele>130.3</ele>
        <time>2022-10-09T10:29:04Z</time>
      </trkpt>
      <trkpt lat="43.40021" lon="6.65744">
        <ele>130.5</ele>
        <time>2022-10-09T10:29:05Z</time>
      </trkpt>
      <trkpt lat="43.40022" lon="6.65742">
        <ele>130.6</ele>
        <time>2022-10-09T10:29:06Z</time>
      </trkpt>
      <trkpt lat="43.40022" lon="6.6574">
        <ele>130.7</ele>
        <time>2022-10-09T10:29:07Z</time>
      </trkpt>
      <trkpt lat="43.40023" lon="6.65738">
        <ele>130.9</ele>
        <time>2022-10-09T10:29:08Z</time>
      </trkpt>
      <trkpt lat="43.40024" lon="6.65737">
        <ele>131</ele>
        <time>2022-10-09T10:29:09Z</time>
      </trkpt>
      <trkpt lat="43.40025" lon="6.65735">
        <ele>131.1</ele>
        <time>2022-10-09T10:29:10Z</time>
      </trkpt>
      <trkpt lat="43.40025" lon="6.65733">
        <ele>131.3</ele>
        <time>2022-10-09T10:29:11Z</time>
      </trkpt>
      <trkpt lat="43.40026" lon="6.65731">
        <ele>131.4</ele>
        <time>2022-10-09T10:29:12Z</time>
      </trkpt>
      <trkpt lat="43.40027" lon="6.65729">
        <ele>131.6</ele>
        <time>2022-10-09T10:29:13Z</time>
      </trkpt>
      <trkpt lat="43.40027" lon="6.65727">
        <ele>131.7</ele>
        <time>2022-10-09T10:29:14Z</time>
      </trkpt>
      <trkpt lat="43.40028" lon="6.65725">
        <ele>131.9</ele>
        <time>2022-10-09T10:29:15Z</time>
      </trkpt>
      <trkpt lat="43.40028" lon="6.65723">
        <ele>132</ele>
        <time>2022-10-09T10:29:16Z</time>
      </trkpt>
      <trkpt lat="43.40029" lon="6.65721">
        <ele>132.2</ele>
        <time>2022-10-09T10:29:17Z</time>
      </trkpt>
      <trkpt lat="43.40029" lon="6.65718">
        <ele>132.3</ele>
        <time>2022-10-09T10:29:18Z</time>
      </trkpt>
      <trkpt lat="43.4003" lon="6.65717">
        <ele>132.4</ele>
        <time>2022-10-09T10:29:19Z</time>
      </trkpt>
      <trkpt lat="43.40031" lon="6.65715">
        <ele>132.6</ele>
        <time>2022-10-09T10:29:20Z</time>
      </trkpt>
      <trkpt lat="43.40031" lon="6.65713">
        <ele>132.7</ele>
        <time>2022-10-09T10:29:21Z</time>
      </trkpt>
      <trkpt lat="43.40031" lon="6.65711">
        <ele>132.9</ele>
        <time>2022-10-09T10:29:22Z</time>
      </trkpt>
      <trkpt lat="43.40032" lon="6.65708">
        <ele>133</ele>
        <time>2022-10-09T10:29:23Z</time>
      </trkpt>
      <trkpt lat="43.40032" lon="6.65706">
        <ele>133.2</ele>
        <time>2022-10-09T10:29:24Z</time>
      </trkpt>
      <trkpt lat="43.40033" lon="6.65704">
        <ele>133.3</ele>
        <time>2022-10-09T10:29:25Z</time>
      </trkpt>
      <trkpt lat="43.40033" lon="6.65702">
        <ele>133.5</ele>
        <time>2022-10-09T10:29:26Z</time>
      </trkpt>
      <trkpt lat="43.40034" lon="6.657">
        <ele>133.6</ele>
        <time>2022-10-09T10:29:27Z</time>
      </trkpt>
      <trkpt lat="43.40034" lon="6.65698">
        <ele>133.7</ele>
        <time>2022-10-09T10:29:28Z</time>
      </trkpt>
      <trkpt lat="43.40034" lon="6.65696">
        <ele>133.8</ele>
        <time>2022-10-09T10:29:29Z</time>
      </trkpt>
      <trkpt lat="43.40034" lon="6.65694">
        <ele>134</ele>
        <time>2022-10-09T10:29:30Z</time>
      </trkpt>
      <trkpt lat="43.40035" lon="6.65691">
        <ele>134.2</ele>
        <time>2022-10-09T10:29:31Z</time>
      </trkpt>
      <trkpt lat="43.40035" lon="6.65689">
        <ele>134.3</ele>
        <time>2022-10-09T10:29:32Z</time>
      </trkpt>
      <trkpt lat="43.40036" lon="6.65687">
        <ele>134.4</ele>
        <time>2022-10-09T10:29:33Z</time>
      </trkpt>
      <trkpt lat="43.40036" lon="6.65684">
        <ele>134.6</ele>
        <time>2022-10-09T10:29:34Z</time>
      </trkpt>
      <trkpt lat="43.40036" lon="6.65682">
        <ele>134.7</ele>
        <time>2022-10-09T10:29:35Z</time>
      </trkpt>
      <trkpt lat="43.40036" lon="6.6568">
        <ele>134.9</ele>
        <time>2022-10-09T10:29:36Z</time>
      </trkpt>
      <trkpt lat="43.40037" lon="6.65677">
        <ele>135</ele>
        <time>2022-10-09T10:29:37Z</time>
      </trkpt>
      <trkpt lat="43.40037" lon="6.65675">
        <ele>135.2</ele>
        <time>2022-10-09T10:29:38Z</time>
      </trkpt>
      <trkpt lat="43.40038" lon="6.65673">
        <ele>135.3</ele>
        <time>2022-10-09T10:29:39Z</time>
      </trkpt>
      <trkpt lat="43.40038" lon="6.65671">
        <ele>135.4</ele>
        <time>2022-10-09T10:29:40Z</time>
      </trkpt>
      <trkpt lat="43.40038" lon="6.65669">
        <ele>135.5</ele>
        <time>2022-10-09T10:29:41Z</time>
      </trkpt>
      <trkpt lat="43.40038" lon="6.65667">
        <ele>135.7</ele>
        <time>2022-10-09T10:29:42Z</time>
      </trkpt>
      <trkpt lat="43.40038" lon="6.65664">
        <ele>135.8</ele>
        <time>2022-10-09T10:29:43Z</time>
      </trkpt>
      <trkpt lat="43.40038" lon="6.65662">
        <ele>136</ele>
        <time>2022-10-09T10:29:44Z</time>
      </trkpt>
      <trkpt lat="43.40038" lon="6.6566">
        <ele>136.1</ele>
        <time>2022-10-09T10:29:45Z</time>
      </trkpt>
      <trkpt lat="43.40037" lon="6.65658">
        <ele>136.3</ele>
        <time>2022-10-09T10:29:46Z</time>
      </trkpt>
      <trkpt lat="43.40037" lon="6.65656">
        <ele>136.4</ele>
        <time>2022-10-09T10:29:47Z</time>
      </trkpt>
      <trkpt lat="43.40037" lon="6.65654">
        <ele>136.6</ele>
        <time>2022-10-09T10:29:48Z</time>
      </trkpt>
      <trkpt lat="43.40036" lon="6.65653">
        <ele>136.7</ele>
        <time>2022-10-09T10:29:49Z</time>
      </trkpt>
      <trkpt lat="43.40036" lon="6.65651">
        <ele>136.8</ele>
        <time>2022-10-09T10:29:50Z</time>
      </trkpt>
      <trkpt lat="43.40036" lon="6.65649">
        <ele>137</ele>
        <time>2022-10-09T10:29:51Z</time>
      </trkpt>
      <trkpt lat="43.40036" lon="6.65647">
        <ele>137.1</ele>
        <time>2022-10-09T10:29:52Z</time>
      </trkpt>
      <trkpt lat="43.40036" lon="6.65645">
        <ele>137.2</ele>
        <time>2022-10-09T10:29:53Z</time>
      </trkpt>
      <trkpt lat="43.40036" lon="6.65643">
        <ele>137.4</ele>
        <time>2022-10-09T10:29:54Z</time>
      </trkpt>
      <trkpt lat="43.40036" lon="6.65641">
        <ele>137.5</ele>
        <time>2022-10-09T10:29:55Z</time>
      </trkpt>
      <trkpt lat="43.40035" lon="6.65639">
        <ele>137.6</ele>
        <time>2022-10-09T10:29:56Z</time>
      </trkpt>
      <trkpt lat="43.40035" lon="6.65637">
        <ele>137.8</ele>
        <time>2022-10-09T10:29:57Z</time>
      </trkpt>
      <trkpt lat="43.40034" lon="6.65636">
        <ele>137.9</ele>
        <time>2022-10-09T10:29:58Z</time>
      </trkpt>
      <trkpt lat="43.40034" lon="6.65634">
        <ele>138</ele>
        <time>2022-10-09T10:29:59Z</time>
      </trkpt>
      <trkpt lat="43.40034" lon="6.65632">
        <ele>138.2</ele>
        <time>2022-10-09T10:30:00Z</time>
      </trkpt>
      <trkpt lat="43.40034" lon="6.65631">
        <ele>138.3</ele>
        <time>2022-10-09T10:30:01Z</time>
      </trkpt>
      <trkpt lat="43.40034" lon="6.65629">
        <ele>138.4</ele>
        <time>2022-10-09T10:30:02Z</time>
      </trkpt>
      <trkpt lat="43.40033" lon="6.65627">
        <ele>138.5</ele>
        <time>2022-10-09T10:30:03Z</time>
      </trkpt>
      <trkpt lat="43.40033" lon="6.65626">
        <ele>138.6</ele>
        <time>2022-10-09T10:30:04Z</time>
      </trkpt>
      <trkpt lat="43.40032" lon="6.65624">
        <ele>138.8</ele>
        <time>2022-10-09T10:30:05Z</time>
      </trkpt>
      <trkpt lat="43.40031" lon="6.65623">
        <ele>138.9</ele>
        <time>2022-10-09T10:30:06Z</time>
      </trkpt>
      <trkpt lat="43.40031" lon="6.65621">
        <ele>139</ele>
        <time>2022-10-09T10:30:07Z</time>
      </trkpt>
      <trkpt lat="43.40031" lon="6.65619">
        <ele>139.2</ele>
        <time>2022-10-09T10:30:08Z</time>
      </trkpt>
      <trkpt lat="43.4003" lon="6.65617">
        <ele>139.4</ele>
        <time>2022-10-09T10:30:09Z</time>
      </trkpt>
      <trkpt lat="43.4003" lon="6.65614">
        <ele>139.5</ele>
        <time>2022-10-09T10:30:10Z</time>
      </trkpt>
      <trkpt lat="43.4003" lon="6.65612">
        <ele>139.7</ele>
        <time>2022-10-09T10:30:11Z</time>
      </trkpt>
      <trkpt lat="43.40029" lon="6.6561">
        <ele>139.8</ele>
        <time>2022-10-09T10:30:12Z</time>
      </trkpt>
      <trkpt lat="43.40029" lon="6.65608">
        <ele>140</ele>
        <time>2022-10-09T10:30:13Z</time>
      </trkpt>
      <trkpt lat="43.40029" lon="6.65606">
        <ele>140.1</ele>
        <time>2022-10-09T10:30:14Z</time>
      </trkpt>
      <trkpt lat="43.40029" lon="6.65604">
        <ele>140.2</ele>
        <time>2022-10-09T10:30:15Z</time>
      </trkpt>
      <trkpt lat="43.40028" lon="6.65603">
        <ele>140.4</ele>
        <time>2022-10-09T10:30:16Z</time>
      </trkpt>
      <trkpt lat="43.40028" lon="6.65601">
        <ele>140.5</ele>
        <time>2022-10-09T10:30:17Z</time>
      </trkpt>
      <trkpt lat="43.40027" lon="6.65599">
        <ele>140.6</ele>
        <time>2022-10-09T10:30:18Z</time>
      </trkpt>
      <trkpt lat="43.40027" lon="6.65597">
        <ele>140.7</ele>
        <time>2022-10-09T10:30:19Z</time>
      </trkpt>
      <trkpt lat="43.40026" lon="6.65596">
        <ele>140.9</ele>
        <time>2022-10-09T10:30:20Z</time>
      </trkpt>
      <trkpt lat="43.40026" lon="6.65594">
        <ele>141</ele>
        <time>2022-10-09T10:30:21Z</time>
      </trkpt>
      <trkpt lat="43.40026" lon="6.65592">
        <ele>141.2</ele>
        <time>2022-10-09T10:30:22Z</time>
      </trkpt>
      <trkpt lat="43.40025" lon="6.6559">
        <ele>141.3</ele>
        <time>2022-10-09T10:30:23Z</time>
      </trkpt>
      <trkpt lat="43.40025" lon="6.65588">
        <ele>141.5</ele>
        <time>2022-10-09T10:30:24Z</time>
      </trkpt>
      <trkpt lat="43.40025" lon="6.65586">
        <ele>141.6</ele>
        <time>2022-10-09T10:30:25Z</time>
      </trkpt>
      <trkpt lat="43.40025" lon="6.65584">
        <ele>141.7</ele>
        <time>2022-10-09T10:30:26Z</time>
      </trkpt>
      <trkpt lat="43.40025" lon="6.65582">
        <ele>141.9</ele>
        <time>2022-10-09T10:30:27Z</time>
      </trkpt>
      <trkpt lat="43.40024" lon="6.6558">
        <ele>142</ele>
        <time>2022-10-09T10:30:28Z</time>
      </trkpt>
      <trkpt lat="43.40024" lon="6.65578">
        <ele>142.2</ele>
        <time>2022-10-09T10:30:29Z</time>
      </trkpt>
      <trkpt lat="43.40024" lon="6.65576">
        <ele>142.4</ele>
        <time>2022-10-09T10:30:30Z</time>
      </trkpt>
      <trkpt lat="43.40024" lon="6.65574">
        <ele>142.5</ele>
        <time>2022-10-09T10:30:31Z</time>
      </trkpt>
      <trkpt lat="43.40023" lon="6.65572">
        <ele>142.7</ele>
        <time>2022-10-09T10:30:32Z</time>
      </trkpt>
      <trkpt lat="43.40023" lon="6.6557">
        <ele>142.9</ele>
        <time>2022-10-09T10:30:33Z</time>
      </trkpt>
      <trkpt lat="43.40023" lon="6.65568">
        <ele>143</ele>
        <time>2022-10-09T10:30:34Z</time>
      </trkpt>
      <trkpt lat="43.40022" lon="6.65567">
        <ele>143.2</ele>
        <time>2022-10-09T10:30:35Z</time>
      </trkpt>
      <trkpt lat="43.40022" lon="6.65565">
        <ele>143.4</ele>
        <time>2022-10-09T10:30:36Z</time>
      </trkpt>
      <trkpt lat="43.40021" lon="6.65563">
        <ele>143.6</ele>
        <time>2022-10-09T10:30:37Z</time>
      </trkpt>
      <trkpt lat="43.40021" lon="6.65561">
        <ele>143.8</ele>
        <time>2022-10-09T10:30:38Z</time>
      </trkpt>
      <trkpt lat="43.4002" lon="6.6556">
        <ele>144</ele>
        <time>2022-10-09T10:30:39Z</time>
      </trkpt>
      <trkpt lat="43.4002" lon="6.65558">
        <ele>144.1</ele>
        <time>2022-10-09T10:30:40Z</time>
      </trkpt>
      <trkpt lat="43.40019" lon="6.65556">
        <ele>144.3</ele>
        <time>2022-10-09T10:30:41Z</time>
      </trkpt>
      <trkpt lat="43.40019" lon="6.65555">
        <ele>144.4</ele>
        <time>2022-10-09T10:30:42Z</time>
      </trkpt>
      <trkpt lat="43.40018" lon="6.65553">
        <ele>144.6</ele>
        <time>2022-10-09T10:30:43Z</time>
      </trkpt>
      <trkpt lat="43.40017" lon="6.65552">
        <ele>144.8</ele>
        <time>2022-10-09T10:30:44Z</time>
      </trkpt>
      <trkpt lat="43.40017" lon="6.6555">
        <ele>145</ele>
        <time>2022-10-09T10:30:45Z</time>
      </trkpt>
      <trkpt lat="43.40016" lon="6.65548">
        <ele>145.2</ele>
        <time>2022-10-09T10:30:46Z</time>
      </trkpt>
      <trkpt lat="43.40015" lon="6.65547">
        <ele>145.3</ele>
        <time>2022-10-09T10:30:47Z</time>
      </trkpt>
      <trkpt lat="43.40014" lon="6.65546">
        <ele>145.5</ele>
        <time>2022-10-09T10:30:48Z</time>
      </trkpt>
      <trkpt lat="43.40014" lon="6.65544">
        <ele>145.7</ele>
        <time>2022-10-09T10:30:49Z</time>
      </trkpt>
      <trkpt lat="43.40013" lon="6.65542">
        <ele>145.8</ele>
        <time>2022-10-09T10:30:50Z</time>
      </trkpt>
      <trkpt lat="43.40013" lon="6.6554">
        <ele>146</ele>
        <time>2022-10-09T10:30:51Z</time>
      </trkpt>
      <trkpt lat="43.40012" lon="6.65538">
        <ele>146.2</ele>
        <time>2022-10-09T10:30:52Z</time>
      </trkpt>
      <trkpt lat="43.40011" lon="6.65537">
        <ele>146.3</ele>
        <time>2022-10-09T10:30:53Z</time>
      </trkpt>
      <trkpt lat="43.40011" lon="6.65535">
        <ele>146.5</ele>
        <time>2022-10-09T10:30:54Z</time>
      </trkpt>
      <trkpt lat="43.4001" lon="6.65533">
        <ele>146.6</ele>
        <time>2022-10-09T10:30:55Z</time>
      </trkpt>
      <trkpt lat="43.40009" lon="6.65531">
        <ele>146.8</ele>
        <time>2022-10-09T10:30:56Z</time>
      </trkpt>
      <trkpt lat="43.40008" lon="6.6553">
        <ele>146.9</ele>
        <time>2022-10-09T10:30:57Z</time>
      </trkpt>
      <trkpt lat="43.40007" lon="6.65528">
        <ele>147.1</ele>
        <time>2022-10-09T10:30:58Z</time>
      </trkpt>
      <trkpt lat="43.40006" lon="6.65526">
        <ele>147.3</ele>
        <time>2022-10-09T10:30:59Z</time>
      </trkpt>
      <trkpt lat="43.40005" lon="6.65524">
        <ele>147.4</ele>
        <time>2022-10-09T10:31:00Z</time>
      </trkpt>
      <trkpt lat="43.40004" lon="6.65522">
        <ele>147.6</ele>
        <time>2022-10-09T10:31:01Z</time>
      </trkpt>
      <trkpt lat="43.40002" lon="6.6552">
        <ele>147.7</ele>
        <time>2022-10-09T10:31:02Z</time>
      </trkpt>
      <trkpt lat="43.40001" lon="6.65519">
        <ele>147.9</ele>
        <time>2022-10-09T10:31:03Z</time>
      </trkpt>
      <trkpt lat="43.4" lon="6.65517">
        <ele>148</ele>
        <time>2022-10-09T10:31:04Z</time>
      </trkpt>
      <trkpt lat="43.39998" lon="6.65515">
        <ele>148.1</ele>
        <time>2022-10-09T10:31:05Z</time>
      </trkpt>
      <trkpt lat="43.39997" lon="6.65514">
        <ele>148.3</ele>
        <time>2022-10-09T10:31:06Z</time>
      </trkpt>
      <trkpt lat="43.39996" lon="6.65512">
        <ele>148.4</ele>
        <time>2022-10-09T10:31:07Z</time>
      </trkpt>
      <trkpt lat="43.39995" lon="6.65511">
        <ele>148.5</ele>
        <time>2022-10-09T10:31:08Z</time>
      </trkpt>
      <trkpt lat="43.39993" lon="6.6551">
        <ele>148.6</ele>
        <time>2022-10-09T10:31:09Z</time>
      </trkpt>
      <trkpt lat="43.39992" lon="6.65508">
        <ele>148.7</ele>
        <time>2022-10-09T10:31:10Z</time>
      </trkpt>
      <trkpt lat="43.3999" lon="6.65507">
        <ele>148.9</ele>
        <time>2022-10-09T10:31:11Z</time>
      </trkpt>
      <trkpt lat="43.39989" lon="6.65506">
        <ele>149</ele>
        <time>2022-10-09T10:31:12Z</time>
      </trkpt>
      <trkpt lat="43.39987" lon="6.65505">
        <ele>149.1</ele>
        <time>2022-10-09T10:31:13Z</time>
      </trkpt>
      <trkpt lat="43.39986" lon="6.65504">
        <ele>149.2</ele>
        <time>2022-10-09T10:31:14Z</time>
      </trkpt>
      <trkpt lat="43.39985" lon="6.65503">
        <ele>149.3</ele>
        <time>2022-10-09T10:31:15Z</time>
      </trkpt>
      <trkpt lat="43.39983" lon="6.65502">
        <ele>149.4</ele>
        <time>2022-10-09T10:31:16Z</time>
      </trkpt>
      <trkpt lat="43.39982" lon="6.65501">
        <ele>149.5</ele>
        <time>2022-10-09T10:31:17Z</time>
      </trkpt>
      <trkpt lat="43.39981" lon="6.655">
        <ele>149.6</ele>
        <time>2022-10-09T10:31:18Z</time>
      </trkpt>
      <trkpt lat="43.39979" lon="6.65499">
        <ele>149.7</ele>
        <time>2022-10-09T10:31:19Z</time>
      </trkpt>
      <trkpt lat="43.39978" lon="6.65498">
        <ele>149.8</ele>
        <time>2022-10-09T10:31:20Z</time>
      </trkpt>
      <trkpt lat="43.39977" lon="6.65497">
        <ele>149.9</ele>
        <time>2022-10-09T10:31:21Z</time>
      </trkpt>
      <trkpt lat="43.39975" lon="6.65496">
        <ele>150</ele>
        <time>2022-10-09T10:31:22Z</time>
      </trkpt>
      <trkpt lat="43.39974" lon="6.65495">
        <ele>150.1</ele>
        <time>2022-10-09T10:31:23Z</time>
      </trkpt>
      <trkpt lat="43.39973" lon="6.65494">
        <ele>150.2</ele>
        <time>2022-10-09T10:31:24Z</time>
      </trkpt>
      <trkpt lat="43.39971" lon="6.65494">
        <ele>150.3</ele>
        <time>2022-10-09T10:31:25Z</time>
      </trkpt>
      <trkpt lat="43.3997" lon="6.65493">
        <ele>150.4</ele>
        <time>2022-10-09T10:31:26Z</time>
      </trkpt>
      <trkpt lat="43.39969" lon="6.65492">
        <ele>150.5</ele>
        <time>2022-10-09T10:31:27Z</time>
      </trkpt>
      <trkpt lat="43.39967" lon="6.65492">
        <ele>150.6</ele>
        <time>2022-10-09T10:31:28Z</time>
      </trkpt>
      <trkpt lat="43.39966" lon="6.65491">
        <ele>150.7</ele>
        <time>2022-10-09T10:31:29Z</time>
      </trkpt>
      <trkpt lat="43.39965" lon="6.65491">
        <ele>150.8</ele>
        <time>2022-10-09T10:31:30Z</time>
      </trkpt>
      <trkpt lat="43.39963" lon="6.6549">
        <ele>150.9</ele>
        <time>2022-10-09T10:31:31Z</time>
      </trkpt>
      <trkpt lat="43.39962" lon="6.65489">
        <ele>151</ele>
        <time>2022-10-09T10:31:32Z</time>
      </trkpt>
      <trkpt lat="43.3996" lon="6.65489">
        <ele>151.1</ele>
        <time>2022-10-09T10:31:33Z</time>
      </trkpt>
      <trkpt lat="43.39959" lon="6.65488">
        <ele>151.2</ele>
        <time>2022-10-09T10:31:34Z</time>
      </trkpt>
      <trkpt lat="43.39958" lon="6.65487">
        <ele>151.3</ele>
        <time>2022-10-09T10:31:35Z</time>
      </trkpt>
      <trkpt lat="43.39956" lon="6.65486">
        <ele>151.4</ele>
        <time>2022-10-09T10:31:36Z</time>
      </trkpt>
      <trkpt lat="43.39955" lon="6.65485">
        <ele>151.5</ele>
        <time>2022-10-09T10:31:37Z</time>
      </trkpt>
      <trkpt lat="43.39954" lon="6.65485">
        <ele>151.6</ele>
        <time>2022-10-09T10:31:38Z</time>
      </trkpt>
      <trkpt lat="43.39953" lon="6.65484">
        <ele>151.7</ele>
        <time>2022-10-09T10:31:39Z</time>
      </trkpt>
      <trkpt lat="43.39951" lon="6.65484">
        <ele>151.8</ele>
        <time>2022-10-09T10:31:40Z</time>
      </trkpt>
      <trkpt lat="43.3995" lon="6.65484">
        <ele>151.9</ele>
        <time>2022-10-09T10:31:41Z</time>
      </trkpt>
      <trkpt lat="43.39948" lon="6.65484">
        <ele>152</ele>
        <time>2022-10-09T10:31:42Z</time>
      </trkpt>
      <trkpt lat="43.39947" lon="6.65483">
        <ele>152.1</ele>
        <time>2022-10-09T10:31:43Z</time>
      </trkpt>
      <trkpt lat="43.39946" lon="6.65482">
        <ele>152.3</ele>
        <time>2022-10-09T10:31:44Z</time>
      </trkpt>
      <trkpt lat="43.39944" lon="6.65482">
        <ele>152.4</ele>
        <time>2022-10-09T10:31:45Z</time>
      </trkpt>
      <trkpt lat="43.39943" lon="6.65481">
        <ele>152.5</ele>
        <time>2022-10-09T10:31:46Z</time>
      </trkpt>
      <trkpt lat="43.39942" lon="6.65481">
        <ele>152.6</ele>
        <time>2022-10-09T10:31:47Z</time>
      </trkpt>
      <trkpt lat="43.39941" lon="6.65481">
        <ele>152.7</ele>
        <time>2022-10-09T10:31:48Z</time>
      </trkpt>
      <trkpt lat="43.39939" lon="6.6548">
        <ele>152.8</ele>
        <time>2022-10-09T10:31:49Z</time>
      </trkpt>
      <trkpt lat="43.39938" lon="6.6548">
        <ele>152.9</ele>
        <time>2022-10-09T10:31:50Z</time>
      </trkpt>
      <trkpt lat="43.39937" lon="6.65479">
        <ele>153.1</ele>
        <time>2022-10-09T10:31:51Z</time>
      </trkpt>
      <trkpt lat="43.39935" lon="6.65479">
        <ele>153.2</ele>
        <time>2022-10-09T10:31:52Z</time>
      </trkpt>
      <trkpt lat="43.39934" lon="6.65478">
        <ele>153.3</ele>
        <time>2022-10-09T10:31:53Z</time>
      </trkpt>
      <trkpt lat="43.39933" lon="6.65477">
        <ele>153.5</ele>
        <time>2022-10-09T10:31:54Z</time>
      </trkpt>
      <trkpt lat="43.39931" lon="6.65476">
        <ele>153.6</ele>
        <time>2022-10-09T10:31:55Z</time>
      </trkpt>
      <trkpt lat="43.3993" lon="6.65475">
        <ele>153.7</ele>
        <time>2022-10-09T10:31:56Z</time>
      </trkpt>
      <trkpt lat="43.39928" lon="6.65475">
        <ele>153.9</ele>
        <time>2022-10-09T10:31:57Z</time>
      </trkpt>
      <trkpt lat="43.39927" lon="6.65474">
        <ele>154</ele>
        <time>2022-10-09T10:31:58Z</time>
      </trkpt>
      <trkpt lat="43.39926" lon="6.65473">
        <ele>154.2</ele>
        <time>2022-10-09T10:31:59Z</time>
      </trkpt>
      <trkpt lat="43.39925" lon="6.65472">
        <ele>154.3</ele>
        <time>2022-10-09T10:32:00Z</time>
      </trkpt>
      <trkpt lat="43.39923" lon="6.65471">
        <ele>154.4</ele>
        <time>2022-10-09T10:32:01Z</time>
      </trkpt>
      <trkpt lat="43.39922" lon="6.6547">
        <ele>154.5</ele>
        <time>2022-10-09T10:32:02Z</time>
      </trkpt>
      <trkpt lat="43.39921" lon="6.6547">
        <ele>154.6</ele>
        <time>2022-10-09T10:32:03Z</time>
      </trkpt>
      <trkpt lat="43.3992" lon="6.65469">
        <ele>154.8</ele>
        <time>2022-10-09T10:32:04Z</time>
      </trkpt>
      <trkpt lat="43.39918" lon="6.65468">
        <ele>154.9</ele>
        <time>2022-10-09T10:32:05Z</time>
      </trkpt>
      <trkpt lat="43.39917" lon="6.65467">
        <ele>155.1</ele>
        <time>2022-10-09T10:32:06Z</time>
      </trkpt>
      <trkpt lat="43.39915" lon="6.65465">
        <ele>155.2</ele>
        <time>2022-10-09T10:32:07Z</time>
      </trkpt>
      <trkpt lat="43.39914" lon="6.65464">
        <ele>155.3</ele>
        <time>2022-10-09T10:32:08Z</time>
      </trkpt>
      <trkpt lat="43.39913" lon="6.65463">
        <ele>155.5</ele>
        <time>2022-10-09T10:32:09Z</time>
      </trkpt>
      <trkpt lat="43.39912" lon="6.65462">
        <ele>155.6</ele>
        <time>2022-10-09T10:32:10Z</time>
      </trkpt>
      <trkpt lat="43.3991" lon="6.6546">
        <ele>155.7</ele>
        <time>2022-10-09T10:32:11Z</time>
      </trkpt>
      <trkpt lat="43.39909" lon="6.65459">
        <ele>155.9</ele>
        <time>2022-10-09T10:32:12Z</time>
      </trkpt>
      <trkpt lat="43.39908" lon="6.65457">
        <ele>156</ele>
        <time>2022-10-09T10:32:13Z</time>
      </trkpt>
      <trkpt lat="43.39906" lon="6.65456">
        <ele>156.2</ele>
        <time>2022-10-09T10:32:14Z</time>
      </trkpt>
      <trkpt lat="43.39905" lon="6.65454">
        <ele>156.3</ele>
        <time>2022-10-09T10:32:15Z</time>
      </trkpt>
      <trkpt lat="43.39904" lon="6.65453">
        <ele>156.4</ele>
        <time>2022-10-09T10:32:16Z</time>
      </trkpt>
      <trkpt lat="43.39903" lon="6.65451">
        <ele>156.6</ele>
        <time>2022-10-09T10:32:17Z</time>
      </trkpt>
      <trkpt lat="43.39902" lon="6.65449">
        <ele>156.7</ele>
        <time>2022-10-09T10:32:18Z</time>
      </trkpt>
      <trkpt lat="43.39901" lon="6.65447">
        <ele>156.9</ele>
        <time>2022-10-09T10:32:19Z</time>
      </trkpt>
      <trkpt lat="43.399" lon="6.65444">
        <ele>157</ele>
        <time>2022-10-09T10:32:20Z</time>
      </trkpt>
      <trkpt lat="43.39899" lon="6.65442">
        <ele>157.2</ele>
        <time>2022-10-09T10:32:21Z</time>
      </trkpt>
      <trkpt lat="43.39898" lon="6.6544">
        <ele>157.3</ele>
        <time>2022-10-09T10:32:22Z</time>
      </trkpt>
      <trkpt lat="43.39898" lon="6.65438">
        <ele>157.5</ele>
        <time>2022-10-09T10:32:23Z</time>
      </trkpt>
      <trkpt lat="43.39897" lon="6.65436">
        <ele>157.6</ele>
        <time>2022-10-09T10:32:24Z</time>
      </trkpt>
      <trkpt lat="43.39896" lon="6.65434">
        <ele>157.7</ele>
        <time>2022-10-09T10:32:25Z</time>
      </trkpt>
      <trkpt lat="43.39896" lon="6.65431">
        <ele>157.9</ele>
        <time>2022-10-09T10:32:26Z</time>
      </trkpt>
      <trkpt lat="43.39896" lon="6.65429">
        <ele>158</ele>
        <time>2022-10-09T10:32:27Z</time>
      </trkpt>
      <trkpt lat="43.39895" lon="6.65427">
        <ele>158.1</ele>
        <time>2022-10-09T10:32:28Z</time>
      </trkpt>
      <trkpt lat="43.39895" lon="6.65424">
        <ele>158.3</ele>
        <time>2022-10-09T10:32:29Z</time>
      </trkpt>
      <trkpt lat="43.39894" lon="6.65422">
        <ele>158.4</ele>
        <time>2022-10-09T10:32:30Z</time>
      </trkpt>
      <trkpt lat="43.39894" lon="6.65419">
        <ele>158.5</ele>
        <time>2022-10-09T10:32:31Z</time>
      </trkpt>
      <trkpt lat="43.39894" lon="6.65417">
        <ele>158.6</ele>
        <time>2022-10-09T10:32:32Z</time>
      </trkpt>
      <trkpt lat="43.39894" lon="6.65415">
        <ele>158.8</ele>
        <time>2022-10-09T10:32:33Z</time>
      </trkpt>
      <trkpt lat="43.39894" lon="6.65412">
        <ele>158.9</ele>
        <time>2022-10-09T10:32:34Z</time>
      </trkpt>
      <trkpt lat="43.39894" lon="6.6541">
        <ele>159</ele>
        <time>2022-10-09T10:32:35Z</time>
      </trkpt>
      <trkpt lat="43.39894" lon="6.65407">
        <ele>159.1</ele>
        <time>2022-10-09T10:32:36Z</time>
      </trkpt>
      <trkpt lat="43.39893" lon="6.65405">
        <ele>159.2</ele>
        <time>2022-10-09T10:32:37Z</time>
      </trkpt>
      <trkpt lat="43.39893" lon="6.65402">
        <ele>159.3</ele>
        <time>2022-10-09T10:32:38Z</time>
      </trkpt>
      <trkpt lat="43.39893" lon="6.65399">
        <ele>159.5</ele>
        <time>2022-10-09T10:32:39Z</time>
      </trkpt>
      <trkpt lat="43.39893" lon="6.65396">
        <ele>159.6</ele>
        <time>2022-10-09T10:32:40Z</time>
      </trkpt>
      <trkpt lat="43.39892" lon="6.65393">
        <ele>159.7</ele>
        <time>2022-10-09T10:32:41Z</time>
      </trkpt>
      <trkpt lat="43.39892" lon="6.65391">
        <ele>159.9</ele>
        <time>2022-10-09T10:32:42Z</time>
      </trkpt>
      <trkpt lat="43.39891" lon="6.65389">
        <ele>160</ele>
        <time>2022-10-09T10:32:43Z</time>
      </trkpt>
      <trkpt lat="43.3989" lon="6.65387">
        <ele>160.1</ele>
        <time>2022-10-09T10:32:44Z</time>
      </trkpt>
      <trkpt lat="43.39889" lon="6.65385">
        <ele>160.2</ele>
        <time>2022-10-09T10:32:45Z</time>
      </trkpt>
      <trkpt lat="43.39889" lon="6.65383">
        <ele>160.3</ele>
        <time>2022-10-09T10:32:46Z</time>
      </trkpt>
      <trkpt lat="43.39888" lon="6.65381">
        <ele>160.4</ele>
        <time>2022-10-09T10:32:47Z</time>
      </trkpt>
      <trkpt lat="43.39887" lon="6.65379">
        <ele>160.5</ele>
        <time>2022-10-09T10:32:48Z</time>
      </trkpt>
      <trkpt lat="43.39886" lon="6.65377">
        <ele>160.6</ele>
        <time>2022-10-09T10:32:49Z</time>
      </trkpt>
      <trkpt lat="43.39886" lon="6.65375">
        <ele>160.8</ele>
        <time>2022-10-09T10:32:50Z</time>
      </trkpt>
      <trkpt lat="43.39885" lon="6.65372">
        <ele>160.9</ele>
        <time>2022-10-09T10:32:51Z</time>
      </trkpt>
      <trkpt lat="43.39885" lon="6.6537">
        <ele>161</ele>
        <time>2022-10-09T10:32:52Z</time>
      </trkpt>
      <trkpt lat="43.39884" lon="6.65367">
        <ele>161.2</ele>
        <time>2022-10-09T10:32:53Z</time>
      </trkpt>
      <trkpt lat="43.39883" lon="6.65364">
        <ele>161.3</ele>
        <time>2022-10-09T10:32:54Z</time>
      </trkpt>
      <trkpt lat="43.39883" lon="6.65361">
        <ele>161.5</ele>
        <time>2022-10-09T10:32:55Z</time>
      </trkpt>
      <trkpt lat="43.39882" lon="6.65357">
        <ele>161.7</ele>
        <time>2022-10-09T10:32:56Z</time>
      </trkpt>
      <trkpt lat="43.3988" lon="6.65354">
        <ele>161.8</ele>
        <time>2022-10-09T10:32:57Z</time>
      </trkpt>
      <trkpt lat="43.39879" lon="6.65352">
        <ele>162</ele>
        <time>2022-10-09T10:32:58Z</time>
      </trkpt>
      <trkpt lat="43.39877" lon="6.65351">
        <ele>162.1</ele>
        <time>2022-10-09T10:32:59Z</time>
      </trkpt>
      <trkpt lat="43.39875" lon="6.6535">
        <ele>162.2</ele>
        <time>2022-10-09T10:33:00Z</time>
      </trkpt>
      <trkpt lat="43.39874" lon="6.65349">
        <ele>162.4</ele>
        <time>2022-10-09T10:33:01Z</time>
      </trkpt>
      <trkpt lat="43.39872" lon="6.65348">
        <ele>162.5</ele>
        <time>2022-10-09T10:33:02Z</time>
      </trkpt>
      <trkpt lat="43.3987" lon="6.65347">
        <ele>162.7</ele>
        <time>2022-10-09T10:33:03Z</time>
      </trkpt>
      <trkpt lat="43.39869" lon="6.65347">
        <ele>162.8</ele>
        <time>2022-10-09T10:33:04Z</time>
      </trkpt>
      <trkpt lat="43.39867" lon="6.65347">
        <ele>162.9</ele>
        <time>2022-10-09T10:33:05Z</time>
      </trkpt>
      <trkpt lat="43.39865" lon="6.65347">
        <ele>163.1</ele>
        <time>2022-10-09T10:33:06Z</time>
      </trkpt>
      <trkpt lat="43.39863" lon="6.65347">
        <ele>163.3</ele>
        <time>2022-10-09T10:33:07Z</time>
      </trkpt>
      <trkpt lat="43.39861" lon="6.65347">
        <ele>163.4</ele>
        <time>2022-10-09T10:33:08Z</time>
      </trkpt>
      <trkpt lat="43.3986" lon="6.65346">
        <ele>163.6</ele>
        <time>2022-10-09T10:33:09Z</time>
      </trkpt>
      <trkpt lat="43.39858" lon="6.65345">
        <ele>163.7</ele>
        <time>2022-10-09T10:33:10Z</time>
      </trkpt>
      <trkpt lat="43.39856" lon="6.65345">
        <ele>163.9</ele>
        <time>2022-10-09T10:33:11Z</time>
      </trkpt>
      <trkpt lat="43.39854" lon="6.65344">
        <ele>164</ele>
        <time>2022-10-09T10:33:12Z</time>
      </trkpt>
      <trkpt lat="43.39853" lon="6.65343">
        <ele>164.2</ele>
        <time>2022-10-09T10:33:13Z</time>
      </trkpt>
      <trkpt lat="43.39851" lon="6.65342">
        <ele>164.3</ele>
        <time>2022-10-09T10:33:14Z</time>
      </trkpt>
      <trkpt lat="43.39849" lon="6.6534">
        <ele>164.5</ele>
        <time>2022-10-09T10:33:15Z</time>
      </trkpt>
      <trkpt lat="43.39848" lon="6.65339">
        <ele>164.6</ele>
        <time>2022-10-09T10:33:16Z</time>
      </trkpt>
      <trkpt lat="43.39846" lon="6.65338">
        <ele>164.8</ele>
        <time>2022-10-09T10:33:17Z</time>
      </trkpt>
      <trkpt lat="43.39845" lon="6.65337">
        <ele>164.9</ele>
        <time>2022-10-09T10:33:18Z</time>
      </trkpt>
      <trkpt lat="43.39843" lon="6.65336">
        <ele>165</ele>
        <time>2022-10-09T10:33:19Z</time>
      </trkpt>
      <trkpt lat="43.39841" lon="6.65335">
        <ele>165.2</ele>
        <time>2022-10-09T10:33:20Z</time>
      </trkpt>
      <trkpt lat="43.3984" lon="6.65334">
        <ele>165.3</ele>
        <time>2022-10-09T10:33:21Z</time>
      </trkpt>
      <trkpt lat="43.39838" lon="6.65332">
        <ele>165.4</ele>
        <time>2022-10-09T10:33:22Z</time>
      </trkpt>
      <trkpt lat="43.39837" lon="6.6533">
        <ele>165.6</ele>
        <time>2022-10-09T10:33:23Z</time>
      </trkpt>
      <trkpt lat="43.39836" lon="6.65329">
        <ele>165.7</ele>
        <time>2022-10-09T10:33:24Z</time>
      </trkpt>
      <trkpt lat="43.39835" lon="6.65327">
        <ele>165.8</ele>
        <time>2022-10-09T10:33:25Z</time>
      </trkpt>
      <trkpt lat="43.39833" lon="6.65325">
        <ele>165.9</ele>
        <time>2022-10-09T10:33:26Z</time>
      </trkpt>
      <trkpt lat="43.39832" lon="6.65323">
        <ele>166</ele>
        <time>2022-10-09T10:33:27Z</time>
      </trkpt>
      <trkpt lat="43.39831" lon="6.65321">
        <ele>166.2</ele>
        <time>2022-10-09T10:33:28Z</time>
      </trkpt>
      <trkpt lat="43.3983" lon="6.65319">
        <ele>166.3</ele>
        <time>2022-10-09T10:33:29Z</time>
      </trkpt>
      <trkpt lat="43.3983" lon="6.65317">
        <ele>166.4</ele>
        <time>2022-10-09T10:33:30Z</time>
      </trkpt>
      <trkpt lat="43.39829" lon="6.65315">
        <ele>166.5</ele>
        <time>2022-10-09T10:33:31Z</time>
      </trkpt>
      <trkpt lat="43.39828" lon="6.65313">
        <ele>166.6</ele>
        <time>2022-10-09T10:33:32Z</time>
      </trkpt>
      <trkpt lat="43.39827" lon="6.65311">
        <ele>166.7</ele>
        <time>2022-10-09T10:33:33Z</time>
      </trkpt>
      <trkpt lat="43.39826" lon="6.65309">
        <ele>166.8</ele>
        <time>2022-10-09T10:33:34Z</time>
      </trkpt>
      <trkpt lat="43.39826" lon="6.65307">
        <ele>166.9</ele>
        <time>2022-10-09T10:33:35Z</time>
      </trkpt>
      <trkpt lat="43.39825" lon="6.65304">
        <ele>167</ele>
        <time>2022-10-09T10:33:36Z</time>
      </trkpt>
      <trkpt lat="43.39824" lon="6.65302">
        <ele>167.2</ele>
        <time>2022-10-09T10:33:37Z</time>
      </trkpt>
      <trkpt lat="43.39823" lon="6.653">
        <ele>167.3</ele>
        <time>2022-10-09T10:33:38Z</time>
      </trkpt>
      <trkpt lat="43.39822" lon="6.65297">
        <ele>167.4</ele>
        <time>2022-10-09T10:33:39Z</time>
      </trkpt>
      <trkpt lat="43.3982" lon="6.65295">
        <ele>167.6</ele>
        <time>2022-10-09T10:33:40Z</time>
      </trkpt>
      <trkpt lat="43.39818" lon="6.65294">
        <ele>167.7</ele>
        <time>2022-10-09T10:33:41Z</time>
      </trkpt>
      <trkpt lat="43.39816" lon="6.65292">
        <ele>167.8</ele>
        <time>2022-10-09T10:33:42Z</time>
      </trkpt>
      <trkpt lat="43.39814" lon="6.65291">
        <ele>168</ele>
        <time>2022-10-09T10:33:43Z</time>
      </trkpt>
      <trkpt lat="43.39812" lon="6.65291">
        <ele>168.1</ele>
        <time>2022-10-09T10:33:44Z</time>
      </trkpt>
      <trkpt lat="43.3981" lon="6.6529">
        <ele>168.2</ele>
        <time>2022-10-09T10:33:45Z</time>
      </trkpt>
      <trkpt lat="43.39808" lon="6.6529">
        <ele>168.3</ele>
        <time>2022-10-09T10:33:46Z</time>
      </trkpt>
      <trkpt lat="43.39806" lon="6.6529">
        <ele>168.4</ele>
        <time>2022-10-09T10:33:47Z</time>
      </trkpt>
      <trkpt lat="43.39804" lon="6.65291">
        <ele>168.5</ele>
        <time>2022-10-09T10:33:48Z</time>
      </trkpt>
      <trkpt lat="43.39802" lon="6.65293">
        <ele>168.7</ele>
        <time>2022-10-09T10:33:49Z</time>
      </trkpt>
      <trkpt lat="43.398" lon="6.65294">
        <ele>168.8</ele>
        <time>2022-10-09T10:33:50Z</time>
      </trkpt>
      <trkpt lat="43.39798" lon="6.65296">
        <ele>168.9</ele>
        <time>2022-10-09T10:33:51Z</time>
      </trkpt>
      <trkpt lat="43.39797" lon="6.65298">
        <ele>169</ele>
        <time>2022-10-09T10:33:52Z</time>
      </trkpt>
      <trkpt lat="43.39796" lon="6.653">
        <ele>169.1</ele>
        <time>2022-10-09T10:33:53Z</time>
      </trkpt>
      <trkpt lat="43.39794" lon="6.65302">
        <ele>169.3</ele>
        <time>2022-10-09T10:33:54Z</time>
      </trkpt>
      <trkpt lat="43.39793" lon="6.65304">
        <ele>169.4</ele>
        <time>2022-10-09T10:33:55Z</time>
      </trkpt>
      <trkpt lat="43.39792" lon="6.65307">
        <ele>169.5</ele>
        <time>2022-10-09T10:33:56Z</time>
      </trkpt>
      <trkpt lat="43.39791" lon="6.65309">
        <ele>169.6</ele>
        <time>2022-10-09T10:33:57Z</time>
      </trkpt>
      <trkpt lat="43.39789" lon="6.65311">
        <ele>169.7</ele>
        <time>2022-10-09T10:33:58Z</time>
      </trkpt>
      <trkpt lat="43.39788" lon="6.65314">
        <ele>169.8</ele>
        <time>2022-10-09T10:33:59Z</time>
      </trkpt>
      <trkpt lat="43.39787" lon="6.65316">
        <ele>169.9</ele>
        <time>2022-10-09T10:34:00Z</time>
      </trkpt>
      <trkpt lat="43.39785" lon="6.65318">
        <ele>170</ele>
        <time>2022-10-09T10:34:01Z</time>
      </trkpt>
      <trkpt lat="43.39783" lon="6.6532">
        <ele>170.1</ele>
        <time>2022-10-09T10:34:02Z</time>
      </trkpt>
      <trkpt lat="43.39781" lon="6.65322">
        <ele>170.1</ele>
        <time>2022-10-09T10:34:03Z</time>
      </trkpt>
      <trkpt lat="43.39779" lon="6.65324">
        <ele>170.2</ele>
        <time>2022-10-09T10:34:04Z</time>
      </trkpt>
      <trkpt lat="43.39777" lon="6.65325">
        <ele>170.3</ele>
        <time>2022-10-09T10:34:05Z</time>
      </trkpt>
      <trkpt lat="43.39774" lon="6.65326">
        <ele>170.4</ele>
        <time>2022-10-09T10:34:06Z</time>
      </trkpt>
      <trkpt lat="43.39772" lon="6.65328">
        <ele>170.5</ele>
        <time>2022-10-09T10:34:07Z</time>
      </trkpt>
      <trkpt lat="43.39769" lon="6.65329">
        <ele>170.6</ele>
        <time>2022-10-09T10:34:08Z</time>
      </trkpt>
      <trkpt lat="43.39766" lon="6.6533">
        <ele>170.7</ele>
        <time>2022-10-09T10:34:09Z</time>
      </trkpt>
      <trkpt lat="43.39764" lon="6.65332">
        <ele>170.8</ele>
        <time>2022-10-09T10:34:10Z</time>
      </trkpt>
      <trkpt lat="43.39762" lon="6.65333">
        <ele>170.9</ele>
        <time>2022-10-09T10:34:11Z</time>
      </trkpt>
      <trkpt lat="43.3976" lon="6.65334">
        <ele>171</ele>
        <time>2022-10-09T10:34:12Z</time>
      </trkpt>
      <trkpt lat="43.39757" lon="6.65336">
        <ele>171.1</ele>
        <time>2022-10-09T10:34:13Z</time>
      </trkpt>
      <trkpt lat="43.39755" lon="6.65337">
        <ele>171.2</ele>
        <time>2022-10-09T10:34:14Z</time>
      </trkpt>
      <trkpt lat="43.39753" lon="6.65338">
        <ele>171.3</ele>
        <time>2022-10-09T10:34:15Z</time>
      </trkpt>
      <trkpt lat="43.39747" lon="6.65341">
        <ele>171.6</ele>
        <time>2022-10-09T10:34:18Z</time>
      </trkpt>
      <trkpt lat="43.39745" lon="6.65342">
        <ele>171.7</ele>
        <time>2022-10-09T10:34:19Z</time>
      </trkpt>
      <trkpt lat="43.39742" lon="6.65343">
        <ele>171.8</ele>
        <time>2022-10-09T10:34:20Z</time>
      </trkpt>
      <trkpt lat="43.3974" lon="6.65345">
        <ele>171.9</ele>
        <time>2022-10-09T10:34:21Z</time>
      </trkpt>
      <trkpt lat="43.39738" lon="6.65346">
        <ele>172.1</ele>
        <time>2022-10-09T10:34:22Z</time>
      </trkpt>
      <trkpt lat="43.39736" lon="6.65347">
        <ele>172.2</ele>
        <time>2022-10-09T10:34:23Z</time>
      </trkpt>
      <trkpt lat="43.39734" lon="6.65349">
        <ele>172.3</ele>
        <time>2022-10-09T10:34:24Z</time>
      </trkpt>
      <trkpt lat="43.39732" lon="6.6535">
        <ele>172.4</ele>
        <time>2022-10-09T10:34:25Z</time>
      </trkpt>
      <trkpt lat="43.39731" lon="6.65353">
        <ele>172.5</ele>
        <time>2022-10-09T10:34:26Z</time>
      </trkpt>
      <trkpt lat="43.39729" lon="6.65355">
        <ele>172.6</ele>
        <time>2022-10-09T10:34:27Z</time>
      </trkpt>
      <trkpt lat="43.39727" lon="6.65358">
        <ele>172.7</ele>
        <time>2022-10-09T10:34:28Z</time>
      </trkpt>
      <trkpt lat="43.39726" lon="6.6536">
        <ele>172.8</ele>
        <time>2022-10-09T10:34:29Z</time>
      </trkpt>
      <trkpt lat="43.39725" lon="6.65363">
        <ele>172.9</ele>
        <time>2022-10-09T10:34:30Z</time>
      </trkpt>
      <trkpt lat="43.39724" lon="6.65365">
        <ele>173</ele>
        <time>2022-10-09T10:34:31Z</time>
      </trkpt>
      <trkpt lat="43.39723" lon="6.65367">
        <ele>173.2</ele>
        <time>2022-10-09T10:34:32Z</time>
      </trkpt>
      <trkpt lat="43.39722" lon="6.6537">
        <ele>173.3</ele>
        <time>2022-10-09T10:34:33Z</time>
      </trkpt>
      <trkpt lat="43.39721" lon="6.65372">
        <ele>173.4</ele>
        <time>2022-10-09T10:34:34Z</time>
      </trkpt>
      <trkpt lat="43.3972" lon="6.65375">
        <ele>173.5</ele>
        <time>2022-10-09T10:34:35Z</time>
      </trkpt>
      <trkpt lat="43.39719" lon="6.65377">
        <ele>173.6</ele>
        <time>2022-10-09T10:34:36Z</time>
      </trkpt>
      <trkpt lat="43.39718" lon="6.65379">
        <ele>173.7</ele>
        <time>2022-10-09T10:34:37Z</time>
      </trkpt>
      <trkpt lat="43.39716" lon="6.65381">
        <ele>173.8</ele>
        <time>2022-10-09T10:34:38Z</time>
      </trkpt>
      <trkpt lat="43.39715" lon="6.65384">
        <ele>173.9</ele>
        <time>2022-10-09T10:34:39Z</time>
      </trkpt>
      <trkpt lat="43.39713" lon="6.65386">
        <ele>174.1</ele>
        <time>2022-10-09T10:34:40Z</time>
      </trkpt>
      <trkpt lat="43.39711" lon="6.65389">
        <ele>174.2</ele>
        <time>2022-10-09T10:34:41Z</time>
      </trkpt>
      <trkpt lat="43.3971" lon="6.65391">
        <ele>174.3</ele>
        <time>2022-10-09T10:34:42Z</time>
      </trkpt>
      <trkpt lat="43.39708" lon="6.65393">
        <ele>174.4</ele>
        <time>2022-10-09T10:34:43Z</time>
      </trkpt>
      <trkpt lat="43.39706" lon="6.65396">
        <ele>174.5</ele>
        <time>2022-10-09T10:34:44Z</time>
      </trkpt>
      <trkpt lat="43.39703" lon="6.65398">
        <ele>174.7</ele>
        <time>2022-10-09T10:34:45Z</time>
      </trkpt>
      <trkpt lat="43.39701" lon="6.654">
        <ele>174.8</ele>
        <time>2022-10-09T10:34:46Z</time>
      </trkpt>
      <trkpt lat="43.39699" lon="6.65402">
        <ele>174.9</ele>
        <time>2022-10-09T10:34:47Z</time>
      </trkpt>
      <trkpt lat="43.39696" lon="6.65404">
        <ele>175</ele>
        <time>2022-10-09T10:34:48Z</time>
      </trkpt>
      <trkpt lat="43.39694" lon="6.65405">
        <ele>175.2</ele>
        <time>2022-10-09T10:34:49Z</time>
      </trkpt>
      <trkpt lat="43.39692" lon="6.65407">
        <ele>175.3</ele>
        <time>2022-10-09T10:34:50Z</time>
      </trkpt>
      <trkpt lat="43.39689" lon="6.65408">
        <ele>175.4</ele>
        <time>2022-10-09T10:34:51Z</time>
      </trkpt>
      <trkpt lat="43.39687" lon="6.65409">
        <ele>175.5</ele>
        <time>2022-10-09T10:34:52Z</time>
      </trkpt>
      <trkpt lat="43.39684" lon="6.6541">
        <ele>175.7</ele>
        <time>2022-10-09T10:34:53Z</time>
      </trkpt>
      <trkpt lat="43.39682" lon="6.65411">
        <ele>175.8</ele>
        <time>2022-10-09T10:34:54Z</time>
      </trkpt>
      <trkpt lat="43.39679" lon="6.65411">
        <ele>175.9</ele>
        <time>2022-10-09T10:34:55Z</time>
      </trkpt>
      <trkpt lat="43.39676" lon="6.65411">
        <ele>176.1</ele>
        <time>2022-10-09T10:34:56Z</time>
      </trkpt>
      <trkpt lat="43.39673" lon="6.65411">
        <ele>176.3</ele>
        <time>2022-10-09T10:34:57Z</time>
      </trkpt>
      <trkpt lat="43.3967" lon="6.65411">
        <ele>176.4</ele>
        <time>2022-10-09T10:34:58Z</time>
      </trkpt>
      <trkpt lat="43.39668" lon="6.65411">
        <ele>176.5</ele>
        <time>2022-10-09T10:34:59Z</time>
      </trkpt>
      <trkpt lat="43.39665" lon="6.6541">
        <ele>176.7</ele>
        <time>2022-10-09T10:35:00Z</time>
      </trkpt>
      <trkpt lat="43.39663" lon="6.65409">
        <ele>176.8</ele>
        <time>2022-10-09T10:35:01Z</time>
      </trkpt>
      <trkpt lat="43.3966" lon="6.65408">
        <ele>177</ele>
        <time>2022-10-09T10:35:02Z</time>
      </trkpt>
      <trkpt lat="43.39658" lon="6.65406">
        <ele>177.1</ele>
        <time>2022-10-09T10:35:03Z</time>
      </trkpt>
      <trkpt lat="43.39656" lon="6.65405">
        <ele>177.3</ele>
        <time>2022-10-09T10:35:04Z</time>
      </trkpt>
      <trkpt lat="43.39654" lon="6.65404">
        <ele>177.4</ele>
        <time>2022-10-09T10:35:05Z</time>
      </trkpt>
      <trkpt lat="43.39652" lon="6.65402">
        <ele>177.5</ele>
        <time>2022-10-09T10:35:06Z</time>
      </trkpt>
      <trkpt lat="43.3965" lon="6.654">
        <ele>177.6</ele>
        <time>2022-10-09T10:35:07Z</time>
      </trkpt>
      <trkpt lat="43.39648" lon="6.65398">
        <ele>177.8</ele>
        <time>2022-10-09T10:35:08Z</time>
      </trkpt>
      <trkpt lat="43.39646" lon="6.65397">
        <ele>177.9</ele>
        <time>2022-10-09T10:35:09Z</time>
      </trkpt>
      <trkpt lat="43.39644" lon="6.65395">
        <ele>178</ele>
        <time>2022-10-09T10:35:10Z</time>
      </trkpt>
      <trkpt lat="43.39642" lon="6.65393">
        <ele>178.1</ele>
        <time>2022-10-09T10:35:11Z</time>
      </trkpt>
      <trkpt lat="43.39641" lon="6.65391">
        <ele>178.2</ele>
        <time>2022-10-09T10:35:12Z</time>
      </trkpt>
      <trkpt lat="43.39639" lon="6.65389">
        <ele>178.3</ele>
        <time>2022-10-09T10:35:13Z</time>
      </trkpt>
      <trkpt lat="43.39637" lon="6.65387">
        <ele>178.4</ele>
        <time>2022-10-09T10:35:14Z</time>
      </trkpt>
      <trkpt lat="43.39635" lon="6.65385">
        <ele>178.4</ele>
        <time>2022-10-09T10:35:15Z</time>
      </trkpt>
      <trkpt lat="43.39633" lon="6.65383">
        <ele>178.5</ele>
        <time>2022-10-09T10:35:16Z</time>
      </trkpt>
      <trkpt lat="43.39631" lon="6.6538">
        <ele>178.6</ele>
        <time>2022-10-09T10:35:17Z</time>
      </trkpt>
      <trkpt lat="43.39629" lon="6.65378">
        <ele>178.7</ele>
        <time>2022-10-09T10:35:18Z</time>
      </trkpt>
      <trkpt lat="43.39627" lon="6.65376">
        <ele>178.8</ele>
        <time>2022-10-09T10:35:19Z</time>
      </trkpt>
      <trkpt lat="43.39625" lon="6.65374">
        <ele>178.8</ele>
        <time>2022-10-09T10:35:20Z</time>
      </trkpt>
      <trkpt lat="43.39624" lon="6.65372">
        <ele>178.9</ele>
        <time>2022-10-09T10:35:21Z</time>
      </trkpt>
      <trkpt lat="43.39622" lon="6.6537">
        <ele>178.9</ele>
        <time>2022-10-09T10:35:22Z</time>
      </trkpt>
      <trkpt lat="43.3962" lon="6.65368">
        <ele>179</ele>
        <time>2022-10-09T10:35:23Z</time>
      </trkpt>
      <trkpt lat="43.39618" lon="6.65366">
        <ele>179</ele>
        <time>2022-10-09T10:35:24Z</time>
      </trkpt>
      <trkpt lat="43.39616" lon="6.65364">
        <ele>179</ele>
        <time>2022-10-09T10:35:25Z</time>
      </trkpt>
      <trkpt lat="43.39614" lon="6.65361">
        <ele>179</ele>
        <time>2022-10-09T10:35:26Z</time>
      </trkpt>
      <trkpt lat="43.39612" lon="6.65359">
        <ele>179</ele>
        <time>2022-10-09T10:35:27Z</time>
      </trkpt>
      <trkpt lat="43.396" lon="6.65342">
        <ele>178.9</ele>
        <time>2022-10-09T10:35:32Z</time>
      </trkpt>
      <trkpt lat="43.39594" lon="6.65334">
        <ele>178.8</ele>
        <time>2022-10-09T10:35:34Z</time>
      </trkpt>
      <trkpt lat="43.39588" lon="6.65327">
        <ele>178.8</ele>
        <time>2022-10-09T10:35:36Z</time>
      </trkpt>
      <trkpt lat="43.39585" lon="6.65323">
        <ele>178.8</ele>
        <time>2022-10-09T10:35:37Z</time>
      </trkpt>
      <trkpt lat="43.39582" lon="6.6532">
        <ele>178.8</ele>
        <time>2022-10-09T10:35:38Z</time>
      </trkpt>
      <trkpt lat="43.39579" lon="6.65317">
        <ele>178.8</ele>
        <time>2022-10-09T10:35:39Z</time>
      </trkpt>
      <trkpt lat="43.39575" lon="6.65315">
        <ele>178.8</ele>
        <time>2022-10-09T10:35:40Z</time>
      </trkpt>
      <trkpt lat="43.39572" lon="6.65312">
        <ele>178.8</ele>
        <time>2022-10-09T10:35:41Z</time>
      </trkpt>
      <trkpt lat="43.39552" lon="6.65299">
        <ele>179</ele>
        <time>2022-10-09T10:35:47Z</time>
      </trkpt>
      <trkpt lat="43.39548" lon="6.65297">
        <ele>179.1</ele>
        <time>2022-10-09T10:35:48Z</time>
      </trkpt>
      <trkpt lat="43.39545" lon="6.65296">
        <ele>179.2</ele>
        <time>2022-10-09T10:35:49Z</time>
      </trkpt>
      <trkpt lat="43.39542" lon="6.65295">
        <ele>179.3</ele>
        <time>2022-10-09T10:35:50Z</time>
      </trkpt>
      <trkpt lat="43.39539" lon="6.65294">
        <ele>179.4</ele>
        <time>2022-10-09T10:35:51Z</time>
      </trkpt>
      <trkpt lat="43.39537" lon="6.65292">
        <ele>179.5</ele>
        <time>2022-10-09T10:35:52Z</time>
      </trkpt>
      <trkpt lat="43.39534" lon="6.65291">
        <ele>179.6</ele>
        <time>2022-10-09T10:35:53Z</time>
      </trkpt>
      <trkpt lat="43.39532" lon="6.65289">
        <ele>179.7</ele>
        <time>2022-10-09T10:35:54Z</time>
      </trkpt>
      <trkpt lat="43.3953" lon="6.65287">
        <ele>179.9</ele>
        <time>2022-10-09T10:35:55Z</time>
      </trkpt>
      <trkpt lat="43.39528" lon="6.65285">
        <ele>180</ele>
        <time>2022-10-09T10:35:56Z</time>
      </trkpt>
      <trkpt lat="43.39526" lon="6.65283">
        <ele>180.1</ele>
        <time>2022-10-09T10:35:57Z</time>
      </trkpt>
      <trkpt lat="43.39524" lon="6.65282">
        <ele>180.2</ele>
        <time>2022-10-09T10:35:58Z</time>
      </trkpt>
      <trkpt lat="43.39522" lon="6.6528">
        <ele>180.4</ele>
        <time>2022-10-09T10:35:59Z</time>
      </trkpt>
      <trkpt lat="43.3952" lon="6.65279">
        <ele>180.5</ele>
        <time>2022-10-09T10:36:00Z</time>
      </trkpt>
      <trkpt lat="43.39518" lon="6.65278">
        <ele>180.6</ele>
        <time>2022-10-09T10:36:01Z</time>
      </trkpt>
      <trkpt lat="43.39514" lon="6.65275">
        <ele>180.9</ele>
        <time>2022-10-09T10:36:03Z</time>
      </trkpt>
      <trkpt lat="43.39512" lon="6.65274">
        <ele>181.1</ele>
        <time>2022-10-09T10:36:04Z</time>
      </trkpt>
      <trkpt lat="43.3951" lon="6.65273">
        <ele>181.2</ele>
        <time>2022-10-09T10:36:05Z</time>
      </trkpt>
      <trkpt lat="43.39509" lon="6.65272">
        <ele>181.3</ele>
        <time>2022-10-09T10:36:06Z</time>
      </trkpt>
      <trkpt lat="43.39507" lon="6.65271">
        <ele>181.5</ele>
        <time>2022-10-09T10:36:07Z</time>
      </trkpt>
      <trkpt lat="43.39505" lon="6.6527">
        <ele>181.6</ele>
        <time>2022-10-09T10:36:08Z</time>
      </trkpt>
      <trkpt lat="43.39504" lon="6.65268">
        <ele>181.8</ele>
        <time>2022-10-09T10:36:09Z</time>
      </trkpt>
      <trkpt lat="43.39502" lon="6.65267">
        <ele>181.9</ele>
        <time>2022-10-09T10:36:10Z</time>
      </trkpt>
      <trkpt lat="43.395" lon="6.65266">
        <ele>182.1</ele>
        <time>2022-10-09T10:36:11Z</time>
      </trkpt>
      <trkpt lat="43.39499" lon="6.65264">
        <ele>182.2</ele>
        <time>2022-10-09T10:36:12Z</time>
      </trkpt>
      <trkpt lat="43.39497" lon="6.65263">
        <ele>182.4</ele>
        <time>2022-10-09T10:36:13Z</time>
      </trkpt>
      <trkpt lat="43.39495" lon="6.65262">
        <ele>182.6</ele>
        <time>2022-10-09T10:36:14Z</time>
      </trkpt>
      <trkpt lat="43.39493" lon="6.65261">
        <ele>182.8</ele>
        <time>2022-10-09T10:36:15Z</time>
      </trkpt>
      <trkpt lat="43.39491" lon="6.6526">
        <ele>183</ele>
        <time>2022-10-09T10:36:16Z</time>
      </trkpt>
      <trkpt lat="43.39489" lon="6.65259">
        <ele>183.1</ele>
        <time>2022-10-09T10:36:17Z</time>
      </trkpt>
      <trkpt lat="43.39488" lon="6.65257">
        <ele>183.3</ele>
        <time>2022-10-09T10:36:18Z</time>
      </trkpt>
      <trkpt lat="43.39486" lon="6.65256">
        <ele>183.5</ele>
        <time>2022-10-09T10:36:19Z</time>
      </trkpt>
      <trkpt lat="43.39484" lon="6.65254">
        <ele>183.7</ele>
        <time>2022-10-09T10:36:20Z</time>
      </trkpt>
      <trkpt lat="43.39483" lon="6.65253">
        <ele>183.9</ele>
        <time>2022-10-09T10:36:21Z</time>
      </trkpt>
      <trkpt lat="43.39481" lon="6.65252">
        <ele>184</ele>
        <time>2022-10-09T10:36:22Z</time>
      </trkpt>
      <trkpt lat="43.39479" lon="6.6525">
        <ele>184.2</ele>
        <time>2022-10-09T10:36:23Z</time>
      </trkpt>
      <trkpt lat="43.39478" lon="6.65249">
        <ele>184.4</ele>
        <time>2022-10-09T10:36:24Z</time>
      </trkpt>
      <trkpt lat="43.39476" lon="6.65247">
        <ele>184.5</ele>
        <time>2022-10-09T10:36:25Z</time>
      </trkpt>
      <trkpt lat="43.39475" lon="6.65246">
        <ele>184.7</ele>
        <time>2022-10-09T10:36:26Z</time>
      </trkpt>
      <trkpt lat="43.39472" lon="6.65244">
        <ele>184.9</ele>
        <time>2022-10-09T10:36:27Z</time>
      </trkpt>
      <trkpt lat="43.39471" lon="6.65243">
        <ele>185.1</ele>
        <time>2022-10-09T10:36:28Z</time>
      </trkpt>
      <trkpt lat="43.39469" lon="6.65241">
        <ele>185.3</ele>
        <time>2022-10-09T10:36:29Z</time>
      </trkpt>
      <trkpt lat="43.39467" lon="6.6524">
        <ele>185.4</ele>
        <time>2022-10-09T10:36:30Z</time>
      </trkpt>
      <trkpt lat="43.39465" lon="6.65239">
        <ele>185.6</ele>
        <time>2022-10-09T10:36:31Z</time>
      </trkpt>
      <trkpt lat="43.39463" lon="6.65237">
        <ele>185.8</ele>
        <time>2022-10-09T10:36:32Z</time>
      </trkpt>
      <trkpt lat="43.39462" lon="6.65236">
        <ele>186</ele>
        <time>2022-10-09T10:36:33Z</time>
      </trkpt>
      <trkpt lat="43.3946" lon="6.65234">
        <ele>186.1</ele>
        <time>2022-10-09T10:36:34Z</time>
      </trkpt>
      <trkpt lat="43.39459" lon="6.65231">
        <ele>186.3</ele>
        <time>2022-10-09T10:36:35Z</time>
      </trkpt>
      <trkpt lat="43.39458" lon="6.65229">
        <ele>188.1</ele>
        <time>2022-10-09T10:36:36Z</time>
      </trkpt>
      <trkpt lat="43.39458" lon="6.65227">
        <ele>188.3</ele>
        <time>2022-10-09T10:36:37Z</time>
      </trkpt>
      <trkpt lat="43.39458" lon="6.65225">
        <ele>188.6</ele>
        <time>2022-10-09T10:36:38Z</time>
      </trkpt>
      <trkpt lat="43.39458" lon="6.65223">
        <ele>188.8</ele>
        <time>2022-10-09T10:36:39Z</time>
      </trkpt>
      <trkpt lat="43.39459" lon="6.65221">
        <ele>189</ele>
        <time>2022-10-09T10:36:40Z</time>
      </trkpt>
      <trkpt lat="43.3946" lon="6.6522">
        <ele>189.2</ele>
        <time>2022-10-09T10:36:41Z</time>
      </trkpt>
      <trkpt lat="43.39461" lon="6.65219">
        <ele>189.4</ele>
        <time>2022-10-09T10:36:42Z</time>
      </trkpt>
      <trkpt lat="43.39462" lon="6.65217">
        <ele>189.6</ele>
        <time>2022-10-09T10:36:43Z</time>
      </trkpt>
      <trkpt lat="43.39463" lon="6.65216">
        <ele>189.8</ele>
        <time>2022-10-09T10:36:44Z</time>
      </trkpt>
      <trkpt lat="43.39464" lon="6.65216">
        <ele>190</ele>
        <time>2022-10-09T10:36:45Z</time>
      </trkpt>
      <trkpt lat="43.39465" lon="6.65216">
        <ele>190.2</ele>
        <time>2022-10-09T10:36:46Z</time>
      </trkpt>
      <trkpt lat="43.39467" lon="6.65215">
        <ele>190.4</ele>
        <time>2022-10-09T10:36:47Z</time>
      </trkpt>
      <trkpt lat="43.39468" lon="6.65215">
        <ele>190.6</ele>
        <time>2022-10-09T10:36:48Z</time>
      </trkpt>
      <trkpt lat="43.39469" lon="6.65215">
        <ele>190.8</ele>
        <time>2022-10-09T10:36:49Z</time>
      </trkpt>
      <trkpt lat="43.39471" lon="6.65215">
        <ele>191.1</ele>
        <time>2022-10-09T10:36:50Z</time>
      </trkpt>
      <trkpt lat="43.39472" lon="6.65215">
        <ele>191.3</ele>
        <time>2022-10-09T10:36:51Z</time>
      </trkpt>
      <trkpt lat="43.39474" lon="6.65215">
        <ele>191.5</ele>
        <time>2022-10-09T10:36:52Z</time>
      </trkpt>
      <trkpt lat="43.39475" lon="6.65215">
        <ele>191.8</ele>
        <time>2022-10-09T10:36:53Z</time>
      </trkpt>
      <trkpt lat="43.39477" lon="6.65215">
        <ele>192</ele>
        <time>2022-10-09T10:36:54Z</time>
      </trkpt>
      <trkpt lat="43.39478" lon="6.65215">
        <ele>192.2</ele>
        <time>2022-10-09T10:36:55Z</time>
      </trkpt>
      <trkpt lat="43.3948" lon="6.65215">
        <ele>192.4</ele>
        <time>2022-10-09T10:36:56Z</time>
      </trkpt>
      <trkpt lat="43.39481" lon="6.65215">
        <ele>192.7</ele>
        <time>2022-10-09T10:36:57Z</time>
      </trkpt>
      <trkpt lat="43.39482" lon="6.65215">
        <ele>192.9</ele>
        <time>2022-10-09T10:36:58Z</time>
      </trkpt>
      <trkpt lat="43.39483" lon="6.65215">
        <ele>193.1</ele>
        <time>2022-10-09T10:36:59Z</time>
      </trkpt>
      <trkpt lat="43.39485" lon="6.65215">
        <ele>193.3</ele>
        <time>2022-10-09T10:37:00Z</time>
      </trkpt>
      <trkpt lat="43.39485" lon="6.65215">
        <ele>193.5</ele>
        <time>2022-10-09T10:37:01Z</time>
      </trkpt>
      <trkpt lat="43.39485" lon="6.65215">
        <ele>193.5</ele>
        <time>2022-10-09T10:37:03Z</time>
      </trkpt>
      <trkpt lat="43.39683" lon="6.65119">
        <ele>230</ele>
        <time>2022-10-09T10:42:08Z</time>
      </trkpt>
      <trkpt lat="43.39684" lon="6.65118">
        <ele>230.1</ele>
        <time>2022-10-09T10:42:09Z</time>
      </trkpt>
      <trkpt lat="43.39685" lon="6.65116">
        <ele>230.2</ele>
        <time>2022-10-09T10:42:10Z</time>
      </trkpt>
      <trkpt lat="43.39685" lon="6.65115">
        <ele>230.3</ele>
        <time>2022-10-09T10:42:11Z</time>
      </trkpt>
      <trkpt lat="43.39686" lon="6.65114">
        <ele>230.4</ele>
        <time>2022-10-09T10:42:12Z</time>
      </trkpt>
      <trkpt lat="43.39686" lon="6.65113">
        <ele>230.5</ele>
        <time>2022-10-09T10:42:13Z</time>
      </trkpt>
      <trkpt lat="43.39686" lon="6.65113">
        <ele>230.5</ele>
        <time>2022-10-09T10:42:15Z</time>
      </trkpt>
      <trkpt lat="43.39688" lon="6.65105">
        <ele>231</ele>
        <time>2022-10-09T10:42:25Z</time>
      </trkpt>
      <trkpt lat="43.3969" lon="6.65101">
        <ele>231.3</ele>
        <time>2022-10-09T10:42:27Z</time>
      </trkpt>
      <trkpt lat="43.3969" lon="6.65096">
        <ele>231.6</ele>
        <time>2022-10-09T10:42:29Z</time>
      </trkpt>
      <trkpt lat="43.39691" lon="6.65092">
        <ele>231.9</ele>
        <time>2022-10-09T10:42:31Z</time>
      </trkpt>
      <trkpt lat="43.39693" lon="6.65089">
        <ele>232.1</ele>
        <time>2022-10-09T10:42:33Z</time>
      </trkpt>
      <trkpt lat="43.39693" lon="6.65087">
        <ele>232.3</ele>
        <time>2022-10-09T10:42:34Z</time>
      </trkpt>
      <trkpt lat="43.39694" lon="6.65085">
        <ele>232.4</ele>
        <time>2022-10-09T10:42:35Z</time>
      </trkpt>
      <trkpt lat="43.39695" lon="6.65084">
        <ele>232.5</ele>
        <time>2022-10-09T10:42:36Z</time>
      </trkpt>
      <trkpt lat="43.39697" lon="6.65076">
        <ele>233</ele>
        <time>2022-10-09T10:42:40Z</time>
      </trkpt>
      <trkpt lat="43.39697" lon="6.65074">
        <ele>233.1</ele>
        <time>2022-10-09T10:42:41Z</time>
      </trkpt>
      <trkpt lat="43.39698" lon="6.65072">
        <ele>233.2</ele>
        <time>2022-10-09T10:42:42Z</time>
      </trkpt>
      <trkpt lat="43.39699" lon="6.65069">
        <ele>233.4</ele>
        <time>2022-10-09T10:42:44Z</time>
      </trkpt>
      <trkpt lat="43.397" lon="6.65067">
        <ele>233.5</ele>
        <time>2022-10-09T10:42:45Z</time>
      </trkpt>
      <trkpt lat="43.39701" lon="6.65066">
        <ele>233.7</ele>
        <time>2022-10-09T10:42:46Z</time>
      </trkpt>
      <trkpt lat="43.39702" lon="6.65064">
        <ele>233.8</ele>
        <time>2022-10-09T10:42:47Z</time>
      </trkpt>
      <trkpt lat="43.39703" lon="6.65062">
        <ele>233.9</ele>
        <time>2022-10-09T10:42:48Z</time>
      </trkpt>
      <trkpt lat="43.39703" lon="6.6506">
        <ele>234</ele>
        <time>2022-10-09T10:42:49Z</time>
      </trkpt>
      <trkpt lat="43.39704" lon="6.65059">
        <ele>234.2</ele>
        <time>2022-10-09T10:42:50Z</time>
      </trkpt>
      <trkpt lat="43.39705" lon="6.65057">
        <ele>234.3</ele>
        <time>2022-10-09T10:42:51Z</time>
      </trkpt>
      <trkpt lat="43.39706" lon="6.65055">
        <ele>234.4</ele>
        <time>2022-10-09T10:42:52Z</time>
      </trkpt>
      <trkpt lat="43.39707" lon="6.65054">
        <ele>234.5</ele>
        <time>2022-10-09T10:42:53Z</time>
      </trkpt>
      <trkpt lat="43.39708" lon="6.65052">
        <ele>234.6</ele>
        <time>2022-10-09T10:42:54Z</time>
      </trkpt>
      <trkpt lat="43.39709" lon="6.65051">
        <ele>234.7</ele>
        <time>2022-10-09T10:42:55Z</time>
      </trkpt>
      <trkpt lat="43.3971" lon="6.65049">
        <ele>234.9</ele>
        <time>2022-10-09T10:42:56Z</time>
      </trkpt>
      <trkpt lat="43.39711" lon="6.65048">
        <ele>235</ele>
        <time>2022-10-09T10:42:57Z</time>
      </trkpt>
      <trkpt lat="43.39713" lon="6.65046">
        <ele>235.1</ele>
        <time>2022-10-09T10:42:58Z</time>
      </trkpt>
      <trkpt lat="43.39715" lon="6.65045">
        <ele>235.3</ele>
        <time>2022-10-09T10:42:59Z</time>
      </trkpt>
      <trkpt lat="43.39716" lon="6.65044">
        <ele>235.4</ele>
        <time>2022-10-09T10:43:00Z</time>
      </trkpt>
      <trkpt lat="43.39718" lon="6.65043">
        <ele>235.5</ele>
        <time>2022-10-09T10:43:01Z</time>
      </trkpt>
      <trkpt lat="43.39719" lon="6.65042">
        <ele>235.7</ele>
        <time>2022-10-09T10:43:02Z</time>
      </trkpt>
      <trkpt lat="43.39721" lon="6.65042">
        <ele>235.8</ele>
        <time>2022-10-09T10:43:03Z</time>
      </trkpt>
      <trkpt lat="43.39722" lon="6.6504">
        <ele>235.9</ele>
        <time>2022-10-09T10:43:04Z</time>
      </trkpt>
      <trkpt lat="43.39724" lon="6.65039">
        <ele>236</ele>
        <time>2022-10-09T10:43:05Z</time>
      </trkpt>
      <trkpt lat="43.39725" lon="6.65038">
        <ele>236.2</ele>
        <time>2022-10-09T10:43:06Z</time>
      </trkpt>
      <trkpt lat="43.39727" lon="6.65038">
        <ele>236.3</ele>
        <time>2022-10-09T10:43:07Z</time>
      </trkpt>
      <trkpt lat="43.39728" lon="6.65037">
        <ele>236.4</ele>
        <time>2022-10-09T10:43:08Z</time>
      </trkpt>
      <trkpt lat="43.3973" lon="6.65037">
        <ele>236.5</ele>
        <time>2022-10-09T10:43:09Z</time>
      </trkpt>
      <trkpt lat="43.39731" lon="6.65037">
        <ele>236.6</ele>
        <time>2022-10-09T10:43:10Z</time>
      </trkpt>
      <trkpt lat="43.39733" lon="6.65037">
        <ele>236.8</ele>
        <time>2022-10-09T10:43:11Z</time>
      </trkpt>
      <trkpt lat="43.39735" lon="6.65036">
        <ele>236.9</ele>
        <time>2022-10-09T10:43:12Z</time>
      </trkpt>
      <trkpt lat="43.39736" lon="6.65036">
        <ele>237</ele>
        <time>2022-10-09T10:43:13Z</time>
      </trkpt>
      <trkpt lat="43.39738" lon="6.65035">
        <ele>237.2</ele>
        <time>2022-10-09T10:43:14Z</time>
      </trkpt>
      <trkpt lat="43.39739" lon="6.65035">
        <ele>237.3</ele>
        <time>2022-10-09T10:43:15Z</time>
      </trkpt>
      <trkpt lat="43.39741" lon="6.65035">
        <ele>237.4</ele>
        <time>2022-10-09T10:43:16Z</time>
      </trkpt>
      <trkpt lat="43.39742" lon="6.65034">
        <ele>237.6</ele>
        <time>2022-10-09T10:43:17Z</time>
      </trkpt>
      <trkpt lat="43.39744" lon="6.65034">
        <ele>237.7</ele>
        <time>2022-10-09T10:43:18Z</time>
      </trkpt>
      <trkpt lat="43.39746" lon="6.65034">
        <ele>237.9</ele>
        <time>2022-10-09T10:43:19Z</time>
      </trkpt>
      <trkpt lat="43.39747" lon="6.65034">
        <ele>238</ele>
        <time>2022-10-09T10:43:20Z</time>
      </trkpt>
      <trkpt lat="43.39748" lon="6.65034">
        <ele>238.2</ele>
        <time>2022-10-09T10:43:21Z</time>
      </trkpt>
      <trkpt lat="43.3975" lon="6.65033">
        <ele>238.3</ele>
        <time>2022-10-09T10:43:22Z</time>
      </trkpt>
      <trkpt lat="43.39751" lon="6.65032">
        <ele>238.5</ele>
        <time>2022-10-09T10:43:23Z</time>
      </trkpt>
      <trkpt lat="43.39752" lon="6.65031">
        <ele>238.6</ele>
        <time>2022-10-09T10:43:24Z</time>
      </trkpt>
      <trkpt lat="43.39754" lon="6.6503">
        <ele>238.8</ele>
        <time>2022-10-09T10:43:25Z</time>
      </trkpt>
      <trkpt lat="43.39755" lon="6.65029">
        <ele>238.9</ele>
        <time>2022-10-09T10:43:26Z</time>
      </trkpt>
      <trkpt lat="43.39756" lon="6.65028">
        <ele>239.1</ele>
        <time>2022-10-09T10:43:27Z</time>
      </trkpt>
      <trkpt lat="43.39757" lon="6.65028">
        <ele>239.2</ele>
        <time>2022-10-09T10:43:28Z</time>
      </trkpt>
      <trkpt lat="43.39758" lon="6.65027">
        <ele>239.4</ele>
        <time>2022-10-09T10:43:29Z</time>
      </trkpt>
      <trkpt lat="43.39759" lon="6.65026">
        <ele>239.5</ele>
        <time>2022-10-09T10:43:30Z</time>
      </trkpt>
      <trkpt lat="43.39759" lon="6.65025">
        <ele>239.7</ele>
        <time>2022-10-09T10:43:31Z</time>
      </trkpt>
      <trkpt lat="43.3976" lon="6.65023">
        <ele>239.8</ele>
        <time>2022-10-09T10:43:32Z</time>
      </trkpt>
      <trkpt lat="43.3976" lon="6.65022">
        <ele>240</ele>
        <time>2022-10-09T10:43:33Z</time>
      </trkpt>
      <trkpt lat="43.39761" lon="6.65021">
        <ele>240.2</ele>
        <time>2022-10-09T10:43:34Z</time>
      </trkpt>
      <trkpt lat="43.39762" lon="6.6502">
        <ele>240.3</ele>
        <time>2022-10-09T10:43:35Z</time>
      </trkpt>
      <trkpt lat="43.39763" lon="6.65019">
        <ele>240.5</ele>
        <time>2022-10-09T10:43:36Z</time>
      </trkpt>
      <trkpt lat="43.39764" lon="6.65017">
        <ele>240.7</ele>
        <time>2022-10-09T10:43:37Z</time>
      </trkpt>
      <trkpt lat="43.39765" lon="6.65016">
        <ele>240.9</ele>
        <time>2022-10-09T10:43:38Z</time>
      </trkpt>
      <trkpt lat="43.39766" lon="6.65016">
        <ele>241</ele>
        <time>2022-10-09T10:43:39Z</time>
      </trkpt>
      <trkpt lat="43.39767" lon="6.65015">
        <ele>241.2</ele>
        <time>2022-10-09T10:43:40Z</time>
      </trkpt>
      <trkpt lat="43.39769" lon="6.65014">
        <ele>241.4</ele>
        <time>2022-10-09T10:43:41Z</time>
      </trkpt>
      <trkpt lat="43.3977" lon="6.65013">
        <ele>241.5</ele>
        <time>2022-10-09T10:43:42Z</time>
      </trkpt>
      <trkpt lat="43.39771" lon="6.65013">
        <ele>241.7</ele>
        <time>2022-10-09T10:43:43Z</time>
      </trkpt>
      <trkpt lat="43.39772" lon="6.65012">
        <ele>241.8</ele>
        <time>2022-10-09T10:43:44Z</time>
      </trkpt>
      <trkpt lat="43.39773" lon="6.65012">
        <ele>242</ele>
        <time>2022-10-09T10:43:45Z</time>
      </trkpt>
      <trkpt lat="43.39774" lon="6.65011">
        <ele>242.1</ele>
        <time>2022-10-09T10:43:46Z</time>
      </trkpt>
      <trkpt lat="43.39776" lon="6.65011">
        <ele>242.3</ele>
        <time>2022-10-09T10:43:47Z</time>
      </trkpt>
      <trkpt lat="43.39777" lon="6.6501">
        <ele>242.5</ele>
        <time>2022-10-09T10:43:48Z</time>
      </trkpt>
      <trkpt lat="43.39778" lon="6.6501">
        <ele>242.7</ele>
        <time>2022-10-09T10:43:49Z</time>
      </trkpt>
      <trkpt lat="43.39779" lon="6.65009">
        <ele>242.8</ele>
        <time>2022-10-09T10:43:50Z</time>
      </trkpt>
      <trkpt lat="43.3978" lon="6.65009">
        <ele>242.8</ele>
        <time>2022-10-09T10:43:51Z</time>
      </trkpt>
      <trkpt lat="43.3978" lon="6.65008">
        <ele>242.9</ele>
        <time>2022-10-09T10:43:52Z</time>
      </trkpt>
      <trkpt lat="43.39781" lon="6.65008">
        <ele>243.1</ele>
        <time>2022-10-09T10:43:53Z</time>
      </trkpt>
      <trkpt lat="43.39782" lon="6.65008">
        <ele>243.2</ele>
        <time>2022-10-09T10:43:54Z</time>
      </trkpt>
      <trkpt lat="43.39783" lon="6.65007">
        <ele>243.3</ele>
        <time>2022-10-09T10:43:55Z</time>
      </trkpt>
      <trkpt lat="43.39784" lon="6.65007">
        <ele>243.4</ele>
        <time>2022-10-09T10:43:56Z</time>
      </trkpt>
      <trkpt lat="43.39785" lon="6.65007">
        <ele>243.6</ele>
        <time>2022-10-09T10:43:57Z</time>
      </trkpt>
      <trkpt lat="43.39786" lon="6.65006">
        <ele>243.7</ele>
        <time>2022-10-09T10:43:58Z</time>
      </trkpt>
      <trkpt lat="43.39787" lon="6.65006">
        <ele>243.8</ele>
        <time>2022-10-09T10:43:59Z</time>
      </trkpt>
      <trkpt lat="43.39788" lon="6.65006">
        <ele>244</ele>
        <time>2022-10-09T10:44:00Z</time>
      </trkpt>
      <trkpt lat="43.39789" lon="6.65006">
        <ele>244.1</ele>
        <time>2022-10-09T10:44:01Z</time>
      </trkpt>
      <trkpt lat="43.3979" lon="6.65006">
        <ele>244.3</ele>
        <time>2022-10-09T10:44:02Z</time>
      </trkpt>
      <trkpt lat="43.39791" lon="6.65006">
        <ele>244.4</ele>
        <time>2022-10-09T10:44:03Z</time>
      </trkpt>
      <trkpt lat="43.39792" lon="6.65006">
        <ele>244.5</ele>
        <time>2022-10-09T10:44:04Z</time>
      </trkpt>
      <trkpt lat="43.39793" lon="6.65006">
        <ele>244.6</ele>
        <time>2022-10-09T10:44:05Z</time>
      </trkpt>
      <trkpt lat="43.39794" lon="6.65006">
        <ele>244.8</ele>
        <time>2022-10-09T10:44:06Z</time>
      </trkpt>
      <trkpt lat="43.39795" lon="6.65006">
        <ele>244.9</ele>
        <time>2022-10-09T10:44:07Z</time>
      </trkpt>
      <trkpt lat="43.39795" lon="6.65005">
        <ele>245</ele>
        <time>2022-10-09T10:44:08Z</time>
      </trkpt>
      <trkpt lat="43.39797" lon="6.65005">
        <ele>245.2</ele>
        <time>2022-10-09T10:44:09Z</time>
      </trkpt>
      <trkpt lat="43.39797" lon="6.65006">
        <ele>245.3</ele>
        <time>2022-10-09T10:44:10Z</time>
      </trkpt>
      <trkpt lat="43.39798" lon="6.65006">
        <ele>245.4</ele>
        <time>2022-10-09T10:44:11Z</time>
      </trkpt>
      <trkpt lat="43.39799" lon="6.65006">
        <ele>245.6</ele>
        <time>2022-10-09T10:44:12Z</time>
      </trkpt>
      <trkpt lat="43.398" lon="6.65006">
        <ele>245.7</ele>
        <time>2022-10-09T10:44:13Z</time>
      </trkpt>
      <trkpt lat="43.39801" lon="6.65006">
        <ele>245.8</ele>
        <time>2022-10-09T10:44:14Z</time>
      </trkpt>
      <trkpt lat="43.39802" lon="6.65006">
        <ele>246</ele>
        <time>2022-10-09T10:44:15Z</time>
      </trkpt>
      <trkpt lat="43.39803" lon="6.65006">
        <ele>246.1</ele>
        <time>2022-10-09T10:44:16Z</time>
      </trkpt>
      <trkpt lat="43.39804" lon="6.65006">
        <ele>246.3</ele>
        <time>2022-10-09T10:44:17Z</time>
      </trkpt>
      <trkpt lat="43.39805" lon="6.65006">
        <ele>246.4</ele>
        <time>2022-10-09T10:44:18Z</time>
      </trkpt>
      <trkpt lat="43.39806" lon="6.65006">
        <ele>246.6</ele>
        <time>2022-10-09T10:44:19Z</time>
      </trkpt>
      <trkpt lat="43.39807" lon="6.65006">
        <ele>246.7</ele>
        <time>2022-10-09T10:44:20Z</time>
      </trkpt>
      <trkpt lat="43.39808" lon="6.65006">
        <ele>246.9</ele>
        <time>2022-10-09T10:44:21Z</time>
      </trkpt>
      <trkpt lat="43.39809" lon="6.65006">
        <ele>247.1</ele>
        <time>2022-10-09T10:44:22Z</time>
      </trkpt>
      <trkpt lat="43.3981" lon="6.65006">
        <ele>247.2</ele>
        <time>2022-10-09T10:44:23Z</time>
      </trkpt>
      <trkpt lat="43.39811" lon="6.65006">
        <ele>247.4</ele>
        <time>2022-10-09T10:44:24Z</time>
      </trkpt>
      <trkpt lat="43.39812" lon="6.65006">
        <ele>247.5</ele>
        <time>2022-10-09T10:44:25Z</time>
      </trkpt>
      <trkpt lat="43.39813" lon="6.65006">
        <ele>247.6</ele>
        <time>2022-10-09T10:44:26Z</time>
      </trkpt>
      <trkpt lat="43.39814" lon="6.65006">
        <ele>247.8</ele>
        <time>2022-10-09T10:44:27Z</time>
      </trkpt>
      <trkpt lat="43.39814" lon="6.65006">
        <ele>247.9</ele>
        <time>2022-10-09T10:44:28Z</time>
      </trkpt>
      <trkpt lat="43.39815" lon="6.65006">
        <ele>248.1</ele>
        <time>2022-10-09T10:44:29Z</time>
      </trkpt>
      <trkpt lat="43.39816" lon="6.65005">
        <ele>248.2</ele>
        <time>2022-10-09T10:44:30Z</time>
      </trkpt>
      <trkpt lat="43.39817" lon="6.65005">
        <ele>248.3</ele>
        <time>2022-10-09T10:44:31Z</time>
      </trkpt>
      <trkpt lat="43.39818" lon="6.65005">
        <ele>248.5</ele>
        <time>2022-10-09T10:44:32Z</time>
      </trkpt>
      <trkpt lat="43.39819" lon="6.65005">
        <ele>248.6</ele>
        <time>2022-10-09T10:44:33Z</time>
      </trkpt>
      <trkpt lat="43.3982" lon="6.65004">
        <ele>248.8</ele>
        <time>2022-10-09T10:44:34Z</time>
      </trkpt>
      <trkpt lat="43.3982" lon="6.65004">
        <ele>248.9</ele>
        <time>2022-10-09T10:44:35Z</time>
      </trkpt>
      <trkpt lat="43.39821" lon="6.65004">
        <ele>249.1</ele>
        <time>2022-10-09T10:44:36Z</time>
      </trkpt>
      <trkpt lat="43.39822" lon="6.65004">
        <ele>249.2</ele>
        <time>2022-10-09T10:44:37Z</time>
      </trkpt>
      <trkpt lat="43.39823" lon="6.65003">
        <ele>249.4</ele>
        <time>2022-10-09T10:44:38Z</time>
      </trkpt>
      <trkpt lat="43.39824" lon="6.65003">
        <ele>249.5</ele>
        <time>2022-10-09T10:44:39Z</time>
      </trkpt>
      <trkpt lat="43.39824" lon="6.65002">
        <ele>249.6</ele>
        <time>2022-10-09T10:44:40Z</time>
      </trkpt>
      <trkpt lat="43.39825" lon="6.65002">
        <ele>249.8</ele>
        <time>2022-10-09T10:44:41Z</time>
      </trkpt>
      <trkpt lat="43.39826" lon="6.65001">
        <ele>249.9</ele>
        <time>2022-10-09T10:44:42Z</time>
      </trkpt>
      <trkpt lat="43.39827" lon="6.65001">
        <ele>250.1</ele>
        <time>2022-10-09T10:44:43Z</time>
      </trkpt>
      <trkpt lat="43.39828" lon="6.65001">
        <ele>250.2</ele>
        <time>2022-10-09T10:44:44Z</time>
      </trkpt>
      <trkpt lat="43.39828" lon="6.65">
        <ele>250.3</ele>
        <time>2022-10-09T10:44:45Z</time>
      </trkpt>
      <trkpt lat="43.39829" lon="6.64999">
        <ele>250.4</ele>
        <time>2022-10-09T10:44:46Z</time>
      </trkpt>
      <trkpt lat="43.39829" lon="6.64999">
        <ele>250.6</ele>
        <time>2022-10-09T10:44:47Z</time>
      </trkpt>
      <trkpt lat="43.3983" lon="6.64998">
        <ele>250.7</ele>
        <time>2022-10-09T10:44:48Z</time>
      </trkpt>
      <trkpt lat="43.39831" lon="6.64998">
        <ele>250.8</ele>
        <time>2022-10-09T10:44:49Z</time>
      </trkpt>
      <trkpt lat="43.39832" lon="6.64997">
        <ele>251</ele>
        <time>2022-10-09T10:44:50Z</time>
      </trkpt>
      <trkpt lat="43.39832" lon="6.64997">
        <ele>251.2</ele>
        <time>2022-10-09T10:44:51Z</time>
      </trkpt>
      <trkpt lat="43.39833" lon="6.64996">
        <ele>251.3</ele>
        <time>2022-10-09T10:44:52Z</time>
      </trkpt>
      <trkpt lat="43.39834" lon="6.64995">
        <ele>251.4</ele>
        <time>2022-10-09T10:44:53Z</time>
      </trkpt>
      <trkpt lat="43.39834" lon="6.64995">
        <ele>251.5</ele>
        <time>2022-10-09T10:44:54Z</time>
      </trkpt>
      <trkpt lat="43.39835" lon="6.64994">
        <ele>251.7</ele>
        <time>2022-10-09T10:44:55Z</time>
      </trkpt>
      <trkpt lat="43.39836" lon="6.64994">
        <ele>251.9</ele>
        <time>2022-10-09T10:44:56Z</time>
      </trkpt>
      <trkpt lat="43.39837" lon="6.64993">
        <ele>252</ele>
        <time>2022-10-09T10:44:57Z</time>
      </trkpt>
      <trkpt lat="43.39838" lon="6.64993">
        <ele>252.2</ele>
        <time>2022-10-09T10:44:58Z</time>
      </trkpt>
      <trkpt lat="43.39839" lon="6.64992">
        <ele>252.3</ele>
        <time>2022-10-09T10:44:59Z</time>
      </trkpt>
      <trkpt lat="43.39839" lon="6.64992">
        <ele>252.5</ele>
        <time>2022-10-09T10:45:00Z</time>
      </trkpt>
      <trkpt lat="43.3984" lon="6.64991">
        <ele>252.6</ele>
        <time>2022-10-09T10:45:01Z</time>
      </trkpt>
      <trkpt lat="43.39841" lon="6.64991">
        <ele>252.7</ele>
        <time>2022-10-09T10:45:02Z</time>
      </trkpt>
      <trkpt lat="43.39841" lon="6.64991">
        <ele>252.9</ele>
        <time>2022-10-09T10:45:03Z</time>
      </trkpt>
      <trkpt lat="43.39842" lon="6.6499">
        <ele>253</ele>
        <time>2022-10-09T10:45:04Z</time>
      </trkpt>
      <trkpt lat="43.39843" lon="6.64989">
        <ele>253.2</ele>
        <time>2022-10-09T10:45:05Z</time>
      </trkpt>
      <trkpt lat="43.39844" lon="6.64989">
        <ele>253.4</ele>
        <time>2022-10-09T10:45:06Z</time>
      </trkpt>
      <trkpt lat="43.39845" lon="6.64988">
        <ele>253.5</ele>
        <time>2022-10-09T10:45:07Z</time>
      </trkpt>
      <trkpt lat="43.39846" lon="6.64987">
        <ele>253.7</ele>
        <time>2022-10-09T10:45:08Z</time>
      </trkpt>
      <trkpt lat="43.39847" lon="6.64987">
        <ele>253.9</ele>
        <time>2022-10-09T10:45:09Z</time>
      </trkpt>
      <trkpt lat="43.39848" lon="6.64987">
        <ele>254.1</ele>
        <time>2022-10-09T10:45:10Z</time>
      </trkpt>
      <trkpt lat="43.39849" lon="6.64986">
        <ele>254.2</ele>
        <time>2022-10-09T10:45:11Z</time>
      </trkpt>
      <trkpt lat="43.3985" lon="6.64985">
        <ele>254.4</ele>
        <time>2022-10-09T10:45:12Z</time>
      </trkpt>
      <trkpt lat="43.39851" lon="6.64985">
        <ele>254.6</ele>
        <time>2022-10-09T10:45:13Z</time>
      </trkpt>
      <trkpt lat="43.39852" lon="6.64984">
        <ele>254.7</ele>
        <time>2022-10-09T10:45:14Z</time>
      </trkpt>
      <trkpt lat="43.39852" lon="6.64983">
        <ele>254.9</ele>
        <time>2022-10-09T10:45:15Z</time>
      </trkpt>
      <trkpt lat="43.39853" lon="6.64983">
        <ele>255</ele>
        <time>2022-10-09T10:45:16Z</time>
      </trkpt>
      <trkpt lat="43.39854" lon="6.64982">
        <ele>255.2</ele>
        <time>2022-10-09T10:45:17Z</time>
      </trkpt>
      <trkpt lat="43.39855" lon="6.64982">
        <ele>255.3</ele>
        <time>2022-10-09T10:45:18Z</time>
      </trkpt>
      <trkpt lat="43.39856" lon="6.64981">
        <ele>255.4</ele>
        <time>2022-10-09T10:45:19Z</time>
      </trkpt>
      <trkpt lat="43.39857" lon="6.64981">
        <ele>255.6</ele>
        <time>2022-10-09T10:45:20Z</time>
      </trkpt>
      <trkpt lat="43.39857" lon="6.6498">
        <ele>255.7</ele>
        <time>2022-10-09T10:45:21Z</time>
      </trkpt>
      <trkpt lat="43.39858" lon="6.64979">
        <ele>255.9</ele>
        <time>2022-10-09T10:45:22Z</time>
      </trkpt>
      <trkpt lat="43.39859" lon="6.64978">
        <ele>256</ele>
        <time>2022-10-09T10:45:23Z</time>
      </trkpt>
      <trkpt lat="43.3986" lon="6.64978">
        <ele>256.2</ele>
        <time>2022-10-09T10:45:24Z</time>
      </trkpt>
      <trkpt lat="43.39861" lon="6.64977">
        <ele>256.3</ele>
        <time>2022-10-09T10:45:25Z</time>
      </trkpt>
      <trkpt lat="43.39862" lon="6.64976">
        <ele>256.5</ele>
        <time>2022-10-09T10:45:26Z</time>
      </trkpt>
      <trkpt lat="43.39863" lon="6.64976">
        <ele>256.7</ele>
        <time>2022-10-09T10:45:27Z</time>
      </trkpt>
      <trkpt lat="43.39864" lon="6.64975">
        <ele>256.8</ele>
        <time>2022-10-09T10:45:28Z</time>
      </trkpt>
      <trkpt lat="43.39865" lon="6.64974">
        <ele>257</ele>
        <time>2022-10-09T10:45:29Z</time>
      </trkpt>
      <trkpt lat="43.39866" lon="6.64973">
        <ele>257.1</ele>
        <time>2022-10-09T10:45:30Z</time>
      </trkpt>
      <trkpt lat="43.39867" lon="6.64972">
        <ele>257.3</ele>
        <time>2022-10-09T10:45:31Z</time>
      </trkpt>
      <trkpt lat="43.39868" lon="6.64972">
        <ele>257.5</ele>
        <time>2022-10-09T10:45:32Z</time>
      </trkpt>
      <trkpt lat="43.39869" lon="6.64971">
        <ele>257.6</ele>
        <time>2022-10-09T10:45:33Z</time>
      </trkpt>
      <trkpt lat="43.39869" lon="6.64971">
        <ele>257.7</ele>
        <time>2022-10-09T10:45:34Z</time>
      </trkpt>
      <trkpt lat="43.3987" lon="6.6497">
        <ele>257.9</ele>
        <time>2022-10-09T10:45:35Z</time>
      </trkpt>
      <trkpt lat="43.39871" lon="6.64969">
        <ele>258.1</ele>
        <time>2022-10-09T10:45:36Z</time>
      </trkpt>
      <trkpt lat="43.39873" lon="6.64969">
        <ele>258.3</ele>
        <time>2022-10-09T10:45:37Z</time>
      </trkpt>
      <trkpt lat="43.39874" lon="6.64969">
        <ele>258.4</ele>
        <time>2022-10-09T10:45:38Z</time>
      </trkpt>
      <trkpt lat="43.39875" lon="6.64968">
        <ele>258.6</ele>
        <time>2022-10-09T10:45:39Z</time>
      </trkpt>
      <trkpt lat="43.39876" lon="6.64968">
        <ele>258.8</ele>
        <time>2022-10-09T10:45:40Z</time>
      </trkpt>
      <trkpt lat="43.39877" lon="6.64967">
        <ele>258.9</ele>
        <time>2022-10-09T10:45:41Z</time>
      </trkpt>
      <trkpt lat="43.39878" lon="6.64967">
        <ele>259</ele>
        <time>2022-10-09T10:45:42Z</time>
      </trkpt>
      <trkpt lat="43.39878" lon="6.64967">
        <ele>259.2</ele>
        <time>2022-10-09T10:45:43Z</time>
      </trkpt>
      <trkpt lat="43.39879" lon="6.64966">
        <ele>259.3</ele>
        <time>2022-10-09T10:45:44Z</time>
      </trkpt>
      <trkpt lat="43.3988" lon="6.64966">
        <ele>259.5</ele>
        <time>2022-10-09T10:45:45Z</time>
      </trkpt>
      <trkpt lat="43.39881" lon="6.64965">
        <ele>259.6</ele>
        <time>2022-10-09T10:45:46Z</time>
      </trkpt>
      <trkpt lat="43.39882" lon="6.64965">
        <ele>259.7</ele>
        <time>2022-10-09T10:45:47Z</time>
      </trkpt>
      <trkpt lat="43.39883" lon="6.64964">
        <ele>259.9</ele>
        <time>2022-10-09T10:45:48Z</time>
      </trkpt>
      <trkpt lat="43.39884" lon="6.64964">
        <ele>260</ele>
        <time>2022-10-09T10:45:49Z</time>
      </trkpt>
      <trkpt lat="43.39885" lon="6.64963">
        <ele>260.2</ele>
        <time>2022-10-09T10:45:50Z</time>
      </trkpt>
      <trkpt lat="43.39886" lon="6.64963">
        <ele>260.3</ele>
        <time>2022-10-09T10:45:51Z</time>
      </trkpt>
      <trkpt lat="43.39887" lon="6.64962">
        <ele>260.5</ele>
        <time>2022-10-09T10:45:52Z</time>
      </trkpt>
      <trkpt lat="43.39888" lon="6.64962">
        <ele>260.6</ele>
        <time>2022-10-09T10:45:53Z</time>
      </trkpt>
      <trkpt lat="43.39889" lon="6.64962">
        <ele>260.7</ele>
        <time>2022-10-09T10:45:54Z</time>
      </trkpt>
      <trkpt lat="43.39891" lon="6.64961">
        <ele>261</ele>
        <time>2022-10-09T10:45:55Z</time>
      </trkpt>
      <trkpt lat="43.39892" lon="6.64961">
        <ele>261.1</ele>
        <time>2022-10-09T10:45:56Z</time>
      </trkpt>
      <trkpt lat="43.39893" lon="6.64961">
        <ele>261.3</ele>
        <time>2022-10-09T10:45:57Z</time>
      </trkpt>
      <trkpt lat="43.39894" lon="6.6496">
        <ele>261.4</ele>
        <time>2022-10-09T10:45:58Z</time>
      </trkpt>
      <trkpt lat="43.39895" lon="6.6496">
        <ele>261.6</ele>
        <time>2022-10-09T10:45:59Z</time>
      </trkpt>
      <trkpt lat="43.39896" lon="6.6496">
        <ele>261.7</ele>
        <time>2022-10-09T10:46:00Z</time>
      </trkpt>
      <trkpt lat="43.39897" lon="6.64959">
        <ele>261.8</ele>
        <time>2022-10-09T10:46:01Z</time>
      </trkpt>
      <trkpt lat="43.39898" lon="6.64959">
        <ele>261.9</ele>
        <time>2022-10-09T10:46:02Z</time>
      </trkpt>
      <trkpt lat="43.39899" lon="6.64959">
        <ele>262.1</ele>
        <time>2022-10-09T10:46:03Z</time>
      </trkpt>
      <trkpt lat="43.399" lon="6.64959">
        <ele>262.2</ele>
        <time>2022-10-09T10:46:04Z</time>
      </trkpt>
      <trkpt lat="43.39901" lon="6.64958">
        <ele>262.4</ele>
        <time>2022-10-09T10:46:05Z</time>
      </trkpt>
      <trkpt lat="43.39902" lon="6.64958">
        <ele>262.6</ele>
        <time>2022-10-09T10:46:06Z</time>
      </trkpt>
      <trkpt lat="43.39903" lon="6.64958">
        <ele>262.7</ele>
        <time>2022-10-09T10:46:07Z</time>
      </trkpt>
      <trkpt lat="43.39904" lon="6.64958">
        <ele>262.8</ele>
        <time>2022-10-09T10:46:08Z</time>
      </trkpt>
      <trkpt lat="43.39906" lon="6.64958">
        <ele>263</ele>
        <time>2022-10-09T10:46:09Z</time>
      </trkpt>
      <trkpt lat="43.39907" lon="6.64958">
        <ele>263.2</ele>
        <time>2022-10-09T10:46:10Z</time>
      </trkpt>
      <trkpt lat="43.39908" lon="6.64958">
        <ele>263.4</ele>
        <time>2022-10-09T10:46:11Z</time>
      </trkpt>
      <trkpt lat="43.39909" lon="6.64957">
        <ele>263.5</ele>
        <time>2022-10-09T10:46:12Z</time>
      </trkpt>
      <trkpt lat="43.3991" lon="6.64956">
        <ele>263.7</ele>
        <time>2022-10-09T10:46:13Z</time>
      </trkpt>
      <trkpt lat="43.39911" lon="6.64956">
        <ele>263.9</ele>
        <time>2022-10-09T10:46:14Z</time>
      </trkpt>
      <trkpt lat="43.39912" lon="6.64955">
        <ele>264</ele>
        <time>2022-10-09T10:46:15Z</time>
      </trkpt>
      <trkpt lat="43.39913" lon="6.64955">
        <ele>264.2</ele>
        <time>2022-10-09T10:46:16Z</time>
      </trkpt>
      <trkpt lat="43.39914" lon="6.64955">
        <ele>264.3</ele>
        <time>2022-10-09T10:46:17Z</time>
      </trkpt>
      <trkpt lat="43.39914" lon="6.64955">
        <ele>264.4</ele>
        <time>2022-10-09T10:46:18Z</time>
      </trkpt>
      <trkpt lat="43.39915" lon="6.64955">
        <ele>264.6</ele>
        <time>2022-10-09T10:46:19Z</time>
      </trkpt>
      <trkpt lat="43.39916" lon="6.64955">
        <ele>264.7</ele>
        <time>2022-10-09T10:46:20Z</time>
      </trkpt>
      <trkpt lat="43.39917" lon="6.64954">
        <ele>264.9</ele>
        <time>2022-10-09T10:46:21Z</time>
      </trkpt>
      <trkpt lat="43.39918" lon="6.64954">
        <ele>265.1</ele>
        <time>2022-10-09T10:46:22Z</time>
      </trkpt>
      <trkpt lat="43.39919" lon="6.64953">
        <ele>265.2</ele>
        <time>2022-10-09T10:46:23Z</time>
      </trkpt>
      <trkpt lat="43.3992" lon="6.64952">
        <ele>265.4</ele>
        <time>2022-10-09T10:46:24Z</time>
      </trkpt>
      <trkpt lat="43.3992" lon="6.64951">
        <ele>265.6</ele>
        <time>2022-10-09T10:46:25Z</time>
      </trkpt>
      <trkpt lat="43.39921" lon="6.64951">
        <ele>265.7</ele>
        <time>2022-10-09T10:46:26Z</time>
      </trkpt>
      <trkpt lat="43.39922" lon="6.6495">
        <ele>265.9</ele>
        <time>2022-10-09T10:46:27Z</time>
      </trkpt>
      <trkpt lat="43.39922" lon="6.64949">
        <ele>266</ele>
        <time>2022-10-09T10:46:28Z</time>
      </trkpt>
      <trkpt lat="43.39923" lon="6.64949">
        <ele>266.2</ele>
        <time>2022-10-09T10:46:29Z</time>
      </trkpt>
      <trkpt lat="43.39923" lon="6.64948">
        <ele>266.3</ele>
        <time>2022-10-09T10:46:30Z</time>
      </trkpt>
      <trkpt lat="43.39924" lon="6.64948">
        <ele>266.4</ele>
        <time>2022-10-09T10:46:31Z</time>
      </trkpt>
      <trkpt lat="43.39925" lon="6.64947">
        <ele>266.6</ele>
        <time>2022-10-09T10:46:32Z</time>
      </trkpt>
      <trkpt lat="43.39925" lon="6.64947">
        <ele>266.7</ele>
        <time>2022-10-09T10:46:33Z</time>
      </trkpt>
      <trkpt lat="43.39926" lon="6.64946">
        <ele>266.8</ele>
        <time>2022-10-09T10:46:34Z</time>
      </trkpt>
      <trkpt lat="43.39926" lon="6.64946">
        <ele>266.9</ele>
        <time>2022-10-09T10:46:35Z</time>
      </trkpt>
      <trkpt lat="43.39927" lon="6.64945">
        <ele>267</ele>
        <time>2022-10-09T10:46:36Z</time>
      </trkpt>
      <trkpt lat="43.39927" lon="6.64945">
        <ele>267.1</ele>
        <time>2022-10-09T10:46:37Z</time>
      </trkpt>
      <trkpt lat="43.39927" lon="6.64944">
        <ele>267.2</ele>
        <time>2022-10-09T10:46:38Z</time>
      </trkpt>
      <trkpt lat="43.39928" lon="6.64944">
        <ele>267.3</ele>
        <time>2022-10-09T10:46:39Z</time>
      </trkpt>
      <trkpt lat="43.39928" lon="6.64944">
        <ele>267.4</ele>
        <time>2022-10-09T10:46:40Z</time>
      </trkpt>
      <trkpt lat="43.3993" lon="6.64943">
        <ele>267.7</ele>
        <time>2022-10-09T10:46:41Z</time>
      </trkpt>
      <trkpt lat="43.3993" lon="6.64943">
        <ele>267.9</ele>
        <time>2022-10-09T10:46:42Z</time>
      </trkpt>
      <trkpt lat="43.39931" lon="6.64942">
        <ele>268</ele>
        <time>2022-10-09T10:46:43Z</time>
      </trkpt>
      <trkpt lat="43.39932" lon="6.64941">
        <ele>268.2</ele>
        <time>2022-10-09T10:46:44Z</time>
      </trkpt>
      <trkpt lat="43.39933" lon="6.64941">
        <ele>268.4</ele>
        <time>2022-10-09T10:46:45Z</time>
      </trkpt>
      <trkpt lat="43.39933" lon="6.64941">
        <ele>268.5</ele>
        <time>2022-10-09T10:46:46Z</time>
      </trkpt>
      <trkpt lat="43.39934" lon="6.6494">
        <ele>268.7</ele>
        <time>2022-10-09T10:46:47Z</time>
      </trkpt>
      <trkpt lat="43.39935" lon="6.64939">
        <ele>268.9</ele>
        <time>2022-10-09T10:46:48Z</time>
      </trkpt>
      <trkpt lat="43.39936" lon="6.64939">
        <ele>269</ele>
        <time>2022-10-09T10:46:49Z</time>
      </trkpt>
      <trkpt lat="43.39936" lon="6.64939">
        <ele>269.2</ele>
        <time>2022-10-09T10:46:50Z</time>
      </trkpt>
      <trkpt lat="43.39937" lon="6.64938">
        <ele>269.3</ele>
        <time>2022-10-09T10:46:51Z</time>
      </trkpt>
      <trkpt lat="43.39938" lon="6.64938">
        <ele>269.5</ele>
        <time>2022-10-09T10:46:52Z</time>
      </trkpt>
      <trkpt lat="43.39939" lon="6.64937">
        <ele>269.7</ele>
        <time>2022-10-09T10:46:53Z</time>
      </trkpt>
      <trkpt lat="43.39939" lon="6.64937">
        <ele>269.8</ele>
        <time>2022-10-09T10:46:54Z</time>
      </trkpt>
      <trkpt lat="43.3994" lon="6.64937">
        <ele>270</ele>
        <time>2022-10-09T10:46:55Z</time>
      </trkpt>
      <trkpt lat="43.39941" lon="6.64936">
        <ele>270.1</ele>
        <time>2022-10-09T10:46:56Z</time>
      </trkpt>
      <trkpt lat="43.39942" lon="6.64936">
        <ele>270.3</ele>
        <time>2022-10-09T10:46:57Z</time>
      </trkpt>
      <trkpt lat="43.39942" lon="6.64936">
        <ele>270.4</ele>
        <time>2022-10-09T10:46:58Z</time>
      </trkpt>
      <trkpt lat="43.39943" lon="6.64936">
        <ele>270.6</ele>
        <time>2022-10-09T10:46:59Z</time>
      </trkpt>
      <trkpt lat="43.39944" lon="6.64935">
        <ele>270.7</ele>
        <time>2022-10-09T10:47:00Z</time>
      </trkpt>
      <trkpt lat="43.39945" lon="6.64935">
        <ele>270.9</ele>
        <time>2022-10-09T10:47:01Z</time>
      </trkpt>
      <trkpt lat="43.39946" lon="6.64935">
        <ele>271.1</ele>
        <time>2022-10-09T10:47:02Z</time>
      </trkpt>
      <trkpt lat="43.39947" lon="6.64935">
        <ele>271.3</ele>
        <time>2022-10-09T10:47:03Z</time>
      </trkpt>
      <trkpt lat="43.39947" lon="6.64935">
        <ele>271.4</ele>
        <time>2022-10-09T10:47:04Z</time>
      </trkpt>
      <trkpt lat="43.39948" lon="6.64935">
        <ele>271.6</ele>
        <time>2022-10-09T10:47:05Z</time>
      </trkpt>
      <trkpt lat="43.39949" lon="6.64935">
        <ele>271.7</ele>
        <time>2022-10-09T10:47:06Z</time>
      </trkpt>
      <trkpt lat="43.3995" lon="6.64935">
        <ele>271.9</ele>
        <time>2022-10-09T10:47:07Z</time>
      </trkpt>
      <trkpt lat="43.39951" lon="6.64935">
        <ele>272.1</ele>
        <time>2022-10-09T10:47:08Z</time>
      </trkpt>
      <trkpt lat="43.39952" lon="6.64936">
        <ele>272.3</ele>
        <time>2022-10-09T10:47:09Z</time>
      </trkpt>
      <trkpt lat="43.39953" lon="6.64936">
        <ele>272.5</ele>
        <time>2022-10-09T10:47:10Z</time>
      </trkpt>
      <trkpt lat="43.39953" lon="6.64936">
        <ele>272.6</ele>
        <time>2022-10-09T10:47:11Z</time>
      </trkpt>
      <trkpt lat="43.39954" lon="6.64936">
        <ele>272.8</ele>
        <time>2022-10-09T10:47:12Z</time>
      </trkpt>
      <trkpt lat="43.39955" lon="6.64936">
        <ele>273</ele>
        <time>2022-10-09T10:47:13Z</time>
      </trkpt>
      <trkpt lat="43.39956" lon="6.64937">
        <ele>273.2</ele>
        <time>2022-10-09T10:47:14Z</time>
      </trkpt>
      <trkpt lat="43.39957" lon="6.64937">
        <ele>273.3</ele>
        <time>2022-10-09T10:47:15Z</time>
      </trkpt>
      <trkpt lat="43.39958" lon="6.64937">
        <ele>273.5</ele>
        <time>2022-10-09T10:47:16Z</time>
      </trkpt>
      <trkpt lat="43.39958" lon="6.64937">
        <ele>273.7</ele>
        <time>2022-10-09T10:47:17Z</time>
      </trkpt>
      <trkpt lat="43.39959" lon="6.64937">
        <ele>273.8</ele>
        <time>2022-10-09T10:47:18Z</time>
      </trkpt>
      <trkpt lat="43.3996" lon="6.64937">
        <ele>274</ele>
        <time>2022-10-09T10:47:19Z</time>
      </trkpt>
      <trkpt lat="43.3996" lon="6.64937">
        <ele>274.2</ele>
        <time>2022-10-09T10:47:20Z</time>
      </trkpt>
      <trkpt lat="43.39961" lon="6.64937">
        <ele>274.3</ele>
        <time>2022-10-09T10:47:21Z</time>
      </trkpt>
      <trkpt lat="43.39962" lon="6.64937">
        <ele>274.5</ele>
        <time>2022-10-09T10:47:22Z</time>
      </trkpt>
      <trkpt lat="43.39963" lon="6.64936">
        <ele>274.7</ele>
        <time>2022-10-09T10:47:23Z</time>
      </trkpt>
      <trkpt lat="43.39963" lon="6.64936">
        <ele>274.9</ele>
        <time>2022-10-09T10:47:24Z</time>
      </trkpt>
      <trkpt lat="43.39964" lon="6.64936">
        <ele>275</ele>
        <time>2022-10-09T10:47:25Z</time>
      </trkpt>
      <trkpt lat="43.39964" lon="6.64935">
        <ele>275.1</ele>
        <time>2022-10-09T10:47:26Z</time>
      </trkpt>
      <trkpt lat="43.39965" lon="6.64935">
        <ele>275.3</ele>
        <time>2022-10-09T10:47:27Z</time>
      </trkpt>
      <trkpt lat="43.39966" lon="6.64935">
        <ele>275.4</ele>
        <time>2022-10-09T10:47:28Z</time>
      </trkpt>
      <trkpt lat="43.39966" lon="6.64935">
        <ele>275.6</ele>
        <time>2022-10-09T10:47:29Z</time>
      </trkpt>
      <trkpt lat="43.39967" lon="6.64935">
        <ele>275.7</ele>
        <time>2022-10-09T10:47:30Z</time>
      </trkpt>
      <trkpt lat="43.40092" lon="6.64875">
        <ele>303.1</ele>
        <time>2022-10-09T10:51:09Z</time>
      </trkpt>
      <trkpt lat="43.40095" lon="6.64873">
        <ele>303.3</ele>
        <time>2022-10-09T10:51:11Z</time>
      </trkpt>
      <trkpt lat="43.40103" lon="6.64867">
        <ele>303.8</ele>
        <time>2022-10-09T10:51:16Z</time>
      </trkpt>
      <trkpt lat="43.40104" lon="6.64866">
        <ele>303.9</ele>
        <time>2022-10-09T10:51:17Z</time>
      </trkpt>
      <trkpt lat="43.40106" lon="6.64864">
        <ele>303.9</ele>
        <time>2022-10-09T10:51:18Z</time>
      </trkpt>
      <trkpt lat="43.40107" lon="6.64863">
        <ele>304</ele>
        <time>2022-10-09T10:51:19Z</time>
      </trkpt>
      <trkpt lat="43.40108" lon="6.64861">
        <ele>304.1</ele>
        <time>2022-10-09T10:51:20Z</time>
      </trkpt>
      <trkpt lat="43.40121" lon="6.64844">
        <ele>304.5</ele>
        <time>2022-10-09T10:51:28Z</time>
      </trkpt>
      <trkpt lat="43.40133" lon="6.64824">
        <ele>304.3</ele>
        <time>2022-10-09T10:51:33Z</time>
      </trkpt>
      <trkpt lat="43.40136" lon="6.64819">
        <ele>304.1</ele>
        <time>2022-10-09T10:51:34Z</time>
      </trkpt>
      <trkpt lat="43.40154" lon="6.64789">
        <ele>302.8</ele>
        <time>2022-10-09T10:51:39Z</time>
      </trkpt>
      <trkpt lat="43.40158" lon="6.64782">
        <ele>302.3</ele>
        <time>2022-10-09T10:51:40Z</time>
      </trkpt>
      <trkpt lat="43.40164" lon="6.64776">
        <ele>301.8</ele>
        <time>2022-10-09T10:51:41Z</time>
      </trkpt>
      <trkpt lat="43.40178" lon="6.64766">
        <ele>300.7</ele>
        <time>2022-10-09T10:51:43Z</time>
      </trkpt>
      <trkpt lat="43.40186" lon="6.64763">
        <ele>300</ele>
        <time>2022-10-09T10:51:44Z</time>
      </trkpt>
      <trkpt lat="43.40194" lon="6.6476">
        <ele>299.3</ele>
        <time>2022-10-09T10:51:45Z</time>
      </trkpt>
      <trkpt lat="43.40202" lon="6.64759">
        <ele>298.7</ele>
        <time>2022-10-09T10:51:46Z</time>
      </trkpt>
      <trkpt lat="43.4021" lon="6.64757">
        <ele>298.1</ele>
        <time>2022-10-09T10:51:47Z</time>
      </trkpt>
      <trkpt lat="43.40217" lon="6.64756">
        <ele>297.6</ele>
        <time>2022-10-09T10:51:48Z</time>
      </trkpt>
      <trkpt lat="43.40225" lon="6.64755">
        <ele>297.2</ele>
        <time>2022-10-09T10:51:49Z</time>
      </trkpt>
      <trkpt lat="43.40233" lon="6.64754">
        <ele>296.9</ele>
        <time>2022-10-09T10:51:50Z</time>
      </trkpt>
      <trkpt lat="43.4024" lon="6.64753">
        <ele>296.6</ele>
        <time>2022-10-09T10:51:51Z</time>
      </trkpt>
      <trkpt lat="43.40248" lon="6.64752">
        <ele>296.2</ele>
        <time>2022-10-09T10:51:52Z</time>
      </trkpt>
      <trkpt lat="43.40255" lon="6.64751">
        <ele>296</ele>
        <time>2022-10-09T10:51:53Z</time>
      </trkpt>
      <trkpt lat="43.40262" lon="6.64751">
        <ele>295.8</ele>
        <time>2022-10-09T10:51:54Z</time>
      </trkpt>
      <trkpt lat="43.40268" lon="6.6475">
        <ele>295.6</ele>
        <time>2022-10-09T10:51:55Z</time>
      </trkpt>
      <trkpt lat="43.40274" lon="6.64749">
        <ele>295.6</ele>
        <time>2022-10-09T10:51:56Z</time>
      </trkpt>
      <trkpt lat="43.4028" lon="6.64748">
        <ele>295.7</ele>
        <time>2022-10-09T10:51:57Z</time>
      </trkpt>
      <trkpt lat="43.40285" lon="6.64748">
        <ele>295.8</ele>
        <time>2022-10-09T10:51:58Z</time>
      </trkpt>
      <trkpt lat="43.4029" lon="6.64747">
        <ele>295.9</ele>
        <time>2022-10-09T10:51:59Z</time>
      </trkpt>
      <trkpt lat="43.403" lon="6.64744">
        <ele>296.2</ele>
        <time>2022-10-09T10:52:01Z</time>
      </trkpt>
      <trkpt lat="43.40305" lon="6.64743">
        <ele>296.3</ele>
        <time>2022-10-09T10:52:02Z</time>
      </trkpt>
      <trkpt lat="43.4031" lon="6.64742">
        <ele>296.3</ele>
        <time>2022-10-09T10:52:03Z</time>
      </trkpt>
      <trkpt lat="43.40314" lon="6.64742">
        <ele>296.3</ele>
        <time>2022-10-09T10:52:04Z</time>
      </trkpt>
      <trkpt lat="43.40319" lon="6.64742">
        <ele>296.3</ele>
        <time>2022-10-09T10:52:05Z</time>
      </trkpt>
      <trkpt lat="43.40329" lon="6.64743">
        <ele>295.9</ele>
        <time>2022-10-09T10:52:07Z</time>
      </trkpt>
      <trkpt lat="43.40335" lon="6.64744">
        <ele>295.6</ele>
        <time>2022-10-09T10:52:08Z</time>
      </trkpt>
      <trkpt lat="43.40347" lon="6.64747">
        <ele>294.9</ele>
        <time>2022-10-09T10:52:10Z</time>
      </trkpt>
      <trkpt lat="43.40361" lon="6.64752">
        <ele>294.2</ele>
        <time>2022-10-09T10:52:12Z</time>
      </trkpt>
      <trkpt lat="43.40368" lon="6.64755">
        <ele>293.9</ele>
        <time>2022-10-09T10:52:13Z</time>
      </trkpt>
      <trkpt lat="43.40383" lon="6.64761">
        <ele>293.5</ele>
        <time>2022-10-09T10:52:15Z</time>
      </trkpt>
      <trkpt lat="43.4039" lon="6.64764">
        <ele>293.4</ele>
        <time>2022-10-09T10:52:16Z</time>
      </trkpt>
      <trkpt lat="43.40397" lon="6.64767">
        <ele>293.4</ele>
        <time>2022-10-09T10:52:17Z</time>
      </trkpt>
      <trkpt lat="43.40403" lon="6.6477">
        <ele>293.4</ele>
        <time>2022-10-09T10:52:18Z</time>
      </trkpt>
      <trkpt lat="43.4041" lon="6.64772">
        <ele>293.4</ele>
        <time>2022-10-09T10:52:19Z</time>
      </trkpt>
      <trkpt lat="43.40416" lon="6.64773">
        <ele>293.3</ele>
        <time>2022-10-09T10:52:20Z</time>
      </trkpt>
      <trkpt lat="43.40422" lon="6.64773">
        <ele>293.1</ele>
        <time>2022-10-09T10:52:21Z</time>
      </trkpt>
      <trkpt lat="43.40443" lon="6.64776">
        <ele>292.2</ele>
        <time>2022-10-09T10:52:24Z</time>
      </trkpt>
      <trkpt lat="43.40451" lon="6.64778">
        <ele>291.8</ele>
        <time>2022-10-09T10:52:25Z</time>
      </trkpt>
      <trkpt lat="43.40458" lon="6.64779">
        <ele>291.5</ele>
        <time>2022-10-09T10:52:26Z</time>
      </trkpt>
      <trkpt lat="43.40466" lon="6.64781">
        <ele>291.1</ele>
        <time>2022-10-09T10:52:27Z</time>
      </trkpt>
      <trkpt lat="43.40482" lon="6.64785">
        <ele>290.4</ele>
        <time>2022-10-09T10:52:29Z</time>
      </trkpt>
      <trkpt lat="43.4049" lon="6.64786">
        <ele>290</ele>
        <time>2022-10-09T10:52:30Z</time>
      </trkpt>
      <trkpt lat="43.40498" lon="6.64787">
        <ele>289.6</ele>
        <time>2022-10-09T10:52:31Z</time>
      </trkpt>
      <trkpt lat="43.40505" lon="6.64789">
        <ele>289.2</ele>
        <time>2022-10-09T10:52:32Z</time>
      </trkpt>
      <trkpt lat="43.40521" lon="6.6479">
        <ele>288.3</ele>
        <time>2022-10-09T10:52:34Z</time>
      </trkpt>
      <trkpt lat="43.40529" lon="6.64791">
        <ele>287.9</ele>
        <time>2022-10-09T10:52:35Z</time>
      </trkpt>
      <trkpt lat="43.40536" lon="6.64792">
        <ele>287.6</ele>
        <time>2022-10-09T10:52:36Z</time>
      </trkpt>
      <trkpt lat="43.40544" lon="6.64793">
        <ele>287.2</ele>
        <time>2022-10-09T10:52:37Z</time>
      </trkpt>
      <trkpt lat="43.40551" lon="6.64795">
        <ele>286.8</ele>
        <time>2022-10-09T10:52:38Z</time>
      </trkpt>
      <trkpt lat="43.40566" lon="6.64798">
        <ele>286.3</ele>
        <time>2022-10-09T10:52:40Z</time>
      </trkpt>
      <trkpt lat="43.40581" lon="6.64801">
        <ele>286</ele>
        <time>2022-10-09T10:52:42Z</time>
      </trkpt>
      <trkpt lat="43.40587" lon="6.64803">
        <ele>286</ele>
        <time>2022-10-09T10:52:43Z</time>
      </trkpt>
      <trkpt lat="43.40594" lon="6.64804">
        <ele>286</ele>
        <time>2022-10-09T10:52:44Z</time>
      </trkpt>
      <trkpt lat="43.406" lon="6.64805">
        <ele>286.1</ele>
        <time>2022-10-09T10:52:45Z</time>
      </trkpt>
      <trkpt lat="43.40605" lon="6.64806">
        <ele>286.2</ele>
        <time>2022-10-09T10:52:46Z</time>
      </trkpt>
      <trkpt lat="43.4061" lon="6.64808">
        <ele>286.3</ele>
        <time>2022-10-09T10:52:47Z</time>
      </trkpt>
      <trkpt lat="43.40615" lon="6.64809">
        <ele>286.4</ele>
        <time>2022-10-09T10:52:48Z</time>
      </trkpt>
      <trkpt lat="43.4062" lon="6.6481">
        <ele>286.5</ele>
        <time>2022-10-09T10:52:49Z</time>
      </trkpt>
      <trkpt lat="43.40624" lon="6.64811">
        <ele>286.6</ele>
        <time>2022-10-09T10:52:50Z</time>
      </trkpt>
      <trkpt lat="43.40629" lon="6.64812">
        <ele>286.7</ele>
        <time>2022-10-09T10:52:51Z</time>
      </trkpt>
      <trkpt lat="43.40633" lon="6.64813">
        <ele>286.8</ele>
        <time>2022-10-09T10:52:52Z</time>
      </trkpt>
      <trkpt lat="43.40637" lon="6.64814">
        <ele>286.9</ele>
        <time>2022-10-09T10:52:53Z</time>
      </trkpt>
      <trkpt lat="43.40642" lon="6.64815">
        <ele>287</ele>
        <time>2022-10-09T10:52:54Z</time>
      </trkpt>
      <trkpt lat="43.40646" lon="6.64816">
        <ele>287.1</ele>
        <time>2022-10-09T10:52:55Z</time>
      </trkpt>
      <trkpt lat="43.40654" lon="6.64818">
        <ele>287.4</ele>
        <time>2022-10-09T10:52:57Z</time>
      </trkpt>
      <trkpt lat="43.40657" lon="6.64819">
        <ele>287.5</ele>
        <time>2022-10-09T10:52:58Z</time>
      </trkpt>
      <trkpt lat="43.40661" lon="6.6482">
        <ele>287.7</ele>
        <time>2022-10-09T10:52:59Z</time>
      </trkpt>
      <trkpt lat="43.40664" lon="6.64821">
        <ele>287.9</ele>
        <time>2022-10-09T10:53:00Z</time>
      </trkpt>
      <trkpt lat="43.40667" lon="6.64823">
        <ele>288</ele>
        <time>2022-10-09T10:53:01Z</time>
      </trkpt>
      <trkpt lat="43.40671" lon="6.64824">
        <ele>288.2</ele>
        <time>2022-10-09T10:53:02Z</time>
      </trkpt>
      <trkpt lat="43.40675" lon="6.64825">
        <ele>288.4</ele>
        <time>2022-10-09T10:53:03Z</time>
      </trkpt>
      <trkpt lat="43.40678" lon="6.64827">
        <ele>288.5</ele>
        <time>2022-10-09T10:53:04Z</time>
      </trkpt>
      <trkpt lat="43.40681" lon="6.64827">
        <ele>288.7</ele>
        <time>2022-10-09T10:53:05Z</time>
      </trkpt>
      <trkpt lat="43.40684" lon="6.64828">
        <ele>288.9</ele>
        <time>2022-10-09T10:53:06Z</time>
      </trkpt>
      <trkpt lat="43.40687" lon="6.6483">
        <ele>289</ele>
        <time>2022-10-09T10:53:07Z</time>
      </trkpt>
      <trkpt lat="43.4069" lon="6.64831">
        <ele>289.2</ele>
        <time>2022-10-09T10:53:08Z</time>
      </trkpt>
      <trkpt lat="43.40692" lon="6.64831">
        <ele>289.3</ele>
        <time>2022-10-09T10:53:09Z</time>
      </trkpt>
      <trkpt lat="43.40695" lon="6.64832">
        <ele>289.5</ele>
        <time>2022-10-09T10:53:10Z</time>
      </trkpt>
      <trkpt lat="43.40697" lon="6.64832">
        <ele>289.6</ele>
        <time>2022-10-09T10:53:11Z</time>
      </trkpt>
      <trkpt lat="43.40699" lon="6.64833">
        <ele>289.8</ele>
        <time>2022-10-09T10:53:12Z</time>
      </trkpt>
      <trkpt lat="43.40701" lon="6.64833">
        <ele>289.9</ele>
        <time>2022-10-09T10:53:13Z</time>
      </trkpt>
      <trkpt lat="43.40704" lon="6.64833">
        <ele>290</ele>
        <time>2022-10-09T10:53:14Z</time>
      </trkpt>
      <trkpt lat="43.40705" lon="6.64834">
        <ele>290.1</ele>
        <time>2022-10-09T10:53:15Z</time>
      </trkpt>
      <trkpt lat="43.40708" lon="6.64835">
        <ele>290.2</ele>
        <time>2022-10-09T10:53:16Z</time>
      </trkpt>
      <trkpt lat="43.4071" lon="6.64836">
        <ele>290.3</ele>
        <time>2022-10-09T10:53:17Z</time>
      </trkpt>
      <trkpt lat="43.40713" lon="6.64837">
        <ele>290.4</ele>
        <time>2022-10-09T10:53:18Z</time>
      </trkpt>
      <trkpt lat="43.40716" lon="6.64838">
        <ele>290.5</ele>
        <time>2022-10-09T10:53:19Z</time>
      </trkpt>
      <trkpt lat="43.40719" lon="6.64839">
        <ele>290.6</ele>
        <time>2022-10-09T10:53:20Z</time>
      </trkpt>
      <trkpt lat="43.40723" lon="6.64841">
        <ele>290.7</ele>
        <time>2022-10-09T10:53:21Z</time>
      </trkpt>
      <trkpt lat="43.40726" lon="6.64844">
        <ele>290.8</ele>
        <time>2022-10-09T10:53:22Z</time>
      </trkpt>
      <trkpt lat="43.4073" lon="6.64846">
        <ele>290.9</ele>
        <time>2022-10-09T10:53:23Z</time>
      </trkpt>
      <trkpt lat="43.40734" lon="6.6485">
        <ele>291.1</ele>
        <time>2022-10-09T10:53:24Z</time>
      </trkpt>
      <trkpt lat="43.40737" lon="6.64854">
        <ele>291.2</ele>
        <time>2022-10-09T10:53:25Z</time>
      </trkpt>
      <trkpt lat="43.4074" lon="6.64857">
        <ele>291.4</ele>
        <time>2022-10-09T10:53:26Z</time>
      </trkpt>
      <trkpt lat="43.40742" lon="6.6486">
        <ele>291.5</ele>
        <time>2022-10-09T10:53:27Z</time>
      </trkpt>
      <trkpt lat="43.40745" lon="6.64863">
        <ele>291.7</ele>
        <time>2022-10-09T10:53:28Z</time>
      </trkpt>
      <trkpt lat="43.40747" lon="6.64866">
        <ele>291.9</ele>
        <time>2022-10-09T10:53:29Z</time>
      </trkpt>
      <trkpt lat="43.40749" lon="6.64868">
        <ele>292.1</ele>
        <time>2022-10-09T10:53:30Z</time>
      </trkpt>
      <trkpt lat="43.40751" lon="6.64871">
        <ele>292.2</ele>
        <time>2022-10-09T10:53:31Z</time>
      </trkpt>
      <trkpt lat="43.40753" lon="6.64874">
        <ele>292.4</ele>
        <time>2022-10-09T10:53:32Z</time>
      </trkpt>
      <trkpt lat="43.40755" lon="6.64876">
        <ele>292.6</ele>
        <time>2022-10-09T10:53:33Z</time>
      </trkpt>
      <trkpt lat="43.40758" lon="6.64879">
        <ele>292.8</ele>
        <time>2022-10-09T10:53:34Z</time>
      </trkpt>
      <trkpt lat="43.40759" lon="6.64882">
        <ele>293</ele>
        <time>2022-10-09T10:53:35Z</time>
      </trkpt>
      <trkpt lat="43.40761" lon="6.64885">
        <ele>293.2</ele>
        <time>2022-10-09T10:53:36Z</time>
      </trkpt>
      <trkpt lat="43.40763" lon="6.64888">
        <ele>293.4</ele>
        <time>2022-10-09T10:53:37Z</time>
      </trkpt>
      <trkpt lat="43.40764" lon="6.64891">
        <ele>293.7</ele>
        <time>2022-10-09T10:53:38Z</time>
      </trkpt>
      <trkpt lat="43.40766" lon="6.64894">
        <ele>293.9</ele>
        <time>2022-10-09T10:53:39Z</time>
      </trkpt>
      <trkpt lat="43.40767" lon="6.64897">
        <ele>294.1</ele>
        <time>2022-10-09T10:53:40Z</time>
      </trkpt>
      <trkpt lat="43.40768" lon="6.64899">
        <ele>294.2</ele>
        <time>2022-10-09T10:53:41Z</time>
      </trkpt>
      <trkpt lat="43.40769" lon="6.64901">
        <ele>294.4</ele>
        <time>2022-10-09T10:53:42Z</time>
      </trkpt>
      <trkpt lat="43.4077" lon="6.64903">
        <ele>294.6</ele>
        <time>2022-10-09T10:53:43Z</time>
      </trkpt>
      <trkpt lat="43.40772" lon="6.64905">
        <ele>294.8</ele>
        <time>2022-10-09T10:53:44Z</time>
      </trkpt>
      <trkpt lat="43.40773" lon="6.64907">
        <ele>294.9</ele>
        <time>2022-10-09T10:53:45Z</time>
      </trkpt>
      <trkpt lat="43.40774" lon="6.64908">
        <ele>295.1</ele>
        <time>2022-10-09T10:53:46Z</time>
      </trkpt>
      <trkpt lat="43.40774" lon="6.6491">
        <ele>295.3</ele>
        <time>2022-10-09T10:53:47Z</time>
      </trkpt>
      <trkpt lat="43.40775" lon="6.64912">
        <ele>295.4</ele>
        <time>2022-10-09T10:53:48Z</time>
      </trkpt>
      <trkpt lat="43.40776" lon="6.64914">
        <ele>295.6</ele>
        <time>2022-10-09T10:53:49Z</time>
      </trkpt>
      <trkpt lat="43.40777" lon="6.64917">
        <ele>295.8</ele>
        <time>2022-10-09T10:53:50Z</time>
      </trkpt>
      <trkpt lat="43.40777" lon="6.64919">
        <ele>296</ele>
        <time>2022-10-09T10:53:51Z</time>
      </trkpt>
      <trkpt lat="43.40777" lon="6.64921">
        <ele>296.2</ele>
        <time>2022-10-09T10:53:52Z</time>
      </trkpt>
      <trkpt lat="43.40778" lon="6.64923">
        <ele>296.4</ele>
        <time>2022-10-09T10:53:53Z</time>
      </trkpt>
      <trkpt lat="43.40778" lon="6.64925">
        <ele>296.5</ele>
        <time>2022-10-09T10:53:54Z</time>
      </trkpt>
      <trkpt lat="43.40779" lon="6.64927">
        <ele>296.7</ele>
        <time>2022-10-09T10:53:55Z</time>
      </trkpt>
      <trkpt lat="43.40779" lon="6.64929">
        <ele>296.9</ele>
        <time>2022-10-09T10:53:56Z</time>
      </trkpt>
      <trkpt lat="43.4078" lon="6.6493">
        <ele>297</ele>
        <time>2022-10-09T10:53:57Z</time>
      </trkpt>
      <trkpt lat="43.4078" lon="6.64932">
        <ele>297.2</ele>
        <time>2022-10-09T10:53:58Z</time>
      </trkpt>
      <trkpt lat="43.4078" lon="6.64934">
        <ele>297.3</ele>
        <time>2022-10-09T10:53:59Z</time>
      </trkpt>
      <trkpt lat="43.4078" lon="6.64936">
        <ele>297.5</ele>
        <time>2022-10-09T10:54:00Z</time>
      </trkpt>
      <trkpt lat="43.40781" lon="6.64937">
        <ele>297.6</ele>
        <time>2022-10-09T10:54:01Z</time>
      </trkpt>
      <trkpt lat="43.40782" lon="6.64939">
        <ele>297.8</ele>
        <time>2022-10-09T10:54:02Z</time>
      </trkpt>
      <trkpt lat="43.40782" lon="6.64941">
        <ele>297.9</ele>
        <time>2022-10-09T10:54:03Z</time>
      </trkpt>
      <trkpt lat="43.40783" lon="6.64942">
        <ele>298.1</ele>
        <time>2022-10-09T10:54:04Z</time>
      </trkpt>
      <trkpt lat="43.40783" lon="6.64944">
        <ele>298.2</ele>
        <time>2022-10-09T10:54:05Z</time>
      </trkpt>
      <trkpt lat="43.40784" lon="6.64946">
        <ele>298.4</ele>
        <time>2022-10-09T10:54:06Z</time>
      </trkpt>
      <trkpt lat="43.40784" lon="6.64947">
        <ele>298.5</ele>
        <time>2022-10-09T10:54:07Z</time>
      </trkpt>
      <trkpt lat="43.40785" lon="6.64949">
        <ele>298.7</ele>
        <time>2022-10-09T10:54:08Z</time>
      </trkpt>
      <trkpt lat="43.40785" lon="6.64951">
        <ele>298.8</ele>
        <time>2022-10-09T10:54:09Z</time>
      </trkpt>
      <trkpt lat="43.40785" lon="6.64953">
        <ele>298.9</ele>
        <time>2022-10-09T10:54:10Z</time>
      </trkpt>
      <trkpt lat="43.40786" lon="6.64954">
        <ele>299.1</ele>
        <time>2022-10-09T10:54:11Z</time>
      </trkpt>
      <trkpt lat="43.40786" lon="6.64956">
        <ele>299.2</ele>
        <time>2022-10-09T10:54:12Z</time>
      </trkpt>
      <trkpt lat="43.40787" lon="6.64958">
        <ele>299.3</ele>
        <time>2022-10-09T10:54:13Z</time>
      </trkpt>
      <trkpt lat="43.40787" lon="6.6496">
        <ele>299.5</ele>
        <time>2022-10-09T10:54:14Z</time>
      </trkpt>
      <trkpt lat="43.40787" lon="6.64962">
        <ele>299.6</ele>
        <time>2022-10-09T10:54:15Z</time>
      </trkpt>
      <trkpt lat="43.40787" lon="6.64964">
        <ele>299.7</ele>
        <time>2022-10-09T10:54:16Z</time>
      </trkpt>
      <trkpt lat="43.40787" lon="6.64966">
        <ele>299.9</ele>
        <time>2022-10-09T10:54:17Z</time>
      </trkpt>
      <trkpt lat="43.40787" lon="6.64968">
        <ele>300</ele>
        <time>2022-10-09T10:54:18Z</time>
      </trkpt>
      <trkpt lat="43.40787" lon="6.6497">
        <ele>300.2</ele>
        <time>2022-10-09T10:54:19Z</time>
      </trkpt>
      <trkpt lat="43.40788" lon="6.64972">
        <ele>300.3</ele>
        <time>2022-10-09T10:54:20Z</time>
      </trkpt>
      <trkpt lat="43.40788" lon="6.64974">
        <ele>300.4</ele>
        <time>2022-10-09T10:54:21Z</time>
      </trkpt>
      <trkpt lat="43.40788" lon="6.64976">
        <ele>300.5</ele>
        <time>2022-10-09T10:54:22Z</time>
      </trkpt>
      <trkpt lat="43.40788" lon="6.64978">
        <ele>300.6</ele>
        <time>2022-10-09T10:54:23Z</time>
      </trkpt>
      <trkpt lat="43.40788" lon="6.6498">
        <ele>300.7</ele>
        <time>2022-10-09T10:54:24Z</time>
      </trkpt>
      <trkpt lat="43.40788" lon="6.64983">
        <ele>300.8</ele>
        <time>2022-10-09T10:54:25Z</time>
      </trkpt>
      <trkpt lat="43.40789" lon="6.64985">
        <ele>300.9</ele>
        <time>2022-10-09T10:54:26Z</time>
      </trkpt>
      <trkpt lat="43.40789" lon="6.64987">
        <ele>301</ele>
        <time>2022-10-09T10:54:27Z</time>
      </trkpt>
      <trkpt lat="43.40789" lon="6.64989">
        <ele>301.1</ele>
        <time>2022-10-09T10:54:28Z</time>
      </trkpt>
      <trkpt lat="43.40789" lon="6.64991">
        <ele>301.2</ele>
        <time>2022-10-09T10:54:29Z</time>
      </trkpt>
      <trkpt lat="43.40789" lon="6.64994">
        <ele>301.3</ele>
        <time>2022-10-09T10:54:30Z</time>
      </trkpt>
      <trkpt lat="43.40789" lon="6.64996">
        <ele>301.3</ele>
        <time>2022-10-09T10:54:31Z</time>
      </trkpt>
      <trkpt lat="43.40789" lon="6.64998">
        <ele>301.4</ele>
        <time>2022-10-09T10:54:32Z</time>
      </trkpt>
      <trkpt lat="43.4079" lon="6.65001">
        <ele>301.5</ele>
        <time>2022-10-09T10:54:33Z</time>
      </trkpt>
      <trkpt lat="43.4079" lon="6.65004">
        <ele>301.5</ele>
        <time>2022-10-09T10:54:34Z</time>
      </trkpt>
      <trkpt lat="43.4079" lon="6.65006">
        <ele>301.6</ele>
        <time>2022-10-09T10:54:35Z</time>
      </trkpt>
      <trkpt lat="43.4079" lon="6.65009">
        <ele>301.6</ele>
        <time>2022-10-09T10:54:36Z</time>
      </trkpt>
      <trkpt lat="43.4079" lon="6.65013">
        <ele>301.7</ele>
        <time>2022-10-09T10:54:37Z</time>
      </trkpt>
      <trkpt lat="43.40791" lon="6.65036">
        <ele>302</ele>
        <time>2022-10-09T10:54:44Z</time>
      </trkpt>
      <trkpt lat="43.40791" lon="6.65039">
        <ele>302</ele>
        <time>2022-10-09T10:54:45Z</time>
      </trkpt>
      <trkpt lat="43.40792" lon="6.65049">
        <ele>302.1</ele>
        <time>2022-10-09T10:54:48Z</time>
      </trkpt>
      <trkpt lat="43.40792" lon="6.65052">
        <ele>302.1</ele>
        <time>2022-10-09T10:54:49Z</time>
      </trkpt>
      <trkpt lat="43.40794" lon="6.65062">
        <ele>302.2</ele>
        <time>2022-10-09T10:54:52Z</time>
      </trkpt>
      <trkpt lat="43.40795" lon="6.65069">
        <ele>302.2</ele>
        <time>2022-10-09T10:54:54Z</time>
      </trkpt>
      <trkpt lat="43.40798" lon="6.65102">
        <ele>301.5</ele>
        <time>2022-10-09T10:55:01Z</time>
      </trkpt>
      <trkpt lat="43.40798" lon="6.65108">
        <ele>301.2</ele>
        <time>2022-10-09T10:55:02Z</time>
      </trkpt>
      <trkpt lat="43.40799" lon="6.65133">
        <ele>300.1</ele>
        <time>2022-10-09T10:55:05Z</time>
      </trkpt>
      <trkpt lat="43.40799" lon="6.65142">
        <ele>299.6</ele>
        <time>2022-10-09T10:55:06Z</time>
      </trkpt>
      <trkpt lat="43.40799" lon="6.65151">
        <ele>299.2</ele>
        <time>2022-10-09T10:55:07Z</time>
      </trkpt>
      <trkpt lat="43.40799" lon="6.6516">
        <ele>298.9</ele>
        <time>2022-10-09T10:55:08Z</time>
      </trkpt>
      <trkpt lat="43.408" lon="6.65168">
        <ele>298.6</ele>
        <time>2022-10-09T10:55:09Z</time>
      </trkpt>
      <trkpt lat="43.408" lon="6.65174">
        <ele>298.4</ele>
        <time>2022-10-09T10:55:10Z</time>
      </trkpt>
      <trkpt lat="43.40802" lon="6.65178">
        <ele>298.2</ele>
        <time>2022-10-09T10:55:11Z</time>
      </trkpt>
      <trkpt lat="43.40805" lon="6.65181">
        <ele>298.1</ele>
        <time>2022-10-09T10:55:12Z</time>
      </trkpt>
      <trkpt lat="43.40807" lon="6.65184">
        <ele>298</ele>
        <time>2022-10-09T10:55:13Z</time>
      </trkpt>
      <trkpt lat="43.40809" lon="6.65187">
        <ele>298</ele>
        <time>2022-10-09T10:55:14Z</time>
      </trkpt>
      <trkpt lat="43.40811" lon="6.65188">
        <ele>297.9</ele>
        <time>2022-10-09T10:55:15Z</time>
      </trkpt>
      <trkpt lat="43.40813" lon="6.65189">
        <ele>297.9</ele>
        <time>2022-10-09T10:55:16Z</time>
      </trkpt>
      <trkpt lat="43.40815" lon="6.6519">
        <ele>297.9</ele>
        <time>2022-10-09T10:55:17Z</time>
      </trkpt>
      <trkpt lat="43.40818" lon="6.65191">
        <ele>297.9</ele>
        <time>2022-10-09T10:55:18Z</time>
      </trkpt>
      <trkpt lat="43.4082" lon="6.65191">
        <ele>298</ele>
        <time>2022-10-09T10:55:19Z</time>
      </trkpt>
      <trkpt lat="43.40822" lon="6.65191">
        <ele>298</ele>
        <time>2022-10-09T10:55:20Z</time>
      </trkpt>
      <trkpt lat="43.40824" lon="6.65191">
        <ele>298</ele>
        <time>2022-10-09T10:55:21Z</time>
      </trkpt>
      <trkpt lat="43.40826" lon="6.65189">
        <ele>298.2</ele>
        <time>2022-10-09T10:55:22Z</time>
      </trkpt>
      <trkpt lat="43.40827" lon="6.65187">
        <ele>298.4</ele>
        <time>2022-10-09T10:55:23Z</time>
      </trkpt>
      <trkpt lat="43.40827" lon="6.65186">
        <ele>298.5</ele>
        <time>2022-10-09T10:55:24Z</time>
      </trkpt>
      <trkpt lat="43.40827" lon="6.65185">
        <ele>298.5</ele>
        <time>2022-10-09T10:55:26Z</time>
      </trkpt>
      <trkpt lat="43.40847" lon="6.6503">
        <ele>318.9</ele>
        <time>2022-10-09T10:59:07Z</time>
      </trkpt>
      <trkpt lat="43.40843" lon="6.65014">
        <ele>318.3</ele>
        <time>2022-10-09T10:59:12Z</time>
      </trkpt>
      <trkpt lat="43.40842" lon="6.65009">
        <ele>317.9</ele>
        <time>2022-10-09T10:59:13Z</time>
      </trkpt>
      <trkpt lat="43.40841" lon="6.65003">
        <ele>317.5</ele>
        <time>2022-10-09T10:59:14Z</time>
      </trkpt>
      <trkpt lat="43.40839" lon="6.64989">
        <ele>316.6</ele>
        <time>2022-10-09T10:59:16Z</time>
      </trkpt>
      <trkpt lat="43.40839" lon="6.64981">
        <ele>316</ele>
        <time>2022-10-09T10:59:17Z</time>
      </trkpt>
      <trkpt lat="43.4084" lon="6.64974">
        <ele>315.5</ele>
        <time>2022-10-09T10:59:18Z</time>
      </trkpt>
      <trkpt lat="43.40841" lon="6.64968">
        <ele>315.1</ele>
        <time>2022-10-09T10:59:19Z</time>
      </trkpt>
      <trkpt lat="43.40843" lon="6.64963">
        <ele>314.7</ele>
        <time>2022-10-09T10:59:20Z</time>
      </trkpt>
      <trkpt lat="43.40846" lon="6.6496">
        <ele>314.3</ele>
        <time>2022-10-09T10:59:21Z</time>
      </trkpt>
      <trkpt lat="43.40848" lon="6.64956">
        <ele>314</ele>
        <time>2022-10-09T10:59:22Z</time>
      </trkpt>
      <trkpt lat="43.40849" lon="6.64951">
        <ele>313.5</ele>
        <time>2022-10-09T10:59:23Z</time>
      </trkpt>
      <trkpt lat="43.4085" lon="6.64945">
        <ele>313</ele>
        <time>2022-10-09T10:59:24Z</time>
      </trkpt>
      <trkpt lat="43.40849" lon="6.64939">
        <ele>312.6</ele>
        <time>2022-10-09T10:59:25Z</time>
      </trkpt>
      <trkpt lat="43.40845" lon="6.64934">
        <ele>312</ele>
        <time>2022-10-09T10:59:26Z</time>
      </trkpt>
      <trkpt lat="43.40841" lon="6.6493">
        <ele>311.5</ele>
        <time>2022-10-09T10:59:27Z</time>
      </trkpt>
      <trkpt lat="43.40836" lon="6.64927">
        <ele>311</ele>
        <time>2022-10-09T10:59:28Z</time>
      </trkpt>
      <trkpt lat="43.40831" lon="6.64925">
        <ele>310.5</ele>
        <time>2022-10-09T10:59:29Z</time>
      </trkpt>
      <trkpt lat="43.40826" lon="6.64923">
        <ele>310</ele>
        <time>2022-10-09T10:59:30Z</time>
      </trkpt>
      <trkpt lat="43.40821" lon="6.64922">
        <ele>309.5</ele>
        <time>2022-10-09T10:59:31Z</time>
      </trkpt>
      <trkpt lat="43.40816" lon="6.64918">
        <ele>309.1</ele>
        <time>2022-10-09T10:59:32Z</time>
      </trkpt>
      <trkpt lat="43.40813" lon="6.64914">
        <ele>308.7</ele>
        <time>2022-10-09T10:59:33Z</time>
      </trkpt>
      <trkpt lat="43.4081" lon="6.64909">
        <ele>308.3</ele>
        <time>2022-10-09T10:59:34Z</time>
      </trkpt>
      <trkpt lat="43.40806" lon="6.64903">
        <ele>307.9</ele>
        <time>2022-10-09T10:59:35Z</time>
      </trkpt>
      <trkpt lat="43.40803" lon="6.64897">
        <ele>307.5</ele>
        <time>2022-10-09T10:59:36Z</time>
      </trkpt>
      <trkpt lat="43.408" lon="6.64891">
        <ele>307.2</ele>
        <time>2022-10-09T10:59:37Z</time>
      </trkpt>
      <trkpt lat="43.40798" lon="6.64885">
        <ele>307.1</ele>
        <time>2022-10-09T10:59:38Z</time>
      </trkpt>
      <trkpt lat="43.40799" lon="6.64879">
        <ele>306.9</ele>
        <time>2022-10-09T10:59:39Z</time>
      </trkpt>
      <trkpt lat="43.40799" lon="6.64873">
        <ele>306.8</ele>
        <time>2022-10-09T10:59:40Z</time>
      </trkpt>
      <trkpt lat="43.408" lon="6.64867">
        <ele>306.8</ele>
        <time>2022-10-09T10:59:41Z</time>
      </trkpt>
      <trkpt lat="43.40801" lon="6.64863">
        <ele>306.8</ele>
        <time>2022-10-09T10:59:42Z</time>
      </trkpt>
      <trkpt lat="43.40802" lon="6.64859">
        <ele>306.7</ele>
        <time>2022-10-09T10:59:43Z</time>
      </trkpt>
      <trkpt lat="43.40802" lon="6.64855">
        <ele>306.7</ele>
        <time>2022-10-09T10:59:44Z</time>
      </trkpt>
      <trkpt lat="43.40803" lon="6.64836">
        <ele>306.5</ele>
        <time>2022-10-09T10:59:48Z</time>
      </trkpt>
      <trkpt lat="43.40803" lon="6.6483">
        <ele>306.4</ele>
        <time>2022-10-09T10:59:49Z</time>
      </trkpt>
      <trkpt lat="43.40802" lon="6.64817">
        <ele>306.2</ele>
        <time>2022-10-09T10:59:51Z</time>
      </trkpt>
      <trkpt lat="43.40802" lon="6.64809">
        <ele>306</ele>
        <time>2022-10-09T10:59:52Z</time>
      </trkpt>
      <trkpt lat="43.40803" lon="6.64802">
        <ele>305.9</ele>
        <time>2022-10-09T10:59:53Z</time>
      </trkpt>
      <trkpt lat="43.40807" lon="6.64788">
        <ele>305.4</ele>
        <time>2022-10-09T10:59:55Z</time>
      </trkpt>
      <trkpt lat="43.40809" lon="6.64782">
        <ele>305.2</ele>
        <time>2022-10-09T10:59:56Z</time>
      </trkpt>
      <trkpt lat="43.40811" lon="6.64777">
        <ele>304.9</ele>
        <time>2022-10-09T10:59:57Z</time>
      </trkpt>
      <trkpt lat="43.40813" lon="6.64771">
        <ele>304.6</ele>
        <time>2022-10-09T10:59:58Z</time>
      </trkpt>
      <trkpt lat="43.40817" lon="6.6476">
        <ele>303.7</ele>
        <time>2022-10-09T11:00:00Z</time>
      </trkpt>
      <trkpt lat="43.40824" lon="6.64747">
        <ele>302.4</ele>
        <time>2022-10-09T11:00:02Z</time>
      </trkpt>
      <trkpt lat="43.40831" lon="6.64732">
        <ele>300.7</ele>
        <time>2022-10-09T11:00:04Z</time>
      </trkpt>
      <trkpt lat="43.40833" lon="6.64725">
        <ele>299.8</ele>
        <time>2022-10-09T11:00:05Z</time>
      </trkpt>
      <trkpt lat="43.40836" lon="6.64718">
        <ele>299</ele>
        <time>2022-10-09T11:00:06Z</time>
      </trkpt>
      <trkpt lat="43.40838" lon="6.6471">
        <ele>298.1</ele>
        <time>2022-10-09T11:00:07Z</time>
      </trkpt>
      <trkpt lat="43.40842" lon="6.64695">
        <ele>296.7</ele>
        <time>2022-10-09T11:00:09Z</time>
      </trkpt>
      <trkpt lat="43.40843" lon="6.64688">
        <ele>296.3</ele>
        <time>2022-10-09T11:00:10Z</time>
      </trkpt>
      <trkpt lat="43.40843" lon="6.6468">
        <ele>295.8</ele>
        <time>2022-10-09T11:00:11Z</time>
      </trkpt>
      <trkpt lat="43.40843" lon="6.64674">
        <ele>295.5</ele>
        <time>2022-10-09T11:00:12Z</time>
      </trkpt>
      <trkpt lat="43.40844" lon="6.64667">
        <ele>295.1</ele>
        <time>2022-10-09T11:00:13Z</time>
      </trkpt>
      <trkpt lat="43.40844" lon="6.64662">
        <ele>294.7</ele>
        <time>2022-10-09T11:00:14Z</time>
      </trkpt>
      <trkpt lat="43.40845" lon="6.64656">
        <ele>294.1</ele>
        <time>2022-10-09T11:00:15Z</time>
      </trkpt>
      <trkpt lat="43.40846" lon="6.64649">
        <ele>293.2</ele>
        <time>2022-10-09T11:00:16Z</time>
      </trkpt>
      <trkpt lat="43.40848" lon="6.64643">
        <ele>292.3</ele>
        <time>2022-10-09T11:00:17Z</time>
      </trkpt>
      <trkpt lat="43.40849" lon="6.64637">
        <ele>291.3</ele>
        <time>2022-10-09T11:00:18Z</time>
      </trkpt>
      <trkpt lat="43.40849" lon="6.6463">
        <ele>290.1</ele>
        <time>2022-10-09T11:00:19Z</time>
      </trkpt>
      <trkpt lat="43.40851" lon="6.64623">
        <ele>288.8</ele>
        <time>2022-10-09T11:00:20Z</time>
      </trkpt>
      <trkpt lat="43.40854" lon="6.64608">
        <ele>285.9</ele>
        <time>2022-10-09T11:00:22Z</time>
      </trkpt>
      <trkpt lat="43.40855" lon="6.64601">
        <ele>284.7</ele>
        <time>2022-10-09T11:00:23Z</time>
      </trkpt>
      <trkpt lat="43.40857" lon="6.64594">
        <ele>283.5</ele>
        <time>2022-10-09T11:00:24Z</time>
      </trkpt>
      <trkpt lat="43.40859" lon="6.64586">
        <ele>282.3</ele>
        <time>2022-10-09T11:00:25Z</time>
      </trkpt>
      <trkpt lat="43.4086" lon="6.64579">
        <ele>281.2</ele>
        <time>2022-10-09T11:00:26Z</time>
      </trkpt>
      <trkpt lat="43.40862" lon="6.64573">
        <ele>280.2</ele>
        <time>2022-10-09T11:00:27Z</time>
      </trkpt>
      <trkpt lat="43.40863" lon="6.64567">
        <ele>279.3</ele>
        <time>2022-10-09T11:00:28Z</time>
      </trkpt>
      <trkpt lat="43.40863" lon="6.64561">
        <ele>278.8</ele>
        <time>2022-10-09T11:00:29Z</time>
      </trkpt>
      <trkpt lat="43.40863" lon="6.64555">
        <ele>278.3</ele>
        <time>2022-10-09T11:00:30Z</time>
      </trkpt>
      <trkpt lat="43.40861" lon="6.64551">
        <ele>277.8</ele>
        <time>2022-10-09T11:00:31Z</time>
      </trkpt>
      <trkpt lat="43.40859" lon="6.64548">
        <ele>277.4</ele>
        <time>2022-10-09T11:00:32Z</time>
      </trkpt>
      <trkpt lat="43.40855" lon="6.64546">
        <ele>276.8</ele>
        <time>2022-10-09T11:00:33Z</time>
      </trkpt>
      <trkpt lat="43.40851" lon="6.64544">
        <ele>276.2</ele>
        <time>2022-10-09T11:00:34Z</time>
      </trkpt>
      <trkpt lat="43.40846" lon="6.64543">
        <ele>275.3</ele>
        <time>2022-10-09T11:00:35Z</time>
      </trkpt>
      <trkpt lat="43.40839" lon="6.64542">
        <ele>274.3</ele>
        <time>2022-10-09T11:00:36Z</time>
      </trkpt>
      <trkpt lat="43.40832" lon="6.64541">
        <ele>273.3</ele>
        <time>2022-10-09T11:00:37Z</time>
      </trkpt>
      <trkpt lat="43.40825" lon="6.6454">
        <ele>272.2</ele>
        <time>2022-10-09T11:00:38Z</time>
      </trkpt>
      <trkpt lat="43.40812" lon="6.64539">
        <ele>270.3</ele>
        <time>2022-10-09T11:00:40Z</time>
      </trkpt>
      <trkpt lat="43.40791" lon="6.64537">
        <ele>267.8</ele>
        <time>2022-10-09T11:00:43Z</time>
      </trkpt>
      <trkpt lat="43.40777" lon="6.64537">
        <ele>266.4</ele>
        <time>2022-10-09T11:00:45Z</time>
      </trkpt>
      <trkpt lat="43.40769" lon="6.64538">
        <ele>265.8</ele>
        <time>2022-10-09T11:00:46Z</time>
      </trkpt>
      <trkpt lat="43.40737" lon="6.64548">
        <ele>265.9</ele>
        <time>2022-10-09T11:00:50Z</time>
      </trkpt>
      <trkpt lat="43.40731" lon="6.6455">
        <ele>266.2</ele>
        <time>2022-10-09T11:00:51Z</time>
      </trkpt>
      <trkpt lat="43.40725" lon="6.64552">
        <ele>266.6</ele>
        <time>2022-10-09T11:00:52Z</time>
      </trkpt>
      <trkpt lat="43.4072" lon="6.64553">
        <ele>266.9</ele>
        <time>2022-10-09T11:00:53Z</time>
      </trkpt>
      <trkpt lat="43.40716" lon="6.64554">
        <ele>267.2</ele>
        <time>2022-10-09T11:00:54Z</time>
      </trkpt>
      <trkpt lat="43.40712" lon="6.64555">
        <ele>267.3</ele>
        <time>2022-10-09T11:00:55Z</time>
      </trkpt>
      <trkpt lat="43.40707" lon="6.64556">
        <ele>267.4</ele>
        <time>2022-10-09T11:00:56Z</time>
      </trkpt>
      <trkpt lat="43.40703" lon="6.64556">
        <ele>267.4</ele>
        <time>2022-10-09T11:00:57Z</time>
      </trkpt>
      <trkpt lat="43.40699" lon="6.64556">
        <ele>267.2</ele>
        <time>2022-10-09T11:00:58Z</time>
      </trkpt>
      <trkpt lat="43.4069" lon="6.64557">
        <ele>266.6</ele>
        <time>2022-10-09T11:01:00Z</time>
      </trkpt>
      <trkpt lat="43.40684" lon="6.64557">
        <ele>266.1</ele>
        <time>2022-10-09T11:01:01Z</time>
      </trkpt>
      <trkpt lat="43.40679" lon="6.64557">
        <ele>265.5</ele>
        <time>2022-10-09T11:01:02Z</time>
      </trkpt>
      <trkpt lat="43.40666" lon="6.64559">
        <ele>264</ele>
        <time>2022-10-09T11:01:04Z</time>
      </trkpt>
      <trkpt lat="43.40645" lon="6.64563">
        <ele>261.4</ele>
        <time>2022-10-09T11:01:07Z</time>
      </trkpt>
      <trkpt lat="43.40631" lon="6.64566">
        <ele>259.5</ele>
        <time>2022-10-09T11:01:09Z</time>
      </trkpt>
      <trkpt lat="43.40624" lon="6.64567">
        <ele>258.5</ele>
        <time>2022-10-09T11:01:10Z</time>
      </trkpt>
      <trkpt lat="43.40618" lon="6.64569">
        <ele>257.6</ele>
        <time>2022-10-09T11:01:11Z</time>
      </trkpt>
      <trkpt lat="43.40612" lon="6.64571">
        <ele>256.7</ele>
        <time>2022-10-09T11:01:12Z</time>
      </trkpt>
      <trkpt lat="43.40606" lon="6.64575">
        <ele>256</ele>
        <time>2022-10-09T11:01:13Z</time>
      </trkpt>
      <trkpt lat="43.406" lon="6.64578">
        <ele>255.4</ele>
        <time>2022-10-09T11:01:14Z</time>
      </trkpt>
      <trkpt lat="43.40594" lon="6.64579">
        <ele>255</ele>
        <time>2022-10-09T11:01:15Z</time>
      </trkpt>
      <trkpt lat="43.40588" lon="6.64578">
        <ele>254.6</ele>
        <time>2022-10-09T11:01:16Z</time>
      </trkpt>
      <trkpt lat="43.40584" lon="6.64574">
        <ele>254.2</ele>
        <time>2022-10-09T11:01:17Z</time>
      </trkpt>
      <trkpt lat="43.40581" lon="6.64568">
        <ele>253.8</ele>
        <time>2022-10-09T11:01:18Z</time>
      </trkpt>
      <trkpt lat="43.40577" lon="6.64562">
        <ele>253.4</ele>
        <time>2022-10-09T11:01:19Z</time>
      </trkpt>
      <trkpt lat="43.40573" lon="6.64557">
        <ele>253</ele>
        <time>2022-10-09T11:01:20Z</time>
      </trkpt>
      <trkpt lat="43.40569" lon="6.64551">
        <ele>252.5</ele>
        <time>2022-10-09T11:01:21Z</time>
      </trkpt>
      <trkpt lat="43.40564" lon="6.64545">
        <ele>251.9</ele>
        <time>2022-10-09T11:01:22Z</time>
      </trkpt>
      <trkpt lat="43.40558" lon="6.64539">
        <ele>251.2</ele>
        <time>2022-10-09T11:01:23Z</time>
      </trkpt>
      <trkpt lat="43.40552" lon="6.64532">
        <ele>250.4</ele>
        <time>2022-10-09T11:01:24Z</time>
      </trkpt>
      <trkpt lat="43.4054" lon="6.64521">
        <ele>248.5</ele>
        <time>2022-10-09T11:01:26Z</time>
      </trkpt>
      <trkpt lat="43.40535" lon="6.64515">
        <ele>247.5</ele>
        <time>2022-10-09T11:01:27Z</time>
      </trkpt>
      <trkpt lat="43.40529" lon="6.64509">
        <ele>246.5</ele>
        <time>2022-10-09T11:01:28Z</time>
      </trkpt>
      <trkpt lat="43.40524" lon="6.64503">
        <ele>245.6</ele>
        <time>2022-10-09T11:01:29Z</time>
      </trkpt>
      <trkpt lat="43.40508" lon="6.64484">
        <ele>242.7</ele>
        <time>2022-10-09T11:01:32Z</time>
      </trkpt>
      <trkpt lat="43.40503" lon="6.64478">
        <ele>241.8</ele>
        <time>2022-10-09T11:01:33Z</time>
      </trkpt>
      <trkpt lat="43.40498" lon="6.64473">
        <ele>240.9</ele>
        <time>2022-10-09T11:01:34Z</time>
      </trkpt>
      <trkpt lat="43.40493" lon="6.64467">
        <ele>240</ele>
        <time>2022-10-09T11:01:35Z</time>
      </trkpt>
      <trkpt lat="43.40488" lon="6.64461">
        <ele>238.9</ele>
        <time>2022-10-09T11:01:36Z</time>
      </trkpt>
      <trkpt lat="43.40484" lon="6.64455">
        <ele>237.9</ele>
        <time>2022-10-09T11:01:37Z</time>
      </trkpt>
      <trkpt lat="43.4048" lon="6.6445">
        <ele>237</ele>
        <time>2022-10-09T11:01:38Z</time>
      </trkpt>
      <trkpt lat="43.40476" lon="6.64444">
        <ele>236.1</ele>
        <time>2022-10-09T11:01:39Z</time>
      </trkpt>
      <trkpt lat="43.40471" lon="6.64439">
        <ele>235.3</ele>
        <time>2022-10-09T11:01:40Z</time>
      </trkpt>
      <trkpt lat="43.40467" lon="6.64434">
        <ele>234.6</ele>
        <time>2022-10-09T11:01:41Z</time>
      </trkpt>
      <trkpt lat="43.40461" lon="6.6443">
        <ele>233.9</ele>
        <time>2022-10-09T11:01:42Z</time>
      </trkpt>
      <trkpt lat="43.40454" lon="6.64425">
        <ele>233.4</ele>
        <time>2022-10-09T11:01:43Z</time>
      </trkpt>
      <trkpt lat="43.40448" lon="6.6442">
        <ele>233</ele>
        <time>2022-10-09T11:01:44Z</time>
      </trkpt>
      <trkpt lat="43.40442" lon="6.64416">
        <ele>232.7</ele>
        <time>2022-10-09T11:01:45Z</time>
      </trkpt>
      <trkpt lat="43.40436" lon="6.64414">
        <ele>232.5</ele>
        <time>2022-10-09T11:01:46Z</time>
      </trkpt>
      <trkpt lat="43.4043" lon="6.64413">
        <ele>232.3</ele>
        <time>2022-10-09T11:01:47Z</time>
      </trkpt>
      <trkpt lat="43.40418" lon="6.64413">
        <ele>231.8</ele>
        <time>2022-10-09T11:01:49Z</time>
      </trkpt>
      <trkpt lat="43.40411" lon="6.64412">
        <ele>231.5</ele>
        <time>2022-10-09T11:01:50Z</time>
      </trkpt>
      <trkpt lat="43.40406" lon="6.6441">
        <ele>231.2</ele>
        <time>2022-10-09T11:01:51Z</time>
      </trkpt>
      <trkpt lat="43.404" lon="6.64407">
        <ele>230.7</ele>
        <time>2022-10-09T11:01:52Z</time>
      </trkpt>
      <trkpt lat="43.40395" lon="6.64403">
        <ele>230.2</ele>
        <time>2022-10-09T11:01:53Z</time>
      </trkpt>
      <trkpt lat="43.40389" lon="6.64398">
        <ele>229.5</ele>
        <time>2022-10-09T11:01:54Z</time>
      </trkpt>
      <trkpt lat="43.40383" lon="6.64391">
        <ele>228.6</ele>
        <time>2022-10-09T11:01:55Z</time>
      </trkpt>
      <trkpt lat="43.40378" lon="6.64385">
        <ele>227.7</ele>
        <time>2022-10-09T11:01:56Z</time>
      </trkpt>
      <trkpt lat="43.40372" lon="6.64379">
        <ele>226.6</ele>
        <time>2022-10-09T11:01:57Z</time>
      </trkpt>
      <trkpt lat="43.40367" lon="6.64372">
        <ele>225.5</ele>
        <time>2022-10-09T11:01:58Z</time>
      </trkpt>
      <trkpt lat="43.4036" lon="6.64366">
        <ele>224.3</ele>
        <time>2022-10-09T11:01:59Z</time>
      </trkpt>
      <trkpt lat="43.40354" lon="6.64361">
        <ele>223.1</ele>
        <time>2022-10-09T11:02:00Z</time>
      </trkpt>
      <trkpt lat="43.40347" lon="6.64357">
        <ele>221.9</ele>
        <time>2022-10-09T11:02:01Z</time>
      </trkpt>
      <trkpt lat="43.40341" lon="6.64352">
        <ele>220.6</ele>
        <time>2022-10-09T11:02:02Z</time>
      </trkpt>
      <trkpt lat="43.40334" lon="6.64347">
        <ele>219.4</ele>
        <time>2022-10-09T11:02:03Z</time>
      </trkpt>
      <trkpt lat="43.40328" lon="6.64343">
        <ele>218.1</ele>
        <time>2022-10-09T11:02:04Z</time>
      </trkpt>
      <trkpt lat="43.40323" lon="6.64339">
        <ele>216.8</ele>
        <time>2022-10-09T11:02:05Z</time>
      </trkpt>
      <trkpt lat="43.40317" lon="6.64335">
        <ele>215.6</ele>
        <time>2022-10-09T11:02:06Z</time>
      </trkpt>
      <trkpt lat="43.40312" lon="6.64331">
        <ele>214.3</ele>
        <time>2022-10-09T11:02:07Z</time>
      </trkpt>
      <trkpt lat="43.40307" lon="6.64327">
        <ele>213.1</ele>
        <time>2022-10-09T11:02:08Z</time>
      </trkpt>
      <trkpt lat="43.40303" lon="6.64323">
        <ele>211.9</ele>
        <time>2022-10-09T11:02:09Z</time>
      </trkpt>
      <trkpt lat="43.40297" lon="6.6432">
        <ele>210.7</ele>
        <time>2022-10-09T11:02:10Z</time>
      </trkpt>
      <trkpt lat="43.40292" lon="6.64316">
        <ele>209.6</ele>
        <time>2022-10-09T11:02:11Z</time>
      </trkpt>
      <trkpt lat="43.40281" lon="6.64308">
        <ele>207.5</ele>
        <time>2022-10-09T11:02:13Z</time>
      </trkpt>
      <trkpt lat="43.40276" lon="6.64305">
        <ele>206.5</ele>
        <time>2022-10-09T11:02:14Z</time>
      </trkpt>
      <trkpt lat="43.40272" lon="6.64301">
        <ele>205.5</ele>
        <time>2022-10-09T11:02:15Z</time>
      </trkpt>
      <trkpt lat="43.40267" lon="6.64297">
        <ele>204.6</ele>
        <time>2022-10-09T11:02:16Z</time>
      </trkpt>
      <trkpt lat="43.40262" lon="6.64293">
        <ele>203.6</ele>
        <time>2022-10-09T11:02:17Z</time>
      </trkpt>
      <trkpt lat="43.40258" lon="6.6429">
        <ele>202.6</ele>
        <time>2022-10-09T11:02:18Z</time>
      </trkpt>
      <trkpt lat="43.40247" lon="6.64284">
        <ele>200.7</ele>
        <time>2022-10-09T11:02:20Z</time>
      </trkpt>
      <trkpt lat="43.40236" lon="6.64279">
        <ele>199</ele>
        <time>2022-10-09T11:02:22Z</time>
      </trkpt>
      <trkpt lat="43.4023" lon="6.64277">
        <ele>198.2</ele>
        <time>2022-10-09T11:02:23Z</time>
      </trkpt>
      <trkpt lat="43.40224" lon="6.64276">
        <ele>197.4</ele>
        <time>2022-10-09T11:02:24Z</time>
      </trkpt>
      <trkpt lat="43.40213" lon="6.64276">
        <ele>195.7</ele>
        <time>2022-10-09T11:02:26Z</time>
      </trkpt>
      <trkpt lat="43.40207" lon="6.64275">
        <ele>194.8</ele>
        <time>2022-10-09T11:02:27Z</time>
      </trkpt>
      <trkpt lat="43.40201" lon="6.64274">
        <ele>193.7</ele>
        <time>2022-10-09T11:02:28Z</time>
      </trkpt>
      <trkpt lat="43.40195" lon="6.64272">
        <ele>192.5</ele>
        <time>2022-10-09T11:02:29Z</time>
      </trkpt>
      <trkpt lat="43.40188" lon="6.64269">
        <ele>191.7</ele>
        <time>2022-10-09T11:02:30Z</time>
      </trkpt>
      <trkpt lat="43.40182" lon="6.64266">
        <ele>190.9</ele>
        <time>2022-10-09T11:02:31Z</time>
      </trkpt>
      <trkpt lat="43.40176" lon="6.64262">
        <ele>190.3</ele>
        <time>2022-10-09T11:02:32Z</time>
      </trkpt>
      <trkpt lat="43.4017" lon="6.64259">
        <ele>189.7</ele>
        <time>2022-10-09T11:02:33Z</time>
      </trkpt>
      <trkpt lat="43.40164" lon="6.64257">
        <ele>189.3</ele>
        <time>2022-10-09T11:02:34Z</time>
      </trkpt>
      <trkpt lat="43.40158" lon="6.64254">
        <ele>189</ele>
        <time>2022-10-09T11:02:35Z</time>
      </trkpt>
      <trkpt lat="43.40151" lon="6.64252">
        <ele>188.8</ele>
        <time>2022-10-09T11:02:36Z</time>
      </trkpt>
      <trkpt lat="43.40146" lon="6.64249">
        <ele>188.7</ele>
        <time>2022-10-09T11:02:37Z</time>
      </trkpt>
      <trkpt lat="43.4014" lon="6.64246">
        <ele>188.7</ele>
        <time>2022-10-09T11:02:38Z</time>
      </trkpt>
      <trkpt lat="43.40128" lon="6.6424">
        <ele>188.8</ele>
        <time>2022-10-09T11:02:40Z</time>
      </trkpt>
      <trkpt lat="43.40123" lon="6.64238">
        <ele>188.9</ele>
        <time>2022-10-09T11:02:41Z</time>
      </trkpt>
      <trkpt lat="43.40117" lon="6.64236">
        <ele>189</ele>
        <time>2022-10-09T11:02:42Z</time>
      </trkpt>
      <trkpt lat="43.40111" lon="6.64236">
        <ele>189.1</ele>
        <time>2022-10-09T11:02:43Z</time>
      </trkpt>
      <trkpt lat="43.40106" lon="6.64235">
        <ele>189.2</ele>
        <time>2022-10-09T11:02:44Z</time>
      </trkpt>
      <trkpt lat="43.40101" lon="6.64236">
        <ele>189.3</ele>
        <time>2022-10-09T11:02:45Z</time>
      </trkpt>
      <trkpt lat="43.40096" lon="6.64237">
        <ele>189.4</ele>
        <time>2022-10-09T11:02:46Z</time>
      </trkpt>
      <trkpt lat="43.40092" lon="6.64237">
        <ele>189.5</ele>
        <time>2022-10-09T11:02:47Z</time>
      </trkpt>
      <trkpt lat="43.40088" lon="6.64236">
        <ele>189.6</ele>
        <time>2022-10-09T11:02:48Z</time>
      </trkpt>
      <trkpt lat="43.40083" lon="6.64234">
        <ele>189.6</ele>
        <time>2022-10-09T11:02:49Z</time>
      </trkpt>
      <trkpt lat="43.40079" lon="6.64231">
        <ele>189.6</ele>
        <time>2022-10-09T11:02:50Z</time>
      </trkpt>
      <trkpt lat="43.40074" lon="6.64228">
        <ele>189.6</ele>
        <time>2022-10-09T11:02:51Z</time>
      </trkpt>
      <trkpt lat="43.40065" lon="6.64222">
        <ele>189.4</ele>
        <time>2022-10-09T11:02:53Z</time>
      </trkpt>
      <trkpt lat="43.40061" lon="6.64219">
        <ele>189.4</ele>
        <time>2022-10-09T11:02:54Z</time>
      </trkpt>
      <trkpt lat="43.40057" lon="6.64216">
        <ele>189.1</ele>
        <time>2022-10-09T11:02:55Z</time>
      </trkpt>
      <trkpt lat="43.40055" lon="6.64212">
        <ele>188.9</ele>
        <time>2022-10-09T11:02:56Z</time>
      </trkpt>
      <trkpt lat="43.40053" lon="6.64207">
        <ele>188.6</ele>
        <time>2022-10-09T11:02:57Z</time>
      </trkpt>
      <trkpt lat="43.4005" lon="6.642">
        <ele>188.3</ele>
        <time>2022-10-09T11:02:58Z</time>
      </trkpt>
      <trkpt lat="43.40048" lon="6.64193">
        <ele>187.7</ele>
        <time>2022-10-09T11:02:59Z</time>
      </trkpt>
      <trkpt lat="43.40043" lon="6.64178">
        <ele>187.2</ele>
        <time>2022-10-09T11:03:01Z</time>
      </trkpt>
      <trkpt lat="43.40038" lon="6.64172">
        <ele>186.9</ele>
        <time>2022-10-09T11:03:02Z</time>
      </trkpt>
      <trkpt lat="43.40034" lon="6.64169">
        <ele>186.3</ele>
        <time>2022-10-09T11:03:03Z</time>
      </trkpt>
      <trkpt lat="43.40028" lon="6.64166">
        <ele>185.9</ele>
        <time>2022-10-09T11:03:04Z</time>
      </trkpt>
      <trkpt lat="43.40023" lon="6.64163">
        <ele>185.4</ele>
        <time>2022-10-09T11:03:05Z</time>
      </trkpt>
      <trkpt lat="43.40018" lon="6.6416">
        <ele>185</ele>
        <time>2022-10-09T11:03:06Z</time>
      </trkpt>
      <trkpt lat="43.40013" lon="6.64156">
        <ele>184.6</ele>
        <time>2022-10-09T11:03:07Z</time>
      </trkpt>
      <trkpt lat="43.39996" lon="6.64148">
        <ele>183.2</ele>
        <time>2022-10-09T11:03:10Z</time>
      </trkpt>
      <trkpt lat="43.39983" lon="6.6414">
        <ele>182.1</ele>
        <time>2022-10-09T11:03:12Z</time>
      </trkpt>
      <trkpt lat="43.39977" lon="6.64135">
        <ele>181.4</ele>
        <time>2022-10-09T11:03:13Z</time>
      </trkpt>
      <trkpt lat="43.39971" lon="6.64131">
        <ele>180.8</ele>
        <time>2022-10-09T11:03:14Z</time>
      </trkpt>
      <trkpt lat="43.39956" lon="6.6412">
        <ele>179.4</ele>
        <time>2022-10-09T11:03:16Z</time>
      </trkpt>
      <trkpt lat="43.39949" lon="6.64113">
        <ele>178.9</ele>
        <time>2022-10-09T11:03:17Z</time>
      </trkpt>
      <trkpt lat="43.39936" lon="6.64098">
        <ele>178.2</ele>
        <time>2022-10-09T11:03:19Z</time>
      </trkpt>
      <trkpt lat="43.3993" lon="6.64094">
        <ele>178</ele>
        <time>2022-10-09T11:03:20Z</time>
      </trkpt>
      <trkpt lat="43.39923" lon="6.64091">
        <ele>177.9</ele>
        <time>2022-10-09T11:03:21Z</time>
      </trkpt>
      <trkpt lat="43.39917" lon="6.64088">
        <ele>177.8</ele>
        <time>2022-10-09T11:03:22Z</time>
      </trkpt>
      <trkpt lat="43.39911" lon="6.64085">
        <ele>177.7</ele>
        <time>2022-10-09T11:03:23Z</time>
      </trkpt>
      <trkpt lat="43.39906" lon="6.6408">
        <ele>177.7</ele>
        <time>2022-10-09T11:03:24Z</time>
      </trkpt>
      <trkpt lat="43.39902" lon="6.64075">
        <ele>177.7</ele>
        <time>2022-10-09T11:03:25Z</time>
      </trkpt>
      <trkpt lat="43.39898" lon="6.64069">
        <ele>177.7</ele>
        <time>2022-10-09T11:03:26Z</time>
      </trkpt>
      <trkpt lat="43.39895" lon="6.64064">
        <ele>177.7</ele>
        <time>2022-10-09T11:03:27Z</time>
      </trkpt>
      <trkpt lat="43.39891" lon="6.64059">
        <ele>177.6</ele>
        <time>2022-10-09T11:03:28Z</time>
      </trkpt>
      <trkpt lat="43.39887" lon="6.64054">
        <ele>177.5</ele>
        <time>2022-10-09T11:03:29Z</time>
      </trkpt>
      <trkpt lat="43.39882" lon="6.64051">
        <ele>177.4</ele>
        <time>2022-10-09T11:03:30Z</time>
      </trkpt>
      <trkpt lat="43.39876" lon="6.64049">
        <ele>177.3</ele>
        <time>2022-10-09T11:03:31Z</time>
      </trkpt>
      <trkpt lat="43.39871" lon="6.64049">
        <ele>177.1</ele>
        <time>2022-10-09T11:03:32Z</time>
      </trkpt>
      <trkpt lat="43.39866" lon="6.64052">
        <ele>177</ele>
        <time>2022-10-09T11:03:33Z</time>
      </trkpt>
      <trkpt lat="43.39862" lon="6.64057">
        <ele>177</ele>
        <time>2022-10-09T11:03:34Z</time>
      </trkpt>
      <trkpt lat="43.39854" lon="6.64066">
        <ele>177</ele>
        <time>2022-10-09T11:03:36Z</time>
      </trkpt>
      <trkpt lat="43.39849" lon="6.64069">
        <ele>177</ele>
        <time>2022-10-09T11:03:37Z</time>
      </trkpt>
      <trkpt lat="43.39845" lon="6.64071">
        <ele>177.1</ele>
        <time>2022-10-09T11:03:38Z</time>
      </trkpt>
      <trkpt lat="43.39841" lon="6.64073">
        <ele>177.2</ele>
        <time>2022-10-09T11:03:39Z</time>
      </trkpt>
      <trkpt lat="43.39837" lon="6.64074">
        <ele>177.3</ele>
        <time>2022-10-09T11:03:40Z</time>
      </trkpt>
      <trkpt lat="43.39833" lon="6.64075">
        <ele>177.4</ele>
        <time>2022-10-09T11:03:41Z</time>
      </trkpt>
      <trkpt lat="43.39829" lon="6.64075">
        <ele>177.5</ele>
        <time>2022-10-09T11:03:42Z</time>
      </trkpt>
      <trkpt lat="43.39825" lon="6.64075">
        <ele>177.6</ele>
        <time>2022-10-09T11:03:43Z</time>
      </trkpt>
      <trkpt lat="43.39821" lon="6.64074">
        <ele>177.7</ele>
        <time>2022-10-09T11:03:44Z</time>
      </trkpt>
      <trkpt lat="43.39817" lon="6.64074">
        <ele>177.8</ele>
        <time>2022-10-09T11:03:45Z</time>
      </trkpt>
      <trkpt lat="43.39804" lon="6.64073">
        <ele>178</ele>
        <time>2022-10-09T11:03:48Z</time>
      </trkpt>
      <trkpt lat="43.398" lon="6.64073">
        <ele>178.1</ele>
        <time>2022-10-09T11:03:49Z</time>
      </trkpt>
      <trkpt lat="43.39796" lon="6.64073">
        <ele>178.2</ele>
        <time>2022-10-09T11:03:50Z</time>
      </trkpt>
      <trkpt lat="43.39792" lon="6.64072">
        <ele>178.2</ele>
        <time>2022-10-09T11:03:51Z</time>
      </trkpt>
      <trkpt lat="43.3978" lon="6.64067">
        <ele>178.2</ele>
        <time>2022-10-09T11:03:54Z</time>
      </trkpt>
      <trkpt lat="43.39776" lon="6.64065">
        <ele>178.1</ele>
        <time>2022-10-09T11:03:55Z</time>
      </trkpt>
      <trkpt lat="43.39767" lon="6.6406">
        <ele>178.1</ele>
        <time>2022-10-09T11:03:57Z</time>
      </trkpt>
      <trkpt lat="43.39763" lon="6.64059">
        <ele>178.2</ele>
        <time>2022-10-09T11:03:58Z</time>
      </trkpt>
      <trkpt lat="43.3976" lon="6.64057">
        <ele>178.4</ele>
        <time>2022-10-09T11:03:59Z</time>
      </trkpt>
      <trkpt lat="43.39757" lon="6.64055">
        <ele>178.5</ele>
        <time>2022-10-09T11:04:00Z</time>
      </trkpt>
      <trkpt lat="43.39753" lon="6.64054">
        <ele>178.7</ele>
        <time>2022-10-09T11:04:01Z</time>
      </trkpt>
      <trkpt lat="43.39751" lon="6.64053">
        <ele>178.9</ele>
        <time>2022-10-09T11:04:02Z</time>
      </trkpt>
      <trkpt lat="43.39748" lon="6.64053">
        <ele>179.1</ele>
        <time>2022-10-09T11:04:03Z</time>
      </trkpt>
      <trkpt lat="43.39746" lon="6.64053">
        <ele>179.2</ele>
        <time>2022-10-09T11:04:04Z</time>
      </trkpt>
      <trkpt lat="43.39743" lon="6.64052">
        <ele>179.4</ele>
        <time>2022-10-09T11:04:05Z</time>
      </trkpt>
      <trkpt lat="43.39741" lon="6.64051">
        <ele>179.6</ele>
        <time>2022-10-09T11:04:06Z</time>
      </trkpt>
      <trkpt lat="43.39738" lon="6.6405">
        <ele>179.8</ele>
        <time>2022-10-09T11:04:07Z</time>
      </trkpt>
      <trkpt lat="43.39733" lon="6.6405">
        <ele>180.3</ele>
        <time>2022-10-09T11:04:09Z</time>
      </trkpt>
      <trkpt lat="43.3973" lon="6.64051">
        <ele>180.5</ele>
        <time>2022-10-09T11:04:10Z</time>
      </trkpt>
      <trkpt lat="43.39728" lon="6.64052">
        <ele>180.6</ele>
        <time>2022-10-09T11:04:11Z</time>
      </trkpt>
      <trkpt lat="43.39726" lon="6.64052">
        <ele>180.7</ele>
        <time>2022-10-09T11:04:12Z</time>
      </trkpt>
      <trkpt lat="43.39724" lon="6.64053">
        <ele>180.8</ele>
        <time>2022-10-09T11:04:13Z</time>
      </trkpt>
      <trkpt lat="43.39722" lon="6.64054">
        <ele>180.9</ele>
        <time>2022-10-09T11:04:14Z</time>
      </trkpt>
      <trkpt lat="43.3972" lon="6.64055">
        <ele>181</ele>
        <time>2022-10-09T11:04:15Z</time>
      </trkpt>
      <trkpt lat="43.39717" lon="6.64056">
        <ele>181.1</ele>
        <time>2022-10-09T11:04:16Z</time>
      </trkpt>
      <trkpt lat="43.39714" lon="6.64056">
        <ele>181.2</ele>
        <time>2022-10-09T11:04:17Z</time>
      </trkpt>
      <trkpt lat="43.3971" lon="6.64056">
        <ele>181.2</ele>
        <time>2022-10-09T11:04:18Z</time>
      </trkpt>
      <trkpt lat="43.39706" lon="6.64055">
        <ele>181.2</ele>
        <time>2022-10-09T11:04:19Z</time>
      </trkpt>
      <trkpt lat="43.39701" lon="6.64054">
        <ele>181.1</ele>
        <time>2022-10-09T11:04:20Z</time>
      </trkpt>
      <trkpt lat="43.39696" lon="6.64053">
        <ele>181</ele>
        <time>2022-10-09T11:04:21Z</time>
      </trkpt>
      <trkpt lat="43.39691" lon="6.64051">
        <ele>180.9</ele>
        <time>2022-10-09T11:04:22Z</time>
      </trkpt>
      <trkpt lat="43.39686" lon="6.64048">
        <ele>180.7</ele>
        <time>2022-10-09T11:04:23Z</time>
      </trkpt>
      <trkpt lat="43.3968" lon="6.64044">
        <ele>180.6</ele>
        <time>2022-10-09T11:04:24Z</time>
      </trkpt>
      <trkpt lat="43.39675" lon="6.6404">
        <ele>180.6</ele>
        <time>2022-10-09T11:04:25Z</time>
      </trkpt>
      <trkpt lat="43.3967" lon="6.64036">
        <ele>180.6</ele>
        <time>2022-10-09T11:04:26Z</time>
      </trkpt>
      <trkpt lat="43.39665" lon="6.64034">
        <ele>180.7</ele>
        <time>2022-10-09T11:04:27Z</time>
      </trkpt>
      <trkpt lat="43.3966" lon="6.64031">
        <ele>180.8</ele>
        <time>2022-10-09T11:04:28Z</time>
      </trkpt>
      <trkpt lat="43.39656" lon="6.64029">
        <ele>180.9</ele>
        <time>2022-10-09T11:04:29Z</time>
      </trkpt>
      <trkpt lat="43.39652" lon="6.64027">
        <ele>181.1</ele>
        <time>2022-10-09T11:04:30Z</time>
      </trkpt>
      <trkpt lat="43.39648" lon="6.64027">
        <ele>181.2</ele>
        <time>2022-10-09T11:04:31Z</time>
      </trkpt>
      <trkpt lat="43.39645" lon="6.64027">
        <ele>181.4</ele>
        <time>2022-10-09T11:04:32Z</time>
      </trkpt>
      <trkpt lat="43.39641" lon="6.64027">
        <ele>181.7</ele>
        <time>2022-10-09T11:04:33Z</time>
      </trkpt>
      <trkpt lat="43.39638" lon="6.64026">
        <ele>181.9</ele>
        <time>2022-10-09T11:04:34Z</time>
      </trkpt>
      <trkpt lat="43.39635" lon="6.64026">
        <ele>182.1</ele>
        <time>2022-10-09T11:04:35Z</time>
      </trkpt>
      <trkpt lat="43.39633" lon="6.64026">
        <ele>182.3</ele>
        <time>2022-10-09T11:04:36Z</time>
      </trkpt>
      <trkpt lat="43.39631" lon="6.64025">
        <ele>182.5</ele>
        <time>2022-10-09T11:04:37Z</time>
      </trkpt>
      <trkpt lat="43.39629" lon="6.64024">
        <ele>182.7</ele>
        <time>2022-10-09T11:04:38Z</time>
      </trkpt>
      <trkpt lat="43.39627" lon="6.64024">
        <ele>182.9</ele>
        <time>2022-10-09T11:04:39Z</time>
      </trkpt>
      <trkpt lat="43.39625" lon="6.64023">
        <ele>183.1</ele>
        <time>2022-10-09T11:04:40Z</time>
      </trkpt>
      <trkpt lat="43.39623" lon="6.64022">
        <ele>183.2</ele>
        <time>2022-10-09T11:04:41Z</time>
      </trkpt>
      <trkpt lat="43.39622" lon="6.6402">
        <ele>183.4</ele>
        <time>2022-10-09T11:04:42Z</time>
      </trkpt>
      <trkpt lat="43.3962" lon="6.64018">
        <ele>183.6</ele>
        <time>2022-10-09T11:04:43Z</time>
      </trkpt>
      <trkpt lat="43.39619" lon="6.64017">
        <ele>183.8</ele>
        <time>2022-10-09T11:04:44Z</time>
      </trkpt>
      <trkpt lat="43.39618" lon="6.64015">
        <ele>183.9</ele>
        <time>2022-10-09T11:04:45Z</time>
      </trkpt>
      <trkpt lat="43.39616" lon="6.64013">
        <ele>184.1</ele>
        <time>2022-10-09T11:04:46Z</time>
      </trkpt>
      <trkpt lat="43.39614" lon="6.64011">
        <ele>184.3</ele>
        <time>2022-10-09T11:04:47Z</time>
      </trkpt>
      <trkpt lat="43.39613" lon="6.64009">
        <ele>184.5</ele>
        <time>2022-10-09T11:04:48Z</time>
      </trkpt>
      <trkpt lat="43.39611" lon="6.64007">
        <ele>184.6</ele>
        <time>2022-10-09T11:04:49Z</time>
      </trkpt>
      <trkpt lat="43.3961" lon="6.64004">
        <ele>184.7</ele>
        <time>2022-10-09T11:04:50Z</time>
      </trkpt>
      <trkpt lat="43.39609" lon="6.64002">
        <ele>184.9</ele>
        <time>2022-10-09T11:04:51Z</time>
      </trkpt>
      <trkpt lat="43.39608" lon="6.63999">
        <ele>185</ele>
        <time>2022-10-09T11:04:52Z</time>
      </trkpt>
      <trkpt lat="43.39607" lon="6.63996">
        <ele>185.1</ele>
        <time>2022-10-09T11:04:53Z</time>
      </trkpt>
      <trkpt lat="43.39606" lon="6.63993">
        <ele>185.1</ele>
        <time>2022-10-09T11:04:54Z</time>
      </trkpt>
      <trkpt lat="43.39605" lon="6.6399">
        <ele>185.2</ele>
        <time>2022-10-09T11:04:55Z</time>
      </trkpt>
      <trkpt lat="43.39604" lon="6.63987">
        <ele>185.2</ele>
        <time>2022-10-09T11:04:56Z</time>
      </trkpt>
      <trkpt lat="43.39603" lon="6.63983">
        <ele>185.3</ele>
        <time>2022-10-09T11:04:57Z</time>
      </trkpt>
      <trkpt lat="43.39602" lon="6.63979">
        <ele>185.3</ele>
        <time>2022-10-09T11:04:58Z</time>
      </trkpt>
      <trkpt lat="43.396" lon="6.63975">
        <ele>185.3</ele>
        <time>2022-10-09T11:04:59Z</time>
      </trkpt>
      <trkpt lat="43.39599" lon="6.63971">
        <ele>185.4</ele>
        <time>2022-10-09T11:05:00Z</time>
      </trkpt>
      <trkpt lat="43.39598" lon="6.63967">
        <ele>185.4</ele>
        <time>2022-10-09T11:05:01Z</time>
      </trkpt>
      <trkpt lat="43.39598" lon="6.63962">
        <ele>185.4</ele>
        <time>2022-10-09T11:05:02Z</time>
      </trkpt>
      <trkpt lat="43.39597" lon="6.63958">
        <ele>185.4</ele>
        <time>2022-10-09T11:05:03Z</time>
      </trkpt>
      <trkpt lat="43.39597" lon="6.63954">
        <ele>185.4</ele>
        <time>2022-10-09T11:05:04Z</time>
      </trkpt>
      <trkpt lat="43.39596" lon="6.6395">
        <ele>185.4</ele>
        <time>2022-10-09T11:05:05Z</time>
      </trkpt>
      <trkpt lat="43.39595" lon="6.63946">
        <ele>185.4</ele>
        <time>2022-10-09T11:05:06Z</time>
      </trkpt>
      <trkpt lat="43.39593" lon="6.63942">
        <ele>185.3</ele>
        <time>2022-10-09T11:05:07Z</time>
      </trkpt>
      <trkpt lat="43.39591" lon="6.63939">
        <ele>185.3</ele>
        <time>2022-10-09T11:05:08Z</time>
      </trkpt>
      <trkpt lat="43.39587" lon="6.63936">
        <ele>185.3</ele>
        <time>2022-10-09T11:05:09Z</time>
      </trkpt>
      <trkpt lat="43.39584" lon="6.63934">
        <ele>185.2</ele>
        <time>2022-10-09T11:05:10Z</time>
      </trkpt>
      <trkpt lat="43.39581" lon="6.63933">
        <ele>185.2</ele>
        <time>2022-10-09T11:05:11Z</time>
      </trkpt>
      <trkpt lat="43.39577" lon="6.63931">
        <ele>185.1</ele>
        <time>2022-10-09T11:05:12Z</time>
      </trkpt>
      <trkpt lat="43.39573" lon="6.6393">
        <ele>185.1</ele>
        <time>2022-10-09T11:05:13Z</time>
      </trkpt>
      <trkpt lat="43.39566" lon="6.63925">
        <ele>185</ele>
        <time>2022-10-09T11:05:15Z</time>
      </trkpt>
      <trkpt lat="43.39562" lon="6.63925">
        <ele>184.9</ele>
        <time>2022-10-09T11:05:16Z</time>
      </trkpt>
      <trkpt lat="43.39559" lon="6.63926">
        <ele>184.9</ele>
        <time>2022-10-09T11:05:17Z</time>
      </trkpt>
      <trkpt lat="43.39556" lon="6.63929">
        <ele>184.9</ele>
        <time>2022-10-09T11:05:18Z</time>
      </trkpt>
      <trkpt lat="43.39553" lon="6.63932">
        <ele>184.8</ele>
        <time>2022-10-09T11:05:19Z</time>
      </trkpt>
      <trkpt lat="43.39551" lon="6.63935">
        <ele>184.8</ele>
        <time>2022-10-09T11:05:20Z</time>
      </trkpt>
      <trkpt lat="43.39549" lon="6.63938">
        <ele>184.7</ele>
        <time>2022-10-09T11:05:21Z</time>
      </trkpt>
      <trkpt lat="43.39544" lon="6.63944">
        <ele>184.7</ele>
        <time>2022-10-09T11:05:23Z</time>
      </trkpt>
      <trkpt lat="43.39536" lon="6.63952">
        <ele>184.6</ele>
        <time>2022-10-09T11:05:26Z</time>
      </trkpt>
      <trkpt lat="43.39533" lon="6.63954">
        <ele>184.7</ele>
        <time>2022-10-09T11:05:27Z</time>
      </trkpt>
      <trkpt lat="43.39531" lon="6.63956">
        <ele>184.7</ele>
        <time>2022-10-09T11:05:28Z</time>
      </trkpt>
      <trkpt lat="43.39528" lon="6.63957">
        <ele>184.7</ele>
        <time>2022-10-09T11:05:29Z</time>
      </trkpt>
      <trkpt lat="43.39525" lon="6.63958">
        <ele>184.7</ele>
        <time>2022-10-09T11:05:30Z</time>
      </trkpt>
      <trkpt lat="43.39522" lon="6.63959">
        <ele>184.8</ele>
        <time>2022-10-09T11:05:31Z</time>
      </trkpt>
      <trkpt lat="43.3952" lon="6.6396">
        <ele>184.8</ele>
        <time>2022-10-09T11:05:32Z</time>
      </trkpt>
      <trkpt lat="43.39518" lon="6.63961">
        <ele>184.8</ele>
        <time>2022-10-09T11:05:33Z</time>
      </trkpt>
      <trkpt lat="43.39516" lon="6.63962">
        <ele>184.9</ele>
        <time>2022-10-09T11:05:34Z</time>
      </trkpt>
      <trkpt lat="43.39514" lon="6.63963">
        <ele>184.9</ele>
        <time>2022-10-09T11:05:35Z</time>
      </trkpt>
      <trkpt lat="43.39512" lon="6.63964">
        <ele>184.9</ele>
        <time>2022-10-09T11:05:36Z</time>
      </trkpt>
      <trkpt lat="43.39497" lon="6.63964">
        <ele>185</ele>
        <time>2022-10-09T11:05:41Z</time>
      </trkpt>
      <trkpt lat="43.3949" lon="6.6396">
        <ele>185.1</ele>
        <time>2022-10-09T11:05:43Z</time>
      </trkpt>
      <trkpt lat="43.39486" lon="6.63957">
        <ele>185.1</ele>
        <time>2022-10-09T11:05:44Z</time>
      </trkpt>
      <trkpt lat="43.39483" lon="6.63954">
        <ele>185.2</ele>
        <time>2022-10-09T11:05:45Z</time>
      </trkpt>
      <trkpt lat="43.3948" lon="6.63951">
        <ele>185.3</ele>
        <time>2022-10-09T11:05:46Z</time>
      </trkpt>
      <trkpt lat="43.39478" lon="6.63948">
        <ele>185.5</ele>
        <time>2022-10-09T11:05:47Z</time>
      </trkpt>
      <trkpt lat="43.39475" lon="6.63946">
        <ele>185.6</ele>
        <time>2022-10-09T11:05:48Z</time>
      </trkpt>
      <trkpt lat="43.39473" lon="6.63944">
        <ele>185.7</ele>
        <time>2022-10-09T11:05:49Z</time>
      </trkpt>
      <trkpt lat="43.39472" lon="6.63943">
        <ele>185.9</ele>
        <time>2022-10-09T11:05:50Z</time>
      </trkpt>
      <trkpt lat="43.3947" lon="6.63942">
        <ele>186</ele>
        <time>2022-10-09T11:05:51Z</time>
      </trkpt>
      <trkpt lat="43.39468" lon="6.63942">
        <ele>186.1</ele>
        <time>2022-10-09T11:05:52Z</time>
      </trkpt>
      <trkpt lat="43.39466" lon="6.63942">
        <ele>186.2</ele>
        <time>2022-10-09T11:05:53Z</time>
      </trkpt>
      <trkpt lat="43.39464" lon="6.63942">
        <ele>186.3</ele>
        <time>2022-10-09T11:05:54Z</time>
      </trkpt>
      <trkpt lat="43.39462" lon="6.63942">
        <ele>186.4</ele>
        <time>2022-10-09T11:05:55Z</time>
      </trkpt>
      <trkpt lat="43.39457" lon="6.63943">
        <ele>186.7</ele>
        <time>2022-10-09T11:05:57Z</time>
      </trkpt>
      <trkpt lat="43.39455" lon="6.63943">
        <ele>186.8</ele>
        <time>2022-10-09T11:05:58Z</time>
      </trkpt>
      <trkpt lat="43.39452" lon="6.63944">
        <ele>186.9</ele>
        <time>2022-10-09T11:05:59Z</time>
      </trkpt>
      <trkpt lat="43.3945" lon="6.63945">
        <ele>187</ele>
        <time>2022-10-09T11:06:00Z</time>
      </trkpt>
      <trkpt lat="43.39447" lon="6.63946">
        <ele>187.1</ele>
        <time>2022-10-09T11:06:01Z</time>
      </trkpt>
      <trkpt lat="43.39444" lon="6.63948">
        <ele>187.2</ele>
        <time>2022-10-09T11:06:02Z</time>
      </trkpt>
      <trkpt lat="43.3944" lon="6.63949">
        <ele>187.3</ele>
        <time>2022-10-09T11:06:03Z</time>
      </trkpt>
      <trkpt lat="43.39436" lon="6.6395">
        <ele>187.3</ele>
        <time>2022-10-09T11:06:04Z</time>
      </trkpt>
      <trkpt lat="43.39432" lon="6.6395">
        <ele>187.3</ele>
        <time>2022-10-09T11:06:05Z</time>
      </trkpt>
      <trkpt lat="43.39427" lon="6.63949">
        <ele>187.4</ele>
        <time>2022-10-09T11:06:06Z</time>
      </trkpt>
      <trkpt lat="43.39422" lon="6.63947">
        <ele>187.4</ele>
        <time>2022-10-09T11:06:07Z</time>
      </trkpt>
      <trkpt lat="43.39417" lon="6.63946">
        <ele>187.5</ele>
        <time>2022-10-09T11:06:08Z</time>
      </trkpt>
      <trkpt lat="43.39408" lon="6.63943">
        <ele>187.8</ele>
        <time>2022-10-09T11:06:10Z</time>
      </trkpt>
      <trkpt lat="43.39404" lon="6.63942">
        <ele>188</ele>
        <time>2022-10-09T11:06:11Z</time>
      </trkpt>
      <trkpt lat="43.394" lon="6.63941">
        <ele>188.2</ele>
        <time>2022-10-09T11:06:12Z</time>
      </trkpt>
      <trkpt lat="43.39397" lon="6.6394">
        <ele>188.4</ele>
        <time>2022-10-09T11:06:13Z</time>
      </trkpt>
      <trkpt lat="43.39394" lon="6.63939">
        <ele>188.6</ele>
        <time>2022-10-09T11:06:14Z</time>
      </trkpt>
      <trkpt lat="43.39391" lon="6.63938">
        <ele>188.8</ele>
        <time>2022-10-09T11:06:15Z</time>
      </trkpt>
      <trkpt lat="43.39389" lon="6.63937">
        <ele>189</ele>
        <time>2022-10-09T11:06:16Z</time>
      </trkpt>
      <trkpt lat="43.39388" lon="6.63937">
        <ele>189.2</ele>
        <time>2022-10-09T11:06:17Z</time>
      </trkpt>
      <trkpt lat="43.39387" lon="6.63936">
        <ele>189.3</ele>
        <time>2022-10-09T11:06:18Z</time>
      </trkpt>
      <trkpt lat="43.39386" lon="6.63936">
        <ele>189.3</ele>
        <time>2022-10-09T11:06:19Z</time>
      </trkpt>
      <trkpt lat="43.39386" lon="6.63936">
        <ele>189.4</ele>
        <time>2022-10-09T11:06:20Z</time>
      </trkpt>
      <trkpt lat="43.39385" lon="6.63936">
        <ele>189.5</ele>
        <time>2022-10-09T11:06:21Z</time>
      </trkpt>
      <trkpt lat="43.39384" lon="6.63936">
        <ele>189.6</ele>
        <time>2022-10-09T11:06:22Z</time>
      </trkpt>
      <trkpt lat="43.39383" lon="6.63937">
        <ele>189.7</ele>
        <time>2022-10-09T11:06:23Z</time>
      </trkpt>
      <trkpt lat="43.39382" lon="6.63937">
        <ele>189.8</ele>
        <time>2022-10-09T11:06:24Z</time>
      </trkpt>
      <trkpt lat="43.39381" lon="6.63937">
        <ele>190</ele>
        <time>2022-10-09T11:06:25Z</time>
      </trkpt>
      <trkpt lat="43.3938" lon="6.63937">
        <ele>190.1</ele>
        <time>2022-10-09T11:06:26Z</time>
      </trkpt>
      <trkpt lat="43.39379" lon="6.63937">
        <ele>190.2</ele>
        <time>2022-10-09T11:06:27Z</time>
      </trkpt>
      <trkpt lat="43.39378" lon="6.63937">
        <ele>190.3</ele>
        <time>2022-10-09T11:06:28Z</time>
      </trkpt>
      <trkpt lat="43.39376" lon="6.63937">
        <ele>190.4</ele>
        <time>2022-10-09T11:06:29Z</time>
      </trkpt>
      <trkpt lat="43.39375" lon="6.63937">
        <ele>190.5</ele>
        <time>2022-10-09T11:06:30Z</time>
      </trkpt>
      <trkpt lat="43.39374" lon="6.63937">
        <ele>190.7</ele>
        <time>2022-10-09T11:06:31Z</time>
      </trkpt>
      <trkpt lat="43.39373" lon="6.63937">
        <ele>190.8</ele>
        <time>2022-10-09T11:06:32Z</time>
      </trkpt>
      <trkpt lat="43.39372" lon="6.63937">
        <ele>190.9</ele>
        <time>2022-10-09T11:06:33Z</time>
      </trkpt>
      <trkpt lat="43.39371" lon="6.63937">
        <ele>191</ele>
        <time>2022-10-09T11:06:34Z</time>
      </trkpt>
      <trkpt lat="43.3937" lon="6.63937">
        <ele>191.1</ele>
        <time>2022-10-09T11:06:35Z</time>
      </trkpt>
      <trkpt lat="43.39368" lon="6.63938">
        <ele>191.3</ele>
        <time>2022-10-09T11:06:36Z</time>
      </trkpt>
      <trkpt lat="43.39367" lon="6.63938">
        <ele>191.4</ele>
        <time>2022-10-09T11:06:37Z</time>
      </trkpt>
      <trkpt lat="43.39366" lon="6.63938">
        <ele>191.6</ele>
        <time>2022-10-09T11:06:38Z</time>
      </trkpt>
      <trkpt lat="43.39364" lon="6.63938">
        <ele>191.7</ele>
        <time>2022-10-09T11:06:39Z</time>
      </trkpt>
      <trkpt lat="43.39363" lon="6.63939">
        <ele>191.8</ele>
        <time>2022-10-09T11:06:40Z</time>
      </trkpt>
      <trkpt lat="43.39362" lon="6.63939">
        <ele>191.9</ele>
        <time>2022-10-09T11:06:41Z</time>
      </trkpt>
      <trkpt lat="43.39361" lon="6.63939">
        <ele>192</ele>
        <time>2022-10-09T11:06:42Z</time>
      </trkpt>
      <trkpt lat="43.3936" lon="6.63939">
        <ele>192.1</ele>
        <time>2022-10-09T11:06:43Z</time>
      </trkpt>
      <trkpt lat="43.39359" lon="6.6394">
        <ele>192.2</ele>
        <time>2022-10-09T11:06:44Z</time>
      </trkpt>
      <trkpt lat="43.39358" lon="6.6394">
        <ele>192.3</ele>
        <time>2022-10-09T11:06:45Z</time>
      </trkpt>
      <trkpt lat="43.39357" lon="6.63941">
        <ele>192.5</ele>
        <time>2022-10-09T11:06:46Z</time>
      </trkpt>
      <trkpt lat="43.39356" lon="6.63941">
        <ele>192.6</ele>
        <time>2022-10-09T11:06:47Z</time>
      </trkpt>
      <trkpt lat="43.39355" lon="6.63941">
        <ele>192.7</ele>
        <time>2022-10-09T11:06:48Z</time>
      </trkpt>
      <trkpt lat="43.39354" lon="6.63941">
        <ele>192.8</ele>
        <time>2022-10-09T11:06:49Z</time>
      </trkpt>
      <trkpt lat="43.39353" lon="6.63941">
        <ele>192.9</ele>
        <time>2022-10-09T11:06:50Z</time>
      </trkpt>
      <trkpt lat="43.39352" lon="6.63941">
        <ele>193</ele>
        <time>2022-10-09T11:06:51Z</time>
      </trkpt>
      <trkpt lat="43.39351" lon="6.63941">
        <ele>193.1</ele>
        <time>2022-10-09T11:06:52Z</time>
      </trkpt>
      <trkpt lat="43.39349" lon="6.63941">
        <ele>193.2</ele>
        <time>2022-10-09T11:06:53Z</time>
      </trkpt>
      <trkpt lat="43.39348" lon="6.63941">
        <ele>193.3</ele>
        <time>2022-10-09T11:06:54Z</time>
      </trkpt>
      <trkpt lat="43.39347" lon="6.63942">
        <ele>193.4</ele>
        <time>2022-10-09T11:06:55Z</time>
      </trkpt>
      <trkpt lat="43.39346" lon="6.63942">
        <ele>193.5</ele>
        <time>2022-10-09T11:06:56Z</time>
      </trkpt>
      <trkpt lat="43.39345" lon="6.63942">
        <ele>193.7</ele>
        <time>2022-10-09T11:06:57Z</time>
      </trkpt>
      <trkpt lat="43.39344" lon="6.63942">
        <ele>193.8</ele>
        <time>2022-10-09T11:06:58Z</time>
      </trkpt>
      <trkpt lat="43.39343" lon="6.63942">
        <ele>193.9</ele>
        <time>2022-10-09T11:06:59Z</time>
      </trkpt>
      <trkpt lat="43.39342" lon="6.63942">
        <ele>194</ele>
        <time>2022-10-09T11:07:00Z</time>
      </trkpt>
      <trkpt lat="43.3934" lon="6.63943">
        <ele>194.1</ele>
        <time>2022-10-09T11:07:01Z</time>
      </trkpt>
      <trkpt lat="43.39339" lon="6.63943">
        <ele>194.2</ele>
        <time>2022-10-09T11:07:02Z</time>
      </trkpt>
      <trkpt lat="43.39338" lon="6.63943">
        <ele>194.3</ele>
        <time>2022-10-09T11:07:03Z</time>
      </trkpt>
      <trkpt lat="43.39337" lon="6.63944">
        <ele>194.4</ele>
        <time>2022-10-09T11:07:04Z</time>
      </trkpt>
      <trkpt lat="43.39336" lon="6.63944">
        <ele>194.6</ele>
        <time>2022-10-09T11:07:05Z</time>
      </trkpt>
      <trkpt lat="43.39335" lon="6.63944">
        <ele>194.7</ele>
        <time>2022-10-09T11:07:06Z</time>
      </trkpt>
      <trkpt lat="43.39333" lon="6.63944">
        <ele>194.8</ele>
        <time>2022-10-09T11:07:07Z</time>
      </trkpt>
      <trkpt lat="43.39332" lon="6.63945">
        <ele>194.9</ele>
        <time>2022-10-09T11:07:08Z</time>
      </trkpt>
      <trkpt lat="43.39331" lon="6.63945">
        <ele>195</ele>
        <time>2022-10-09T11:07:09Z</time>
      </trkpt>
      <trkpt lat="43.3933" lon="6.63945">
        <ele>195</ele>
        <time>2022-10-09T11:07:10Z</time>
      </trkpt>
      <trkpt lat="43.3933" lon="6.63946">
        <ele>195.1</ele>
        <time>2022-10-09T11:07:12Z</time>
      </trkpt>
      <trkpt lat="43.39329" lon="6.63946">
        <ele>195.2</ele>
        <time>2022-10-09T11:07:13Z</time>
      </trkpt>
      <trkpt lat="43.39328" lon="6.63947">
        <ele>195.3</ele>
        <time>2022-10-09T11:07:14Z</time>
      </trkpt>
      <trkpt lat="43.39326" lon="6.63947">
        <ele>195.4</ele>
        <time>2022-10-09T11:07:15Z</time>
      </trkpt>
      <trkpt lat="43.39325" lon="6.63948">
        <ele>195.5</ele>
        <time>2022-10-09T11:07:16Z</time>
      </trkpt>
      <trkpt lat="43.39323" lon="6.63949">
        <ele>195.6</ele>
        <time>2022-10-09T11:07:17Z</time>
      </trkpt>
      <trkpt lat="43.39321" lon="6.6395">
        <ele>195.8</ele>
        <time>2022-10-09T11:07:18Z</time>
      </trkpt>
      <trkpt lat="43.3932" lon="6.63951">
        <ele>195.9</ele>
        <time>2022-10-09T11:07:19Z</time>
      </trkpt>
      <trkpt lat="43.39318" lon="6.63953">
        <ele>196.1</ele>
        <time>2022-10-09T11:07:20Z</time>
      </trkpt>
      <trkpt lat="43.39316" lon="6.63954">
        <ele>196.2</ele>
        <time>2022-10-09T11:07:21Z</time>
      </trkpt>
      <trkpt lat="43.39314" lon="6.63955">
        <ele>196.3</ele>
        <time>2022-10-09T11:07:22Z</time>
      </trkpt>
      <trkpt lat="43.39312" lon="6.63956">
        <ele>196.4</ele>
        <time>2022-10-09T11:07:23Z</time>
      </trkpt>
      <trkpt lat="43.3931" lon="6.63957">
        <ele>196.5</ele>
        <time>2022-10-09T11:07:24Z</time>
      </trkpt>
      <trkpt lat="43.39307" lon="6.63958">
        <ele>196.7</ele>
        <time>2022-10-09T11:07:25Z</time>
      </trkpt>
      <trkpt lat="43.39305" lon="6.63959">
        <ele>196.8</ele>
        <time>2022-10-09T11:07:26Z</time>
      </trkpt>
      <trkpt lat="43.39303" lon="6.63961">
        <ele>196.9</ele>
        <time>2022-10-09T11:07:27Z</time>
      </trkpt>
      <trkpt lat="43.39301" lon="6.63962">
        <ele>197</ele>
        <time>2022-10-09T11:07:28Z</time>
      </trkpt>
      <trkpt lat="43.39299" lon="6.63963">
        <ele>197.1</ele>
        <time>2022-10-09T11:07:29Z</time>
      </trkpt>
      <trkpt lat="43.39297" lon="6.63964">
        <ele>197.2</ele>
        <time>2022-10-09T11:07:30Z</time>
      </trkpt>
      <trkpt lat="43.39293" lon="6.63967">
        <ele>197.5</ele>
        <time>2022-10-09T11:07:32Z</time>
      </trkpt>
      <trkpt lat="43.39292" lon="6.63969">
        <ele>197.6</ele>
        <time>2022-10-09T11:07:33Z</time>
      </trkpt>
      <trkpt lat="43.3929" lon="6.63971">
        <ele>197.8</ele>
        <time>2022-10-09T11:07:34Z</time>
      </trkpt>
      <trkpt lat="43.39289" lon="6.63974">
        <ele>197.9</ele>
        <time>2022-10-09T11:07:35Z</time>
      </trkpt>
      <trkpt lat="43.39288" lon="6.63976">
        <ele>198.1</ele>
        <time>2022-10-09T11:07:36Z</time>
      </trkpt>
      <trkpt lat="43.39287" lon="6.63977">
        <ele>198.2</ele>
        <time>2022-10-09T11:07:37Z</time>
      </trkpt>
      <trkpt lat="43.39287" lon="6.63979">
        <ele>198.3</ele>
        <time>2022-10-09T11:07:38Z</time>
      </trkpt>
      <trkpt lat="43.39286" lon="6.63981">
        <ele>198.5</ele>
        <time>2022-10-09T11:07:39Z</time>
      </trkpt>
      <trkpt lat="43.39286" lon="6.63983">
        <ele>198.6</ele>
        <time>2022-10-09T11:07:40Z</time>
      </trkpt>
      <trkpt lat="43.39285" lon="6.63986">
        <ele>198.8</ele>
        <time>2022-10-09T11:07:41Z</time>
      </trkpt>
      <trkpt lat="43.39285" lon="6.63988">
        <ele>199</ele>
        <time>2022-10-09T11:07:42Z</time>
      </trkpt>
      <trkpt lat="43.39284" lon="6.6399">
        <ele>199.2</ele>
        <time>2022-10-09T11:07:43Z</time>
      </trkpt>
      <trkpt lat="43.39284" lon="6.63992">
        <ele>199.3</ele>
        <time>2022-10-09T11:07:44Z</time>
      </trkpt>
      <trkpt lat="43.39284" lon="6.63994">
        <ele>199.5</ele>
        <time>2022-10-09T11:07:45Z</time>
      </trkpt>
      <trkpt lat="43.39283" lon="6.63996">
        <ele>199.7</ele>
        <time>2022-10-09T11:07:46Z</time>
      </trkpt>
      <trkpt lat="43.39282" lon="6.63998">
        <ele>199.9</ele>
        <time>2022-10-09T11:07:47Z</time>
      </trkpt>
      <trkpt lat="43.39281" lon="6.64">
        <ele>200.1</ele>
        <time>2022-10-09T11:07:48Z</time>
      </trkpt>
      <trkpt lat="43.39281" lon="6.64003">
        <ele>200.3</ele>
        <time>2022-10-09T11:07:49Z</time>
      </trkpt>
      <trkpt lat="43.3928" lon="6.64005">
        <ele>200.6</ele>
        <time>2022-10-09T11:07:50Z</time>
      </trkpt>
      <trkpt lat="43.39279" lon="6.64006">
        <ele>200.7</ele>
        <time>2022-10-09T11:07:51Z</time>
      </trkpt>
      <trkpt lat="43.39277" lon="6.64007">
        <ele>201</ele>
        <time>2022-10-09T11:07:52Z</time>
      </trkpt>
      <trkpt lat="43.39276" lon="6.64009">
        <ele>201.2</ele>
        <time>2022-10-09T11:07:53Z</time>
      </trkpt>
      <trkpt lat="43.39274" lon="6.6401">
        <ele>201.4</ele>
        <time>2022-10-09T11:07:54Z</time>
      </trkpt>
      <trkpt lat="43.39272" lon="6.6401">
        <ele>201.7</ele>
        <time>2022-10-09T11:07:55Z</time>
      </trkpt>
      <trkpt lat="43.3927" lon="6.6401">
        <ele>201.9</ele>
        <time>2022-10-09T11:07:56Z</time>
      </trkpt>
      <trkpt lat="43.39269" lon="6.6401">
        <ele>202</ele>
        <time>2022-10-09T11:07:57Z</time>
      </trkpt>
      <trkpt lat="43.39268" lon="6.6401">
        <ele>202.1</ele>
        <time>2022-10-09T11:07:58Z</time>
      </trkpt>
      <trkpt lat="43.39266" lon="6.6401">
        <ele>202.3</ele>
        <time>2022-10-09T11:07:59Z</time>
      </trkpt>
      <trkpt lat="43.39265" lon="6.6401">
        <ele>202.4</ele>
        <time>2022-10-09T11:08:00Z</time>
      </trkpt>
      <trkpt lat="43.39264" lon="6.64009">
        <ele>202.5</ele>
        <time>2022-10-09T11:08:01Z</time>
      </trkpt>
      <trkpt lat="43.39262" lon="6.64009">
        <ele>202.7</ele>
        <time>2022-10-09T11:08:02Z</time>
      </trkpt>
      <trkpt lat="43.39261" lon="6.64009">
        <ele>202.8</ele>
        <time>2022-10-09T11:08:03Z</time>
      </trkpt>
      <trkpt lat="43.3926" lon="6.64008">
        <ele>203</ele>
        <time>2022-10-09T11:08:04Z</time>
      </trkpt>
      <trkpt lat="43.39258" lon="6.64008">
        <ele>203.2</ele>
        <time>2022-10-09T11:08:05Z</time>
      </trkpt>
      <trkpt lat="43.39257" lon="6.64007">
        <ele>203.3</ele>
        <time>2022-10-09T11:08:06Z</time>
      </trkpt>
      <trkpt lat="43.39255" lon="6.64006">
        <ele>203.5</ele>
        <time>2022-10-09T11:08:07Z</time>
      </trkpt>
      <trkpt lat="43.39254" lon="6.64005">
        <ele>203.6</ele>
        <time>2022-10-09T11:08:08Z</time>
      </trkpt>
      <trkpt lat="43.39253" lon="6.64005">
        <ele>203.8</ele>
        <time>2022-10-09T11:08:09Z</time>
      </trkpt>
      <trkpt lat="43.39251" lon="6.64004">
        <ele>203.9</ele>
        <time>2022-10-09T11:08:10Z</time>
      </trkpt>
      <trkpt lat="43.3925" lon="6.64003">
        <ele>204.1</ele>
        <time>2022-10-09T11:08:11Z</time>
      </trkpt>
      <trkpt lat="43.39248" lon="6.64003">
        <ele>204.3</ele>
        <time>2022-10-09T11:08:12Z</time>
      </trkpt>
      <trkpt lat="43.39247" lon="6.64002">
        <ele>204.4</ele>
        <time>2022-10-09T11:08:13Z</time>
      </trkpt>
      <trkpt lat="43.39245" lon="6.64001">
        <ele>204.6</ele>
        <time>2022-10-09T11:08:14Z</time>
      </trkpt>
      <trkpt lat="43.39244" lon="6.64">
        <ele>204.8</ele>
        <time>2022-10-09T11:08:15Z</time>
      </trkpt>
      <trkpt lat="43.39242" lon="6.63999">
        <ele>204.9</ele>
        <time>2022-10-09T11:08:16Z</time>
      </trkpt>
      <trkpt lat="43.3924" lon="6.63998">
        <ele>205.1</ele>
        <time>2022-10-09T11:08:17Z</time>
      </trkpt>
      <trkpt lat="43.39238" lon="6.63997">
        <ele>205.3</ele>
        <time>2022-10-09T11:08:18Z</time>
      </trkpt>
      <trkpt lat="43.39237" lon="6.63997">
        <ele>205.5</ele>
        <time>2022-10-09T11:08:19Z</time>
      </trkpt>
      <trkpt lat="43.39235" lon="6.63996">
        <ele>205.7</ele>
        <time>2022-10-09T11:08:20Z</time>
      </trkpt>
      <trkpt lat="43.39233" lon="6.63995">
        <ele>205.9</ele>
        <time>2022-10-09T11:08:21Z</time>
      </trkpt>
      <trkpt lat="43.39231" lon="6.63994">
        <ele>206.1</ele>
        <time>2022-10-09T11:08:22Z</time>
      </trkpt>
      <trkpt lat="43.39229" lon="6.63993">
        <ele>206.2</ele>
        <time>2022-10-09T11:08:23Z</time>
      </trkpt>
      <trkpt lat="43.39227" lon="6.63992">
        <ele>206.4</ele>
        <time>2022-10-09T11:08:24Z</time>
      </trkpt>
      <trkpt lat="43.39225" lon="6.63991">
        <ele>206.6</ele>
        <time>2022-10-09T11:08:25Z</time>
      </trkpt>
      <trkpt lat="43.39223" lon="6.63989">
        <ele>206.8</ele>
        <time>2022-10-09T11:08:26Z</time>
      </trkpt>
      <trkpt lat="43.39221" lon="6.63988">
        <ele>206.9</ele>
        <time>2022-10-09T11:08:27Z</time>
      </trkpt>
      <trkpt lat="43.39219" lon="6.63987">
        <ele>207.1</ele>
        <time>2022-10-09T11:08:28Z</time>
      </trkpt>
      <trkpt lat="43.39218" lon="6.63986">
        <ele>207.2</ele>
        <time>2022-10-09T11:08:29Z</time>
      </trkpt>
      <trkpt lat="43.39216" lon="6.63985">
        <ele>207.4</ele>
        <time>2022-10-09T11:08:30Z</time>
      </trkpt>
      <trkpt lat="43.39214" lon="6.63984">
        <ele>207.5</ele>
        <time>2022-10-09T11:08:31Z</time>
      </trkpt>
      <trkpt lat="43.39212" lon="6.63983">
        <ele>207.7</ele>
        <time>2022-10-09T11:08:32Z</time>
      </trkpt>
      <trkpt lat="43.39211" lon="6.63982">
        <ele>207.8</ele>
        <time>2022-10-09T11:08:33Z</time>
      </trkpt>
      <trkpt lat="43.39209" lon="6.63981">
        <ele>207.9</ele>
        <time>2022-10-09T11:08:34Z</time>
      </trkpt>
      <trkpt lat="43.39208" lon="6.6398">
        <ele>208</ele>
        <time>2022-10-09T11:08:35Z</time>
      </trkpt>
      <trkpt lat="43.39207" lon="6.63979">
        <ele>208.2</ele>
        <time>2022-10-09T11:08:36Z</time>
      </trkpt>
      <trkpt lat="43.39206" lon="6.63977">
        <ele>208.3</ele>
        <time>2022-10-09T11:08:37Z</time>
      </trkpt>
      <trkpt lat="43.39204" lon="6.63975">
        <ele>208.4</ele>
        <time>2022-10-09T11:08:38Z</time>
      </trkpt>
      <trkpt lat="43.39203" lon="6.63973">
        <ele>208.6</ele>
        <time>2022-10-09T11:08:39Z</time>
      </trkpt>
      <trkpt lat="43.39202" lon="6.63971">
        <ele>208.7</ele>
        <time>2022-10-09T11:08:40Z</time>
      </trkpt>
      <trkpt lat="43.39201" lon="6.63968">
        <ele>208.9</ele>
        <time>2022-10-09T11:08:41Z</time>
      </trkpt>
      <trkpt lat="43.392" lon="6.63965">
        <ele>209.1</ele>
        <time>2022-10-09T11:08:42Z</time>
      </trkpt>
      <trkpt lat="43.39199" lon="6.63962">
        <ele>209.3</ele>
        <time>2022-10-09T11:08:43Z</time>
      </trkpt>
      <trkpt lat="43.39199" lon="6.63958">
        <ele>209.4</ele>
        <time>2022-10-09T11:08:44Z</time>
      </trkpt>
      <trkpt lat="43.39199" lon="6.63954">
        <ele>209.6</ele>
        <time>2022-10-09T11:08:45Z</time>
      </trkpt>
      <trkpt lat="43.39198" lon="6.6395">
        <ele>209.8</ele>
        <time>2022-10-09T11:08:46Z</time>
      </trkpt>
      <trkpt lat="43.39197" lon="6.63947">
        <ele>209.8</ele>
        <time>2022-10-09T11:08:47Z</time>
      </trkpt>
      <trkpt lat="43.39195" lon="6.63944">
        <ele>209.9</ele>
        <time>2022-10-09T11:08:48Z</time>
      </trkpt>
      <trkpt lat="43.39193" lon="6.63941">
        <ele>210</ele>
        <time>2022-10-09T11:08:49Z</time>
      </trkpt>
      <trkpt lat="43.39191" lon="6.63939">
        <ele>210</ele>
        <time>2022-10-09T11:08:50Z</time>
      </trkpt>
      <trkpt lat="43.39189" lon="6.63939">
        <ele>210.1</ele>
        <time>2022-10-09T11:08:51Z</time>
      </trkpt>
      <trkpt lat="43.39187" lon="6.63939">
        <ele>210.2</ele>
        <time>2022-10-09T11:08:52Z</time>
      </trkpt>
      <trkpt lat="43.39184" lon="6.6394">
        <ele>210.3</ele>
        <time>2022-10-09T11:08:53Z</time>
      </trkpt>
      <trkpt lat="43.39182" lon="6.63941">
        <ele>210.3</ele>
        <time>2022-10-09T11:08:54Z</time>
      </trkpt>
      <trkpt lat="43.39181" lon="6.63942">
        <ele>210.4</ele>
        <time>2022-10-09T11:08:55Z</time>
      </trkpt>
      <trkpt lat="43.39179" lon="6.63943">
        <ele>210.5</ele>
        <time>2022-10-09T11:08:56Z</time>
      </trkpt>
      <trkpt lat="43.39177" lon="6.63943">
        <ele>210.6</ele>
        <time>2022-10-09T11:08:57Z</time>
      </trkpt>
      <trkpt lat="43.39176" lon="6.63944">
        <ele>210.7</ele>
        <time>2022-10-09T11:08:58Z</time>
      </trkpt>
      <trkpt lat="43.39174" lon="6.63944">
        <ele>210.8</ele>
        <time>2022-10-09T11:08:59Z</time>
      </trkpt>
      <trkpt lat="43.39172" lon="6.63945">
        <ele>210.9</ele>
        <time>2022-10-09T11:09:00Z</time>
      </trkpt>
      <trkpt lat="43.39171" lon="6.63945">
        <ele>211</ele>
        <time>2022-10-09T11:09:01Z</time>
      </trkpt>
      <trkpt lat="43.39169" lon="6.63946">
        <ele>211.1</ele>
        <time>2022-10-09T11:09:02Z</time>
      </trkpt>
      <trkpt lat="43.39168" lon="6.63947">
        <ele>211.2</ele>
        <time>2022-10-09T11:09:03Z</time>
      </trkpt>
      <trkpt lat="43.39165" lon="6.6395">
        <ele>211.4</ele>
        <time>2022-10-09T11:09:05Z</time>
      </trkpt>
      <trkpt lat="43.39163" lon="6.63951">
        <ele>211.5</ele>
        <time>2022-10-09T11:09:06Z</time>
      </trkpt>
      <trkpt lat="43.3916" lon="6.63953">
        <ele>211.8</ele>
        <time>2022-10-09T11:09:08Z</time>
      </trkpt>
      <trkpt lat="43.39156" lon="6.63955">
        <ele>212.1</ele>
        <time>2022-10-09T11:09:10Z</time>
      </trkpt>
      <trkpt lat="43.39155" lon="6.63956">
        <ele>212.2</ele>
        <time>2022-10-09T11:09:11Z</time>
      </trkpt>
      <trkpt lat="43.39153" lon="6.63956">
        <ele>212.3</ele>
        <time>2022-10-09T11:09:12Z</time>
      </trkpt>
      <trkpt lat="43.39151" lon="6.63957">
        <ele>212.5</ele>
        <time>2022-10-09T11:09:13Z</time>
      </trkpt>
      <trkpt lat="43.39149" lon="6.63958">
        <ele>212.6</ele>
        <time>2022-10-09T11:09:14Z</time>
      </trkpt>
      <trkpt lat="43.39148" lon="6.63958">
        <ele>212.8</ele>
        <time>2022-10-09T11:09:15Z</time>
      </trkpt>
      <trkpt lat="43.39146" lon="6.63959">
        <ele>213</ele>
        <time>2022-10-09T11:09:16Z</time>
      </trkpt>
      <trkpt lat="43.39144" lon="6.6396">
        <ele>213.1</ele>
        <time>2022-10-09T11:09:17Z</time>
      </trkpt>
      <trkpt lat="43.39143" lon="6.63961">
        <ele>213.3</ele>
        <time>2022-10-09T11:09:18Z</time>
      </trkpt>
      <trkpt lat="43.39141" lon="6.63961">
        <ele>213.5</ele>
        <time>2022-10-09T11:09:19Z</time>
      </trkpt>
      <trkpt lat="43.39139" lon="6.63961">
        <ele>213.7</ele>
        <time>2022-10-09T11:09:20Z</time>
      </trkpt>
      <trkpt lat="43.39137" lon="6.63962">
        <ele>213.8</ele>
        <time>2022-10-09T11:09:21Z</time>
      </trkpt>
      <trkpt lat="43.39135" lon="6.63962">
        <ele>214</ele>
        <time>2022-10-09T11:09:22Z</time>
      </trkpt>
      <trkpt lat="43.39133" lon="6.63962">
        <ele>214.1</ele>
        <time>2022-10-09T11:09:23Z</time>
      </trkpt>
      <trkpt lat="43.39131" lon="6.63963">
        <ele>214.3</ele>
        <time>2022-10-09T11:09:24Z</time>
      </trkpt>
      <trkpt lat="43.39129" lon="6.63963">
        <ele>214.4</ele>
        <time>2022-10-09T11:09:25Z</time>
      </trkpt>
      <trkpt lat="43.39128" lon="6.63963">
        <ele>214.6</ele>
        <time>2022-10-09T11:09:26Z</time>
      </trkpt>
      <trkpt lat="43.39127" lon="6.63964">
        <ele>214.7</ele>
        <time>2022-10-09T11:09:27Z</time>
      </trkpt>
      <trkpt lat="43.39125" lon="6.63965">
        <ele>214.8</ele>
        <time>2022-10-09T11:09:28Z</time>
      </trkpt>
      <trkpt lat="43.39124" lon="6.63965">
        <ele>214.9</ele>
        <time>2022-10-09T11:09:29Z</time>
      </trkpt>
      <trkpt lat="43.39122" lon="6.63966">
        <ele>215</ele>
        <time>2022-10-09T11:09:30Z</time>
      </trkpt>
      <trkpt lat="43.39121" lon="6.63967">
        <ele>215.1</ele>
        <time>2022-10-09T11:09:31Z</time>
      </trkpt>
      <trkpt lat="43.39119" lon="6.63967">
        <ele>215.2</ele>
        <time>2022-10-09T11:09:32Z</time>
      </trkpt>
      <trkpt lat="43.39117" lon="6.63968">
        <ele>215.3</ele>
        <time>2022-10-09T11:09:33Z</time>
      </trkpt>
      <trkpt lat="43.39115" lon="6.63968">
        <ele>215.5</ele>
        <time>2022-10-09T11:09:34Z</time>
      </trkpt>
      <trkpt lat="43.39113" lon="6.63967">
        <ele>215.6</ele>
        <time>2022-10-09T11:09:35Z</time>
      </trkpt>
      <trkpt lat="43.39111" lon="6.63966">
        <ele>215.5</ele>
        <time>2022-10-09T11:09:36Z</time>
      </trkpt>
      <trkpt lat="43.39109" lon="6.63964">
        <ele>215.4</ele>
        <time>2022-10-09T11:09:37Z</time>
      </trkpt>
      <trkpt lat="43.39107" lon="6.63961">
        <ele>214.8</ele>
        <time>2022-10-09T11:09:38Z</time>
      </trkpt>
      <trkpt lat="43.39106" lon="6.63959">
        <ele>214.6</ele>
        <time>2022-10-09T11:09:39Z</time>
      </trkpt>
      <trkpt lat="43.39105" lon="6.63956">
        <ele>214.5</ele>
        <time>2022-10-09T11:09:40Z</time>
      </trkpt>
      <trkpt lat="43.39105" lon="6.63954">
        <ele>214.4</ele>
        <time>2022-10-09T11:09:41Z</time>
      </trkpt>
      <trkpt lat="43.39105" lon="6.63952">
        <ele>214.3</ele>
        <time>2022-10-09T11:09:42Z</time>
      </trkpt>
      <trkpt lat="43.39105" lon="6.63951">
        <ele>212.7</ele>
        <time>2022-10-09T11:09:43Z</time>
      </trkpt>
      <trkpt lat="43.39105" lon="6.6395">
        <ele>212.6</ele>
        <time>2022-10-09T11:09:44Z</time>
      </trkpt>
      <trkpt lat="43.39105" lon="6.63948">
        <ele>212.5</ele>
        <time>2022-10-09T11:09:45Z</time>
      </trkpt>
      <trkpt lat="43.39106" lon="6.63947">
        <ele>212.4</ele>
        <time>2022-10-09T11:09:46Z</time>
      </trkpt>
      <trkpt lat="43.39106" lon="6.63946">
        <ele>212.2</ele>
        <time>2022-10-09T11:09:47Z</time>
      </trkpt>
      <trkpt lat="43.39107" lon="6.63944">
        <ele>212.1</ele>
        <time>2022-10-09T11:09:48Z</time>
      </trkpt>
      <trkpt lat="43.39109" lon="6.63942">
        <ele>212.9</ele>
        <time>2022-10-09T11:09:49Z</time>
      </trkpt>
      <trkpt lat="43.3911" lon="6.63941">
        <ele>212.7</ele>
        <time>2022-10-09T11:09:50Z</time>
      </trkpt>
      <trkpt lat="43.3911" lon="6.6394">
        <ele>212.6</ele>
        <time>2022-10-09T11:09:51Z</time>
      </trkpt>
      <trkpt lat="43.39111" lon="6.63939">
        <ele>212.5</ele>
        <time>2022-10-09T11:09:52Z</time>
      </trkpt>
      <trkpt lat="43.39112" lon="6.63939">
        <ele>212.4</ele>
        <time>2022-10-09T11:09:53Z</time>
      </trkpt>
      <trkpt lat="43.39112" lon="6.63938">
        <ele>212.3</ele>
        <time>2022-10-09T11:09:54Z</time>
      </trkpt>
      <trkpt lat="43.39112" lon="6.63937">
        <ele>212.2</ele>
        <time>2022-10-09T11:09:55Z</time>
      </trkpt>
      <trkpt lat="43.39113" lon="6.63937">
        <ele>212.1</ele>
        <time>2022-10-09T11:09:57Z</time>
      </trkpt>
      <trkpt lat="43.391" lon="6.63924">
        <ele>209.5</ele>
        <time>2022-10-09T11:10:20Z</time>
      </trkpt>
      <trkpt lat="43.39098" lon="6.63923">
        <ele>209.4</ele>
        <time>2022-10-09T11:10:22Z</time>
      </trkpt>
      <trkpt lat="43.39096" lon="6.63922">
        <ele>209.3</ele>
        <time>2022-10-09T11:10:23Z</time>
      </trkpt>
      <trkpt lat="43.39094" lon="6.63921">
        <ele>208.4</ele>
        <time>2022-10-09T11:10:25Z</time>
      </trkpt>
      <trkpt lat="43.39093" lon="6.63921">
        <ele>208.3</ele>
        <time>2022-10-09T11:10:26Z</time>
      </trkpt>
      <trkpt lat="43.39092" lon="6.63921">
        <ele>208.2</ele>
        <time>2022-10-09T11:10:27Z</time>
      </trkpt>
      <trkpt lat="43.39089" lon="6.6392">
        <ele>208.1</ele>
        <time>2022-10-09T11:10:29Z</time>
      </trkpt>
      <trkpt lat="43.39088" lon="6.63921">
        <ele>208</ele>
        <time>2022-10-09T11:10:30Z</time>
      </trkpt>
      <trkpt lat="43.39086" lon="6.63921">
        <ele>207.9</ele>
        <time>2022-10-09T11:10:31Z</time>
      </trkpt>
      <trkpt lat="43.39082" lon="6.6392">
        <ele>207</ele>
        <time>2022-10-09T11:10:34Z</time>
      </trkpt>
      <trkpt lat="43.3908" lon="6.63919">
        <ele>206.9</ele>
        <time>2022-10-09T11:10:35Z</time>
      </trkpt>
      <trkpt lat="43.39079" lon="6.63919">
        <ele>206.8</ele>
        <time>2022-10-09T11:10:36Z</time>
      </trkpt>
      <trkpt lat="43.39078" lon="6.63918">
        <ele>206.6</ele>
        <time>2022-10-09T11:10:37Z</time>
      </trkpt>
      <trkpt lat="43.39072" lon="6.63916">
        <ele>204.3</ele>
        <time>2022-10-09T11:10:41Z</time>
      </trkpt>
      <trkpt lat="43.39071" lon="6.63914">
        <ele>204.1</ele>
        <time>2022-10-09T11:10:42Z</time>
      </trkpt>
      <trkpt lat="43.39069" lon="6.63913">
        <ele>203.2</ele>
        <time>2022-10-09T11:10:43Z</time>
      </trkpt>
      <trkpt lat="43.39068" lon="6.63912">
        <ele>203.1</ele>
        <time>2022-10-09T11:10:44Z</time>
      </trkpt>
      <trkpt lat="43.39067" lon="6.63911">
        <ele>203</ele>
        <time>2022-10-09T11:10:45Z</time>
      </trkpt>
      <trkpt lat="43.39065" lon="6.6391">
        <ele>202.9</ele>
        <time>2022-10-09T11:10:46Z</time>
      </trkpt>
      <trkpt lat="43.39063" lon="6.63907">
        <ele>202.8</ele>
        <time>2022-10-09T11:10:48Z</time>
      </trkpt>
      <trkpt lat="43.39059" lon="6.63903">
        <ele>202.7</ele>
        <time>2022-10-09T11:10:50Z</time>
      </trkpt>
      <trkpt lat="43.39058" lon="6.63901">
        <ele>202.6</ele>
        <time>2022-10-09T11:10:51Z</time>
      </trkpt>
      <trkpt lat="43.39057" lon="6.639">
        <ele>198.8</ele>
        <time>2022-10-09T11:10:52Z</time>
      </trkpt>
      <trkpt lat="43.39057" lon="6.63899">
        <ele>198.7</ele>
        <time>2022-10-09T11:10:53Z</time>
      </trkpt>
      <trkpt lat="43.39056" lon="6.63898">
        <ele>198.6</ele>
        <time>2022-10-09T11:10:54Z</time>
      </trkpt>
      <trkpt lat="43.39055" lon="6.63897">
        <ele>198.5</ele>
        <time>2022-10-09T11:10:55Z</time>
      </trkpt>
      <trkpt lat="43.39054" lon="6.63896">
        <ele>198.4</ele>
        <time>2022-10-09T11:10:56Z</time>
      </trkpt>
      <trkpt lat="43.39053" lon="6.63895">
        <ele>198.3</ele>
        <time>2022-10-09T11:10:57Z</time>
      </trkpt>
      <trkpt lat="43.39052" lon="6.63894">
        <ele>198.1</ele>
        <time>2022-10-09T11:10:58Z</time>
      </trkpt>
      <trkpt lat="43.39052" lon="6.63892">
        <ele>198</ele>
        <time>2022-10-09T11:10:59Z</time>
      </trkpt>
      <trkpt lat="43.39052" lon="6.63891">
        <ele>197.9</ele>
        <time>2022-10-09T11:11:00Z</time>
      </trkpt>
      <trkpt lat="43.39052" lon="6.6389">
        <ele>197.8</ele>
        <time>2022-10-09T11:11:01Z</time>
      </trkpt>
      <trkpt lat="43.39052" lon="6.63888">
        <ele>197.7</ele>
        <time>2022-10-09T11:11:02Z</time>
      </trkpt>
      <trkpt lat="43.39052" lon="6.63886">
        <ele>197.6</ele>
        <time>2022-10-09T11:11:04Z</time>
      </trkpt>
      <trkpt lat="43.39052" lon="6.63884">
        <ele>197.5</ele>
        <time>2022-10-09T11:11:06Z</time>
      </trkpt>
      <trkpt lat="43.39052" lon="6.63883">
        <ele>194.8</ele>
        <time>2022-10-09T11:11:07Z</time>
      </trkpt>
      <trkpt lat="43.39052" lon="6.63882">
        <ele>194.7</ele>
        <time>2022-10-09T11:11:08Z</time>
      </trkpt>
      <trkpt lat="43.39049" lon="6.6388">
        <ele>194.5</ele>
        <time>2022-10-09T11:11:12Z</time>
      </trkpt>
      <trkpt lat="43.39046" lon="6.63877">
        <ele>194.4</ele>
        <time>2022-10-09T11:11:15Z</time>
      </trkpt>
      <trkpt lat="43.39043" lon="6.63875">
        <ele>193.1</ele>
        <time>2022-10-09T11:11:17Z</time>
      </trkpt>
      <trkpt lat="43.3904" lon="6.63873">
        <ele>193</ele>
        <time>2022-10-09T11:11:19Z</time>
      </trkpt>
      <trkpt lat="43.39039" lon="6.63872">
        <ele>192.9</ele>
        <time>2022-10-09T11:11:20Z</time>
      </trkpt>
      <trkpt lat="43.39037" lon="6.6387">
        <ele>192.8</ele>
        <time>2022-10-09T11:11:22Z</time>
      </trkpt>
      <trkpt lat="43.39035" lon="6.63867">
        <ele>192.7</ele>
        <time>2022-10-09T11:11:24Z</time>
      </trkpt>
      <trkpt lat="43.39034" lon="6.63866">
        <ele>190</ele>
        <time>2022-10-09T11:11:25Z</time>
      </trkpt>
      <trkpt lat="43.39033" lon="6.63865">
        <ele>188.4</ele>
        <time>2022-10-09T11:11:26Z</time>
      </trkpt>
      <trkpt lat="43.39032" lon="6.63865">
        <ele>188.3</ele>
        <time>2022-10-09T11:11:27Z</time>
      </trkpt>
      <trkpt lat="43.39031" lon="6.63866">
        <ele>188.2</ele>
        <time>2022-10-09T11:11:28Z</time>
      </trkpt>
      <trkpt lat="43.3903" lon="6.63867">
        <ele>190.6</ele>
        <time>2022-10-09T11:11:29Z</time>
      </trkpt>
      <trkpt lat="43.39029" lon="6.63868">
        <ele>190.5</ele>
        <time>2022-10-09T11:11:30Z</time>
      </trkpt>
      <trkpt lat="43.39028" lon="6.63869">
        <ele>190.4</ele>
        <time>2022-10-09T11:11:31Z</time>
      </trkpt>
      <trkpt lat="43.39028" lon="6.6387">
        <ele>190.3</ele>
        <time>2022-10-09T11:11:32Z</time>
      </trkpt>
      <trkpt lat="43.39027" lon="6.63872">
        <ele>190.2</ele>
        <time>2022-10-09T11:11:33Z</time>
      </trkpt>
      <trkpt lat="43.39027" lon="6.63874">
        <ele>190</ele>
        <time>2022-10-09T11:11:34Z</time>
      </trkpt>
      <trkpt lat="43.39025" lon="6.63877">
        <ele>189.9</ele>
        <time>2022-10-09T11:11:36Z</time>
      </trkpt>
      <trkpt lat="43.39024" lon="6.63878">
        <ele>189.8</ele>
        <time>2022-10-09T11:11:37Z</time>
      </trkpt>
      <trkpt lat="43.39024" lon="6.63879">
        <ele>189.7</ele>
        <time>2022-10-09T11:11:38Z</time>
      </trkpt>
      <trkpt lat="43.39023" lon="6.63879">
        <ele>189.6</ele>
        <time>2022-10-09T11:11:39Z</time>
      </trkpt>
      <trkpt lat="43.39022" lon="6.6388">
        <ele>189.5</ele>
        <time>2022-10-09T11:11:40Z</time>
      </trkpt>
      <trkpt lat="43.39021" lon="6.63881">
        <ele>189.4</ele>
        <time>2022-10-09T11:11:41Z</time>
      </trkpt>
      <trkpt lat="43.3902" lon="6.63881">
        <ele>187.5</ele>
        <time>2022-10-09T11:11:42Z</time>
      </trkpt>
      <trkpt lat="43.39019" lon="6.63882">
        <ele>187.3</ele>
        <time>2022-10-09T11:11:43Z</time>
      </trkpt>
      <trkpt lat="43.39019" lon="6.63882">
        <ele>187.3</ele>
        <time>2022-10-09T11:11:45Z</time>
      </trkpt>
      <trkpt lat="43.38955" lon="6.63824">
        <ele>168</ele>
        <time>2022-10-09T11:13:58Z</time>
      </trkpt>
      <trkpt lat="43.38954" lon="6.63822">
        <ele>167.6</ele>
        <time>2022-10-09T11:13:59Z</time>
      </trkpt>
      <trkpt lat="43.38954" lon="6.6382">
        <ele>167.1</ele>
        <time>2022-10-09T11:14:00Z</time>
      </trkpt>
      <trkpt lat="43.38954" lon="6.63818">
        <ele>166.7</ele>
        <time>2022-10-09T11:14:01Z</time>
      </trkpt>
      <trkpt lat="43.38954" lon="6.63814">
        <ele>165.9</ele>
        <time>2022-10-09T11:14:03Z</time>
      </trkpt>
      <trkpt lat="43.38954" lon="6.63812">
        <ele>165.6</ele>
        <time>2022-10-09T11:14:04Z</time>
      </trkpt>
      <trkpt lat="43.38953" lon="6.63811">
        <ele>165.3</ele>
        <time>2022-10-09T11:14:05Z</time>
      </trkpt>
      <trkpt lat="43.38953" lon="6.6381">
        <ele>165.2</ele>
        <time>2022-10-09T11:14:06Z</time>
      </trkpt>
      <trkpt lat="43.38953" lon="6.6381">
        <ele>165.1</ele>
        <time>2022-10-09T11:14:07Z</time>
      </trkpt>
      <trkpt lat="43.38946" lon="6.63798">
        <ele>162.7</ele>
        <time>2022-10-09T11:14:18Z</time>
      </trkpt>
      <trkpt lat="43.38941" lon="6.63795">
        <ele>161.8</ele>
        <time>2022-10-09T11:14:21Z</time>
      </trkpt>
      <trkpt lat="43.3894" lon="6.63793">
        <ele>161.6</ele>
        <time>2022-10-09T11:14:22Z</time>
      </trkpt>
      <trkpt lat="43.38933" lon="6.63783">
        <ele>160.4</ele>
        <time>2022-10-09T11:14:27Z</time>
      </trkpt>
      <trkpt lat="43.38932" lon="6.63782">
        <ele>160.3</ele>
        <time>2022-10-09T11:14:28Z</time>
      </trkpt>
      <trkpt lat="43.3892" lon="6.63773">
        <ele>159.3</ele>
        <time>2022-10-09T11:14:34Z</time>
      </trkpt>
      <trkpt lat="43.38918" lon="6.63772">
        <ele>159.2</ele>
        <time>2022-10-09T11:14:35Z</time>
      </trkpt>
      <trkpt lat="43.38916" lon="6.6377">
        <ele>159.2</ele>
        <time>2022-10-09T11:14:36Z</time>
      </trkpt>
      <trkpt lat="43.38914" lon="6.63769">
        <ele>159.1</ele>
        <time>2022-10-09T11:14:37Z</time>
      </trkpt>
      <trkpt lat="43.38913" lon="6.63768">
        <ele>159</ele>
        <time>2022-10-09T11:14:38Z</time>
      </trkpt>
      <trkpt lat="43.38912" lon="6.63767">
        <ele>159</ele>
        <time>2022-10-09T11:14:39Z</time>
      </trkpt>
      <trkpt lat="43.38911" lon="6.63766">
        <ele>159</ele>
        <time>2022-10-09T11:14:40Z</time>
      </trkpt>
      <trkpt lat="43.3891" lon="6.63766">
        <ele>159</ele>
        <time>2022-10-09T11:14:41Z</time>
      </trkpt>
      <trkpt lat="43.38903" lon="6.63759">
        <ele>158.8</ele>
        <time>2022-10-09T11:14:46Z</time>
      </trkpt>
      <trkpt lat="43.38901" lon="6.63757">
        <ele>158.8</ele>
        <time>2022-10-09T11:14:47Z</time>
      </trkpt>
      <trkpt lat="43.389" lon="6.63756">
        <ele>158.8</ele>
        <time>2022-10-09T11:14:48Z</time>
      </trkpt>
      <trkpt lat="43.38899" lon="6.63754">
        <ele>158.8</ele>
        <time>2022-10-09T11:14:49Z</time>
      </trkpt>
      <trkpt lat="43.38898" lon="6.63752">
        <ele>158.8</ele>
        <time>2022-10-09T11:14:50Z</time>
      </trkpt>
      <trkpt lat="43.38898" lon="6.63749">
        <ele>158.8</ele>
        <time>2022-10-09T11:14:51Z</time>
      </trkpt>
      <trkpt lat="43.38898" lon="6.63747">
        <ele>158.8</ele>
        <time>2022-10-09T11:14:52Z</time>
      </trkpt>
      <trkpt lat="43.38897" lon="6.63745">
        <ele>158.8</ele>
        <time>2022-10-09T11:14:53Z</time>
      </trkpt>
      <trkpt lat="43.38897" lon="6.63743">
        <ele>158.8</ele>
        <time>2022-10-09T11:14:54Z</time>
      </trkpt>
      <trkpt lat="43.38895" lon="6.6374">
        <ele>158.8</ele>
        <time>2022-10-09T11:14:55Z</time>
      </trkpt>
      <trkpt lat="43.38893" lon="6.63738">
        <ele>158.8</ele>
        <time>2022-10-09T11:14:56Z</time>
      </trkpt>
      <trkpt lat="43.3889" lon="6.63736">
        <ele>158.8</ele>
        <time>2022-10-09T11:14:57Z</time>
      </trkpt>
      <trkpt lat="43.38888" lon="6.63734">
        <ele>158.7</ele>
        <time>2022-10-09T11:14:58Z</time>
      </trkpt>
      <trkpt lat="43.38886" lon="6.63731">
        <ele>158.6</ele>
        <time>2022-10-09T11:14:59Z</time>
      </trkpt>
      <trkpt lat="43.38885" lon="6.63727">
        <ele>158.4</ele>
        <time>2022-10-09T11:15:00Z</time>
      </trkpt>
      <trkpt lat="43.38884" lon="6.63723">
        <ele>158.2</ele>
        <time>2022-10-09T11:15:01Z</time>
      </trkpt>
      <trkpt lat="43.38884" lon="6.6372">
        <ele>158</ele>
        <time>2022-10-09T11:15:02Z</time>
      </trkpt>
      <trkpt lat="43.38883" lon="6.63714">
        <ele>157.6</ele>
        <time>2022-10-09T11:15:04Z</time>
      </trkpt>
      <trkpt lat="43.38882" lon="6.63712">
        <ele>157.4</ele>
        <time>2022-10-09T11:15:05Z</time>
      </trkpt>
      <trkpt lat="43.38881" lon="6.63711">
        <ele>157.2</ele>
        <time>2022-10-09T11:15:06Z</time>
      </trkpt>
      <trkpt lat="43.38879" lon="6.6371">
        <ele>157</ele>
        <time>2022-10-09T11:15:07Z</time>
      </trkpt>
      <trkpt lat="43.38877" lon="6.63708">
        <ele>156.7</ele>
        <time>2022-10-09T11:15:08Z</time>
      </trkpt>
      <trkpt lat="43.38876" lon="6.63707">
        <ele>156.3</ele>
        <time>2022-10-09T11:15:09Z</time>
      </trkpt>
      <trkpt lat="43.38874" lon="6.63705">
        <ele>156</ele>
        <time>2022-10-09T11:15:10Z</time>
      </trkpt>
      <trkpt lat="43.38873" lon="6.63703">
        <ele>155.7</ele>
        <time>2022-10-09T11:15:11Z</time>
      </trkpt>
      <trkpt lat="43.38872" lon="6.63702">
        <ele>155.4</ele>
        <time>2022-10-09T11:15:12Z</time>
      </trkpt>
      <trkpt lat="43.3887" lon="6.637">
        <ele>155</ele>
        <time>2022-10-09T11:15:13Z</time>
      </trkpt>
      <trkpt lat="43.38867" lon="6.63696">
        <ele>154.1</ele>
        <time>2022-10-09T11:15:15Z</time>
      </trkpt>
      <trkpt lat="43.38866" lon="6.63695">
        <ele>153.8</ele>
        <time>2022-10-09T11:15:16Z</time>
      </trkpt>
      <trkpt lat="43.38866" lon="6.63694">
        <ele>153.6</ele>
        <time>2022-10-09T11:15:17Z</time>
      </trkpt>
      <trkpt lat="43.38865" lon="6.63694">
        <ele>153.5</ele>
        <time>2022-10-09T11:15:19Z</time>
      </trkpt>
      <trkpt lat="43.38852" lon="6.63677">
        <ele>149.4</ele>
        <time>2022-10-09T11:15:45Z</time>
      </trkpt>
      <trkpt lat="43.38851" lon="6.63675">
        <ele>148.9</ele>
        <time>2022-10-09T11:15:47Z</time>
      </trkpt>
      <trkpt lat="43.3885" lon="6.63674">
        <ele>148.7</ele>
        <time>2022-10-09T11:15:48Z</time>
      </trkpt>
      <trkpt lat="43.3885" lon="6.63673">
        <ele>148.6</ele>
        <time>2022-10-09T11:15:49Z</time>
      </trkpt>
      <trkpt lat="43.38849" lon="6.63672">
        <ele>148.5</ele>
        <time>2022-10-09T11:15:50Z</time>
      </trkpt>
      <trkpt lat="43.38849" lon="6.63672">
        <ele>148.4</ele>
        <time>2022-10-09T11:15:51Z</time>
      </trkpt>
      <trkpt lat="43.38849" lon="6.63672">
        <ele>148.3</ele>
        <time>2022-10-09T11:15:52Z</time>
      </trkpt>
      <trkpt lat="43.38848" lon="6.63671">
        <ele>148.2</ele>
        <time>2022-10-09T11:15:53Z</time>
      </trkpt>
      <trkpt lat="43.38847" lon="6.63671">
        <ele>148</ele>
        <time>2022-10-09T11:15:54Z</time>
      </trkpt>
      <trkpt lat="43.38845" lon="6.63671">
        <ele>147.6</ele>
        <time>2022-10-09T11:15:56Z</time>
      </trkpt>
      <trkpt lat="43.38845" lon="6.6367">
        <ele>147.5</ele>
        <time>2022-10-09T11:15:57Z</time>
      </trkpt>
      <trkpt lat="43.38844" lon="6.6367">
        <ele>147.4</ele>
        <time>2022-10-09T11:15:58Z</time>
      </trkpt>
      <trkpt lat="43.38844" lon="6.63669">
        <ele>147.3</ele>
        <time>2022-10-09T11:15:59Z</time>
      </trkpt>
      <trkpt lat="43.38844" lon="6.63668">
        <ele>147.2</ele>
        <time>2022-10-09T11:16:00Z</time>
      </trkpt>
      <trkpt lat="43.38843" lon="6.63668">
        <ele>147.1</ele>
        <time>2022-10-09T11:16:01Z</time>
      </trkpt>
      <trkpt lat="43.38843" lon="6.63667">
        <ele>147</ele>
        <time>2022-10-09T11:16:02Z</time>
      </trkpt>
      <trkpt lat="43.38838" lon="6.63661">
        <ele>145.7</ele>
        <time>2022-10-09T11:16:09Z</time>
      </trkpt>
      <trkpt lat="43.38836" lon="6.6366">
        <ele>145.5</ele>
        <time>2022-10-09T11:16:10Z</time>
      </trkpt>
      <trkpt lat="43.38836" lon="6.63659">
        <ele>145.3</ele>
        <time>2022-10-09T11:16:11Z</time>
      </trkpt>
      <trkpt lat="43.38836" lon="6.63659">
        <ele>145.3</ele>
        <time>2022-10-09T11:16:13Z</time>
      </trkpt>
      <trkpt lat="43.38827" lon="6.63653">
        <ele>144</ele>
        <time>2022-10-09T11:16:29Z</time>
      </trkpt>
      <trkpt lat="43.38826" lon="6.63652">
        <ele>144</ele>
        <time>2022-10-09T11:16:30Z</time>
      </trkpt>
      <trkpt lat="43.38825" lon="6.63651">
        <ele>143.9</ele>
        <time>2022-10-09T11:16:31Z</time>
      </trkpt>
      <trkpt lat="43.38823" lon="6.63648">
        <ele>143.7</ele>
        <time>2022-10-09T11:16:33Z</time>
      </trkpt>
      <trkpt lat="43.38822" lon="6.63646">
        <ele>143.6</ele>
        <time>2022-10-09T11:16:34Z</time>
      </trkpt>
      <trkpt lat="43.38821" lon="6.63645">
        <ele>143.5</ele>
        <time>2022-10-09T11:16:35Z</time>
      </trkpt>
      <trkpt lat="43.3882" lon="6.63644">
        <ele>143.5</ele>
        <time>2022-10-09T11:16:36Z</time>
      </trkpt>
      <trkpt lat="43.3882" lon="6.63643">
        <ele>143.4</ele>
        <time>2022-10-09T11:16:37Z</time>
      </trkpt>
      <trkpt lat="43.38819" lon="6.63642">
        <ele>143.3</ele>
        <time>2022-10-09T11:16:38Z</time>
      </trkpt>
      <trkpt lat="43.38819" lon="6.63642">
        <ele>143.3</ele>
        <time>2022-10-09T11:16:39Z</time>
      </trkpt>
      <trkpt lat="43.38817" lon="6.6364">
        <ele>143.1</ele>
        <time>2022-10-09T11:16:42Z</time>
      </trkpt>
      <trkpt lat="43.38816" lon="6.6364">
        <ele>143.1</ele>
        <time>2022-10-09T11:16:43Z</time>
      </trkpt>
      <trkpt lat="43.38815" lon="6.63639">
        <ele>143</ele>
        <time>2022-10-09T11:16:44Z</time>
      </trkpt>
      <trkpt lat="43.38808" lon="6.6363">
        <ele>142.2</ele>
        <time>2022-10-09T11:16:48Z</time>
      </trkpt>
      <trkpt lat="43.38804" lon="6.63622">
        <ele>141.8</ele>
        <time>2022-10-09T11:16:50Z</time>
      </trkpt>
      <trkpt lat="43.38799" lon="6.63608">
        <ele>141.2</ele>
        <time>2022-10-09T11:16:53Z</time>
      </trkpt>
      <trkpt lat="43.38797" lon="6.63604">
        <ele>141.1</ele>
        <time>2022-10-09T11:16:54Z</time>
      </trkpt>
      <trkpt lat="43.38795" lon="6.636">
        <ele>141</ele>
        <time>2022-10-09T11:16:55Z</time>
      </trkpt>
      <trkpt lat="43.38794" lon="6.63596">
        <ele>141</ele>
        <time>2022-10-09T11:16:56Z</time>
      </trkpt>
      <trkpt lat="43.38793" lon="6.63593">
        <ele>141</ele>
        <time>2022-10-09T11:16:57Z</time>
      </trkpt>
      <trkpt lat="43.38792" lon="6.63589">
        <ele>141</ele>
        <time>2022-10-09T11:16:58Z</time>
      </trkpt>
      <trkpt lat="43.38791" lon="6.63586">
        <ele>141</ele>
        <time>2022-10-09T11:16:59Z</time>
      </trkpt>
      <trkpt lat="43.38789" lon="6.63583">
        <ele>141</ele>
        <time>2022-10-09T11:17:00Z</time>
      </trkpt>
      <trkpt lat="43.38789" lon="6.63581">
        <ele>141.1</ele>
        <time>2022-10-09T11:17:01Z</time>
      </trkpt>
      <trkpt lat="43.38788" lon="6.6358">
        <ele>141.1</ele>
        <time>2022-10-09T11:17:03Z</time>
      </trkpt>
      <trkpt lat="43.38782" lon="6.6356">
        <ele>141.7</ele>
        <time>2022-10-09T11:17:18Z</time>
      </trkpt>
      <trkpt lat="43.3878" lon="6.63558">
        <ele>141.8</ele>
        <time>2022-10-09T11:17:20Z</time>
      </trkpt>
      <trkpt lat="43.38778" lon="6.63555">
        <ele>142</ele>
        <time>2022-10-09T11:17:22Z</time>
      </trkpt>
      <trkpt lat="43.38777" lon="6.63552">
        <ele>142.1</ele>
        <time>2022-10-09T11:17:24Z</time>
      </trkpt>
      <trkpt lat="43.38777" lon="6.6355">
        <ele>142.2</ele>
        <time>2022-10-09T11:17:25Z</time>
      </trkpt>
      <trkpt lat="43.38776" lon="6.63548">
        <ele>142.3</ele>
        <time>2022-10-09T11:17:26Z</time>
      </trkpt>
      <trkpt lat="43.38776" lon="6.63547">
        <ele>142.4</ele>
        <time>2022-10-09T11:17:27Z</time>
      </trkpt>
      <trkpt lat="43.38775" lon="6.63545">
        <ele>142.5</ele>
        <time>2022-10-09T11:17:28Z</time>
      </trkpt>
      <trkpt lat="43.38775" lon="6.63543">
        <ele>142.6</ele>
        <time>2022-10-09T11:17:29Z</time>
      </trkpt>
      <trkpt lat="43.38775" lon="6.63541">
        <ele>142.7</ele>
        <time>2022-10-09T11:17:30Z</time>
      </trkpt>
      <trkpt lat="43.38775" lon="6.6354">
        <ele>142.8</ele>
        <time>2022-10-09T11:17:31Z</time>
      </trkpt>
      <trkpt lat="43.38775" lon="6.63538">
        <ele>142.9</ele>
        <time>2022-10-09T11:17:32Z</time>
      </trkpt>
      <trkpt lat="43.38776" lon="6.63537">
        <ele>143</ele>
        <time>2022-10-09T11:17:33Z</time>
      </trkpt>
      <trkpt lat="43.38776" lon="6.63536">
        <ele>143.1</ele>
        <time>2022-10-09T11:17:34Z</time>
      </trkpt>
      <trkpt lat="43.38777" lon="6.63535">
        <ele>143.2</ele>
        <time>2022-10-09T11:17:35Z</time>
      </trkpt>
      <trkpt lat="43.38778" lon="6.63532">
        <ele>143.5</ele>
        <time>2022-10-09T11:17:37Z</time>
      </trkpt>
      <trkpt lat="43.38779" lon="6.6353">
        <ele>143.7</ele>
        <time>2022-10-09T11:17:39Z</time>
      </trkpt>
      <trkpt lat="43.38779" lon="6.63528">
        <ele>143.8</ele>
        <time>2022-10-09T11:17:40Z</time>
      </trkpt>
      <trkpt lat="43.3878" lon="6.63527">
        <ele>143.9</ele>
        <time>2022-10-09T11:17:41Z</time>
      </trkpt>
      <trkpt lat="43.3878" lon="6.63527">
        <ele>144</ele>
        <time>2022-10-09T11:17:42Z</time>
      </trkpt>
      <trkpt lat="43.38781" lon="6.63526">
        <ele>144.1</ele>
        <time>2022-10-09T11:17:43Z</time>
      </trkpt>
      <trkpt lat="43.38781" lon="6.63524">
        <ele>144.2</ele>
        <time>2022-10-09T11:17:44Z</time>
      </trkpt>
      <trkpt lat="43.38781" lon="6.63523">
        <ele>144.4</ele>
        <time>2022-10-09T11:17:45Z</time>
      </trkpt>
      <trkpt lat="43.38782" lon="6.63522">
        <ele>144.5</ele>
        <time>2022-10-09T11:17:46Z</time>
      </trkpt>
      <trkpt lat="43.38782" lon="6.6352">
        <ele>144.6</ele>
        <time>2022-10-09T11:17:47Z</time>
      </trkpt>
      <trkpt lat="43.38782" lon="6.63519">
        <ele>144.8</ele>
        <time>2022-10-09T11:17:48Z</time>
      </trkpt>
      <trkpt lat="43.38783" lon="6.63518">
        <ele>144.9</ele>
        <time>2022-10-09T11:17:49Z</time>
      </trkpt>
      <trkpt lat="43.38783" lon="6.63517">
        <ele>145</ele>
        <time>2022-10-09T11:17:50Z</time>
      </trkpt>
      <trkpt lat="43.38783" lon="6.63516">
        <ele>145.1</ele>
        <time>2022-10-09T11:17:51Z</time>
      </trkpt>
      <trkpt lat="43.38784" lon="6.63515">
        <ele>145.3</ele>
        <time>2022-10-09T11:17:52Z</time>
      </trkpt>
      <trkpt lat="43.38785" lon="6.63514">
        <ele>145.4</ele>
        <time>2022-10-09T11:17:53Z</time>
      </trkpt>
      <trkpt lat="43.38785" lon="6.63513">
        <ele>145.5</ele>
        <time>2022-10-09T11:17:54Z</time>
      </trkpt>
      <trkpt lat="43.38786" lon="6.63512">
        <ele>145.7</ele>
        <time>2022-10-09T11:17:55Z</time>
      </trkpt>
      <trkpt lat="43.38786" lon="6.63511">
        <ele>145.7</ele>
        <time>2022-10-09T11:17:56Z</time>
      </trkpt>
      <trkpt lat="43.38787" lon="6.6351">
        <ele>145.9</ele>
        <time>2022-10-09T11:17:57Z</time>
      </trkpt>
      <trkpt lat="43.38787" lon="6.63509">
        <ele>146</ele>
        <time>2022-10-09T11:17:58Z</time>
      </trkpt>
      <trkpt lat="43.38788" lon="6.63508">
        <ele>146.1</ele>
        <time>2022-10-09T11:17:59Z</time>
      </trkpt>
      <trkpt lat="43.38788" lon="6.63508">
        <ele>146.2</ele>
        <time>2022-10-09T11:18:00Z</time>
      </trkpt>
      <trkpt lat="43.38789" lon="6.63507">
        <ele>146.3</ele>
        <time>2022-10-09T11:18:01Z</time>
      </trkpt>
      <trkpt lat="43.38789" lon="6.63507">
        <ele>146.3</ele>
        <time>2022-10-09T11:18:03Z</time>
      </trkpt>
      <trkpt lat="43.38788" lon="6.63503">
        <ele>146.7</ele>
        <time>2022-10-09T11:20:10Z</time>
      </trkpt>
      <trkpt lat="43.38788" lon="6.63502">
        <ele>146.9</ele>
        <time>2022-10-09T11:20:11Z</time>
      </trkpt>
      <trkpt lat="43.38787" lon="6.63499">
        <ele>146.9</ele>
        <time>2022-10-09T11:20:12Z</time>
      </trkpt>
      <trkpt lat="43.38785" lon="6.63496">
        <ele>146.8</ele>
        <time>2022-10-09T11:20:13Z</time>
      </trkpt>
      <trkpt lat="43.3878" lon="6.6349">
        <ele>146.6</ele>
        <time>2022-10-09T11:20:15Z</time>
      </trkpt>
      <trkpt lat="43.38777" lon="6.63487">
        <ele>146.3</ele>
        <time>2022-10-09T11:20:16Z</time>
      </trkpt>
      <trkpt lat="43.38773" lon="6.63486">
        <ele>146.1</ele>
        <time>2022-10-09T11:20:17Z</time>
      </trkpt>
      <trkpt lat="43.38769" lon="6.63484">
        <ele>145.8</ele>
        <time>2022-10-09T11:20:18Z</time>
      </trkpt>
      <trkpt lat="43.38764" lon="6.63483">
        <ele>145.5</ele>
        <time>2022-10-09T11:20:19Z</time>
      </trkpt>
      <trkpt lat="43.38759" lon="6.63482">
        <ele>145.2</ele>
        <time>2022-10-09T11:20:20Z</time>
      </trkpt>
      <trkpt lat="43.38755" lon="6.63483">
        <ele>144.9</ele>
        <time>2022-10-09T11:20:21Z</time>
      </trkpt>
      <trkpt lat="43.3875" lon="6.63485">
        <ele>144.7</ele>
        <time>2022-10-09T11:20:22Z</time>
      </trkpt>
      <trkpt lat="43.38747" lon="6.63488">
        <ele>144.4</ele>
        <time>2022-10-09T11:20:23Z</time>
      </trkpt>
      <trkpt lat="43.38744" lon="6.6349">
        <ele>144.2</ele>
        <time>2022-10-09T11:20:24Z</time>
      </trkpt>
      <trkpt lat="43.38742" lon="6.63491">
        <ele>144</ele>
        <time>2022-10-09T11:20:25Z</time>
      </trkpt>
      <trkpt lat="43.38741" lon="6.63491">
        <ele>144</ele>
        <time>2022-10-09T11:20:26Z</time>
      </trkpt>
      <trkpt lat="43.38742" lon="6.63491">
        <ele>143.9</ele>
        <time>2022-10-09T11:20:28Z</time>
      </trkpt>
      <trkpt lat="43.38736" lon="6.63501">
        <ele>142.9</ele>
        <time>2022-10-09T11:20:48Z</time>
      </trkpt>
      <trkpt lat="43.38733" lon="6.63505">
        <ele>142.2</ele>
        <time>2022-10-09T11:20:50Z</time>
      </trkpt>
      <trkpt lat="43.38731" lon="6.63506">
        <ele>141.9</ele>
        <time>2022-10-09T11:20:51Z</time>
      </trkpt>
      <trkpt lat="43.38727" lon="6.63508">
        <ele>141.1</ele>
        <time>2022-10-09T11:20:53Z</time>
      </trkpt>
      <trkpt lat="43.38725" lon="6.63508">
        <ele>140.7</ele>
        <time>2022-10-09T11:20:54Z</time>
      </trkpt>
      <trkpt lat="43.38723" lon="6.63507">
        <ele>140.2</ele>
        <time>2022-10-09T11:20:55Z</time>
      </trkpt>
      <trkpt lat="43.38721" lon="6.63507">
        <ele>139.9</ele>
        <time>2022-10-09T11:20:56Z</time>
      </trkpt>
      <trkpt lat="43.3872" lon="6.63506">
        <ele>139.6</ele>
        <time>2022-10-09T11:20:57Z</time>
      </trkpt>
      <trkpt lat="43.3872" lon="6.63506">
        <ele>139.5</ele>
        <time>2022-10-09T11:20:58Z</time>
      </trkpt>
      <trkpt lat="43.38719" lon="6.63506">
        <ele>139.5</ele>
        <time>2022-10-09T11:20:59Z</time>
      </trkpt>
      <trkpt lat="43.38719" lon="6.63506">
        <ele>139.3</ele>
        <time>2022-10-09T11:21:01Z</time>
      </trkpt>
      <trkpt lat="43.38709" lon="6.63499">
        <ele>137</ele>
        <time>2022-10-09T11:21:22Z</time>
      </trkpt>
      <trkpt lat="43.38707" lon="6.63496">
        <ele>136.3</ele>
        <time>2022-10-09T11:21:23Z</time>
      </trkpt>
      <trkpt lat="43.387" lon="6.63491">
        <ele>134.7</ele>
        <time>2022-10-09T11:21:25Z</time>
      </trkpt>
      <trkpt lat="43.38691" lon="6.63488">
        <ele>133.2</ele>
        <time>2022-10-09T11:21:27Z</time>
      </trkpt>
      <trkpt lat="43.38687" lon="6.63487">
        <ele>132.5</ele>
        <time>2022-10-09T11:21:28Z</time>
      </trkpt>
      <trkpt lat="43.38683" lon="6.63487">
        <ele>131.9</ele>
        <time>2022-10-09T11:21:29Z</time>
      </trkpt>
      <trkpt lat="43.3868" lon="6.63486">
        <ele>131.3</ele>
        <time>2022-10-09T11:21:30Z</time>
      </trkpt>
      <trkpt lat="43.38676" lon="6.63484">
        <ele>130.8</ele>
        <time>2022-10-09T11:21:31Z</time>
      </trkpt>
      <trkpt lat="43.38673" lon="6.63481">
        <ele>130.2</ele>
        <time>2022-10-09T11:21:32Z</time>
      </trkpt>
      <trkpt lat="43.3867" lon="6.63477">
        <ele>129.4</ele>
        <time>2022-10-09T11:21:33Z</time>
      </trkpt>
      <trkpt lat="43.38668" lon="6.63473">
        <ele>128.7</ele>
        <time>2022-10-09T11:21:34Z</time>
      </trkpt>
      <trkpt lat="43.38666" lon="6.63468">
        <ele>128</ele>
        <time>2022-10-09T11:21:35Z</time>
      </trkpt>
      <trkpt lat="43.38664" lon="6.63464">
        <ele>127.4</ele>
        <time>2022-10-09T11:21:36Z</time>
      </trkpt>
      <trkpt lat="43.38663" lon="6.6346">
        <ele>126.7</ele>
        <time>2022-10-09T11:21:37Z</time>
      </trkpt>
      <trkpt lat="43.38661" lon="6.63455">
        <ele>126</ele>
        <time>2022-10-09T11:21:38Z</time>
      </trkpt>
      <trkpt lat="43.38659" lon="6.63451">
        <ele>125.3</ele>
        <time>2022-10-09T11:21:39Z</time>
      </trkpt>
      <trkpt lat="43.38657" lon="6.63446">
        <ele>124.6</ele>
        <time>2022-10-09T11:21:40Z</time>
      </trkpt>
      <trkpt lat="43.38656" lon="6.63441">
        <ele>124</ele>
        <time>2022-10-09T11:21:41Z</time>
      </trkpt>
      <trkpt lat="43.3865" lon="6.63421">
        <ele>121.5</ele>
        <time>2022-10-09T11:21:45Z</time>
      </trkpt>
      <trkpt lat="43.38649" lon="6.63417">
        <ele>120.9</ele>
        <time>2022-10-09T11:21:46Z</time>
      </trkpt>
      <trkpt lat="43.38647" lon="6.63412">
        <ele>120.4</ele>
        <time>2022-10-09T11:21:47Z</time>
      </trkpt>
      <trkpt lat="43.38642" lon="6.63402">
        <ele>119.1</ele>
        <time>2022-10-09T11:21:49Z</time>
      </trkpt>
      <trkpt lat="43.38639" lon="6.63398">
        <ele>118.5</ele>
        <time>2022-10-09T11:21:50Z</time>
      </trkpt>
      <trkpt lat="43.38636" lon="6.63396">
        <ele>118</ele>
        <time>2022-10-09T11:21:51Z</time>
      </trkpt>
      <trkpt lat="43.38633" lon="6.63394">
        <ele>117.5</ele>
        <time>2022-10-09T11:21:52Z</time>
      </trkpt>
      <trkpt lat="43.3863" lon="6.63394">
        <ele>117</ele>
        <time>2022-10-09T11:21:53Z</time>
      </trkpt>
      <trkpt lat="43.38627" lon="6.63394">
        <ele>116.5</ele>
        <time>2022-10-09T11:21:54Z</time>
      </trkpt>
      <trkpt lat="43.38625" lon="6.63395">
        <ele>116.1</ele>
        <time>2022-10-09T11:21:55Z</time>
      </trkpt>
      <trkpt lat="43.38623" lon="6.63398">
        <ele>115.6</ele>
        <time>2022-10-09T11:21:56Z</time>
      </trkpt>
      <trkpt lat="43.38621" lon="6.63401">
        <ele>114.9</ele>
        <time>2022-10-09T11:21:57Z</time>
      </trkpt>
      <trkpt lat="43.38619" lon="6.63403">
        <ele>114.3</ele>
        <time>2022-10-09T11:21:58Z</time>
      </trkpt>
      <trkpt lat="43.38616" lon="6.63405">
        <ele>113.7</ele>
        <time>2022-10-09T11:21:59Z</time>
      </trkpt>
      <trkpt lat="43.38613" lon="6.63406">
        <ele>113</ele>
        <time>2022-10-09T11:22:00Z</time>
      </trkpt>
      <trkpt lat="43.3861" lon="6.63406">
        <ele>112.3</ele>
        <time>2022-10-09T11:22:01Z</time>
      </trkpt>
      <trkpt lat="43.38606" lon="6.63405">
        <ele>111.6</ele>
        <time>2022-10-09T11:22:02Z</time>
      </trkpt>
      <trkpt lat="43.38603" lon="6.63403">
        <ele>110.9</ele>
        <time>2022-10-09T11:22:03Z</time>
      </trkpt>
      <trkpt lat="43.38599" lon="6.63401">
        <ele>110.2</ele>
        <time>2022-10-09T11:22:04Z</time>
      </trkpt>
      <trkpt lat="43.38592" lon="6.63398">
        <ele>109.1</ele>
        <time>2022-10-09T11:22:06Z</time>
      </trkpt>
      <trkpt lat="43.38589" lon="6.63397">
        <ele>108.7</ele>
        <time>2022-10-09T11:22:07Z</time>
      </trkpt>
      <trkpt lat="43.38586" lon="6.63397">
        <ele>108.2</ele>
        <time>2022-10-09T11:22:08Z</time>
      </trkpt>
      <trkpt lat="43.38583" lon="6.63398">
        <ele>107.9</ele>
        <time>2022-10-09T11:22:09Z</time>
      </trkpt>
      <trkpt lat="43.3858" lon="6.63399">
        <ele>107.5</ele>
        <time>2022-10-09T11:22:10Z</time>
      </trkpt>
      <trkpt lat="43.38579" lon="6.634">
        <ele>107.3</ele>
        <time>2022-10-09T11:22:11Z</time>
      </trkpt>
      <trkpt lat="43.38578" lon="6.634">
        <ele>107.2</ele>
        <time>2022-10-09T11:22:12Z</time>
      </trkpt>
      <trkpt lat="43.38578" lon="6.634">
        <ele>107.2</ele>
        <time>2022-10-09T11:22:13Z</time>
      </trkpt>
      <trkpt lat="43.38562" lon="6.6339">
        <ele>104.5</ele>
        <time>2022-10-09T11:22:37Z</time>
      </trkpt>
      <trkpt lat="43.3856" lon="6.63388">
        <ele>104</ele>
        <time>2022-10-09T11:22:38Z</time>
      </trkpt>
      <trkpt lat="43.38552" lon="6.63387">
        <ele>102.6</ele>
        <time>2022-10-09T11:22:41Z</time>
      </trkpt>
      <trkpt lat="43.38549" lon="6.63389">
        <ele>102</ele>
        <time>2022-10-09T11:22:42Z</time>
      </trkpt>
      <trkpt lat="43.38546" lon="6.63392">
        <ele>101.4</ele>
        <time>2022-10-09T11:22:43Z</time>
      </trkpt>
      <trkpt lat="43.38543" lon="6.63395">
        <ele>100.9</ele>
        <time>2022-10-09T11:22:44Z</time>
      </trkpt>
      <trkpt lat="43.3854" lon="6.63398">
        <ele>100.4</ele>
        <time>2022-10-09T11:22:45Z</time>
      </trkpt>
      <trkpt lat="43.38538" lon="6.63402">
        <ele>99.9</ele>
        <time>2022-10-09T11:22:46Z</time>
      </trkpt>
      <trkpt lat="43.38535" lon="6.63406">
        <ele>99.4</ele>
        <time>2022-10-09T11:22:47Z</time>
      </trkpt>
      <trkpt lat="43.38532" lon="6.6341">
        <ele>98.8</ele>
        <time>2022-10-09T11:22:48Z</time>
      </trkpt>
      <trkpt lat="43.38528" lon="6.63413">
        <ele>98.2</ele>
        <time>2022-10-09T11:22:49Z</time>
      </trkpt>
      <trkpt lat="43.38524" lon="6.63416">
        <ele>97.6</ele>
        <time>2022-10-09T11:22:50Z</time>
      </trkpt>
      <trkpt lat="43.3852" lon="6.63418">
        <ele>97.2</ele>
        <time>2022-10-09T11:22:51Z</time>
      </trkpt>
      <trkpt lat="43.38517" lon="6.6342">
        <ele>96.7</ele>
        <time>2022-10-09T11:22:52Z</time>
      </trkpt>
      <trkpt lat="43.38514" lon="6.63422">
        <ele>96.4</ele>
        <time>2022-10-09T11:22:53Z</time>
      </trkpt>
      <trkpt lat="43.38511" lon="6.63425">
        <ele>96</ele>
        <time>2022-10-09T11:22:54Z</time>
      </trkpt>
      <trkpt lat="43.38508" lon="6.63428">
        <ele>95.6</ele>
        <time>2022-10-09T11:22:55Z</time>
      </trkpt>
      <trkpt lat="43.38493" lon="6.63448">
        <ele>93.8</ele>
        <time>2022-10-09T11:23:00Z</time>
      </trkpt>
      <trkpt lat="43.3849" lon="6.63453">
        <ele>93.5</ele>
        <time>2022-10-09T11:23:01Z</time>
      </trkpt>
      <trkpt lat="43.38476" lon="6.63473">
        <ele>92.7</ele>
        <time>2022-10-09T11:23:05Z</time>
      </trkpt>
      <trkpt lat="43.38472" lon="6.63477">
        <ele>92.5</ele>
        <time>2022-10-09T11:23:06Z</time>
      </trkpt>
      <trkpt lat="43.38468" lon="6.63481">
        <ele>92.3</ele>
        <time>2022-10-09T11:23:07Z</time>
      </trkpt>
      <trkpt lat="43.38459" lon="6.63489">
        <ele>92</ele>
        <time>2022-10-09T11:23:09Z</time>
      </trkpt>
      <trkpt lat="43.38454" lon="6.63493">
        <ele>91.9</ele>
        <time>2022-10-09T11:23:10Z</time>
      </trkpt>
      <trkpt lat="43.3845" lon="6.63497">
        <ele>91.7</ele>
        <time>2022-10-09T11:23:11Z</time>
      </trkpt>
      <trkpt lat="43.38437" lon="6.63512">
        <ele>91.3</ele>
        <time>2022-10-09T11:23:14Z</time>
      </trkpt>
      <trkpt lat="43.38434" lon="6.63517">
        <ele>91.2</ele>
        <time>2022-10-09T11:23:15Z</time>
      </trkpt>
      <trkpt lat="43.3843" lon="6.63522">
        <ele>91.2</ele>
        <time>2022-10-09T11:23:16Z</time>
      </trkpt>
      <trkpt lat="43.38427" lon="6.63527">
        <ele>91.1</ele>
        <time>2022-10-09T11:23:17Z</time>
      </trkpt>
      <trkpt lat="43.38425" lon="6.63532">
        <ele>91.1</ele>
        <time>2022-10-09T11:23:18Z</time>
      </trkpt>
      <trkpt lat="43.38423" lon="6.63538">
        <ele>91</ele>
        <time>2022-10-09T11:23:19Z</time>
      </trkpt>
      <trkpt lat="43.38422" lon="6.63544">
        <ele>91</ele>
        <time>2022-10-09T11:23:20Z</time>
      </trkpt>
      <trkpt lat="43.38421" lon="6.6355">
        <ele>90.9</ele>
        <time>2022-10-09T11:23:21Z</time>
      </trkpt>
      <trkpt lat="43.38418" lon="6.63563">
        <ele>90.8</ele>
        <time>2022-10-09T11:23:23Z</time>
      </trkpt>
      <trkpt lat="43.38413" lon="6.63573">
        <ele>90.6</ele>
        <time>2022-10-09T11:23:25Z</time>
      </trkpt>
      <trkpt lat="43.3841" lon="6.63578">
        <ele>90.4</ele>
        <time>2022-10-09T11:23:26Z</time>
      </trkpt>
      <trkpt lat="43.38407" lon="6.63583">
        <ele>90.3</ele>
        <time>2022-10-09T11:23:27Z</time>
      </trkpt>
      <trkpt lat="43.38403" lon="6.63588">
        <ele>90.2</ele>
        <time>2022-10-09T11:23:28Z</time>
      </trkpt>
      <trkpt lat="43.384" lon="6.63592">
        <ele>90.1</ele>
        <time>2022-10-09T11:23:29Z</time>
      </trkpt>
      <trkpt lat="43.38393" lon="6.63602">
        <ele>89.8</ele>
        <time>2022-10-09T11:23:31Z</time>
      </trkpt>
      <trkpt lat="43.3839" lon="6.63606">
        <ele>89.7</ele>
        <time>2022-10-09T11:23:32Z</time>
      </trkpt>
      <trkpt lat="43.38387" lon="6.63611">
        <ele>89.6</ele>
        <time>2022-10-09T11:23:33Z</time>
      </trkpt>
      <trkpt lat="43.38384" lon="6.63615">
        <ele>89.4</ele>
        <time>2022-10-09T11:23:34Z</time>
      </trkpt>
      <trkpt lat="43.38382" lon="6.63619">
        <ele>89.3</ele>
        <time>2022-10-09T11:23:35Z</time>
      </trkpt>
      <trkpt lat="43.38381" lon="6.63622">
        <ele>89.2</ele>
        <time>2022-10-09T11:23:36Z</time>
      </trkpt>
      <trkpt lat="43.38379" lon="6.63624">
        <ele>89.1</ele>
        <time>2022-10-09T11:23:37Z</time>
      </trkpt>
      <trkpt lat="43.38377" lon="6.63627">
        <ele>88.9</ele>
        <time>2022-10-09T11:23:38Z</time>
      </trkpt>
      <trkpt lat="43.38376" lon="6.63629">
        <ele>88.8</ele>
        <time>2022-10-09T11:23:39Z</time>
      </trkpt>
      <trkpt lat="43.38375" lon="6.6363">
        <ele>88.7</ele>
        <time>2022-10-09T11:23:40Z</time>
      </trkpt>
      <trkpt lat="43.38374" lon="6.63632">
        <ele>88.6</ele>
        <time>2022-10-09T11:23:41Z</time>
      </trkpt>
      <trkpt lat="43.38373" lon="6.63633">
        <ele>88.5</ele>
        <time>2022-10-09T11:23:42Z</time>
      </trkpt>
      <trkpt lat="43.3837" lon="6.63638">
        <ele>88.2</ele>
        <time>2022-10-09T11:23:44Z</time>
      </trkpt>
      <trkpt lat="43.38367" lon="6.63641">
        <ele>87.9</ele>
        <time>2022-10-09T11:23:45Z</time>
      </trkpt>
      <trkpt lat="43.38362" lon="6.63646">
        <ele>87.3</ele>
        <time>2022-10-09T11:23:47Z</time>
      </trkpt>
      <trkpt lat="43.38358" lon="6.63648">
        <ele>86.9</ele>
        <time>2022-10-09T11:23:48Z</time>
      </trkpt>
      <trkpt lat="43.38353" lon="6.63649">
        <ele>86.9</ele>
        <time>2022-10-09T11:23:49Z</time>
      </trkpt>
      <trkpt lat="43.3835" lon="6.6365">
        <ele>86.9</ele>
        <time>2022-10-09T11:23:50Z</time>
      </trkpt>
      <trkpt lat="43.38348" lon="6.6365">
        <ele>86.9</ele>
        <time>2022-10-09T11:23:51Z</time>
      </trkpt>
      <trkpt lat="43.38346" lon="6.63651">
        <ele>86.9</ele>
        <time>2022-10-09T11:23:52Z</time>
      </trkpt>
      <trkpt lat="43.38342" lon="6.63654">
        <ele>86.9</ele>
        <time>2022-10-09T11:23:54Z</time>
      </trkpt>
      <trkpt lat="43.38336" lon="6.63658">
        <ele>87</ele>
        <time>2022-10-09T11:23:57Z</time>
      </trkpt>
      <trkpt lat="43.38334" lon="6.6366">
        <ele>87</ele>
        <time>2022-10-09T11:23:58Z</time>
      </trkpt>
      <trkpt lat="43.38329" lon="6.63668">
        <ele>87.2</ele>
        <time>2022-10-09T11:24:01Z</time>
      </trkpt>
      <trkpt lat="43.38327" lon="6.6367">
        <ele>87.3</ele>
        <time>2022-10-09T11:24:02Z</time>
      </trkpt>
      <trkpt lat="43.38326" lon="6.63672">
        <ele>87.4</ele>
        <time>2022-10-09T11:24:03Z</time>
      </trkpt>
      <trkpt lat="43.38324" lon="6.63675">
        <ele>87.5</ele>
        <time>2022-10-09T11:24:04Z</time>
      </trkpt>
      <trkpt lat="43.38322" lon="6.63677">
        <ele>87.7</ele>
        <time>2022-10-09T11:24:05Z</time>
      </trkpt>
      <trkpt lat="43.3832" lon="6.63679">
        <ele>87.8</ele>
        <time>2022-10-09T11:24:06Z</time>
      </trkpt>
      <trkpt lat="43.38316" lon="6.63683">
        <ele>88.1</ele>
        <time>2022-10-09T11:24:08Z</time>
      </trkpt>
      <trkpt lat="43.38314" lon="6.63685">
        <ele>88.2</ele>
        <time>2022-10-09T11:24:09Z</time>
      </trkpt>
      <trkpt lat="43.38313" lon="6.63686">
        <ele>88.4</ele>
        <time>2022-10-09T11:24:10Z</time>
      </trkpt>
      <trkpt lat="43.38311" lon="6.63688">
        <ele>88.5</ele>
        <time>2022-10-09T11:24:11Z</time>
      </trkpt>
      <trkpt lat="43.3831" lon="6.63689">
        <ele>88.6</ele>
        <time>2022-10-09T11:24:12Z</time>
      </trkpt>
      <trkpt lat="43.38306" lon="6.63692">
        <ele>88.9</ele>
        <time>2022-10-09T11:24:14Z</time>
      </trkpt>
      <trkpt lat="43.38304" lon="6.63694">
        <ele>89.1</ele>
        <time>2022-10-09T11:24:15Z</time>
      </trkpt>
      <trkpt lat="43.38303" lon="6.63696">
        <ele>89.2</ele>
        <time>2022-10-09T11:24:16Z</time>
      </trkpt>
      <trkpt lat="43.38301" lon="6.63698">
        <ele>89.4</ele>
        <time>2022-10-09T11:24:17Z</time>
      </trkpt>
      <trkpt lat="43.383" lon="6.63699">
        <ele>89.5</ele>
        <time>2022-10-09T11:24:18Z</time>
      </trkpt>
      <trkpt lat="43.38299" lon="6.63701">
        <ele>89.7</ele>
        <time>2022-10-09T11:24:19Z</time>
      </trkpt>
      <trkpt lat="43.38297" lon="6.63703">
        <ele>89.8</ele>
        <time>2022-10-09T11:24:20Z</time>
      </trkpt>
      <trkpt lat="43.38296" lon="6.63704">
        <ele>90</ele>
        <time>2022-10-09T11:24:21Z</time>
      </trkpt>
      <trkpt lat="43.38294" lon="6.63705">
        <ele>90.1</ele>
        <time>2022-10-09T11:24:22Z</time>
      </trkpt>
      <trkpt lat="43.38293" lon="6.63706">
        <ele>90.3</ele>
        <time>2022-10-09T11:24:23Z</time>
      </trkpt>
      <trkpt lat="43.38292" lon="6.63707">
        <ele>90.4</ele>
        <time>2022-10-09T11:24:24Z</time>
      </trkpt>
      <trkpt lat="43.38291" lon="6.63708">
        <ele>90.5</ele>
        <time>2022-10-09T11:24:25Z</time>
      </trkpt>
      <trkpt lat="43.38289" lon="6.63709">
        <ele>90.6</ele>
        <time>2022-10-09T11:24:26Z</time>
      </trkpt>
      <trkpt lat="43.38288" lon="6.6371">
        <ele>90.7</ele>
        <time>2022-10-09T11:24:27Z</time>
      </trkpt>
      <trkpt lat="43.38287" lon="6.63711">
        <ele>90.9</ele>
        <time>2022-10-09T11:24:28Z</time>
      </trkpt>
      <trkpt lat="43.38285" lon="6.63712">
        <ele>91</ele>
        <time>2022-10-09T11:24:29Z</time>
      </trkpt>
      <trkpt lat="43.38284" lon="6.63713">
        <ele>91.1</ele>
        <time>2022-10-09T11:24:30Z</time>
      </trkpt>
      <trkpt lat="43.38282" lon="6.63714">
        <ele>91.3</ele>
        <time>2022-10-09T11:24:31Z</time>
      </trkpt>
      <trkpt lat="43.3828" lon="6.63715">
        <ele>91.4</ele>
        <time>2022-10-09T11:24:32Z</time>
      </trkpt>
      <trkpt lat="43.38278" lon="6.63716">
        <ele>91.5</ele>
        <time>2022-10-09T11:24:33Z</time>
      </trkpt>
      <trkpt lat="43.38276" lon="6.63718">
        <ele>91.7</ele>
        <time>2022-10-09T11:24:34Z</time>
      </trkpt>
      <trkpt lat="43.38273" lon="6.63719">
        <ele>91.8</ele>
        <time>2022-10-09T11:24:35Z</time>
      </trkpt>
      <trkpt lat="43.38271" lon="6.6372">
        <ele>91.9</ele>
        <time>2022-10-09T11:24:36Z</time>
      </trkpt>
      <trkpt lat="43.38269" lon="6.6372">
        <ele>91.9</ele>
        <time>2022-10-09T11:24:37Z</time>
      </trkpt>
      <trkpt lat="43.38266" lon="6.63721">
        <ele>92</ele>
        <time>2022-10-09T11:24:38Z</time>
      </trkpt>
      <trkpt lat="43.38263" lon="6.63721">
        <ele>92</ele>
        <time>2022-10-09T11:24:39Z</time>
      </trkpt>
      <trkpt lat="43.3826" lon="6.6372">
        <ele>92</ele>
        <time>2022-10-09T11:24:40Z</time>
      </trkpt>
      <trkpt lat="43.38257" lon="6.63719">
        <ele>92</ele>
        <time>2022-10-09T11:24:41Z</time>
      </trkpt>
      <trkpt lat="43.38253" lon="6.63717">
        <ele>92</ele>
        <time>2022-10-09T11:24:42Z</time>
      </trkpt>
      <trkpt lat="43.38249" lon="6.63714">
        <ele>92</ele>
        <time>2022-10-09T11:24:43Z</time>
      </trkpt>
      <trkpt lat="43.38245" lon="6.63713">
        <ele>91.9</ele>
        <time>2022-10-09T11:24:44Z</time>
      </trkpt>
      <trkpt lat="43.38242" lon="6.63712">
        <ele>91.9</ele>
        <time>2022-10-09T11:24:45Z</time>
      </trkpt>
      <trkpt lat="43.38234" lon="6.6371">
        <ele>91.9</ele>
        <time>2022-10-09T11:24:47Z</time>
      </trkpt>
      <trkpt lat="43.38231" lon="6.63709">
        <ele>91.9</ele>
        <time>2022-10-09T11:24:48Z</time>
      </trkpt>
      <trkpt lat="43.38228" lon="6.63707">
        <ele>91.9</ele>
        <time>2022-10-09T11:24:49Z</time>
      </trkpt>
      <trkpt lat="43.38225" lon="6.63705">
        <ele>92</ele>
        <time>2022-10-09T11:24:50Z</time>
      </trkpt>
      <trkpt lat="43.38222" lon="6.63703">
        <ele>92</ele>
        <time>2022-10-09T11:24:51Z</time>
      </trkpt>
      <trkpt lat="43.3822" lon="6.63701">
        <ele>92</ele>
        <time>2022-10-09T11:24:52Z</time>
      </trkpt>
      <trkpt lat="43.38216" lon="6.63696">
        <ele>92.1</ele>
        <time>2022-10-09T11:24:54Z</time>
      </trkpt>
      <trkpt lat="43.38211" lon="6.63693">
        <ele>92.2</ele>
        <time>2022-10-09T11:24:56Z</time>
      </trkpt>
      <trkpt lat="43.38208" lon="6.63691">
        <ele>92.2</ele>
        <time>2022-10-09T11:24:57Z</time>
      </trkpt>
      <trkpt lat="43.38206" lon="6.63689">
        <ele>92.3</ele>
        <time>2022-10-09T11:24:58Z</time>
      </trkpt>
      <trkpt lat="43.38204" lon="6.63687">
        <ele>92.3</ele>
        <time>2022-10-09T11:24:59Z</time>
      </trkpt>
      <trkpt lat="43.38194" lon="6.6368">
        <ele>92.4</ele>
        <time>2022-10-09T11:25:03Z</time>
      </trkpt>
      <trkpt lat="43.3818" lon="6.63663">
        <ele>92.2</ele>
        <time>2022-10-09T11:25:08Z</time>
      </trkpt>
      <trkpt lat="43.38177" lon="6.63659">
        <ele>92.1</ele>
        <time>2022-10-09T11:25:09Z</time>
      </trkpt>
      <trkpt lat="43.38175" lon="6.63655">
        <ele>92.1</ele>
        <time>2022-10-09T11:25:10Z</time>
      </trkpt>
      <trkpt lat="43.38173" lon="6.63651">
        <ele>92.1</ele>
        <time>2022-10-09T11:25:11Z</time>
      </trkpt>
      <trkpt lat="43.38171" lon="6.63647">
        <ele>92</ele>
        <time>2022-10-09T11:25:12Z</time>
      </trkpt>
      <trkpt lat="43.38169" lon="6.63643">
        <ele>92</ele>
        <time>2022-10-09T11:25:13Z</time>
      </trkpt>
      <trkpt lat="43.38168" lon="6.63639">
        <ele>92</ele>
        <time>2022-10-09T11:25:14Z</time>
      </trkpt>
      <trkpt lat="43.38166" lon="6.63634">
        <ele>91.9</ele>
        <time>2022-10-09T11:25:15Z</time>
      </trkpt>
      <trkpt lat="43.38165" lon="6.63628">
        <ele>91.8</ele>
        <time>2022-10-09T11:25:16Z</time>
      </trkpt>
      <trkpt lat="43.38163" lon="6.63622">
        <ele>91.6</ele>
        <time>2022-10-09T11:25:17Z</time>
      </trkpt>
      <trkpt lat="43.38162" lon="6.63616">
        <ele>91.5</ele>
        <time>2022-10-09T11:25:18Z</time>
      </trkpt>
      <trkpt lat="43.3816" lon="6.6361">
        <ele>91.3</ele>
        <time>2022-10-09T11:25:19Z</time>
      </trkpt>
      <trkpt lat="43.38157" lon="6.63606">
        <ele>91.2</ele>
        <time>2022-10-09T11:25:20Z</time>
      </trkpt>
      <trkpt lat="43.38153" lon="6.63603">
        <ele>91</ele>
        <time>2022-10-09T11:25:21Z</time>
      </trkpt>
      <trkpt lat="43.38149" lon="6.63601">
        <ele>90.8</ele>
        <time>2022-10-09T11:25:22Z</time>
      </trkpt>
      <trkpt lat="43.38145" lon="6.63599">
        <ele>90.7</ele>
        <time>2022-10-09T11:25:23Z</time>
      </trkpt>
      <trkpt lat="43.38143" lon="6.63599">
        <ele>90.6</ele>
        <time>2022-10-09T11:25:24Z</time>
      </trkpt>
      <trkpt lat="43.38142" lon="6.636">
        <ele>90.6</ele>
        <time>2022-10-09T11:25:25Z</time>
      </trkpt>
      <trkpt lat="43.38141" lon="6.63615">
        <ele>89.9</ele>
        <time>2022-10-09T11:25:29Z</time>
      </trkpt>
      <trkpt lat="43.38138" lon="6.63653">
        <ele>89</ele>
        <time>2022-10-09T11:25:36Z</time>
      </trkpt>
      <trkpt lat="43.38138" lon="6.63669">
        <ele>88.9</ele>
        <time>2022-10-09T11:25:39Z</time>
      </trkpt>
      <trkpt lat="43.38138" lon="6.63674">
        <ele>88.9</ele>
        <time>2022-10-09T11:25:40Z</time>
      </trkpt>
      <trkpt lat="43.38139" lon="6.6368">
        <ele>88.9</ele>
        <time>2022-10-09T11:25:41Z</time>
      </trkpt>
      <trkpt lat="43.3814" lon="6.63684">
        <ele>89</ele>
        <time>2022-10-09T11:25:42Z</time>
      </trkpt>
      <trkpt lat="43.38141" lon="6.63689">
        <ele>89</ele>
        <time>2022-10-09T11:25:43Z</time>
      </trkpt>
      <trkpt lat="43.38142" lon="6.63694">
        <ele>89.1</ele>
        <time>2022-10-09T11:25:44Z</time>
      </trkpt>
      <trkpt lat="43.38142" lon="6.63699">
        <ele>89.1</ele>
        <time>2022-10-09T11:25:45Z</time>
      </trkpt>
      <trkpt lat="43.38143" lon="6.63703">
        <ele>89.2</ele>
        <time>2022-10-09T11:25:46Z</time>
      </trkpt>
      <trkpt lat="43.38144" lon="6.63708">
        <ele>89.3</ele>
        <time>2022-10-09T11:25:47Z</time>
      </trkpt>
      <trkpt lat="43.38147" lon="6.63716">
        <ele>89.5</ele>
        <time>2022-10-09T11:25:49Z</time>
      </trkpt>
      <trkpt lat="43.38149" lon="6.6372">
        <ele>89.7</ele>
        <time>2022-10-09T11:25:50Z</time>
      </trkpt>
      <trkpt lat="43.3815" lon="6.63724">
        <ele>89.8</ele>
        <time>2022-10-09T11:25:51Z</time>
      </trkpt>
      <trkpt lat="43.38151" lon="6.63727">
        <ele>90</ele>
        <time>2022-10-09T11:25:52Z</time>
      </trkpt>
      <trkpt lat="43.38152" lon="6.6373">
        <ele>90.1</ele>
        <time>2022-10-09T11:25:53Z</time>
      </trkpt>
      <trkpt lat="43.38153" lon="6.63733">
        <ele>90.3</ele>
        <time>2022-10-09T11:25:54Z</time>
      </trkpt>
      <trkpt lat="43.38154" lon="6.63735">
        <ele>90.4</ele>
        <time>2022-10-09T11:25:55Z</time>
      </trkpt>
      <trkpt lat="43.38155" lon="6.63737">
        <ele>90.6</ele>
        <time>2022-10-09T11:25:56Z</time>
      </trkpt>
      <trkpt lat="43.38156" lon="6.63739">
        <ele>90.7</ele>
        <time>2022-10-09T11:25:57Z</time>
      </trkpt>
      <trkpt lat="43.38157" lon="6.63741">
        <ele>90.8</ele>
        <time>2022-10-09T11:25:58Z</time>
      </trkpt>
      <trkpt lat="43.38158" lon="6.63743">
        <ele>91</ele>
        <time>2022-10-09T11:25:59Z</time>
      </trkpt>
      <trkpt lat="43.38158" lon="6.63745">
        <ele>91.1</ele>
        <time>2022-10-09T11:26:00Z</time>
      </trkpt>
      <trkpt lat="43.38159" lon="6.63747">
        <ele>91.3</ele>
        <time>2022-10-09T11:26:01Z</time>
      </trkpt>
      <trkpt lat="43.38161" lon="6.63749">
        <ele>91.5</ele>
        <time>2022-10-09T11:26:02Z</time>
      </trkpt>
      <trkpt lat="43.38162" lon="6.63751">
        <ele>91.7</ele>
        <time>2022-10-09T11:26:03Z</time>
      </trkpt>
      <trkpt lat="43.38162" lon="6.63753">
        <ele>91.9</ele>
        <time>2022-10-09T11:26:04Z</time>
      </trkpt>
      <trkpt lat="43.38163" lon="6.63755">
        <ele>92.1</ele>
        <time>2022-10-09T11:26:05Z</time>
      </trkpt>
      <trkpt lat="43.38164" lon="6.63757">
        <ele>92.3</ele>
        <time>2022-10-09T11:26:06Z</time>
      </trkpt>
      <trkpt lat="43.38165" lon="6.63759">
        <ele>92.5</ele>
        <time>2022-10-09T11:26:07Z</time>
      </trkpt>
      <trkpt lat="43.38165" lon="6.6376">
        <ele>92.7</ele>
        <time>2022-10-09T11:26:08Z</time>
      </trkpt>
      <trkpt lat="43.38166" lon="6.63762">
        <ele>92.9</ele>
        <time>2022-10-09T11:26:09Z</time>
      </trkpt>
      <trkpt lat="43.38167" lon="6.63764">
        <ele>93.1</ele>
        <time>2022-10-09T11:26:10Z</time>
      </trkpt>
      <trkpt lat="43.38167" lon="6.63766">
        <ele>93.3</ele>
        <time>2022-10-09T11:26:11Z</time>
      </trkpt>
      <trkpt lat="43.38168" lon="6.63767">
        <ele>93.4</ele>
        <time>2022-10-09T11:26:12Z</time>
      </trkpt>
      <trkpt lat="43.38167" lon="6.63767">
        <ele>93.5</ele>
        <time>2022-10-09T11:26:13Z</time>
      </trkpt>
      <trkpt lat="43.38168" lon="6.63768">
        <ele>93.5</ele>
        <time>2022-10-09T11:26:14Z</time>
      </trkpt>
      <trkpt lat="43.38182" lon="6.63793">
        <ele>96.8</ele>
        <time>2022-10-09T11:26:38Z</time>
      </trkpt>
      <trkpt lat="43.38183" lon="6.63794">
        <ele>97</ele>
        <time>2022-10-09T11:26:39Z</time>
      </trkpt>
      <trkpt lat="43.38184" lon="6.63796">
        <ele>97.1</ele>
        <time>2022-10-09T11:26:40Z</time>
      </trkpt>
      <trkpt lat="43.38185" lon="6.63797">
        <ele>97.3</ele>
        <time>2022-10-09T11:26:41Z</time>
      </trkpt>
      <trkpt lat="43.38185" lon="6.63799">
        <ele>97.4</ele>
        <time>2022-10-09T11:26:42Z</time>
      </trkpt>
      <trkpt lat="43.38186" lon="6.638">
        <ele>97.6</ele>
        <time>2022-10-09T11:26:43Z</time>
      </trkpt>
      <trkpt lat="43.38187" lon="6.63801">
        <ele>97.7</ele>
        <time>2022-10-09T11:26:44Z</time>
      </trkpt>
      <trkpt lat="43.38188" lon="6.63802">
        <ele>97.9</ele>
        <time>2022-10-09T11:26:45Z</time>
      </trkpt>
      <trkpt lat="43.38188" lon="6.63804">
        <ele>98</ele>
        <time>2022-10-09T11:26:46Z</time>
      </trkpt>
      <trkpt lat="43.38189" lon="6.63805">
        <ele>98.1</ele>
        <time>2022-10-09T11:26:47Z</time>
      </trkpt>
      <trkpt lat="43.3819" lon="6.63806">
        <ele>98.2</ele>
        <time>2022-10-09T11:26:48Z</time>
      </trkpt>
      <trkpt lat="43.3819" lon="6.63807">
        <ele>98.4</ele>
        <time>2022-10-09T11:26:49Z</time>
      </trkpt>
      <trkpt lat="43.38191" lon="6.63808">
        <ele>98.5</ele>
        <time>2022-10-09T11:26:50Z</time>
      </trkpt>
      <trkpt lat="43.38192" lon="6.6381">
        <ele>98.6</ele>
        <time>2022-10-09T11:26:51Z</time>
      </trkpt>
      <trkpt lat="43.38193" lon="6.63811">
        <ele>98.8</ele>
        <time>2022-10-09T11:26:52Z</time>
      </trkpt>
      <trkpt lat="43.38194" lon="6.63812">
        <ele>98.9</ele>
        <time>2022-10-09T11:26:53Z</time>
      </trkpt>
      <trkpt lat="43.38194" lon="6.63813">
        <ele>99.1</ele>
        <time>2022-10-09T11:26:54Z</time>
      </trkpt>
      <trkpt lat="43.38195" lon="6.63815">
        <ele>99.2</ele>
        <time>2022-10-09T11:26:55Z</time>
      </trkpt>
      <trkpt lat="43.38196" lon="6.63816">
        <ele>99.3</ele>
        <time>2022-10-09T11:26:56Z</time>
      </trkpt>
      <trkpt lat="43.38197" lon="6.63817">
        <ele>99.5</ele>
        <time>2022-10-09T11:26:57Z</time>
      </trkpt>
      <trkpt lat="43.38198" lon="6.63818">
        <ele>99.6</ele>
        <time>2022-10-09T11:26:58Z</time>
      </trkpt>
      <trkpt lat="43.38199" lon="6.63819">
        <ele>99.7</ele>
        <time>2022-10-09T11:26:59Z</time>
      </trkpt>
      <trkpt lat="43.382" lon="6.63821">
        <ele>99.9</ele>
        <time>2022-10-09T11:27:00Z</time>
      </trkpt>
      <trkpt lat="43.382" lon="6.63822">
        <ele>100</ele>
        <time>2022-10-09T11:27:01Z</time>
      </trkpt>
      <trkpt lat="43.38201" lon="6.63823">
        <ele>100.1</ele>
        <time>2022-10-09T11:27:02Z</time>
      </trkpt>
      <trkpt lat="43.38202" lon="6.63824">
        <ele>100.2</ele>
        <time>2022-10-09T11:27:03Z</time>
      </trkpt>
      <trkpt lat="43.38203" lon="6.63825">
        <ele>100.4</ele>
        <time>2022-10-09T11:27:04Z</time>
      </trkpt>
      <trkpt lat="43.38204" lon="6.63826">
        <ele>100.5</ele>
        <time>2022-10-09T11:27:05Z</time>
      </trkpt>
      <trkpt lat="43.38205" lon="6.63827">
        <ele>100.6</ele>
        <time>2022-10-09T11:27:06Z</time>
      </trkpt>
      <trkpt lat="43.38206" lon="6.63828">
        <ele>100.8</ele>
        <time>2022-10-09T11:27:07Z</time>
      </trkpt>
      <trkpt lat="43.38207" lon="6.63829">
        <ele>100.9</ele>
        <time>2022-10-09T11:27:08Z</time>
      </trkpt>
      <trkpt lat="43.38208" lon="6.6383">
        <ele>101</ele>
        <time>2022-10-09T11:27:09Z</time>
      </trkpt>
      <trkpt lat="43.38209" lon="6.63831">
        <ele>101.1</ele>
        <time>2022-10-09T11:27:10Z</time>
      </trkpt>
      <trkpt lat="43.3821" lon="6.63832">
        <ele>101.3</ele>
        <time>2022-10-09T11:27:11Z</time>
      </trkpt>
      <trkpt lat="43.38211" lon="6.63833">
        <ele>101.4</ele>
        <time>2022-10-09T11:27:12Z</time>
      </trkpt>
      <trkpt lat="43.38211" lon="6.63835">
        <ele>101.5</ele>
        <time>2022-10-09T11:27:13Z</time>
      </trkpt>
      <trkpt lat="43.38212" lon="6.63836">
        <ele>101.6</ele>
        <time>2022-10-09T11:27:14Z</time>
      </trkpt>
      <trkpt lat="43.38212" lon="6.63838">
        <ele>101.7</ele>
        <time>2022-10-09T11:27:15Z</time>
      </trkpt>
      <trkpt lat="43.38212" lon="6.63839">
        <ele>101.9</ele>
        <time>2022-10-09T11:27:16Z</time>
      </trkpt>
      <trkpt lat="43.38212" lon="6.63841">
        <ele>102</ele>
        <time>2022-10-09T11:27:17Z</time>
      </trkpt>
      <trkpt lat="43.38212" lon="6.63842">
        <ele>102.1</ele>
        <time>2022-10-09T11:27:18Z</time>
      </trkpt>
      <trkpt lat="43.38211" lon="6.63843">
        <ele>102.2</ele>
        <time>2022-10-09T11:27:19Z</time>
      </trkpt>
      <trkpt lat="43.3821" lon="6.63844">
        <ele>102.8</ele>
        <time>2022-10-09T11:27:20Z</time>
      </trkpt>
      <trkpt lat="43.38209" lon="6.63844">
        <ele>102.9</ele>
        <time>2022-10-09T11:27:21Z</time>
      </trkpt>
      <trkpt lat="43.38208" lon="6.63843">
        <ele>103</ele>
        <time>2022-10-09T11:27:22Z</time>
      </trkpt>
      <trkpt lat="43.38207" lon="6.63843">
        <ele>103.1</ele>
        <time>2022-10-09T11:27:23Z</time>
      </trkpt>
      <trkpt lat="43.38205" lon="6.63842">
        <ele>103.2</ele>
        <time>2022-10-09T11:27:24Z</time>
      </trkpt>
      <trkpt lat="43.38204" lon="6.63842">
        <ele>103.3</ele>
        <time>2022-10-09T11:27:25Z</time>
      </trkpt>
      <trkpt lat="43.38203" lon="6.63841">
        <ele>103.5</ele>
        <time>2022-10-09T11:27:26Z</time>
      </trkpt>
      <trkpt lat="43.38202" lon="6.63841">
        <ele>103.6</ele>
        <time>2022-10-09T11:27:27Z</time>
      </trkpt>
      <trkpt lat="43.382" lon="6.6384">
        <ele>103.8</ele>
        <time>2022-10-09T11:27:28Z</time>
      </trkpt>
      <trkpt lat="43.38199" lon="6.63839">
        <ele>103.9</ele>
        <time>2022-10-09T11:27:29Z</time>
      </trkpt>
      <trkpt lat="43.38198" lon="6.63839">
        <ele>104</ele>
        <time>2022-10-09T11:27:30Z</time>
      </trkpt>
      <trkpt lat="43.38197" lon="6.63838">
        <ele>104.1</ele>
        <time>2022-10-09T11:27:31Z</time>
      </trkpt>
      <trkpt lat="43.38196" lon="6.63838">
        <ele>104.3</ele>
        <time>2022-10-09T11:27:32Z</time>
      </trkpt>
      <trkpt lat="43.38195" lon="6.63837">
        <ele>104.4</ele>
        <time>2022-10-09T11:27:33Z</time>
      </trkpt>
      <trkpt lat="43.38194" lon="6.63836">
        <ele>104.6</ele>
        <time>2022-10-09T11:27:34Z</time>
      </trkpt>
      <trkpt lat="43.38193" lon="6.63836">
        <ele>104.7</ele>
        <time>2022-10-09T11:27:35Z</time>
      </trkpt>
      <trkpt lat="43.38192" lon="6.63835">
        <ele>104.8</ele>
        <time>2022-10-09T11:27:36Z</time>
      </trkpt>
      <trkpt lat="43.38191" lon="6.63834">
        <ele>105</ele>
        <time>2022-10-09T11:27:37Z</time>
      </trkpt>
      <trkpt lat="43.3819" lon="6.63833">
        <ele>105.1</ele>
        <time>2022-10-09T11:27:38Z</time>
      </trkpt>
      <trkpt lat="43.38189" lon="6.63833">
        <ele>105.2</ele>
        <time>2022-10-09T11:27:39Z</time>
      </trkpt>
      <trkpt lat="43.38188" lon="6.63832">
        <ele>105.4</ele>
        <time>2022-10-09T11:27:40Z</time>
      </trkpt>
      <trkpt lat="43.38187" lon="6.63831">
        <ele>105.5</ele>
        <time>2022-10-09T11:27:41Z</time>
      </trkpt>
      <trkpt lat="43.38186" lon="6.63831">
        <ele>105.6</ele>
        <time>2022-10-09T11:27:42Z</time>
      </trkpt>
      <trkpt lat="43.38185" lon="6.6383">
        <ele>105.8</ele>
        <time>2022-10-09T11:27:43Z</time>
      </trkpt>
      <trkpt lat="43.38184" lon="6.63829">
        <ele>105.9</ele>
        <time>2022-10-09T11:27:44Z</time>
      </trkpt>
      <trkpt lat="43.38183" lon="6.63829">
        <ele>106.1</ele>
        <time>2022-10-09T11:27:45Z</time>
      </trkpt>
      <trkpt lat="43.38182" lon="6.63828">
        <ele>106.2</ele>
        <time>2022-10-09T11:27:46Z</time>
      </trkpt>
      <trkpt lat="43.38181" lon="6.63827">
        <ele>106.4</ele>
        <time>2022-10-09T11:27:47Z</time>
      </trkpt>
      <trkpt lat="43.3818" lon="6.63827">
        <ele>106.5</ele>
        <time>2022-10-09T11:27:48Z</time>
      </trkpt>
      <trkpt lat="43.38179" lon="6.63826">
        <ele>106.6</ele>
        <time>2022-10-09T11:27:49Z</time>
      </trkpt>
      <trkpt lat="43.38178" lon="6.63825">
        <ele>106.8</ele>
        <time>2022-10-09T11:27:50Z</time>
      </trkpt>
      <trkpt lat="43.38176" lon="6.63825">
        <ele>106.9</ele>
        <time>2022-10-09T11:27:51Z</time>
      </trkpt>
      <trkpt lat="43.38175" lon="6.63825">
        <ele>107</ele>
        <time>2022-10-09T11:27:52Z</time>
      </trkpt>
      <trkpt lat="43.38174" lon="6.63824">
        <ele>107.2</ele>
        <time>2022-10-09T11:27:53Z</time>
      </trkpt>
      <trkpt lat="43.38173" lon="6.63824">
        <ele>107.3</ele>
        <time>2022-10-09T11:27:54Z</time>
      </trkpt>
      <trkpt lat="43.38172" lon="6.63823">
        <ele>107.4</ele>
        <time>2022-10-09T11:27:55Z</time>
      </trkpt>
      <trkpt lat="43.38171" lon="6.63823">
        <ele>107.6</ele>
        <time>2022-10-09T11:27:56Z</time>
      </trkpt>
      <trkpt lat="43.38169" lon="6.63822">
        <ele>107.7</ele>
        <time>2022-10-09T11:27:57Z</time>
      </trkpt>
      <trkpt lat="43.38168" lon="6.63821">
        <ele>107.9</ele>
        <time>2022-10-09T11:27:58Z</time>
      </trkpt>
      <trkpt lat="43.38167" lon="6.63821">
        <ele>108</ele>
        <time>2022-10-09T11:27:59Z</time>
      </trkpt>
      <trkpt lat="43.38166" lon="6.6382">
        <ele>108.1</ele>
        <time>2022-10-09T11:28:00Z</time>
      </trkpt>
      <trkpt lat="43.38165" lon="6.63819">
        <ele>108.2</ele>
        <time>2022-10-09T11:28:01Z</time>
      </trkpt>
      <trkpt lat="43.38164" lon="6.63819">
        <ele>108.4</ele>
        <time>2022-10-09T11:28:02Z</time>
      </trkpt>
      <trkpt lat="43.38163" lon="6.63818">
        <ele>108.5</ele>
        <time>2022-10-09T11:28:03Z</time>
      </trkpt>
      <trkpt lat="43.38162" lon="6.63817">
        <ele>108.6</ele>
        <time>2022-10-09T11:28:04Z</time>
      </trkpt>
      <trkpt lat="43.38161" lon="6.63817">
        <ele>108.7</ele>
        <time>2022-10-09T11:28:05Z</time>
      </trkpt>
      <trkpt lat="43.38159" lon="6.63816">
        <ele>108.9</ele>
        <time>2022-10-09T11:28:06Z</time>
      </trkpt>
      <trkpt lat="43.38158" lon="6.63816">
        <ele>109</ele>
        <time>2022-10-09T11:28:07Z</time>
      </trkpt>
      <trkpt lat="43.38157" lon="6.63815">
        <ele>109.1</ele>
        <time>2022-10-09T11:28:08Z</time>
      </trkpt>
      <trkpt lat="43.38156" lon="6.63815">
        <ele>109.2</ele>
        <time>2022-10-09T11:28:09Z</time>
      </trkpt>
      <trkpt lat="43.38155" lon="6.63814">
        <ele>109.3</ele>
        <time>2022-10-09T11:28:10Z</time>
      </trkpt>
      <trkpt lat="43.38154" lon="6.63814">
        <ele>109.4</ele>
        <time>2022-10-09T11:28:11Z</time>
      </trkpt>
      <trkpt lat="43.38153" lon="6.63813">
        <ele>109.6</ele>
        <time>2022-10-09T11:28:12Z</time>
      </trkpt>
      <trkpt lat="43.38152" lon="6.63813">
        <ele>109.7</ele>
        <time>2022-10-09T11:28:13Z</time>
      </trkpt>
      <trkpt lat="43.38151" lon="6.63812">
        <ele>109.8</ele>
        <time>2022-10-09T11:28:14Z</time>
      </trkpt>
      <trkpt lat="43.38149" lon="6.63812">
        <ele>109.9</ele>
        <time>2022-10-09T11:28:15Z</time>
      </trkpt>
      <trkpt lat="43.38148" lon="6.63811">
        <ele>110.1</ele>
        <time>2022-10-09T11:28:16Z</time>
      </trkpt>
      <trkpt lat="43.38147" lon="6.63811">
        <ele>110.2</ele>
        <time>2022-10-09T11:28:17Z</time>
      </trkpt>
      <trkpt lat="43.38146" lon="6.63811">
        <ele>110.3</ele>
        <time>2022-10-09T11:28:18Z</time>
      </trkpt>
      <trkpt lat="43.38145" lon="6.6381">
        <ele>110.4</ele>
        <time>2022-10-09T11:28:19Z</time>
      </trkpt>
      <trkpt lat="43.38144" lon="6.6381">
        <ele>110.5</ele>
        <time>2022-10-09T11:28:20Z</time>
      </trkpt>
      <trkpt lat="43.38143" lon="6.63809">
        <ele>110.6</ele>
        <time>2022-10-09T11:28:21Z</time>
      </trkpt>
      <trkpt lat="43.38142" lon="6.63809">
        <ele>110.7</ele>
        <time>2022-10-09T11:28:22Z</time>
      </trkpt>
      <trkpt lat="43.38141" lon="6.63809">
        <ele>110.8</ele>
        <time>2022-10-09T11:28:23Z</time>
      </trkpt>
      <trkpt lat="43.3814" lon="6.63808">
        <ele>111</ele>
        <time>2022-10-09T11:28:24Z</time>
      </trkpt>
      <trkpt lat="43.38139" lon="6.63808">
        <ele>111.1</ele>
        <time>2022-10-09T11:28:25Z</time>
      </trkpt>
      <trkpt lat="43.38138" lon="6.63807">
        <ele>111.2</ele>
        <time>2022-10-09T11:28:26Z</time>
      </trkpt>
      <trkpt lat="43.38137" lon="6.63807">
        <ele>111.3</ele>
        <time>2022-10-09T11:28:27Z</time>
      </trkpt>
      <trkpt lat="43.38136" lon="6.63807">
        <ele>111.4</ele>
        <time>2022-10-09T11:28:28Z</time>
      </trkpt>
      <trkpt lat="43.38135" lon="6.63807">
        <ele>111.5</ele>
        <time>2022-10-09T11:28:29Z</time>
      </trkpt>
      <trkpt lat="43.38134" lon="6.63807">
        <ele>111.6</ele>
        <time>2022-10-09T11:28:30Z</time>
      </trkpt>
      <trkpt lat="43.38133" lon="6.63806">
        <ele>111.6</ele>
        <time>2022-10-09T11:28:31Z</time>
      </trkpt>
      <trkpt lat="43.38133" lon="6.63806">
        <ele>111.7</ele>
        <time>2022-10-09T11:28:33Z</time>
      </trkpt>
      <trkpt lat="43.3813" lon="6.63805">
        <ele>111.9</ele>
        <time>2022-10-09T11:28:42Z</time>
      </trkpt>
      <trkpt lat="43.38125" lon="6.63804">
        <ele>112.3</ele>
        <time>2022-10-09T11:28:45Z</time>
      </trkpt>
      <trkpt lat="43.38124" lon="6.63804">
        <ele>112.4</ele>
        <time>2022-10-09T11:28:46Z</time>
      </trkpt>
      <trkpt lat="43.38123" lon="6.63804">
        <ele>112.5</ele>
        <time>2022-10-09T11:28:47Z</time>
      </trkpt>
      <trkpt lat="43.3812" lon="6.63804">
        <ele>112.8</ele>
        <time>2022-10-09T11:28:49Z</time>
      </trkpt>
      <trkpt lat="43.38118" lon="6.63804">
        <ele>112.9</ele>
        <time>2022-10-09T11:28:50Z</time>
      </trkpt>
      <trkpt lat="43.38117" lon="6.63803">
        <ele>113.1</ele>
        <time>2022-10-09T11:28:51Z</time>
      </trkpt>
      <trkpt lat="43.38114" lon="6.63802">
        <ele>113.3</ele>
        <time>2022-10-09T11:28:53Z</time>
      </trkpt>
      <trkpt lat="43.38113" lon="6.63802">
        <ele>113.4</ele>
        <time>2022-10-09T11:28:54Z</time>
      </trkpt>
      <trkpt lat="43.38108" lon="6.638">
        <ele>113.9</ele>
        <time>2022-10-09T11:28:57Z</time>
      </trkpt>
      <trkpt lat="43.38107" lon="6.638">
        <ele>114</ele>
        <time>2022-10-09T11:28:58Z</time>
      </trkpt>
      <trkpt lat="43.38105" lon="6.63799">
        <ele>114.1</ele>
        <time>2022-10-09T11:28:59Z</time>
      </trkpt>
      <trkpt lat="43.38104" lon="6.63798">
        <ele>114.3</ele>
        <time>2022-10-09T11:29:00Z</time>
      </trkpt>
      <trkpt lat="43.38103" lon="6.63798">
        <ele>114.4</ele>
        <time>2022-10-09T11:29:01Z</time>
      </trkpt>
      <trkpt lat="43.38101" lon="6.63797">
        <ele>114.5</ele>
        <time>2022-10-09T11:29:02Z</time>
      </trkpt>
      <trkpt lat="43.381" lon="6.63796">
        <ele>114.7</ele>
        <time>2022-10-09T11:29:03Z</time>
      </trkpt>
      <trkpt lat="43.38099" lon="6.63796">
        <ele>114.8</ele>
        <time>2022-10-09T11:29:04Z</time>
      </trkpt>
      <trkpt lat="43.38097" lon="6.63795">
        <ele>115</ele>
        <time>2022-10-09T11:29:05Z</time>
      </trkpt>
      <trkpt lat="43.38096" lon="6.63795">
        <ele>115.1</ele>
        <time>2022-10-09T11:29:06Z</time>
      </trkpt>
      <trkpt lat="43.38095" lon="6.63794">
        <ele>115.3</ele>
        <time>2022-10-09T11:29:07Z</time>
      </trkpt>
      <trkpt lat="43.38093" lon="6.63794">
        <ele>115.4</ele>
        <time>2022-10-09T11:29:08Z</time>
      </trkpt>
      <trkpt lat="43.38092" lon="6.63793">
        <ele>115.6</ele>
        <time>2022-10-09T11:29:09Z</time>
      </trkpt>
      <trkpt lat="43.38091" lon="6.63792">
        <ele>115.7</ele>
        <time>2022-10-09T11:29:10Z</time>
      </trkpt>
      <trkpt lat="43.38089" lon="6.63792">
        <ele>115.8</ele>
        <time>2022-10-09T11:29:11Z</time>
      </trkpt>
      <trkpt lat="43.38088" lon="6.63791">
        <ele>116</ele>
        <time>2022-10-09T11:29:12Z</time>
      </trkpt>
      <trkpt lat="43.38087" lon="6.63791">
        <ele>116.1</ele>
        <time>2022-10-09T11:29:13Z</time>
      </trkpt>
      <trkpt lat="43.38086" lon="6.6379">
        <ele>116.2</ele>
        <time>2022-10-09T11:29:14Z</time>
      </trkpt>
      <trkpt lat="43.38085" lon="6.63789">
        <ele>116.4</ele>
        <time>2022-10-09T11:29:15Z</time>
      </trkpt>
      <trkpt lat="43.38083" lon="6.63789">
        <ele>116.6</ele>
        <time>2022-10-09T11:29:16Z</time>
      </trkpt>
      <trkpt lat="43.38082" lon="6.63788">
        <ele>116.7</ele>
        <time>2022-10-09T11:29:17Z</time>
      </trkpt>
      <trkpt lat="43.38081" lon="6.63787">
        <ele>116.9</ele>
        <time>2022-10-09T11:29:18Z</time>
      </trkpt>
      <trkpt lat="43.3808" lon="6.63786">
        <ele>117</ele>
        <time>2022-10-09T11:29:19Z</time>
      </trkpt>
      <trkpt lat="43.38078" lon="6.63785">
        <ele>117.2</ele>
        <time>2022-10-09T11:29:20Z</time>
      </trkpt>
      <trkpt lat="43.38077" lon="6.63784">
        <ele>117.3</ele>
        <time>2022-10-09T11:29:21Z</time>
      </trkpt>
      <trkpt lat="43.38076" lon="6.63784">
        <ele>117.5</ele>
        <time>2022-10-09T11:29:22Z</time>
      </trkpt>
      <trkpt lat="43.38075" lon="6.63783">
        <ele>117.6</ele>
        <time>2022-10-09T11:29:23Z</time>
      </trkpt>
      <trkpt lat="43.38073" lon="6.63782">
        <ele>117.8</ele>
        <time>2022-10-09T11:29:24Z</time>
      </trkpt>
      <trkpt lat="43.38072" lon="6.63781">
        <ele>117.9</ele>
        <time>2022-10-09T11:29:25Z</time>
      </trkpt>
      <trkpt lat="43.38071" lon="6.6378">
        <ele>118.1</ele>
        <time>2022-10-09T11:29:26Z</time>
      </trkpt>
      <trkpt lat="43.3807" lon="6.63779">
        <ele>118.2</ele>
        <time>2022-10-09T11:29:27Z</time>
      </trkpt>
      <trkpt lat="43.38068" lon="6.63779">
        <ele>118.4</ele>
        <time>2022-10-09T11:29:28Z</time>
      </trkpt>
      <trkpt lat="43.38067" lon="6.63778">
        <ele>118.5</ele>
        <time>2022-10-09T11:29:29Z</time>
      </trkpt>
      <trkpt lat="43.38065" lon="6.63778">
        <ele>118.7</ele>
        <time>2022-10-09T11:29:30Z</time>
      </trkpt>
      <trkpt lat="43.38064" lon="6.63777">
        <ele>118.8</ele>
        <time>2022-10-09T11:29:31Z</time>
      </trkpt>
      <trkpt lat="43.38063" lon="6.63777">
        <ele>119</ele>
        <time>2022-10-09T11:29:32Z</time>
      </trkpt>
      <trkpt lat="43.38061" lon="6.63776">
        <ele>119.1</ele>
        <time>2022-10-09T11:29:33Z</time>
      </trkpt>
      <trkpt lat="43.3806" lon="6.63776">
        <ele>119.3</ele>
        <time>2022-10-09T11:29:34Z</time>
      </trkpt>
      <trkpt lat="43.38058" lon="6.63775">
        <ele>119.4</ele>
        <time>2022-10-09T11:29:35Z</time>
      </trkpt>
      <trkpt lat="43.38057" lon="6.63775">
        <ele>119.5</ele>
        <time>2022-10-09T11:29:36Z</time>
      </trkpt>
      <trkpt lat="43.38056" lon="6.63774">
        <ele>119.7</ele>
        <time>2022-10-09T11:29:37Z</time>
      </trkpt>
      <trkpt lat="43.38054" lon="6.63774">
        <ele>119.8</ele>
        <time>2022-10-09T11:29:38Z</time>
      </trkpt>
      <trkpt lat="43.38053" lon="6.63774">
        <ele>120</ele>
        <time>2022-10-09T11:29:39Z</time>
      </trkpt>
      <trkpt lat="43.38052" lon="6.63773">
        <ele>120.1</ele>
        <time>2022-10-09T11:29:40Z</time>
      </trkpt>
      <trkpt lat="43.3805" lon="6.63773">
        <ele>120.2</ele>
        <time>2022-10-09T11:29:41Z</time>
      </trkpt>
      <trkpt lat="43.38049" lon="6.63773">
        <ele>120.3</ele>
        <time>2022-10-09T11:29:42Z</time>
      </trkpt>
      <trkpt lat="43.38047" lon="6.63773">
        <ele>120.5</ele>
        <time>2022-10-09T11:29:43Z</time>
      </trkpt>
      <trkpt lat="43.38046" lon="6.63772">
        <ele>120.6</ele>
        <time>2022-10-09T11:29:44Z</time>
      </trkpt>
      <trkpt lat="43.38044" lon="6.63772">
        <ele>120.7</ele>
        <time>2022-10-09T11:29:45Z</time>
      </trkpt>
      <trkpt lat="43.38043" lon="6.63772">
        <ele>120.9</ele>
        <time>2022-10-09T11:29:46Z</time>
      </trkpt>
      <trkpt lat="43.38041" lon="6.63771">
        <ele>121</ele>
        <time>2022-10-09T11:29:47Z</time>
      </trkpt>
      <trkpt lat="43.38039" lon="6.63771">
        <ele>121.1</ele>
        <time>2022-10-09T11:29:48Z</time>
      </trkpt>
      <trkpt lat="43.38038" lon="6.6377">
        <ele>121.3</ele>
        <time>2022-10-09T11:29:49Z</time>
      </trkpt>
      <trkpt lat="43.38036" lon="6.63769">
        <ele>121.4</ele>
        <time>2022-10-09T11:29:50Z</time>
      </trkpt>
      <trkpt lat="43.38035" lon="6.63769">
        <ele>121.5</ele>
        <time>2022-10-09T11:29:51Z</time>
      </trkpt>
      <trkpt lat="43.38034" lon="6.63768">
        <ele>121.6</ele>
        <time>2022-10-09T11:29:52Z</time>
      </trkpt>
      <trkpt lat="43.38032" lon="6.63768">
        <ele>121.7</ele>
        <time>2022-10-09T11:29:53Z</time>
      </trkpt>
      <trkpt lat="43.38031" lon="6.63767">
        <ele>121.8</ele>
        <time>2022-10-09T11:29:54Z</time>
      </trkpt>
      <trkpt lat="43.3803" lon="6.63767">
        <ele>122</ele>
        <time>2022-10-09T11:29:55Z</time>
      </trkpt>
      <trkpt lat="43.38028" lon="6.63766">
        <ele>122.1</ele>
        <time>2022-10-09T11:29:56Z</time>
      </trkpt>
      <trkpt lat="43.38027" lon="6.63765">
        <ele>122.2</ele>
        <time>2022-10-09T11:29:57Z</time>
      </trkpt>
      <trkpt lat="43.38026" lon="6.63765">
        <ele>122.3</ele>
        <time>2022-10-09T11:29:58Z</time>
      </trkpt>
      <trkpt lat="43.38024" lon="6.63764">
        <ele>122.4</ele>
        <time>2022-10-09T11:29:59Z</time>
      </trkpt>
      <trkpt lat="43.38023" lon="6.63764">
        <ele>122.6</ele>
        <time>2022-10-09T11:30:00Z</time>
      </trkpt>
      <trkpt lat="43.38021" lon="6.63764">
        <ele>122.7</ele>
        <time>2022-10-09T11:30:01Z</time>
      </trkpt>
      <trkpt lat="43.3802" lon="6.63763">
        <ele>122.8</ele>
        <time>2022-10-09T11:30:02Z</time>
      </trkpt>
      <trkpt lat="43.38018" lon="6.63762">
        <ele>122.9</ele>
        <time>2022-10-09T11:30:03Z</time>
      </trkpt>
      <trkpt lat="43.38017" lon="6.63762">
        <ele>123.1</ele>
        <time>2022-10-09T11:30:04Z</time>
      </trkpt>
      <trkpt lat="43.38016" lon="6.63761">
        <ele>123.2</ele>
        <time>2022-10-09T11:30:05Z</time>
      </trkpt>
      <trkpt lat="43.38014" lon="6.63761">
        <ele>123.4</ele>
        <time>2022-10-09T11:30:06Z</time>
      </trkpt>
      <trkpt lat="43.38013" lon="6.63761">
        <ele>123.5</ele>
        <time>2022-10-09T11:30:07Z</time>
      </trkpt>
      <trkpt lat="43.38011" lon="6.6376">
        <ele>123.6</ele>
        <time>2022-10-09T11:30:08Z</time>
      </trkpt>
      <trkpt lat="43.3801" lon="6.6376">
        <ele>123.8</ele>
        <time>2022-10-09T11:30:09Z</time>
      </trkpt>
      <trkpt lat="43.38009" lon="6.63759">
        <ele>123.9</ele>
        <time>2022-10-09T11:30:10Z</time>
      </trkpt>
      <trkpt lat="43.38007" lon="6.63759">
        <ele>124</ele>
        <time>2022-10-09T11:30:11Z</time>
      </trkpt>
      <trkpt lat="43.38006" lon="6.63759">
        <ele>124.2</ele>
        <time>2022-10-09T11:30:12Z</time>
      </trkpt>
      <trkpt lat="43.38004" lon="6.63759">
        <ele>124.3</ele>
        <time>2022-10-09T11:30:13Z</time>
      </trkpt>
      <trkpt lat="43.38003" lon="6.63758">
        <ele>124.5</ele>
        <time>2022-10-09T11:30:14Z</time>
      </trkpt>
      <trkpt lat="43.38002" lon="6.63758">
        <ele>124.6</ele>
        <time>2022-10-09T11:30:15Z</time>
      </trkpt>
      <trkpt lat="43.38001" lon="6.63758">
        <ele>124.7</ele>
        <time>2022-10-09T11:30:16Z</time>
      </trkpt>
      <trkpt lat="43.37999" lon="6.63758">
        <ele>124.8</ele>
        <time>2022-10-09T11:30:17Z</time>
      </trkpt>
      <trkpt lat="43.37998" lon="6.63758">
        <ele>125</ele>
        <time>2022-10-09T11:30:18Z</time>
      </trkpt>
      <trkpt lat="43.37996" lon="6.63757">
        <ele>125.2</ele>
        <time>2022-10-09T11:30:19Z</time>
      </trkpt>
      <trkpt lat="43.37994" lon="6.63757">
        <ele>125.3</ele>
        <time>2022-10-09T11:30:20Z</time>
      </trkpt>
      <trkpt lat="43.37992" lon="6.63757">
        <ele>125.5</ele>
        <time>2022-10-09T11:30:21Z</time>
      </trkpt>
      <trkpt lat="43.37991" lon="6.63757">
        <ele>125.6</ele>
        <time>2022-10-09T11:30:22Z</time>
      </trkpt>
      <trkpt lat="43.37989" lon="6.63757">
        <ele>125.8</ele>
        <time>2022-10-09T11:30:23Z</time>
      </trkpt>
      <trkpt lat="43.37988" lon="6.63756">
        <ele>125.9</ele>
        <time>2022-10-09T11:30:24Z</time>
      </trkpt>
      <trkpt lat="43.37986" lon="6.63756">
        <ele>126</ele>
        <time>2022-10-09T11:30:25Z</time>
      </trkpt>
      <trkpt lat="43.37985" lon="6.63756">
        <ele>126.2</ele>
        <time>2022-10-09T11:30:26Z</time>
      </trkpt>
      <trkpt lat="43.37983" lon="6.63756">
        <ele>126.3</ele>
        <time>2022-10-09T11:30:27Z</time>
      </trkpt>
      <trkpt lat="43.37981" lon="6.63756">
        <ele>126.5</ele>
        <time>2022-10-09T11:30:28Z</time>
      </trkpt>
      <trkpt lat="43.3798" lon="6.63756">
        <ele>126.6</ele>
        <time>2022-10-09T11:30:29Z</time>
      </trkpt>
      <trkpt lat="43.37978" lon="6.63756">
        <ele>126.8</ele>
        <time>2022-10-09T11:30:30Z</time>
      </trkpt>
      <trkpt lat="43.37977" lon="6.63755">
        <ele>126.9</ele>
        <time>2022-10-09T11:30:31Z</time>
      </trkpt>
      <trkpt lat="43.37975" lon="6.63755">
        <ele>127</ele>
        <time>2022-10-09T11:30:32Z</time>
      </trkpt>
      <trkpt lat="43.37974" lon="6.63756">
        <ele>127.1</ele>
        <time>2022-10-09T11:30:33Z</time>
      </trkpt>
      <trkpt lat="43.37972" lon="6.63756">
        <ele>127.3</ele>
        <time>2022-10-09T11:30:34Z</time>
      </trkpt>
      <trkpt lat="43.37971" lon="6.63756">
        <ele>127.4</ele>
        <time>2022-10-09T11:30:35Z</time>
      </trkpt>
      <trkpt lat="43.37969" lon="6.63756">
        <ele>127.6</ele>
        <time>2022-10-09T11:30:36Z</time>
      </trkpt>
      <trkpt lat="43.37968" lon="6.63755">
        <ele>127.7</ele>
        <time>2022-10-09T11:30:37Z</time>
      </trkpt>
      <trkpt lat="43.37966" lon="6.63755">
        <ele>127.9</ele>
        <time>2022-10-09T11:30:38Z</time>
      </trkpt>
      <trkpt lat="43.37965" lon="6.63755">
        <ele>128</ele>
        <time>2022-10-09T11:30:39Z</time>
      </trkpt>
      <trkpt lat="43.37963" lon="6.63755">
        <ele>128.1</ele>
        <time>2022-10-09T11:30:40Z</time>
      </trkpt>
      <trkpt lat="43.37962" lon="6.63755">
        <ele>128.3</ele>
        <time>2022-10-09T11:30:41Z</time>
      </trkpt>
      <trkpt lat="43.3796" lon="6.63756">
        <ele>128.4</ele>
        <time>2022-10-09T11:30:42Z</time>
      </trkpt>
      <trkpt lat="43.37959" lon="6.63756">
        <ele>128.5</ele>
        <time>2022-10-09T11:30:43Z</time>
      </trkpt>
      <trkpt lat="43.37958" lon="6.63756">
        <ele>128.7</ele>
        <time>2022-10-09T11:30:44Z</time>
      </trkpt>
      <trkpt lat="43.37956" lon="6.63756">
        <ele>128.8</ele>
        <time>2022-10-09T11:30:45Z</time>
      </trkpt>
      <trkpt lat="43.37955" lon="6.63756">
        <ele>128.9</ele>
        <time>2022-10-09T11:30:46Z</time>
      </trkpt>
      <trkpt lat="43.37954" lon="6.63757">
        <ele>129.1</ele>
        <time>2022-10-09T11:30:47Z</time>
      </trkpt>
      <trkpt lat="43.37952" lon="6.63757">
        <ele>129.2</ele>
        <time>2022-10-09T11:30:48Z</time>
      </trkpt>
      <trkpt lat="43.37951" lon="6.63757">
        <ele>129.3</ele>
        <time>2022-10-09T11:30:49Z</time>
      </trkpt>
      <trkpt lat="43.3795" lon="6.63757">
        <ele>129.4</ele>
        <time>2022-10-09T11:30:50Z</time>
      </trkpt>
      <trkpt lat="43.37948" lon="6.63758">
        <ele>129.5</ele>
        <time>2022-10-09T11:30:51Z</time>
      </trkpt>
      <trkpt lat="43.37947" lon="6.63758">
        <ele>129.7</ele>
        <time>2022-10-09T11:30:52Z</time>
      </trkpt>
      <trkpt lat="43.37945" lon="6.63758">
        <ele>129.8</ele>
        <time>2022-10-09T11:30:53Z</time>
      </trkpt>
      <trkpt lat="43.37943" lon="6.63758">
        <ele>130</ele>
        <time>2022-10-09T11:30:54Z</time>
      </trkpt>
      <trkpt lat="43.37942" lon="6.63758">
        <ele>130.1</ele>
        <time>2022-10-09T11:30:55Z</time>
      </trkpt>
      <trkpt lat="43.3794" lon="6.63759">
        <ele>130.2</ele>
        <time>2022-10-09T11:30:56Z</time>
      </trkpt>
      <trkpt lat="43.37939" lon="6.63759">
        <ele>130.3</ele>
        <time>2022-10-09T11:30:57Z</time>
      </trkpt>
      <trkpt lat="43.37937" lon="6.63759">
        <ele>130.4</ele>
        <time>2022-10-09T11:30:58Z</time>
      </trkpt>
      <trkpt lat="43.37936" lon="6.63759">
        <ele>130.5</ele>
        <time>2022-10-09T11:30:59Z</time>
      </trkpt>
      <trkpt lat="43.37934" lon="6.63759">
        <ele>130.6</ele>
        <time>2022-10-09T11:31:00Z</time>
      </trkpt>
      <trkpt lat="43.37933" lon="6.6376">
        <ele>130.7</ele>
        <time>2022-10-09T11:31:01Z</time>
      </trkpt>
      <trkpt lat="43.37931" lon="6.6376">
        <ele>130.8</ele>
        <time>2022-10-09T11:31:02Z</time>
      </trkpt>
      <trkpt lat="43.3793" lon="6.6376">
        <ele>130.9</ele>
        <time>2022-10-09T11:31:03Z</time>
      </trkpt>
      <trkpt lat="43.37929" lon="6.6376">
        <ele>131</ele>
        <time>2022-10-09T11:31:04Z</time>
      </trkpt>
      <trkpt lat="43.37927" lon="6.6376">
        <ele>131.1</ele>
        <time>2022-10-09T11:31:05Z</time>
      </trkpt>
      <trkpt lat="43.37926" lon="6.6376">
        <ele>131.2</ele>
        <time>2022-10-09T11:31:06Z</time>
      </trkpt>
      <trkpt lat="43.37924" lon="6.6376">
        <ele>131.4</ele>
        <time>2022-10-09T11:31:07Z</time>
      </trkpt>
      <trkpt lat="43.37923" lon="6.63761">
        <ele>131.5</ele>
        <time>2022-10-09T11:31:08Z</time>
      </trkpt>
      <trkpt lat="43.37921" lon="6.63761">
        <ele>131.6</ele>
        <time>2022-10-09T11:31:09Z</time>
      </trkpt>
      <trkpt lat="43.3792" lon="6.63761">
        <ele>131.7</ele>
        <time>2022-10-09T11:31:10Z</time>
      </trkpt>
      <trkpt lat="43.37919" lon="6.63762">
        <ele>131.8</ele>
        <time>2022-10-09T11:31:11Z</time>
      </trkpt>
      <trkpt lat="43.37917" lon="6.63762">
        <ele>131.9</ele>
        <time>2022-10-09T11:31:12Z</time>
      </trkpt>
      <trkpt lat="43.37916" lon="6.63762">
        <ele>132</ele>
        <time>2022-10-09T11:31:13Z</time>
      </trkpt>
      <trkpt lat="43.37915" lon="6.63762">
        <ele>132</ele>
        <time>2022-10-09T11:31:14Z</time>
      </trkpt>
      <trkpt lat="43.37913" lon="6.63762">
        <ele>132.2</ele>
        <time>2022-10-09T11:31:15Z</time>
      </trkpt>
      <trkpt lat="43.37912" lon="6.63762">
        <ele>132.3</ele>
        <time>2022-10-09T11:31:16Z</time>
      </trkpt>
      <trkpt lat="43.3791" lon="6.63763">
        <ele>132.4</ele>
        <time>2022-10-09T11:31:17Z</time>
      </trkpt>
      <trkpt lat="43.37909" lon="6.63763">
        <ele>132.5</ele>
        <time>2022-10-09T11:31:18Z</time>
      </trkpt>
      <trkpt lat="43.37907" lon="6.63763">
        <ele>132.6</ele>
        <time>2022-10-09T11:31:19Z</time>
      </trkpt>
      <trkpt lat="43.37906" lon="6.63763">
        <ele>132.7</ele>
        <time>2022-10-09T11:31:20Z</time>
      </trkpt>
      <trkpt lat="43.37905" lon="6.63763">
        <ele>132.8</ele>
        <time>2022-10-09T11:31:21Z</time>
      </trkpt>
      <trkpt lat="43.37903" lon="6.63764">
        <ele>132.9</ele>
        <time>2022-10-09T11:31:22Z</time>
      </trkpt>
      <trkpt lat="43.37902" lon="6.63764">
        <ele>133</ele>
        <time>2022-10-09T11:31:23Z</time>
      </trkpt>
      <trkpt lat="43.37901" lon="6.63765">
        <ele>133.1</ele>
        <time>2022-10-09T11:31:24Z</time>
      </trkpt>
      <trkpt lat="43.37899" lon="6.63765">
        <ele>133.2</ele>
        <time>2022-10-09T11:31:25Z</time>
      </trkpt>
      <trkpt lat="43.37898" lon="6.63765">
        <ele>133.3</ele>
        <time>2022-10-09T11:31:26Z</time>
      </trkpt>
      <trkpt lat="43.37896" lon="6.63765">
        <ele>133.4</ele>
        <time>2022-10-09T11:31:27Z</time>
      </trkpt>
      <trkpt lat="43.37895" lon="6.63765">
        <ele>133.5</ele>
        <time>2022-10-09T11:31:28Z</time>
      </trkpt>
      <trkpt lat="43.37893" lon="6.63766">
        <ele>133.6</ele>
        <time>2022-10-09T11:31:29Z</time>
      </trkpt>
      <trkpt lat="43.37892" lon="6.63766">
        <ele>133.7</ele>
        <time>2022-10-09T11:31:30Z</time>
      </trkpt>
      <trkpt lat="43.3789" lon="6.63765">
        <ele>133.8</ele>
        <time>2022-10-09T11:31:31Z</time>
      </trkpt>
      <trkpt lat="43.37888" lon="6.63765">
        <ele>133.9</ele>
        <time>2022-10-09T11:31:32Z</time>
      </trkpt>
      <trkpt lat="43.37887" lon="6.63765">
        <ele>134</ele>
        <time>2022-10-09T11:31:33Z</time>
      </trkpt>
      <trkpt lat="43.37885" lon="6.63765">
        <ele>134.1</ele>
        <time>2022-10-09T11:31:34Z</time>
      </trkpt>
      <trkpt lat="43.37884" lon="6.63766">
        <ele>134.2</ele>
        <time>2022-10-09T11:31:35Z</time>
      </trkpt>
      <trkpt lat="43.37882" lon="6.63766">
        <ele>134.3</ele>
        <time>2022-10-09T11:31:36Z</time>
      </trkpt>
      <trkpt lat="43.3788" lon="6.63767">
        <ele>134.5</ele>
        <time>2022-10-09T11:31:38Z</time>
      </trkpt>
      <trkpt lat="43.37879" lon="6.63767">
        <ele>134.5</ele>
        <time>2022-10-09T11:31:39Z</time>
      </trkpt>
      <trkpt lat="43.37873" lon="6.63767">
        <ele>134.9</ele>
        <time>2022-10-09T11:31:42Z</time>
      </trkpt>
      <trkpt lat="43.37871" lon="6.63767">
        <ele>135</ele>
        <time>2022-10-09T11:31:43Z</time>
      </trkpt>
      <trkpt lat="43.3787" lon="6.63766">
        <ele>135.1</ele>
        <time>2022-10-09T11:31:44Z</time>
      </trkpt>
      <trkpt lat="43.37868" lon="6.63766">
        <ele>135.2</ele>
        <time>2022-10-09T11:31:45Z</time>
      </trkpt>
      <trkpt lat="43.37867" lon="6.63765">
        <ele>135.3</ele>
        <time>2022-10-09T11:31:46Z</time>
      </trkpt>
      <trkpt lat="43.37865" lon="6.63765">
        <ele>135.4</ele>
        <time>2022-10-09T11:31:47Z</time>
      </trkpt>
      <trkpt lat="43.37864" lon="6.63765">
        <ele>135.5</ele>
        <time>2022-10-09T11:31:48Z</time>
      </trkpt>
      <trkpt lat="43.37863" lon="6.63764">
        <ele>135.6</ele>
        <time>2022-10-09T11:31:49Z</time>
      </trkpt>
      <trkpt lat="43.37862" lon="6.63764">
        <ele>135.7</ele>
        <time>2022-10-09T11:31:50Z</time>
      </trkpt>
      <trkpt lat="43.3786" lon="6.63763">
        <ele>135.9</ele>
        <time>2022-10-09T11:31:52Z</time>
      </trkpt>
      <trkpt lat="43.37859" lon="6.63762">
        <ele>136</ele>
        <time>2022-10-09T11:31:53Z</time>
      </trkpt>
      <trkpt lat="43.37858" lon="6.63761">
        <ele>136.1</ele>
        <time>2022-10-09T11:31:54Z</time>
      </trkpt>
      <trkpt lat="43.37856" lon="6.63761">
        <ele>136.2</ele>
        <time>2022-10-09T11:31:55Z</time>
      </trkpt>
      <trkpt lat="43.37855" lon="6.63761">
        <ele>136.3</ele>
        <time>2022-10-09T11:31:56Z</time>
      </trkpt>
      <trkpt lat="43.37854" lon="6.63761">
        <ele>136.4</ele>
        <time>2022-10-09T11:31:57Z</time>
      </trkpt>
      <trkpt lat="43.37852" lon="6.6376">
        <ele>136.5</ele>
        <time>2022-10-09T11:31:58Z</time>
      </trkpt>
      <trkpt lat="43.37851" lon="6.6376">
        <ele>136.7</ele>
        <time>2022-10-09T11:31:59Z</time>
      </trkpt>
      <trkpt lat="43.3785" lon="6.6376">
        <ele>136.8</ele>
        <time>2022-10-09T11:32:00Z</time>
      </trkpt>
      <trkpt lat="43.37848" lon="6.6376">
        <ele>136.9</ele>
        <time>2022-10-09T11:32:01Z</time>
      </trkpt>
      <trkpt lat="43.37847" lon="6.6376">
        <ele>137.1</ele>
        <time>2022-10-09T11:32:02Z</time>
      </trkpt>
      <trkpt lat="43.37845" lon="6.6376">
        <ele>137.3</ele>
        <time>2022-10-09T11:32:03Z</time>
      </trkpt>
      <trkpt lat="43.37844" lon="6.6376">
        <ele>137.4</ele>
        <time>2022-10-09T11:32:04Z</time>
      </trkpt>
      <trkpt lat="43.37842" lon="6.6376">
        <ele>137.5</ele>
        <time>2022-10-09T11:32:05Z</time>
      </trkpt>
      <trkpt lat="43.37841" lon="6.6376">
        <ele>137.7</ele>
        <time>2022-10-09T11:32:06Z</time>
      </trkpt>
      <trkpt lat="43.37839" lon="6.6376">
        <ele>137.8</ele>
        <time>2022-10-09T11:32:07Z</time>
      </trkpt>
      <trkpt lat="43.37838" lon="6.6376">
        <ele>138</ele>
        <time>2022-10-09T11:32:08Z</time>
      </trkpt>
      <trkpt lat="43.37836" lon="6.6376">
        <ele>138.1</ele>
        <time>2022-10-09T11:32:09Z</time>
      </trkpt>
      <trkpt lat="43.37835" lon="6.6376">
        <ele>138.3</ele>
        <time>2022-10-09T11:32:10Z</time>
      </trkpt>
      <trkpt lat="43.37833" lon="6.6376">
        <ele>138.4</ele>
        <time>2022-10-09T11:32:11Z</time>
      </trkpt>
      <trkpt lat="43.37832" lon="6.6376">
        <ele>138.6</ele>
        <time>2022-10-09T11:32:12Z</time>
      </trkpt>
      <trkpt lat="43.3783" lon="6.6376">
        <ele>138.7</ele>
        <time>2022-10-09T11:32:13Z</time>
      </trkpt>
      <trkpt lat="43.37829" lon="6.6376">
        <ele>138.8</ele>
        <time>2022-10-09T11:32:14Z</time>
      </trkpt>
      <trkpt lat="43.37827" lon="6.6376">
        <ele>139</ele>
        <time>2022-10-09T11:32:15Z</time>
      </trkpt>
      <trkpt lat="43.37826" lon="6.6376">
        <ele>139.1</ele>
        <time>2022-10-09T11:32:16Z</time>
      </trkpt>
      <trkpt lat="43.37824" lon="6.6376">
        <ele>139.2</ele>
        <time>2022-10-09T11:32:17Z</time>
      </trkpt>
      <trkpt lat="43.37823" lon="6.6376">
        <ele>139.4</ele>
        <time>2022-10-09T11:32:18Z</time>
      </trkpt>
      <trkpt lat="43.37821" lon="6.6376">
        <ele>139.5</ele>
        <time>2022-10-09T11:32:19Z</time>
      </trkpt>
      <trkpt lat="43.3782" lon="6.6376">
        <ele>139.6</ele>
        <time>2022-10-09T11:32:20Z</time>
      </trkpt>
      <trkpt lat="43.37819" lon="6.6376">
        <ele>139.7</ele>
        <time>2022-10-09T11:32:21Z</time>
      </trkpt>
      <trkpt lat="43.37817" lon="6.6376">
        <ele>139.9</ele>
        <time>2022-10-09T11:32:22Z</time>
      </trkpt>
      <trkpt lat="43.37816" lon="6.6376">
        <ele>140</ele>
        <time>2022-10-09T11:32:23Z</time>
      </trkpt>
      <trkpt lat="43.37814" lon="6.6376">
        <ele>140.1</ele>
        <time>2022-10-09T11:32:24Z</time>
      </trkpt>
      <trkpt lat="43.37813" lon="6.6376">
        <ele>140.2</ele>
        <time>2022-10-09T11:32:25Z</time>
      </trkpt>
      <trkpt lat="43.37811" lon="6.6376">
        <ele>140.3</ele>
        <time>2022-10-09T11:32:26Z</time>
      </trkpt>
      <trkpt lat="43.3781" lon="6.6376">
        <ele>140.5</ele>
        <time>2022-10-09T11:32:27Z</time>
      </trkpt>
      <trkpt lat="43.37808" lon="6.6376">
        <ele>140.6</ele>
        <time>2022-10-09T11:32:28Z</time>
      </trkpt>
      <trkpt lat="43.37806" lon="6.6376">
        <ele>140.8</ele>
        <time>2022-10-09T11:32:29Z</time>
      </trkpt>
      <trkpt lat="43.37805" lon="6.63759">
        <ele>140.9</ele>
        <time>2022-10-09T11:32:30Z</time>
      </trkpt>
      <trkpt lat="43.37804" lon="6.63759">
        <ele>141</ele>
        <time>2022-10-09T11:32:31Z</time>
      </trkpt>
      <trkpt lat="43.37802" lon="6.63758">
        <ele>141.1</ele>
        <time>2022-10-09T11:32:32Z</time>
      </trkpt>
      <trkpt lat="43.37801" lon="6.63758">
        <ele>141.3</ele>
        <time>2022-10-09T11:32:33Z</time>
      </trkpt>
      <trkpt lat="43.37799" lon="6.63757">
        <ele>141.4</ele>
        <time>2022-10-09T11:32:34Z</time>
      </trkpt>
      <trkpt lat="43.37798" lon="6.63757">
        <ele>141.5</ele>
        <time>2022-10-09T11:32:35Z</time>
      </trkpt>
      <trkpt lat="43.37797" lon="6.63756">
        <ele>141.7</ele>
        <time>2022-10-09T11:32:36Z</time>
      </trkpt>
      <trkpt lat="43.37796" lon="6.63756">
        <ele>141.8</ele>
        <time>2022-10-09T11:32:37Z</time>
      </trkpt>
      <trkpt lat="43.37794" lon="6.63755">
        <ele>141.9</ele>
        <time>2022-10-09T11:32:38Z</time>
      </trkpt>
      <trkpt lat="43.37793" lon="6.63755">
        <ele>142.1</ele>
        <time>2022-10-09T11:32:39Z</time>
      </trkpt>
      <trkpt lat="43.37791" lon="6.63755">
        <ele>142.2</ele>
        <time>2022-10-09T11:32:40Z</time>
      </trkpt>
      <trkpt lat="43.3779" lon="6.63755">
        <ele>142.3</ele>
        <time>2022-10-09T11:32:41Z</time>
      </trkpt>
      <trkpt lat="43.37789" lon="6.63755">
        <ele>142.5</ele>
        <time>2022-10-09T11:32:42Z</time>
      </trkpt>
      <trkpt lat="43.37788" lon="6.63755">
        <ele>142.6</ele>
        <time>2022-10-09T11:32:43Z</time>
      </trkpt>
      <trkpt lat="43.37787" lon="6.63754">
        <ele>142.7</ele>
        <time>2022-10-09T11:32:44Z</time>
      </trkpt>
      <trkpt lat="43.37786" lon="6.63754">
        <ele>142.8</ele>
        <time>2022-10-09T11:32:45Z</time>
      </trkpt>
      <trkpt lat="43.37784" lon="6.63754">
        <ele>142.9</ele>
        <time>2022-10-09T11:32:46Z</time>
      </trkpt>
      <trkpt lat="43.37783" lon="6.63753">
        <ele>143.1</ele>
        <time>2022-10-09T11:32:47Z</time>
      </trkpt>
      <trkpt lat="43.37782" lon="6.63753">
        <ele>143.2</ele>
        <time>2022-10-09T11:32:48Z</time>
      </trkpt>
      <trkpt lat="43.3778" lon="6.63753">
        <ele>143.4</ele>
        <time>2022-10-09T11:32:49Z</time>
      </trkpt>
      <trkpt lat="43.37779" lon="6.63753">
        <ele>143.5</ele>
        <time>2022-10-09T11:32:50Z</time>
      </trkpt>
      <trkpt lat="43.37778" lon="6.63752">
        <ele>143.6</ele>
        <time>2022-10-09T11:32:51Z</time>
      </trkpt>
      <trkpt lat="43.37777" lon="6.63752">
        <ele>143.8</ele>
        <time>2022-10-09T11:32:52Z</time>
      </trkpt>
      <trkpt lat="43.37775" lon="6.63751">
        <ele>143.9</ele>
        <time>2022-10-09T11:32:53Z</time>
      </trkpt>
      <trkpt lat="43.37774" lon="6.63751">
        <ele>144.1</ele>
        <time>2022-10-09T11:32:54Z</time>
      </trkpt>
      <trkpt lat="43.37773" lon="6.6375">
        <ele>144.2</ele>
        <time>2022-10-09T11:32:55Z</time>
      </trkpt>
      <trkpt lat="43.37771" lon="6.6375">
        <ele>144.3</ele>
        <time>2022-10-09T11:32:56Z</time>
      </trkpt>
      <trkpt lat="43.3777" lon="6.6375">
        <ele>144.5</ele>
        <time>2022-10-09T11:32:57Z</time>
      </trkpt>
      <trkpt lat="43.37769" lon="6.6375">
        <ele>144.6</ele>
        <time>2022-10-09T11:32:58Z</time>
      </trkpt>
      <trkpt lat="43.37768" lon="6.63749">
        <ele>144.7</ele>
        <time>2022-10-09T11:32:59Z</time>
      </trkpt>
      <trkpt lat="43.37767" lon="6.63749">
        <ele>144.8</ele>
        <time>2022-10-09T11:33:00Z</time>
      </trkpt>
      <trkpt lat="43.37765" lon="6.63749">
        <ele>145</ele>
        <time>2022-10-09T11:33:01Z</time>
      </trkpt>
      <trkpt lat="43.37764" lon="6.63748">
        <ele>145.1</ele>
        <time>2022-10-09T11:33:02Z</time>
      </trkpt>
      <trkpt lat="43.37763" lon="6.63748">
        <ele>145.2</ele>
        <time>2022-10-09T11:33:03Z</time>
      </trkpt>
      <trkpt lat="43.37761" lon="6.63747">
        <ele>145.4</ele>
        <time>2022-10-09T11:33:04Z</time>
      </trkpt>
      <trkpt lat="43.3776" lon="6.63746">
        <ele>145.5</ele>
        <time>2022-10-09T11:33:05Z</time>
      </trkpt>
      <trkpt lat="43.37758" lon="6.63745">
        <ele>145.6</ele>
        <time>2022-10-09T11:33:06Z</time>
      </trkpt>
      <trkpt lat="43.37756" lon="6.63744">
        <ele>145.8</ele>
        <time>2022-10-09T11:33:07Z</time>
      </trkpt>
      <trkpt lat="43.37755" lon="6.63743">
        <ele>146</ele>
        <time>2022-10-09T11:33:08Z</time>
      </trkpt>
      <trkpt lat="43.37753" lon="6.63741">
        <ele>146.1</ele>
        <time>2022-10-09T11:33:09Z</time>
      </trkpt>
      <trkpt lat="43.37753" lon="6.63738">
        <ele>146.3</ele>
        <time>2022-10-09T11:33:10Z</time>
      </trkpt>
      <trkpt lat="43.37752" lon="6.63735">
        <ele>146.4</ele>
        <time>2022-10-09T11:33:11Z</time>
      </trkpt>
      <trkpt lat="43.37752" lon="6.63733">
        <ele>146.6</ele>
        <time>2022-10-09T11:33:12Z</time>
      </trkpt>
      <trkpt lat="43.37752" lon="6.6373">
        <ele>146.7</ele>
        <time>2022-10-09T11:33:13Z</time>
      </trkpt>
      <trkpt lat="43.37751" lon="6.63728">
        <ele>146.8</ele>
        <time>2022-10-09T11:33:14Z</time>
      </trkpt>
      <trkpt lat="43.37751" lon="6.63725">
        <ele>146.9</ele>
        <time>2022-10-09T11:33:15Z</time>
      </trkpt>
      <trkpt lat="43.37751" lon="6.63722">
        <ele>147.1</ele>
        <time>2022-10-09T11:33:16Z</time>
      </trkpt>
      <trkpt lat="43.37751" lon="6.6372">
        <ele>147.2</ele>
        <time>2022-10-09T11:33:17Z</time>
      </trkpt>
      <trkpt lat="43.37751" lon="6.63718">
        <ele>147.3</ele>
        <time>2022-10-09T11:33:18Z</time>
      </trkpt>
      <trkpt lat="43.37751" lon="6.63715">
        <ele>147.4</ele>
        <time>2022-10-09T11:33:19Z</time>
      </trkpt>
      <trkpt lat="43.37751" lon="6.63712">
        <ele>147.5</ele>
        <time>2022-10-09T11:33:20Z</time>
      </trkpt>
      <trkpt lat="43.37751" lon="6.6371">
        <ele>147.5</ele>
        <time>2022-10-09T11:33:21Z</time>
      </trkpt>
      <trkpt lat="43.3775" lon="6.63707">
        <ele>147.6</ele>
        <time>2022-10-09T11:33:22Z</time>
      </trkpt>
      <trkpt lat="43.37749" lon="6.63705">
        <ele>147.7</ele>
        <time>2022-10-09T11:33:23Z</time>
      </trkpt>
      <trkpt lat="43.37747" lon="6.63703">
        <ele>147.8</ele>
        <time>2022-10-09T11:33:24Z</time>
      </trkpt>
      <trkpt lat="43.37745" lon="6.63701">
        <ele>147.8</ele>
        <time>2022-10-09T11:33:25Z</time>
      </trkpt>
      <trkpt lat="43.37743" lon="6.63699">
        <ele>147.8</ele>
        <time>2022-10-09T11:33:26Z</time>
      </trkpt>
      <trkpt lat="43.3774" lon="6.63697">
        <ele>147.9</ele>
        <time>2022-10-09T11:33:27Z</time>
      </trkpt>
      <trkpt lat="43.37737" lon="6.63695">
        <ele>147.9</ele>
        <time>2022-10-09T11:33:28Z</time>
      </trkpt>
      <trkpt lat="43.37734" lon="6.63691">
        <ele>147.9</ele>
        <time>2022-10-09T11:33:29Z</time>
      </trkpt>
      <trkpt lat="43.37732" lon="6.63688">
        <ele>147.9</ele>
        <time>2022-10-09T11:33:30Z</time>
      </trkpt>
      <trkpt lat="43.3773" lon="6.63684">
        <ele>147.9</ele>
        <time>2022-10-09T11:33:31Z</time>
      </trkpt>
      <trkpt lat="43.37729" lon="6.63679">
        <ele>147.9</ele>
        <time>2022-10-09T11:33:32Z</time>
      </trkpt>
      <trkpt lat="43.37727" lon="6.63675">
        <ele>147.8</ele>
        <time>2022-10-09T11:33:33Z</time>
      </trkpt>
      <trkpt lat="43.37726" lon="6.63671">
        <ele>147.8</ele>
        <time>2022-10-09T11:33:34Z</time>
      </trkpt>
      <trkpt lat="43.37711" lon="6.63643">
        <ele>147.8</ele>
        <time>2022-10-09T11:33:41Z</time>
      </trkpt>
      <trkpt lat="43.37709" lon="6.63639">
        <ele>147.8</ele>
        <time>2022-10-09T11:33:42Z</time>
      </trkpt>
      <trkpt lat="43.37707" lon="6.6363">
        <ele>147.8</ele>
        <time>2022-10-09T11:33:44Z</time>
      </trkpt>
      <trkpt lat="43.37706" lon="6.63626">
        <ele>147.8</ele>
        <time>2022-10-09T11:33:45Z</time>
      </trkpt>
      <trkpt lat="43.37706" lon="6.6362">
        <ele>147.8</ele>
        <time>2022-10-09T11:33:46Z</time>
      </trkpt>
      <trkpt lat="43.37708" lon="6.63615">
        <ele>147.8</ele>
        <time>2022-10-09T11:33:47Z</time>
      </trkpt>
      <trkpt lat="43.3771" lon="6.63612">
        <ele>147.8</ele>
        <time>2022-10-09T11:33:48Z</time>
      </trkpt>
      <trkpt lat="43.37713" lon="6.63608">
        <ele>147.8</ele>
        <time>2022-10-09T11:33:49Z</time>
      </trkpt>
      <trkpt lat="43.37716" lon="6.63605">
        <ele>147.8</ele>
        <time>2022-10-09T11:33:50Z</time>
      </trkpt>
      <trkpt lat="43.37719" lon="6.63602">
        <ele>147.8</ele>
        <time>2022-10-09T11:33:51Z</time>
      </trkpt>
      <trkpt lat="43.37722" lon="6.63599">
        <ele>147.9</ele>
        <time>2022-10-09T11:33:52Z</time>
      </trkpt>
      <trkpt lat="43.37725" lon="6.63591">
        <ele>147.9</ele>
        <time>2022-10-09T11:33:54Z</time>
      </trkpt>
      <trkpt lat="43.37726" lon="6.63586">
        <ele>148</ele>
        <time>2022-10-09T11:33:55Z</time>
      </trkpt>
      <trkpt lat="43.37727" lon="6.63581">
        <ele>148</ele>
        <time>2022-10-09T11:33:56Z</time>
      </trkpt>
      <trkpt lat="43.37727" lon="6.63576">
        <ele>148.1</ele>
        <time>2022-10-09T11:33:57Z</time>
      </trkpt>
      <trkpt lat="43.37727" lon="6.63572">
        <ele>148.1</ele>
        <time>2022-10-09T11:33:58Z</time>
      </trkpt>
      <trkpt lat="43.37727" lon="6.63567">
        <ele>148.2</ele>
        <time>2022-10-09T11:33:59Z</time>
      </trkpt>
      <trkpt lat="43.37726" lon="6.63563">
        <ele>148.2</ele>
        <time>2022-10-09T11:34:00Z</time>
      </trkpt>
      <trkpt lat="43.37727" lon="6.63541">
        <ele>148.4</ele>
        <time>2022-10-09T11:34:05Z</time>
      </trkpt>
      <trkpt lat="43.37727" lon="6.63531">
        <ele>148.5</ele>
        <time>2022-10-09T11:34:07Z</time>
      </trkpt>
      <trkpt lat="43.37728" lon="6.63527">
        <ele>148.5</ele>
        <time>2022-10-09T11:34:08Z</time>
      </trkpt>
      <trkpt lat="43.37731" lon="6.63513">
        <ele>148.6</ele>
        <time>2022-10-09T11:34:11Z</time>
      </trkpt>
      <trkpt lat="43.37732" lon="6.63509">
        <ele>148.6</ele>
        <time>2022-10-09T11:34:12Z</time>
      </trkpt>
      <trkpt lat="43.37733" lon="6.63505">
        <ele>148.7</ele>
        <time>2022-10-09T11:34:13Z</time>
      </trkpt>
      <trkpt lat="43.37738" lon="6.63476">
        <ele>149.1</ele>
        <time>2022-10-09T11:34:20Z</time>
      </trkpt>
      <trkpt lat="43.37738" lon="6.63472">
        <ele>149.2</ele>
        <time>2022-10-09T11:34:21Z</time>
      </trkpt>
      <trkpt lat="43.37738" lon="6.63468">
        <ele>149.3</ele>
        <time>2022-10-09T11:34:22Z</time>
      </trkpt>
      <trkpt lat="43.37739" lon="6.63464">
        <ele>149.4</ele>
        <time>2022-10-09T11:34:23Z</time>
      </trkpt>
      <trkpt lat="43.37739" lon="6.63461">
        <ele>149.5</ele>
        <time>2022-10-09T11:34:24Z</time>
      </trkpt>
      <trkpt lat="43.37739" lon="6.63458">
        <ele>149.6</ele>
        <time>2022-10-09T11:34:25Z</time>
      </trkpt>
      <trkpt lat="43.37739" lon="6.63455">
        <ele>149.8</ele>
        <time>2022-10-09T11:34:26Z</time>
      </trkpt>
      <trkpt lat="43.37738" lon="6.63452">
        <ele>149.9</ele>
        <time>2022-10-09T11:34:27Z</time>
      </trkpt>
      <trkpt lat="43.37738" lon="6.63449">
        <ele>150</ele>
        <time>2022-10-09T11:34:28Z</time>
      </trkpt>
      <trkpt lat="43.37737" lon="6.63443">
        <ele>150.3</ele>
        <time>2022-10-09T11:34:30Z</time>
      </trkpt>
      <trkpt lat="43.37736" lon="6.63441">
        <ele>150.5</ele>
        <time>2022-10-09T11:34:31Z</time>
      </trkpt>
      <trkpt lat="43.37736" lon="6.63438">
        <ele>150.7</ele>
        <time>2022-10-09T11:34:32Z</time>
      </trkpt>
      <trkpt lat="43.37735" lon="6.63436">
        <ele>150.9</ele>
        <time>2022-10-09T11:34:33Z</time>
      </trkpt>
      <trkpt lat="43.37734" lon="6.63434">
        <ele>151</ele>
        <time>2022-10-09T11:34:34Z</time>
      </trkpt>
      <trkpt lat="43.37733" lon="6.63432">
        <ele>151.2</ele>
        <time>2022-10-09T11:34:35Z</time>
      </trkpt>
      <trkpt lat="43.37732" lon="6.6343">
        <ele>151.4</ele>
        <time>2022-10-09T11:34:36Z</time>
      </trkpt>
      <trkpt lat="43.37731" lon="6.63428">
        <ele>151.6</ele>
        <time>2022-10-09T11:34:37Z</time>
      </trkpt>
      <trkpt lat="43.37729" lon="6.63426">
        <ele>151.8</ele>
        <time>2022-10-09T11:34:38Z</time>
      </trkpt>
      <trkpt lat="43.37729" lon="6.63424">
        <ele>151.9</ele>
        <time>2022-10-09T11:34:39Z</time>
      </trkpt>
      <trkpt lat="43.37728" lon="6.63422">
        <ele>152.1</ele>
        <time>2022-10-09T11:34:40Z</time>
      </trkpt>
      <trkpt lat="43.37727" lon="6.6342">
        <ele>152.3</ele>
        <time>2022-10-09T11:34:41Z</time>
      </trkpt>
      <trkpt lat="43.37726" lon="6.63418">
        <ele>152.4</ele>
        <time>2022-10-09T11:34:42Z</time>
      </trkpt>
      <trkpt lat="43.37726" lon="6.63416">
        <ele>152.6</ele>
        <time>2022-10-09T11:34:43Z</time>
      </trkpt>
      <trkpt lat="43.37725" lon="6.63414">
        <ele>152.8</ele>
        <time>2022-10-09T11:34:44Z</time>
      </trkpt>
      <trkpt lat="43.37725" lon="6.63412">
        <ele>153</ele>
        <time>2022-10-09T11:34:45Z</time>
      </trkpt>
      <trkpt lat="43.37724" lon="6.63409">
        <ele>153.1</ele>
        <time>2022-10-09T11:34:46Z</time>
      </trkpt>
      <trkpt lat="43.37723" lon="6.63407">
        <ele>153.3</ele>
        <time>2022-10-09T11:34:47Z</time>
      </trkpt>
      <trkpt lat="43.37723" lon="6.63406">
        <ele>153.4</ele>
        <time>2022-10-09T11:34:48Z</time>
      </trkpt>
      <trkpt lat="43.37722" lon="6.63404">
        <ele>153.6</ele>
        <time>2022-10-09T11:34:49Z</time>
      </trkpt>
      <trkpt lat="43.37722" lon="6.63402">
        <ele>153.7</ele>
        <time>2022-10-09T11:34:50Z</time>
      </trkpt>
      <trkpt lat="43.37721" lon="6.63401">
        <ele>153.8</ele>
        <time>2022-10-09T11:34:51Z</time>
      </trkpt>
      <trkpt lat="43.37721" lon="6.63399">
        <ele>154</ele>
        <time>2022-10-09T11:34:52Z</time>
      </trkpt>
      <trkpt lat="43.3772" lon="6.63397">
        <ele>154.1</ele>
        <time>2022-10-09T11:34:53Z</time>
      </trkpt>
      <trkpt lat="43.3772" lon="6.63395">
        <ele>154.3</ele>
        <time>2022-10-09T11:34:54Z</time>
      </trkpt>
      <trkpt lat="43.37719" lon="6.63393">
        <ele>154.4</ele>
        <time>2022-10-09T11:34:55Z</time>
      </trkpt>
      <trkpt lat="43.37719" lon="6.63392">
        <ele>154.5</ele>
        <time>2022-10-09T11:34:56Z</time>
      </trkpt>
      <trkpt lat="43.37718" lon="6.63389">
        <ele>154.7</ele>
        <time>2022-10-09T11:34:57Z</time>
      </trkpt>
      <trkpt lat="43.37718" lon="6.63386">
        <ele>154.9</ele>
        <time>2022-10-09T11:34:58Z</time>
      </trkpt>
      <trkpt lat="43.37717" lon="6.63383">
        <ele>155.1</ele>
        <time>2022-10-09T11:34:59Z</time>
      </trkpt>
      <trkpt lat="43.37716" lon="6.6338">
        <ele>155.3</ele>
        <time>2022-10-09T11:35:00Z</time>
      </trkpt>
      <trkpt lat="43.37715" lon="6.63378">
        <ele>155.4</ele>
        <time>2022-10-09T11:35:01Z</time>
      </trkpt>
      <trkpt lat="43.37715" lon="6.63376">
        <ele>155.5</ele>
        <time>2022-10-09T11:35:02Z</time>
      </trkpt>
      <trkpt lat="43.37714" lon="6.63374">
        <ele>155.7</ele>
        <time>2022-10-09T11:35:03Z</time>
      </trkpt>
      <trkpt lat="43.37713" lon="6.63373">
        <ele>155.8</ele>
        <time>2022-10-09T11:35:04Z</time>
      </trkpt>
      <trkpt lat="43.37711" lon="6.63371">
        <ele>157</ele>
        <time>2022-10-09T11:35:05Z</time>
      </trkpt>
      <trkpt lat="43.3771" lon="6.6337">
        <ele>157.1</ele>
        <time>2022-10-09T11:35:06Z</time>
      </trkpt>
      <trkpt lat="43.37709" lon="6.63369">
        <ele>157.2</ele>
        <time>2022-10-09T11:35:07Z</time>
      </trkpt>
      <trkpt lat="43.37708" lon="6.63368">
        <ele>157.3</ele>
        <time>2022-10-09T11:35:08Z</time>
      </trkpt>
      <trkpt lat="43.37706" lon="6.63367">
        <ele>157.4</ele>
        <time>2022-10-09T11:35:09Z</time>
      </trkpt>
      <trkpt lat="43.37705" lon="6.63367">
        <ele>157.6</ele>
        <time>2022-10-09T11:35:10Z</time>
      </trkpt>
      <trkpt lat="43.37704" lon="6.63366">
        <ele>157.7</ele>
        <time>2022-10-09T11:35:11Z</time>
      </trkpt>
      <trkpt lat="43.37703" lon="6.63366">
        <ele>157.7</ele>
        <time>2022-10-09T11:35:12Z</time>
      </trkpt>
      <trkpt lat="43.37701" lon="6.63366">
        <ele>157.9</ele>
        <time>2022-10-09T11:35:13Z</time>
      </trkpt>
      <trkpt lat="43.377" lon="6.63366">
        <ele>158</ele>
        <time>2022-10-09T11:35:14Z</time>
      </trkpt>
      <trkpt lat="43.37699" lon="6.63365">
        <ele>158.1</ele>
        <time>2022-10-09T11:35:15Z</time>
      </trkpt>
      <trkpt lat="43.37697" lon="6.63365">
        <ele>158.2</ele>
        <time>2022-10-09T11:35:16Z</time>
      </trkpt>
      <trkpt lat="43.37696" lon="6.63364">
        <ele>158.3</ele>
        <time>2022-10-09T11:35:17Z</time>
      </trkpt>
      <trkpt lat="43.37695" lon="6.63364">
        <ele>158.4</ele>
        <time>2022-10-09T11:35:18Z</time>
      </trkpt>
      <trkpt lat="43.37694" lon="6.63364">
        <ele>158.5</ele>
        <time>2022-10-09T11:35:19Z</time>
      </trkpt>
      <trkpt lat="43.37693" lon="6.63364">
        <ele>158.6</ele>
        <time>2022-10-09T11:35:20Z</time>
      </trkpt>
      <trkpt lat="43.37692" lon="6.63364">
        <ele>158.7</ele>
        <time>2022-10-09T11:35:21Z</time>
      </trkpt>
      <trkpt lat="43.37691" lon="6.63364">
        <ele>158.8</ele>
        <time>2022-10-09T11:35:22Z</time>
      </trkpt>
      <trkpt lat="43.37689" lon="6.63364">
        <ele>158.9</ele>
        <time>2022-10-09T11:35:23Z</time>
      </trkpt>
      <trkpt lat="43.37688" lon="6.63364">
        <ele>159.1</ele>
        <time>2022-10-09T11:35:24Z</time>
      </trkpt>
      <trkpt lat="43.37686" lon="6.63364">
        <ele>159.2</ele>
        <time>2022-10-09T11:35:25Z</time>
      </trkpt>
      <trkpt lat="43.37685" lon="6.63364">
        <ele>159.3</ele>
        <time>2022-10-09T11:35:26Z</time>
      </trkpt>
      <trkpt lat="43.37683" lon="6.63363">
        <ele>159.4</ele>
        <time>2022-10-09T11:35:27Z</time>
      </trkpt>
      <trkpt lat="43.37682" lon="6.63364">
        <ele>159.6</ele>
        <time>2022-10-09T11:35:28Z</time>
      </trkpt>
      <trkpt lat="43.3768" lon="6.63364">
        <ele>159.7</ele>
        <time>2022-10-09T11:35:29Z</time>
      </trkpt>
      <trkpt lat="43.37679" lon="6.63364">
        <ele>159.8</ele>
        <time>2022-10-09T11:35:30Z</time>
      </trkpt>
      <trkpt lat="43.37677" lon="6.63364">
        <ele>159.9</ele>
        <time>2022-10-09T11:35:31Z</time>
      </trkpt>
      <trkpt lat="43.37676" lon="6.63363">
        <ele>160.1</ele>
        <time>2022-10-09T11:35:32Z</time>
      </trkpt>
      <trkpt lat="43.37674" lon="6.63363">
        <ele>160.2</ele>
        <time>2022-10-09T11:35:33Z</time>
      </trkpt>
      <trkpt lat="43.37673" lon="6.63363">
        <ele>160.3</ele>
        <time>2022-10-09T11:35:34Z</time>
      </trkpt>
      <trkpt lat="43.37671" lon="6.63364">
        <ele>160.4</ele>
        <time>2022-10-09T11:35:35Z</time>
      </trkpt>
      <trkpt lat="43.37669" lon="6.63364">
        <ele>160.6</ele>
        <time>2022-10-09T11:35:36Z</time>
      </trkpt>
      <trkpt lat="43.37668" lon="6.63364">
        <ele>160.7</ele>
        <time>2022-10-09T11:35:37Z</time>
      </trkpt>
      <trkpt lat="43.37667" lon="6.63364">
        <ele>160.8</ele>
        <time>2022-10-09T11:35:38Z</time>
      </trkpt>
      <trkpt lat="43.37665" lon="6.63365">
        <ele>160.9</ele>
        <time>2022-10-09T11:35:39Z</time>
      </trkpt>
      <trkpt lat="43.37664" lon="6.63365">
        <ele>161</ele>
        <time>2022-10-09T11:35:40Z</time>
      </trkpt>
      <trkpt lat="43.37662" lon="6.63366">
        <ele>161.1</ele>
        <time>2022-10-09T11:35:41Z</time>
      </trkpt>
      <trkpt lat="43.37661" lon="6.63366">
        <ele>161.2</ele>
        <time>2022-10-09T11:35:42Z</time>
      </trkpt>
      <trkpt lat="43.37659" lon="6.63366">
        <ele>161.3</ele>
        <time>2022-10-09T11:35:43Z</time>
      </trkpt>
      <trkpt lat="43.37657" lon="6.63367">
        <ele>161.4</ele>
        <time>2022-10-09T11:35:44Z</time>
      </trkpt>
      <trkpt lat="43.37654" lon="6.63368">
        <ele>161.6</ele>
        <time>2022-10-09T11:35:46Z</time>
      </trkpt>
      <trkpt lat="43.37653" lon="6.6337">
        <ele>161.7</ele>
        <time>2022-10-09T11:35:47Z</time>
      </trkpt>
      <trkpt lat="43.37651" lon="6.63371">
        <ele>161.8</ele>
        <time>2022-10-09T11:35:48Z</time>
      </trkpt>
      <trkpt lat="43.3765" lon="6.63372">
        <ele>161.9</ele>
        <time>2022-10-09T11:35:49Z</time>
      </trkpt>
      <trkpt lat="43.37649" lon="6.63374">
        <ele>164.2</ele>
        <time>2022-10-09T11:35:50Z</time>
      </trkpt>
      <trkpt lat="43.37648" lon="6.63376">
        <ele>164.4</ele>
        <time>2022-10-09T11:35:51Z</time>
      </trkpt>
      <trkpt lat="43.37648" lon="6.63377">
        <ele>164.5</ele>
        <time>2022-10-09T11:35:52Z</time>
      </trkpt>
      <trkpt lat="43.37648" lon="6.63379">
        <ele>164.7</ele>
        <time>2022-10-09T11:35:53Z</time>
      </trkpt>
      <trkpt lat="43.37648" lon="6.6338">
        <ele>164.8</ele>
        <time>2022-10-09T11:35:54Z</time>
      </trkpt>
      <trkpt lat="43.37649" lon="6.63382">
        <ele>164.9</ele>
        <time>2022-10-09T11:35:55Z</time>
      </trkpt>
      <trkpt lat="43.37649" lon="6.63383">
        <ele>165</ele>
        <time>2022-10-09T11:35:56Z</time>
      </trkpt>
      <trkpt lat="43.3765" lon="6.63385">
        <ele>165.2</ele>
        <time>2022-10-09T11:35:57Z</time>
      </trkpt>
      <trkpt lat="43.37651" lon="6.63386">
        <ele>165.3</ele>
        <time>2022-10-09T11:35:58Z</time>
      </trkpt>
      <trkpt lat="43.37652" lon="6.63387">
        <ele>165.4</ele>
        <time>2022-10-09T11:35:59Z</time>
      </trkpt>
      <trkpt lat="43.37653" lon="6.63388">
        <ele>165.6</ele>
        <time>2022-10-09T11:36:00Z</time>
      </trkpt>
      <trkpt lat="43.37654" lon="6.63389">
        <ele>165.7</ele>
        <time>2022-10-09T11:36:01Z</time>
      </trkpt>
      <trkpt lat="43.37655" lon="6.6339">
        <ele>165.8</ele>
        <time>2022-10-09T11:36:02Z</time>
      </trkpt>
      <trkpt lat="43.37656" lon="6.63391">
        <ele>165.9</ele>
        <time>2022-10-09T11:36:03Z</time>
      </trkpt>
      <trkpt lat="43.37657" lon="6.63391">
        <ele>166</ele>
        <time>2022-10-09T11:36:04Z</time>
      </trkpt>
      <trkpt lat="43.37658" lon="6.63392">
        <ele>166.1</ele>
        <time>2022-10-09T11:36:05Z</time>
      </trkpt>
      <trkpt lat="43.37659" lon="6.63394">
        <ele>166.2</ele>
        <time>2022-10-09T11:36:06Z</time>
      </trkpt>
      <trkpt lat="43.3766" lon="6.63395">
        <ele>166.3</ele>
        <time>2022-10-09T11:36:07Z</time>
      </trkpt>
      <trkpt lat="43.3766" lon="6.63395">
        <ele>166.4</ele>
        <time>2022-10-09T11:36:08Z</time>
      </trkpt>
      <trkpt lat="43.37661" lon="6.63396">
        <ele>166.5</ele>
        <time>2022-10-09T11:36:09Z</time>
      </trkpt>
      <trkpt lat="43.37662" lon="6.63397">
        <ele>166.6</ele>
        <time>2022-10-09T11:36:10Z</time>
      </trkpt>
      <trkpt lat="43.37663" lon="6.63398">
        <ele>166.6</ele>
        <time>2022-10-09T11:36:11Z</time>
      </trkpt>
      <trkpt lat="43.37664" lon="6.634">
        <ele>166.8</ele>
        <time>2022-10-09T11:36:12Z</time>
      </trkpt>
      <trkpt lat="43.37665" lon="6.63402">
        <ele>166.9</ele>
        <time>2022-10-09T11:36:13Z</time>
      </trkpt>
      <trkpt lat="43.37665" lon="6.63403">
        <ele>167</ele>
        <time>2022-10-09T11:36:14Z</time>
      </trkpt>
      <trkpt lat="43.37666" lon="6.63404">
        <ele>167.1</ele>
        <time>2022-10-09T11:36:15Z</time>
      </trkpt>
      <trkpt lat="43.37667" lon="6.63405">
        <ele>167.1</ele>
        <time>2022-10-09T11:36:16Z</time>
      </trkpt>
      <trkpt lat="43.37668" lon="6.63406">
        <ele>167.2</ele>
        <time>2022-10-09T11:36:17Z</time>
      </trkpt>
      <trkpt lat="43.37668" lon="6.63407">
        <ele>167.2</ele>
        <time>2022-10-09T11:36:19Z</time>
      </trkpt>
      <trkpt lat="43.37679" lon="6.63477">
        <ele>170.7</ele>
        <time>2022-10-09T11:38:20Z</time>
      </trkpt>
      <trkpt lat="43.37679" lon="6.6348">
        <ele>170.7</ele>
        <time>2022-10-09T11:38:21Z</time>
      </trkpt>
      <trkpt lat="43.37678" lon="6.63485">
        <ele>170.9</ele>
        <time>2022-10-09T11:38:23Z</time>
      </trkpt>
      <trkpt lat="43.37675" lon="6.63496">
        <ele>171</ele>
        <time>2022-10-09T11:38:27Z</time>
      </trkpt>
      <trkpt lat="43.37675" lon="6.63498">
        <ele>171.1</ele>
        <time>2022-10-09T11:38:28Z</time>
      </trkpt>
      <trkpt lat="43.37675" lon="6.635">
        <ele>171.1</ele>
        <time>2022-10-09T11:38:29Z</time>
      </trkpt>
      <trkpt lat="43.37674" lon="6.63502">
        <ele>171.1</ele>
        <time>2022-10-09T11:38:30Z</time>
      </trkpt>
      <trkpt lat="43.37671" lon="6.6351">
        <ele>171.2</ele>
        <time>2022-10-09T11:38:33Z</time>
      </trkpt>
      <trkpt lat="43.37666" lon="6.6352">
        <ele>171.3</ele>
        <time>2022-10-09T11:38:37Z</time>
      </trkpt>
      <trkpt lat="43.37663" lon="6.63525">
        <ele>171.4</ele>
        <time>2022-10-09T11:38:39Z</time>
      </trkpt>
      <trkpt lat="43.37662" lon="6.63527">
        <ele>171.4</ele>
        <time>2022-10-09T11:38:40Z</time>
      </trkpt>
      <trkpt lat="43.37661" lon="6.63529">
        <ele>171.5</ele>
        <time>2022-10-09T11:38:41Z</time>
      </trkpt>
      <trkpt lat="43.37656" lon="6.63536">
        <ele>171.6</ele>
        <time>2022-10-09T11:38:44Z</time>
      </trkpt>
      <trkpt lat="43.37653" lon="6.63541">
        <ele>171.7</ele>
        <time>2022-10-09T11:38:46Z</time>
      </trkpt>
      <trkpt lat="43.37652" lon="6.63544">
        <ele>171.8</ele>
        <time>2022-10-09T11:38:47Z</time>
      </trkpt>
      <trkpt lat="43.37651" lon="6.63546">
        <ele>171.9</ele>
        <time>2022-10-09T11:38:48Z</time>
      </trkpt>
      <trkpt lat="43.3765" lon="6.63548">
        <ele>171.9</ele>
        <time>2022-10-09T11:38:49Z</time>
      </trkpt>
      <trkpt lat="43.37648" lon="6.63553">
        <ele>172.1</ele>
        <time>2022-10-09T11:38:51Z</time>
      </trkpt>
      <trkpt lat="43.37647" lon="6.63555">
        <ele>172.1</ele>
        <time>2022-10-09T11:38:52Z</time>
      </trkpt>
      <trkpt lat="43.37643" lon="6.63561">
        <ele>172.4</ele>
        <time>2022-10-09T11:38:55Z</time>
      </trkpt>
      <trkpt lat="43.37642" lon="6.63563">
        <ele>172.5</ele>
        <time>2022-10-09T11:38:56Z</time>
      </trkpt>
      <trkpt lat="43.37639" lon="6.63567">
        <ele>172.7</ele>
        <time>2022-10-09T11:38:58Z</time>
      </trkpt>
      <trkpt lat="43.37638" lon="6.63568">
        <ele>172.8</ele>
        <time>2022-10-09T11:38:59Z</time>
      </trkpt>
      <trkpt lat="43.37635" lon="6.63574">
        <ele>173.1</ele>
        <time>2022-10-09T11:39:02Z</time>
      </trkpt>
      <trkpt lat="43.37634" lon="6.63576">
        <ele>173.2</ele>
        <time>2022-10-09T11:39:03Z</time>
      </trkpt>
      <trkpt lat="43.37632" lon="6.63577">
        <ele>173.3</ele>
        <time>2022-10-09T11:39:04Z</time>
      </trkpt>
      <trkpt lat="43.37629" lon="6.63582">
        <ele>173.6</ele>
        <time>2022-10-09T11:39:07Z</time>
      </trkpt>
      <trkpt lat="43.37628" lon="6.63583">
        <ele>173.6</ele>
        <time>2022-10-09T11:39:08Z</time>
      </trkpt>
      <trkpt lat="43.37625" lon="6.63585">
        <ele>173.8</ele>
        <time>2022-10-09T11:39:10Z</time>
      </trkpt>
      <trkpt lat="43.37617" lon="6.63594">
        <ele>174.4</ele>
        <time>2022-10-09T11:39:16Z</time>
      </trkpt>
      <trkpt lat="43.37613" lon="6.636">
        <ele>174.8</ele>
        <time>2022-10-09T11:39:19Z</time>
      </trkpt>
      <trkpt lat="43.37612" lon="6.63601">
        <ele>174.9</ele>
        <time>2022-10-09T11:39:20Z</time>
      </trkpt>
      <trkpt lat="43.37608" lon="6.6361">
        <ele>175.5</ele>
        <time>2022-10-09T11:39:24Z</time>
      </trkpt>
      <trkpt lat="43.37608" lon="6.63612">
        <ele>175.6</ele>
        <time>2022-10-09T11:39:25Z</time>
      </trkpt>
      <trkpt lat="43.37608" lon="6.63613">
        <ele>175.7</ele>
        <time>2022-10-09T11:39:26Z</time>
      </trkpt>
      <trkpt lat="43.37607" lon="6.63614">
        <ele>175.8</ele>
        <time>2022-10-09T11:39:28Z</time>
      </trkpt>
      <trkpt lat="43.37622" lon="6.63675">
        <ele>181.5</ele>
        <time>2022-10-09T11:40:20Z</time>
      </trkpt>
      <trkpt lat="43.37622" lon="6.63677">
        <ele>181.6</ele>
        <time>2022-10-09T11:40:21Z</time>
      </trkpt>
      <trkpt lat="43.37623" lon="6.63678">
        <ele>181.7</ele>
        <time>2022-10-09T11:40:22Z</time>
      </trkpt>
      <trkpt lat="43.37624" lon="6.6368">
        <ele>181.8</ele>
        <time>2022-10-09T11:40:23Z</time>
      </trkpt>
      <trkpt lat="43.37624" lon="6.63681">
        <ele>181.9</ele>
        <time>2022-10-09T11:40:24Z</time>
      </trkpt>
      <trkpt lat="43.37624" lon="6.63683">
        <ele>181.9</ele>
        <time>2022-10-09T11:40:25Z</time>
      </trkpt>
      <trkpt lat="43.37625" lon="6.63684">
        <ele>182</ele>
        <time>2022-10-09T11:40:26Z</time>
      </trkpt>
      <trkpt lat="43.37626" lon="6.63686">
        <ele>182.1</ele>
        <time>2022-10-09T11:40:27Z</time>
      </trkpt>
      <trkpt lat="43.37626" lon="6.63687">
        <ele>182.2</ele>
        <time>2022-10-09T11:40:28Z</time>
      </trkpt>
      <trkpt lat="43.37627" lon="6.63688">
        <ele>182.3</ele>
        <time>2022-10-09T11:40:29Z</time>
      </trkpt>
      <trkpt lat="43.37628" lon="6.63689">
        <ele>182.3</ele>
        <time>2022-10-09T11:40:30Z</time>
      </trkpt>
      <trkpt lat="43.37628" lon="6.63691">
        <ele>182.4</ele>
        <time>2022-10-09T11:40:31Z</time>
      </trkpt>
      <trkpt lat="43.37629" lon="6.63692">
        <ele>182.5</ele>
        <time>2022-10-09T11:40:32Z</time>
      </trkpt>
      <trkpt lat="43.3763" lon="6.63694">
        <ele>182.6</ele>
        <time>2022-10-09T11:40:33Z</time>
      </trkpt>
      <trkpt lat="43.37631" lon="6.63697">
        <ele>182.9</ele>
        <time>2022-10-09T11:40:35Z</time>
      </trkpt>
      <trkpt lat="43.37632" lon="6.63698">
        <ele>183</ele>
        <time>2022-10-09T11:40:36Z</time>
      </trkpt>
      <trkpt lat="43.37633" lon="6.63702">
        <ele>183.2</ele>
        <time>2022-10-09T11:40:38Z</time>
      </trkpt>
      <trkpt lat="43.37633" lon="6.63703">
        <ele>183.4</ele>
        <time>2022-10-09T11:40:39Z</time>
      </trkpt>
      <trkpt lat="43.37634" lon="6.63705">
        <ele>183.5</ele>
        <time>2022-10-09T11:40:40Z</time>
      </trkpt>
      <trkpt lat="43.37634" lon="6.63706">
        <ele>183.6</ele>
        <time>2022-10-09T11:40:41Z</time>
      </trkpt>
      <trkpt lat="43.37635" lon="6.63709">
        <ele>183.9</ele>
        <time>2022-10-09T11:40:43Z</time>
      </trkpt>
      <trkpt lat="43.37635" lon="6.6371">
        <ele>184</ele>
        <time>2022-10-09T11:40:44Z</time>
      </trkpt>
      <trkpt lat="43.37635" lon="6.63711">
        <ele>184.1</ele>
        <time>2022-10-09T11:40:45Z</time>
      </trkpt>
      <trkpt lat="43.37635" lon="6.63713">
        <ele>184.2</ele>
        <time>2022-10-09T11:40:46Z</time>
      </trkpt>
      <trkpt lat="43.37636" lon="6.63714">
        <ele>184.4</ele>
        <time>2022-10-09T11:40:47Z</time>
      </trkpt>
      <trkpt lat="43.37636" lon="6.63715">
        <ele>184.5</ele>
        <time>2022-10-09T11:40:48Z</time>
      </trkpt>
      <trkpt lat="43.37636" lon="6.63717">
        <ele>184.7</ele>
        <time>2022-10-09T11:40:49Z</time>
      </trkpt>
      <trkpt lat="43.37636" lon="6.63718">
        <ele>184.8</ele>
        <time>2022-10-09T11:40:50Z</time>
      </trkpt>
      <trkpt lat="43.37637" lon="6.63719">
        <ele>185</ele>
        <time>2022-10-09T11:40:51Z</time>
      </trkpt>
      <trkpt lat="43.37637" lon="6.63721">
        <ele>185.1</ele>
        <time>2022-10-09T11:40:52Z</time>
      </trkpt>
      <trkpt lat="43.37637" lon="6.63722">
        <ele>185.2</ele>
        <time>2022-10-09T11:40:53Z</time>
      </trkpt>
      <trkpt lat="43.37637" lon="6.63723">
        <ele>185.4</ele>
        <time>2022-10-09T11:40:54Z</time>
      </trkpt>
      <trkpt lat="43.37637" lon="6.63725">
        <ele>185.5</ele>
        <time>2022-10-09T11:40:55Z</time>
      </trkpt>
      <trkpt lat="43.37638" lon="6.63726">
        <ele>185.7</ele>
        <time>2022-10-09T11:40:56Z</time>
      </trkpt>
      <trkpt lat="43.37637" lon="6.63727">
        <ele>185.8</ele>
        <time>2022-10-09T11:40:57Z</time>
      </trkpt>
      <trkpt lat="43.37637" lon="6.63728">
        <ele>185.9</ele>
        <time>2022-10-09T11:40:58Z</time>
      </trkpt>
      <trkpt lat="43.37637" lon="6.63729">
        <ele>186.1</ele>
        <time>2022-10-09T11:40:59Z</time>
      </trkpt>
      <trkpt lat="43.37637" lon="6.6373">
        <ele>186.2</ele>
        <time>2022-10-09T11:41:00Z</time>
      </trkpt>
      <trkpt lat="43.37637" lon="6.63732">
        <ele>186.3</ele>
        <time>2022-10-09T11:41:01Z</time>
      </trkpt>
      <trkpt lat="43.37637" lon="6.63733">
        <ele>186.4</ele>
        <time>2022-10-09T11:41:02Z</time>
      </trkpt>
      <trkpt lat="43.37636" lon="6.63734">
        <ele>186.6</ele>
        <time>2022-10-09T11:41:03Z</time>
      </trkpt>
      <trkpt lat="43.37636" lon="6.63736">
        <ele>186.8</ele>
        <time>2022-10-09T11:41:04Z</time>
      </trkpt>
      <trkpt lat="43.37635" lon="6.63738">
        <ele>186.9</ele>
        <time>2022-10-09T11:41:05Z</time>
      </trkpt>
      <trkpt lat="43.37634" lon="6.63739">
        <ele>187.1</ele>
        <time>2022-10-09T11:41:06Z</time>
      </trkpt>
      <trkpt lat="43.37633" lon="6.6374">
        <ele>187.2</ele>
        <time>2022-10-09T11:41:07Z</time>
      </trkpt>
      <trkpt lat="43.37633" lon="6.63742">
        <ele>187.4</ele>
        <time>2022-10-09T11:41:08Z</time>
      </trkpt>
      <trkpt lat="43.37632" lon="6.63743">
        <ele>187.5</ele>
        <time>2022-10-09T11:41:09Z</time>
      </trkpt>
      <trkpt lat="43.37631" lon="6.63744">
        <ele>187.6</ele>
        <time>2022-10-09T11:41:10Z</time>
      </trkpt>
      <trkpt lat="43.3763" lon="6.63746">
        <ele>187.7</ele>
        <time>2022-10-09T11:41:11Z</time>
      </trkpt>
      <trkpt lat="43.3763" lon="6.63747">
        <ele>187.8</ele>
        <time>2022-10-09T11:41:12Z</time>
      </trkpt>
      <trkpt lat="43.37629" lon="6.63748">
        <ele>187.9</ele>
        <time>2022-10-09T11:41:13Z</time>
      </trkpt>
      <trkpt lat="43.37629" lon="6.63749">
        <ele>188</ele>
        <time>2022-10-09T11:41:14Z</time>
      </trkpt>
      <trkpt lat="43.37628" lon="6.6375">
        <ele>188.1</ele>
        <time>2022-10-09T11:41:15Z</time>
      </trkpt>
      <trkpt lat="43.37628" lon="6.63752">
        <ele>188.2</ele>
        <time>2022-10-09T11:41:16Z</time>
      </trkpt>
      <trkpt lat="43.37627" lon="6.63754">
        <ele>188.4</ele>
        <time>2022-10-09T11:41:17Z</time>
      </trkpt>
      <trkpt lat="43.37627" lon="6.63756">
        <ele>188.5</ele>
        <time>2022-10-09T11:41:18Z</time>
      </trkpt>
      <trkpt lat="43.37627" lon="6.63758">
        <ele>188.6</ele>
        <time>2022-10-09T11:41:19Z</time>
      </trkpt>
      <trkpt lat="43.37627" lon="6.63759">
        <ele>188.7</ele>
        <time>2022-10-09T11:41:20Z</time>
      </trkpt>
      <trkpt lat="43.37627" lon="6.6376">
        <ele>188.8</ele>
        <time>2022-10-09T11:41:21Z</time>
      </trkpt>
      <trkpt lat="43.37627" lon="6.63761">
        <ele>188.9</ele>
        <time>2022-10-09T11:41:22Z</time>
      </trkpt>
      <trkpt lat="43.37628" lon="6.63762">
        <ele>189</ele>
        <time>2022-10-09T11:41:23Z</time>
      </trkpt>
      <trkpt lat="43.37629" lon="6.63763">
        <ele>189.1</ele>
        <time>2022-10-09T11:41:24Z</time>
      </trkpt>
      <trkpt lat="43.3763" lon="6.63765">
        <ele>189.2</ele>
        <time>2022-10-09T11:41:25Z</time>
      </trkpt>
      <trkpt lat="43.3763" lon="6.63766">
        <ele>189.3</ele>
        <time>2022-10-09T11:41:26Z</time>
      </trkpt>
      <trkpt lat="43.37631" lon="6.63767">
        <ele>189.4</ele>
        <time>2022-10-09T11:41:27Z</time>
      </trkpt>
      <trkpt lat="43.37631" lon="6.63768">
        <ele>189.5</ele>
        <time>2022-10-09T11:41:28Z</time>
      </trkpt>
      <trkpt lat="43.37632" lon="6.6377">
        <ele>189.7</ele>
        <time>2022-10-09T11:41:29Z</time>
      </trkpt>
      <trkpt lat="43.37632" lon="6.63771">
        <ele>189.8</ele>
        <time>2022-10-09T11:41:30Z</time>
      </trkpt>
      <trkpt lat="43.37633" lon="6.63773">
        <ele>189.9</ele>
        <time>2022-10-09T11:41:31Z</time>
      </trkpt>
      <trkpt lat="43.37633" lon="6.63774">
        <ele>190.1</ele>
        <time>2022-10-09T11:41:32Z</time>
      </trkpt>
      <trkpt lat="43.37634" lon="6.63775">
        <ele>190.2</ele>
        <time>2022-10-09T11:41:33Z</time>
      </trkpt>
      <trkpt lat="43.37634" lon="6.63777">
        <ele>190.3</ele>
        <time>2022-10-09T11:41:34Z</time>
      </trkpt>
      <trkpt lat="43.37635" lon="6.63778">
        <ele>190.4</ele>
        <time>2022-10-09T11:41:35Z</time>
      </trkpt>
      <trkpt lat="43.37635" lon="6.63779">
        <ele>190.5</ele>
        <time>2022-10-09T11:41:36Z</time>
      </trkpt>
      <trkpt lat="43.37635" lon="6.63781">
        <ele>190.6</ele>
        <time>2022-10-09T11:41:37Z</time>
      </trkpt>
      <trkpt lat="43.37635" lon="6.63781">
        <ele>190.7</ele>
        <time>2022-10-09T11:41:39Z</time>
      </trkpt>
      <trkpt lat="43.37698" lon="6.63931">
        <ele>205.2</ele>
        <time>2022-10-09T11:45:48Z</time>
      </trkpt>
      <trkpt lat="43.37699" lon="6.63932">
        <ele>205.2</ele>
        <time>2022-10-09T11:45:49Z</time>
      </trkpt>
      <trkpt lat="43.377" lon="6.63933">
        <ele>205.1</ele>
        <time>2022-10-09T11:45:50Z</time>
      </trkpt>
      <trkpt lat="43.37702" lon="6.63933">
        <ele>205</ele>
        <time>2022-10-09T11:45:51Z</time>
      </trkpt>
      <trkpt lat="43.37703" lon="6.63935">
        <ele>204.9</ele>
        <time>2022-10-09T11:45:52Z</time>
      </trkpt>
      <trkpt lat="43.37706" lon="6.63939">
        <ele>204.7</ele>
        <time>2022-10-09T11:45:54Z</time>
      </trkpt>
      <trkpt lat="43.37709" lon="6.63941">
        <ele>204.6</ele>
        <time>2022-10-09T11:45:55Z</time>
      </trkpt>
      <trkpt lat="43.37718" lon="6.63942">
        <ele>204</ele>
        <time>2022-10-09T11:45:58Z</time>
      </trkpt>
      <trkpt lat="43.37721" lon="6.63943">
        <ele>203.7</ele>
        <time>2022-10-09T11:45:59Z</time>
      </trkpt>
      <trkpt lat="43.37727" lon="6.63943">
        <ele>203.1</ele>
        <time>2022-10-09T11:46:01Z</time>
      </trkpt>
      <trkpt lat="43.3773" lon="6.63944">
        <ele>202.9</ele>
        <time>2022-10-09T11:46:02Z</time>
      </trkpt>
      <trkpt lat="43.37732" lon="6.63944">
        <ele>202.6</ele>
        <time>2022-10-09T11:46:03Z</time>
      </trkpt>
      <trkpt lat="43.37736" lon="6.63946">
        <ele>202.1</ele>
        <time>2022-10-09T11:46:05Z</time>
      </trkpt>
      <trkpt lat="43.37738" lon="6.63948">
        <ele>201.8</ele>
        <time>2022-10-09T11:46:06Z</time>
      </trkpt>
      <trkpt lat="43.37742" lon="6.63951">
        <ele>201.1</ele>
        <time>2022-10-09T11:46:08Z</time>
      </trkpt>
      <trkpt lat="43.37749" lon="6.63955">
        <ele>200.3</ele>
        <time>2022-10-09T11:46:11Z</time>
      </trkpt>
      <trkpt lat="43.3775" lon="6.63958">
        <ele>199.7</ele>
        <time>2022-10-09T11:46:12Z</time>
      </trkpt>
      <trkpt lat="43.3775" lon="6.63962">
        <ele>199.1</ele>
        <time>2022-10-09T11:46:13Z</time>
      </trkpt>
      <trkpt lat="43.37745" lon="6.63969">
        <ele>197.7</ele>
        <time>2022-10-09T11:46:15Z</time>
      </trkpt>
      <trkpt lat="43.37743" lon="6.63972">
        <ele>197</ele>
        <time>2022-10-09T11:46:16Z</time>
      </trkpt>
      <trkpt lat="43.37741" lon="6.63977">
        <ele>196.4</ele>
        <time>2022-10-09T11:46:17Z</time>
      </trkpt>
      <trkpt lat="43.37735" lon="6.6399">
        <ele>194.7</ele>
        <time>2022-10-09T11:46:20Z</time>
      </trkpt>
      <trkpt lat="43.37727" lon="6.63998">
        <ele>193.8</ele>
        <time>2022-10-09T11:46:22Z</time>
      </trkpt>
      <trkpt lat="43.37724" lon="6.64002">
        <ele>193.5</ele>
        <time>2022-10-09T11:46:23Z</time>
      </trkpt>
      <trkpt lat="43.3772" lon="6.64004">
        <ele>193.3</ele>
        <time>2022-10-09T11:46:24Z</time>
      </trkpt>
      <trkpt lat="43.37716" lon="6.64006">
        <ele>193.2</ele>
        <time>2022-10-09T11:46:25Z</time>
      </trkpt>
      <trkpt lat="43.37709" lon="6.64009">
        <ele>192.9</ele>
        <time>2022-10-09T11:46:27Z</time>
      </trkpt>
      <trkpt lat="43.37706" lon="6.64009">
        <ele>192.9</ele>
        <time>2022-10-09T11:46:28Z</time>
      </trkpt>
      <trkpt lat="43.37703" lon="6.6401">
        <ele>192.8</ele>
        <time>2022-10-09T11:46:29Z</time>
      </trkpt>
      <trkpt lat="43.37701" lon="6.64011">
        <ele>192.8</ele>
        <time>2022-10-09T11:46:30Z</time>
      </trkpt>
      <trkpt lat="43.37684" lon="6.64022">
        <ele>192.3</ele>
        <time>2022-10-09T11:46:36Z</time>
      </trkpt>
      <trkpt lat="43.37682" lon="6.64023">
        <ele>192.2</ele>
        <time>2022-10-09T11:46:37Z</time>
      </trkpt>
      <trkpt lat="43.3768" lon="6.64024">
        <ele>192.1</ele>
        <time>2022-10-09T11:46:38Z</time>
      </trkpt>
      <trkpt lat="43.37678" lon="6.64025">
        <ele>191.9</ele>
        <time>2022-10-09T11:46:39Z</time>
      </trkpt>
      <trkpt lat="43.37677" lon="6.64025">
        <ele>191.8</ele>
        <time>2022-10-09T11:46:40Z</time>
      </trkpt>
      <trkpt lat="43.37677" lon="6.64026">
        <ele>191.8</ele>
        <time>2022-10-09T11:46:41Z</time>
      </trkpt>
      <trkpt lat="43.37676" lon="6.64026">
        <ele>191.7</ele>
        <time>2022-10-09T11:46:43Z</time>
      </trkpt>
      <trkpt lat="43.37658" lon="6.64087">
        <ele>181.4</ele>
        <time>2022-10-09T11:49:42Z</time>
      </trkpt>
      <trkpt lat="43.37657" lon="6.64089">
        <ele>181.2</ele>
        <time>2022-10-09T11:49:43Z</time>
      </trkpt>
      <trkpt lat="43.37656" lon="6.6409">
        <ele>181.1</ele>
        <time>2022-10-09T11:49:44Z</time>
      </trkpt>
      <trkpt lat="43.37655" lon="6.64091">
        <ele>180.9</ele>
        <time>2022-10-09T11:49:45Z</time>
      </trkpt>
      <trkpt lat="43.37652" lon="6.64093">
        <ele>180.6</ele>
        <time>2022-10-09T11:49:47Z</time>
      </trkpt>
      <trkpt lat="43.37651" lon="6.64094">
        <ele>180.4</ele>
        <time>2022-10-09T11:49:48Z</time>
      </trkpt>
      <trkpt lat="43.37649" lon="6.64097">
        <ele>180.1</ele>
        <time>2022-10-09T11:49:50Z</time>
      </trkpt>
      <trkpt lat="43.37648" lon="6.64098">
        <ele>180</ele>
        <time>2022-10-09T11:49:51Z</time>
      </trkpt>
      <trkpt lat="43.37647" lon="6.64099">
        <ele>179.8</ele>
        <time>2022-10-09T11:49:52Z</time>
      </trkpt>
      <trkpt lat="43.37646" lon="6.641">
        <ele>179.7</ele>
        <time>2022-10-09T11:49:53Z</time>
      </trkpt>
      <trkpt lat="43.37644" lon="6.641">
        <ele>179.6</ele>
        <time>2022-10-09T11:49:54Z</time>
      </trkpt>
      <trkpt lat="43.37644" lon="6.64101">
        <ele>179.5</ele>
        <time>2022-10-09T11:49:55Z</time>
      </trkpt>
      <trkpt lat="43.37643" lon="6.64101">
        <ele>179.4</ele>
        <time>2022-10-09T11:49:57Z</time>
      </trkpt>
      <trkpt lat="43.37637" lon="6.64107">
        <ele>178.4</ele>
        <time>2022-10-09T11:50:04Z</time>
      </trkpt>
      <trkpt lat="43.37633" lon="6.6411">
        <ele>177.6</ele>
        <time>2022-10-09T11:50:07Z</time>
      </trkpt>
      <trkpt lat="43.37632" lon="6.64111">
        <ele>177.4</ele>
        <time>2022-10-09T11:50:08Z</time>
      </trkpt>
      <trkpt lat="43.37632" lon="6.64112">
        <ele>177.2</ele>
        <time>2022-10-09T11:50:09Z</time>
      </trkpt>
      <trkpt lat="43.37631" lon="6.64113">
        <ele>177</ele>
        <time>2022-10-09T11:50:10Z</time>
      </trkpt>
      <trkpt lat="43.37631" lon="6.64115">
        <ele>176.7</ele>
        <time>2022-10-09T11:50:11Z</time>
      </trkpt>
      <trkpt lat="43.37632" lon="6.64116">
        <ele>176.6</ele>
        <time>2022-10-09T11:50:12Z</time>
      </trkpt>
      <trkpt lat="43.37632" lon="6.64117">
        <ele>176.4</ele>
        <time>2022-10-09T11:50:13Z</time>
      </trkpt>
      <trkpt lat="43.37633" lon="6.64117">
        <ele>176.2</ele>
        <time>2022-10-09T11:50:14Z</time>
      </trkpt>
      <trkpt lat="43.37636" lon="6.64118">
        <ele>175.7</ele>
        <time>2022-10-09T11:50:16Z</time>
      </trkpt>
      <trkpt lat="43.37637" lon="6.64119">
        <ele>175.4</ele>
        <time>2022-10-09T11:50:17Z</time>
      </trkpt>
      <trkpt lat="43.37638" lon="6.64119">
        <ele>175.2</ele>
        <time>2022-10-09T11:50:18Z</time>
      </trkpt>
      <trkpt lat="43.37641" lon="6.6412">
        <ele>174.5</ele>
        <time>2022-10-09T11:50:21Z</time>
      </trkpt>
      <trkpt lat="43.37645" lon="6.6412">
        <ele>173.9</ele>
        <time>2022-10-09T11:50:24Z</time>
      </trkpt>
      <trkpt lat="43.37645" lon="6.6412">
        <ele>173.9</ele>
        <time>2022-10-09T11:50:25Z</time>
      </trkpt>
      <trkpt lat="43.37646" lon="6.64121">
        <ele>173.7</ele>
        <time>2022-10-09T11:50:26Z</time>
      </trkpt>
      <trkpt lat="43.37652" lon="6.64121">
        <ele>172.9</ele>
        <time>2022-10-09T11:50:30Z</time>
      </trkpt>
      <trkpt lat="43.37654" lon="6.64122">
        <ele>172.6</ele>
        <time>2022-10-09T11:50:32Z</time>
      </trkpt>
      <trkpt lat="43.37655" lon="6.64122">
        <ele>172.4</ele>
        <time>2022-10-09T11:50:33Z</time>
      </trkpt>
      <trkpt lat="43.37656" lon="6.64122">
        <ele>172.3</ele>
        <time>2022-10-09T11:50:34Z</time>
      </trkpt>
      <trkpt lat="43.37659" lon="6.64123">
        <ele>171.9</ele>
        <time>2022-10-09T11:50:36Z</time>
      </trkpt>
      <trkpt lat="43.37662" lon="6.64124">
        <ele>171.5</ele>
        <time>2022-10-09T11:50:38Z</time>
      </trkpt>
      <trkpt lat="43.37664" lon="6.64124">
        <ele>171.4</ele>
        <time>2022-10-09T11:50:39Z</time>
      </trkpt>
      <trkpt lat="43.37668" lon="6.64123">
        <ele>170.9</ele>
        <time>2022-10-09T11:50:42Z</time>
      </trkpt>
      <trkpt lat="43.37672" lon="6.64124">
        <ele>170.4</ele>
        <time>2022-10-09T11:50:45Z</time>
      </trkpt>
      <trkpt lat="43.37673" lon="6.64123">
        <ele>170.3</ele>
        <time>2022-10-09T11:50:46Z</time>
      </trkpt>
      <trkpt lat="43.37674" lon="6.64123">
        <ele>170.1</ele>
        <time>2022-10-09T11:50:47Z</time>
      </trkpt>
      <trkpt lat="43.37677" lon="6.64123">
        <ele>169.8</ele>
        <time>2022-10-09T11:50:49Z</time>
      </trkpt>
      <trkpt lat="43.37678" lon="6.64122">
        <ele>169.7</ele>
        <time>2022-10-09T11:50:50Z</time>
      </trkpt>
      <trkpt lat="43.37678" lon="6.64122">
        <ele>169.6</ele>
        <time>2022-10-09T11:50:51Z</time>
      </trkpt>
      <trkpt lat="43.37683" lon="6.64119">
        <ele>169.1</ele>
        <time>2022-10-09T11:50:55Z</time>
      </trkpt>
      <trkpt lat="43.37684" lon="6.64118">
        <ele>168.9</ele>
        <time>2022-10-09T11:50:56Z</time>
      </trkpt>
      <trkpt lat="43.37685" lon="6.64117">
        <ele>168.8</ele>
        <time>2022-10-09T11:50:57Z</time>
      </trkpt>
      <trkpt lat="43.37686" lon="6.64116">
        <ele>168.7</ele>
        <time>2022-10-09T11:50:58Z</time>
      </trkpt>
      <trkpt lat="43.3769" lon="6.64112">
        <ele>168.2</ele>
        <time>2022-10-09T11:51:02Z</time>
      </trkpt>
      <trkpt lat="43.37691" lon="6.64112">
        <ele>168</ele>
        <time>2022-10-09T11:51:03Z</time>
      </trkpt>
      <trkpt lat="43.37692" lon="6.64111">
        <ele>167.9</ele>
        <time>2022-10-09T11:51:04Z</time>
      </trkpt>
      <trkpt lat="43.37693" lon="6.64111">
        <ele>167.8</ele>
        <time>2022-10-09T11:51:05Z</time>
      </trkpt>
      <trkpt lat="43.37694" lon="6.64111">
        <ele>167.7</ele>
        <time>2022-10-09T11:51:06Z</time>
      </trkpt>
      <trkpt lat="43.37694" lon="6.64111">
        <ele>167.6</ele>
        <time>2022-10-09T11:51:07Z</time>
      </trkpt>
      <trkpt lat="43.37694" lon="6.64111">
        <ele>167.6</ele>
        <time>2022-10-09T11:51:09Z</time>
      </trkpt>
      <trkpt lat="43.37705" lon="6.64107">
        <ele>166.3</ele>
        <time>2022-10-09T11:51:22Z</time>
      </trkpt>
      <trkpt lat="43.37711" lon="6.64107">
        <ele>165.7</ele>
        <time>2022-10-09T11:51:24Z</time>
      </trkpt>
      <trkpt lat="43.37716" lon="6.64106">
        <ele>165.2</ele>
        <time>2022-10-09T11:51:26Z</time>
      </trkpt>
      <trkpt lat="43.37718" lon="6.64107">
        <ele>165</ele>
        <time>2022-10-09T11:51:27Z</time>
      </trkpt>
      <trkpt lat="43.3772" lon="6.64107">
        <ele>164.7</ele>
        <time>2022-10-09T11:51:28Z</time>
      </trkpt>
      <trkpt lat="43.37729" lon="6.64106">
        <ele>163.9</ele>
        <time>2022-10-09T11:51:31Z</time>
      </trkpt>
      <trkpt lat="43.37734" lon="6.64104">
        <ele>163.4</ele>
        <time>2022-10-09T11:51:33Z</time>
      </trkpt>
      <trkpt lat="43.37737" lon="6.64102">
        <ele>163.2</ele>
        <time>2022-10-09T11:51:34Z</time>
      </trkpt>
      <trkpt lat="43.37745" lon="6.64099">
        <ele>162.5</ele>
        <time>2022-10-09T11:51:37Z</time>
      </trkpt>
      <trkpt lat="43.37748" lon="6.64098">
        <ele>162.3</ele>
        <time>2022-10-09T11:51:38Z</time>
      </trkpt>
      <trkpt lat="43.37759" lon="6.64095">
        <ele>161.5</ele>
        <time>2022-10-09T11:51:41Z</time>
      </trkpt>
      <trkpt lat="43.37762" lon="6.64095">
        <ele>161.2</ele>
        <time>2022-10-09T11:51:42Z</time>
      </trkpt>
      <trkpt lat="43.37765" lon="6.64095">
        <ele>161</ele>
        <time>2022-10-09T11:51:43Z</time>
      </trkpt>
      <trkpt lat="43.37768" lon="6.64096">
        <ele>160.9</ele>
        <time>2022-10-09T11:51:44Z</time>
      </trkpt>
      <trkpt lat="43.3777" lon="6.64096">
        <ele>160.7</ele>
        <time>2022-10-09T11:51:45Z</time>
      </trkpt>
      <trkpt lat="43.37772" lon="6.64097">
        <ele>160.5</ele>
        <time>2022-10-09T11:51:46Z</time>
      </trkpt>
      <trkpt lat="43.37775" lon="6.64097">
        <ele>160.3</ele>
        <time>2022-10-09T11:51:47Z</time>
      </trkpt>
      <trkpt lat="43.37791" lon="6.64096">
        <ele>158.6</ele>
        <time>2022-10-09T11:51:53Z</time>
      </trkpt>
      <trkpt lat="43.37794" lon="6.64095">
        <ele>158.3</ele>
        <time>2022-10-09T11:51:54Z</time>
      </trkpt>
      <trkpt lat="43.37801" lon="6.64093">
        <ele>157.5</ele>
        <time>2022-10-09T11:51:56Z</time>
      </trkpt>
      <trkpt lat="43.37803" lon="6.64093">
        <ele>157.1</ele>
        <time>2022-10-09T11:51:57Z</time>
      </trkpt>
      <trkpt lat="43.37806" lon="6.64093">
        <ele>156.8</ele>
        <time>2022-10-09T11:51:58Z</time>
      </trkpt>
      <trkpt lat="43.3781" lon="6.64092">
        <ele>156.4</ele>
        <time>2022-10-09T11:51:59Z</time>
      </trkpt>
      <trkpt lat="43.37813" lon="6.64093">
        <ele>156</ele>
        <time>2022-10-09T11:52:00Z</time>
      </trkpt>
      <trkpt lat="43.37816" lon="6.64093">
        <ele>155.7</ele>
        <time>2022-10-09T11:52:01Z</time>
      </trkpt>
      <trkpt lat="43.37819" lon="6.64093">
        <ele>155.4</ele>
        <time>2022-10-09T11:52:02Z</time>
      </trkpt>
      <trkpt lat="43.37821" lon="6.64092">
        <ele>155.2</ele>
        <time>2022-10-09T11:52:03Z</time>
      </trkpt>
      <trkpt lat="43.37824" lon="6.64091">
        <ele>154.9</ele>
        <time>2022-10-09T11:52:04Z</time>
      </trkpt>
      <trkpt lat="43.37826" lon="6.6409">
        <ele>154.7</ele>
        <time>2022-10-09T11:52:05Z</time>
      </trkpt>
      <trkpt lat="43.37839" lon="6.64084">
        <ele>153.6</ele>
        <time>2022-10-09T11:52:10Z</time>
      </trkpt>
      <trkpt lat="43.37842" lon="6.64083">
        <ele>153.3</ele>
        <time>2022-10-09T11:52:11Z</time>
      </trkpt>
      <trkpt lat="43.37854" lon="6.64082">
        <ele>152.6</ele>
        <time>2022-10-09T11:52:15Z</time>
      </trkpt>
      <trkpt lat="43.37857" lon="6.64084">
        <ele>152.4</ele>
        <time>2022-10-09T11:52:16Z</time>
      </trkpt>
      <trkpt lat="43.3786" lon="6.64085">
        <ele>152.2</ele>
        <time>2022-10-09T11:52:17Z</time>
      </trkpt>
      <trkpt lat="43.37866" lon="6.64087">
        <ele>151.9</ele>
        <time>2022-10-09T11:52:19Z</time>
      </trkpt>
      <trkpt lat="43.37868" lon="6.64087">
        <ele>151.7</ele>
        <time>2022-10-09T11:52:20Z</time>
      </trkpt>
      <trkpt lat="43.3787" lon="6.64088">
        <ele>151.6</ele>
        <time>2022-10-09T11:52:21Z</time>
      </trkpt>
      <trkpt lat="43.37872" lon="6.64089">
        <ele>151.4</ele>
        <time>2022-10-09T11:52:22Z</time>
      </trkpt>
      <trkpt lat="43.37874" lon="6.64089">
        <ele>151.3</ele>
        <time>2022-10-09T11:52:23Z</time>
      </trkpt>
      <trkpt lat="43.37876" lon="6.64088">
        <ele>151.1</ele>
        <time>2022-10-09T11:52:24Z</time>
      </trkpt>
      <trkpt lat="43.37878" lon="6.64088">
        <ele>150.9</ele>
        <time>2022-10-09T11:52:25Z</time>
      </trkpt>
      <trkpt lat="43.37879" lon="6.64088">
        <ele>150.8</ele>
        <time>2022-10-09T11:52:26Z</time>
      </trkpt>
      <trkpt lat="43.37883" lon="6.6409">
        <ele>150.4</ele>
        <time>2022-10-09T11:52:28Z</time>
      </trkpt>
      <trkpt lat="43.37892" lon="6.6409">
        <ele>149.3</ele>
        <time>2022-10-09T11:52:32Z</time>
      </trkpt>
      <trkpt lat="43.37899" lon="6.64089">
        <ele>148.5</ele>
        <time>2022-10-09T11:52:34Z</time>
      </trkpt>
      <trkpt lat="43.37905" lon="6.64092">
        <ele>147.7</ele>
        <time>2022-10-09T11:52:36Z</time>
      </trkpt>
      <trkpt lat="43.37908" lon="6.64093">
        <ele>147.3</ele>
        <time>2022-10-09T11:52:37Z</time>
      </trkpt>
      <trkpt lat="43.37911" lon="6.64095">
        <ele>147</ele>
        <time>2022-10-09T11:52:38Z</time>
      </trkpt>
      <trkpt lat="43.37913" lon="6.64097">
        <ele>146.7</ele>
        <time>2022-10-09T11:52:39Z</time>
      </trkpt>
      <trkpt lat="43.37916" lon="6.64097">
        <ele>146.5</ele>
        <time>2022-10-09T11:52:40Z</time>
      </trkpt>
      <trkpt lat="43.37918" lon="6.64098">
        <ele>146.2</ele>
        <time>2022-10-09T11:52:41Z</time>
      </trkpt>
      <trkpt lat="43.3792" lon="6.64098">
        <ele>146</ele>
        <time>2022-10-09T11:52:42Z</time>
      </trkpt>
      <trkpt lat="43.37925" lon="6.64099">
        <ele>145.6</ele>
        <time>2022-10-09T11:52:44Z</time>
      </trkpt>
      <trkpt lat="43.37927" lon="6.641">
        <ele>145.3</ele>
        <time>2022-10-09T11:52:45Z</time>
      </trkpt>
      <trkpt lat="43.37929" lon="6.64099">
        <ele>145.2</ele>
        <time>2022-10-09T11:52:46Z</time>
      </trkpt>
      <trkpt lat="43.3793" lon="6.64099">
        <ele>145.1</ele>
        <time>2022-10-09T11:52:47Z</time>
      </trkpt>
      <trkpt lat="43.3793" lon="6.64099">
        <ele>145</ele>
        <time>2022-10-09T11:52:49Z</time>
      </trkpt>
      <trkpt lat="43.3795" lon="6.641">
        <ele>142.5</ele>
        <time>2022-10-09T11:53:13Z</time>
      </trkpt>
      <trkpt lat="43.37953" lon="6.64102">
        <ele>142</ele>
        <time>2022-10-09T11:53:15Z</time>
      </trkpt>
      <trkpt lat="43.37955" lon="6.64102">
        <ele>141.8</ele>
        <time>2022-10-09T11:53:16Z</time>
      </trkpt>
      <trkpt lat="43.37957" lon="6.64103">
        <ele>141.6</ele>
        <time>2022-10-09T11:53:17Z</time>
      </trkpt>
      <trkpt lat="43.37958" lon="6.64104">
        <ele>141.4</ele>
        <time>2022-10-09T11:53:18Z</time>
      </trkpt>
      <trkpt lat="43.37959" lon="6.64104">
        <ele>141.2</ele>
        <time>2022-10-09T11:53:19Z</time>
      </trkpt>
      <trkpt lat="43.3796" lon="6.64105">
        <ele>141</ele>
        <time>2022-10-09T11:53:20Z</time>
      </trkpt>
      <trkpt lat="43.37962" lon="6.64105">
        <ele>140.9</ele>
        <time>2022-10-09T11:53:21Z</time>
      </trkpt>
      <trkpt lat="43.37964" lon="6.64107">
        <ele>140.5</ele>
        <time>2022-10-09T11:53:23Z</time>
      </trkpt>
      <trkpt lat="43.37965" lon="6.64109">
        <ele>140.3</ele>
        <time>2022-10-09T11:53:24Z</time>
      </trkpt>
      <trkpt lat="43.37966" lon="6.6411">
        <ele>140.2</ele>
        <time>2022-10-09T11:53:25Z</time>
      </trkpt>
      <trkpt lat="43.37967" lon="6.6411">
        <ele>140</ele>
        <time>2022-10-09T11:53:26Z</time>
      </trkpt>
      <trkpt lat="43.37967" lon="6.64111">
        <ele>140</ele>
        <time>2022-10-09T11:53:27Z</time>
      </trkpt>
      <trkpt lat="43.37968" lon="6.64111">
        <ele>139.9</ele>
        <time>2022-10-09T11:53:29Z</time>
      </trkpt>
      <trkpt lat="43.37977" lon="6.64118">
        <ele>138.7</ele>
        <time>2022-10-09T11:53:42Z</time>
      </trkpt>
      <trkpt lat="43.37982" lon="6.64121">
        <ele>138</ele>
        <time>2022-10-09T11:53:44Z</time>
      </trkpt>
      <trkpt lat="43.37994" lon="6.64127">
        <ele>136.6</ele>
        <time>2022-10-09T11:53:48Z</time>
      </trkpt>
      <trkpt lat="43.37996" lon="6.64129">
        <ele>136.3</ele>
        <time>2022-10-09T11:53:49Z</time>
      </trkpt>
      <trkpt lat="43.37999" lon="6.64132">
        <ele>136</ele>
        <time>2022-10-09T11:53:50Z</time>
      </trkpt>
      <trkpt lat="43.38001" lon="6.64134">
        <ele>135.7</ele>
        <time>2022-10-09T11:53:51Z</time>
      </trkpt>
      <trkpt lat="43.38004" lon="6.64136">
        <ele>135.4</ele>
        <time>2022-10-09T11:53:52Z</time>
      </trkpt>
      <trkpt lat="43.38008" lon="6.64139">
        <ele>135</ele>
        <time>2022-10-09T11:53:53Z</time>
      </trkpt>
      <trkpt lat="43.38012" lon="6.64141">
        <ele>134.6</ele>
        <time>2022-10-09T11:53:54Z</time>
      </trkpt>
      <trkpt lat="43.38016" lon="6.64145">
        <ele>134.2</ele>
        <time>2022-10-09T11:53:55Z</time>
      </trkpt>
      <trkpt lat="43.38024" lon="6.64152">
        <ele>133.5</ele>
        <time>2022-10-09T11:53:57Z</time>
      </trkpt>
      <trkpt lat="43.38028" lon="6.64155">
        <ele>133.2</ele>
        <time>2022-10-09T11:53:58Z</time>
      </trkpt>
      <trkpt lat="43.38036" lon="6.64162">
        <ele>132.7</ele>
        <time>2022-10-09T11:54:00Z</time>
      </trkpt>
      <trkpt lat="43.3804" lon="6.64165">
        <ele>132.4</ele>
        <time>2022-10-09T11:54:01Z</time>
      </trkpt>
      <trkpt lat="43.38047" lon="6.64172">
        <ele>131.9</ele>
        <time>2022-10-09T11:54:03Z</time>
      </trkpt>
      <trkpt lat="43.38051" lon="6.64175">
        <ele>131.7</ele>
        <time>2022-10-09T11:54:04Z</time>
      </trkpt>
      <trkpt lat="43.38054" lon="6.64179">
        <ele>131.4</ele>
        <time>2022-10-09T11:54:05Z</time>
      </trkpt>
      <trkpt lat="43.38057" lon="6.64184">
        <ele>131</ele>
        <time>2022-10-09T11:54:06Z</time>
      </trkpt>
      <trkpt lat="43.38059" lon="6.64188">
        <ele>130.7</ele>
        <time>2022-10-09T11:54:07Z</time>
      </trkpt>
      <trkpt lat="43.38059" lon="6.64192">
        <ele>130.6</ele>
        <time>2022-10-09T11:54:08Z</time>
      </trkpt>
      <trkpt lat="43.3806" lon="6.64197">
        <ele>130.3</ele>
        <time>2022-10-09T11:54:09Z</time>
      </trkpt>
      <trkpt lat="43.38061" lon="6.64201">
        <ele>130.1</ele>
        <time>2022-10-09T11:54:10Z</time>
      </trkpt>
      <trkpt lat="43.38062" lon="6.64204">
        <ele>129.9</ele>
        <time>2022-10-09T11:54:11Z</time>
      </trkpt>
      <trkpt lat="43.38063" lon="6.64206">
        <ele>129.8</ele>
        <time>2022-10-09T11:54:12Z</time>
      </trkpt>
      <trkpt lat="43.38063" lon="6.64208">
        <ele>129.7</ele>
        <time>2022-10-09T11:54:13Z</time>
      </trkpt>
      <trkpt lat="43.38064" lon="6.64211">
        <ele>129.6</ele>
        <time>2022-10-09T11:54:14Z</time>
      </trkpt>
      <trkpt lat="43.38064" lon="6.64214">
        <ele>129.4</ele>
        <time>2022-10-09T11:54:15Z</time>
      </trkpt>
      <trkpt lat="43.38066" lon="6.6422">
        <ele>128.6</ele>
        <time>2022-10-09T11:54:17Z</time>
      </trkpt>
      <trkpt lat="43.38066" lon="6.64223">
        <ele>128.3</ele>
        <time>2022-10-09T11:54:18Z</time>
      </trkpt>
      <trkpt lat="43.38067" lon="6.64225">
        <ele>128.1</ele>
        <time>2022-10-09T11:54:19Z</time>
      </trkpt>
      <trkpt lat="43.38067" lon="6.64226">
        <ele>128</ele>
        <time>2022-10-09T11:54:20Z</time>
      </trkpt>
      <trkpt lat="43.38067" lon="6.64226">
        <ele>127.9</ele>
        <time>2022-10-09T11:54:21Z</time>
      </trkpt>
      <trkpt lat="43.38071" lon="6.64272">
        <ele>122</ele>
        <time>2022-10-09T11:55:03Z</time>
      </trkpt>
      <trkpt lat="43.38072" lon="6.64274">
        <ele>121.7</ele>
        <time>2022-10-09T11:55:04Z</time>
      </trkpt>
      <trkpt lat="43.38074" lon="6.64275">
        <ele>121.3</ele>
        <time>2022-10-09T11:55:06Z</time>
      </trkpt>
      <trkpt lat="43.38074" lon="6.64276">
        <ele>121.2</ele>
        <time>2022-10-09T11:55:07Z</time>
      </trkpt>
      <trkpt lat="43.38075" lon="6.64277">
        <ele>121.1</ele>
        <time>2022-10-09T11:55:08Z</time>
      </trkpt>
      <trkpt lat="43.38075" lon="6.64277">
        <ele>121</ele>
        <time>2022-10-09T11:55:10Z</time>
      </trkpt>
      <trkpt lat="43.38093" lon="6.64281">
        <ele>118.4</ele>
        <time>2022-10-09T11:55:31Z</time>
      </trkpt>
      <trkpt lat="43.38094" lon="6.64281">
        <ele>118.2</ele>
        <time>2022-10-09T11:55:32Z</time>
      </trkpt>
      <trkpt lat="43.38096" lon="6.64281">
        <ele>118</ele>
        <time>2022-10-09T11:55:33Z</time>
      </trkpt>
      <trkpt lat="43.38099" lon="6.64279">
        <ele>117.5</ele>
        <time>2022-10-09T11:55:36Z</time>
      </trkpt>
      <trkpt lat="43.381" lon="6.64278">
        <ele>117.4</ele>
        <time>2022-10-09T11:55:37Z</time>
      </trkpt>
      <trkpt lat="43.38101" lon="6.64277">
        <ele>117.2</ele>
        <time>2022-10-09T11:55:38Z</time>
      </trkpt>
      <trkpt lat="43.38102" lon="6.64276">
        <ele>117.1</ele>
        <time>2022-10-09T11:55:39Z</time>
      </trkpt>
      <trkpt lat="43.38103" lon="6.64274">
        <ele>116.9</ele>
        <time>2022-10-09T11:55:40Z</time>
      </trkpt>
      <trkpt lat="43.38104" lon="6.64273">
        <ele>116.7</ele>
        <time>2022-10-09T11:55:41Z</time>
      </trkpt>
      <trkpt lat="43.38105" lon="6.64272">
        <ele>116.6</ele>
        <time>2022-10-09T11:55:42Z</time>
      </trkpt>
      <trkpt lat="43.38107" lon="6.6427">
        <ele>116.2</ele>
        <time>2022-10-09T11:55:44Z</time>
      </trkpt>
      <trkpt lat="43.38109" lon="6.64269">
        <ele>116</ele>
        <time>2022-10-09T11:55:45Z</time>
      </trkpt>
      <trkpt lat="43.3811" lon="6.64268">
        <ele>115.8</ele>
        <time>2022-10-09T11:55:46Z</time>
      </trkpt>
      <trkpt lat="43.38111" lon="6.64267">
        <ele>115.7</ele>
        <time>2022-10-09T11:55:47Z</time>
      </trkpt>
      <trkpt lat="43.38113" lon="6.64265">
        <ele>115.3</ele>
        <time>2022-10-09T11:55:49Z</time>
      </trkpt>
      <trkpt lat="43.38114" lon="6.64264">
        <ele>115.1</ele>
        <time>2022-10-09T11:55:50Z</time>
      </trkpt>
      <trkpt lat="43.38115" lon="6.64263">
        <ele>114.9</ele>
        <time>2022-10-09T11:55:51Z</time>
      </trkpt>
      <trkpt lat="43.38116" lon="6.64263">
        <ele>114.8</ele>
        <time>2022-10-09T11:55:52Z</time>
      </trkpt>
      <trkpt lat="43.38117" lon="6.64262">
        <ele>114.7</ele>
        <time>2022-10-09T11:55:53Z</time>
      </trkpt>
      <trkpt lat="43.38118" lon="6.64262">
        <ele>114.5</ele>
        <time>2022-10-09T11:55:54Z</time>
      </trkpt>
      <trkpt lat="43.38124" lon="6.64262">
        <ele>113.9</ele>
        <time>2022-10-09T11:55:58Z</time>
      </trkpt>
      <trkpt lat="43.38125" lon="6.64262">
        <ele>113.7</ele>
        <time>2022-10-09T11:55:59Z</time>
      </trkpt>
      <trkpt lat="43.38126" lon="6.64262">
        <ele>113.5</ele>
        <time>2022-10-09T11:56:00Z</time>
      </trkpt>
      <trkpt lat="43.3813" lon="6.64263">
        <ele>113.1</ele>
        <time>2022-10-09T11:56:03Z</time>
      </trkpt>
      <trkpt lat="43.38131" lon="6.64263">
        <ele>112.9</ele>
        <time>2022-10-09T11:56:04Z</time>
      </trkpt>
      <trkpt lat="43.38133" lon="6.64264">
        <ele>112.8</ele>
        <time>2022-10-09T11:56:05Z</time>
      </trkpt>
      <trkpt lat="43.38136" lon="6.64264">
        <ele>112.4</ele>
        <time>2022-10-09T11:56:07Z</time>
      </trkpt>
      <trkpt lat="43.38137" lon="6.64264">
        <ele>112.2</ele>
        <time>2022-10-09T11:56:08Z</time>
      </trkpt>
      <trkpt lat="43.3814" lon="6.64264">
        <ele>111.9</ele>
        <time>2022-10-09T11:56:10Z</time>
      </trkpt>
      <trkpt lat="43.38141" lon="6.64263">
        <ele>111.7</ele>
        <time>2022-10-09T11:56:11Z</time>
      </trkpt>
      <trkpt lat="43.38143" lon="6.64263">
        <ele>111.5</ele>
        <time>2022-10-09T11:56:12Z</time>
      </trkpt>
      <trkpt lat="43.38145" lon="6.64262">
        <ele>111.2</ele>
        <time>2022-10-09T11:56:14Z</time>
      </trkpt>
      <trkpt lat="43.38147" lon="6.64261">
        <ele>111.1</ele>
        <time>2022-10-09T11:56:15Z</time>
      </trkpt>
      <trkpt lat="43.38148" lon="6.64261">
        <ele>110.9</ele>
        <time>2022-10-09T11:56:16Z</time>
      </trkpt>
      <trkpt lat="43.38149" lon="6.6426">
        <ele>110.8</ele>
        <time>2022-10-09T11:56:17Z</time>
      </trkpt>
      <trkpt lat="43.3815" lon="6.64259">
        <ele>110.7</ele>
        <time>2022-10-09T11:56:18Z</time>
      </trkpt>
      <trkpt lat="43.38153" lon="6.64258">
        <ele>110.4</ele>
        <time>2022-10-09T11:56:20Z</time>
      </trkpt>
      <trkpt lat="43.38154" lon="6.64258">
        <ele>110.2</ele>
        <time>2022-10-09T11:56:21Z</time>
      </trkpt>
      <trkpt lat="43.38155" lon="6.64257">
        <ele>110.1</ele>
        <time>2022-10-09T11:56:22Z</time>
      </trkpt>
      <trkpt lat="43.38155" lon="6.64257">
        <ele>110.1</ele>
        <time>2022-10-09T11:56:24Z</time>
      </trkpt>
      <trkpt lat="43.3816" lon="6.64253">
        <ele>109.6</ele>
        <time>2022-10-09T11:56:29Z</time>
      </trkpt>
      <trkpt lat="43.38162" lon="6.6425">
        <ele>109.3</ele>
        <time>2022-10-09T11:56:30Z</time>
      </trkpt>
      <trkpt lat="43.38172" lon="6.64245">
        <ele>108.3</ele>
        <time>2022-10-09T11:56:34Z</time>
      </trkpt>
      <trkpt lat="43.38173" lon="6.64244">
        <ele>108.2</ele>
        <time>2022-10-09T11:56:35Z</time>
      </trkpt>
      <trkpt lat="43.38174" lon="6.64244">
        <ele>108.1</ele>
        <time>2022-10-09T11:56:36Z</time>
      </trkpt>
      <trkpt lat="43.38176" lon="6.64243">
        <ele>107.9</ele>
        <time>2022-10-09T11:56:38Z</time>
      </trkpt>
      <trkpt lat="43.38179" lon="6.64243">
        <ele>107.5</ele>
        <time>2022-10-09T11:56:40Z</time>
      </trkpt>
      <trkpt lat="43.38185" lon="6.64237">
        <ele>106.6</ele>
        <time>2022-10-09T11:56:43Z</time>
      </trkpt>
      <trkpt lat="43.38188" lon="6.64233">
        <ele>106.2</ele>
        <time>2022-10-09T11:56:44Z</time>
      </trkpt>
      <trkpt lat="43.3819" lon="6.64229">
        <ele>105.7</ele>
        <time>2022-10-09T11:56:45Z</time>
      </trkpt>
      <trkpt lat="43.38193" lon="6.64225">
        <ele>105.2</ele>
        <time>2022-10-09T11:56:46Z</time>
      </trkpt>
      <trkpt lat="43.38196" lon="6.64221">
        <ele>104.7</ele>
        <time>2022-10-09T11:56:47Z</time>
      </trkpt>
      <trkpt lat="43.38199" lon="6.6422">
        <ele>104.3</ele>
        <time>2022-10-09T11:56:48Z</time>
      </trkpt>
      <trkpt lat="43.38203" lon="6.64219">
        <ele>103.9</ele>
        <time>2022-10-09T11:56:49Z</time>
      </trkpt>
      <trkpt lat="43.38206" lon="6.64219">
        <ele>103.5</ele>
        <time>2022-10-09T11:56:50Z</time>
      </trkpt>
      <trkpt lat="43.38209" lon="6.6422">
        <ele>103.2</ele>
        <time>2022-10-09T11:56:51Z</time>
      </trkpt>
      <trkpt lat="43.38211" lon="6.64222">
        <ele>102.8</ele>
        <time>2022-10-09T11:56:52Z</time>
      </trkpt>
      <trkpt lat="43.38214" lon="6.64225">
        <ele>102.3</ele>
        <time>2022-10-09T11:56:53Z</time>
      </trkpt>
      <trkpt lat="43.38218" lon="6.64229">
        <ele>101.6</ele>
        <time>2022-10-09T11:56:54Z</time>
      </trkpt>
      <trkpt lat="43.3822" lon="6.64233">
        <ele>101</ele>
        <time>2022-10-09T11:56:55Z</time>
      </trkpt>
      <trkpt lat="43.38223" lon="6.64238">
        <ele>100.5</ele>
        <time>2022-10-09T11:56:56Z</time>
      </trkpt>
      <trkpt lat="43.38224" lon="6.64244">
        <ele>99.9</ele>
        <time>2022-10-09T11:56:57Z</time>
      </trkpt>
      <trkpt lat="43.38224" lon="6.6425">
        <ele>99.4</ele>
        <time>2022-10-09T11:56:58Z</time>
      </trkpt>
      <trkpt lat="43.38223" lon="6.64256">
        <ele>99</ele>
        <time>2022-10-09T11:56:59Z</time>
      </trkpt>
      <trkpt lat="43.38222" lon="6.64262">
        <ele>98.5</ele>
        <time>2022-10-09T11:57:00Z</time>
      </trkpt>
      <trkpt lat="43.38222" lon="6.64268">
        <ele>98.2</ele>
        <time>2022-10-09T11:57:01Z</time>
      </trkpt>
      <trkpt lat="43.38222" lon="6.64273">
        <ele>97.8</ele>
        <time>2022-10-09T11:57:02Z</time>
      </trkpt>
      <trkpt lat="43.38223" lon="6.64278">
        <ele>97.5</ele>
        <time>2022-10-09T11:57:03Z</time>
      </trkpt>
      <trkpt lat="43.38225" lon="6.64283">
        <ele>97.1</ele>
        <time>2022-10-09T11:57:04Z</time>
      </trkpt>
      <trkpt lat="43.38226" lon="6.64288">
        <ele>96.7</ele>
        <time>2022-10-09T11:57:05Z</time>
      </trkpt>
      <trkpt lat="43.38225" lon="6.64293">
        <ele>96.3</ele>
        <time>2022-10-09T11:57:06Z</time>
      </trkpt>
      <trkpt lat="43.38224" lon="6.64297">
        <ele>95.9</ele>
        <time>2022-10-09T11:57:07Z</time>
      </trkpt>
      <trkpt lat="43.38223" lon="6.64302">
        <ele>95.6</ele>
        <time>2022-10-09T11:57:08Z</time>
      </trkpt>
      <trkpt lat="43.38221" lon="6.64307">
        <ele>95.2</ele>
        <time>2022-10-09T11:57:09Z</time>
      </trkpt>
      <trkpt lat="43.3822" lon="6.64312">
        <ele>94.8</ele>
        <time>2022-10-09T11:57:10Z</time>
      </trkpt>
      <trkpt lat="43.38218" lon="6.64317">
        <ele>94.5</ele>
        <time>2022-10-09T11:57:11Z</time>
      </trkpt>
      <trkpt lat="43.38212" lon="6.64327">
        <ele>93.6</ele>
        <time>2022-10-09T11:57:13Z</time>
      </trkpt>
      <trkpt lat="43.38208" lon="6.6433">
        <ele>93.2</ele>
        <time>2022-10-09T11:57:14Z</time>
      </trkpt>
      <trkpt lat="43.38204" lon="6.64333">
        <ele>92.7</ele>
        <time>2022-10-09T11:57:15Z</time>
      </trkpt>
      <trkpt lat="43.38199" lon="6.64336">
        <ele>92.3</ele>
        <time>2022-10-09T11:57:16Z</time>
      </trkpt>
      <trkpt lat="43.38194" lon="6.64339">
        <ele>91.7</ele>
        <time>2022-10-09T11:57:17Z</time>
      </trkpt>
      <trkpt lat="43.38183" lon="6.64347">
        <ele>90.7</ele>
        <time>2022-10-09T11:57:19Z</time>
      </trkpt>
      <trkpt lat="43.38178" lon="6.64352">
        <ele>90.2</ele>
        <time>2022-10-09T11:57:20Z</time>
      </trkpt>
      <trkpt lat="43.38173" lon="6.64355">
        <ele>89.9</ele>
        <time>2022-10-09T11:57:21Z</time>
      </trkpt>
      <trkpt lat="43.38169" lon="6.64359">
        <ele>89.5</ele>
        <time>2022-10-09T11:57:22Z</time>
      </trkpt>
      <trkpt lat="43.38165" lon="6.64363">
        <ele>89.2</ele>
        <time>2022-10-09T11:57:23Z</time>
      </trkpt>
      <trkpt lat="43.38158" lon="6.64373">
        <ele>88.5</ele>
        <time>2022-10-09T11:57:25Z</time>
      </trkpt>
      <trkpt lat="43.38155" lon="6.64379">
        <ele>88.2</ele>
        <time>2022-10-09T11:57:26Z</time>
      </trkpt>
      <trkpt lat="43.38152" lon="6.64386">
        <ele>87.8</ele>
        <time>2022-10-09T11:57:27Z</time>
      </trkpt>
      <trkpt lat="43.3814" lon="6.64416">
        <ele>86.4</ele>
        <time>2022-10-09T11:57:31Z</time>
      </trkpt>
      <trkpt lat="43.38135" lon="6.64424">
        <ele>86</ele>
        <time>2022-10-09T11:57:32Z</time>
      </trkpt>
      <trkpt lat="43.3813" lon="6.64431">
        <ele>85.7</ele>
        <time>2022-10-09T11:57:33Z</time>
      </trkpt>
      <trkpt lat="43.38124" lon="6.64436">
        <ele>85.4</ele>
        <time>2022-10-09T11:57:34Z</time>
      </trkpt>
      <trkpt lat="43.38118" lon="6.6444">
        <ele>85.1</ele>
        <time>2022-10-09T11:57:35Z</time>
      </trkpt>
      <trkpt lat="43.38112" lon="6.64442">
        <ele>84.8</ele>
        <time>2022-10-09T11:57:36Z</time>
      </trkpt>
      <trkpt lat="43.38105" lon="6.6444">
        <ele>84.4</ele>
        <time>2022-10-09T11:57:37Z</time>
      </trkpt>
      <trkpt lat="43.38099" lon="6.64436">
        <ele>83.9</ele>
        <time>2022-10-09T11:57:38Z</time>
      </trkpt>
      <trkpt lat="43.38092" lon="6.64432">
        <ele>83.5</ele>
        <time>2022-10-09T11:57:39Z</time>
      </trkpt>
      <trkpt lat="43.38085" lon="6.64428">
        <ele>83</ele>
        <time>2022-10-09T11:57:40Z</time>
      </trkpt>
      <trkpt lat="43.38079" lon="6.64425">
        <ele>82.7</ele>
        <time>2022-10-09T11:57:41Z</time>
      </trkpt>
      <trkpt lat="43.38072" lon="6.64424">
        <ele>82.4</ele>
        <time>2022-10-09T11:57:42Z</time>
      </trkpt>
      <trkpt lat="43.38066" lon="6.64423">
        <ele>82.1</ele>
        <time>2022-10-09T11:57:43Z</time>
      </trkpt>
      <trkpt lat="43.3806" lon="6.64424">
        <ele>81.9</ele>
        <time>2022-10-09T11:57:44Z</time>
      </trkpt>
      <trkpt lat="43.38055" lon="6.64426">
        <ele>81.8</ele>
        <time>2022-10-09T11:57:45Z</time>
      </trkpt>
      <trkpt lat="43.3805" lon="6.64429">
        <ele>81.6</ele>
        <time>2022-10-09T11:57:46Z</time>
      </trkpt>
      <trkpt lat="43.38046" lon="6.64434">
        <ele>81.4</ele>
        <time>2022-10-09T11:57:47Z</time>
      </trkpt>
      <trkpt lat="43.38042" lon="6.64439">
        <ele>81.3</ele>
        <time>2022-10-09T11:57:48Z</time>
      </trkpt>
      <trkpt lat="43.38028" lon="6.64452">
        <ele>80.8</ele>
        <time>2022-10-09T11:57:51Z</time>
      </trkpt>
      <trkpt lat="43.38017" lon="6.64456">
        <ele>80.6</ele>
        <time>2022-10-09T11:57:53Z</time>
      </trkpt>
      <trkpt lat="43.38012" lon="6.64456">
        <ele>80.4</ele>
        <time>2022-10-09T11:57:54Z</time>
      </trkpt>
      <trkpt lat="43.38007" lon="6.64455">
        <ele>80.4</ele>
        <time>2022-10-09T11:57:55Z</time>
      </trkpt>
      <trkpt lat="43.38002" lon="6.64454">
        <ele>80.3</ele>
        <time>2022-10-09T11:57:56Z</time>
      </trkpt>
      <trkpt lat="43.37997" lon="6.64452">
        <ele>80.2</ele>
        <time>2022-10-09T11:57:57Z</time>
      </trkpt>
      <trkpt lat="43.37992" lon="6.64451">
        <ele>80.2</ele>
        <time>2022-10-09T11:57:58Z</time>
      </trkpt>
      <trkpt lat="43.37987" lon="6.6445">
        <ele>80.1</ele>
        <time>2022-10-09T11:57:59Z</time>
      </trkpt>
      <trkpt lat="43.37982" lon="6.64449">
        <ele>80.1</ele>
        <time>2022-10-09T11:58:00Z</time>
      </trkpt>
      <trkpt lat="43.37978" lon="6.64447">
        <ele>80.1</ele>
        <time>2022-10-09T11:58:01Z</time>
      </trkpt>
      <trkpt lat="43.37973" lon="6.64447">
        <ele>80.1</ele>
        <time>2022-10-09T11:58:02Z</time>
      </trkpt>
      <trkpt lat="43.37963" lon="6.64445">
        <ele>80.1</ele>
        <time>2022-10-09T11:58:04Z</time>
      </trkpt>
      <trkpt lat="43.37958" lon="6.64444">
        <ele>80.1</ele>
        <time>2022-10-09T11:58:05Z</time>
      </trkpt>
      <trkpt lat="43.37953" lon="6.64444">
        <ele>80.1</ele>
        <time>2022-10-09T11:58:06Z</time>
      </trkpt>
      <trkpt lat="43.37949" lon="6.64444">
        <ele>80.2</ele>
        <time>2022-10-09T11:58:07Z</time>
      </trkpt>
      <trkpt lat="43.37944" lon="6.64446">
        <ele>80.2</ele>
        <time>2022-10-09T11:58:08Z</time>
      </trkpt>
      <trkpt lat="43.3794" lon="6.64447">
        <ele>80.2</ele>
        <time>2022-10-09T11:58:09Z</time>
      </trkpt>
      <trkpt lat="43.37935" lon="6.64448">
        <ele>80.2</ele>
        <time>2022-10-09T11:58:10Z</time>
      </trkpt>
      <trkpt lat="43.37931" lon="6.64448">
        <ele>80.2</ele>
        <time>2022-10-09T11:58:11Z</time>
      </trkpt>
      <trkpt lat="43.37927" lon="6.64449">
        <ele>80.2</ele>
        <time>2022-10-09T11:58:12Z</time>
      </trkpt>
      <trkpt lat="43.37923" lon="6.64449">
        <ele>80.2</ele>
        <time>2022-10-09T11:58:13Z</time>
      </trkpt>
      <trkpt lat="43.37918" lon="6.6445">
        <ele>80.2</ele>
        <time>2022-10-09T11:58:14Z</time>
      </trkpt>
      <trkpt lat="43.37902" lon="6.64453">
        <ele>80.1</ele>
        <time>2022-10-09T11:58:18Z</time>
      </trkpt>
      <trkpt lat="43.37898" lon="6.64454">
        <ele>80.1</ele>
        <time>2022-10-09T11:58:19Z</time>
      </trkpt>
      <trkpt lat="43.37894" lon="6.64455">
        <ele>80.1</ele>
        <time>2022-10-09T11:58:20Z</time>
      </trkpt>
      <trkpt lat="43.37891" lon="6.64455">
        <ele>80.2</ele>
        <time>2022-10-09T11:58:21Z</time>
      </trkpt>
      <trkpt lat="43.37887" lon="6.64455">
        <ele>80.2</ele>
        <time>2022-10-09T11:58:22Z</time>
      </trkpt>
      <trkpt lat="43.37876" lon="6.64454">
        <ele>80.3</ele>
        <time>2022-10-09T11:58:25Z</time>
      </trkpt>
      <trkpt lat="43.37873" lon="6.64454">
        <ele>80.4</ele>
        <time>2022-10-09T11:58:26Z</time>
      </trkpt>
      <trkpt lat="43.37871" lon="6.64455">
        <ele>80.4</ele>
        <time>2022-10-09T11:58:27Z</time>
      </trkpt>
      <trkpt lat="43.37868" lon="6.64456">
        <ele>80.5</ele>
        <time>2022-10-09T11:58:28Z</time>
      </trkpt>
      <trkpt lat="43.37866" lon="6.64458">
        <ele>80.5</ele>
        <time>2022-10-09T11:58:29Z</time>
      </trkpt>
      <trkpt lat="43.37864" lon="6.64459">
        <ele>80.6</ele>
        <time>2022-10-09T11:58:30Z</time>
      </trkpt>
      <trkpt lat="43.37854" lon="6.64467">
        <ele>80.7</ele>
        <time>2022-10-09T11:58:34Z</time>
      </trkpt>
      <trkpt lat="43.37847" lon="6.64475">
        <ele>80.8</ele>
        <time>2022-10-09T11:58:37Z</time>
      </trkpt>
      <trkpt lat="43.37844" lon="6.64478">
        <ele>80.8</ele>
        <time>2022-10-09T11:58:38Z</time>
      </trkpt>
      <trkpt lat="43.37833" lon="6.64488">
        <ele>81</ele>
        <time>2022-10-09T11:58:42Z</time>
      </trkpt>
      <trkpt lat="43.3783" lon="6.64489">
        <ele>81.1</ele>
        <time>2022-10-09T11:58:43Z</time>
      </trkpt>
      <trkpt lat="43.37824" lon="6.64493">
        <ele>81.3</ele>
        <time>2022-10-09T11:58:45Z</time>
      </trkpt>
      <trkpt lat="43.37821" lon="6.64494">
        <ele>81.4</ele>
        <time>2022-10-09T11:58:46Z</time>
      </trkpt>
      <trkpt lat="43.37818" lon="6.64496">
        <ele>81.5</ele>
        <time>2022-10-09T11:58:47Z</time>
      </trkpt>
      <trkpt lat="43.37815" lon="6.64497">
        <ele>81.6</ele>
        <time>2022-10-09T11:58:48Z</time>
      </trkpt>
      <trkpt lat="43.37812" lon="6.64499">
        <ele>81.7</ele>
        <time>2022-10-09T11:58:49Z</time>
      </trkpt>
      <trkpt lat="43.37809" lon="6.64501">
        <ele>81.8</ele>
        <time>2022-10-09T11:58:50Z</time>
      </trkpt>
      <trkpt lat="43.37804" lon="6.64505">
        <ele>81.9</ele>
        <time>2022-10-09T11:58:52Z</time>
      </trkpt>
      <trkpt lat="43.37798" lon="6.64509">
        <ele>82.1</ele>
        <time>2022-10-09T11:58:54Z</time>
      </trkpt>
      <trkpt lat="43.37796" lon="6.6451">
        <ele>82.2</ele>
        <time>2022-10-09T11:58:55Z</time>
      </trkpt>
      <trkpt lat="43.37793" lon="6.64511">
        <ele>82.3</ele>
        <time>2022-10-09T11:58:56Z</time>
      </trkpt>
      <trkpt lat="43.3779" lon="6.64511">
        <ele>82.4</ele>
        <time>2022-10-09T11:58:57Z</time>
      </trkpt>
      <trkpt lat="43.37787" lon="6.64512">
        <ele>82.5</ele>
        <time>2022-10-09T11:58:58Z</time>
      </trkpt>
      <trkpt lat="43.37772" lon="6.64519">
        <ele>83</ele>
        <time>2022-10-09T11:59:03Z</time>
      </trkpt>
      <trkpt lat="43.37769" lon="6.6452">
        <ele>83.1</ele>
        <time>2022-10-09T11:59:04Z</time>
      </trkpt>
      <trkpt lat="43.37767" lon="6.64523">
        <ele>83.2</ele>
        <time>2022-10-09T11:59:05Z</time>
      </trkpt>
      <trkpt lat="43.37765" lon="6.64526">
        <ele>83.3</ele>
        <time>2022-10-09T11:59:06Z</time>
      </trkpt>
      <trkpt lat="43.37763" lon="6.64528">
        <ele>83.5</ele>
        <time>2022-10-09T11:59:07Z</time>
      </trkpt>
      <trkpt lat="43.37762" lon="6.64532">
        <ele>83.6</ele>
        <time>2022-10-09T11:59:08Z</time>
      </trkpt>
      <trkpt lat="43.37761" lon="6.64534">
        <ele>83.7</ele>
        <time>2022-10-09T11:59:09Z</time>
      </trkpt>
      <trkpt lat="43.37759" lon="6.64537">
        <ele>83.9</ele>
        <time>2022-10-09T11:59:10Z</time>
      </trkpt>
      <trkpt lat="43.37758" lon="6.64539">
        <ele>84</ele>
        <time>2022-10-09T11:59:11Z</time>
      </trkpt>
      <trkpt lat="43.37757" lon="6.64541">
        <ele>84.1</ele>
        <time>2022-10-09T11:59:12Z</time>
      </trkpt>
      <trkpt lat="43.37756" lon="6.64543">
        <ele>84.2</ele>
        <time>2022-10-09T11:59:13Z</time>
      </trkpt>
      <trkpt lat="43.37756" lon="6.64543">
        <ele>84.3</ele>
        <time>2022-10-09T11:59:15Z</time>
      </trkpt>
      <trkpt lat="43.37742" lon="6.64573">
        <ele>87.1</ele>
        <time>2022-10-09T11:59:43Z</time>
      </trkpt>
      <trkpt lat="43.37741" lon="6.64574">
        <ele>87.2</ele>
        <time>2022-10-09T11:59:44Z</time>
      </trkpt>
      <trkpt lat="43.3774" lon="6.64575">
        <ele>87.4</ele>
        <time>2022-10-09T11:59:45Z</time>
      </trkpt>
      <trkpt lat="43.37739" lon="6.64576">
        <ele>87.5</ele>
        <time>2022-10-09T11:59:46Z</time>
      </trkpt>
      <trkpt lat="43.37738" lon="6.64577">
        <ele>87.6</ele>
        <time>2022-10-09T11:59:47Z</time>
      </trkpt>
      <trkpt lat="43.37738" lon="6.64579">
        <ele>87.7</ele>
        <time>2022-10-09T11:59:48Z</time>
      </trkpt>
      <trkpt lat="43.37737" lon="6.6458">
        <ele>87.8</ele>
        <time>2022-10-09T11:59:49Z</time>
      </trkpt>
      <trkpt lat="43.37736" lon="6.6458">
        <ele>87.9</ele>
        <time>2022-10-09T11:59:50Z</time>
      </trkpt>
      <trkpt lat="43.37735" lon="6.64581">
        <ele>88</ele>
        <time>2022-10-09T11:59:51Z</time>
      </trkpt>
      <trkpt lat="43.37734" lon="6.64582">
        <ele>88.1</ele>
        <time>2022-10-09T11:59:52Z</time>
      </trkpt>
      <trkpt lat="43.37733" lon="6.64583">
        <ele>88.2</ele>
        <time>2022-10-09T11:59:53Z</time>
      </trkpt>
      <trkpt lat="43.37732" lon="6.64584">
        <ele>88.3</ele>
        <time>2022-10-09T11:59:54Z</time>
      </trkpt>
      <trkpt lat="43.37731" lon="6.64585">
        <ele>88.3</ele>
        <time>2022-10-09T11:59:55Z</time>
      </trkpt>
      <trkpt lat="43.3773" lon="6.64586">
        <ele>88.4</ele>
        <time>2022-10-09T11:59:56Z</time>
      </trkpt>
      <trkpt lat="43.37729" lon="6.64587">
        <ele>88.5</ele>
        <time>2022-10-09T11:59:57Z</time>
      </trkpt>
      <trkpt lat="43.37728" lon="6.64587">
        <ele>88.6</ele>
        <time>2022-10-09T11:59:58Z</time>
      </trkpt>
      <trkpt lat="43.37727" lon="6.64588">
        <ele>88.7</ele>
        <time>2022-10-09T11:59:59Z</time>
      </trkpt>
      <trkpt lat="43.37725" lon="6.64589">
        <ele>88.7</ele>
        <time>2022-10-09T12:00:00Z</time>
      </trkpt>
      <trkpt lat="43.37724" lon="6.6459">
        <ele>88.8</ele>
        <time>2022-10-09T12:00:01Z</time>
      </trkpt>
      <trkpt lat="43.37723" lon="6.6459">
        <ele>88.8</ele>
        <time>2022-10-09T12:00:02Z</time>
      </trkpt>
      <trkpt lat="43.37722" lon="6.6459">
        <ele>88.9</ele>
        <time>2022-10-09T12:00:03Z</time>
      </trkpt>
      <trkpt lat="43.37722" lon="6.64591">
        <ele>88.9</ele>
        <time>2022-10-09T12:00:04Z</time>
      </trkpt>
      <trkpt lat="43.37721" lon="6.64591">
        <ele>88.9</ele>
        <time>2022-10-09T12:00:05Z</time>
      </trkpt>
      <trkpt lat="43.37721" lon="6.64591">
        <ele>88.9</ele>
        <time>2022-10-09T12:00:06Z</time>
      </trkpt>
      <trkpt lat="43.37721" lon="6.64591">
        <ele>88.9</ele>
        <time>2022-10-09T12:00:07Z</time>
      </trkpt>
      <trkpt lat="43.37718" lon="6.64592">
        <ele>89</ele>
        <time>2022-10-09T12:00:13Z</time>
      </trkpt>
      <trkpt lat="43.37714" lon="6.64593">
        <ele>89.2</ele>
        <time>2022-10-09T12:00:15Z</time>
      </trkpt>
      <trkpt lat="43.37702" lon="6.64596">
        <ele>89.5</ele>
        <time>2022-10-09T12:00:20Z</time>
      </trkpt>
      <trkpt lat="43.377" lon="6.64597">
        <ele>89.5</ele>
        <time>2022-10-09T12:00:21Z</time>
      </trkpt>
      <trkpt lat="43.37698" lon="6.64598">
        <ele>89.6</ele>
        <time>2022-10-09T12:00:22Z</time>
      </trkpt>
      <trkpt lat="43.37695" lon="6.64598">
        <ele>89.7</ele>
        <time>2022-10-09T12:00:23Z</time>
      </trkpt>
      <trkpt lat="43.37693" lon="6.64599">
        <ele>89.7</ele>
        <time>2022-10-09T12:00:24Z</time>
      </trkpt>
      <trkpt lat="43.37689" lon="6.64599">
        <ele>89.8</ele>
        <time>2022-10-09T12:00:26Z</time>
      </trkpt>
      <trkpt lat="43.37679" lon="6.64598">
        <ele>90.2</ele>
        <time>2022-10-09T12:00:30Z</time>
      </trkpt>
      <trkpt lat="43.37677" lon="6.64597">
        <ele>90.3</ele>
        <time>2022-10-09T12:00:31Z</time>
      </trkpt>
      <trkpt lat="43.37675" lon="6.64597">
        <ele>90.4</ele>
        <time>2022-10-09T12:00:32Z</time>
      </trkpt>
      <trkpt lat="43.37673" lon="6.64596">
        <ele>90.5</ele>
        <time>2022-10-09T12:00:33Z</time>
      </trkpt>
      <trkpt lat="43.37665" lon="6.64593">
        <ele>90.9</ele>
        <time>2022-10-09T12:00:37Z</time>
      </trkpt>
      <trkpt lat="43.37664" lon="6.64591">
        <ele>91</ele>
        <time>2022-10-09T12:00:38Z</time>
      </trkpt>
      <trkpt lat="43.37662" lon="6.64591">
        <ele>91.1</ele>
        <time>2022-10-09T12:00:39Z</time>
      </trkpt>
      <trkpt lat="43.3766" lon="6.6459">
        <ele>91.2</ele>
        <time>2022-10-09T12:00:40Z</time>
      </trkpt>
      <trkpt lat="43.37658" lon="6.64589">
        <ele>91.3</ele>
        <time>2022-10-09T12:00:41Z</time>
      </trkpt>
      <trkpt lat="43.37656" lon="6.64588">
        <ele>91.4</ele>
        <time>2022-10-09T12:00:42Z</time>
      </trkpt>
      <trkpt lat="43.37654" lon="6.64586">
        <ele>91.5</ele>
        <time>2022-10-09T12:00:43Z</time>
      </trkpt>
      <trkpt lat="43.37652" lon="6.64585">
        <ele>91.5</ele>
        <time>2022-10-09T12:00:44Z</time>
      </trkpt>
      <trkpt lat="43.37649" lon="6.64583">
        <ele>91.6</ele>
        <time>2022-10-09T12:00:45Z</time>
      </trkpt>
      <trkpt lat="43.37645" lon="6.64581">
        <ele>91.7</ele>
        <time>2022-10-09T12:00:46Z</time>
      </trkpt>
      <trkpt lat="43.37642" lon="6.64579">
        <ele>91.7</ele>
        <time>2022-10-09T12:00:47Z</time>
      </trkpt>
      <trkpt lat="43.37638" lon="6.64578">
        <ele>91.7</ele>
        <time>2022-10-09T12:00:48Z</time>
      </trkpt>
      <trkpt lat="43.3763" lon="6.64577">
        <ele>91.6</ele>
        <time>2022-10-09T12:00:50Z</time>
      </trkpt>
      <trkpt lat="43.37617" lon="6.64577">
        <ele>91.4</ele>
        <time>2022-10-09T12:00:53Z</time>
      </trkpt>
      <trkpt lat="43.37613" lon="6.64578">
        <ele>91.4</ele>
        <time>2022-10-09T12:00:54Z</time>
      </trkpt>
      <trkpt lat="43.37586" lon="6.64588">
        <ele>90.9</ele>
        <time>2022-10-09T12:01:00Z</time>
      </trkpt>
      <trkpt lat="43.37581" lon="6.6459">
        <ele>90.9</ele>
        <time>2022-10-09T12:01:01Z</time>
      </trkpt>
      <trkpt lat="43.37577" lon="6.64592">
        <ele>90.8</ele>
        <time>2022-10-09T12:01:02Z</time>
      </trkpt>
      <trkpt lat="43.37573" lon="6.64595">
        <ele>90.8</ele>
        <time>2022-10-09T12:01:03Z</time>
      </trkpt>
      <trkpt lat="43.3757" lon="6.64597">
        <ele>90.7</ele>
        <time>2022-10-09T12:01:04Z</time>
      </trkpt>
      <trkpt lat="43.37567" lon="6.646">
        <ele>90.7</ele>
        <time>2022-10-09T12:01:05Z</time>
      </trkpt>
      <trkpt lat="43.37564" lon="6.64603">
        <ele>90.7</ele>
        <time>2022-10-09T12:01:06Z</time>
      </trkpt>
      <trkpt lat="43.37561" lon="6.64606">
        <ele>90.7</ele>
        <time>2022-10-09T12:01:07Z</time>
      </trkpt>
      <trkpt lat="43.37544" lon="6.64618">
        <ele>90.6</ele>
        <time>2022-10-09T12:01:12Z</time>
      </trkpt>
      <trkpt lat="43.37532" lon="6.64629">
        <ele>90.6</ele>
        <time>2022-10-09T12:01:16Z</time>
      </trkpt>
      <trkpt lat="43.37529" lon="6.64632">
        <ele>90.6</ele>
        <time>2022-10-09T12:01:17Z</time>
      </trkpt>
      <trkpt lat="43.37525" lon="6.64635">
        <ele>90.6</ele>
        <time>2022-10-09T12:01:18Z</time>
      </trkpt>
      <trkpt lat="43.37522" lon="6.64637">
        <ele>90.7</ele>
        <time>2022-10-09T12:01:19Z</time>
      </trkpt>
      <trkpt lat="43.37519" lon="6.6464">
        <ele>90.7</ele>
        <time>2022-10-09T12:01:20Z</time>
      </trkpt>
      <trkpt lat="43.37513" lon="6.64646">
        <ele>90.8</ele>
        <time>2022-10-09T12:01:22Z</time>
      </trkpt>
      <trkpt lat="43.37506" lon="6.64651">
        <ele>91</ele>
        <time>2022-10-09T12:01:24Z</time>
      </trkpt>
      <trkpt lat="43.37503" lon="6.64654">
        <ele>91.1</ele>
        <time>2022-10-09T12:01:25Z</time>
      </trkpt>
      <trkpt lat="43.375" lon="6.64656">
        <ele>91.2</ele>
        <time>2022-10-09T12:01:26Z</time>
      </trkpt>
      <trkpt lat="43.37497" lon="6.64658">
        <ele>91.3</ele>
        <time>2022-10-09T12:01:27Z</time>
      </trkpt>
      <trkpt lat="43.37494" lon="6.6466">
        <ele>91.4</ele>
        <time>2022-10-09T12:01:28Z</time>
      </trkpt>
      <trkpt lat="43.37491" lon="6.64662">
        <ele>91.6</ele>
        <time>2022-10-09T12:01:29Z</time>
      </trkpt>
      <trkpt lat="43.37489" lon="6.64664">
        <ele>91.7</ele>
        <time>2022-10-09T12:01:30Z</time>
      </trkpt>
      <trkpt lat="43.37486" lon="6.64666">
        <ele>91.9</ele>
        <time>2022-10-09T12:01:31Z</time>
      </trkpt>
      <trkpt lat="43.37484" lon="6.64668">
        <ele>92</ele>
        <time>2022-10-09T12:01:32Z</time>
      </trkpt>
      <trkpt lat="43.37482" lon="6.64669">
        <ele>92.1</ele>
        <time>2022-10-09T12:01:33Z</time>
      </trkpt>
      <trkpt lat="43.37474" lon="6.64675">
        <ele>92.5</ele>
        <time>2022-10-09T12:01:36Z</time>
      </trkpt>
      <trkpt lat="43.37463" lon="6.64684">
        <ele>93</ele>
        <time>2022-10-09T12:01:40Z</time>
      </trkpt>
      <trkpt lat="43.3746" lon="6.64686">
        <ele>93.1</ele>
        <time>2022-10-09T12:01:41Z</time>
      </trkpt>
      <trkpt lat="43.37457" lon="6.64688">
        <ele>93.3</ele>
        <time>2022-10-09T12:01:42Z</time>
      </trkpt>
      <trkpt lat="43.37454" lon="6.64691">
        <ele>93.4</ele>
        <time>2022-10-09T12:01:43Z</time>
      </trkpt>
      <trkpt lat="43.37451" lon="6.64693">
        <ele>93.5</ele>
        <time>2022-10-09T12:01:44Z</time>
      </trkpt>
      <trkpt lat="43.37448" lon="6.64695">
        <ele>93.6</ele>
        <time>2022-10-09T12:01:45Z</time>
      </trkpt>
      <trkpt lat="43.37446" lon="6.64698">
        <ele>93.7</ele>
        <time>2022-10-09T12:01:46Z</time>
      </trkpt>
      <trkpt lat="43.37443" lon="6.647">
        <ele>93.8</ele>
        <time>2022-10-09T12:01:47Z</time>
      </trkpt>
      <trkpt lat="43.37434" lon="6.64707">
        <ele>94.1</ele>
        <time>2022-10-09T12:01:50Z</time>
      </trkpt>
      <trkpt lat="43.37432" lon="6.64709">
        <ele>94.2</ele>
        <time>2022-10-09T12:01:51Z</time>
      </trkpt>
      <trkpt lat="43.37429" lon="6.64711">
        <ele>94.3</ele>
        <time>2022-10-09T12:01:52Z</time>
      </trkpt>
      <trkpt lat="43.37426" lon="6.64714">
        <ele>94.4</ele>
        <time>2022-10-09T12:01:53Z</time>
      </trkpt>
      <trkpt lat="43.37423" lon="6.64716">
        <ele>94.4</ele>
        <time>2022-10-09T12:01:54Z</time>
      </trkpt>
      <trkpt lat="43.3742" lon="6.64719">
        <ele>94.5</ele>
        <time>2022-10-09T12:01:55Z</time>
      </trkpt>
      <trkpt lat="43.37417" lon="6.64721">
        <ele>94.6</ele>
        <time>2022-10-09T12:01:56Z</time>
      </trkpt>
      <trkpt lat="43.37414" lon="6.64724">
        <ele>94.7</ele>
        <time>2022-10-09T12:01:57Z</time>
      </trkpt>
      <trkpt lat="43.37411" lon="6.64726">
        <ele>94.8</ele>
        <time>2022-10-09T12:01:58Z</time>
      </trkpt>
      <trkpt lat="43.37408" lon="6.64729">
        <ele>94.9</ele>
        <time>2022-10-09T12:01:59Z</time>
      </trkpt>
      <trkpt lat="43.37406" lon="6.64731">
        <ele>94.9</ele>
        <time>2022-10-09T12:02:00Z</time>
      </trkpt>
      <trkpt lat="43.37403" lon="6.64734">
        <ele>95</ele>
        <time>2022-10-09T12:02:01Z</time>
      </trkpt>
      <trkpt lat="43.374" lon="6.64736">
        <ele>95.1</ele>
        <time>2022-10-09T12:02:02Z</time>
      </trkpt>
      <trkpt lat="43.37397" lon="6.64739">
        <ele>95.1</ele>
        <time>2022-10-09T12:02:03Z</time>
      </trkpt>
      <trkpt lat="43.37394" lon="6.64741">
        <ele>95.2</ele>
        <time>2022-10-09T12:02:04Z</time>
      </trkpt>
      <trkpt lat="43.37391" lon="6.64744">
        <ele>95.2</ele>
        <time>2022-10-09T12:02:05Z</time>
      </trkpt>
      <trkpt lat="43.37388" lon="6.64747">
        <ele>95.3</ele>
        <time>2022-10-09T12:02:06Z</time>
      </trkpt>
      <trkpt lat="43.37385" lon="6.64749">
        <ele>95.3</ele>
        <time>2022-10-09T12:02:07Z</time>
      </trkpt>
      <trkpt lat="43.37382" lon="6.64752">
        <ele>95.4</ele>
        <time>2022-10-09T12:02:08Z</time>
      </trkpt>
      <trkpt lat="43.3738" lon="6.64755">
        <ele>95.4</ele>
        <time>2022-10-09T12:02:09Z</time>
      </trkpt>
      <trkpt lat="43.37377" lon="6.64757">
        <ele>95.4</ele>
        <time>2022-10-09T12:02:10Z</time>
      </trkpt>
      <trkpt lat="43.37368" lon="6.64765">
        <ele>95.5</ele>
        <time>2022-10-09T12:02:13Z</time>
      </trkpt>
      <trkpt lat="43.37364" lon="6.64766">
        <ele>95.6</ele>
        <time>2022-10-09T12:02:14Z</time>
      </trkpt>
      <trkpt lat="43.37361" lon="6.64767">
        <ele>95.6</ele>
        <time>2022-10-09T12:02:15Z</time>
      </trkpt>
      <trkpt lat="43.3735" lon="6.64768">
        <ele>95.7</ele>
        <time>2022-10-09T12:02:18Z</time>
      </trkpt>
      <trkpt lat="43.37347" lon="6.64768">
        <ele>95.7</ele>
        <time>2022-10-09T12:02:19Z</time>
      </trkpt>
      <trkpt lat="43.37339" lon="6.64768">
        <ele>95.9</ele>
        <time>2022-10-09T12:02:21Z</time>
      </trkpt>
      <trkpt lat="43.37336" lon="6.64768">
        <ele>95.9</ele>
        <time>2022-10-09T12:02:22Z</time>
      </trkpt>
      <trkpt lat="43.37333" lon="6.64768">
        <ele>96</ele>
        <time>2022-10-09T12:02:23Z</time>
      </trkpt>
      <trkpt lat="43.3733" lon="6.64768">
        <ele>96.1</ele>
        <time>2022-10-09T12:02:24Z</time>
      </trkpt>
      <trkpt lat="43.37327" lon="6.64768">
        <ele>96.1</ele>
        <time>2022-10-09T12:02:25Z</time>
      </trkpt>
      <trkpt lat="43.37324" lon="6.64768">
        <ele>96.2</ele>
        <time>2022-10-09T12:02:26Z</time>
      </trkpt>
      <trkpt lat="43.37321" lon="6.64768">
        <ele>96.2</ele>
        <time>2022-10-09T12:02:27Z</time>
      </trkpt>
      <trkpt lat="43.37315" lon="6.6477">
        <ele>96.4</ele>
        <time>2022-10-09T12:02:29Z</time>
      </trkpt>
      <trkpt lat="43.37312" lon="6.6477">
        <ele>96.4</ele>
        <time>2022-10-09T12:02:30Z</time>
      </trkpt>
      <trkpt lat="43.37302" lon="6.6477">
        <ele>96.5</ele>
        <time>2022-10-09T12:02:33Z</time>
      </trkpt>
      <trkpt lat="43.37298" lon="6.6477">
        <ele>96.5</ele>
        <time>2022-10-09T12:02:34Z</time>
      </trkpt>
      <trkpt lat="43.37294" lon="6.64771">
        <ele>96.5</ele>
        <time>2022-10-09T12:02:35Z</time>
      </trkpt>
      <trkpt lat="43.3729" lon="6.64771">
        <ele>96.5</ele>
        <time>2022-10-09T12:02:36Z</time>
      </trkpt>
      <trkpt lat="43.37286" lon="6.64771">
        <ele>96.5</ele>
        <time>2022-10-09T12:02:37Z</time>
      </trkpt>
      <trkpt lat="43.37283" lon="6.6477">
        <ele>96.5</ele>
        <time>2022-10-09T12:02:38Z</time>
      </trkpt>
      <trkpt lat="43.3728" lon="6.64769">
        <ele>96.5</ele>
        <time>2022-10-09T12:02:39Z</time>
      </trkpt>
      <trkpt lat="43.37277" lon="6.64767">
        <ele>96.6</ele>
        <time>2022-10-09T12:02:40Z</time>
      </trkpt>
      <trkpt lat="43.37274" lon="6.64765">
        <ele>96.7</ele>
        <time>2022-10-09T12:02:41Z</time>
      </trkpt>
      <trkpt lat="43.37272" lon="6.64763">
        <ele>96.7</ele>
        <time>2022-10-09T12:02:42Z</time>
      </trkpt>
      <trkpt lat="43.3727" lon="6.6476">
        <ele>96.8</ele>
        <time>2022-10-09T12:02:43Z</time>
      </trkpt>
      <trkpt lat="43.37268" lon="6.64757">
        <ele>96.9</ele>
        <time>2022-10-09T12:02:44Z</time>
      </trkpt>
      <trkpt lat="43.37265" lon="6.64755">
        <ele>96.9</ele>
        <time>2022-10-09T12:02:45Z</time>
      </trkpt>
      <trkpt lat="43.37263" lon="6.64752">
        <ele>97</ele>
        <time>2022-10-09T12:02:46Z</time>
      </trkpt>
      <trkpt lat="43.37262" lon="6.64749">
        <ele>97.1</ele>
        <time>2022-10-09T12:02:47Z</time>
      </trkpt>
      <trkpt lat="43.37258" lon="6.64743">
        <ele>97.2</ele>
        <time>2022-10-09T12:02:49Z</time>
      </trkpt>
      <trkpt lat="43.37256" lon="6.6474">
        <ele>97.3</ele>
        <time>2022-10-09T12:02:50Z</time>
      </trkpt>
      <trkpt lat="43.37253" lon="6.64737">
        <ele>97.3</ele>
        <time>2022-10-09T12:02:51Z</time>
      </trkpt>
      <trkpt lat="43.37251" lon="6.64733">
        <ele>97.4</ele>
        <time>2022-10-09T12:02:52Z</time>
      </trkpt>
      <trkpt lat="43.37239" lon="6.64711">
        <ele>97.8</ele>
        <time>2022-10-09T12:02:58Z</time>
      </trkpt>
      <trkpt lat="43.37237" lon="6.64707">
        <ele>97.9</ele>
        <time>2022-10-09T12:02:59Z</time>
      </trkpt>
      <trkpt lat="43.37235" lon="6.64704">
        <ele>97.9</ele>
        <time>2022-10-09T12:03:00Z</time>
      </trkpt>
      <trkpt lat="43.37229" lon="6.64699">
        <ele>98.1</ele>
        <time>2022-10-09T12:03:02Z</time>
      </trkpt>
      <trkpt lat="43.37226" lon="6.64697">
        <ele>98.1</ele>
        <time>2022-10-09T12:03:03Z</time>
      </trkpt>
      <trkpt lat="43.37223" lon="6.64696">
        <ele>98.2</ele>
        <time>2022-10-09T12:03:04Z</time>
      </trkpt>
      <trkpt lat="43.3722" lon="6.64696">
        <ele>98.3</ele>
        <time>2022-10-09T12:03:05Z</time>
      </trkpt>
      <trkpt lat="43.37217" lon="6.64696">
        <ele>98.4</ele>
        <time>2022-10-09T12:03:06Z</time>
      </trkpt>
      <trkpt lat="43.37214" lon="6.64697">
        <ele>98.4</ele>
        <time>2022-10-09T12:03:07Z</time>
      </trkpt>
      <trkpt lat="43.37208" lon="6.64699">
        <ele>98.6</ele>
        <time>2022-10-09T12:03:09Z</time>
      </trkpt>
      <trkpt lat="43.37205" lon="6.647">
        <ele>98.6</ele>
        <time>2022-10-09T12:03:10Z</time>
      </trkpt>
      <trkpt lat="43.37202" lon="6.64701">
        <ele>98.7</ele>
        <time>2022-10-09T12:03:11Z</time>
      </trkpt>
      <trkpt lat="43.37199" lon="6.64702">
        <ele>98.8</ele>
        <time>2022-10-09T12:03:12Z</time>
      </trkpt>
      <trkpt lat="43.37196" lon="6.64702">
        <ele>98.8</ele>
        <time>2022-10-09T12:03:13Z</time>
      </trkpt>
      <trkpt lat="43.3719" lon="6.64703">
        <ele>99</ele>
        <time>2022-10-09T12:03:15Z</time>
      </trkpt>
      <trkpt lat="43.37187" lon="6.64704">
        <ele>99.1</ele>
        <time>2022-10-09T12:03:16Z</time>
      </trkpt>
      <trkpt lat="43.37185" lon="6.64705">
        <ele>99.2</ele>
        <time>2022-10-09T12:03:17Z</time>
      </trkpt>
      <trkpt lat="43.37182" lon="6.64707">
        <ele>99.3</ele>
        <time>2022-10-09T12:03:18Z</time>
      </trkpt>
      <trkpt lat="43.37179" lon="6.64708">
        <ele>99.4</ele>
        <time>2022-10-09T12:03:19Z</time>
      </trkpt>
      <trkpt lat="43.37177" lon="6.64711">
        <ele>99.6</ele>
        <time>2022-10-09T12:03:20Z</time>
      </trkpt>
      <trkpt lat="43.37174" lon="6.64712">
        <ele>99.7</ele>
        <time>2022-10-09T12:03:21Z</time>
      </trkpt>
      <trkpt lat="43.37172" lon="6.64714">
        <ele>99.8</ele>
        <time>2022-10-09T12:03:22Z</time>
      </trkpt>
      <trkpt lat="43.37169" lon="6.64715">
        <ele>99.9</ele>
        <time>2022-10-09T12:03:23Z</time>
      </trkpt>
      <trkpt lat="43.37167" lon="6.64716">
        <ele>100</ele>
        <time>2022-10-09T12:03:24Z</time>
      </trkpt>
      <trkpt lat="43.37164" lon="6.64717">
        <ele>100.1</ele>
        <time>2022-10-09T12:03:25Z</time>
      </trkpt>
      <trkpt lat="43.37162" lon="6.64719">
        <ele>100.2</ele>
        <time>2022-10-09T12:03:26Z</time>
      </trkpt>
      <trkpt lat="43.37159" lon="6.6472">
        <ele>100.3</ele>
        <time>2022-10-09T12:03:27Z</time>
      </trkpt>
      <trkpt lat="43.37156" lon="6.64722">
        <ele>100.3</ele>
        <time>2022-10-09T12:03:28Z</time>
      </trkpt>
      <trkpt lat="43.37153" lon="6.64723">
        <ele>100.4</ele>
        <time>2022-10-09T12:03:29Z</time>
      </trkpt>
      <trkpt lat="43.3715" lon="6.64724">
        <ele>100.4</ele>
        <time>2022-10-09T12:03:30Z</time>
      </trkpt>
      <trkpt lat="43.37147" lon="6.64725">
        <ele>100.5</ele>
        <time>2022-10-09T12:03:31Z</time>
      </trkpt>
      <trkpt lat="43.37144" lon="6.64726">
        <ele>100.5</ele>
        <time>2022-10-09T12:03:32Z</time>
      </trkpt>
      <trkpt lat="43.37119" lon="6.64737">
        <ele>100.9</ele>
        <time>2022-10-09T12:03:40Z</time>
      </trkpt>
      <trkpt lat="43.37116" lon="6.64738">
        <ele>100.9</ele>
        <time>2022-10-09T12:03:41Z</time>
      </trkpt>
      <trkpt lat="43.37113" lon="6.6474">
        <ele>101</ele>
        <time>2022-10-09T12:03:42Z</time>
      </trkpt>
      <trkpt lat="43.3711" lon="6.64742">
        <ele>101</ele>
        <time>2022-10-09T12:03:43Z</time>
      </trkpt>
      <trkpt lat="43.37107" lon="6.64743">
        <ele>101.1</ele>
        <time>2022-10-09T12:03:44Z</time>
      </trkpt>
      <trkpt lat="43.37104" lon="6.64745">
        <ele>101.1</ele>
        <time>2022-10-09T12:03:45Z</time>
      </trkpt>
      <trkpt lat="43.37096" lon="6.64751">
        <ele>101.2</ele>
        <time>2022-10-09T12:03:48Z</time>
      </trkpt>
      <trkpt lat="43.37093" lon="6.64752">
        <ele>101.3</ele>
        <time>2022-10-09T12:03:49Z</time>
      </trkpt>
      <trkpt lat="43.3709" lon="6.64754">
        <ele>101.3</ele>
        <time>2022-10-09T12:03:50Z</time>
      </trkpt>
      <trkpt lat="43.37085" lon="6.64758">
        <ele>101.4</ele>
        <time>2022-10-09T12:03:52Z</time>
      </trkpt>
      <trkpt lat="43.37083" lon="6.6476">
        <ele>101.5</ele>
        <time>2022-10-09T12:03:53Z</time>
      </trkpt>
      <trkpt lat="43.3708" lon="6.64761">
        <ele>101.5</ele>
        <time>2022-10-09T12:03:54Z</time>
      </trkpt>
      <trkpt lat="43.37078" lon="6.64763">
        <ele>101.6</ele>
        <time>2022-10-09T12:03:55Z</time>
      </trkpt>
      <trkpt lat="43.37076" lon="6.64764">
        <ele>101.6</ele>
        <time>2022-10-09T12:03:56Z</time>
      </trkpt>
      <trkpt lat="43.37073" lon="6.64766">
        <ele>101.7</ele>
        <time>2022-10-09T12:03:57Z</time>
      </trkpt>
      <trkpt lat="43.37061" lon="6.64771">
        <ele>102</ele>
        <time>2022-10-09T12:04:02Z</time>
      </trkpt>
      <trkpt lat="43.37052" lon="6.64773">
        <ele>102.2</ele>
        <time>2022-10-09T12:04:05Z</time>
      </trkpt>
      <trkpt lat="43.37049" lon="6.64774">
        <ele>102.2</ele>
        <time>2022-10-09T12:04:06Z</time>
      </trkpt>
      <trkpt lat="43.37044" lon="6.64775">
        <ele>102.3</ele>
        <time>2022-10-09T12:04:08Z</time>
      </trkpt>
      <trkpt lat="43.37041" lon="6.64775">
        <ele>102.4</ele>
        <time>2022-10-09T12:04:09Z</time>
      </trkpt>
      <trkpt lat="43.37036" lon="6.64776">
        <ele>102.5</ele>
        <time>2022-10-09T12:04:11Z</time>
      </trkpt>
      <trkpt lat="43.37022" lon="6.64774">
        <ele>102.8</ele>
        <time>2022-10-09T12:04:16Z</time>
      </trkpt>
      <trkpt lat="43.36995" lon="6.64765">
        <ele>103.2</ele>
        <time>2022-10-09T12:04:25Z</time>
      </trkpt>
      <trkpt lat="43.36977" lon="6.6476">
        <ele>103.6</ele>
        <time>2022-10-09T12:04:31Z</time>
      </trkpt>
      <trkpt lat="43.36974" lon="6.64759">
        <ele>103.7</ele>
        <time>2022-10-09T12:04:32Z</time>
      </trkpt>
      <trkpt lat="43.36971" lon="6.64759">
        <ele>103.8</ele>
        <time>2022-10-09T12:04:33Z</time>
      </trkpt>
      <trkpt lat="43.36968" lon="6.64758">
        <ele>103.9</ele>
        <time>2022-10-09T12:04:34Z</time>
      </trkpt>
      <trkpt lat="43.36965" lon="6.64758">
        <ele>103.9</ele>
        <time>2022-10-09T12:04:35Z</time>
      </trkpt>
      <trkpt lat="43.36962" lon="6.64758">
        <ele>104</ele>
        <time>2022-10-09T12:04:36Z</time>
      </trkpt>
      <trkpt lat="43.36956" lon="6.64759">
        <ele>104.2</ele>
        <time>2022-10-09T12:04:38Z</time>
      </trkpt>
      <trkpt lat="43.36953" lon="6.6476">
        <ele>104.3</ele>
        <time>2022-10-09T12:04:39Z</time>
      </trkpt>
      <trkpt lat="43.36948" lon="6.64761">
        <ele>104.4</ele>
        <time>2022-10-09T12:04:41Z</time>
      </trkpt>
      <trkpt lat="43.36945" lon="6.64762">
        <ele>104.5</ele>
        <time>2022-10-09T12:04:42Z</time>
      </trkpt>
      <trkpt lat="43.36942" lon="6.64762">
        <ele>104.6</ele>
        <time>2022-10-09T12:04:43Z</time>
      </trkpt>
      <trkpt lat="43.3694" lon="6.64763">
        <ele>104.7</ele>
        <time>2022-10-09T12:04:44Z</time>
      </trkpt>
      <trkpt lat="43.36934" lon="6.64764">
        <ele>104.9</ele>
        <time>2022-10-09T12:04:46Z</time>
      </trkpt>
      <trkpt lat="43.36931" lon="6.64765">
        <ele>105</ele>
        <time>2022-10-09T12:04:47Z</time>
      </trkpt>
      <trkpt lat="43.36914" lon="6.64773">
        <ele>105.5</ele>
        <time>2022-10-09T12:04:53Z</time>
      </trkpt>
      <trkpt lat="43.36911" lon="6.64775">
        <ele>105.7</ele>
        <time>2022-10-09T12:04:54Z</time>
      </trkpt>
      <trkpt lat="43.36908" lon="6.64776">
        <ele>105.8</ele>
        <time>2022-10-09T12:04:55Z</time>
      </trkpt>
      <trkpt lat="43.36906" lon="6.64778">
        <ele>105.9</ele>
        <time>2022-10-09T12:04:56Z</time>
      </trkpt>
      <trkpt lat="43.36903" lon="6.6478">
        <ele>106</ele>
        <time>2022-10-09T12:04:57Z</time>
      </trkpt>
      <trkpt lat="43.36901" lon="6.64781">
        <ele>106.1</ele>
        <time>2022-10-09T12:04:58Z</time>
      </trkpt>
      <trkpt lat="43.36898" lon="6.64783">
        <ele>106.2</ele>
        <time>2022-10-09T12:04:59Z</time>
      </trkpt>
      <trkpt lat="43.36896" lon="6.64784">
        <ele>106.3</ele>
        <time>2022-10-09T12:05:00Z</time>
      </trkpt>
      <trkpt lat="43.36893" lon="6.64786">
        <ele>106.4</ele>
        <time>2022-10-09T12:05:01Z</time>
      </trkpt>
      <trkpt lat="43.36889" lon="6.6479">
        <ele>106.7</ele>
        <time>2022-10-09T12:05:03Z</time>
      </trkpt>
      <trkpt lat="43.36887" lon="6.64793">
        <ele>106.8</ele>
        <time>2022-10-09T12:05:04Z</time>
      </trkpt>
      <trkpt lat="43.36885" lon="6.64796">
        <ele>106.9</ele>
        <time>2022-10-09T12:05:05Z</time>
      </trkpt>
      <trkpt lat="43.36883" lon="6.648">
        <ele>107</ele>
        <time>2022-10-09T12:05:06Z</time>
      </trkpt>
      <trkpt lat="43.36875" lon="6.64814">
        <ele>107.6</ele>
        <time>2022-10-09T12:05:10Z</time>
      </trkpt>
      <trkpt lat="43.36874" lon="6.64818">
        <ele>107.7</ele>
        <time>2022-10-09T12:05:11Z</time>
      </trkpt>
      <trkpt lat="43.36874" lon="6.64822">
        <ele>107.9</ele>
        <time>2022-10-09T12:05:12Z</time>
      </trkpt>
      <trkpt lat="43.36874" lon="6.64826">
        <ele>108</ele>
        <time>2022-10-09T12:05:13Z</time>
      </trkpt>
      <trkpt lat="43.36874" lon="6.64829">
        <ele>108.1</ele>
        <time>2022-10-09T12:05:14Z</time>
      </trkpt>
      <trkpt lat="43.36873" lon="6.64832">
        <ele>108.2</ele>
        <time>2022-10-09T12:05:15Z</time>
      </trkpt>
      <trkpt lat="43.36872" lon="6.64835">
        <ele>108.3</ele>
        <time>2022-10-09T12:05:16Z</time>
      </trkpt>
      <trkpt lat="43.36872" lon="6.64838">
        <ele>108.4</ele>
        <time>2022-10-09T12:05:17Z</time>
      </trkpt>
      <trkpt lat="43.3687" lon="6.64844">
        <ele>108.6</ele>
        <time>2022-10-09T12:05:19Z</time>
      </trkpt>
      <trkpt lat="43.36869" lon="6.64846">
        <ele>108.8</ele>
        <time>2022-10-09T12:05:20Z</time>
      </trkpt>
      <trkpt lat="43.36869" lon="6.64849">
        <ele>108.8</ele>
        <time>2022-10-09T12:05:21Z</time>
      </trkpt>
      <trkpt lat="43.36868" lon="6.64852">
        <ele>108.9</ele>
        <time>2022-10-09T12:05:22Z</time>
      </trkpt>
      <trkpt lat="43.36867" lon="6.64854">
        <ele>109</ele>
        <time>2022-10-09T12:05:23Z</time>
      </trkpt>
      <trkpt lat="43.36866" lon="6.64856">
        <ele>109.1</ele>
        <time>2022-10-09T12:05:24Z</time>
      </trkpt>
      <trkpt lat="43.36865" lon="6.64857">
        <ele>109.2</ele>
        <time>2022-10-09T12:05:25Z</time>
      </trkpt>
      <trkpt lat="43.36863" lon="6.64858">
        <ele>109.3</ele>
        <time>2022-10-09T12:05:26Z</time>
      </trkpt>
      <trkpt lat="43.36861" lon="6.6486">
        <ele>109.4</ele>
        <time>2022-10-09T12:05:27Z</time>
      </trkpt>
      <trkpt lat="43.36859" lon="6.64861">
        <ele>109.5</ele>
        <time>2022-10-09T12:05:28Z</time>
      </trkpt>
      <trkpt lat="43.36857" lon="6.64862">
        <ele>109.6</ele>
        <time>2022-10-09T12:05:29Z</time>
      </trkpt>
      <trkpt lat="43.36854" lon="6.64862">
        <ele>109.7</ele>
        <time>2022-10-09T12:05:30Z</time>
      </trkpt>
      <trkpt lat="43.36852" lon="6.64862">
        <ele>109.8</ele>
        <time>2022-10-09T12:05:31Z</time>
      </trkpt>
      <trkpt lat="43.36849" lon="6.64863">
        <ele>109.8</ele>
        <time>2022-10-09T12:05:32Z</time>
      </trkpt>
      <trkpt lat="43.36846" lon="6.64863">
        <ele>109.9</ele>
        <time>2022-10-09T12:05:33Z</time>
      </trkpt>
      <trkpt lat="43.36843" lon="6.64863">
        <ele>110</ele>
        <time>2022-10-09T12:05:34Z</time>
      </trkpt>
      <trkpt lat="43.3684" lon="6.64864">
        <ele>110</ele>
        <time>2022-10-09T12:05:35Z</time>
      </trkpt>
      <trkpt lat="43.36837" lon="6.64865">
        <ele>110.1</ele>
        <time>2022-10-09T12:05:36Z</time>
      </trkpt>
      <trkpt lat="43.36833" lon="6.64866">
        <ele>110.2</ele>
        <time>2022-10-09T12:05:37Z</time>
      </trkpt>
      <trkpt lat="43.3683" lon="6.64867">
        <ele>110.2</ele>
        <time>2022-10-09T12:05:38Z</time>
      </trkpt>
      <trkpt lat="43.36827" lon="6.64868">
        <ele>110.3</ele>
        <time>2022-10-09T12:05:39Z</time>
      </trkpt>
      <trkpt lat="43.36824" lon="6.64869">
        <ele>110.4</ele>
        <time>2022-10-09T12:05:40Z</time>
      </trkpt>
      <trkpt lat="43.36821" lon="6.64871">
        <ele>110.4</ele>
        <time>2022-10-09T12:05:41Z</time>
      </trkpt>
      <trkpt lat="43.36818" lon="6.64872">
        <ele>110.5</ele>
        <time>2022-10-09T12:05:42Z</time>
      </trkpt>
      <trkpt lat="43.36815" lon="6.64872">
        <ele>110.6</ele>
        <time>2022-10-09T12:05:43Z</time>
      </trkpt>
      <trkpt lat="43.36812" lon="6.64873">
        <ele>110.6</ele>
        <time>2022-10-09T12:05:44Z</time>
      </trkpt>
      <trkpt lat="43.3681" lon="6.64874">
        <ele>110.7</ele>
        <time>2022-10-09T12:05:45Z</time>
      </trkpt>
      <trkpt lat="43.36804" lon="6.64875">
        <ele>110.8</ele>
        <time>2022-10-09T12:05:47Z</time>
      </trkpt>
      <trkpt lat="43.36802" lon="6.64876">
        <ele>110.9</ele>
        <time>2022-10-09T12:05:48Z</time>
      </trkpt>
      <trkpt lat="43.36799" lon="6.64877">
        <ele>111</ele>
        <time>2022-10-09T12:05:49Z</time>
      </trkpt>
      <trkpt lat="43.36796" lon="6.64877">
        <ele>111.1</ele>
        <time>2022-10-09T12:05:50Z</time>
      </trkpt>
      <trkpt lat="43.36794" lon="6.64877">
        <ele>111.1</ele>
        <time>2022-10-09T12:05:51Z</time>
      </trkpt>
      <trkpt lat="43.36789" lon="6.64878">
        <ele>111.3</ele>
        <time>2022-10-09T12:05:53Z</time>
      </trkpt>
      <trkpt lat="43.3678" lon="6.64879">
        <ele>111.5</ele>
        <time>2022-10-09T12:05:56Z</time>
      </trkpt>
      <trkpt lat="43.36775" lon="6.6488">
        <ele>111.7</ele>
        <time>2022-10-09T12:05:58Z</time>
      </trkpt>
      <trkpt lat="43.36767" lon="6.6488">
        <ele>111.9</ele>
        <time>2022-10-09T12:06:01Z</time>
      </trkpt>
      <trkpt lat="43.36749" lon="6.6488">
        <ele>112.3</ele>
        <time>2022-10-09T12:06:07Z</time>
      </trkpt>
      <trkpt lat="43.36747" lon="6.6488">
        <ele>112.3</ele>
        <time>2022-10-09T12:06:08Z</time>
      </trkpt>
      <trkpt lat="43.36744" lon="6.6488">
        <ele>112.4</ele>
        <time>2022-10-09T12:06:09Z</time>
      </trkpt>
      <trkpt lat="43.36735" lon="6.64882">
        <ele>112.6</ele>
        <time>2022-10-09T12:06:12Z</time>
      </trkpt>
      <trkpt lat="43.36722" lon="6.64886">
        <ele>113</ele>
        <time>2022-10-09T12:06:17Z</time>
      </trkpt>
      <trkpt lat="43.36716" lon="6.64888">
        <ele>113.3</ele>
        <time>2022-10-09T12:06:19Z</time>
      </trkpt>
      <trkpt lat="43.36714" lon="6.64889">
        <ele>113.4</ele>
        <time>2022-10-09T12:06:20Z</time>
      </trkpt>
      <trkpt lat="43.36711" lon="6.6489">
        <ele>113.5</ele>
        <time>2022-10-09T12:06:21Z</time>
      </trkpt>
      <trkpt lat="43.36709" lon="6.64891">
        <ele>113.6</ele>
        <time>2022-10-09T12:06:22Z</time>
      </trkpt>
      <trkpt lat="43.36702" lon="6.64895">
        <ele>114</ele>
        <time>2022-10-09T12:06:25Z</time>
      </trkpt>
      <trkpt lat="43.36692" lon="6.649">
        <ele>114.5</ele>
        <time>2022-10-09T12:06:29Z</time>
      </trkpt>
      <trkpt lat="43.36689" lon="6.64901">
        <ele>114.6</ele>
        <time>2022-10-09T12:06:30Z</time>
      </trkpt>
      <trkpt lat="43.36686" lon="6.64902">
        <ele>114.7</ele>
        <time>2022-10-09T12:06:31Z</time>
      </trkpt>
      <trkpt lat="43.36684" lon="6.64904">
        <ele>114.9</ele>
        <time>2022-10-09T12:06:32Z</time>
      </trkpt>
      <trkpt lat="43.36681" lon="6.64905">
        <ele>115</ele>
        <time>2022-10-09T12:06:33Z</time>
      </trkpt>
      <trkpt lat="43.36678" lon="6.64906">
        <ele>115.1</ele>
        <time>2022-10-09T12:06:34Z</time>
      </trkpt>
      <trkpt lat="43.36675" lon="6.64907">
        <ele>115.3</ele>
        <time>2022-10-09T12:06:35Z</time>
      </trkpt>
      <trkpt lat="43.36673" lon="6.64908">
        <ele>115.4</ele>
        <time>2022-10-09T12:06:36Z</time>
      </trkpt>
      <trkpt lat="43.3667" lon="6.64909">
        <ele>115.5</ele>
        <time>2022-10-09T12:06:37Z</time>
      </trkpt>
      <trkpt lat="43.36667" lon="6.64911">
        <ele>115.6</ele>
        <time>2022-10-09T12:06:38Z</time>
      </trkpt>
      <trkpt lat="43.36665" lon="6.64912">
        <ele>115.7</ele>
        <time>2022-10-09T12:06:39Z</time>
      </trkpt>
      <trkpt lat="43.36662" lon="6.64913">
        <ele>115.8</ele>
        <time>2022-10-09T12:06:40Z</time>
      </trkpt>
      <trkpt lat="43.3666" lon="6.64914">
        <ele>115.9</ele>
        <time>2022-10-09T12:06:41Z</time>
      </trkpt>
      <trkpt lat="43.36657" lon="6.64915">
        <ele>116</ele>
        <time>2022-10-09T12:06:42Z</time>
      </trkpt>
      <trkpt lat="43.36655" lon="6.64917">
        <ele>116.1</ele>
        <time>2022-10-09T12:06:43Z</time>
      </trkpt>
      <trkpt lat="43.36652" lon="6.64918">
        <ele>116.2</ele>
        <time>2022-10-09T12:06:44Z</time>
      </trkpt>
      <trkpt lat="43.36649" lon="6.64919">
        <ele>116.3</ele>
        <time>2022-10-09T12:06:45Z</time>
      </trkpt>
      <trkpt lat="43.36647" lon="6.64921">
        <ele>116.4</ele>
        <time>2022-10-09T12:06:46Z</time>
      </trkpt>
      <trkpt lat="43.36644" lon="6.64923">
        <ele>116.5</ele>
        <time>2022-10-09T12:06:47Z</time>
      </trkpt>
      <trkpt lat="43.36641" lon="6.64924">
        <ele>116.5</ele>
        <time>2022-10-09T12:06:48Z</time>
      </trkpt>
      <trkpt lat="43.36638" lon="6.64926">
        <ele>116.6</ele>
        <time>2022-10-09T12:06:49Z</time>
      </trkpt>
      <trkpt lat="43.36634" lon="6.64928">
        <ele>116.7</ele>
        <time>2022-10-09T12:06:50Z</time>
      </trkpt>
      <trkpt lat="43.36631" lon="6.64929">
        <ele>116.8</ele>
        <time>2022-10-09T12:06:51Z</time>
      </trkpt>
      <trkpt lat="43.36628" lon="6.64931">
        <ele>116.8</ele>
        <time>2022-10-09T12:06:52Z</time>
      </trkpt>
      <trkpt lat="43.36618" lon="6.64936">
        <ele>117</ele>
        <time>2022-10-09T12:06:55Z</time>
      </trkpt>
      <trkpt lat="43.36615" lon="6.64937">
        <ele>117.1</ele>
        <time>2022-10-09T12:06:56Z</time>
      </trkpt>
      <trkpt lat="43.36609" lon="6.64941">
        <ele>117.2</ele>
        <time>2022-10-09T12:06:58Z</time>
      </trkpt>
      <trkpt lat="43.36606" lon="6.64943">
        <ele>117.3</ele>
        <time>2022-10-09T12:06:59Z</time>
      </trkpt>
      <trkpt lat="43.36603" lon="6.64945">
        <ele>117.3</ele>
        <time>2022-10-09T12:07:00Z</time>
      </trkpt>
      <trkpt lat="43.36595" lon="6.64953">
        <ele>117.5</ele>
        <time>2022-10-09T12:07:03Z</time>
      </trkpt>
      <trkpt lat="43.36592" lon="6.64955">
        <ele>117.6</ele>
        <time>2022-10-09T12:07:04Z</time>
      </trkpt>
      <trkpt lat="43.3659" lon="6.64957">
        <ele>117.7</ele>
        <time>2022-10-09T12:07:05Z</time>
      </trkpt>
      <trkpt lat="43.36585" lon="6.64961">
        <ele>117.9</ele>
        <time>2022-10-09T12:07:07Z</time>
      </trkpt>
      <trkpt lat="43.36582" lon="6.64963">
        <ele>118.1</ele>
        <time>2022-10-09T12:07:08Z</time>
      </trkpt>
      <trkpt lat="43.3658" lon="6.64966">
        <ele>118.2</ele>
        <time>2022-10-09T12:07:09Z</time>
      </trkpt>
      <trkpt lat="43.36579" lon="6.64968">
        <ele>118.4</ele>
        <time>2022-10-09T12:07:10Z</time>
      </trkpt>
      <trkpt lat="43.36577" lon="6.64971">
        <ele>118.6</ele>
        <time>2022-10-09T12:07:11Z</time>
      </trkpt>
      <trkpt lat="43.36575" lon="6.64973">
        <ele>118.7</ele>
        <time>2022-10-09T12:07:12Z</time>
      </trkpt>
      <trkpt lat="43.36571" lon="6.64978">
        <ele>119.1</ele>
        <time>2022-10-09T12:07:14Z</time>
      </trkpt>
      <trkpt lat="43.3657" lon="6.64981">
        <ele>119.2</ele>
        <time>2022-10-09T12:07:15Z</time>
      </trkpt>
      <trkpt lat="43.36569" lon="6.64984">
        <ele>119.4</ele>
        <time>2022-10-09T12:07:16Z</time>
      </trkpt>
      <trkpt lat="43.36568" lon="6.64987">
        <ele>119.5</ele>
        <time>2022-10-09T12:07:17Z</time>
      </trkpt>
      <trkpt lat="43.36568" lon="6.6499">
        <ele>119.7</ele>
        <time>2022-10-09T12:07:18Z</time>
      </trkpt>
      <trkpt lat="43.36567" lon="6.64993">
        <ele>119.8</ele>
        <time>2022-10-09T12:07:19Z</time>
      </trkpt>
      <trkpt lat="43.36568" lon="6.64997">
        <ele>119.9</ele>
        <time>2022-10-09T12:07:20Z</time>
      </trkpt>
      <trkpt lat="43.36568" lon="6.65">
        <ele>120</ele>
        <time>2022-10-09T12:07:21Z</time>
      </trkpt>
      <trkpt lat="43.36568" lon="6.65004">
        <ele>120.1</ele>
        <time>2022-10-09T12:07:22Z</time>
      </trkpt>
      <trkpt lat="43.36568" lon="6.65008">
        <ele>120.2</ele>
        <time>2022-10-09T12:07:23Z</time>
      </trkpt>
      <trkpt lat="43.36568" lon="6.65012">
        <ele>120.3</ele>
        <time>2022-10-09T12:07:24Z</time>
      </trkpt>
      <trkpt lat="43.36568" lon="6.65016">
        <ele>120.3</ele>
        <time>2022-10-09T12:07:25Z</time>
      </trkpt>
      <trkpt lat="43.36568" lon="6.6502">
        <ele>120.4</ele>
        <time>2022-10-09T12:07:26Z</time>
      </trkpt>
      <trkpt lat="43.36568" lon="6.65024">
        <ele>120.5</ele>
        <time>2022-10-09T12:07:27Z</time>
      </trkpt>
      <trkpt lat="43.36568" lon="6.65028">
        <ele>120.5</ele>
        <time>2022-10-09T12:07:28Z</time>
      </trkpt>
      <trkpt lat="43.36568" lon="6.65032">
        <ele>120.6</ele>
        <time>2022-10-09T12:07:29Z</time>
      </trkpt>
      <trkpt lat="43.36568" lon="6.65036">
        <ele>120.6</ele>
        <time>2022-10-09T12:07:30Z</time>
      </trkpt>
      <trkpt lat="43.36568" lon="6.6504">
        <ele>120.7</ele>
        <time>2022-10-09T12:07:31Z</time>
      </trkpt>
      <trkpt lat="43.36569" lon="6.65044">
        <ele>120.7</ele>
        <time>2022-10-09T12:07:32Z</time>
      </trkpt>
      <trkpt lat="43.36569" lon="6.65048">
        <ele>120.8</ele>
        <time>2022-10-09T12:07:33Z</time>
      </trkpt>
      <trkpt lat="43.36569" lon="6.65052">
        <ele>120.9</ele>
        <time>2022-10-09T12:07:34Z</time>
      </trkpt>
      <trkpt lat="43.3657" lon="6.6506">
        <ele>121</ele>
        <time>2022-10-09T12:07:36Z</time>
      </trkpt>
      <trkpt lat="43.36571" lon="6.65067">
        <ele>121.1</ele>
        <time>2022-10-09T12:07:38Z</time>
      </trkpt>
      <trkpt lat="43.36571" lon="6.65071">
        <ele>121.1</ele>
        <time>2022-10-09T12:07:39Z</time>
      </trkpt>
      <trkpt lat="43.36572" lon="6.65088">
        <ele>121.3</ele>
        <time>2022-10-09T12:07:43Z</time>
      </trkpt>
      <trkpt lat="43.36573" lon="6.65092">
        <ele>121.4</ele>
        <time>2022-10-09T12:07:44Z</time>
      </trkpt>
      <trkpt lat="43.36573" lon="6.65096">
        <ele>121.4</ele>
        <time>2022-10-09T12:07:45Z</time>
      </trkpt>
      <trkpt lat="43.36574" lon="6.651">
        <ele>121.5</ele>
        <time>2022-10-09T12:07:46Z</time>
      </trkpt>
      <trkpt lat="43.36575" lon="6.65103">
        <ele>121.6</ele>
        <time>2022-10-09T12:07:47Z</time>
      </trkpt>
      <trkpt lat="43.36578" lon="6.65111">
        <ele>121.7</ele>
        <time>2022-10-09T12:07:49Z</time>
      </trkpt>
      <trkpt lat="43.36581" lon="6.65118">
        <ele>121.9</ele>
        <time>2022-10-09T12:07:51Z</time>
      </trkpt>
      <trkpt lat="43.36582" lon="6.65121">
        <ele>122</ele>
        <time>2022-10-09T12:07:52Z</time>
      </trkpt>
      <trkpt lat="43.36585" lon="6.65132">
        <ele>122.3</ele>
        <time>2022-10-09T12:07:55Z</time>
      </trkpt>
      <trkpt lat="43.36586" lon="6.6514">
        <ele>122.5</ele>
        <time>2022-10-09T12:07:57Z</time>
      </trkpt>
      <trkpt lat="43.36587" lon="6.65144">
        <ele>122.6</ele>
        <time>2022-10-09T12:07:58Z</time>
      </trkpt>
      <trkpt lat="43.36587" lon="6.65147">
        <ele>122.7</ele>
        <time>2022-10-09T12:07:59Z</time>
      </trkpt>
      <trkpt lat="43.36588" lon="6.65151">
        <ele>122.8</ele>
        <time>2022-10-09T12:08:00Z</time>
      </trkpt>
      <trkpt lat="43.36588" lon="6.65157">
        <ele>123.1</ele>
        <time>2022-10-09T12:08:02Z</time>
      </trkpt>
      <trkpt lat="43.36589" lon="6.65161">
        <ele>123.2</ele>
        <time>2022-10-09T12:08:03Z</time>
      </trkpt>
      <trkpt lat="43.36589" lon="6.65164">
        <ele>123.3</ele>
        <time>2022-10-09T12:08:04Z</time>
      </trkpt>
      <trkpt lat="43.36589" lon="6.65168">
        <ele>123.5</ele>
        <time>2022-10-09T12:08:05Z</time>
      </trkpt>
      <trkpt lat="43.36589" lon="6.65172">
        <ele>123.6</ele>
        <time>2022-10-09T12:08:06Z</time>
      </trkpt>
      <trkpt lat="43.36589" lon="6.65176">
        <ele>123.8</ele>
        <time>2022-10-09T12:08:07Z</time>
      </trkpt>
      <trkpt lat="43.3659" lon="6.6518">
        <ele>123.9</ele>
        <time>2022-10-09T12:08:08Z</time>
      </trkpt>
      <trkpt lat="43.3659" lon="6.65184">
        <ele>124</ele>
        <time>2022-10-09T12:08:09Z</time>
      </trkpt>
      <trkpt lat="43.3659" lon="6.65188">
        <ele>124.1</ele>
        <time>2022-10-09T12:08:10Z</time>
      </trkpt>
      <trkpt lat="43.36591" lon="6.65192">
        <ele>124.2</ele>
        <time>2022-10-09T12:08:11Z</time>
      </trkpt>
      <trkpt lat="43.36591" lon="6.65196">
        <ele>124.3</ele>
        <time>2022-10-09T12:08:12Z</time>
      </trkpt>
      <trkpt lat="43.36591" lon="6.65201">
        <ele>124.4</ele>
        <time>2022-10-09T12:08:13Z</time>
      </trkpt>
      <trkpt lat="43.36591" lon="6.65205">
        <ele>124.5</ele>
        <time>2022-10-09T12:08:14Z</time>
      </trkpt>
      <trkpt lat="43.3659" lon="6.6521">
        <ele>124.6</ele>
        <time>2022-10-09T12:08:15Z</time>
      </trkpt>
      <trkpt lat="43.3659" lon="6.65214">
        <ele>124.7</ele>
        <time>2022-10-09T12:08:16Z</time>
      </trkpt>
      <trkpt lat="43.3659" lon="6.65219">
        <ele>124.7</ele>
        <time>2022-10-09T12:08:17Z</time>
      </trkpt>
      <trkpt lat="43.36589" lon="6.65223">
        <ele>124.8</ele>
        <time>2022-10-09T12:08:18Z</time>
      </trkpt>
      <trkpt lat="43.36589" lon="6.65227">
        <ele>124.9</ele>
        <time>2022-10-09T12:08:19Z</time>
      </trkpt>
      <trkpt lat="43.36589" lon="6.65231">
        <ele>125</ele>
        <time>2022-10-09T12:08:20Z</time>
      </trkpt>
      <trkpt lat="43.36589" lon="6.65236">
        <ele>125.1</ele>
        <time>2022-10-09T12:08:21Z</time>
      </trkpt>
      <trkpt lat="43.36588" lon="6.6524">
        <ele>125.2</ele>
        <time>2022-10-09T12:08:22Z</time>
      </trkpt>
      <trkpt lat="43.36588" lon="6.65243">
        <ele>125.3</ele>
        <time>2022-10-09T12:08:23Z</time>
      </trkpt>
      <trkpt lat="43.36588" lon="6.65247">
        <ele>125.4</ele>
        <time>2022-10-09T12:08:24Z</time>
      </trkpt>
      <trkpt lat="43.36587" lon="6.65251">
        <ele>125.5</ele>
        <time>2022-10-09T12:08:25Z</time>
      </trkpt>
      <trkpt lat="43.36587" lon="6.65255">
        <ele>125.6</ele>
        <time>2022-10-09T12:08:26Z</time>
      </trkpt>
      <trkpt lat="43.36587" lon="6.65258">
        <ele>125.7</ele>
        <time>2022-10-09T12:08:27Z</time>
      </trkpt>
      <trkpt lat="43.36586" lon="6.65262">
        <ele>125.8</ele>
        <time>2022-10-09T12:08:28Z</time>
      </trkpt>
      <trkpt lat="43.36586" lon="6.65273">
        <ele>126.1</ele>
        <time>2022-10-09T12:08:31Z</time>
      </trkpt>
      <trkpt lat="43.36585" lon="6.65277">
        <ele>126.2</ele>
        <time>2022-10-09T12:08:32Z</time>
      </trkpt>
      <trkpt lat="43.36585" lon="6.65281">
        <ele>126.4</ele>
        <time>2022-10-09T12:08:33Z</time>
      </trkpt>
      <trkpt lat="43.36586" lon="6.65292">
        <ele>126.7</ele>
        <time>2022-10-09T12:08:36Z</time>
      </trkpt>
      <trkpt lat="43.36586" lon="6.65295">
        <ele>126.9</ele>
        <time>2022-10-09T12:08:37Z</time>
      </trkpt>
      <trkpt lat="43.36586" lon="6.65299">
        <ele>127</ele>
        <time>2022-10-09T12:08:38Z</time>
      </trkpt>
      <trkpt lat="43.36587" lon="6.65302">
        <ele>127.1</ele>
        <time>2022-10-09T12:08:39Z</time>
      </trkpt>
      <trkpt lat="43.36588" lon="6.65305">
        <ele>127.2</ele>
        <time>2022-10-09T12:08:40Z</time>
      </trkpt>
      <trkpt lat="43.36589" lon="6.65308">
        <ele>127.3</ele>
        <time>2022-10-09T12:08:41Z</time>
      </trkpt>
      <trkpt lat="43.3659" lon="6.65311">
        <ele>127.4</ele>
        <time>2022-10-09T12:08:42Z</time>
      </trkpt>
      <trkpt lat="43.36591" lon="6.65314">
        <ele>127.5</ele>
        <time>2022-10-09T12:08:43Z</time>
      </trkpt>
      <trkpt lat="43.36592" lon="6.65317">
        <ele>127.6</ele>
        <time>2022-10-09T12:08:44Z</time>
      </trkpt>
      <trkpt lat="43.36594" lon="6.6532">
        <ele>127.7</ele>
        <time>2022-10-09T12:08:45Z</time>
      </trkpt>
      <trkpt lat="43.36595" lon="6.65323">
        <ele>127.8</ele>
        <time>2022-10-09T12:08:46Z</time>
      </trkpt>
      <trkpt lat="43.36596" lon="6.65326">
        <ele>127.9</ele>
        <time>2022-10-09T12:08:47Z</time>
      </trkpt>
      <trkpt lat="43.36597" lon="6.65329">
        <ele>127.9</ele>
        <time>2022-10-09T12:08:48Z</time>
      </trkpt>
      <trkpt lat="43.36598" lon="6.65333">
        <ele>128</ele>
        <time>2022-10-09T12:08:49Z</time>
      </trkpt>
      <trkpt lat="43.36598" lon="6.65337">
        <ele>128.1</ele>
        <time>2022-10-09T12:08:50Z</time>
      </trkpt>
      <trkpt lat="43.36598" lon="6.65342">
        <ele>128.2</ele>
        <time>2022-10-09T12:08:51Z</time>
      </trkpt>
      <trkpt lat="43.36598" lon="6.65346">
        <ele>128.3</ele>
        <time>2022-10-09T12:08:52Z</time>
      </trkpt>
      <trkpt lat="43.36598" lon="6.65351">
        <ele>128.3</ele>
        <time>2022-10-09T12:08:53Z</time>
      </trkpt>
      <trkpt lat="43.36598" lon="6.65356">
        <ele>128.4</ele>
        <time>2022-10-09T12:08:54Z</time>
      </trkpt>
      <trkpt lat="43.36598" lon="6.6536">
        <ele>128.5</ele>
        <time>2022-10-09T12:08:55Z</time>
      </trkpt>
      <trkpt lat="43.36598" lon="6.65365">
        <ele>128.6</ele>
        <time>2022-10-09T12:08:56Z</time>
      </trkpt>
      <trkpt lat="43.36598" lon="6.6537">
        <ele>128.6</ele>
        <time>2022-10-09T12:08:57Z</time>
      </trkpt>
      <trkpt lat="43.36598" lon="6.6538">
        <ele>128.8</ele>
        <time>2022-10-09T12:08:59Z</time>
      </trkpt>
      <trkpt lat="43.36598" lon="6.6539">
        <ele>129</ele>
        <time>2022-10-09T12:09:01Z</time>
      </trkpt>
      <trkpt lat="43.36598" lon="6.65394">
        <ele>129.2</ele>
        <time>2022-10-09T12:09:02Z</time>
      </trkpt>
      <trkpt lat="43.36598" lon="6.65399">
        <ele>129.3</ele>
        <time>2022-10-09T12:09:03Z</time>
      </trkpt>
      <trkpt lat="43.36599" lon="6.65403">
        <ele>129.3</ele>
        <time>2022-10-09T12:09:04Z</time>
      </trkpt>
      <trkpt lat="43.36599" lon="6.65411">
        <ele>129.5</ele>
        <time>2022-10-09T12:09:06Z</time>
      </trkpt>
      <trkpt lat="43.36599" lon="6.65416">
        <ele>129.6</ele>
        <time>2022-10-09T12:09:07Z</time>
      </trkpt>
      <trkpt lat="43.36599" lon="6.6542">
        <ele>129.7</ele>
        <time>2022-10-09T12:09:08Z</time>
      </trkpt>
      <trkpt lat="43.36599" lon="6.65444">
        <ele>130</ele>
        <time>2022-10-09T12:09:13Z</time>
      </trkpt>
      <trkpt lat="43.36599" lon="6.65449">
        <ele>130.1</ele>
        <time>2022-10-09T12:09:14Z</time>
      </trkpt>
      <trkpt lat="43.366" lon="6.65454">
        <ele>130.2</ele>
        <time>2022-10-09T12:09:15Z</time>
      </trkpt>
      <trkpt lat="43.366" lon="6.65459">
        <ele>130.3</ele>
        <time>2022-10-09T12:09:16Z</time>
      </trkpt>
      <trkpt lat="43.36602" lon="6.65467">
        <ele>130.6</ele>
        <time>2022-10-09T12:09:18Z</time>
      </trkpt>
      <trkpt lat="43.36603" lon="6.65471">
        <ele>130.8</ele>
        <time>2022-10-09T12:09:19Z</time>
      </trkpt>
      <trkpt lat="43.36604" lon="6.65475">
        <ele>130.9</ele>
        <time>2022-10-09T12:09:20Z</time>
      </trkpt>
      <trkpt lat="43.36606" lon="6.65478">
        <ele>131.1</ele>
        <time>2022-10-09T12:09:21Z</time>
      </trkpt>
      <trkpt lat="43.36607" lon="6.65481">
        <ele>131.3</ele>
        <time>2022-10-09T12:09:22Z</time>
      </trkpt>
      <trkpt lat="43.36608" lon="6.65484">
        <ele>131.4</ele>
        <time>2022-10-09T12:09:23Z</time>
      </trkpt>
      <trkpt lat="43.36608" lon="6.65487">
        <ele>131.6</ele>
        <time>2022-10-09T12:09:24Z</time>
      </trkpt>
      <trkpt lat="43.36609" lon="6.65491">
        <ele>131.8</ele>
        <time>2022-10-09T12:09:25Z</time>
      </trkpt>
      <trkpt lat="43.36609" lon="6.65494">
        <ele>132</ele>
        <time>2022-10-09T12:09:26Z</time>
      </trkpt>
      <trkpt lat="43.3661" lon="6.65497">
        <ele>132.2</ele>
        <time>2022-10-09T12:09:27Z</time>
      </trkpt>
      <trkpt lat="43.36611" lon="6.65499">
        <ele>132.4</ele>
        <time>2022-10-09T12:09:28Z</time>
      </trkpt>
      <trkpt lat="43.36611" lon="6.65502">
        <ele>132.6</ele>
        <time>2022-10-09T12:09:29Z</time>
      </trkpt>
      <trkpt lat="43.36612" lon="6.65505">
        <ele>132.8</ele>
        <time>2022-10-09T12:09:30Z</time>
      </trkpt>
      <trkpt lat="43.36613" lon="6.65507">
        <ele>133</ele>
        <time>2022-10-09T12:09:31Z</time>
      </trkpt>
      <trkpt lat="43.36613" lon="6.65509">
        <ele>133.2</ele>
        <time>2022-10-09T12:09:32Z</time>
      </trkpt>
      <trkpt lat="43.36614" lon="6.65511">
        <ele>133.3</ele>
        <time>2022-10-09T12:09:33Z</time>
      </trkpt>
      <trkpt lat="43.36614" lon="6.65513">
        <ele>133.5</ele>
        <time>2022-10-09T12:09:34Z</time>
      </trkpt>
      <trkpt lat="43.36615" lon="6.65514">
        <ele>133.6</ele>
        <time>2022-10-09T12:09:35Z</time>
      </trkpt>
      <trkpt lat="43.36616" lon="6.65516">
        <ele>133.8</ele>
        <time>2022-10-09T12:09:36Z</time>
      </trkpt>
      <trkpt lat="43.36616" lon="6.65518">
        <ele>134</ele>
        <time>2022-10-09T12:09:37Z</time>
      </trkpt>
      <trkpt lat="43.36616" lon="6.6552">
        <ele>134.1</ele>
        <time>2022-10-09T12:09:38Z</time>
      </trkpt>
      <trkpt lat="43.36616" lon="6.65523">
        <ele>134.3</ele>
        <time>2022-10-09T12:09:39Z</time>
      </trkpt>
      <trkpt lat="43.36617" lon="6.65525">
        <ele>134.4</ele>
        <time>2022-10-09T12:09:40Z</time>
      </trkpt>
      <trkpt lat="43.36617" lon="6.65528">
        <ele>134.6</ele>
        <time>2022-10-09T12:09:41Z</time>
      </trkpt>
      <trkpt lat="43.36617" lon="6.6553">
        <ele>134.7</ele>
        <time>2022-10-09T12:09:42Z</time>
      </trkpt>
      <trkpt lat="43.36617" lon="6.65533">
        <ele>134.9</ele>
        <time>2022-10-09T12:09:43Z</time>
      </trkpt>
      <trkpt lat="43.36617" lon="6.65536">
        <ele>135</ele>
        <time>2022-10-09T12:09:44Z</time>
      </trkpt>
      <trkpt lat="43.36616" lon="6.65538">
        <ele>135.1</ele>
        <time>2022-10-09T12:09:45Z</time>
      </trkpt>
      <trkpt lat="43.36616" lon="6.65541">
        <ele>135.2</ele>
        <time>2022-10-09T12:09:46Z</time>
      </trkpt>
      <trkpt lat="43.36615" lon="6.65544">
        <ele>135.3</ele>
        <time>2022-10-09T12:09:47Z</time>
      </trkpt>
      <trkpt lat="43.36615" lon="6.65547">
        <ele>135.4</ele>
        <time>2022-10-09T12:09:48Z</time>
      </trkpt>
      <trkpt lat="43.36614" lon="6.6555">
        <ele>135.4</ele>
        <time>2022-10-09T12:09:49Z</time>
      </trkpt>
      <trkpt lat="43.36613" lon="6.65554">
        <ele>135.5</ele>
        <time>2022-10-09T12:09:50Z</time>
      </trkpt>
      <trkpt lat="43.36613" lon="6.65557">
        <ele>135.6</ele>
        <time>2022-10-09T12:09:51Z</time>
      </trkpt>
      <trkpt lat="43.36613" lon="6.65561">
        <ele>135.6</ele>
        <time>2022-10-09T12:09:52Z</time>
      </trkpt>
      <trkpt lat="43.36612" lon="6.65565">
        <ele>135.7</ele>
        <time>2022-10-09T12:09:53Z</time>
      </trkpt>
      <trkpt lat="43.36612" lon="6.6557">
        <ele>135.8</ele>
        <time>2022-10-09T12:09:54Z</time>
      </trkpt>
      <trkpt lat="43.36613" lon="6.65574">
        <ele>135.8</ele>
        <time>2022-10-09T12:09:55Z</time>
      </trkpt>
      <trkpt lat="43.36613" lon="6.65579">
        <ele>135.9</ele>
        <time>2022-10-09T12:09:56Z</time>
      </trkpt>
      <trkpt lat="43.36613" lon="6.65585">
        <ele>136</ele>
        <time>2022-10-09T12:09:57Z</time>
      </trkpt>
      <trkpt lat="43.36613" lon="6.65591">
        <ele>136.2</ele>
        <time>2022-10-09T12:09:58Z</time>
      </trkpt>
      <trkpt lat="43.36614" lon="6.65596">
        <ele>136.4</ele>
        <time>2022-10-09T12:09:59Z</time>
      </trkpt>
      <trkpt lat="43.36615" lon="6.656">
        <ele>136.6</ele>
        <time>2022-10-09T12:10:00Z</time>
      </trkpt>
      <trkpt lat="43.36617" lon="6.65603">
        <ele>136.8</ele>
        <time>2022-10-09T12:10:01Z</time>
      </trkpt>
      <trkpt lat="43.36618" lon="6.65605">
        <ele>136.9</ele>
        <time>2022-10-09T12:10:02Z</time>
      </trkpt>
      <trkpt lat="43.36619" lon="6.65608">
        <ele>137.1</ele>
        <time>2022-10-09T12:10:03Z</time>
      </trkpt>
      <trkpt lat="43.3662" lon="6.6561">
        <ele>137.2</ele>
        <time>2022-10-09T12:10:04Z</time>
      </trkpt>
      <trkpt lat="43.36621" lon="6.65612">
        <ele>137.3</ele>
        <time>2022-10-09T12:10:05Z</time>
      </trkpt>
      <trkpt lat="43.36622" lon="6.65614">
        <ele>137.5</ele>
        <time>2022-10-09T12:10:06Z</time>
      </trkpt>
      <trkpt lat="43.36623" lon="6.65615">
        <ele>137.6</ele>
        <time>2022-10-09T12:10:07Z</time>
      </trkpt>
      <trkpt lat="43.36624" lon="6.65617">
        <ele>137.7</ele>
        <time>2022-10-09T12:10:08Z</time>
      </trkpt>
      <trkpt lat="43.36625" lon="6.65619">
        <ele>137.9</ele>
        <time>2022-10-09T12:10:09Z</time>
      </trkpt>
      <trkpt lat="43.36625" lon="6.6562">
        <ele>138</ele>
        <time>2022-10-09T12:10:10Z</time>
      </trkpt>
      <trkpt lat="43.36626" lon="6.65622">
        <ele>138.1</ele>
        <time>2022-10-09T12:10:11Z</time>
      </trkpt>
      <trkpt lat="43.36627" lon="6.65624">
        <ele>138.2</ele>
        <time>2022-10-09T12:10:12Z</time>
      </trkpt>
      <trkpt lat="43.36628" lon="6.65626">
        <ele>138.4</ele>
        <time>2022-10-09T12:10:13Z</time>
      </trkpt>
      <trkpt lat="43.36629" lon="6.65628">
        <ele>138.5</ele>
        <time>2022-10-09T12:10:14Z</time>
      </trkpt>
      <trkpt lat="43.36629" lon="6.6563">
        <ele>138.6</ele>
        <time>2022-10-09T12:10:15Z</time>
      </trkpt>
      <trkpt lat="43.3663" lon="6.65632">
        <ele>138.8</ele>
        <time>2022-10-09T12:10:16Z</time>
      </trkpt>
      <trkpt lat="43.36631" lon="6.65634">
        <ele>138.9</ele>
        <time>2022-10-09T12:10:17Z</time>
      </trkpt>
      <trkpt lat="43.36631" lon="6.65636">
        <ele>139</ele>
        <time>2022-10-09T12:10:18Z</time>
      </trkpt>
      <trkpt lat="43.36632" lon="6.65638">
        <ele>139.2</ele>
        <time>2022-10-09T12:10:19Z</time>
      </trkpt>
      <trkpt lat="43.36633" lon="6.6564">
        <ele>139.3</ele>
        <time>2022-10-09T12:10:20Z</time>
      </trkpt>
      <trkpt lat="43.36633" lon="6.65642">
        <ele>139.4</ele>
        <time>2022-10-09T12:10:21Z</time>
      </trkpt>
      <trkpt lat="43.36634" lon="6.65644">
        <ele>139.5</ele>
        <time>2022-10-09T12:10:22Z</time>
      </trkpt>
      <trkpt lat="43.36635" lon="6.65646">
        <ele>139.6</ele>
        <time>2022-10-09T12:10:23Z</time>
      </trkpt>
      <trkpt lat="43.36635" lon="6.65648">
        <ele>139.7</ele>
        <time>2022-10-09T12:10:24Z</time>
      </trkpt>
      <trkpt lat="43.36636" lon="6.6565">
        <ele>139.8</ele>
        <time>2022-10-09T12:10:25Z</time>
      </trkpt>
      <trkpt lat="43.36636" lon="6.65652">
        <ele>140</ele>
        <time>2022-10-09T12:10:26Z</time>
      </trkpt>
      <trkpt lat="43.36637" lon="6.65654">
        <ele>140.1</ele>
        <time>2022-10-09T12:10:27Z</time>
      </trkpt>
      <trkpt lat="43.36637" lon="6.65656">
        <ele>140.2</ele>
        <time>2022-10-09T12:10:28Z</time>
      </trkpt>
      <trkpt lat="43.36638" lon="6.65658">
        <ele>140.3</ele>
        <time>2022-10-09T12:10:29Z</time>
      </trkpt>
      <trkpt lat="43.36638" lon="6.6566">
        <ele>140.4</ele>
        <time>2022-10-09T12:10:30Z</time>
      </trkpt>
      <trkpt lat="43.36639" lon="6.65662">
        <ele>140.5</ele>
        <time>2022-10-09T12:10:31Z</time>
      </trkpt>
      <trkpt lat="43.36639" lon="6.65665">
        <ele>140.6</ele>
        <time>2022-10-09T12:10:32Z</time>
      </trkpt>
      <trkpt lat="43.3664" lon="6.65666">
        <ele>140.7</ele>
        <time>2022-10-09T12:10:33Z</time>
      </trkpt>
      <trkpt lat="43.36641" lon="6.65669">
        <ele>140.8</ele>
        <time>2022-10-09T12:10:34Z</time>
      </trkpt>
      <trkpt lat="43.36642" lon="6.65671">
        <ele>140.9</ele>
        <time>2022-10-09T12:10:35Z</time>
      </trkpt>
      <trkpt lat="43.36643" lon="6.65673">
        <ele>141</ele>
        <time>2022-10-09T12:10:36Z</time>
      </trkpt>
      <trkpt lat="43.36645" lon="6.65675">
        <ele>141.1</ele>
        <time>2022-10-09T12:10:37Z</time>
      </trkpt>
      <trkpt lat="43.36646" lon="6.65677">
        <ele>141.2</ele>
        <time>2022-10-09T12:10:38Z</time>
      </trkpt>
      <trkpt lat="43.36647" lon="6.65679">
        <ele>141.3</ele>
        <time>2022-10-09T12:10:39Z</time>
      </trkpt>
      <trkpt lat="43.36648" lon="6.65681">
        <ele>141.4</ele>
        <time>2022-10-09T12:10:40Z</time>
      </trkpt>
      <trkpt lat="43.36649" lon="6.65683">
        <ele>141.5</ele>
        <time>2022-10-09T12:10:41Z</time>
      </trkpt>
      <trkpt lat="43.3665" lon="6.65685">
        <ele>141.6</ele>
        <time>2022-10-09T12:10:42Z</time>
      </trkpt>
      <trkpt lat="43.36651" lon="6.65687">
        <ele>141.7</ele>
        <time>2022-10-09T12:10:43Z</time>
      </trkpt>
      <trkpt lat="43.36652" lon="6.65689">
        <ele>141.8</ele>
        <time>2022-10-09T12:10:44Z</time>
      </trkpt>
      <trkpt lat="43.36653" lon="6.65692">
        <ele>141.8</ele>
        <time>2022-10-09T12:10:45Z</time>
      </trkpt>
      <trkpt lat="43.36654" lon="6.65694">
        <ele>141.9</ele>
        <time>2022-10-09T12:10:46Z</time>
      </trkpt>
      <trkpt lat="43.36656" lon="6.65699">
        <ele>142.1</ele>
        <time>2022-10-09T12:10:48Z</time>
      </trkpt>
      <trkpt lat="43.36657" lon="6.65701">
        <ele>142.2</ele>
        <time>2022-10-09T12:10:49Z</time>
      </trkpt>
      <trkpt lat="43.36658" lon="6.65703">
        <ele>142.3</ele>
        <time>2022-10-09T12:10:50Z</time>
      </trkpt>
      <trkpt lat="43.36661" lon="6.6571">
        <ele>142.5</ele>
        <time>2022-10-09T12:10:53Z</time>
      </trkpt>
      <trkpt lat="43.36664" lon="6.65717">
        <ele>142.8</ele>
        <time>2022-10-09T12:10:56Z</time>
      </trkpt>
      <trkpt lat="43.36665" lon="6.65719">
        <ele>142.9</ele>
        <time>2022-10-09T12:10:57Z</time>
      </trkpt>
      <trkpt lat="43.36669" lon="6.65726">
        <ele>143.3</ele>
        <time>2022-10-09T12:11:00Z</time>
      </trkpt>
      <trkpt lat="43.3667" lon="6.65727">
        <ele>143.4</ele>
        <time>2022-10-09T12:11:01Z</time>
      </trkpt>
      <trkpt lat="43.36671" lon="6.65728">
        <ele>143.5</ele>
        <time>2022-10-09T12:11:02Z</time>
      </trkpt>
      <trkpt lat="43.36676" lon="6.65737">
        <ele>144.1</ele>
        <time>2022-10-09T12:11:07Z</time>
      </trkpt>
      <trkpt lat="43.36677" lon="6.65738">
        <ele>144.2</ele>
        <time>2022-10-09T12:11:08Z</time>
      </trkpt>
      <trkpt lat="43.36677" lon="6.6574">
        <ele>144.3</ele>
        <time>2022-10-09T12:11:09Z</time>
      </trkpt>
      <trkpt lat="43.36678" lon="6.65741">
        <ele>144.4</ele>
        <time>2022-10-09T12:11:10Z</time>
      </trkpt>
      <trkpt lat="43.36679" lon="6.65743">
        <ele>144.6</ele>
        <time>2022-10-09T12:11:11Z</time>
      </trkpt>
      <trkpt lat="43.36679" lon="6.65745">
        <ele>144.7</ele>
        <time>2022-10-09T12:11:12Z</time>
      </trkpt>
      <trkpt lat="43.3668" lon="6.65746">
        <ele>144.8</ele>
        <time>2022-10-09T12:11:13Z</time>
      </trkpt>
      <trkpt lat="43.36681" lon="6.65748">
        <ele>144.9</ele>
        <time>2022-10-09T12:11:14Z</time>
      </trkpt>
      <trkpt lat="43.36681" lon="6.6575">
        <ele>145</ele>
        <time>2022-10-09T12:11:15Z</time>
      </trkpt>
      <trkpt lat="43.36681" lon="6.65751">
        <ele>145.2</ele>
        <time>2022-10-09T12:11:16Z</time>
      </trkpt>
      <trkpt lat="43.36682" lon="6.65753">
        <ele>145.3</ele>
        <time>2022-10-09T12:11:17Z</time>
      </trkpt>
      <trkpt lat="43.36682" lon="6.65755">
        <ele>145.4</ele>
        <time>2022-10-09T12:11:18Z</time>
      </trkpt>
      <trkpt lat="43.36683" lon="6.65756">
        <ele>145.5</ele>
        <time>2022-10-09T12:11:19Z</time>
      </trkpt>
      <trkpt lat="43.36683" lon="6.65758">
        <ele>145.6</ele>
        <time>2022-10-09T12:11:20Z</time>
      </trkpt>
      <trkpt lat="43.36683" lon="6.6576">
        <ele>145.8</ele>
        <time>2022-10-09T12:11:21Z</time>
      </trkpt>
      <trkpt lat="43.36683" lon="6.65762">
        <ele>145.9</ele>
        <time>2022-10-09T12:11:22Z</time>
      </trkpt>
      <trkpt lat="43.36683" lon="6.65764">
        <ele>146</ele>
        <time>2022-10-09T12:11:23Z</time>
      </trkpt>
      <trkpt lat="43.36683" lon="6.65766">
        <ele>146.1</ele>
        <time>2022-10-09T12:11:24Z</time>
      </trkpt>
      <trkpt lat="43.36683" lon="6.65768">
        <ele>146.2</ele>
        <time>2022-10-09T12:11:25Z</time>
      </trkpt>
      <trkpt lat="43.36683" lon="6.6577">
        <ele>146.4</ele>
        <time>2022-10-09T12:11:26Z</time>
      </trkpt>
      <trkpt lat="43.36683" lon="6.65772">
        <ele>146.5</ele>
        <time>2022-10-09T12:11:27Z</time>
      </trkpt>
      <trkpt lat="43.36682" lon="6.65774">
        <ele>146.6</ele>
        <time>2022-10-09T12:11:28Z</time>
      </trkpt>
      <trkpt lat="43.36682" lon="6.65776">
        <ele>146.7</ele>
        <time>2022-10-09T12:11:29Z</time>
      </trkpt>
      <trkpt lat="43.36681" lon="6.65778">
        <ele>146.8</ele>
        <time>2022-10-09T12:11:30Z</time>
      </trkpt>
      <trkpt lat="43.36681" lon="6.6578">
        <ele>146.9</ele>
        <time>2022-10-09T12:11:31Z</time>
      </trkpt>
      <trkpt lat="43.3668" lon="6.65782">
        <ele>147.1</ele>
        <time>2022-10-09T12:11:32Z</time>
      </trkpt>
      <trkpt lat="43.36679" lon="6.65784">
        <ele>147.2</ele>
        <time>2022-10-09T12:11:33Z</time>
      </trkpt>
      <trkpt lat="43.36678" lon="6.65787">
        <ele>147.3</ele>
        <time>2022-10-09T12:11:34Z</time>
      </trkpt>
      <trkpt lat="43.36677" lon="6.65789">
        <ele>147.4</ele>
        <time>2022-10-09T12:11:35Z</time>
      </trkpt>
      <trkpt lat="43.36676" lon="6.65791">
        <ele>147.6</ele>
        <time>2022-10-09T12:11:36Z</time>
      </trkpt>
      <trkpt lat="43.36675" lon="6.65793">
        <ele>147.7</ele>
        <time>2022-10-09T12:11:37Z</time>
      </trkpt>
      <trkpt lat="43.36674" lon="6.65795">
        <ele>147.8</ele>
        <time>2022-10-09T12:11:38Z</time>
      </trkpt>
      <trkpt lat="43.36672" lon="6.65797">
        <ele>147.9</ele>
        <time>2022-10-09T12:11:39Z</time>
      </trkpt>
      <trkpt lat="43.36671" lon="6.65798">
        <ele>148.1</ele>
        <time>2022-10-09T12:11:40Z</time>
      </trkpt>
      <trkpt lat="43.36669" lon="6.658">
        <ele>148.2</ele>
        <time>2022-10-09T12:11:41Z</time>
      </trkpt>
      <trkpt lat="43.36668" lon="6.65801">
        <ele>148.3</ele>
        <time>2022-10-09T12:11:42Z</time>
      </trkpt>
      <trkpt lat="43.36667" lon="6.65803">
        <ele>148.4</ele>
        <time>2022-10-09T12:11:43Z</time>
      </trkpt>
      <trkpt lat="43.36666" lon="6.65804">
        <ele>148.5</ele>
        <time>2022-10-09T12:11:44Z</time>
      </trkpt>
      <trkpt lat="43.36665" lon="6.65806">
        <ele>148.6</ele>
        <time>2022-10-09T12:11:45Z</time>
      </trkpt>
      <trkpt lat="43.36664" lon="6.65807">
        <ele>148.7</ele>
        <time>2022-10-09T12:11:46Z</time>
      </trkpt>
      <trkpt lat="43.36663" lon="6.65809">
        <ele>148.8</ele>
        <time>2022-10-09T12:11:47Z</time>
      </trkpt>
      <trkpt lat="43.36662" lon="6.6581">
        <ele>148.9</ele>
        <time>2022-10-09T12:11:48Z</time>
      </trkpt>
      <trkpt lat="43.36661" lon="6.65812">
        <ele>149</ele>
        <time>2022-10-09T12:11:49Z</time>
      </trkpt>
      <trkpt lat="43.3666" lon="6.65814">
        <ele>149.1</ele>
        <time>2022-10-09T12:11:50Z</time>
      </trkpt>
      <trkpt lat="43.36659" lon="6.65816">
        <ele>149.2</ele>
        <time>2022-10-09T12:11:51Z</time>
      </trkpt>
      <trkpt lat="43.36658" lon="6.65817">
        <ele>149.3</ele>
        <time>2022-10-09T12:11:52Z</time>
      </trkpt>
      <trkpt lat="43.36657" lon="6.65819">
        <ele>149.4</ele>
        <time>2022-10-09T12:11:53Z</time>
      </trkpt>
      <trkpt lat="43.36657" lon="6.65821">
        <ele>149.4</ele>
        <time>2022-10-09T12:11:54Z</time>
      </trkpt>
      <trkpt lat="43.36656" lon="6.65823">
        <ele>149.5</ele>
        <time>2022-10-09T12:11:55Z</time>
      </trkpt>
      <trkpt lat="43.36656" lon="6.65825">
        <ele>149.6</ele>
        <time>2022-10-09T12:11:56Z</time>
      </trkpt>
      <trkpt lat="43.36655" lon="6.65826">
        <ele>149.7</ele>
        <time>2022-10-09T12:11:57Z</time>
      </trkpt>
      <trkpt lat="43.36655" lon="6.65828">
        <ele>149.7</ele>
        <time>2022-10-09T12:11:58Z</time>
      </trkpt>
      <trkpt lat="43.36654" lon="6.65834">
        <ele>150</ele>
        <time>2022-10-09T12:12:01Z</time>
      </trkpt>
      <trkpt lat="43.36652" lon="6.65855">
        <ele>150.7</ele>
        <time>2022-10-09T12:12:09Z</time>
      </trkpt>
      <trkpt lat="43.36653" lon="6.65865">
        <ele>151.1</ele>
        <time>2022-10-09T12:12:12Z</time>
      </trkpt>
      <trkpt lat="43.36654" lon="6.65868">
        <ele>151.2</ele>
        <time>2022-10-09T12:12:13Z</time>
      </trkpt>
      <trkpt lat="43.36655" lon="6.65871">
        <ele>151.4</ele>
        <time>2022-10-09T12:12:14Z</time>
      </trkpt>
      <trkpt lat="43.36656" lon="6.65873">
        <ele>151.5</ele>
        <time>2022-10-09T12:12:15Z</time>
      </trkpt>
      <trkpt lat="43.36658" lon="6.65874">
        <ele>151.6</ele>
        <time>2022-10-09T12:12:16Z</time>
      </trkpt>
      <trkpt lat="43.3666" lon="6.65875">
        <ele>151.8</ele>
        <time>2022-10-09T12:12:17Z</time>
      </trkpt>
      <trkpt lat="43.36662" lon="6.65875">
        <ele>151.9</ele>
        <time>2022-10-09T12:12:18Z</time>
      </trkpt>
      <trkpt lat="43.36664" lon="6.65875">
        <ele>152.1</ele>
        <time>2022-10-09T12:12:19Z</time>
      </trkpt>
      <trkpt lat="43.36666" lon="6.65875">
        <ele>152.2</ele>
        <time>2022-10-09T12:12:20Z</time>
      </trkpt>
      <trkpt lat="43.36668" lon="6.65874">
        <ele>152.4</ele>
        <time>2022-10-09T12:12:21Z</time>
      </trkpt>
      <trkpt lat="43.3667" lon="6.65873">
        <ele>152.6</ele>
        <time>2022-10-09T12:12:22Z</time>
      </trkpt>
      <trkpt lat="43.36671" lon="6.65873">
        <ele>152.7</ele>
        <time>2022-10-09T12:12:23Z</time>
      </trkpt>
      <trkpt lat="43.36672" lon="6.65873">
        <ele>152.8</ele>
        <time>2022-10-09T12:12:24Z</time>
      </trkpt>
      <trkpt lat="43.36673" lon="6.65873">
        <ele>152.8</ele>
        <time>2022-10-09T12:12:26Z</time>
      </trkpt>
      <trkpt lat="43.36687" lon="6.65866">
        <ele>154.1</ele>
        <time>2022-10-09T12:12:41Z</time>
      </trkpt>
      <trkpt lat="43.36688" lon="6.65865">
        <ele>154.2</ele>
        <time>2022-10-09T12:12:42Z</time>
      </trkpt>
      <trkpt lat="43.36689" lon="6.65864">
        <ele>154.3</ele>
        <time>2022-10-09T12:12:43Z</time>
      </trkpt>
      <trkpt lat="43.3669" lon="6.65863">
        <ele>154.5</ele>
        <time>2022-10-09T12:12:44Z</time>
      </trkpt>
      <trkpt lat="43.36691" lon="6.65863">
        <ele>154.6</ele>
        <time>2022-10-09T12:12:45Z</time>
      </trkpt>
      <trkpt lat="43.36692" lon="6.65862">
        <ele>154.7</ele>
        <time>2022-10-09T12:12:46Z</time>
      </trkpt>
      <trkpt lat="43.36694" lon="6.65861">
        <ele>154.8</ele>
        <time>2022-10-09T12:12:47Z</time>
      </trkpt>
      <trkpt lat="43.36695" lon="6.65861">
        <ele>154.9</ele>
        <time>2022-10-09T12:12:48Z</time>
      </trkpt>
      <trkpt lat="43.36696" lon="6.6586">
        <ele>155</ele>
        <time>2022-10-09T12:12:49Z</time>
      </trkpt>
      <trkpt lat="43.36699" lon="6.65859">
        <ele>155.2</ele>
        <time>2022-10-09T12:12:51Z</time>
      </trkpt>
      <trkpt lat="43.367" lon="6.65859">
        <ele>155.3</ele>
        <time>2022-10-09T12:12:52Z</time>
      </trkpt>
      <trkpt lat="43.36701" lon="6.65859">
        <ele>155.4</ele>
        <time>2022-10-09T12:12:53Z</time>
      </trkpt>
      <trkpt lat="43.36702" lon="6.65859">
        <ele>155.5</ele>
        <time>2022-10-09T12:12:54Z</time>
      </trkpt>
      <trkpt lat="43.36703" lon="6.65858">
        <ele>155.6</ele>
        <time>2022-10-09T12:12:55Z</time>
      </trkpt>
      <trkpt lat="43.36705" lon="6.65859">
        <ele>155.9</ele>
        <time>2022-10-09T12:12:57Z</time>
      </trkpt>
      <trkpt lat="43.36707" lon="6.65859">
        <ele>156.1</ele>
        <time>2022-10-09T12:12:59Z</time>
      </trkpt>
      <trkpt lat="43.36708" lon="6.6586">
        <ele>156.2</ele>
        <time>2022-10-09T12:13:00Z</time>
      </trkpt>
      <trkpt lat="43.36709" lon="6.6586">
        <ele>156.3</ele>
        <time>2022-10-09T12:13:01Z</time>
      </trkpt>
      <trkpt lat="43.36711" lon="6.65861">
        <ele>156.4</ele>
        <time>2022-10-09T12:13:02Z</time>
      </trkpt>
      <trkpt lat="43.36711" lon="6.65862">
        <ele>156.5</ele>
        <time>2022-10-09T12:13:03Z</time>
      </trkpt>
      <trkpt lat="43.36712" lon="6.65863">
        <ele>156.6</ele>
        <time>2022-10-09T12:13:04Z</time>
      </trkpt>
      <trkpt lat="43.36713" lon="6.65864">
        <ele>156.8</ele>
        <time>2022-10-09T12:13:05Z</time>
      </trkpt>
      <trkpt lat="43.36714" lon="6.65865">
        <ele>156.9</ele>
        <time>2022-10-09T12:13:06Z</time>
      </trkpt>
      <trkpt lat="43.36714" lon="6.65866">
        <ele>157</ele>
        <time>2022-10-09T12:13:07Z</time>
      </trkpt>
      <trkpt lat="43.36715" lon="6.65866">
        <ele>157.1</ele>
        <time>2022-10-09T12:13:08Z</time>
      </trkpt>
      <trkpt lat="43.36716" lon="6.65867">
        <ele>157.2</ele>
        <time>2022-10-09T12:13:09Z</time>
      </trkpt>
      <trkpt lat="43.36717" lon="6.65868">
        <ele>157.3</ele>
        <time>2022-10-09T12:13:10Z</time>
      </trkpt>
      <trkpt lat="43.36717" lon="6.65869">
        <ele>157.4</ele>
        <time>2022-10-09T12:13:11Z</time>
      </trkpt>
      <trkpt lat="43.36718" lon="6.65871">
        <ele>157.5</ele>
        <time>2022-10-09T12:13:12Z</time>
      </trkpt>
      <trkpt lat="43.36718" lon="6.65872">
        <ele>157.7</ele>
        <time>2022-10-09T12:13:13Z</time>
      </trkpt>
      <trkpt lat="43.36719" lon="6.65873">
        <ele>157.8</ele>
        <time>2022-10-09T12:13:14Z</time>
      </trkpt>
      <trkpt lat="43.36719" lon="6.65875">
        <ele>157.9</ele>
        <time>2022-10-09T12:13:15Z</time>
      </trkpt>
      <trkpt lat="43.36719" lon="6.65876">
        <ele>158</ele>
        <time>2022-10-09T12:13:16Z</time>
      </trkpt>
      <trkpt lat="43.3672" lon="6.65877">
        <ele>158.1</ele>
        <time>2022-10-09T12:13:17Z</time>
      </trkpt>
      <trkpt lat="43.3672" lon="6.65879">
        <ele>158.3</ele>
        <time>2022-10-09T12:13:18Z</time>
      </trkpt>
      <trkpt lat="43.36721" lon="6.6588">
        <ele>158.4</ele>
        <time>2022-10-09T12:13:19Z</time>
      </trkpt>
      <trkpt lat="43.36721" lon="6.65882">
        <ele>158.5</ele>
        <time>2022-10-09T12:13:20Z</time>
      </trkpt>
      <trkpt lat="43.36721" lon="6.65883">
        <ele>158.6</ele>
        <time>2022-10-09T12:13:21Z</time>
      </trkpt>
      <trkpt lat="43.36722" lon="6.65885">
        <ele>158.7</ele>
        <time>2022-10-09T12:13:22Z</time>
      </trkpt>
      <trkpt lat="43.36722" lon="6.65886">
        <ele>158.9</ele>
        <time>2022-10-09T12:13:23Z</time>
      </trkpt>
      <trkpt lat="43.36723" lon="6.65887">
        <ele>159</ele>
        <time>2022-10-09T12:13:24Z</time>
      </trkpt>
      <trkpt lat="43.36723" lon="6.65889">
        <ele>159.1</ele>
        <time>2022-10-09T12:13:25Z</time>
      </trkpt>
      <trkpt lat="43.36724" lon="6.6589">
        <ele>159.2</ele>
        <time>2022-10-09T12:13:26Z</time>
      </trkpt>
      <trkpt lat="43.36724" lon="6.65892">
        <ele>159.4</ele>
        <time>2022-10-09T12:13:27Z</time>
      </trkpt>
      <trkpt lat="43.36725" lon="6.65893">
        <ele>159.5</ele>
        <time>2022-10-09T12:13:28Z</time>
      </trkpt>
      <trkpt lat="43.36725" lon="6.65894">
        <ele>159.6</ele>
        <time>2022-10-09T12:13:29Z</time>
      </trkpt>
      <trkpt lat="43.36726" lon="6.65896">
        <ele>159.7</ele>
        <time>2022-10-09T12:13:30Z</time>
      </trkpt>
      <trkpt lat="43.36726" lon="6.65897">
        <ele>159.8</ele>
        <time>2022-10-09T12:13:31Z</time>
      </trkpt>
      <trkpt lat="43.36727" lon="6.65898">
        <ele>160</ele>
        <time>2022-10-09T12:13:32Z</time>
      </trkpt>
      <trkpt lat="43.36727" lon="6.659">
        <ele>160.1</ele>
        <time>2022-10-09T12:13:33Z</time>
      </trkpt>
      <trkpt lat="43.36727" lon="6.65901">
        <ele>160.2</ele>
        <time>2022-10-09T12:13:34Z</time>
      </trkpt>
      <trkpt lat="43.36728" lon="6.65902">
        <ele>160.3</ele>
        <time>2022-10-09T12:13:35Z</time>
      </trkpt>
      <trkpt lat="43.36728" lon="6.65904">
        <ele>160.4</ele>
        <time>2022-10-09T12:13:36Z</time>
      </trkpt>
      <trkpt lat="43.36729" lon="6.65905">
        <ele>160.5</ele>
        <time>2022-10-09T12:13:37Z</time>
      </trkpt>
      <trkpt lat="43.36729" lon="6.65906">
        <ele>160.7</ele>
        <time>2022-10-09T12:13:38Z</time>
      </trkpt>
      <trkpt lat="43.3673" lon="6.65908">
        <ele>160.8</ele>
        <time>2022-10-09T12:13:39Z</time>
      </trkpt>
      <trkpt lat="43.3673" lon="6.65909">
        <ele>160.9</ele>
        <time>2022-10-09T12:13:40Z</time>
      </trkpt>
      <trkpt lat="43.36731" lon="6.65911">
        <ele>161.1</ele>
        <time>2022-10-09T12:13:41Z</time>
      </trkpt>
      <trkpt lat="43.36731" lon="6.65912">
        <ele>161.2</ele>
        <time>2022-10-09T12:13:42Z</time>
      </trkpt>
      <trkpt lat="43.36732" lon="6.65914">
        <ele>161.4</ele>
        <time>2022-10-09T12:13:43Z</time>
      </trkpt>
      <trkpt lat="43.36732" lon="6.65916">
        <ele>161.5</ele>
        <time>2022-10-09T12:13:44Z</time>
      </trkpt>
      <trkpt lat="43.36733" lon="6.65917">
        <ele>161.7</ele>
        <time>2022-10-09T12:13:45Z</time>
      </trkpt>
      <trkpt lat="43.36733" lon="6.65919">
        <ele>161.8</ele>
        <time>2022-10-09T12:13:46Z</time>
      </trkpt>
      <trkpt lat="43.36734" lon="6.6592">
        <ele>161.9</ele>
        <time>2022-10-09T12:13:47Z</time>
      </trkpt>
      <trkpt lat="43.36734" lon="6.65921">
        <ele>162.1</ele>
        <time>2022-10-09T12:13:48Z</time>
      </trkpt>
      <trkpt lat="43.36734" lon="6.65923">
        <ele>162.2</ele>
        <time>2022-10-09T12:13:49Z</time>
      </trkpt>
      <trkpt lat="43.36734" lon="6.65925">
        <ele>162.3</ele>
        <time>2022-10-09T12:13:50Z</time>
      </trkpt>
      <trkpt lat="43.36735" lon="6.65926">
        <ele>162.5</ele>
        <time>2022-10-09T12:13:51Z</time>
      </trkpt>
      <trkpt lat="43.36735" lon="6.65928">
        <ele>162.6</ele>
        <time>2022-10-09T12:13:52Z</time>
      </trkpt>
      <trkpt lat="43.36735" lon="6.65928">
        <ele>162.7</ele>
        <time>2022-10-09T12:13:53Z</time>
      </trkpt>
      <trkpt lat="43.36735" lon="6.65929">
        <ele>162.8</ele>
        <time>2022-10-09T12:13:55Z</time>
      </trkpt>
      <trkpt lat="43.36735" lon="6.65931">
        <ele>162.9</ele>
        <time>2022-10-09T12:13:56Z</time>
      </trkpt>
      <trkpt lat="43.36736" lon="6.65932">
        <ele>163</ele>
        <time>2022-10-09T12:13:57Z</time>
      </trkpt>
      <trkpt lat="43.36736" lon="6.65933">
        <ele>163.1</ele>
        <time>2022-10-09T12:13:58Z</time>
      </trkpt>
      <trkpt lat="43.36736" lon="6.65934">
        <ele>163.3</ele>
        <time>2022-10-09T12:13:59Z</time>
      </trkpt>
      <trkpt lat="43.36736" lon="6.65936">
        <ele>163.4</ele>
        <time>2022-10-09T12:14:00Z</time>
      </trkpt>
      <trkpt lat="43.36737" lon="6.65937">
        <ele>163.6</ele>
        <time>2022-10-09T12:14:01Z</time>
      </trkpt>
      <trkpt lat="43.36737" lon="6.65939">
        <ele>163.7</ele>
        <time>2022-10-09T12:14:02Z</time>
      </trkpt>
      <trkpt lat="43.36737" lon="6.6594">
        <ele>163.8</ele>
        <time>2022-10-09T12:14:03Z</time>
      </trkpt>
      <trkpt lat="43.36738" lon="6.65941">
        <ele>164</ele>
        <time>2022-10-09T12:14:04Z</time>
      </trkpt>
      <trkpt lat="43.36738" lon="6.65942">
        <ele>164.1</ele>
        <time>2022-10-09T12:14:05Z</time>
      </trkpt>
      <trkpt lat="43.36738" lon="6.65944">
        <ele>164.2</ele>
        <time>2022-10-09T12:14:06Z</time>
      </trkpt>
      <trkpt lat="43.36739" lon="6.65945">
        <ele>164.3</ele>
        <time>2022-10-09T12:14:07Z</time>
      </trkpt>
      <trkpt lat="43.36739" lon="6.65946">
        <ele>164.5</ele>
        <time>2022-10-09T12:14:08Z</time>
      </trkpt>
      <trkpt lat="43.36739" lon="6.65948">
        <ele>164.6</ele>
        <time>2022-10-09T12:14:09Z</time>
      </trkpt>
      <trkpt lat="43.3674" lon="6.65949">
        <ele>164.8</ele>
        <time>2022-10-09T12:14:10Z</time>
      </trkpt>
      <trkpt lat="43.3674" lon="6.6595">
        <ele>164.9</ele>
        <time>2022-10-09T12:14:11Z</time>
      </trkpt>
      <trkpt lat="43.36741" lon="6.65951">
        <ele>165</ele>
        <time>2022-10-09T12:14:12Z</time>
      </trkpt>
      <trkpt lat="43.36741" lon="6.65953">
        <ele>165.2</ele>
        <time>2022-10-09T12:14:13Z</time>
      </trkpt>
      <trkpt lat="43.36741" lon="6.65954">
        <ele>165.3</ele>
        <time>2022-10-09T12:14:14Z</time>
      </trkpt>
      <trkpt lat="43.36742" lon="6.65955">
        <ele>165.4</ele>
        <time>2022-10-09T12:14:15Z</time>
      </trkpt>
      <trkpt lat="43.36742" lon="6.65957">
        <ele>165.6</ele>
        <time>2022-10-09T12:14:16Z</time>
      </trkpt>
      <trkpt lat="43.36742" lon="6.65958">
        <ele>165.7</ele>
        <time>2022-10-09T12:14:17Z</time>
      </trkpt>
      <trkpt lat="43.36743" lon="6.65959">
        <ele>165.8</ele>
        <time>2022-10-09T12:14:18Z</time>
      </trkpt>
      <trkpt lat="43.36743" lon="6.65961">
        <ele>165.9</ele>
        <time>2022-10-09T12:14:19Z</time>
      </trkpt>
      <trkpt lat="43.36743" lon="6.65962">
        <ele>166.1</ele>
        <time>2022-10-09T12:14:20Z</time>
      </trkpt>
      <trkpt lat="43.36743" lon="6.65964">
        <ele>166.2</ele>
        <time>2022-10-09T12:14:21Z</time>
      </trkpt>
      <trkpt lat="43.36744" lon="6.65965">
        <ele>166.3</ele>
        <time>2022-10-09T12:14:22Z</time>
      </trkpt>
      <trkpt lat="43.36744" lon="6.65966">
        <ele>166.4</ele>
        <time>2022-10-09T12:14:23Z</time>
      </trkpt>
      <trkpt lat="43.36744" lon="6.65968">
        <ele>166.5</ele>
        <time>2022-10-09T12:14:24Z</time>
      </trkpt>
      <trkpt lat="43.36744" lon="6.65969">
        <ele>166.6</ele>
        <time>2022-10-09T12:14:25Z</time>
      </trkpt>
      <trkpt lat="43.36745" lon="6.6597">
        <ele>166.7</ele>
        <time>2022-10-09T12:14:26Z</time>
      </trkpt>
      <trkpt lat="43.36745" lon="6.65971">
        <ele>166.7</ele>
        <time>2022-10-09T12:14:28Z</time>
      </trkpt>
      <trkpt lat="43.36746" lon="6.65974">
        <ele>166.9</ele>
        <time>2022-10-09T12:14:34Z</time>
      </trkpt>
      <trkpt lat="43.36746" lon="6.65976">
        <ele>167</ele>
        <time>2022-10-09T12:14:35Z</time>
      </trkpt>
      <trkpt lat="43.36747" lon="6.6598">
        <ele>167.3</ele>
        <time>2022-10-09T12:14:37Z</time>
      </trkpt>
      <trkpt lat="43.36748" lon="6.65982">
        <ele>167.4</ele>
        <time>2022-10-09T12:14:38Z</time>
      </trkpt>
      <trkpt lat="43.3675" lon="6.65989">
        <ele>167.7</ele>
        <time>2022-10-09T12:14:41Z</time>
      </trkpt>
      <trkpt lat="43.36753" lon="6.66002">
        <ele>168.2</ele>
        <time>2022-10-09T12:14:46Z</time>
      </trkpt>
      <trkpt lat="43.36756" lon="6.66011">
        <ele>168.6</ele>
        <time>2022-10-09T12:14:49Z</time>
      </trkpt>
      <trkpt lat="43.36756" lon="6.66014">
        <ele>168.8</ele>
        <time>2022-10-09T12:14:50Z</time>
      </trkpt>
      <trkpt lat="43.36757" lon="6.66017">
        <ele>168.9</ele>
        <time>2022-10-09T12:14:51Z</time>
      </trkpt>
      <trkpt lat="43.36757" lon="6.6602">
        <ele>169.1</ele>
        <time>2022-10-09T12:14:52Z</time>
      </trkpt>
      <trkpt lat="43.36758" lon="6.66023">
        <ele>169.3</ele>
        <time>2022-10-09T12:14:53Z</time>
      </trkpt>
      <trkpt lat="43.36759" lon="6.66025">
        <ele>169.4</ele>
        <time>2022-10-09T12:14:54Z</time>
      </trkpt>
      <trkpt lat="43.3676" lon="6.6603">
        <ele>169.8</ele>
        <time>2022-10-09T12:14:56Z</time>
      </trkpt>
      <trkpt lat="43.36761" lon="6.66034">
        <ele>170.1</ele>
        <time>2022-10-09T12:14:58Z</time>
      </trkpt>
      <trkpt lat="43.36762" lon="6.66036">
        <ele>170.3</ele>
        <time>2022-10-09T12:14:59Z</time>
      </trkpt>
      <trkpt lat="43.36762" lon="6.66038">
        <ele>170.4</ele>
        <time>2022-10-09T12:15:00Z</time>
      </trkpt>
      <trkpt lat="43.36762" lon="6.66041">
        <ele>170.6</ele>
        <time>2022-10-09T12:15:01Z</time>
      </trkpt>
      <trkpt lat="43.36763" lon="6.66045">
        <ele>170.9</ele>
        <time>2022-10-09T12:15:02Z</time>
      </trkpt>
      <trkpt lat="43.36763" lon="6.66047">
        <ele>171.1</ele>
        <time>2022-10-09T12:15:03Z</time>
      </trkpt>
      <trkpt lat="43.36763" lon="6.6605">
        <ele>171.2</ele>
        <time>2022-10-09T12:15:04Z</time>
      </trkpt>
      <trkpt lat="43.36763" lon="6.66052">
        <ele>171.4</ele>
        <time>2022-10-09T12:15:05Z</time>
      </trkpt>
      <trkpt lat="43.36763" lon="6.66052">
        <ele>171.4</ele>
        <time>2022-10-09T12:15:06Z</time>
      </trkpt>
      <trkpt lat="43.36762" lon="6.66056">
        <ele>171.7</ele>
        <time>2022-10-09T12:15:07Z</time>
      </trkpt>
      <trkpt lat="43.36762" lon="6.66059">
        <ele>171.8</ele>
        <time>2022-10-09T12:15:08Z</time>
      </trkpt>
      <trkpt lat="43.36762" lon="6.66061">
        <ele>172</ele>
        <time>2022-10-09T12:15:09Z</time>
      </trkpt>
      <trkpt lat="43.36762" lon="6.66062">
        <ele>172.1</ele>
        <time>2022-10-09T12:15:10Z</time>
      </trkpt>
      <trkpt lat="43.36761" lon="6.66065">
        <ele>172.2</ele>
        <time>2022-10-09T12:15:11Z</time>
      </trkpt>
      <trkpt lat="43.36761" lon="6.66067">
        <ele>172.4</ele>
        <time>2022-10-09T12:15:12Z</time>
      </trkpt>
      <trkpt lat="43.3676" lon="6.6607">
        <ele>172.6</ele>
        <time>2022-10-09T12:15:13Z</time>
      </trkpt>
      <trkpt lat="43.3676" lon="6.66073">
        <ele>172.7</ele>
        <time>2022-10-09T12:15:14Z</time>
      </trkpt>
      <trkpt lat="43.3676" lon="6.66075">
        <ele>172.9</ele>
        <time>2022-10-09T12:15:15Z</time>
      </trkpt>
      <trkpt lat="43.3676" lon="6.66078">
        <ele>173.1</ele>
        <time>2022-10-09T12:15:16Z</time>
      </trkpt>
      <trkpt lat="43.36759" lon="6.66081">
        <ele>173.3</ele>
        <time>2022-10-09T12:15:17Z</time>
      </trkpt>
      <trkpt lat="43.36759" lon="6.66084">
        <ele>173.5</ele>
        <time>2022-10-09T12:15:18Z</time>
      </trkpt>
      <trkpt lat="43.36759" lon="6.66087">
        <ele>173.6</ele>
        <time>2022-10-09T12:15:19Z</time>
      </trkpt>
      <trkpt lat="43.36759" lon="6.6609">
        <ele>173.8</ele>
        <time>2022-10-09T12:15:20Z</time>
      </trkpt>
      <trkpt lat="43.36759" lon="6.66092">
        <ele>174</ele>
        <time>2022-10-09T12:15:21Z</time>
      </trkpt>
      <trkpt lat="43.3676" lon="6.66095">
        <ele>174.2</ele>
        <time>2022-10-09T12:15:22Z</time>
      </trkpt>
      <trkpt lat="43.3676" lon="6.66097">
        <ele>174.3</ele>
        <time>2022-10-09T12:15:23Z</time>
      </trkpt>
      <trkpt lat="43.3676" lon="6.66099">
        <ele>174.5</ele>
        <time>2022-10-09T12:15:24Z</time>
      </trkpt>
      <trkpt lat="43.36761" lon="6.66102">
        <ele>174.6</ele>
        <time>2022-10-09T12:15:25Z</time>
      </trkpt>
      <trkpt lat="43.36761" lon="6.66102">
        <ele>174.6</ele>
        <time>2022-10-09T12:15:26Z</time>
      </trkpt>
      <trkpt lat="43.36761" lon="6.66106">
        <ele>174.9</ele>
        <time>2022-10-09T12:15:27Z</time>
      </trkpt>
      <trkpt lat="43.36761" lon="6.66108">
        <ele>175.1</ele>
        <time>2022-10-09T12:15:28Z</time>
      </trkpt>
      <trkpt lat="43.36761" lon="6.6611">
        <ele>175.2</ele>
        <time>2022-10-09T12:15:29Z</time>
      </trkpt>
      <trkpt lat="43.36761" lon="6.66112">
        <ele>175.4</ele>
        <time>2022-10-09T12:15:30Z</time>
      </trkpt>
      <trkpt lat="43.36762" lon="6.66114">
        <ele>175.5</ele>
        <time>2022-10-09T12:15:31Z</time>
      </trkpt>
      <trkpt lat="43.36762" lon="6.66116">
        <ele>175.6</ele>
        <time>2022-10-09T12:15:32Z</time>
      </trkpt>
      <trkpt lat="43.36762" lon="6.66118">
        <ele>175.8</ele>
        <time>2022-10-09T12:15:33Z</time>
      </trkpt>
      <trkpt lat="43.36762" lon="6.6612">
        <ele>175.9</ele>
        <time>2022-10-09T12:15:34Z</time>
      </trkpt>
      <trkpt lat="43.36763" lon="6.66122">
        <ele>176.1</ele>
        <time>2022-10-09T12:15:35Z</time>
      </trkpt>
      <trkpt lat="43.36764" lon="6.66123">
        <ele>176.2</ele>
        <time>2022-10-09T12:15:36Z</time>
      </trkpt>
      <trkpt lat="43.36764" lon="6.66125">
        <ele>176.3</ele>
        <time>2022-10-09T12:15:37Z</time>
      </trkpt>
      <trkpt lat="43.36764" lon="6.66127">
        <ele>176.4</ele>
        <time>2022-10-09T12:15:38Z</time>
      </trkpt>
      <trkpt lat="43.36764" lon="6.66127">
        <ele>176.4</ele>
        <time>2022-10-09T12:15:39Z</time>
      </trkpt>
      <trkpt lat="43.36765" lon="6.66131">
        <ele>176.7</ele>
        <time>2022-10-09T12:15:40Z</time>
      </trkpt>
      <trkpt lat="43.36766" lon="6.66133">
        <ele>176.8</ele>
        <time>2022-10-09T12:15:41Z</time>
      </trkpt>
      <trkpt lat="43.36766" lon="6.66135">
        <ele>176.9</ele>
        <time>2022-10-09T12:15:42Z</time>
      </trkpt>
      <trkpt lat="43.36766" lon="6.66138">
        <ele>177</ele>
        <time>2022-10-09T12:15:43Z</time>
      </trkpt>
      <trkpt lat="43.36766" lon="6.6614">
        <ele>177.1</ele>
        <time>2022-10-09T12:15:44Z</time>
      </trkpt>
      <trkpt lat="43.36766" lon="6.6614">
        <ele>177.1</ele>
        <time>2022-10-09T12:15:45Z</time>
      </trkpt>
      <trkpt lat="43.36766" lon="6.66142">
        <ele>177.2</ele>
        <time>2022-10-09T12:15:46Z</time>
      </trkpt>
      <trkpt lat="43.36766" lon="6.66146">
        <ele>177.4</ele>
        <time>2022-10-09T12:15:47Z</time>
      </trkpt>
      <trkpt lat="43.36765" lon="6.66148">
        <ele>177.5</ele>
        <time>2022-10-09T12:15:48Z</time>
      </trkpt>
      <trkpt lat="43.36765" lon="6.6615">
        <ele>177.6</ele>
        <time>2022-10-09T12:15:49Z</time>
      </trkpt>
      <trkpt lat="43.36765" lon="6.6615">
        <ele>177.6</ele>
        <time>2022-10-09T12:15:50Z</time>
      </trkpt>
      <trkpt lat="43.36764" lon="6.66154">
        <ele>177.8</ele>
        <time>2022-10-09T12:15:51Z</time>
      </trkpt>
      <trkpt lat="43.36764" lon="6.66156">
        <ele>177.9</ele>
        <time>2022-10-09T12:15:52Z</time>
      </trkpt>
      <trkpt lat="43.36764" lon="6.66156">
        <ele>177.9</ele>
        <time>2022-10-09T12:15:53Z</time>
      </trkpt>
      <trkpt lat="43.36763" lon="6.66158">
        <ele>178</ele>
        <time>2022-10-09T12:15:54Z</time>
      </trkpt>
      <trkpt lat="43.36763" lon="6.6616">
        <ele>178.1</ele>
        <time>2022-10-09T12:15:55Z</time>
      </trkpt>
      <trkpt lat="43.36762" lon="6.66164">
        <ele>178.3</ele>
        <time>2022-10-09T12:15:56Z</time>
      </trkpt>
      <trkpt lat="43.36762" lon="6.66167">
        <ele>178.4</ele>
        <time>2022-10-09T12:15:57Z</time>
      </trkpt>
      <trkpt lat="43.36761" lon="6.66169">
        <ele>178.5</ele>
        <time>2022-10-09T12:15:58Z</time>
      </trkpt>
      <trkpt lat="43.36761" lon="6.66172">
        <ele>178.6</ele>
        <time>2022-10-09T12:15:59Z</time>
      </trkpt>
      <trkpt lat="43.36761" lon="6.66172">
        <ele>178.6</ele>
        <time>2022-10-09T12:16:00Z</time>
      </trkpt>
      <trkpt lat="43.36761" lon="6.66174">
        <ele>178.8</ele>
        <time>2022-10-09T12:16:01Z</time>
      </trkpt>
      <trkpt lat="43.36759" lon="6.66179">
        <ele>179</ele>
        <time>2022-10-09T12:16:02Z</time>
      </trkpt>
      <trkpt lat="43.36759" lon="6.66182">
        <ele>179.1</ele>
        <time>2022-10-09T12:16:03Z</time>
      </trkpt>
      <trkpt lat="43.36758" lon="6.66184">
        <ele>179.3</ele>
        <time>2022-10-09T12:16:04Z</time>
      </trkpt>
      <trkpt lat="43.36757" lon="6.66186">
        <ele>179.4</ele>
        <time>2022-10-09T12:16:05Z</time>
      </trkpt>
      <trkpt lat="43.36757" lon="6.66186">
        <ele>179.4</ele>
        <time>2022-10-09T12:16:06Z</time>
      </trkpt>
      <trkpt lat="43.36757" lon="6.66188">
        <ele>179.5</ele>
        <time>2022-10-09T12:16:07Z</time>
      </trkpt>
      <trkpt lat="43.36755" lon="6.66193">
        <ele>179.8</ele>
        <time>2022-10-09T12:16:08Z</time>
      </trkpt>
      <trkpt lat="43.36754" lon="6.66195">
        <ele>179.9</ele>
        <time>2022-10-09T12:16:09Z</time>
      </trkpt>
      <trkpt lat="43.36753" lon="6.66197">
        <ele>180</ele>
        <time>2022-10-09T12:16:10Z</time>
      </trkpt>
      <trkpt lat="43.36753" lon="6.66197">
        <ele>180</ele>
        <time>2022-10-09T12:16:11Z</time>
      </trkpt>
      <trkpt lat="43.36752" lon="6.66199">
        <ele>180.2</ele>
        <time>2022-10-09T12:16:12Z</time>
      </trkpt>
      <trkpt lat="43.3675" lon="6.66204">
        <ele>180.4</ele>
        <time>2022-10-09T12:16:13Z</time>
      </trkpt>
      <trkpt lat="43.36749" lon="6.66206">
        <ele>180.5</ele>
        <time>2022-10-09T12:16:14Z</time>
      </trkpt>
      <trkpt lat="43.36748" lon="6.66208">
        <ele>180.7</ele>
        <time>2022-10-09T12:16:15Z</time>
      </trkpt>
      <trkpt lat="43.36748" lon="6.66211">
        <ele>180.8</ele>
        <time>2022-10-09T12:16:16Z</time>
      </trkpt>
      <trkpt lat="43.36747" lon="6.66213">
        <ele>180.9</ele>
        <time>2022-10-09T12:16:17Z</time>
      </trkpt>
      <trkpt lat="43.36747" lon="6.66213">
        <ele>180.9</ele>
        <time>2022-10-09T12:16:18Z</time>
      </trkpt>
      <trkpt lat="43.36744" lon="6.66217">
        <ele>181.1</ele>
        <time>2022-10-09T12:16:19Z</time>
      </trkpt>
      <trkpt lat="43.36743" lon="6.66219">
        <ele>181.3</ele>
        <time>2022-10-09T12:16:20Z</time>
      </trkpt>
      <trkpt lat="43.36742" lon="6.66221">
        <ele>181.4</ele>
        <time>2022-10-09T12:16:21Z</time>
      </trkpt>
      <trkpt lat="43.36741" lon="6.66223">
        <ele>181.5</ele>
        <time>2022-10-09T12:16:22Z</time>
      </trkpt>
      <trkpt lat="43.3674" lon="6.66224">
        <ele>181.6</ele>
        <time>2022-10-09T12:16:23Z</time>
      </trkpt>
      <trkpt lat="43.36739" lon="6.66226">
        <ele>181.7</ele>
        <time>2022-10-09T12:16:24Z</time>
      </trkpt>
      <trkpt lat="43.36738" lon="6.66227">
        <ele>181.9</ele>
        <time>2022-10-09T12:16:25Z</time>
      </trkpt>
      <trkpt lat="43.36737" lon="6.66229">
        <ele>181.9</ele>
        <time>2022-10-09T12:16:26Z</time>
      </trkpt>
      <trkpt lat="43.36735" lon="6.6623">
        <ele>182</ele>
        <time>2022-10-09T12:16:27Z</time>
      </trkpt>
      <trkpt lat="43.36735" lon="6.6623">
        <ele>182.1</ele>
        <time>2022-10-09T12:16:28Z</time>
      </trkpt>
      <trkpt lat="43.36734" lon="6.66231">
        <ele>182.2</ele>
        <time>2022-10-09T12:16:29Z</time>
      </trkpt>
      <trkpt lat="43.36733" lon="6.66231">
        <ele>182.2</ele>
        <time>2022-10-09T12:16:30Z</time>
      </trkpt>
      <trkpt lat="43.36733" lon="6.66231">
        <ele>182.2</ele>
        <time>2022-10-09T12:16:31Z</time>
      </trkpt>
      <trkpt lat="43.36732" lon="6.66231">
        <ele>182.3</ele>
        <time>2022-10-09T12:16:33Z</time>
      </trkpt>
      <trkpt lat="43.36725" lon="6.66242">
        <ele>182.8</ele>
        <time>2022-10-09T12:20:12Z</time>
      </trkpt>
      <trkpt lat="43.36723" lon="6.66243">
        <ele>182.9</ele>
        <time>2022-10-09T12:20:13Z</time>
      </trkpt>
      <trkpt lat="43.36715" lon="6.66245">
        <ele>183</ele>
        <time>2022-10-09T12:20:17Z</time>
      </trkpt>
      <trkpt lat="43.36712" lon="6.66245">
        <ele>183</ele>
        <time>2022-10-09T12:20:18Z</time>
      </trkpt>
      <trkpt lat="43.36709" lon="6.66246">
        <ele>183</ele>
        <time>2022-10-09T12:20:19Z</time>
      </trkpt>
      <trkpt lat="43.36707" lon="6.66248">
        <ele>183</ele>
        <time>2022-10-09T12:20:20Z</time>
      </trkpt>
      <trkpt lat="43.36706" lon="6.66249">
        <ele>183</ele>
        <time>2022-10-09T12:20:21Z</time>
      </trkpt>
      <trkpt lat="43.36704" lon="6.6625">
        <ele>182.9</ele>
        <time>2022-10-09T12:20:22Z</time>
      </trkpt>
      <trkpt lat="43.36703" lon="6.66252">
        <ele>182.9</ele>
        <time>2022-10-09T12:20:23Z</time>
      </trkpt>
      <trkpt lat="43.36702" lon="6.66254">
        <ele>182.8</ele>
        <time>2022-10-09T12:20:24Z</time>
      </trkpt>
      <trkpt lat="43.367" lon="6.66257">
        <ele>182.7</ele>
        <time>2022-10-09T12:20:25Z</time>
      </trkpt>
      <trkpt lat="43.36699" lon="6.6626">
        <ele>182.6</ele>
        <time>2022-10-09T12:20:26Z</time>
      </trkpt>
      <trkpt lat="43.36698" lon="6.66264">
        <ele>182.5</ele>
        <time>2022-10-09T12:20:27Z</time>
      </trkpt>
      <trkpt lat="43.36697" lon="6.66269">
        <ele>182.3</ele>
        <time>2022-10-09T12:20:28Z</time>
      </trkpt>
      <trkpt lat="43.36697" lon="6.66272">
        <ele>182.1</ele>
        <time>2022-10-09T12:20:29Z</time>
      </trkpt>
      <trkpt lat="43.36697" lon="6.66275">
        <ele>182</ele>
        <time>2022-10-09T12:20:30Z</time>
      </trkpt>
      <trkpt lat="43.36697" lon="6.66277">
        <ele>181.8</ele>
        <time>2022-10-09T12:20:31Z</time>
      </trkpt>
      <trkpt lat="43.36697" lon="6.6628">
        <ele>181.7</ele>
        <time>2022-10-09T12:20:32Z</time>
      </trkpt>
      <trkpt lat="43.36696" lon="6.66282">
        <ele>181.5</ele>
        <time>2022-10-09T12:20:33Z</time>
      </trkpt>
      <trkpt lat="43.36695" lon="6.66284">
        <ele>181.4</ele>
        <time>2022-10-09T12:20:34Z</time>
      </trkpt>
      <trkpt lat="43.36693" lon="6.66286">
        <ele>181.1</ele>
        <time>2022-10-09T12:20:35Z</time>
      </trkpt>
      <trkpt lat="43.36691" lon="6.66288">
        <ele>180.9</ele>
        <time>2022-10-09T12:20:36Z</time>
      </trkpt>
      <trkpt lat="43.3669" lon="6.66289">
        <ele>180.7</ele>
        <time>2022-10-09T12:20:37Z</time>
      </trkpt>
      <trkpt lat="43.36689" lon="6.66289">
        <ele>180.5</ele>
        <time>2022-10-09T12:20:39Z</time>
      </trkpt>
      <trkpt lat="43.36676" lon="6.66295">
        <ele>178.4</ele>
        <time>2022-10-09T12:21:01Z</time>
      </trkpt>
      <trkpt lat="43.36675" lon="6.66299">
        <ele>177.9</ele>
        <time>2022-10-09T12:21:02Z</time>
      </trkpt>
      <trkpt lat="43.36675" lon="6.66304">
        <ele>177.4</ele>
        <time>2022-10-09T12:21:03Z</time>
      </trkpt>
      <trkpt lat="43.36674" lon="6.66308">
        <ele>176.9</ele>
        <time>2022-10-09T12:21:04Z</time>
      </trkpt>
      <trkpt lat="43.36674" lon="6.66312">
        <ele>176.5</ele>
        <time>2022-10-09T12:21:05Z</time>
      </trkpt>
      <trkpt lat="43.36674" lon="6.66316">
        <ele>176.1</ele>
        <time>2022-10-09T12:21:06Z</time>
      </trkpt>
      <trkpt lat="43.36674" lon="6.6632">
        <ele>175.8</ele>
        <time>2022-10-09T12:21:07Z</time>
      </trkpt>
      <trkpt lat="43.36675" lon="6.66324">
        <ele>175.5</ele>
        <time>2022-10-09T12:21:08Z</time>
      </trkpt>
      <trkpt lat="43.36674" lon="6.66337">
        <ele>174.5</ele>
        <time>2022-10-09T12:21:11Z</time>
      </trkpt>
      <trkpt lat="43.36673" lon="6.66348">
        <ele>173.8</ele>
        <time>2022-10-09T12:21:13Z</time>
      </trkpt>
      <trkpt lat="43.36673" lon="6.66368">
        <ele>172.9</ele>
        <time>2022-10-09T12:21:16Z</time>
      </trkpt>
      <trkpt lat="43.36674" lon="6.66381">
        <ele>172.5</ele>
        <time>2022-10-09T12:21:18Z</time>
      </trkpt>
      <trkpt lat="43.36675" lon="6.66387">
        <ele>172.3</ele>
        <time>2022-10-09T12:21:19Z</time>
      </trkpt>
      <trkpt lat="43.36676" lon="6.66399">
        <ele>172.1</ele>
        <time>2022-10-09T12:21:21Z</time>
      </trkpt>
      <trkpt lat="43.36677" lon="6.66409">
        <ele>171.6</ele>
        <time>2022-10-09T12:21:22Z</time>
      </trkpt>
      <trkpt lat="43.36677" lon="6.66409">
        <ele>171.6</ele>
        <time>2022-10-09T12:21:23Z</time>
      </trkpt>
      <trkpt lat="43.36678" lon="6.66413">
        <ele>171.2</ele>
        <time>2022-10-09T12:21:24Z</time>
      </trkpt>
      <trkpt lat="43.36678" lon="6.66417">
        <ele>170.9</ele>
        <time>2022-10-09T12:21:25Z</time>
      </trkpt>
      <trkpt lat="43.36679" lon="6.66421">
        <ele>170.6</ele>
        <time>2022-10-09T12:21:26Z</time>
      </trkpt>
      <trkpt lat="43.36679" lon="6.66424">
        <ele>170.2</ele>
        <time>2022-10-09T12:21:27Z</time>
      </trkpt>
      <trkpt lat="43.36679" lon="6.66428">
        <ele>169.9</ele>
        <time>2022-10-09T12:21:28Z</time>
      </trkpt>
      <trkpt lat="43.3668" lon="6.66432">
        <ele>169.4</ele>
        <time>2022-10-09T12:21:29Z</time>
      </trkpt>
      <trkpt lat="43.3668" lon="6.6644">
        <ele>168.3</ele>
        <time>2022-10-09T12:21:31Z</time>
      </trkpt>
      <trkpt lat="43.36681" lon="6.66449">
        <ele>167.1</ele>
        <time>2022-10-09T12:21:33Z</time>
      </trkpt>
      <trkpt lat="43.36681" lon="6.66453">
        <ele>166.5</ele>
        <time>2022-10-09T12:21:34Z</time>
      </trkpt>
      <trkpt lat="43.36682" lon="6.66456">
        <ele>166</ele>
        <time>2022-10-09T12:21:35Z</time>
      </trkpt>
      <trkpt lat="43.36682" lon="6.66459">
        <ele>165.5</ele>
        <time>2022-10-09T12:21:36Z</time>
      </trkpt>
      <trkpt lat="43.36683" lon="6.66462">
        <ele>165</ele>
        <time>2022-10-09T12:21:37Z</time>
      </trkpt>
      <trkpt lat="43.36683" lon="6.66465">
        <ele>164.4</ele>
        <time>2022-10-09T12:21:38Z</time>
      </trkpt>
      <trkpt lat="43.36683" lon="6.66468">
        <ele>164</ele>
        <time>2022-10-09T12:21:39Z</time>
      </trkpt>
      <trkpt lat="43.36683" lon="6.66473">
        <ele>163.1</ele>
        <time>2022-10-09T12:21:41Z</time>
      </trkpt>
      <trkpt lat="43.36684" lon="6.66475">
        <ele>162.6</ele>
        <time>2022-10-09T12:21:42Z</time>
      </trkpt>
      <trkpt lat="43.36685" lon="6.66477">
        <ele>162.2</ele>
        <time>2022-10-09T12:21:43Z</time>
      </trkpt>
      <trkpt lat="43.36685" lon="6.66477">
        <ele>162.2</ele>
        <time>2022-10-09T12:21:44Z</time>
      </trkpt>
      <trkpt lat="43.36688" lon="6.66507">
        <ele>156.4</ele>
        <time>2022-10-09T12:22:29Z</time>
      </trkpt>
      <trkpt lat="43.36691" lon="6.66516">
        <ele>154.7</ele>
        <time>2022-10-09T12:22:31Z</time>
      </trkpt>
      <trkpt lat="43.36692" lon="6.6652">
        <ele>154</ele>
        <time>2022-10-09T12:22:33Z</time>
      </trkpt>
      <trkpt lat="43.36694" lon="6.66526">
        <ele>152.9</ele>
        <time>2022-10-09T12:22:34Z</time>
      </trkpt>
      <trkpt lat="43.36694" lon="6.66529">
        <ele>152.5</ele>
        <time>2022-10-09T12:22:35Z</time>
      </trkpt>
      <trkpt lat="43.36695" lon="6.66532">
        <ele>152.1</ele>
        <time>2022-10-09T12:22:36Z</time>
      </trkpt>
      <trkpt lat="43.36695" lon="6.66534">
        <ele>151.8</ele>
        <time>2022-10-09T12:22:37Z</time>
      </trkpt>
      <trkpt lat="43.36695" lon="6.66537">
        <ele>151.5</ele>
        <time>2022-10-09T12:22:38Z</time>
      </trkpt>
      <trkpt lat="43.36695" lon="6.66547">
        <ele>150.2</ele>
        <time>2022-10-09T12:22:41Z</time>
      </trkpt>
      <trkpt lat="43.36696" lon="6.66554">
        <ele>149.4</ele>
        <time>2022-10-09T12:22:43Z</time>
      </trkpt>
      <trkpt lat="43.36697" lon="6.66557">
        <ele>149</ele>
        <time>2022-10-09T12:22:44Z</time>
      </trkpt>
      <trkpt lat="43.36697" lon="6.6656">
        <ele>148.7</ele>
        <time>2022-10-09T12:22:45Z</time>
      </trkpt>
      <trkpt lat="43.36698" lon="6.66563">
        <ele>148.3</ele>
        <time>2022-10-09T12:22:46Z</time>
      </trkpt>
      <trkpt lat="43.36699" lon="6.66566">
        <ele>148</ele>
        <time>2022-10-09T12:22:47Z</time>
      </trkpt>
      <trkpt lat="43.36699" lon="6.66566">
        <ele>148</ele>
        <time>2022-10-09T12:22:48Z</time>
      </trkpt>
      <trkpt lat="43.36701" lon="6.66579">
        <ele>146.8</ele>
        <time>2022-10-09T12:22:50Z</time>
      </trkpt>
      <trkpt lat="43.36702" lon="6.66586">
        <ele>146.1</ele>
        <time>2022-10-09T12:22:52Z</time>
      </trkpt>
      <trkpt lat="43.36703" lon="6.66589">
        <ele>145.8</ele>
        <time>2022-10-09T12:22:53Z</time>
      </trkpt>
      <trkpt lat="43.36705" lon="6.66592">
        <ele>145.4</ele>
        <time>2022-10-09T12:22:54Z</time>
      </trkpt>
      <trkpt lat="43.36706" lon="6.66596">
        <ele>145</ele>
        <time>2022-10-09T12:22:55Z</time>
      </trkpt>
      <trkpt lat="43.36707" lon="6.666">
        <ele>144.7</ele>
        <time>2022-10-09T12:22:56Z</time>
      </trkpt>
      <trkpt lat="43.36709" lon="6.66604">
        <ele>144.2</ele>
        <time>2022-10-09T12:22:57Z</time>
      </trkpt>
      <trkpt lat="43.36711" lon="6.66608">
        <ele>143.7</ele>
        <time>2022-10-09T12:22:59Z</time>
      </trkpt>
      <trkpt lat="43.36712" lon="6.66612">
        <ele>143.2</ele>
        <time>2022-10-09T12:23:00Z</time>
      </trkpt>
      <trkpt lat="43.36714" lon="6.66619">
        <ele>142.3</ele>
        <time>2022-10-09T12:23:02Z</time>
      </trkpt>
      <trkpt lat="43.36715" lon="6.66622">
        <ele>141.9</ele>
        <time>2022-10-09T12:23:03Z</time>
      </trkpt>
      <trkpt lat="43.36715" lon="6.66625">
        <ele>141.4</ele>
        <time>2022-10-09T12:23:04Z</time>
      </trkpt>
      <trkpt lat="43.36717" lon="6.66628">
        <ele>140.8</ele>
        <time>2022-10-09T12:23:05Z</time>
      </trkpt>
      <trkpt lat="43.36717" lon="6.66631">
        <ele>140.2</ele>
        <time>2022-10-09T12:23:06Z</time>
      </trkpt>
      <trkpt lat="43.36719" lon="6.66635">
        <ele>139.6</ele>
        <time>2022-10-09T12:23:07Z</time>
      </trkpt>
      <trkpt lat="43.3672" lon="6.66638">
        <ele>139</ele>
        <time>2022-10-09T12:23:08Z</time>
      </trkpt>
      <trkpt lat="43.36722" lon="6.66646">
        <ele>137.5</ele>
        <time>2022-10-09T12:23:09Z</time>
      </trkpt>
      <trkpt lat="43.36722" lon="6.66646">
        <ele>137.5</ele>
        <time>2022-10-09T12:23:10Z</time>
      </trkpt>
      <trkpt lat="43.36723" lon="6.6665">
        <ele>136.7</ele>
        <time>2022-10-09T12:23:11Z</time>
      </trkpt>
      <trkpt lat="43.36724" lon="6.66653">
        <ele>136.1</ele>
        <time>2022-10-09T12:23:12Z</time>
      </trkpt>
      <trkpt lat="43.36725" lon="6.66656">
        <ele>135.5</ele>
        <time>2022-10-09T12:23:13Z</time>
      </trkpt>
      <trkpt lat="43.36725" lon="6.66658">
        <ele>135</ele>
        <time>2022-10-09T12:23:14Z</time>
      </trkpt>
      <trkpt lat="43.36727" lon="6.66665">
        <ele>133.7</ele>
        <time>2022-10-09T12:23:15Z</time>
      </trkpt>
      <trkpt lat="43.36729" lon="6.66674">
        <ele>132.2</ele>
        <time>2022-10-09T12:23:18Z</time>
      </trkpt>
      <trkpt lat="43.3673" lon="6.6668">
        <ele>131.2</ele>
        <time>2022-10-09T12:23:19Z</time>
      </trkpt>
      <trkpt lat="43.3673" lon="6.6668">
        <ele>131.2</ele>
        <time>2022-10-09T12:23:20Z</time>
      </trkpt>
      <trkpt lat="43.36731" lon="6.66683">
        <ele>130.6</ele>
        <time>2022-10-09T12:23:21Z</time>
      </trkpt>
      <trkpt lat="43.36731" lon="6.66697">
        <ele>128.8</ele>
        <time>2022-10-09T12:23:24Z</time>
      </trkpt>
      <trkpt lat="43.3673" lon="6.66701">
        <ele>128.2</ele>
        <time>2022-10-09T12:23:25Z</time>
      </trkpt>
      <trkpt lat="43.3673" lon="6.66705">
        <ele>127.8</ele>
        <time>2022-10-09T12:23:26Z</time>
      </trkpt>
      <trkpt lat="43.3673" lon="6.66718">
        <ele>126.5</ele>
        <time>2022-10-09T12:23:28Z</time>
      </trkpt>
      <trkpt lat="43.36729" lon="6.66726">
        <ele>125.7</ele>
        <time>2022-10-09T12:23:30Z</time>
      </trkpt>
      <trkpt lat="43.36728" lon="6.6673">
        <ele>125.4</ele>
        <time>2022-10-09T12:23:31Z</time>
      </trkpt>
      <trkpt lat="43.36728" lon="6.66733">
        <ele>125.2</ele>
        <time>2022-10-09T12:23:32Z</time>
      </trkpt>
      <trkpt lat="43.36728" lon="6.66736">
        <ele>124.9</ele>
        <time>2022-10-09T12:23:33Z</time>
      </trkpt>
      <trkpt lat="43.36728" lon="6.66736">
        <ele>124.9</ele>
        <time>2022-10-09T12:23:34Z</time>
      </trkpt>
      <trkpt lat="43.36728" lon="6.66743">
        <ele>124.3</ele>
        <time>2022-10-09T12:23:36Z</time>
      </trkpt>
      <trkpt lat="43.36728" lon="6.66761">
        <ele>123.2</ele>
        <time>2022-10-09T12:23:39Z</time>
      </trkpt>
      <trkpt lat="43.36726" lon="6.66774">
        <ele>122.3</ele>
        <time>2022-10-09T12:23:40Z</time>
      </trkpt>
      <trkpt lat="43.36725" lon="6.66781">
        <ele>122</ele>
        <time>2022-10-09T12:23:42Z</time>
      </trkpt>
      <trkpt lat="43.36725" lon="6.66788">
        <ele>121.7</ele>
        <time>2022-10-09T12:23:43Z</time>
      </trkpt>
      <trkpt lat="43.36726" lon="6.66794">
        <ele>121.4</ele>
        <time>2022-10-09T12:23:44Z</time>
      </trkpt>
      <trkpt lat="43.36728" lon="6.668">
        <ele>121.1</ele>
        <time>2022-10-09T12:23:45Z</time>
      </trkpt>
      <trkpt lat="43.3673" lon="6.66812">
        <ele>120.5</ele>
        <time>2022-10-09T12:23:47Z</time>
      </trkpt>
      <trkpt lat="43.3673" lon="6.66817">
        <ele>120.3</ele>
        <time>2022-10-09T12:23:48Z</time>
      </trkpt>
      <trkpt lat="43.3673" lon="6.66822">
        <ele>120</ele>
        <time>2022-10-09T12:23:49Z</time>
      </trkpt>
      <trkpt lat="43.3673" lon="6.66828">
        <ele>119.7</ele>
        <time>2022-10-09T12:23:50Z</time>
      </trkpt>
      <trkpt lat="43.36732" lon="6.66839">
        <ele>119</ele>
        <time>2022-10-09T12:23:52Z</time>
      </trkpt>
      <trkpt lat="43.36729" lon="6.6685">
        <ele>118.2</ele>
        <time>2022-10-09T12:23:54Z</time>
      </trkpt>
      <trkpt lat="43.36727" lon="6.66855">
        <ele>117.8</ele>
        <time>2022-10-09T12:23:55Z</time>
      </trkpt>
      <trkpt lat="43.36724" lon="6.6686">
        <ele>117.4</ele>
        <time>2022-10-09T12:23:56Z</time>
      </trkpt>
      <trkpt lat="43.36721" lon="6.66863">
        <ele>117.1</ele>
        <time>2022-10-09T12:23:57Z</time>
      </trkpt>
      <trkpt lat="43.36718" lon="6.66866">
        <ele>116.8</ele>
        <time>2022-10-09T12:23:58Z</time>
      </trkpt>
      <trkpt lat="43.36714" lon="6.66867">
        <ele>116.5</ele>
        <time>2022-10-09T12:23:59Z</time>
      </trkpt>
      <trkpt lat="43.36711" lon="6.66867">
        <ele>116.2</ele>
        <time>2022-10-09T12:24:00Z</time>
      </trkpt>
      <trkpt lat="43.36707" lon="6.66866">
        <ele>115.9</ele>
        <time>2022-10-09T12:24:01Z</time>
      </trkpt>
      <trkpt lat="43.36704" lon="6.66866">
        <ele>115.6</ele>
        <time>2022-10-09T12:24:02Z</time>
      </trkpt>
      <trkpt lat="43.36701" lon="6.66868">
        <ele>115.2</ele>
        <time>2022-10-09T12:24:03Z</time>
      </trkpt>
      <trkpt lat="43.36699" lon="6.66872">
        <ele>115</ele>
        <time>2022-10-09T12:24:04Z</time>
      </trkpt>
      <trkpt lat="43.36699" lon="6.66876">
        <ele>114.7</ele>
        <time>2022-10-09T12:24:05Z</time>
      </trkpt>
      <trkpt lat="43.36699" lon="6.66879">
        <ele>114.5</ele>
        <time>2022-10-09T12:24:06Z</time>
      </trkpt>
      <trkpt lat="43.36701" lon="6.66881">
        <ele>114.3</ele>
        <time>2022-10-09T12:24:07Z</time>
      </trkpt>
      <trkpt lat="43.36701" lon="6.66884">
        <ele>114.1</ele>
        <time>2022-10-09T12:24:08Z</time>
      </trkpt>
      <trkpt lat="43.36702" lon="6.66885">
        <ele>114.1</ele>
        <time>2022-10-09T12:24:09Z</time>
      </trkpt>
      <trkpt lat="43.36702" lon="6.66886">
        <ele>114.1</ele>
        <time>2022-10-09T12:24:11Z</time>
      </trkpt>
      <trkpt lat="43.36706" lon="6.66906">
        <ele>114.1</ele>
        <time>2022-10-09T12:24:31Z</time>
      </trkpt>
      <trkpt lat="43.36706" lon="6.66909">
        <ele>114.2</ele>
        <time>2022-10-09T12:24:33Z</time>
      </trkpt>
      <trkpt lat="43.36706" lon="6.66911">
        <ele>114.3</ele>
        <time>2022-10-09T12:24:34Z</time>
      </trkpt>
      <trkpt lat="43.36706" lon="6.66912">
        <ele>114.3</ele>
        <time>2022-10-09T12:24:35Z</time>
      </trkpt>
      <trkpt lat="43.36707" lon="6.66914">
        <ele>114.4</ele>
        <time>2022-10-09T12:24:36Z</time>
      </trkpt>
      <trkpt lat="43.36708" lon="6.66916">
        <ele>114.5</ele>
        <time>2022-10-09T12:24:38Z</time>
      </trkpt>
      <trkpt lat="43.36708" lon="6.66918">
        <ele>114.6</ele>
        <time>2022-10-09T12:24:39Z</time>
      </trkpt>
      <trkpt lat="43.36708" lon="6.66921">
        <ele>114.7</ele>
        <time>2022-10-09T12:24:41Z</time>
      </trkpt>
      <trkpt lat="43.36708" lon="6.66923">
        <ele>114.8</ele>
        <time>2022-10-09T12:24:42Z</time>
      </trkpt>
      <trkpt lat="43.36709" lon="6.66928">
        <ele>115.1</ele>
        <time>2022-10-09T12:24:45Z</time>
      </trkpt>
      <trkpt lat="43.3671" lon="6.66929">
        <ele>115.2</ele>
        <time>2022-10-09T12:24:46Z</time>
      </trkpt>
      <trkpt lat="43.3671" lon="6.66931">
        <ele>115.2</ele>
        <time>2022-10-09T12:24:47Z</time>
      </trkpt>
      <trkpt lat="43.3671" lon="6.66932">
        <ele>115.3</ele>
        <time>2022-10-09T12:24:48Z</time>
      </trkpt>
      <trkpt lat="43.3671" lon="6.66933">
        <ele>115.4</ele>
        <time>2022-10-09T12:24:49Z</time>
      </trkpt>
      <trkpt lat="43.3671" lon="6.66934">
        <ele>115.4</ele>
        <time>2022-10-09T12:24:50Z</time>
      </trkpt>
      <trkpt lat="43.3671" lon="6.66935">
        <ele>115.5</ele>
        <time>2022-10-09T12:24:52Z</time>
      </trkpt>
      <trkpt lat="43.36712" lon="6.66944">
        <ele>116.1</ele>
        <time>2022-10-09T12:24:57Z</time>
      </trkpt>
      <trkpt lat="43.36712" lon="6.66946">
        <ele>116.2</ele>
        <time>2022-10-09T12:24:58Z</time>
      </trkpt>
      <trkpt lat="43.36712" lon="6.66948">
        <ele>116.4</ele>
        <time>2022-10-09T12:24:59Z</time>
      </trkpt>
      <trkpt lat="43.36712" lon="6.66951">
        <ele>116.5</ele>
        <time>2022-10-09T12:25:00Z</time>
      </trkpt>
      <trkpt lat="43.36712" lon="6.66954">
        <ele>116.7</ele>
        <time>2022-10-09T12:25:01Z</time>
      </trkpt>
      <trkpt lat="43.36712" lon="6.66956">
        <ele>116.9</ele>
        <time>2022-10-09T12:25:02Z</time>
      </trkpt>
      <trkpt lat="43.36712" lon="6.66959">
        <ele>117</ele>
        <time>2022-10-09T12:25:03Z</time>
      </trkpt>
      <trkpt lat="43.36712" lon="6.66962">
        <ele>117.2</ele>
        <time>2022-10-09T12:25:04Z</time>
      </trkpt>
      <trkpt lat="43.36712" lon="6.66965">
        <ele>117.3</ele>
        <time>2022-10-09T12:25:05Z</time>
      </trkpt>
      <trkpt lat="43.36712" lon="6.66968">
        <ele>117.5</ele>
        <time>2022-10-09T12:25:06Z</time>
      </trkpt>
      <trkpt lat="43.36712" lon="6.66971">
        <ele>117.7</ele>
        <time>2022-10-09T12:25:07Z</time>
      </trkpt>
      <trkpt lat="43.36712" lon="6.66974">
        <ele>117.9</ele>
        <time>2022-10-09T12:25:08Z</time>
      </trkpt>
      <trkpt lat="43.36712" lon="6.66977">
        <ele>118</ele>
        <time>2022-10-09T12:25:09Z</time>
      </trkpt>
      <trkpt lat="43.36712" lon="6.6698">
        <ele>118.2</ele>
        <time>2022-10-09T12:25:10Z</time>
      </trkpt>
      <trkpt lat="43.36711" lon="6.66984">
        <ele>118.3</ele>
        <time>2022-10-09T12:25:11Z</time>
      </trkpt>
      <trkpt lat="43.36711" lon="6.66987">
        <ele>118.4</ele>
        <time>2022-10-09T12:25:12Z</time>
      </trkpt>
      <trkpt lat="43.36711" lon="6.6699">
        <ele>118.6</ele>
        <time>2022-10-09T12:25:13Z</time>
      </trkpt>
      <trkpt lat="43.3671" lon="6.66993">
        <ele>118.7</ele>
        <time>2022-10-09T12:25:14Z</time>
      </trkpt>
      <trkpt lat="43.3671" lon="6.66997">
        <ele>118.8</ele>
        <time>2022-10-09T12:25:15Z</time>
      </trkpt>
      <trkpt lat="43.36709" lon="6.67">
        <ele>118.9</ele>
        <time>2022-10-09T12:25:16Z</time>
      </trkpt>
      <trkpt lat="43.36708" lon="6.67003">
        <ele>119</ele>
        <time>2022-10-09T12:25:17Z</time>
      </trkpt>
      <trkpt lat="43.36707" lon="6.67006">
        <ele>119</ele>
        <time>2022-10-09T12:25:18Z</time>
      </trkpt>
      <trkpt lat="43.36706" lon="6.6701">
        <ele>119.1</ele>
        <time>2022-10-09T12:25:19Z</time>
      </trkpt>
      <trkpt lat="43.36706" lon="6.67013">
        <ele>119.1</ele>
        <time>2022-10-09T12:25:20Z</time>
      </trkpt>
      <trkpt lat="43.36705" lon="6.67017">
        <ele>119.1</ele>
        <time>2022-10-09T12:25:21Z</time>
      </trkpt>
      <trkpt lat="43.36704" lon="6.67022">
        <ele>119.1</ele>
        <time>2022-10-09T12:25:22Z</time>
      </trkpt>
      <trkpt lat="43.36703" lon="6.67027">
        <ele>119</ele>
        <time>2022-10-09T12:25:23Z</time>
      </trkpt>
      <trkpt lat="43.36702" lon="6.67032">
        <ele>119</ele>
        <time>2022-10-09T12:25:24Z</time>
      </trkpt>
      <trkpt lat="43.36699" lon="6.67042">
        <ele>118.8</ele>
        <time>2022-10-09T12:25:26Z</time>
      </trkpt>
      <trkpt lat="43.36694" lon="6.67054">
        <ele>118.5</ele>
        <time>2022-10-09T12:25:28Z</time>
      </trkpt>
      <trkpt lat="43.36693" lon="6.6706">
        <ele>118.4</ele>
        <time>2022-10-09T12:25:29Z</time>
      </trkpt>
      <trkpt lat="43.36691" lon="6.67066">
        <ele>118.3</ele>
        <time>2022-10-09T12:25:30Z</time>
      </trkpt>
      <trkpt lat="43.3669" lon="6.67072">
        <ele>118.2</ele>
        <time>2022-10-09T12:25:31Z</time>
      </trkpt>
      <trkpt lat="43.36689" lon="6.67077">
        <ele>118.2</ele>
        <time>2022-10-09T12:25:32Z</time>
      </trkpt>
      <trkpt lat="43.36689" lon="6.67082">
        <ele>118.1</ele>
        <time>2022-10-09T12:25:33Z</time>
      </trkpt>
      <trkpt lat="43.36687" lon="6.67086">
        <ele>118</ele>
        <time>2022-10-09T12:25:34Z</time>
      </trkpt>
      <trkpt lat="43.36688" lon="6.6709">
        <ele>117.9</ele>
        <time>2022-10-09T12:25:35Z</time>
      </trkpt>
      <trkpt lat="43.36689" lon="6.67094">
        <ele>117.8</ele>
        <time>2022-10-09T12:25:36Z</time>
      </trkpt>
      <trkpt lat="43.3669" lon="6.67097">
        <ele>117.6</ele>
        <time>2022-10-09T12:25:37Z</time>
      </trkpt>
      <trkpt lat="43.36691" lon="6.67101">
        <ele>117.4</ele>
        <time>2022-10-09T12:25:38Z</time>
      </trkpt>
      <trkpt lat="43.36692" lon="6.67105">
        <ele>117.2</ele>
        <time>2022-10-09T12:25:39Z</time>
      </trkpt>
      <trkpt lat="43.36694" lon="6.67113">
        <ele>116.6</ele>
        <time>2022-10-09T12:25:41Z</time>
      </trkpt>
      <trkpt lat="43.36695" lon="6.67118">
        <ele>116.1</ele>
        <time>2022-10-09T12:25:42Z</time>
      </trkpt>
      <trkpt lat="43.36696" lon="6.67124">
        <ele>115.5</ele>
        <time>2022-10-09T12:25:43Z</time>
      </trkpt>
      <trkpt lat="43.36697" lon="6.67129">
        <ele>114.9</ele>
        <time>2022-10-09T12:25:44Z</time>
      </trkpt>
      <trkpt lat="43.36697" lon="6.67135">
        <ele>114.3</ele>
        <time>2022-10-09T12:25:45Z</time>
      </trkpt>
      <trkpt lat="43.36698" lon="6.67141">
        <ele>113.6</ele>
        <time>2022-10-09T12:25:46Z</time>
      </trkpt>
      <trkpt lat="43.36698" lon="6.67156">
        <ele>112.1</ele>
        <time>2022-10-09T12:25:48Z</time>
      </trkpt>
      <trkpt lat="43.36698" lon="6.67164">
        <ele>111.4</ele>
        <time>2022-10-09T12:25:49Z</time>
      </trkpt>
      <trkpt lat="43.36697" lon="6.67183">
        <ele>110.4</ele>
        <time>2022-10-09T12:25:51Z</time>
      </trkpt>
      <trkpt lat="43.36696" lon="6.672">
        <ele>109.8</ele>
        <time>2022-10-09T12:25:53Z</time>
      </trkpt>
      <trkpt lat="43.36693" lon="6.67208">
        <ele>109.6</ele>
        <time>2022-10-09T12:25:54Z</time>
      </trkpt>
      <trkpt lat="43.36689" lon="6.67215">
        <ele>109.3</ele>
        <time>2022-10-09T12:25:55Z</time>
      </trkpt>
      <trkpt lat="43.36684" lon="6.67219">
        <ele>109.1</ele>
        <time>2022-10-09T12:25:56Z</time>
      </trkpt>
      <trkpt lat="43.3668" lon="6.67221">
        <ele>108.9</ele>
        <time>2022-10-09T12:25:57Z</time>
      </trkpt>
      <trkpt lat="43.36675" lon="6.67222">
        <ele>108.7</ele>
        <time>2022-10-09T12:25:58Z</time>
      </trkpt>
      <trkpt lat="43.36672" lon="6.67223">
        <ele>108.5</ele>
        <time>2022-10-09T12:25:59Z</time>
      </trkpt>
      <trkpt lat="43.36669" lon="6.67224">
        <ele>108.3</ele>
        <time>2022-10-09T12:26:00Z</time>
      </trkpt>
      <trkpt lat="43.36668" lon="6.67228">
        <ele>108.2</ele>
        <time>2022-10-09T12:26:01Z</time>
      </trkpt>
      <trkpt lat="43.36666" lon="6.67241">
        <ele>107.5</ele>
        <time>2022-10-09T12:26:03Z</time>
      </trkpt>
      <trkpt lat="43.36662" lon="6.67253">
        <ele>106.9</ele>
        <time>2022-10-09T12:26:05Z</time>
      </trkpt>
      <trkpt lat="43.36662" lon="6.67258">
        <ele>106.7</ele>
        <time>2022-10-09T12:26:06Z</time>
      </trkpt>
      <trkpt lat="43.36663" lon="6.67264">
        <ele>106.5</ele>
        <time>2022-10-09T12:26:07Z</time>
      </trkpt>
      <trkpt lat="43.36664" lon="6.67269">
        <ele>106.3</ele>
        <time>2022-10-09T12:26:08Z</time>
      </trkpt>
      <trkpt lat="43.36664" lon="6.67274">
        <ele>106.2</ele>
        <time>2022-10-09T12:26:09Z</time>
      </trkpt>
      <trkpt lat="43.36663" lon="6.67277">
        <ele>106</ele>
        <time>2022-10-09T12:26:10Z</time>
      </trkpt>
      <trkpt lat="43.36662" lon="6.67281">
        <ele>105.9</ele>
        <time>2022-10-09T12:26:11Z</time>
      </trkpt>
      <trkpt lat="43.36657" lon="6.67296">
        <ele>105.1</ele>
        <time>2022-10-09T12:26:15Z</time>
      </trkpt>
      <trkpt lat="43.36657" lon="6.67301">
        <ele>104.9</ele>
        <time>2022-10-09T12:26:16Z</time>
      </trkpt>
      <trkpt lat="43.36658" lon="6.67306">
        <ele>104.7</ele>
        <time>2022-10-09T12:26:17Z</time>
      </trkpt>
      <trkpt lat="43.36661" lon="6.6731">
        <ele>104.7</ele>
        <time>2022-10-09T12:26:18Z</time>
      </trkpt>
      <trkpt lat="43.36669" lon="6.67318">
        <ele>104.6</ele>
        <time>2022-10-09T12:26:20Z</time>
      </trkpt>
      <trkpt lat="43.36669" lon="6.67318">
        <ele>104.6</ele>
        <time>2022-10-09T12:26:21Z</time>
      </trkpt>
      <trkpt lat="43.36672" lon="6.6732">
        <ele>104.7</ele>
        <time>2022-10-09T12:26:22Z</time>
      </trkpt>
      <trkpt lat="43.36677" lon="6.67325">
        <ele>104.9</ele>
        <time>2022-10-09T12:26:23Z</time>
      </trkpt>
      <trkpt lat="43.36679" lon="6.67327">
        <ele>105</ele>
        <time>2022-10-09T12:26:24Z</time>
      </trkpt>
      <trkpt lat="43.36681" lon="6.67329">
        <ele>105.1</ele>
        <time>2022-10-09T12:26:25Z</time>
      </trkpt>
      <trkpt lat="43.36683" lon="6.6733">
        <ele>105.2</ele>
        <time>2022-10-09T12:26:26Z</time>
      </trkpt>
      <trkpt lat="43.36685" lon="6.67332">
        <ele>105.3</ele>
        <time>2022-10-09T12:26:27Z</time>
      </trkpt>
      <trkpt lat="43.36687" lon="6.67333">
        <ele>105.5</ele>
        <time>2022-10-09T12:26:28Z</time>
      </trkpt>
      <trkpt lat="43.36689" lon="6.67334">
        <ele>105.6</ele>
        <time>2022-10-09T12:26:29Z</time>
      </trkpt>
      <trkpt lat="43.36691" lon="6.67336">
        <ele>105.8</ele>
        <time>2022-10-09T12:26:30Z</time>
      </trkpt>
      <trkpt lat="43.36692" lon="6.67338">
        <ele>106</ele>
        <time>2022-10-09T12:26:31Z</time>
      </trkpt>
      <trkpt lat="43.36694" lon="6.67339">
        <ele>106.1</ele>
        <time>2022-10-09T12:26:32Z</time>
      </trkpt>
      <trkpt lat="43.36697" lon="6.67343">
        <ele>106.5</ele>
        <time>2022-10-09T12:26:34Z</time>
      </trkpt>
      <trkpt lat="43.36698" lon="6.67345">
        <ele>106.7</ele>
        <time>2022-10-09T12:26:36Z</time>
      </trkpt>
      <trkpt lat="43.367" lon="6.67347">
        <ele>106.8</ele>
        <time>2022-10-09T12:26:37Z</time>
      </trkpt>
      <trkpt lat="43.36702" lon="6.67351">
        <ele>107.2</ele>
        <time>2022-10-09T12:26:38Z</time>
      </trkpt>
      <trkpt lat="43.36702" lon="6.67351">
        <ele>107.2</ele>
        <time>2022-10-09T12:26:39Z</time>
      </trkpt>
      <trkpt lat="43.36705" lon="6.67358">
        <ele>107.6</ele>
        <time>2022-10-09T12:26:42Z</time>
      </trkpt>
      <trkpt lat="43.36706" lon="6.67363">
        <ele>108</ele>
        <time>2022-10-09T12:26:43Z</time>
      </trkpt>
      <trkpt lat="43.36707" lon="6.67366">
        <ele>108.1</ele>
        <time>2022-10-09T12:26:44Z</time>
      </trkpt>
      <trkpt lat="43.36708" lon="6.67369">
        <ele>108.3</ele>
        <time>2022-10-09T12:26:45Z</time>
      </trkpt>
      <trkpt lat="43.36708" lon="6.67372">
        <ele>108.4</ele>
        <time>2022-10-09T12:26:46Z</time>
      </trkpt>
      <trkpt lat="43.36709" lon="6.67375">
        <ele>108.6</ele>
        <time>2022-10-09T12:26:47Z</time>
      </trkpt>
      <trkpt lat="43.36709" lon="6.67379">
        <ele>108.7</ele>
        <time>2022-10-09T12:26:48Z</time>
      </trkpt>
      <trkpt lat="43.3671" lon="6.67382">
        <ele>108.9</ele>
        <time>2022-10-09T12:26:49Z</time>
      </trkpt>
      <trkpt lat="43.3671" lon="6.67382">
        <ele>108.9</ele>
        <time>2022-10-09T12:26:50Z</time>
      </trkpt>
      <trkpt lat="43.3671" lon="6.67385">
        <ele>109</ele>
        <time>2022-10-09T12:26:51Z</time>
      </trkpt>
      <trkpt lat="43.3671" lon="6.67392">
        <ele>109.2</ele>
        <time>2022-10-09T12:26:52Z</time>
      </trkpt>
      <trkpt lat="43.3671" lon="6.67395">
        <ele>109.4</ele>
        <time>2022-10-09T12:26:53Z</time>
      </trkpt>
      <trkpt lat="43.36711" lon="6.67398">
        <ele>109.5</ele>
        <time>2022-10-09T12:26:54Z</time>
      </trkpt>
      <trkpt lat="43.36711" lon="6.67401">
        <ele>109.5</ele>
        <time>2022-10-09T12:26:55Z</time>
      </trkpt>
      <trkpt lat="43.3671" lon="6.67405">
        <ele>109.6</ele>
        <time>2022-10-09T12:26:56Z</time>
      </trkpt>
      <trkpt lat="43.3671" lon="6.67405">
        <ele>109.6</ele>
        <time>2022-10-09T12:26:57Z</time>
      </trkpt>
      <trkpt lat="43.3671" lon="6.67408">
        <ele>109.7</ele>
        <time>2022-10-09T12:26:58Z</time>
      </trkpt>
      <trkpt lat="43.3671" lon="6.67412">
        <ele>109.8</ele>
        <time>2022-10-09T12:26:59Z</time>
      </trkpt>
      <trkpt lat="43.36711" lon="6.67416">
        <ele>109.8</ele>
        <time>2022-10-09T12:27:00Z</time>
      </trkpt>
      <trkpt lat="43.36711" lon="6.6742">
        <ele>109.9</ele>
        <time>2022-10-09T12:27:01Z</time>
      </trkpt>
      <trkpt lat="43.36713" lon="6.67425">
        <ele>109.9</ele>
        <time>2022-10-09T12:27:02Z</time>
      </trkpt>
      <trkpt lat="43.36716" lon="6.67435">
        <ele>109.9</ele>
        <time>2022-10-09T12:27:03Z</time>
      </trkpt>
      <trkpt lat="43.36718" lon="6.67441">
        <ele>109.8</ele>
        <time>2022-10-09T12:27:04Z</time>
      </trkpt>
      <trkpt lat="43.3672" lon="6.67446">
        <ele>109.8</ele>
        <time>2022-10-09T12:27:05Z</time>
      </trkpt>
      <trkpt lat="43.36721" lon="6.67451">
        <ele>109.8</ele>
        <time>2022-10-09T12:27:06Z</time>
      </trkpt>
      <trkpt lat="43.36728" lon="6.67481">
        <ele>109.6</ele>
        <time>2022-10-09T12:27:11Z</time>
      </trkpt>
      <trkpt lat="43.36733" lon="6.67492">
        <ele>109.6</ele>
        <time>2022-10-09T12:27:13Z</time>
      </trkpt>
      <trkpt lat="43.3674" lon="6.67509">
        <ele>109.6</ele>
        <time>2022-10-09T12:27:17Z</time>
      </trkpt>
      <trkpt lat="43.36743" lon="6.67514">
        <ele>109.7</ele>
        <time>2022-10-09T12:27:18Z</time>
      </trkpt>
      <trkpt lat="43.36747" lon="6.67524">
        <ele>109.8</ele>
        <time>2022-10-09T12:27:19Z</time>
      </trkpt>
      <trkpt lat="43.36749" lon="6.67529">
        <ele>109.9</ele>
        <time>2022-10-09T12:27:20Z</time>
      </trkpt>
      <trkpt lat="43.36751" lon="6.67533">
        <ele>110</ele>
        <time>2022-10-09T12:27:21Z</time>
      </trkpt>
      <trkpt lat="43.36752" lon="6.67535">
        <ele>110.1</ele>
        <time>2022-10-09T12:27:22Z</time>
      </trkpt>
      <trkpt lat="43.36753" lon="6.67538">
        <ele>110.1</ele>
        <time>2022-10-09T12:27:23Z</time>
      </trkpt>
      <trkpt lat="43.36756" lon="6.67546">
        <ele>110.4</ele>
        <time>2022-10-09T12:27:24Z</time>
      </trkpt>
      <trkpt lat="43.36758" lon="6.6755">
        <ele>110.5</ele>
        <time>2022-10-09T12:27:25Z</time>
      </trkpt>
      <trkpt lat="43.36758" lon="6.67554">
        <ele>110.6</ele>
        <time>2022-10-09T12:27:26Z</time>
      </trkpt>
      <trkpt lat="43.36759" lon="6.67558">
        <ele>110.7</ele>
        <time>2022-10-09T12:27:27Z</time>
      </trkpt>
      <trkpt lat="43.36761" lon="6.67572">
        <ele>111.2</ele>
        <time>2022-10-09T12:27:31Z</time>
      </trkpt>
      <trkpt lat="43.36763" lon="6.67576">
        <ele>111.3</ele>
        <time>2022-10-09T12:27:32Z</time>
      </trkpt>
      <trkpt lat="43.36765" lon="6.67579">
        <ele>111.5</ele>
        <time>2022-10-09T12:27:33Z</time>
      </trkpt>
      <trkpt lat="43.36767" lon="6.67582">
        <ele>111.7</ele>
        <time>2022-10-09T12:27:34Z</time>
      </trkpt>
      <trkpt lat="43.36768" lon="6.67586">
        <ele>111.8</ele>
        <time>2022-10-09T12:27:35Z</time>
      </trkpt>
      <trkpt lat="43.36769" lon="6.67593">
        <ele>112.2</ele>
        <time>2022-10-09T12:27:36Z</time>
      </trkpt>
      <trkpt lat="43.36769" lon="6.67596">
        <ele>112.3</ele>
        <time>2022-10-09T12:27:37Z</time>
      </trkpt>
      <trkpt lat="43.36769" lon="6.67599">
        <ele>112.5</ele>
        <time>2022-10-09T12:27:38Z</time>
      </trkpt>
      <trkpt lat="43.36769" lon="6.67602">
        <ele>112.6</ele>
        <time>2022-10-09T12:27:39Z</time>
      </trkpt>
      <trkpt lat="43.36769" lon="6.67604">
        <ele>112.8</ele>
        <time>2022-10-09T12:27:40Z</time>
      </trkpt>
      <trkpt lat="43.36768" lon="6.67606">
        <ele>112.9</ele>
        <time>2022-10-09T12:27:41Z</time>
      </trkpt>
      <trkpt lat="43.36768" lon="6.67609">
        <ele>113.1</ele>
        <time>2022-10-09T12:27:42Z</time>
      </trkpt>
      <trkpt lat="43.36767" lon="6.67611">
        <ele>113.2</ele>
        <time>2022-10-09T12:27:43Z</time>
      </trkpt>
      <trkpt lat="43.36767" lon="6.67611">
        <ele>113.2</ele>
        <time>2022-10-09T12:27:44Z</time>
      </trkpt>
      <trkpt lat="43.36767" lon="6.67613">
        <ele>113.3</ele>
        <time>2022-10-09T12:27:45Z</time>
      </trkpt>
      <trkpt lat="43.36767" lon="6.67614">
        <ele>113.5</ele>
        <time>2022-10-09T12:27:46Z</time>
      </trkpt>
      <trkpt lat="43.36766" lon="6.67615">
        <ele>113.5</ele>
        <time>2022-10-09T12:27:47Z</time>
      </trkpt>
      <trkpt lat="43.36752" lon="6.67691">
        <ele>121</ele>
        <time>2022-10-09T12:30:37Z</time>
      </trkpt>
      <trkpt lat="43.36751" lon="6.67693">
        <ele>121.1</ele>
        <time>2022-10-09T12:30:38Z</time>
      </trkpt>
      <trkpt lat="43.3675" lon="6.67698">
        <ele>121.3</ele>
        <time>2022-10-09T12:30:40Z</time>
      </trkpt>
      <trkpt lat="43.3675" lon="6.67702">
        <ele>121.5</ele>
        <time>2022-10-09T12:30:41Z</time>
      </trkpt>
      <trkpt lat="43.36751" lon="6.6771">
        <ele>121.9</ele>
        <time>2022-10-09T12:30:44Z</time>
      </trkpt>
      <trkpt lat="43.36751" lon="6.67713">
        <ele>122</ele>
        <time>2022-10-09T12:30:45Z</time>
      </trkpt>
      <trkpt lat="43.36751" lon="6.67715">
        <ele>122.1</ele>
        <time>2022-10-09T12:30:46Z</time>
      </trkpt>
      <trkpt lat="43.36751" lon="6.67717">
        <ele>122.3</ele>
        <time>2022-10-09T12:30:47Z</time>
      </trkpt>
      <trkpt lat="43.36751" lon="6.6772">
        <ele>122.4</ele>
        <time>2022-10-09T12:30:48Z</time>
      </trkpt>
      <trkpt lat="43.36752" lon="6.67722">
        <ele>122.6</ele>
        <time>2022-10-09T12:30:49Z</time>
      </trkpt>
      <trkpt lat="43.36752" lon="6.67725">
        <ele>122.8</ele>
        <time>2022-10-09T12:30:50Z</time>
      </trkpt>
      <trkpt lat="43.36752" lon="6.67729">
        <ele>123.1</ele>
        <time>2022-10-09T12:30:52Z</time>
      </trkpt>
      <trkpt lat="43.36752" lon="6.67731">
        <ele>123.2</ele>
        <time>2022-10-09T12:30:53Z</time>
      </trkpt>
      <trkpt lat="43.36753" lon="6.67733">
        <ele>123.4</ele>
        <time>2022-10-09T12:30:54Z</time>
      </trkpt>
      <trkpt lat="43.36753" lon="6.67735">
        <ele>123.6</ele>
        <time>2022-10-09T12:30:55Z</time>
      </trkpt>
      <trkpt lat="43.36753" lon="6.67737">
        <ele>123.7</ele>
        <time>2022-10-09T12:30:56Z</time>
      </trkpt>
      <trkpt lat="43.36753" lon="6.67739">
        <ele>123.9</ele>
        <time>2022-10-09T12:30:57Z</time>
      </trkpt>
      <trkpt lat="43.36754" lon="6.67743">
        <ele>124.2</ele>
        <time>2022-10-09T12:30:59Z</time>
      </trkpt>
      <trkpt lat="43.36754" lon="6.67745">
        <ele>124.4</ele>
        <time>2022-10-09T12:31:00Z</time>
      </trkpt>
      <trkpt lat="43.36754" lon="6.67747">
        <ele>124.6</ele>
        <time>2022-10-09T12:31:01Z</time>
      </trkpt>
      <trkpt lat="43.36755" lon="6.67748">
        <ele>124.7</ele>
        <time>2022-10-09T12:31:02Z</time>
      </trkpt>
      <trkpt lat="43.36755" lon="6.6775">
        <ele>124.9</ele>
        <time>2022-10-09T12:31:03Z</time>
      </trkpt>
      <trkpt lat="43.36755" lon="6.67752">
        <ele>125.1</ele>
        <time>2022-10-09T12:31:04Z</time>
      </trkpt>
      <trkpt lat="43.36755" lon="6.67754">
        <ele>125.3</ele>
        <time>2022-10-09T12:31:05Z</time>
      </trkpt>
      <trkpt lat="43.36756" lon="6.67755">
        <ele>125.4</ele>
        <time>2022-10-09T12:31:06Z</time>
      </trkpt>
      <trkpt lat="43.36756" lon="6.67757">
        <ele>125.6</ele>
        <time>2022-10-09T12:31:07Z</time>
      </trkpt>
      <trkpt lat="43.36756" lon="6.67759">
        <ele>125.8</ele>
        <time>2022-10-09T12:31:08Z</time>
      </trkpt>
      <trkpt lat="43.36756" lon="6.67761">
        <ele>126</ele>
        <time>2022-10-09T12:31:09Z</time>
      </trkpt>
      <trkpt lat="43.36756" lon="6.67763">
        <ele>126.2</ele>
        <time>2022-10-09T12:31:10Z</time>
      </trkpt>
      <trkpt lat="43.36756" lon="6.67764">
        <ele>126.4</ele>
        <time>2022-10-09T12:31:11Z</time>
      </trkpt>
      <trkpt lat="43.36757" lon="6.67766">
        <ele>126.6</ele>
        <time>2022-10-09T12:31:12Z</time>
      </trkpt>
      <trkpt lat="43.36757" lon="6.67768">
        <ele>126.8</ele>
        <time>2022-10-09T12:31:13Z</time>
      </trkpt>
      <trkpt lat="43.36758" lon="6.67769">
        <ele>127</ele>
        <time>2022-10-09T12:31:14Z</time>
      </trkpt>
      <trkpt lat="43.36758" lon="6.67771">
        <ele>127.2</ele>
        <time>2022-10-09T12:31:15Z</time>
      </trkpt>
      <trkpt lat="43.36758" lon="6.67773">
        <ele>127.4</ele>
        <time>2022-10-09T12:31:16Z</time>
      </trkpt>
      <trkpt lat="43.36759" lon="6.67775">
        <ele>127.6</ele>
        <time>2022-10-09T12:31:17Z</time>
      </trkpt>
      <trkpt lat="43.36759" lon="6.67777">
        <ele>127.8</ele>
        <time>2022-10-09T12:31:18Z</time>
      </trkpt>
      <trkpt lat="43.36759" lon="6.67778">
        <ele>128</ele>
        <time>2022-10-09T12:31:19Z</time>
      </trkpt>
      <trkpt lat="43.36759" lon="6.6778">
        <ele>128.2</ele>
        <time>2022-10-09T12:31:20Z</time>
      </trkpt>
      <trkpt lat="43.36759" lon="6.67782">
        <ele>128.4</ele>
        <time>2022-10-09T12:31:21Z</time>
      </trkpt>
      <trkpt lat="43.36759" lon="6.67784">
        <ele>128.6</ele>
        <time>2022-10-09T12:31:22Z</time>
      </trkpt>
      <trkpt lat="43.3676" lon="6.67785">
        <ele>128.8</ele>
        <time>2022-10-09T12:31:23Z</time>
      </trkpt>
      <trkpt lat="43.3676" lon="6.67787">
        <ele>129</ele>
        <time>2022-10-09T12:31:24Z</time>
      </trkpt>
      <trkpt lat="43.3676" lon="6.67788">
        <ele>129.2</ele>
        <time>2022-10-09T12:31:25Z</time>
      </trkpt>
      <trkpt lat="43.36761" lon="6.67789">
        <ele>129.4</ele>
        <time>2022-10-09T12:31:26Z</time>
      </trkpt>
      <trkpt lat="43.36761" lon="6.67791">
        <ele>129.5</ele>
        <time>2022-10-09T12:31:27Z</time>
      </trkpt>
      <trkpt lat="43.36762" lon="6.67792">
        <ele>129.7</ele>
        <time>2022-10-09T12:31:28Z</time>
      </trkpt>
      <trkpt lat="43.36762" lon="6.67793">
        <ele>129.9</ele>
        <time>2022-10-09T12:31:29Z</time>
      </trkpt>
      <trkpt lat="43.36763" lon="6.67795">
        <ele>130.1</ele>
        <time>2022-10-09T12:31:30Z</time>
      </trkpt>
      <trkpt lat="43.36763" lon="6.67796">
        <ele>130.3</ele>
        <time>2022-10-09T12:31:31Z</time>
      </trkpt>
      <trkpt lat="43.36763" lon="6.67798">
        <ele>130.5</ele>
        <time>2022-10-09T12:31:32Z</time>
      </trkpt>
      <trkpt lat="43.36764" lon="6.678">
        <ele>130.7</ele>
        <time>2022-10-09T12:31:33Z</time>
      </trkpt>
      <trkpt lat="43.36764" lon="6.67801">
        <ele>130.9</ele>
        <time>2022-10-09T12:31:34Z</time>
      </trkpt>
      <trkpt lat="43.36764" lon="6.67803">
        <ele>131.1</ele>
        <time>2022-10-09T12:31:35Z</time>
      </trkpt>
      <trkpt lat="43.36764" lon="6.67805">
        <ele>131.3</ele>
        <time>2022-10-09T12:31:36Z</time>
      </trkpt>
      <trkpt lat="43.36764" lon="6.67806">
        <ele>131.5</ele>
        <time>2022-10-09T12:31:37Z</time>
      </trkpt>
      <trkpt lat="43.36765" lon="6.67808">
        <ele>131.7</ele>
        <time>2022-10-09T12:31:38Z</time>
      </trkpt>
      <trkpt lat="43.36765" lon="6.67809">
        <ele>131.9</ele>
        <time>2022-10-09T12:31:39Z</time>
      </trkpt>
      <trkpt lat="43.36766" lon="6.6781">
        <ele>132.1</ele>
        <time>2022-10-09T12:31:40Z</time>
      </trkpt>
      <trkpt lat="43.36766" lon="6.67811">
        <ele>132.2</ele>
        <time>2022-10-09T12:31:41Z</time>
      </trkpt>
      <trkpt lat="43.36766" lon="6.67812">
        <ele>132.2</ele>
        <time>2022-10-09T12:31:42Z</time>
      </trkpt>
      <trkpt lat="43.36766" lon="6.67812">
        <ele>132.3</ele>
        <time>2022-10-09T12:31:43Z</time>
      </trkpt>
      <trkpt lat="43.3676" lon="6.67966">
        <ele>151.7</ele>
        <time>2022-10-09T12:35:01Z</time>
      </trkpt>
      <trkpt lat="43.36755" lon="6.67985">
        <ele>151.8</ele>
        <time>2022-10-09T12:35:07Z</time>
      </trkpt>
      <trkpt lat="43.36752" lon="6.67991">
        <ele>151.9</ele>
        <time>2022-10-09T12:35:09Z</time>
      </trkpt>
      <trkpt lat="43.3675" lon="6.67994">
        <ele>151.9</ele>
        <time>2022-10-09T12:35:10Z</time>
      </trkpt>
      <trkpt lat="43.36747" lon="6.67996">
        <ele>151.9</ele>
        <time>2022-10-09T12:35:11Z</time>
      </trkpt>
      <trkpt lat="43.36745" lon="6.67997">
        <ele>151.9</ele>
        <time>2022-10-09T12:35:12Z</time>
      </trkpt>
      <trkpt lat="43.36742" lon="6.67998">
        <ele>152</ele>
        <time>2022-10-09T12:35:13Z</time>
      </trkpt>
      <trkpt lat="43.3674" lon="6.67999">
        <ele>152</ele>
        <time>2022-10-09T12:35:14Z</time>
      </trkpt>
      <trkpt lat="43.36726" lon="6.68001">
        <ele>152.1</ele>
        <time>2022-10-09T12:35:19Z</time>
      </trkpt>
      <trkpt lat="43.36723" lon="6.68001">
        <ele>152.1</ele>
        <time>2022-10-09T12:35:20Z</time>
      </trkpt>
      <trkpt lat="43.3672" lon="6.68002">
        <ele>152.2</ele>
        <time>2022-10-09T12:35:21Z</time>
      </trkpt>
      <trkpt lat="43.36714" lon="6.68003">
        <ele>152.2</ele>
        <time>2022-10-09T12:35:23Z</time>
      </trkpt>
      <trkpt lat="43.36709" lon="6.68006">
        <ele>152.3</ele>
        <time>2022-10-09T12:35:25Z</time>
      </trkpt>
      <trkpt lat="43.36706" lon="6.68008">
        <ele>152.4</ele>
        <time>2022-10-09T12:35:26Z</time>
      </trkpt>
      <trkpt lat="43.36704" lon="6.68011">
        <ele>152.4</ele>
        <time>2022-10-09T12:35:27Z</time>
      </trkpt>
      <trkpt lat="43.36702" lon="6.68014">
        <ele>152.4</ele>
        <time>2022-10-09T12:35:28Z</time>
      </trkpt>
      <trkpt lat="43.36701" lon="6.68018">
        <ele>152.5</ele>
        <time>2022-10-09T12:35:29Z</time>
      </trkpt>
      <trkpt lat="43.36699" lon="6.68021">
        <ele>152.6</ele>
        <time>2022-10-09T12:35:30Z</time>
      </trkpt>
      <trkpt lat="43.36698" lon="6.68025">
        <ele>152.6</ele>
        <time>2022-10-09T12:35:31Z</time>
      </trkpt>
      <trkpt lat="43.36698" lon="6.68029">
        <ele>152.7</ele>
        <time>2022-10-09T12:35:32Z</time>
      </trkpt>
      <trkpt lat="43.36697" lon="6.68033">
        <ele>152.7</ele>
        <time>2022-10-09T12:35:33Z</time>
      </trkpt>
      <trkpt lat="43.36697" lon="6.68037">
        <ele>152.8</ele>
        <time>2022-10-09T12:35:34Z</time>
      </trkpt>
      <trkpt lat="43.36697" lon="6.68045">
        <ele>153</ele>
        <time>2022-10-09T12:35:36Z</time>
      </trkpt>
      <trkpt lat="43.36698" lon="6.68049">
        <ele>153.1</ele>
        <time>2022-10-09T12:35:37Z</time>
      </trkpt>
      <trkpt lat="43.36698" lon="6.68053">
        <ele>153.1</ele>
        <time>2022-10-09T12:35:38Z</time>
      </trkpt>
      <trkpt lat="43.36701" lon="6.68065">
        <ele>153.4</ele>
        <time>2022-10-09T12:35:41Z</time>
      </trkpt>
      <trkpt lat="43.36704" lon="6.68072">
        <ele>153.6</ele>
        <time>2022-10-09T12:35:43Z</time>
      </trkpt>
      <trkpt lat="43.36705" lon="6.68075">
        <ele>153.6</ele>
        <time>2022-10-09T12:35:44Z</time>
      </trkpt>
      <trkpt lat="43.36708" lon="6.68082">
        <ele>153.8</ele>
        <time>2022-10-09T12:35:46Z</time>
      </trkpt>
      <trkpt lat="43.36713" lon="6.68091">
        <ele>154</ele>
        <time>2022-10-09T12:35:49Z</time>
      </trkpt>
      <trkpt lat="43.36714" lon="6.68094">
        <ele>154</ele>
        <time>2022-10-09T12:35:50Z</time>
      </trkpt>
      <trkpt lat="43.36716" lon="6.68098">
        <ele>154.1</ele>
        <time>2022-10-09T12:35:51Z</time>
      </trkpt>
      <trkpt lat="43.36719" lon="6.68104">
        <ele>154.2</ele>
        <time>2022-10-09T12:35:53Z</time>
      </trkpt>
      <trkpt lat="43.36724" lon="6.68124">
        <ele>154.4</ele>
        <time>2022-10-09T12:35:58Z</time>
      </trkpt>
      <trkpt lat="43.36721" lon="6.68154">
        <ele>154.3</ele>
        <time>2022-10-09T12:36:04Z</time>
      </trkpt>
      <trkpt lat="43.3671" lon="6.68182">
        <ele>154.1</ele>
        <time>2022-10-09T12:36:10Z</time>
      </trkpt>
      <trkpt lat="43.36704" lon="6.68192">
        <ele>154</ele>
        <time>2022-10-09T12:36:12Z</time>
      </trkpt>
      <trkpt lat="43.36693" lon="6.68204">
        <ele>153.9</ele>
        <time>2022-10-09T12:36:15Z</time>
      </trkpt>
      <trkpt lat="43.36686" lon="6.68212">
        <ele>153.9</ele>
        <time>2022-10-09T12:36:17Z</time>
      </trkpt>
      <trkpt lat="43.36679" lon="6.68219">
        <ele>153.8</ele>
        <time>2022-10-09T12:36:19Z</time>
      </trkpt>
      <trkpt lat="43.36676" lon="6.68222">
        <ele>153.8</ele>
        <time>2022-10-09T12:36:20Z</time>
      </trkpt>
      <trkpt lat="43.36672" lon="6.68226">
        <ele>153.7</ele>
        <time>2022-10-09T12:36:21Z</time>
      </trkpt>
      <trkpt lat="43.36665" lon="6.68234">
        <ele>153.6</ele>
        <time>2022-10-09T12:36:23Z</time>
      </trkpt>
      <trkpt lat="43.36661" lon="6.68237">
        <ele>153.6</ele>
        <time>2022-10-09T12:36:24Z</time>
      </trkpt>
      <trkpt lat="43.36657" lon="6.6824">
        <ele>153.6</ele>
        <time>2022-10-09T12:36:25Z</time>
      </trkpt>
      <trkpt lat="43.36648" lon="6.68244">
        <ele>153.5</ele>
        <time>2022-10-09T12:36:27Z</time>
      </trkpt>
      <trkpt lat="43.36644" lon="6.68245">
        <ele>153.4</ele>
        <time>2022-10-09T12:36:28Z</time>
      </trkpt>
      <trkpt lat="43.36639" lon="6.68245">
        <ele>153.4</ele>
        <time>2022-10-09T12:36:29Z</time>
      </trkpt>
      <trkpt lat="43.36634" lon="6.68243">
        <ele>153.4</ele>
        <time>2022-10-09T12:36:30Z</time>
      </trkpt>
      <trkpt lat="43.3663" lon="6.68241">
        <ele>153.4</ele>
        <time>2022-10-09T12:36:31Z</time>
      </trkpt>
      <trkpt lat="43.36626" lon="6.68238">
        <ele>153.4</ele>
        <time>2022-10-09T12:36:32Z</time>
      </trkpt>
      <trkpt lat="43.36621" lon="6.68235">
        <ele>153.4</ele>
        <time>2022-10-09T12:36:33Z</time>
      </trkpt>
      <trkpt lat="43.36617" lon="6.68232">
        <ele>153.4</ele>
        <time>2022-10-09T12:36:34Z</time>
      </trkpt>
      <trkpt lat="43.36609" lon="6.68226">
        <ele>153.4</ele>
        <time>2022-10-09T12:36:36Z</time>
      </trkpt>
      <trkpt lat="43.36605" lon="6.68223">
        <ele>153.4</ele>
        <time>2022-10-09T12:36:37Z</time>
      </trkpt>
      <trkpt lat="43.366" lon="6.6822">
        <ele>153.4</ele>
        <time>2022-10-09T12:36:38Z</time>
      </trkpt>
      <trkpt lat="43.36596" lon="6.68218">
        <ele>153.4</ele>
        <time>2022-10-09T12:36:39Z</time>
      </trkpt>
      <trkpt lat="43.36592" lon="6.68216">
        <ele>153.4</ele>
        <time>2022-10-09T12:36:40Z</time>
      </trkpt>
      <trkpt lat="43.36588" lon="6.68214">
        <ele>153.4</ele>
        <time>2022-10-09T12:36:41Z</time>
      </trkpt>
      <trkpt lat="43.36579" lon="6.6821">
        <ele>153.4</ele>
        <time>2022-10-09T12:36:43Z</time>
      </trkpt>
      <trkpt lat="43.36575" lon="6.68207">
        <ele>153.5</ele>
        <time>2022-10-09T12:36:44Z</time>
      </trkpt>
      <trkpt lat="43.36571" lon="6.68204">
        <ele>153.5</ele>
        <time>2022-10-09T12:36:45Z</time>
      </trkpt>
      <trkpt lat="43.36563" lon="6.68197">
        <ele>153.6</ele>
        <time>2022-10-09T12:36:47Z</time>
      </trkpt>
      <trkpt lat="43.36553" lon="6.68183">
        <ele>153.7</ele>
        <time>2022-10-09T12:36:50Z</time>
      </trkpt>
      <trkpt lat="43.36548" lon="6.68173">
        <ele>153.8</ele>
        <time>2022-10-09T12:36:52Z</time>
      </trkpt>
      <trkpt lat="43.36546" lon="6.68168">
        <ele>153.8</ele>
        <time>2022-10-09T12:36:53Z</time>
      </trkpt>
      <trkpt lat="43.36544" lon="6.68163">
        <ele>153.8</ele>
        <time>2022-10-09T12:36:54Z</time>
      </trkpt>
      <trkpt lat="43.36536" lon="6.68148">
        <ele>153.8</ele>
        <time>2022-10-09T12:36:57Z</time>
      </trkpt>
      <trkpt lat="43.36529" lon="6.68139">
        <ele>153.8</ele>
        <time>2022-10-09T12:36:59Z</time>
      </trkpt>
      <trkpt lat="43.36525" lon="6.68137">
        <ele>153.8</ele>
        <time>2022-10-09T12:37:00Z</time>
      </trkpt>
      <trkpt lat="43.36521" lon="6.68135">
        <ele>153.8</ele>
        <time>2022-10-09T12:37:01Z</time>
      </trkpt>
      <trkpt lat="43.36516" lon="6.68134">
        <ele>153.8</ele>
        <time>2022-10-09T12:37:02Z</time>
      </trkpt>
      <trkpt lat="43.36512" lon="6.68134">
        <ele>153.8</ele>
        <time>2022-10-09T12:37:03Z</time>
      </trkpt>
      <trkpt lat="43.36507" lon="6.68133">
        <ele>153.8</ele>
        <time>2022-10-09T12:37:04Z</time>
      </trkpt>
      <trkpt lat="43.36493" lon="6.6813">
        <ele>153.7</ele>
        <time>2022-10-09T12:37:07Z</time>
      </trkpt>
      <trkpt lat="43.36464" lon="6.68117">
        <ele>153.5</ele>
        <time>2022-10-09T12:37:13Z</time>
      </trkpt>
      <trkpt lat="43.36458" lon="6.68116">
        <ele>153.5</ele>
        <time>2022-10-09T12:37:14Z</time>
      </trkpt>
      <trkpt lat="43.36453" lon="6.68118">
        <ele>153.5</ele>
        <time>2022-10-09T12:37:15Z</time>
      </trkpt>
      <trkpt lat="43.36449" lon="6.68121">
        <ele>153.6</ele>
        <time>2022-10-09T12:37:16Z</time>
      </trkpt>
      <trkpt lat="43.36446" lon="6.68125">
        <ele>153.6</ele>
        <time>2022-10-09T12:37:17Z</time>
      </trkpt>
      <trkpt lat="43.36443" lon="6.6813">
        <ele>153.6</ele>
        <time>2022-10-09T12:37:18Z</time>
      </trkpt>
      <trkpt lat="43.36441" lon="6.68136">
        <ele>153.6</ele>
        <time>2022-10-09T12:37:19Z</time>
      </trkpt>
      <trkpt lat="43.3644" lon="6.68142">
        <ele>153.7</ele>
        <time>2022-10-09T12:37:20Z</time>
      </trkpt>
      <trkpt lat="43.3644" lon="6.68148">
        <ele>153.7</ele>
        <time>2022-10-09T12:37:21Z</time>
      </trkpt>
      <trkpt lat="43.36439" lon="6.68154">
        <ele>153.7</ele>
        <time>2022-10-09T12:37:22Z</time>
      </trkpt>
      <trkpt lat="43.36439" lon="6.6816">
        <ele>153.8</ele>
        <time>2022-10-09T12:37:23Z</time>
      </trkpt>
      <trkpt lat="43.3644" lon="6.68191">
        <ele>154</ele>
        <time>2022-10-09T12:37:28Z</time>
      </trkpt>
      <trkpt lat="43.3644" lon="6.68198">
        <ele>154</ele>
        <time>2022-10-09T12:37:29Z</time>
      </trkpt>
      <trkpt lat="43.36441" lon="6.6821">
        <ele>154.1</ele>
        <time>2022-10-09T12:37:31Z</time>
      </trkpt>
      <trkpt lat="43.36445" lon="6.68229">
        <ele>154.1</ele>
        <time>2022-10-09T12:37:34Z</time>
      </trkpt>
      <trkpt lat="43.36446" lon="6.68235">
        <ele>154.2</ele>
        <time>2022-10-09T12:37:35Z</time>
      </trkpt>
      <trkpt lat="43.36448" lon="6.68247">
        <ele>154.1</ele>
        <time>2022-10-09T12:37:37Z</time>
      </trkpt>
      <trkpt lat="43.36449" lon="6.68253">
        <ele>154.1</ele>
        <time>2022-10-09T12:37:38Z</time>
      </trkpt>
      <trkpt lat="43.36449" lon="6.68273">
        <ele>154</ele>
        <time>2022-10-09T12:37:41Z</time>
      </trkpt>
      <trkpt lat="43.36449" lon="6.6828">
        <ele>153.9</ele>
        <time>2022-10-09T12:37:42Z</time>
      </trkpt>
      <trkpt lat="43.36446" lon="6.68294">
        <ele>153.8</ele>
        <time>2022-10-09T12:37:44Z</time>
      </trkpt>
      <trkpt lat="43.36443" lon="6.68301">
        <ele>153.7</ele>
        <time>2022-10-09T12:37:45Z</time>
      </trkpt>
      <trkpt lat="43.36435" lon="6.68319">
        <ele>153.5</ele>
        <time>2022-10-09T12:37:48Z</time>
      </trkpt>
      <trkpt lat="43.36431" lon="6.68325">
        <ele>153.4</ele>
        <time>2022-10-09T12:37:49Z</time>
      </trkpt>
      <trkpt lat="43.36426" lon="6.68329">
        <ele>153.3</ele>
        <time>2022-10-09T12:37:50Z</time>
      </trkpt>
      <trkpt lat="43.364" lon="6.68348">
        <ele>152.9</ele>
        <time>2022-10-09T12:37:55Z</time>
      </trkpt>
      <trkpt lat="43.36383" lon="6.68354">
        <ele>152.8</ele>
        <time>2022-10-09T12:37:58Z</time>
      </trkpt>
      <trkpt lat="43.36366" lon="6.68362">
        <ele>152.6</ele>
        <time>2022-10-09T12:38:01Z</time>
      </trkpt>
      <trkpt lat="43.36357" lon="6.68371">
        <ele>152.5</ele>
        <time>2022-10-09T12:38:03Z</time>
      </trkpt>
      <trkpt lat="43.36354" lon="6.68378">
        <ele>152.5</ele>
        <time>2022-10-09T12:38:04Z</time>
      </trkpt>
      <trkpt lat="43.36351" lon="6.68385">
        <ele>152.5</ele>
        <time>2022-10-09T12:38:05Z</time>
      </trkpt>
      <trkpt lat="43.36348" lon="6.68392">
        <ele>152.5</ele>
        <time>2022-10-09T12:38:06Z</time>
      </trkpt>
      <trkpt lat="43.36346" lon="6.68399">
        <ele>152.4</ele>
        <time>2022-10-09T12:38:07Z</time>
      </trkpt>
      <trkpt lat="43.36343" lon="6.68406">
        <ele>152.4</ele>
        <time>2022-10-09T12:38:08Z</time>
      </trkpt>
      <trkpt lat="43.36341" lon="6.68414">
        <ele>152.3</ele>
        <time>2022-10-09T12:38:09Z</time>
      </trkpt>
      <trkpt lat="43.36337" lon="6.68438">
        <ele>152.9</ele>
        <time>2022-10-09T12:38:12Z</time>
      </trkpt>
      <trkpt lat="43.36337" lon="6.68443">
        <ele>153.1</ele>
        <time>2022-10-09T12:38:13Z</time>
      </trkpt>
      <trkpt lat="43.36337" lon="6.68445">
        <ele>153.2</ele>
        <time>2022-10-09T12:38:14Z</time>
      </trkpt>
      <trkpt lat="43.36338" lon="6.68446">
        <ele>153.3</ele>
        <time>2022-10-09T12:38:15Z</time>
      </trkpt>
      <trkpt lat="43.36338" lon="6.68446">
        <ele>153.3</ele>
        <time>2022-10-09T12:38:16Z</time>
      </trkpt>
      <trkpt lat="43.36351" lon="6.68461">
        <ele>154.5</ele>
        <time>2022-10-09T12:38:35Z</time>
      </trkpt>
      <trkpt lat="43.36352" lon="6.68462">
        <ele>154.6</ele>
        <time>2022-10-09T12:38:36Z</time>
      </trkpt>
      <trkpt lat="43.36356" lon="6.68465">
        <ele>154.8</ele>
        <time>2022-10-09T12:38:38Z</time>
      </trkpt>
      <trkpt lat="43.36361" lon="6.68469">
        <ele>155.2</ele>
        <time>2022-10-09T12:38:41Z</time>
      </trkpt>
      <trkpt lat="43.36367" lon="6.68475">
        <ele>155.7</ele>
        <time>2022-10-09T12:38:44Z</time>
      </trkpt>
      <trkpt lat="43.36374" lon="6.68484">
        <ele>156.2</ele>
        <time>2022-10-09T12:38:48Z</time>
      </trkpt>
      <trkpt lat="43.36377" lon="6.68489">
        <ele>156.4</ele>
        <time>2022-10-09T12:38:50Z</time>
      </trkpt>
      <trkpt lat="43.36379" lon="6.68492">
        <ele>156.5</ele>
        <time>2022-10-09T12:38:51Z</time>
      </trkpt>
      <trkpt lat="43.3638" lon="6.68494">
        <ele>156.6</ele>
        <time>2022-10-09T12:38:52Z</time>
      </trkpt>
      <trkpt lat="43.36382" lon="6.68497">
        <ele>156.7</ele>
        <time>2022-10-09T12:38:53Z</time>
      </trkpt>
      <trkpt lat="43.36385" lon="6.68501">
        <ele>156.9</ele>
        <time>2022-10-09T12:38:55Z</time>
      </trkpt>
      <trkpt lat="43.36386" lon="6.68504">
        <ele>157.1</ele>
        <time>2022-10-09T12:38:56Z</time>
      </trkpt>
      <trkpt lat="43.36387" lon="6.68507">
        <ele>157.2</ele>
        <time>2022-10-09T12:38:57Z</time>
      </trkpt>
      <trkpt lat="43.36389" lon="6.68509">
        <ele>157.3</ele>
        <time>2022-10-09T12:38:58Z</time>
      </trkpt>
      <trkpt lat="43.36392" lon="6.68514">
        <ele>157.5</ele>
        <time>2022-10-09T12:39:00Z</time>
      </trkpt>
      <trkpt lat="43.36395" lon="6.68518">
        <ele>157.6</ele>
        <time>2022-10-09T12:39:02Z</time>
      </trkpt>
      <trkpt lat="43.36399" lon="6.68521">
        <ele>157.8</ele>
        <time>2022-10-09T12:39:04Z</time>
      </trkpt>
      <trkpt lat="43.36402" lon="6.68525">
        <ele>158</ele>
        <time>2022-10-09T12:39:06Z</time>
      </trkpt>
      <trkpt lat="43.36405" lon="6.6853">
        <ele>158.1</ele>
        <time>2022-10-09T12:39:08Z</time>
      </trkpt>
      <trkpt lat="43.36407" lon="6.68531">
        <ele>158.2</ele>
        <time>2022-10-09T12:39:09Z</time>
      </trkpt>
      <trkpt lat="43.36409" lon="6.68533">
        <ele>158.3</ele>
        <time>2022-10-09T12:39:10Z</time>
      </trkpt>
      <trkpt lat="43.3641" lon="6.68535">
        <ele>158.4</ele>
        <time>2022-10-09T12:39:11Z</time>
      </trkpt>
      <trkpt lat="43.36412" lon="6.68536">
        <ele>158.5</ele>
        <time>2022-10-09T12:39:12Z</time>
      </trkpt>
      <trkpt lat="43.36414" lon="6.68536">
        <ele>158.5</ele>
        <time>2022-10-09T12:39:13Z</time>
      </trkpt>
      <trkpt lat="43.36417" lon="6.68537">
        <ele>158.6</ele>
        <time>2022-10-09T12:39:14Z</time>
      </trkpt>
      <trkpt lat="43.36419" lon="6.68538">
        <ele>158.7</ele>
        <time>2022-10-09T12:39:15Z</time>
      </trkpt>
      <trkpt lat="43.3642" lon="6.68539">
        <ele>158.8</ele>
        <time>2022-10-09T12:39:16Z</time>
      </trkpt>
      <trkpt lat="43.36422" lon="6.6854">
        <ele>158.9</ele>
        <time>2022-10-09T12:39:17Z</time>
      </trkpt>
      <trkpt lat="43.36424" lon="6.68541">
        <ele>159</ele>
        <time>2022-10-09T12:39:18Z</time>
      </trkpt>
      <trkpt lat="43.36427" lon="6.68543">
        <ele>159.2</ele>
        <time>2022-10-09T12:39:20Z</time>
      </trkpt>
      <trkpt lat="43.36429" lon="6.68545">
        <ele>159.3</ele>
        <time>2022-10-09T12:39:21Z</time>
      </trkpt>
      <trkpt lat="43.36431" lon="6.68546">
        <ele>159.4</ele>
        <time>2022-10-09T12:39:22Z</time>
      </trkpt>
      <trkpt lat="43.36432" lon="6.68547">
        <ele>159.5</ele>
        <time>2022-10-09T12:39:23Z</time>
      </trkpt>
      <trkpt lat="43.36434" lon="6.68548">
        <ele>159.6</ele>
        <time>2022-10-09T12:39:24Z</time>
      </trkpt>
      <trkpt lat="43.36436" lon="6.6855">
        <ele>159.7</ele>
        <time>2022-10-09T12:39:25Z</time>
      </trkpt>
      <trkpt lat="43.36437" lon="6.68551">
        <ele>159.8</ele>
        <time>2022-10-09T12:39:26Z</time>
      </trkpt>
      <trkpt lat="43.36439" lon="6.68553">
        <ele>160</ele>
        <time>2022-10-09T12:39:27Z</time>
      </trkpt>
      <trkpt lat="43.3644" lon="6.68554">
        <ele>160.1</ele>
        <time>2022-10-09T12:39:28Z</time>
      </trkpt>
      <trkpt lat="43.36442" lon="6.68555">
        <ele>160.2</ele>
        <time>2022-10-09T12:39:29Z</time>
      </trkpt>
      <trkpt lat="43.36443" lon="6.68557">
        <ele>160.3</ele>
        <time>2022-10-09T12:39:30Z</time>
      </trkpt>
      <trkpt lat="43.36445" lon="6.68558">
        <ele>160.3</ele>
        <time>2022-10-09T12:39:31Z</time>
      </trkpt>
      <trkpt lat="43.36447" lon="6.6856">
        <ele>160.4</ele>
        <time>2022-10-09T12:39:32Z</time>
      </trkpt>
      <trkpt lat="43.36448" lon="6.68561">
        <ele>160.5</ele>
        <time>2022-10-09T12:39:33Z</time>
      </trkpt>
      <trkpt lat="43.3645" lon="6.68563">
        <ele>160.6</ele>
        <time>2022-10-09T12:39:34Z</time>
      </trkpt>
      <trkpt lat="43.36452" lon="6.68565">
        <ele>160.7</ele>
        <time>2022-10-09T12:39:35Z</time>
      </trkpt>
      <trkpt lat="43.36454" lon="6.68567">
        <ele>160.8</ele>
        <time>2022-10-09T12:39:36Z</time>
      </trkpt>
      <trkpt lat="43.36455" lon="6.6857">
        <ele>160.8</ele>
        <time>2022-10-09T12:39:37Z</time>
      </trkpt>
      <trkpt lat="43.36464" lon="6.68584">
        <ele>161</ele>
        <time>2022-10-09T12:39:42Z</time>
      </trkpt>
      <trkpt lat="43.36467" lon="6.6859">
        <ele>160.9</ele>
        <time>2022-10-09T12:39:44Z</time>
      </trkpt>
      <trkpt lat="43.36468" lon="6.68593">
        <ele>160.8</ele>
        <time>2022-10-09T12:39:45Z</time>
      </trkpt>
      <trkpt lat="43.36474" lon="6.68605">
        <ele>160.6</ele>
        <time>2022-10-09T12:39:48Z</time>
      </trkpt>
      <trkpt lat="43.36478" lon="6.68612">
        <ele>160.3</ele>
        <time>2022-10-09T12:39:50Z</time>
      </trkpt>
      <trkpt lat="43.36481" lon="6.6862">
        <ele>159.9</ele>
        <time>2022-10-09T12:39:52Z</time>
      </trkpt>
      <trkpt lat="43.36483" lon="6.68625">
        <ele>159.7</ele>
        <time>2022-10-09T12:39:53Z</time>
      </trkpt>
      <trkpt lat="43.36491" lon="6.6864">
        <ele>158.9</ele>
        <time>2022-10-09T12:39:56Z</time>
      </trkpt>
      <trkpt lat="43.36496" lon="6.68651">
        <ele>158.4</ele>
        <time>2022-10-09T12:39:58Z</time>
      </trkpt>
      <trkpt lat="43.36501" lon="6.68662">
        <ele>157.8</ele>
        <time>2022-10-09T12:40:00Z</time>
      </trkpt>
      <trkpt lat="43.36507" lon="6.68673">
        <ele>157.3</ele>
        <time>2022-10-09T12:40:02Z</time>
      </trkpt>
      <trkpt lat="43.36509" lon="6.68678">
        <ele>157</ele>
        <time>2022-10-09T12:40:03Z</time>
      </trkpt>
      <trkpt lat="43.36514" lon="6.6869">
        <ele>156.4</ele>
        <time>2022-10-09T12:40:05Z</time>
      </trkpt>
      <trkpt lat="43.36518" lon="6.68703">
        <ele>155.8</ele>
        <time>2022-10-09T12:40:07Z</time>
      </trkpt>
      <trkpt lat="43.36522" lon="6.68726">
        <ele>155.1</ele>
        <time>2022-10-09T12:40:10Z</time>
      </trkpt>
      <trkpt lat="43.36522" lon="6.68733">
        <ele>154.9</ele>
        <time>2022-10-09T12:40:11Z</time>
      </trkpt>
      <trkpt lat="43.36521" lon="6.68739">
        <ele>154.7</ele>
        <time>2022-10-09T12:40:12Z</time>
      </trkpt>
      <trkpt lat="43.36521" lon="6.68746">
        <ele>154.5</ele>
        <time>2022-10-09T12:40:13Z</time>
      </trkpt>
      <trkpt lat="43.3652" lon="6.68752">
        <ele>154.4</ele>
        <time>2022-10-09T12:40:14Z</time>
      </trkpt>
      <trkpt lat="43.36519" lon="6.68758">
        <ele>154.2</ele>
        <time>2022-10-09T12:40:15Z</time>
      </trkpt>
      <trkpt lat="43.36518" lon="6.68764">
        <ele>154.1</ele>
        <time>2022-10-09T12:40:16Z</time>
      </trkpt>
      <trkpt lat="43.36517" lon="6.68769">
        <ele>153.9</ele>
        <time>2022-10-09T12:40:17Z</time>
      </trkpt>
      <trkpt lat="43.36516" lon="6.68775">
        <ele>153.7</ele>
        <time>2022-10-09T12:40:18Z</time>
      </trkpt>
      <trkpt lat="43.36514" lon="6.68781">
        <ele>153.6</ele>
        <time>2022-10-09T12:40:19Z</time>
      </trkpt>
      <trkpt lat="43.36512" lon="6.68786">
        <ele>153.5</ele>
        <time>2022-10-09T12:40:20Z</time>
      </trkpt>
      <trkpt lat="43.36504" lon="6.688">
        <ele>153.4</ele>
        <time>2022-10-09T12:40:23Z</time>
      </trkpt>
      <trkpt lat="43.36501" lon="6.68804">
        <ele>153.3</ele>
        <time>2022-10-09T12:40:24Z</time>
      </trkpt>
      <trkpt lat="43.36498" lon="6.68806">
        <ele>153.3</ele>
        <time>2022-10-09T12:40:25Z</time>
      </trkpt>
      <trkpt lat="43.36495" lon="6.68808">
        <ele>153.3</ele>
        <time>2022-10-09T12:40:26Z</time>
      </trkpt>
      <trkpt lat="43.36492" lon="6.68808">
        <ele>153.3</ele>
        <time>2022-10-09T12:40:27Z</time>
      </trkpt>
      <trkpt lat="43.36489" lon="6.68808">
        <ele>153.2</ele>
        <time>2022-10-09T12:40:28Z</time>
      </trkpt>
      <trkpt lat="43.36485" lon="6.68807">
        <ele>153.1</ele>
        <time>2022-10-09T12:40:29Z</time>
      </trkpt>
      <trkpt lat="43.36482" lon="6.68807">
        <ele>152.9</ele>
        <time>2022-10-09T12:40:30Z</time>
      </trkpt>
      <trkpt lat="43.36479" lon="6.68808">
        <ele>152.8</ele>
        <time>2022-10-09T12:40:31Z</time>
      </trkpt>
      <trkpt lat="43.36473" lon="6.68808">
        <ele>152.3</ele>
        <time>2022-10-09T12:40:33Z</time>
      </trkpt>
      <trkpt lat="43.36471" lon="6.68809">
        <ele>152</ele>
        <time>2022-10-09T12:40:34Z</time>
      </trkpt>
      <trkpt lat="43.36468" lon="6.68812">
        <ele>151.7</ele>
        <time>2022-10-09T12:40:35Z</time>
      </trkpt>
      <trkpt lat="43.36465" lon="6.68816">
        <ele>151.2</ele>
        <time>2022-10-09T12:40:36Z</time>
      </trkpt>
      <trkpt lat="43.36463" lon="6.6882">
        <ele>150.8</ele>
        <time>2022-10-09T12:40:37Z</time>
      </trkpt>
      <trkpt lat="43.36459" lon="6.68824">
        <ele>150.2</ele>
        <time>2022-10-09T12:40:38Z</time>
      </trkpt>
      <trkpt lat="43.36455" lon="6.68828">
        <ele>149.7</ele>
        <time>2022-10-09T12:40:39Z</time>
      </trkpt>
      <trkpt lat="43.36451" lon="6.68832">
        <ele>149.2</ele>
        <time>2022-10-09T12:40:40Z</time>
      </trkpt>
      <trkpt lat="43.36447" lon="6.68835">
        <ele>148.7</ele>
        <time>2022-10-09T12:40:41Z</time>
      </trkpt>
      <trkpt lat="43.36443" lon="6.68836">
        <ele>148.4</ele>
        <time>2022-10-09T12:40:42Z</time>
      </trkpt>
      <trkpt lat="43.36439" lon="6.68836">
        <ele>148.1</ele>
        <time>2022-10-09T12:40:43Z</time>
      </trkpt>
      <trkpt lat="43.36436" lon="6.68836">
        <ele>147.8</ele>
        <time>2022-10-09T12:40:44Z</time>
      </trkpt>
      <trkpt lat="43.36432" lon="6.68836">
        <ele>147.5</ele>
        <time>2022-10-09T12:40:45Z</time>
      </trkpt>
      <trkpt lat="43.36429" lon="6.68836">
        <ele>147.2</ele>
        <time>2022-10-09T12:40:46Z</time>
      </trkpt>
      <trkpt lat="43.36425" lon="6.68836">
        <ele>146.9</ele>
        <time>2022-10-09T12:40:47Z</time>
      </trkpt>
      <trkpt lat="43.3642" lon="6.68835">
        <ele>146.6</ele>
        <time>2022-10-09T12:40:48Z</time>
      </trkpt>
      <trkpt lat="43.36416" lon="6.68835">
        <ele>146.3</ele>
        <time>2022-10-09T12:40:49Z</time>
      </trkpt>
      <trkpt lat="43.36413" lon="6.68834">
        <ele>146.1</ele>
        <time>2022-10-09T12:40:50Z</time>
      </trkpt>
      <trkpt lat="43.3641" lon="6.68834">
        <ele>146</ele>
        <time>2022-10-09T12:40:51Z</time>
      </trkpt>
      <trkpt lat="43.36407" lon="6.68834">
        <ele>145.9</ele>
        <time>2022-10-09T12:40:52Z</time>
      </trkpt>
      <trkpt lat="43.36405" lon="6.68834">
        <ele>145.9</ele>
        <time>2022-10-09T12:40:53Z</time>
      </trkpt>
      <trkpt lat="43.36403" lon="6.68835">
        <ele>145.9</ele>
        <time>2022-10-09T12:40:54Z</time>
      </trkpt>
      <trkpt lat="43.36401" lon="6.68835">
        <ele>145.9</ele>
        <time>2022-10-09T12:40:55Z</time>
      </trkpt>
      <trkpt lat="43.364" lon="6.68835">
        <ele>145.9</ele>
        <time>2022-10-09T12:40:56Z</time>
      </trkpt>
      <trkpt lat="43.36399" lon="6.68836">
        <ele>145.9</ele>
        <time>2022-10-09T12:40:57Z</time>
      </trkpt>
      <trkpt lat="43.36399" lon="6.68836">
        <ele>146</ele>
        <time>2022-10-09T12:40:58Z</time>
      </trkpt>
      <trkpt lat="43.36398" lon="6.68837">
        <ele>146</ele>
        <time>2022-10-09T12:40:59Z</time>
      </trkpt>
      <trkpt lat="43.36398" lon="6.68837">
        <ele>146</ele>
        <time>2022-10-09T12:41:00Z</time>
      </trkpt>
      <trkpt lat="43.36398" lon="6.68837">
        <ele>146</ele>
        <time>2022-10-09T12:41:01Z</time>
      </trkpt>
      <trkpt lat="43.36375" lon="6.68855">
        <ele>147.8</ele>
        <time>2022-10-09T12:41:35Z</time>
      </trkpt>
      <trkpt lat="43.36373" lon="6.68858">
        <ele>147.9</ele>
        <time>2022-10-09T12:41:36Z</time>
      </trkpt>
      <trkpt lat="43.36372" lon="6.6886">
        <ele>148.1</ele>
        <time>2022-10-09T12:41:37Z</time>
      </trkpt>
      <trkpt lat="43.36366" lon="6.68879">
        <ele>148.8</ele>
        <time>2022-10-09T12:41:43Z</time>
      </trkpt>
      <trkpt lat="43.36365" lon="6.68883">
        <ele>148.9</ele>
        <time>2022-10-09T12:41:44Z</time>
      </trkpt>
      <trkpt lat="43.36364" lon="6.68886">
        <ele>149</ele>
        <time>2022-10-09T12:41:45Z</time>
      </trkpt>
      <trkpt lat="43.36363" lon="6.68889">
        <ele>149.1</ele>
        <time>2022-10-09T12:41:46Z</time>
      </trkpt>
      <trkpt lat="43.36362" lon="6.68891">
        <ele>149.2</ele>
        <time>2022-10-09T12:41:47Z</time>
      </trkpt>
      <trkpt lat="43.36362" lon="6.68893">
        <ele>149.2</ele>
        <time>2022-10-09T12:41:48Z</time>
      </trkpt>
      <trkpt lat="43.36361" lon="6.68895">
        <ele>149.3</ele>
        <time>2022-10-09T12:41:49Z</time>
      </trkpt>
      <trkpt lat="43.3636" lon="6.68897">
        <ele>149.3</ele>
        <time>2022-10-09T12:41:50Z</time>
      </trkpt>
      <trkpt lat="43.36354" lon="6.68908">
        <ele>149.6</ele>
        <time>2022-10-09T12:41:54Z</time>
      </trkpt>
      <trkpt lat="43.36353" lon="6.6891">
        <ele>149.6</ele>
        <time>2022-10-09T12:41:55Z</time>
      </trkpt>
      <trkpt lat="43.36344" lon="6.68923">
        <ele>149.8</ele>
        <time>2022-10-09T12:42:00Z</time>
      </trkpt>
      <trkpt lat="43.36342" lon="6.68925">
        <ele>149.8</ele>
        <time>2022-10-09T12:42:01Z</time>
      </trkpt>
      <trkpt lat="43.36341" lon="6.68928">
        <ele>149.9</ele>
        <time>2022-10-09T12:42:02Z</time>
      </trkpt>
      <trkpt lat="43.36336" lon="6.68935">
        <ele>149.9</ele>
        <time>2022-10-09T12:42:05Z</time>
      </trkpt>
      <trkpt lat="43.36335" lon="6.68937">
        <ele>149.9</ele>
        <time>2022-10-09T12:42:06Z</time>
      </trkpt>
      <trkpt lat="43.36333" lon="6.68938">
        <ele>149.8</ele>
        <time>2022-10-09T12:42:07Z</time>
      </trkpt>
      <trkpt lat="43.36332" lon="6.6894">
        <ele>149.8</ele>
        <time>2022-10-09T12:42:08Z</time>
      </trkpt>
      <trkpt lat="43.3633" lon="6.68941">
        <ele>149.8</ele>
        <time>2022-10-09T12:42:09Z</time>
      </trkpt>
      <trkpt lat="43.36322" lon="6.68947">
        <ele>149.5</ele>
        <time>2022-10-09T12:42:12Z</time>
      </trkpt>
      <trkpt lat="43.36315" lon="6.68952">
        <ele>149.1</ele>
        <time>2022-10-09T12:42:14Z</time>
      </trkpt>
      <trkpt lat="43.36311" lon="6.68955">
        <ele>148.9</ele>
        <time>2022-10-09T12:42:15Z</time>
      </trkpt>
      <trkpt lat="43.36303" lon="6.6896">
        <ele>148.7</ele>
        <time>2022-10-09T12:42:17Z</time>
      </trkpt>
      <trkpt lat="43.363" lon="6.68968">
        <ele>148.7</ele>
        <time>2022-10-09T12:42:19Z</time>
      </trkpt>
      <trkpt lat="43.36299" lon="6.6897">
        <ele>148.8</ele>
        <time>2022-10-09T12:42:20Z</time>
      </trkpt>
      <trkpt lat="43.36299" lon="6.68971">
        <ele>148.8</ele>
        <time>2022-10-09T12:42:21Z</time>
      </trkpt>
      <trkpt lat="43.36299" lon="6.68972">
        <ele>148.8</ele>
        <time>2022-10-09T12:42:22Z</time>
      </trkpt>
      <trkpt lat="43.36298" lon="6.68974">
        <ele>148.9</ele>
        <time>2022-10-09T12:42:24Z</time>
      </trkpt>
      <trkpt lat="43.36297" lon="6.68978">
        <ele>149</ele>
        <time>2022-10-09T12:42:27Z</time>
      </trkpt>
      <trkpt lat="43.36295" lon="6.68984">
        <ele>149.4</ele>
        <time>2022-10-09T12:42:33Z</time>
      </trkpt>
      <trkpt lat="43.36293" lon="6.68989">
        <ele>149.8</ele>
        <time>2022-10-09T12:42:37Z</time>
      </trkpt>
      <trkpt lat="43.36293" lon="6.6899">
        <ele>149.9</ele>
        <time>2022-10-09T12:42:38Z</time>
      </trkpt>
      <trkpt lat="43.36293" lon="6.68991">
        <ele>150</ele>
        <time>2022-10-09T12:42:39Z</time>
      </trkpt>
      <trkpt lat="43.36293" lon="6.68992">
        <ele>150.1</ele>
        <time>2022-10-09T12:42:40Z</time>
      </trkpt>
      <trkpt lat="43.36293" lon="6.68993">
        <ele>150.2</ele>
        <time>2022-10-09T12:42:41Z</time>
      </trkpt>
      <trkpt lat="43.36293" lon="6.68994">
        <ele>150.3</ele>
        <time>2022-10-09T12:42:42Z</time>
      </trkpt>
      <trkpt lat="43.36293" lon="6.68996">
        <ele>150.5</ele>
        <time>2022-10-09T12:42:43Z</time>
      </trkpt>
      <trkpt lat="43.36293" lon="6.68996">
        <ele>150.6</ele>
        <time>2022-10-09T12:42:44Z</time>
      </trkpt>
      <trkpt lat="43.36292" lon="6.68997">
        <ele>150.7</ele>
        <time>2022-10-09T12:42:45Z</time>
      </trkpt>
      <trkpt lat="43.36292" lon="6.68998">
        <ele>150.8</ele>
        <time>2022-10-09T12:42:46Z</time>
      </trkpt>
      <trkpt lat="43.36291" lon="6.68999">
        <ele>150.9</ele>
        <time>2022-10-09T12:42:47Z</time>
      </trkpt>
      <trkpt lat="43.36291" lon="6.69">
        <ele>151.1</ele>
        <time>2022-10-09T12:42:48Z</time>
      </trkpt>
      <trkpt lat="43.3629" lon="6.69">
        <ele>151.2</ele>
        <time>2022-10-09T12:42:49Z</time>
      </trkpt>
      <trkpt lat="43.3629" lon="6.69001">
        <ele>151.3</ele>
        <time>2022-10-09T12:42:50Z</time>
      </trkpt>
      <trkpt lat="43.3629" lon="6.69002">
        <ele>151.4</ele>
        <time>2022-10-09T12:42:51Z</time>
      </trkpt>
      <trkpt lat="43.3629" lon="6.69003">
        <ele>151.6</ele>
        <time>2022-10-09T12:42:52Z</time>
      </trkpt>
      <trkpt lat="43.36289" lon="6.69004">
        <ele>151.7</ele>
        <time>2022-10-09T12:42:53Z</time>
      </trkpt>
      <trkpt lat="43.36289" lon="6.69004">
        <ele>151.8</ele>
        <time>2022-10-09T12:42:54Z</time>
      </trkpt>
      <trkpt lat="43.36289" lon="6.69005">
        <ele>152</ele>
        <time>2022-10-09T12:42:55Z</time>
      </trkpt>
      <trkpt lat="43.36288" lon="6.69006">
        <ele>152.1</ele>
        <time>2022-10-09T12:42:56Z</time>
      </trkpt>
      <trkpt lat="43.36288" lon="6.69007">
        <ele>152.3</ele>
        <time>2022-10-09T12:42:57Z</time>
      </trkpt>
      <trkpt lat="43.36288" lon="6.69008">
        <ele>152.4</ele>
        <time>2022-10-09T12:42:58Z</time>
      </trkpt>
      <trkpt lat="43.36288" lon="6.69008">
        <ele>152.5</ele>
        <time>2022-10-09T12:42:59Z</time>
      </trkpt>
      <trkpt lat="43.36288" lon="6.69009">
        <ele>152.7</ele>
        <time>2022-10-09T12:43:00Z</time>
      </trkpt>
      <trkpt lat="43.36288" lon="6.6901">
        <ele>152.8</ele>
        <time>2022-10-09T12:43:01Z</time>
      </trkpt>
      <trkpt lat="43.36288" lon="6.69011">
        <ele>153</ele>
        <time>2022-10-09T12:43:02Z</time>
      </trkpt>
      <trkpt lat="43.36287" lon="6.69012">
        <ele>153.1</ele>
        <time>2022-10-09T12:43:03Z</time>
      </trkpt>
      <trkpt lat="43.36287" lon="6.69012">
        <ele>153.2</ele>
        <time>2022-10-09T12:43:04Z</time>
      </trkpt>
      <trkpt lat="43.36287" lon="6.69013">
        <ele>153.3</ele>
        <time>2022-10-09T12:43:05Z</time>
      </trkpt>
      <trkpt lat="43.36287" lon="6.69013">
        <ele>153.4</ele>
        <time>2022-10-09T12:43:06Z</time>
      </trkpt>
      <trkpt lat="43.36287" lon="6.69014">
        <ele>153.6</ele>
        <time>2022-10-09T12:43:07Z</time>
      </trkpt>
      <trkpt lat="43.36286" lon="6.69015">
        <ele>153.7</ele>
        <time>2022-10-09T12:43:08Z</time>
      </trkpt>
      <trkpt lat="43.36286" lon="6.69015">
        <ele>153.8</ele>
        <time>2022-10-09T12:43:09Z</time>
      </trkpt>
      <trkpt lat="43.36286" lon="6.69016">
        <ele>154</ele>
        <time>2022-10-09T12:43:10Z</time>
      </trkpt>
      <trkpt lat="43.36285" lon="6.69017">
        <ele>154.1</ele>
        <time>2022-10-09T12:43:11Z</time>
      </trkpt>
      <trkpt lat="43.36285" lon="6.69017">
        <ele>154.3</ele>
        <time>2022-10-09T12:43:12Z</time>
      </trkpt>
      <trkpt lat="43.36285" lon="6.69018">
        <ele>154.5</ele>
        <time>2022-10-09T12:43:13Z</time>
      </trkpt>
      <trkpt lat="43.36285" lon="6.69019">
        <ele>154.6</ele>
        <time>2022-10-09T12:43:14Z</time>
      </trkpt>
      <trkpt lat="43.36285" lon="6.6902">
        <ele>154.8</ele>
        <time>2022-10-09T12:43:15Z</time>
      </trkpt>
      <trkpt lat="43.36285" lon="6.6902">
        <ele>154.8</ele>
        <time>2022-10-09T12:43:16Z</time>
      </trkpt>
      <trkpt lat="43.36285" lon="6.6902">
        <ele>154.9</ele>
        <time>2022-10-09T12:43:17Z</time>
      </trkpt>
      <trkpt lat="43.36246" lon="6.69095">
        <ele>174.8</ele>
        <time>2022-10-09T12:46:10Z</time>
      </trkpt>
      <trkpt lat="43.36245" lon="6.691">
        <ele>175.1</ele>
        <time>2022-10-09T12:46:12Z</time>
      </trkpt>
      <trkpt lat="43.36244" lon="6.69102">
        <ele>175.2</ele>
        <time>2022-10-09T12:46:13Z</time>
      </trkpt>
      <trkpt lat="43.36243" lon="6.69104">
        <ele>175.4</ele>
        <time>2022-10-09T12:46:14Z</time>
      </trkpt>
      <trkpt lat="43.36243" lon="6.69108">
        <ele>175.7</ele>
        <time>2022-10-09T12:46:16Z</time>
      </trkpt>
      <trkpt lat="43.36242" lon="6.69111">
        <ele>175.8</ele>
        <time>2022-10-09T12:46:17Z</time>
      </trkpt>
      <trkpt lat="43.36241" lon="6.69117">
        <ele>176.2</ele>
        <time>2022-10-09T12:46:20Z</time>
      </trkpt>
      <trkpt lat="43.36238" lon="6.69127">
        <ele>176.8</ele>
        <time>2022-10-09T12:46:24Z</time>
      </trkpt>
      <trkpt lat="43.36238" lon="6.69131">
        <ele>177.1</ele>
        <time>2022-10-09T12:46:26Z</time>
      </trkpt>
      <trkpt lat="43.36238" lon="6.69134">
        <ele>177.2</ele>
        <time>2022-10-09T12:46:27Z</time>
      </trkpt>
      <trkpt lat="43.36238" lon="6.69136">
        <ele>177.4</ele>
        <time>2022-10-09T12:46:28Z</time>
      </trkpt>
      <trkpt lat="43.36238" lon="6.69145">
        <ele>177.9</ele>
        <time>2022-10-09T12:46:32Z</time>
      </trkpt>
      <trkpt lat="43.36238" lon="6.69147">
        <ele>178</ele>
        <time>2022-10-09T12:46:33Z</time>
      </trkpt>
      <trkpt lat="43.36238" lon="6.69149">
        <ele>178.1</ele>
        <time>2022-10-09T12:46:34Z</time>
      </trkpt>
      <trkpt lat="43.36239" lon="6.69152">
        <ele>178.2</ele>
        <time>2022-10-09T12:46:35Z</time>
      </trkpt>
      <trkpt lat="43.36239" lon="6.69154">
        <ele>178.3</ele>
        <time>2022-10-09T12:46:36Z</time>
      </trkpt>
      <trkpt lat="43.36239" lon="6.69156">
        <ele>178.4</ele>
        <time>2022-10-09T12:46:37Z</time>
      </trkpt>
      <trkpt lat="43.3624" lon="6.69158">
        <ele>178.5</ele>
        <time>2022-10-09T12:46:38Z</time>
      </trkpt>
      <trkpt lat="43.3624" lon="6.6916">
        <ele>178.6</ele>
        <time>2022-10-09T12:46:39Z</time>
      </trkpt>
      <trkpt lat="43.36241" lon="6.69162">
        <ele>178.7</ele>
        <time>2022-10-09T12:46:40Z</time>
      </trkpt>
      <trkpt lat="43.36241" lon="6.69164">
        <ele>178.8</ele>
        <time>2022-10-09T12:46:41Z</time>
      </trkpt>
      <trkpt lat="43.36242" lon="6.69166">
        <ele>178.9</ele>
        <time>2022-10-09T12:46:42Z</time>
      </trkpt>
      <trkpt lat="43.36242" lon="6.69168">
        <ele>179</ele>
        <time>2022-10-09T12:46:43Z</time>
      </trkpt>
      <trkpt lat="43.36242" lon="6.6917">
        <ele>179.1</ele>
        <time>2022-10-09T12:46:44Z</time>
      </trkpt>
      <trkpt lat="43.36243" lon="6.69173">
        <ele>179.2</ele>
        <time>2022-10-09T12:46:45Z</time>
      </trkpt>
      <trkpt lat="43.36243" lon="6.69175">
        <ele>179.3</ele>
        <time>2022-10-09T12:46:46Z</time>
      </trkpt>
      <trkpt lat="43.36243" lon="6.69177">
        <ele>179.4</ele>
        <time>2022-10-09T12:46:47Z</time>
      </trkpt>
      <trkpt lat="43.36244" lon="6.69179">
        <ele>179.4</ele>
        <time>2022-10-09T12:46:48Z</time>
      </trkpt>
      <trkpt lat="43.36244" lon="6.69181">
        <ele>179.5</ele>
        <time>2022-10-09T12:46:49Z</time>
      </trkpt>
      <trkpt lat="43.36245" lon="6.69183">
        <ele>179.6</ele>
        <time>2022-10-09T12:46:50Z</time>
      </trkpt>
      <trkpt lat="43.36246" lon="6.69185">
        <ele>179.7</ele>
        <time>2022-10-09T12:46:51Z</time>
      </trkpt>
      <trkpt lat="43.36247" lon="6.69189">
        <ele>179.9</ele>
        <time>2022-10-09T12:46:53Z</time>
      </trkpt>
      <trkpt lat="43.36248" lon="6.69191">
        <ele>179.9</ele>
        <time>2022-10-09T12:46:54Z</time>
      </trkpt>
      <trkpt lat="43.36249" lon="6.69193">
        <ele>180</ele>
        <time>2022-10-09T12:46:55Z</time>
      </trkpt>
      <trkpt lat="43.36249" lon="6.69195">
        <ele>180.1</ele>
        <time>2022-10-09T12:46:56Z</time>
      </trkpt>
      <trkpt lat="43.3625" lon="6.69197">
        <ele>180.2</ele>
        <time>2022-10-09T12:46:57Z</time>
      </trkpt>
      <trkpt lat="43.3625" lon="6.69201">
        <ele>180.3</ele>
        <time>2022-10-09T12:46:59Z</time>
      </trkpt>
      <trkpt lat="43.3625" lon="6.69203">
        <ele>180.4</ele>
        <time>2022-10-09T12:47:00Z</time>
      </trkpt>
      <trkpt lat="43.36251" lon="6.69205">
        <ele>180.5</ele>
        <time>2022-10-09T12:47:01Z</time>
      </trkpt>
      <trkpt lat="43.36251" lon="6.69214">
        <ele>180.8</ele>
        <time>2022-10-09T12:47:05Z</time>
      </trkpt>
      <trkpt lat="43.36252" lon="6.69216">
        <ele>180.8</ele>
        <time>2022-10-09T12:47:06Z</time>
      </trkpt>
      <trkpt lat="43.36252" lon="6.69218">
        <ele>180.9</ele>
        <time>2022-10-09T12:47:07Z</time>
      </trkpt>
      <trkpt lat="43.36252" lon="6.69219">
        <ele>181</ele>
        <time>2022-10-09T12:47:08Z</time>
      </trkpt>
      <trkpt lat="43.36252" lon="6.69221">
        <ele>181</ele>
        <time>2022-10-09T12:47:09Z</time>
      </trkpt>
      <trkpt lat="43.36251" lon="6.69225">
        <ele>181.2</ele>
        <time>2022-10-09T12:47:11Z</time>
      </trkpt>
      <trkpt lat="43.36251" lon="6.69227">
        <ele>181.3</ele>
        <time>2022-10-09T12:47:12Z</time>
      </trkpt>
      <trkpt lat="43.36251" lon="6.6923">
        <ele>181.4</ele>
        <time>2022-10-09T12:47:14Z</time>
      </trkpt>
      <trkpt lat="43.36251" lon="6.69232">
        <ele>181.5</ele>
        <time>2022-10-09T12:47:15Z</time>
      </trkpt>
      <trkpt lat="43.36251" lon="6.69237">
        <ele>181.8</ele>
        <time>2022-10-09T12:47:18Z</time>
      </trkpt>
      <trkpt lat="43.36251" lon="6.69239">
        <ele>181.8</ele>
        <time>2022-10-09T12:47:19Z</time>
      </trkpt>
      <trkpt lat="43.36251" lon="6.69243">
        <ele>182</ele>
        <time>2022-10-09T12:47:21Z</time>
      </trkpt>
      <trkpt lat="43.3625" lon="6.69245">
        <ele>182.1</ele>
        <time>2022-10-09T12:47:22Z</time>
      </trkpt>
      <trkpt lat="43.3625" lon="6.69247">
        <ele>182.3</ele>
        <time>2022-10-09T12:47:23Z</time>
      </trkpt>
      <trkpt lat="43.3625" lon="6.69249">
        <ele>182.4</ele>
        <time>2022-10-09T12:47:24Z</time>
      </trkpt>
      <trkpt lat="43.3625" lon="6.69251">
        <ele>182.5</ele>
        <time>2022-10-09T12:47:25Z</time>
      </trkpt>
      <trkpt lat="43.3625" lon="6.69254">
        <ele>182.7</ele>
        <time>2022-10-09T12:47:27Z</time>
      </trkpt>
      <trkpt lat="43.3625" lon="6.69256">
        <ele>182.8</ele>
        <time>2022-10-09T12:47:28Z</time>
      </trkpt>
      <trkpt lat="43.36251" lon="6.69258">
        <ele>182.8</ele>
        <time>2022-10-09T12:47:29Z</time>
      </trkpt>
      <trkpt lat="43.36251" lon="6.69259">
        <ele>182.9</ele>
        <time>2022-10-09T12:47:30Z</time>
      </trkpt>
      <trkpt lat="43.36252" lon="6.69261">
        <ele>183.1</ele>
        <time>2022-10-09T12:47:31Z</time>
      </trkpt>
      <trkpt lat="43.36253" lon="6.69263">
        <ele>183.2</ele>
        <time>2022-10-09T12:47:32Z</time>
      </trkpt>
      <trkpt lat="43.36253" lon="6.69264">
        <ele>183.2</ele>
        <time>2022-10-09T12:47:33Z</time>
      </trkpt>
      <trkpt lat="43.36254" lon="6.69266">
        <ele>183.3</ele>
        <time>2022-10-09T12:47:34Z</time>
      </trkpt>
      <trkpt lat="43.36255" lon="6.69267">
        <ele>183.4</ele>
        <time>2022-10-09T12:47:35Z</time>
      </trkpt>
      <trkpt lat="43.36256" lon="6.69269">
        <ele>183.5</ele>
        <time>2022-10-09T12:47:36Z</time>
      </trkpt>
      <trkpt lat="43.36257" lon="6.69272">
        <ele>183.7</ele>
        <time>2022-10-09T12:47:38Z</time>
      </trkpt>
      <trkpt lat="43.36258" lon="6.69274">
        <ele>183.8</ele>
        <time>2022-10-09T12:47:39Z</time>
      </trkpt>
      <trkpt lat="43.36259" lon="6.69276">
        <ele>183.9</ele>
        <time>2022-10-09T12:47:40Z</time>
      </trkpt>
      <trkpt lat="43.3626" lon="6.69277">
        <ele>184</ele>
        <time>2022-10-09T12:47:41Z</time>
      </trkpt>
      <trkpt lat="43.36261" lon="6.69278">
        <ele>184.1</ele>
        <time>2022-10-09T12:47:42Z</time>
      </trkpt>
      <trkpt lat="43.36262" lon="6.6928">
        <ele>184.2</ele>
        <time>2022-10-09T12:47:43Z</time>
      </trkpt>
      <trkpt lat="43.36263" lon="6.69281">
        <ele>184.2</ele>
        <time>2022-10-09T12:47:44Z</time>
      </trkpt>
      <trkpt lat="43.36264" lon="6.69282">
        <ele>184.3</ele>
        <time>2022-10-09T12:47:45Z</time>
      </trkpt>
      <trkpt lat="43.36265" lon="6.69283">
        <ele>184.4</ele>
        <time>2022-10-09T12:47:46Z</time>
      </trkpt>
      <trkpt lat="43.36266" lon="6.69284">
        <ele>184.5</ele>
        <time>2022-10-09T12:47:47Z</time>
      </trkpt>
      <trkpt lat="43.36268" lon="6.69285">
        <ele>184.6</ele>
        <time>2022-10-09T12:47:48Z</time>
      </trkpt>
      <trkpt lat="43.3627" lon="6.69287">
        <ele>184.7</ele>
        <time>2022-10-09T12:47:50Z</time>
      </trkpt>
      <trkpt lat="43.36271" lon="6.69289">
        <ele>184.8</ele>
        <time>2022-10-09T12:47:51Z</time>
      </trkpt>
      <trkpt lat="43.36274" lon="6.69293">
        <ele>185.1</ele>
        <time>2022-10-09T12:47:54Z</time>
      </trkpt>
      <trkpt lat="43.36276" lon="6.69295">
        <ele>185.2</ele>
        <time>2022-10-09T12:47:56Z</time>
      </trkpt>
      <trkpt lat="43.36277" lon="6.69296">
        <ele>185.3</ele>
        <time>2022-10-09T12:47:57Z</time>
      </trkpt>
      <trkpt lat="43.36278" lon="6.69297">
        <ele>185.4</ele>
        <time>2022-10-09T12:47:58Z</time>
      </trkpt>
      <trkpt lat="43.36279" lon="6.69299">
        <ele>185.5</ele>
        <time>2022-10-09T12:47:59Z</time>
      </trkpt>
      <trkpt lat="43.36283" lon="6.69301">
        <ele>185.7</ele>
        <time>2022-10-09T12:48:02Z</time>
      </trkpt>
      <trkpt lat="43.36284" lon="6.69302">
        <ele>185.8</ele>
        <time>2022-10-09T12:48:03Z</time>
      </trkpt>
      <trkpt lat="43.36286" lon="6.69305">
        <ele>185.9</ele>
        <time>2022-10-09T12:48:05Z</time>
      </trkpt>
      <trkpt lat="43.36289" lon="6.69308">
        <ele>186.2</ele>
        <time>2022-10-09T12:48:08Z</time>
      </trkpt>
      <trkpt lat="43.36293" lon="6.69314">
        <ele>186.6</ele>
        <time>2022-10-09T12:48:12Z</time>
      </trkpt>
      <trkpt lat="43.36293" lon="6.69316">
        <ele>186.6</ele>
        <time>2022-10-09T12:48:13Z</time>
      </trkpt>
      <trkpt lat="43.36295" lon="6.69319">
        <ele>186.8</ele>
        <time>2022-10-09T12:48:15Z</time>
      </trkpt>
      <trkpt lat="43.36298" lon="6.69324">
        <ele>187.1</ele>
        <time>2022-10-09T12:48:18Z</time>
      </trkpt>
      <trkpt lat="43.36298" lon="6.69325">
        <ele>187.2</ele>
        <time>2022-10-09T12:48:19Z</time>
      </trkpt>
      <trkpt lat="43.36299" lon="6.69327">
        <ele>187.3</ele>
        <time>2022-10-09T12:48:20Z</time>
      </trkpt>
      <trkpt lat="43.36301" lon="6.69329">
        <ele>187.5</ele>
        <time>2022-10-09T12:48:22Z</time>
      </trkpt>
      <trkpt lat="43.36302" lon="6.69331">
        <ele>187.6</ele>
        <time>2022-10-09T12:48:23Z</time>
      </trkpt>
      <trkpt lat="43.36304" lon="6.69334">
        <ele>187.8</ele>
        <time>2022-10-09T12:48:25Z</time>
      </trkpt>
      <trkpt lat="43.36304" lon="6.69336">
        <ele>187.9</ele>
        <time>2022-10-09T12:48:26Z</time>
      </trkpt>
      <trkpt lat="43.36305" lon="6.69337">
        <ele>188</ele>
        <time>2022-10-09T12:48:27Z</time>
      </trkpt>
      <trkpt lat="43.36306" lon="6.69339">
        <ele>188.1</ele>
        <time>2022-10-09T12:48:28Z</time>
      </trkpt>
      <trkpt lat="43.36306" lon="6.6934">
        <ele>188.2</ele>
        <time>2022-10-09T12:48:29Z</time>
      </trkpt>
      <trkpt lat="43.36312" lon="6.69352">
        <ele>189.1</ele>
        <time>2022-10-09T12:48:36Z</time>
      </trkpt>
      <trkpt lat="43.36312" lon="6.69354">
        <ele>189.2</ele>
        <time>2022-10-09T12:48:37Z</time>
      </trkpt>
      <trkpt lat="43.36314" lon="6.69357">
        <ele>189.4</ele>
        <time>2022-10-09T12:48:39Z</time>
      </trkpt>
      <trkpt lat="43.36316" lon="6.6936">
        <ele>189.6</ele>
        <time>2022-10-09T12:48:41Z</time>
      </trkpt>
      <trkpt lat="43.36316" lon="6.69361">
        <ele>189.8</ele>
        <time>2022-10-09T12:48:42Z</time>
      </trkpt>
      <trkpt lat="43.36318" lon="6.69364">
        <ele>190</ele>
        <time>2022-10-09T12:48:44Z</time>
      </trkpt>
      <trkpt lat="43.36321" lon="6.69371">
        <ele>190.5</ele>
        <time>2022-10-09T12:48:48Z</time>
      </trkpt>
      <trkpt lat="43.36322" lon="6.69374">
        <ele>190.8</ele>
        <time>2022-10-09T12:48:50Z</time>
      </trkpt>
      <trkpt lat="43.36323" lon="6.69376">
        <ele>190.9</ele>
        <time>2022-10-09T12:48:51Z</time>
      </trkpt>
      <trkpt lat="43.36324" lon="6.69377">
        <ele>191.1</ele>
        <time>2022-10-09T12:48:52Z</time>
      </trkpt>
      <trkpt lat="43.36325" lon="6.69379">
        <ele>191.2</ele>
        <time>2022-10-09T12:48:53Z</time>
      </trkpt>
      <trkpt lat="43.36325" lon="6.6938">
        <ele>191.3</ele>
        <time>2022-10-09T12:48:54Z</time>
      </trkpt>
      <trkpt lat="43.36325" lon="6.69382">
        <ele>191.4</ele>
        <time>2022-10-09T12:48:55Z</time>
      </trkpt>
      <trkpt lat="43.36326" lon="6.69383">
        <ele>191.6</ele>
        <time>2022-10-09T12:48:56Z</time>
      </trkpt>
      <trkpt lat="43.36327" lon="6.69385">
        <ele>191.7</ele>
        <time>2022-10-09T12:48:57Z</time>
      </trkpt>
      <trkpt lat="43.36327" lon="6.69386">
        <ele>191.8</ele>
        <time>2022-10-09T12:48:58Z</time>
      </trkpt>
      <trkpt lat="43.36328" lon="6.69388">
        <ele>191.9</ele>
        <time>2022-10-09T12:48:59Z</time>
      </trkpt>
      <trkpt lat="43.36329" lon="6.69389">
        <ele>192.1</ele>
        <time>2022-10-09T12:49:00Z</time>
      </trkpt>
      <trkpt lat="43.36329" lon="6.69391">
        <ele>192.2</ele>
        <time>2022-10-09T12:49:01Z</time>
      </trkpt>
      <trkpt lat="43.3633" lon="6.69392">
        <ele>192.3</ele>
        <time>2022-10-09T12:49:02Z</time>
      </trkpt>
      <trkpt lat="43.3633" lon="6.69394">
        <ele>192.4</ele>
        <time>2022-10-09T12:49:03Z</time>
      </trkpt>
      <trkpt lat="43.36331" lon="6.69395">
        <ele>192.5</ele>
        <time>2022-10-09T12:49:04Z</time>
      </trkpt>
      <trkpt lat="43.36331" lon="6.69397">
        <ele>192.7</ele>
        <time>2022-10-09T12:49:05Z</time>
      </trkpt>
      <trkpt lat="43.36331" lon="6.69399">
        <ele>192.8</ele>
        <time>2022-10-09T12:49:06Z</time>
      </trkpt>
      <trkpt lat="43.36332" lon="6.694">
        <ele>192.9</ele>
        <time>2022-10-09T12:49:07Z</time>
      </trkpt>
      <trkpt lat="43.36332" lon="6.69402">
        <ele>193</ele>
        <time>2022-10-09T12:49:08Z</time>
      </trkpt>
      <trkpt lat="43.36332" lon="6.69403">
        <ele>193.1</ele>
        <time>2022-10-09T12:49:09Z</time>
      </trkpt>
      <trkpt lat="43.36333" lon="6.69405">
        <ele>193.3</ele>
        <time>2022-10-09T12:49:10Z</time>
      </trkpt>
      <trkpt lat="43.36333" lon="6.69406">
        <ele>193.4</ele>
        <time>2022-10-09T12:49:11Z</time>
      </trkpt>
      <trkpt lat="43.36333" lon="6.69406">
        <ele>193.4</ele>
        <time>2022-10-09T12:49:12Z</time>
      </trkpt>
      <trkpt lat="43.36334" lon="6.6941">
        <ele>193.6</ele>
        <time>2022-10-09T12:49:13Z</time>
      </trkpt>
      <trkpt lat="43.36334" lon="6.69411">
        <ele>193.7</ele>
        <time>2022-10-09T12:49:14Z</time>
      </trkpt>
      <trkpt lat="43.36334" lon="6.69413">
        <ele>193.9</ele>
        <time>2022-10-09T12:49:15Z</time>
      </trkpt>
      <trkpt lat="43.36335" lon="6.69415">
        <ele>194</ele>
        <time>2022-10-09T12:49:16Z</time>
      </trkpt>
      <trkpt lat="43.36335" lon="6.69417">
        <ele>194.1</ele>
        <time>2022-10-09T12:49:17Z</time>
      </trkpt>
      <trkpt lat="43.36335" lon="6.69418">
        <ele>194.2</ele>
        <time>2022-10-09T12:49:18Z</time>
      </trkpt>
      <trkpt lat="43.36335" lon="6.6942">
        <ele>194.4</ele>
        <time>2022-10-09T12:49:19Z</time>
      </trkpt>
      <trkpt lat="43.36335" lon="6.69422">
        <ele>194.5</ele>
        <time>2022-10-09T12:49:20Z</time>
      </trkpt>
      <trkpt lat="43.36335" lon="6.69424">
        <ele>194.6</ele>
        <time>2022-10-09T12:49:21Z</time>
      </trkpt>
      <trkpt lat="43.36335" lon="6.69426">
        <ele>194.8</ele>
        <time>2022-10-09T12:49:22Z</time>
      </trkpt>
      <trkpt lat="43.36335" lon="6.69428">
        <ele>194.9</ele>
        <time>2022-10-09T12:49:23Z</time>
      </trkpt>
      <trkpt lat="43.36335" lon="6.6943">
        <ele>195</ele>
        <time>2022-10-09T12:49:24Z</time>
      </trkpt>
      <trkpt lat="43.36334" lon="6.69432">
        <ele>195.2</ele>
        <time>2022-10-09T12:49:25Z</time>
      </trkpt>
      <trkpt lat="43.36334" lon="6.69434">
        <ele>195.3</ele>
        <time>2022-10-09T12:49:26Z</time>
      </trkpt>
      <trkpt lat="43.36334" lon="6.69436">
        <ele>195.5</ele>
        <time>2022-10-09T12:49:27Z</time>
      </trkpt>
      <trkpt lat="43.36333" lon="6.69438">
        <ele>195.6</ele>
        <time>2022-10-09T12:49:28Z</time>
      </trkpt>
      <trkpt lat="43.36333" lon="6.69439">
        <ele>195.8</ele>
        <time>2022-10-09T12:49:29Z</time>
      </trkpt>
      <trkpt lat="43.36333" lon="6.69441">
        <ele>195.9</ele>
        <time>2022-10-09T12:49:30Z</time>
      </trkpt>
      <trkpt lat="43.36334" lon="6.69442">
        <ele>196</ele>
        <time>2022-10-09T12:49:31Z</time>
      </trkpt>
      <trkpt lat="43.36334" lon="6.69443">
        <ele>196.1</ele>
        <time>2022-10-09T12:49:32Z</time>
      </trkpt>
      <trkpt lat="43.36334" lon="6.69444">
        <ele>196.1</ele>
        <time>2022-10-09T12:49:33Z</time>
      </trkpt>
      <trkpt lat="43.36334" lon="6.69444">
        <ele>196.2</ele>
        <time>2022-10-09T12:49:34Z</time>
      </trkpt>
      <trkpt lat="43.36334" lon="6.69445">
        <ele>196.2</ele>
        <time>2022-10-09T12:49:35Z</time>
      </trkpt>
      <trkpt lat="43.36091" lon="6.69246">
        <ele>238.7</ele>
        <time>2022-10-09T12:58:57Z</time>
      </trkpt>
      <trkpt lat="43.36088" lon="6.69249">
        <ele>238.7</ele>
        <time>2022-10-09T12:58:59Z</time>
      </trkpt>
      <trkpt lat="43.36085" lon="6.69251">
        <ele>238.6</ele>
        <time>2022-10-09T12:59:00Z</time>
      </trkpt>
      <trkpt lat="43.36078" lon="6.69251">
        <ele>238.3</ele>
        <time>2022-10-09T12:59:02Z</time>
      </trkpt>
      <trkpt lat="43.36074" lon="6.69251">
        <ele>238.1</ele>
        <time>2022-10-09T12:59:03Z</time>
      </trkpt>
      <trkpt lat="43.3607" lon="6.69253">
        <ele>237.9</ele>
        <time>2022-10-09T12:59:04Z</time>
      </trkpt>
      <trkpt lat="43.36068" lon="6.69255">
        <ele>237.7</ele>
        <time>2022-10-09T12:59:05Z</time>
      </trkpt>
      <trkpt lat="43.36065" lon="6.69258">
        <ele>237.5</ele>
        <time>2022-10-09T12:59:06Z</time>
      </trkpt>
      <trkpt lat="43.36063" lon="6.69261">
        <ele>237.3</ele>
        <time>2022-10-09T12:59:07Z</time>
      </trkpt>
      <trkpt lat="43.36061" lon="6.69265">
        <ele>237</ele>
        <time>2022-10-09T12:59:08Z</time>
      </trkpt>
      <trkpt lat="43.36058" lon="6.6927">
        <ele>236.8</ele>
        <time>2022-10-09T12:59:09Z</time>
      </trkpt>
      <trkpt lat="43.36055" lon="6.69273">
        <ele>236.4</ele>
        <time>2022-10-09T12:59:10Z</time>
      </trkpt>
      <trkpt lat="43.36051" lon="6.69276">
        <ele>236.1</ele>
        <time>2022-10-09T12:59:11Z</time>
      </trkpt>
      <trkpt lat="43.36046" lon="6.69279">
        <ele>235.7</ele>
        <time>2022-10-09T12:59:12Z</time>
      </trkpt>
      <trkpt lat="43.36041" lon="6.69281">
        <ele>235.2</ele>
        <time>2022-10-09T12:59:13Z</time>
      </trkpt>
      <trkpt lat="43.36037" lon="6.69284">
        <ele>234.8</ele>
        <time>2022-10-09T12:59:14Z</time>
      </trkpt>
      <trkpt lat="43.36027" lon="6.69291">
        <ele>233.9</ele>
        <time>2022-10-09T12:59:16Z</time>
      </trkpt>
      <trkpt lat="43.36022" lon="6.69292">
        <ele>233.4</ele>
        <time>2022-10-09T12:59:17Z</time>
      </trkpt>
      <trkpt lat="43.36017" lon="6.69292">
        <ele>232.9</ele>
        <time>2022-10-09T12:59:18Z</time>
      </trkpt>
      <trkpt lat="43.36005" lon="6.69292">
        <ele>231.8</ele>
        <time>2022-10-09T12:59:20Z</time>
      </trkpt>
      <trkpt lat="43.35998" lon="6.69293">
        <ele>231.2</ele>
        <time>2022-10-09T12:59:21Z</time>
      </trkpt>
      <trkpt lat="43.35992" lon="6.69294">
        <ele>230.6</ele>
        <time>2022-10-09T12:59:22Z</time>
      </trkpt>
      <trkpt lat="43.35986" lon="6.69296">
        <ele>230</ele>
        <time>2022-10-09T12:59:23Z</time>
      </trkpt>
      <trkpt lat="43.3598" lon="6.69297">
        <ele>229.5</ele>
        <time>2022-10-09T12:59:24Z</time>
      </trkpt>
      <trkpt lat="43.35975" lon="6.69297">
        <ele>228.9</ele>
        <time>2022-10-09T12:59:25Z</time>
      </trkpt>
      <trkpt lat="43.35971" lon="6.69296">
        <ele>228.4</ele>
        <time>2022-10-09T12:59:26Z</time>
      </trkpt>
      <trkpt lat="43.35967" lon="6.69296">
        <ele>227.9</ele>
        <time>2022-10-09T12:59:27Z</time>
      </trkpt>
      <trkpt lat="43.35963" lon="6.69299">
        <ele>227.2</ele>
        <time>2022-10-09T12:59:28Z</time>
      </trkpt>
      <trkpt lat="43.35958" lon="6.69301">
        <ele>226.4</ele>
        <time>2022-10-09T12:59:29Z</time>
      </trkpt>
      <trkpt lat="43.35951" lon="6.69303">
        <ele>225.4</ele>
        <time>2022-10-09T12:59:30Z</time>
      </trkpt>
      <trkpt lat="43.35936" lon="6.69306">
        <ele>223</ele>
        <time>2022-10-09T12:59:32Z</time>
      </trkpt>
      <trkpt lat="43.35928" lon="6.69309">
        <ele>221.9</ele>
        <time>2022-10-09T12:59:33Z</time>
      </trkpt>
      <trkpt lat="43.3592" lon="6.69312">
        <ele>220.9</ele>
        <time>2022-10-09T12:59:34Z</time>
      </trkpt>
      <trkpt lat="43.35903" lon="6.69319">
        <ele>218.9</ele>
        <time>2022-10-09T12:59:36Z</time>
      </trkpt>
      <trkpt lat="43.35894" lon="6.69324">
        <ele>218</ele>
        <time>2022-10-09T12:59:37Z</time>
      </trkpt>
      <trkpt lat="43.35873" lon="6.69341">
        <ele>216.2</ele>
        <time>2022-10-09T12:59:40Z</time>
      </trkpt>
      <trkpt lat="43.35868" lon="6.69344">
        <ele>215.8</ele>
        <time>2022-10-09T12:59:41Z</time>
      </trkpt>
      <trkpt lat="43.35864" lon="6.69347">
        <ele>215.5</ele>
        <time>2022-10-09T12:59:42Z</time>
      </trkpt>
      <trkpt lat="43.3586" lon="6.69351">
        <ele>215.1</ele>
        <time>2022-10-09T12:59:43Z</time>
      </trkpt>
      <trkpt lat="43.35855" lon="6.69355">
        <ele>214.7</ele>
        <time>2022-10-09T12:59:44Z</time>
      </trkpt>
      <trkpt lat="43.35847" lon="6.69364">
        <ele>214</ele>
        <time>2022-10-09T12:59:46Z</time>
      </trkpt>
      <trkpt lat="43.35843" lon="6.6937">
        <ele>213.7</ele>
        <time>2022-10-09T12:59:47Z</time>
      </trkpt>
      <trkpt lat="43.3584" lon="6.69375">
        <ele>213.5</ele>
        <time>2022-10-09T12:59:48Z</time>
      </trkpt>
      <trkpt lat="43.35831" lon="6.69394">
        <ele>212.4</ele>
        <time>2022-10-09T12:59:51Z</time>
      </trkpt>
      <trkpt lat="43.35829" lon="6.694">
        <ele>212.1</ele>
        <time>2022-10-09T12:59:52Z</time>
      </trkpt>
      <trkpt lat="43.35828" lon="6.69408">
        <ele>211.6</ele>
        <time>2022-10-09T12:59:53Z</time>
      </trkpt>
      <trkpt lat="43.35826" lon="6.69415">
        <ele>210.9</ele>
        <time>2022-10-09T12:59:54Z</time>
      </trkpt>
      <trkpt lat="43.3582" lon="6.69428">
        <ele>209.6</ele>
        <time>2022-10-09T12:59:56Z</time>
      </trkpt>
      <trkpt lat="43.35818" lon="6.69435">
        <ele>209</ele>
        <time>2022-10-09T12:59:57Z</time>
      </trkpt>
      <trkpt lat="43.35816" lon="6.69442">
        <ele>208.4</ele>
        <time>2022-10-09T12:59:58Z</time>
      </trkpt>
      <trkpt lat="43.35813" lon="6.69449">
        <ele>207.7</ele>
        <time>2022-10-09T12:59:59Z</time>
      </trkpt>
      <trkpt lat="43.3581" lon="6.69454">
        <ele>207.2</ele>
        <time>2022-10-09T13:00:00Z</time>
      </trkpt>
      <trkpt lat="43.35807" lon="6.6946">
        <ele>206.6</ele>
        <time>2022-10-09T13:00:01Z</time>
      </trkpt>
      <trkpt lat="43.35806" lon="6.69466">
        <ele>206.1</ele>
        <time>2022-10-09T13:00:02Z</time>
      </trkpt>
      <trkpt lat="43.35805" lon="6.69473">
        <ele>205.6</ele>
        <time>2022-10-09T13:00:03Z</time>
      </trkpt>
      <trkpt lat="43.35805" lon="6.69478">
        <ele>205.1</ele>
        <time>2022-10-09T13:00:04Z</time>
      </trkpt>
      <trkpt lat="43.35804" lon="6.69483">
        <ele>204.7</ele>
        <time>2022-10-09T13:00:05Z</time>
      </trkpt>
      <trkpt lat="43.35802" lon="6.69486">
        <ele>204.2</ele>
        <time>2022-10-09T13:00:06Z</time>
      </trkpt>
      <trkpt lat="43.35801" lon="6.6949">
        <ele>203.8</ele>
        <time>2022-10-09T13:00:07Z</time>
      </trkpt>
      <trkpt lat="43.358" lon="6.69493">
        <ele>203.4</ele>
        <time>2022-10-09T13:00:08Z</time>
      </trkpt>
      <trkpt lat="43.35799" lon="6.69496">
        <ele>202.9</ele>
        <time>2022-10-09T13:00:09Z</time>
      </trkpt>
      <trkpt lat="43.35799" lon="6.695">
        <ele>202.5</ele>
        <time>2022-10-09T13:00:10Z</time>
      </trkpt>
      <trkpt lat="43.35799" lon="6.69503">
        <ele>202</ele>
        <time>2022-10-09T13:00:11Z</time>
      </trkpt>
      <trkpt lat="43.35799" lon="6.69506">
        <ele>201.5</ele>
        <time>2022-10-09T13:00:12Z</time>
      </trkpt>
      <trkpt lat="43.358" lon="6.69509">
        <ele>201</ele>
        <time>2022-10-09T13:00:13Z</time>
      </trkpt>
      <trkpt lat="43.35801" lon="6.69511">
        <ele>200.6</ele>
        <time>2022-10-09T13:00:14Z</time>
      </trkpt>
      <trkpt lat="43.35801" lon="6.69515">
        <ele>200.1</ele>
        <time>2022-10-09T13:00:15Z</time>
      </trkpt>
      <trkpt lat="43.35801" lon="6.69518">
        <ele>199.5</ele>
        <time>2022-10-09T13:00:16Z</time>
      </trkpt>
      <trkpt lat="43.35801" lon="6.69523">
        <ele>198.7</ele>
        <time>2022-10-09T13:00:17Z</time>
      </trkpt>
      <trkpt lat="43.358" lon="6.69527">
        <ele>198.1</ele>
        <time>2022-10-09T13:00:18Z</time>
      </trkpt>
      <trkpt lat="43.358" lon="6.69531">
        <ele>197.5</ele>
        <time>2022-10-09T13:00:19Z</time>
      </trkpt>
      <trkpt lat="43.358" lon="6.69534">
        <ele>197</ele>
        <time>2022-10-09T13:00:20Z</time>
      </trkpt>
      <trkpt lat="43.358" lon="6.69537">
        <ele>196.5</ele>
        <time>2022-10-09T13:00:21Z</time>
      </trkpt>
      <trkpt lat="43.35801" lon="6.69541">
        <ele>196</ele>
        <time>2022-10-09T13:00:22Z</time>
      </trkpt>
      <trkpt lat="43.35801" lon="6.69552">
        <ele>194.5</ele>
        <time>2022-10-09T13:00:24Z</time>
      </trkpt>
      <trkpt lat="43.35798" lon="6.69564">
        <ele>193.1</ele>
        <time>2022-10-09T13:00:26Z</time>
      </trkpt>
      <trkpt lat="43.35796" lon="6.6957">
        <ele>192.4</ele>
        <time>2022-10-09T13:00:27Z</time>
      </trkpt>
      <trkpt lat="43.35794" lon="6.69576">
        <ele>191.8</ele>
        <time>2022-10-09T13:00:28Z</time>
      </trkpt>
      <trkpt lat="43.35792" lon="6.69582">
        <ele>191.2</ele>
        <time>2022-10-09T13:00:29Z</time>
      </trkpt>
      <trkpt lat="43.35791" lon="6.69589">
        <ele>190.6</ele>
        <time>2022-10-09T13:00:30Z</time>
      </trkpt>
      <trkpt lat="43.3579" lon="6.69596">
        <ele>190</ele>
        <time>2022-10-09T13:00:31Z</time>
      </trkpt>
      <trkpt lat="43.35785" lon="6.69609">
        <ele>188.9</ele>
        <time>2022-10-09T13:00:33Z</time>
      </trkpt>
      <trkpt lat="43.35783" lon="6.69613">
        <ele>188.6</ele>
        <time>2022-10-09T13:00:34Z</time>
      </trkpt>
      <trkpt lat="43.3578" lon="6.69617">
        <ele>188.4</ele>
        <time>2022-10-09T13:00:35Z</time>
      </trkpt>
      <trkpt lat="43.35778" lon="6.69622">
        <ele>188.2</ele>
        <time>2022-10-09T13:00:36Z</time>
      </trkpt>
      <trkpt lat="43.35776" lon="6.69626">
        <ele>188.1</ele>
        <time>2022-10-09T13:00:37Z</time>
      </trkpt>
      <trkpt lat="43.35775" lon="6.6963">
        <ele>188</ele>
        <time>2022-10-09T13:00:38Z</time>
      </trkpt>
      <trkpt lat="43.35773" lon="6.69635">
        <ele>187.9</ele>
        <time>2022-10-09T13:00:39Z</time>
      </trkpt>
      <trkpt lat="43.35771" lon="6.69639">
        <ele>187.8</ele>
        <time>2022-10-09T13:00:40Z</time>
      </trkpt>
      <trkpt lat="43.3577" lon="6.69643">
        <ele>187.7</ele>
        <time>2022-10-09T13:00:41Z</time>
      </trkpt>
      <trkpt lat="43.35769" lon="6.69648">
        <ele>187.7</ele>
        <time>2022-10-09T13:00:42Z</time>
      </trkpt>
      <trkpt lat="43.35766" lon="6.6967">
        <ele>187.4</ele>
        <time>2022-10-09T13:00:46Z</time>
      </trkpt>
      <trkpt lat="43.35762" lon="6.69709">
        <ele>187</ele>
        <time>2022-10-09T13:00:53Z</time>
      </trkpt>
      <trkpt lat="43.35761" lon="6.69715">
        <ele>186.9</ele>
        <time>2022-10-09T13:00:54Z</time>
      </trkpt>
      <trkpt lat="43.35758" lon="6.69721">
        <ele>186.8</ele>
        <time>2022-10-09T13:00:55Z</time>
      </trkpt>
      <trkpt lat="43.35754" lon="6.69725">
        <ele>186.7</ele>
        <time>2022-10-09T13:00:56Z</time>
      </trkpt>
      <trkpt lat="43.3575" lon="6.69728">
        <ele>186.6</ele>
        <time>2022-10-09T13:00:57Z</time>
      </trkpt>
      <trkpt lat="43.35741" lon="6.69728">
        <ele>186.3</ele>
        <time>2022-10-09T13:00:59Z</time>
      </trkpt>
      <trkpt lat="43.35736" lon="6.69726">
        <ele>186.1</ele>
        <time>2022-10-09T13:01:00Z</time>
      </trkpt>
      <trkpt lat="43.35731" lon="6.69724">
        <ele>186</ele>
        <time>2022-10-09T13:01:01Z</time>
      </trkpt>
      <trkpt lat="43.35726" lon="6.69722">
        <ele>185.9</ele>
        <time>2022-10-09T13:01:02Z</time>
      </trkpt>
      <trkpt lat="43.35721" lon="6.69722">
        <ele>185.9</ele>
        <time>2022-10-09T13:01:03Z</time>
      </trkpt>
      <trkpt lat="43.35717" lon="6.69723">
        <ele>185.9</ele>
        <time>2022-10-09T13:01:04Z</time>
      </trkpt>
      <trkpt lat="43.35713" lon="6.69725">
        <ele>185.9</ele>
        <time>2022-10-09T13:01:05Z</time>
      </trkpt>
      <trkpt lat="43.35709" lon="6.69728">
        <ele>185.9</ele>
        <time>2022-10-09T13:01:06Z</time>
      </trkpt>
      <trkpt lat="43.35705" lon="6.6973">
        <ele>186</ele>
        <time>2022-10-09T13:01:07Z</time>
      </trkpt>
      <trkpt lat="43.35702" lon="6.69733">
        <ele>186.1</ele>
        <time>2022-10-09T13:01:08Z</time>
      </trkpt>
      <trkpt lat="43.35699" lon="6.69736">
        <ele>186.2</ele>
        <time>2022-10-09T13:01:09Z</time>
      </trkpt>
      <trkpt lat="43.35697" lon="6.69739">
        <ele>186.3</ele>
        <time>2022-10-09T13:01:10Z</time>
      </trkpt>
      <trkpt lat="43.35694" lon="6.69741">
        <ele>186.4</ele>
        <time>2022-10-09T13:01:11Z</time>
      </trkpt>
      <trkpt lat="43.35692" lon="6.69744">
        <ele>186.5</ele>
        <time>2022-10-09T13:01:12Z</time>
      </trkpt>
      <trkpt lat="43.3569" lon="6.69747">
        <ele>186.5</ele>
        <time>2022-10-09T13:01:13Z</time>
      </trkpt>
      <trkpt lat="43.35688" lon="6.69751">
        <ele>186.6</ele>
        <time>2022-10-09T13:01:14Z</time>
      </trkpt>
      <trkpt lat="43.35683" lon="6.69757">
        <ele>186.7</ele>
        <time>2022-10-09T13:01:16Z</time>
      </trkpt>
      <trkpt lat="43.35679" lon="6.69764">
        <ele>186.8</ele>
        <time>2022-10-09T13:01:18Z</time>
      </trkpt>
      <trkpt lat="43.35673" lon="6.69775">
        <ele>186.9</ele>
        <time>2022-10-09T13:01:21Z</time>
      </trkpt>
      <trkpt lat="43.35671" lon="6.69778">
        <ele>186.9</ele>
        <time>2022-10-09T13:01:22Z</time>
      </trkpt>
      <trkpt lat="43.35669" lon="6.69782">
        <ele>186.9</ele>
        <time>2022-10-09T13:01:23Z</time>
      </trkpt>
      <trkpt lat="43.3566" lon="6.69804">
        <ele>186.6</ele>
        <time>2022-10-09T13:01:27Z</time>
      </trkpt>
      <trkpt lat="43.35658" lon="6.6981">
        <ele>186.5</ele>
        <time>2022-10-09T13:01:28Z</time>
      </trkpt>
      <trkpt lat="43.35645" lon="6.69842">
        <ele>185.1</ele>
        <time>2022-10-09T13:01:33Z</time>
      </trkpt>
      <trkpt lat="43.35643" lon="6.69849">
        <ele>184.8</ele>
        <time>2022-10-09T13:01:34Z</time>
      </trkpt>
      <trkpt lat="43.3564" lon="6.69855">
        <ele>184.5</ele>
        <time>2022-10-09T13:01:35Z</time>
      </trkpt>
      <trkpt lat="43.35637" lon="6.69861">
        <ele>184.2</ele>
        <time>2022-10-09T13:01:36Z</time>
      </trkpt>
      <trkpt lat="43.3563" lon="6.69873">
        <ele>183.5</ele>
        <time>2022-10-09T13:01:38Z</time>
      </trkpt>
      <trkpt lat="43.35627" lon="6.69879">
        <ele>183.2</ele>
        <time>2022-10-09T13:01:39Z</time>
      </trkpt>
      <trkpt lat="43.35623" lon="6.69886">
        <ele>182.8</ele>
        <time>2022-10-09T13:01:40Z</time>
      </trkpt>
      <trkpt lat="43.3561" lon="6.69913">
        <ele>181.8</ele>
        <time>2022-10-09T13:01:44Z</time>
      </trkpt>
      <trkpt lat="43.35607" lon="6.6992">
        <ele>181.6</ele>
        <time>2022-10-09T13:01:45Z</time>
      </trkpt>
      <trkpt lat="43.35605" lon="6.69926">
        <ele>181.3</ele>
        <time>2022-10-09T13:01:46Z</time>
      </trkpt>
      <trkpt lat="43.35602" lon="6.69933">
        <ele>181.1</ele>
        <time>2022-10-09T13:01:47Z</time>
      </trkpt>
      <trkpt lat="43.356" lon="6.6994">
        <ele>180.8</ele>
        <time>2022-10-09T13:01:48Z</time>
      </trkpt>
      <trkpt lat="43.35599" lon="6.69948">
        <ele>180.4</ele>
        <time>2022-10-09T13:01:49Z</time>
      </trkpt>
      <trkpt lat="43.35597" lon="6.69957">
        <ele>180</ele>
        <time>2022-10-09T13:01:50Z</time>
      </trkpt>
      <trkpt lat="43.35595" lon="6.69966">
        <ele>179.6</ele>
        <time>2022-10-09T13:01:51Z</time>
      </trkpt>
      <trkpt lat="43.3559" lon="6.69985">
        <ele>178.9</ele>
        <time>2022-10-09T13:01:53Z</time>
      </trkpt>
      <trkpt lat="43.35586" lon="6.70003">
        <ele>178.6</ele>
        <time>2022-10-09T13:01:55Z</time>
      </trkpt>
      <trkpt lat="43.35584" lon="6.70012">
        <ele>178.5</ele>
        <time>2022-10-09T13:01:56Z</time>
      </trkpt>
      <trkpt lat="43.35582" lon="6.70019">
        <ele>178.5</ele>
        <time>2022-10-09T13:01:57Z</time>
      </trkpt>
      <trkpt lat="43.35581" lon="6.70026">
        <ele>178.5</ele>
        <time>2022-10-09T13:01:58Z</time>
      </trkpt>
      <trkpt lat="43.35579" lon="6.70033">
        <ele>178.5</ele>
        <time>2022-10-09T13:01:59Z</time>
      </trkpt>
      <trkpt lat="43.35577" lon="6.7004">
        <ele>178.5</ele>
        <time>2022-10-09T13:02:00Z</time>
      </trkpt>
      <trkpt lat="43.35575" lon="6.70046">
        <ele>178.6</ele>
        <time>2022-10-09T13:02:01Z</time>
      </trkpt>
      <trkpt lat="43.35573" lon="6.70051">
        <ele>178.7</ele>
        <time>2022-10-09T13:02:02Z</time>
      </trkpt>
      <trkpt lat="43.35572" lon="6.70057">
        <ele>178.7</ele>
        <time>2022-10-09T13:02:03Z</time>
      </trkpt>
      <trkpt lat="43.35572" lon="6.70062">
        <ele>178.8</ele>
        <time>2022-10-09T13:02:04Z</time>
      </trkpt>
      <trkpt lat="43.35572" lon="6.70068">
        <ele>178.8</ele>
        <time>2022-10-09T13:02:05Z</time>
      </trkpt>
      <trkpt lat="43.35573" lon="6.70073">
        <ele>178.7</ele>
        <time>2022-10-09T13:02:06Z</time>
      </trkpt>
      <trkpt lat="43.35574" lon="6.70078">
        <ele>178.7</ele>
        <time>2022-10-09T13:02:07Z</time>
      </trkpt>
      <trkpt lat="43.35576" lon="6.70084">
        <ele>178.6</ele>
        <time>2022-10-09T13:02:08Z</time>
      </trkpt>
      <trkpt lat="43.35578" lon="6.70089">
        <ele>178.6</ele>
        <time>2022-10-09T13:02:09Z</time>
      </trkpt>
      <trkpt lat="43.35579" lon="6.70095">
        <ele>178.5</ele>
        <time>2022-10-09T13:02:10Z</time>
      </trkpt>
      <trkpt lat="43.35581" lon="6.701">
        <ele>178.5</ele>
        <time>2022-10-09T13:02:11Z</time>
      </trkpt>
      <trkpt lat="43.35586" lon="6.70109">
        <ele>178.4</ele>
        <time>2022-10-09T13:02:13Z</time>
      </trkpt>
      <trkpt lat="43.35591" lon="6.7012">
        <ele>178.4</ele>
        <time>2022-10-09T13:02:15Z</time>
      </trkpt>
      <trkpt lat="43.35593" lon="6.70124">
        <ele>178.4</ele>
        <time>2022-10-09T13:02:16Z</time>
      </trkpt>
      <trkpt lat="43.35595" lon="6.70129">
        <ele>178.4</ele>
        <time>2022-10-09T13:02:17Z</time>
      </trkpt>
      <trkpt lat="43.35598" lon="6.70133">
        <ele>178.3</ele>
        <time>2022-10-09T13:02:18Z</time>
      </trkpt>
      <trkpt lat="43.356" lon="6.70138">
        <ele>178.3</ele>
        <time>2022-10-09T13:02:19Z</time>
      </trkpt>
      <trkpt lat="43.35602" lon="6.70143">
        <ele>178.2</ele>
        <time>2022-10-09T13:02:20Z</time>
      </trkpt>
      <trkpt lat="43.35604" lon="6.70148">
        <ele>178</ele>
        <time>2022-10-09T13:02:21Z</time>
      </trkpt>
      <trkpt lat="43.35609" lon="6.7016">
        <ele>177.7</ele>
        <time>2022-10-09T13:02:23Z</time>
      </trkpt>
      <trkpt lat="43.35618" lon="6.70185">
        <ele>177</ele>
        <time>2022-10-09T13:02:27Z</time>
      </trkpt>
      <trkpt lat="43.35621" lon="6.70191">
        <ele>176.7</ele>
        <time>2022-10-09T13:02:28Z</time>
      </trkpt>
      <trkpt lat="43.35623" lon="6.70197">
        <ele>176.5</ele>
        <time>2022-10-09T13:02:29Z</time>
      </trkpt>
      <trkpt lat="43.35625" lon="6.70203">
        <ele>176.3</ele>
        <time>2022-10-09T13:02:30Z</time>
      </trkpt>
      <trkpt lat="43.35627" lon="6.70208">
        <ele>176.1</ele>
        <time>2022-10-09T13:02:31Z</time>
      </trkpt>
      <trkpt lat="43.35628" lon="6.70213">
        <ele>175.8</ele>
        <time>2022-10-09T13:02:32Z</time>
      </trkpt>
      <trkpt lat="43.35629" lon="6.70219">
        <ele>175.5</ele>
        <time>2022-10-09T13:02:33Z</time>
      </trkpt>
      <trkpt lat="43.35631" lon="6.70224">
        <ele>175.1</ele>
        <time>2022-10-09T13:02:34Z</time>
      </trkpt>
      <trkpt lat="43.35634" lon="6.7023">
        <ele>174.6</ele>
        <time>2022-10-09T13:02:35Z</time>
      </trkpt>
      <trkpt lat="43.35637" lon="6.70236">
        <ele>174.1</ele>
        <time>2022-10-09T13:02:36Z</time>
      </trkpt>
      <trkpt lat="43.3564" lon="6.70242">
        <ele>173.7</ele>
        <time>2022-10-09T13:02:37Z</time>
      </trkpt>
      <trkpt lat="43.35643" lon="6.70248">
        <ele>173.2</ele>
        <time>2022-10-09T13:02:38Z</time>
      </trkpt>
      <trkpt lat="43.35645" lon="6.70254">
        <ele>172.7</ele>
        <time>2022-10-09T13:02:39Z</time>
      </trkpt>
      <trkpt lat="43.35648" lon="6.70268">
        <ele>171.9</ele>
        <time>2022-10-09T13:02:41Z</time>
      </trkpt>
      <trkpt lat="43.3565" lon="6.70275">
        <ele>171.5</ele>
        <time>2022-10-09T13:02:42Z</time>
      </trkpt>
      <trkpt lat="43.35652" lon="6.70281">
        <ele>171</ele>
        <time>2022-10-09T13:02:43Z</time>
      </trkpt>
      <trkpt lat="43.35654" lon="6.70287">
        <ele>170.6</ele>
        <time>2022-10-09T13:02:44Z</time>
      </trkpt>
      <trkpt lat="43.35657" lon="6.70293">
        <ele>170.2</ele>
        <time>2022-10-09T13:02:45Z</time>
      </trkpt>
      <trkpt lat="43.35671" lon="6.70315">
        <ele>168.7</ele>
        <time>2022-10-09T13:02:49Z</time>
      </trkpt>
      <trkpt lat="43.35678" lon="6.70326">
        <ele>168</ele>
        <time>2022-10-09T13:02:51Z</time>
      </trkpt>
      <trkpt lat="43.35681" lon="6.70332">
        <ele>167.6</ele>
        <time>2022-10-09T13:02:52Z</time>
      </trkpt>
      <trkpt lat="43.35685" lon="6.70337">
        <ele>167.3</ele>
        <time>2022-10-09T13:02:53Z</time>
      </trkpt>
      <trkpt lat="43.35688" lon="6.70342">
        <ele>167</ele>
        <time>2022-10-09T13:02:54Z</time>
      </trkpt>
      <trkpt lat="43.3569" lon="6.70347">
        <ele>166.7</ele>
        <time>2022-10-09T13:02:55Z</time>
      </trkpt>
      <trkpt lat="43.35692" lon="6.70352">
        <ele>166.5</ele>
        <time>2022-10-09T13:02:56Z</time>
      </trkpt>
      <trkpt lat="43.35694" lon="6.70358">
        <ele>166.2</ele>
        <time>2022-10-09T13:02:57Z</time>
      </trkpt>
      <trkpt lat="43.35695" lon="6.70364">
        <ele>165.9</ele>
        <time>2022-10-09T13:02:58Z</time>
      </trkpt>
      <trkpt lat="43.35697" lon="6.7037">
        <ele>165.6</ele>
        <time>2022-10-09T13:02:59Z</time>
      </trkpt>
      <trkpt lat="43.35698" lon="6.70383">
        <ele>164.9</ele>
        <time>2022-10-09T13:03:01Z</time>
      </trkpt>
      <trkpt lat="43.35698" lon="6.7039">
        <ele>164.6</ele>
        <time>2022-10-09T13:03:02Z</time>
      </trkpt>
      <trkpt lat="43.35698" lon="6.70397">
        <ele>164.3</ele>
        <time>2022-10-09T13:03:03Z</time>
      </trkpt>
      <trkpt lat="43.35697" lon="6.70405">
        <ele>163.9</ele>
        <time>2022-10-09T13:03:04Z</time>
      </trkpt>
      <trkpt lat="43.35697" lon="6.70419">
        <ele>163.3</ele>
        <time>2022-10-09T13:03:06Z</time>
      </trkpt>
      <trkpt lat="43.35699" lon="6.70425">
        <ele>163</ele>
        <time>2022-10-09T13:03:07Z</time>
      </trkpt>
      <trkpt lat="43.35701" lon="6.70431">
        <ele>162.7</ele>
        <time>2022-10-09T13:03:08Z</time>
      </trkpt>
      <trkpt lat="43.35705" lon="6.70436">
        <ele>162.4</ele>
        <time>2022-10-09T13:03:09Z</time>
      </trkpt>
      <trkpt lat="43.35708" lon="6.7044">
        <ele>162.2</ele>
        <time>2022-10-09T13:03:10Z</time>
      </trkpt>
      <trkpt lat="43.3571" lon="6.70444">
        <ele>162</ele>
        <time>2022-10-09T13:03:11Z</time>
      </trkpt>
      <trkpt lat="43.35712" lon="6.70447">
        <ele>161.8</ele>
        <time>2022-10-09T13:03:12Z</time>
      </trkpt>
      <trkpt lat="43.35714" lon="6.70449">
        <ele>161.6</ele>
        <time>2022-10-09T13:03:13Z</time>
      </trkpt>
      <trkpt lat="43.35716" lon="6.70451">
        <ele>161.5</ele>
        <time>2022-10-09T13:03:14Z</time>
      </trkpt>
      <trkpt lat="43.35717" lon="6.70453">
        <ele>161.3</ele>
        <time>2022-10-09T13:03:15Z</time>
      </trkpt>
      <trkpt lat="43.35718" lon="6.70455">
        <ele>161.2</ele>
        <time>2022-10-09T13:03:16Z</time>
      </trkpt>
      <trkpt lat="43.3572" lon="6.70458">
        <ele>161</ele>
        <time>2022-10-09T13:03:17Z</time>
      </trkpt>
      <trkpt lat="43.35725" lon="6.70465">
        <ele>160.3</ele>
        <time>2022-10-09T13:03:20Z</time>
      </trkpt>
      <trkpt lat="43.35726" lon="6.70467">
        <ele>160.1</ele>
        <time>2022-10-09T13:03:21Z</time>
      </trkpt>
      <trkpt lat="43.35727" lon="6.70469">
        <ele>159.9</ele>
        <time>2022-10-09T13:03:22Z</time>
      </trkpt>
      <trkpt lat="43.3573" lon="6.7047">
        <ele>159.6</ele>
        <time>2022-10-09T13:03:23Z</time>
      </trkpt>
      <trkpt lat="43.35732" lon="6.70472">
        <ele>159.3</ele>
        <time>2022-10-09T13:03:24Z</time>
      </trkpt>
      <trkpt lat="43.35738" lon="6.70476">
        <ele>158.5</ele>
        <time>2022-10-09T13:03:26Z</time>
      </trkpt>
      <trkpt lat="43.35743" lon="6.70479">
        <ele>157.6</ele>
        <time>2022-10-09T13:03:28Z</time>
      </trkpt>
      <trkpt lat="43.35746" lon="6.7048">
        <ele>157.2</ele>
        <time>2022-10-09T13:03:29Z</time>
      </trkpt>
      <trkpt lat="43.35749" lon="6.7048">
        <ele>156.8</ele>
        <time>2022-10-09T13:03:30Z</time>
      </trkpt>
      <trkpt lat="43.35754" lon="6.7048">
        <ele>156</ele>
        <time>2022-10-09T13:03:32Z</time>
      </trkpt>
      <trkpt lat="43.35765" lon="6.70479">
        <ele>154.1</ele>
        <time>2022-10-09T13:03:35Z</time>
      </trkpt>
      <trkpt lat="43.35771" lon="6.70479">
        <ele>153.1</ele>
        <time>2022-10-09T13:03:37Z</time>
      </trkpt>
      <trkpt lat="43.35775" lon="6.7048">
        <ele>152.5</ele>
        <time>2022-10-09T13:03:38Z</time>
      </trkpt>
      <trkpt lat="43.35782" lon="6.70485">
        <ele>151.2</ele>
        <time>2022-10-09T13:03:40Z</time>
      </trkpt>
      <trkpt lat="43.35785" lon="6.70487">
        <ele>150.6</ele>
        <time>2022-10-09T13:03:41Z</time>
      </trkpt>
      <trkpt lat="43.35792" lon="6.70493">
        <ele>149.3</ele>
        <time>2022-10-09T13:03:43Z</time>
      </trkpt>
      <trkpt lat="43.35796" lon="6.70497">
        <ele>148.7</ele>
        <time>2022-10-09T13:03:44Z</time>
      </trkpt>
      <trkpt lat="43.35802" lon="6.70504">
        <ele>147.6</ele>
        <time>2022-10-09T13:03:46Z</time>
      </trkpt>
      <trkpt lat="43.35805" lon="6.70507">
        <ele>147.2</ele>
        <time>2022-10-09T13:03:47Z</time>
      </trkpt>
      <trkpt lat="43.35808" lon="6.7051">
        <ele>146.7</ele>
        <time>2022-10-09T13:03:48Z</time>
      </trkpt>
      <trkpt lat="43.3581" lon="6.70513">
        <ele>146.3</ele>
        <time>2022-10-09T13:03:49Z</time>
      </trkpt>
      <trkpt lat="43.35812" lon="6.70516">
        <ele>145.9</ele>
        <time>2022-10-09T13:03:50Z</time>
      </trkpt>
      <trkpt lat="43.35814" lon="6.70518">
        <ele>145.5</ele>
        <time>2022-10-09T13:03:51Z</time>
      </trkpt>
      <trkpt lat="43.35816" lon="6.70521">
        <ele>145.1</ele>
        <time>2022-10-09T13:03:52Z</time>
      </trkpt>
      <trkpt lat="43.35818" lon="6.70523">
        <ele>144.7</ele>
        <time>2022-10-09T13:03:53Z</time>
      </trkpt>
      <trkpt lat="43.35823" lon="6.70528">
        <ele>143.8</ele>
        <time>2022-10-09T13:03:55Z</time>
      </trkpt>
      <trkpt lat="43.35826" lon="6.7053">
        <ele>143.2</ele>
        <time>2022-10-09T13:03:56Z</time>
      </trkpt>
      <trkpt lat="43.35836" lon="6.70536">
        <ele>141.5</ele>
        <time>2022-10-09T13:03:59Z</time>
      </trkpt>
      <trkpt lat="43.35838" lon="6.7054">
        <ele>140.9</ele>
        <time>2022-10-09T13:04:00Z</time>
      </trkpt>
      <trkpt lat="43.3584" lon="6.70543">
        <ele>140.4</ele>
        <time>2022-10-09T13:04:01Z</time>
      </trkpt>
      <trkpt lat="43.35841" lon="6.70546">
        <ele>139.8</ele>
        <time>2022-10-09T13:04:02Z</time>
      </trkpt>
      <trkpt lat="43.35844" lon="6.70549">
        <ele>139.2</ele>
        <time>2022-10-09T13:04:03Z</time>
      </trkpt>
      <trkpt lat="43.35848" lon="6.70553">
        <ele>138.3</ele>
        <time>2022-10-09T13:04:05Z</time>
      </trkpt>
      <trkpt lat="43.3585" lon="6.70555">
        <ele>137.8</ele>
        <time>2022-10-09T13:04:06Z</time>
      </trkpt>
      <trkpt lat="43.35852" lon="6.70557">
        <ele>137.3</ele>
        <time>2022-10-09T13:04:07Z</time>
      </trkpt>
      <trkpt lat="43.35854" lon="6.7056">
        <ele>136.8</ele>
        <time>2022-10-09T13:04:08Z</time>
      </trkpt>
      <trkpt lat="43.35861" lon="6.70563">
        <ele>135.5</ele>
        <time>2022-10-09T13:04:10Z</time>
      </trkpt>
      <trkpt lat="43.35864" lon="6.70564">
        <ele>135.1</ele>
        <time>2022-10-09T13:04:11Z</time>
      </trkpt>
      <trkpt lat="43.35867" lon="6.70564">
        <ele>134.7</ele>
        <time>2022-10-09T13:04:12Z</time>
      </trkpt>
      <trkpt lat="43.3587" lon="6.70564">
        <ele>134.2</ele>
        <time>2022-10-09T13:04:13Z</time>
      </trkpt>
      <trkpt lat="43.35873" lon="6.70564">
        <ele>133.8</ele>
        <time>2022-10-09T13:04:14Z</time>
      </trkpt>
      <trkpt lat="43.35876" lon="6.70564">
        <ele>133.3</ele>
        <time>2022-10-09T13:04:15Z</time>
      </trkpt>
      <trkpt lat="43.35882" lon="6.70563">
        <ele>132.4</ele>
        <time>2022-10-09T13:04:17Z</time>
      </trkpt>
      <trkpt lat="43.35885" lon="6.70563">
        <ele>132</ele>
        <time>2022-10-09T13:04:18Z</time>
      </trkpt>
      <trkpt lat="43.35888" lon="6.70563">
        <ele>131.6</ele>
        <time>2022-10-09T13:04:19Z</time>
      </trkpt>
      <trkpt lat="43.35891" lon="6.70565">
        <ele>131.1</ele>
        <time>2022-10-09T13:04:20Z</time>
      </trkpt>
      <trkpt lat="43.35893" lon="6.70568">
        <ele>130.7</ele>
        <time>2022-10-09T13:04:21Z</time>
      </trkpt>
      <trkpt lat="43.35895" lon="6.70571">
        <ele>130.4</ele>
        <time>2022-10-09T13:04:22Z</time>
      </trkpt>
      <trkpt lat="43.35898" lon="6.70574">
        <ele>129.9</ele>
        <time>2022-10-09T13:04:23Z</time>
      </trkpt>
      <trkpt lat="43.359" lon="6.70578">
        <ele>129.5</ele>
        <time>2022-10-09T13:04:24Z</time>
      </trkpt>
      <trkpt lat="43.35906" lon="6.70585">
        <ele>128.5</ele>
        <time>2022-10-09T13:04:26Z</time>
      </trkpt>
      <trkpt lat="43.35909" lon="6.70587">
        <ele>128.1</ele>
        <time>2022-10-09T13:04:27Z</time>
      </trkpt>
      <trkpt lat="43.35911" lon="6.70589">
        <ele>127.7</ele>
        <time>2022-10-09T13:04:28Z</time>
      </trkpt>
      <trkpt lat="43.35914" lon="6.70591">
        <ele>127.4</ele>
        <time>2022-10-09T13:04:29Z</time>
      </trkpt>
      <trkpt lat="43.35916" lon="6.70592">
        <ele>127</ele>
        <time>2022-10-09T13:04:30Z</time>
      </trkpt>
      <trkpt lat="43.35919" lon="6.70593">
        <ele>126.6</ele>
        <time>2022-10-09T13:04:31Z</time>
      </trkpt>
      <trkpt lat="43.35922" lon="6.70593">
        <ele>126.3</ele>
        <time>2022-10-09T13:04:32Z</time>
      </trkpt>
      <trkpt lat="43.35929" lon="6.70589">
        <ele>125.3</ele>
        <time>2022-10-09T13:04:34Z</time>
      </trkpt>
      <trkpt lat="43.35932" lon="6.70586">
        <ele>124.9</ele>
        <time>2022-10-09T13:04:35Z</time>
      </trkpt>
      <trkpt lat="43.35935" lon="6.70583">
        <ele>124.4</ele>
        <time>2022-10-09T13:04:36Z</time>
      </trkpt>
      <trkpt lat="43.35938" lon="6.70581">
        <ele>124</ele>
        <time>2022-10-09T13:04:37Z</time>
      </trkpt>
      <trkpt lat="43.3594" lon="6.70579">
        <ele>123.6</ele>
        <time>2022-10-09T13:04:38Z</time>
      </trkpt>
      <trkpt lat="43.35943" lon="6.70577">
        <ele>123.3</ele>
        <time>2022-10-09T13:04:39Z</time>
      </trkpt>
      <trkpt lat="43.35945" lon="6.70576">
        <ele>123</ele>
        <time>2022-10-09T13:04:40Z</time>
      </trkpt>
      <trkpt lat="43.35947" lon="6.70575">
        <ele>122.7</ele>
        <time>2022-10-09T13:04:41Z</time>
      </trkpt>
      <trkpt lat="43.35949" lon="6.70575">
        <ele>122.5</ele>
        <time>2022-10-09T13:04:42Z</time>
      </trkpt>
      <trkpt lat="43.35951" lon="6.70575">
        <ele>122.1</ele>
        <time>2022-10-09T13:04:43Z</time>
      </trkpt>
      <trkpt lat="43.35953" lon="6.70576">
        <ele>121.8</ele>
        <time>2022-10-09T13:04:44Z</time>
      </trkpt>
      <trkpt lat="43.35955" lon="6.70577">
        <ele>121.5</ele>
        <time>2022-10-09T13:04:45Z</time>
      </trkpt>
      <trkpt lat="43.35957" lon="6.7058">
        <ele>121.1</ele>
        <time>2022-10-09T13:04:46Z</time>
      </trkpt>
      <trkpt lat="43.35959" lon="6.70582">
        <ele>120.8</ele>
        <time>2022-10-09T13:04:47Z</time>
      </trkpt>
      <trkpt lat="43.35961" lon="6.70584">
        <ele>120.4</ele>
        <time>2022-10-09T13:04:48Z</time>
      </trkpt>
      <trkpt lat="43.35963" lon="6.70586">
        <ele>120.1</ele>
        <time>2022-10-09T13:04:49Z</time>
      </trkpt>
      <trkpt lat="43.35965" lon="6.70589">
        <ele>119.7</ele>
        <time>2022-10-09T13:04:50Z</time>
      </trkpt>
      <trkpt lat="43.35966" lon="6.70593">
        <ele>119.3</ele>
        <time>2022-10-09T13:04:51Z</time>
      </trkpt>
      <trkpt lat="43.35967" lon="6.70606">
        <ele>118.2</ele>
        <time>2022-10-09T13:04:54Z</time>
      </trkpt>
      <trkpt lat="43.35968" lon="6.70609">
        <ele>118</ele>
        <time>2022-10-09T13:04:55Z</time>
      </trkpt>
      <trkpt lat="43.3597" lon="6.70611">
        <ele>117.7</ele>
        <time>2022-10-09T13:04:56Z</time>
      </trkpt>
      <trkpt lat="43.35973" lon="6.70613">
        <ele>116.8</ele>
        <time>2022-10-09T13:04:57Z</time>
      </trkpt>
      <trkpt lat="43.35976" lon="6.70615">
        <ele>116.4</ele>
        <time>2022-10-09T13:04:58Z</time>
      </trkpt>
      <trkpt lat="43.3598" lon="6.70616">
        <ele>115.9</ele>
        <time>2022-10-09T13:04:59Z</time>
      </trkpt>
      <trkpt lat="43.35991" lon="6.70621">
        <ele>114.4</ele>
        <time>2022-10-09T13:05:02Z</time>
      </trkpt>
      <trkpt lat="43.35995" lon="6.70622">
        <ele>113.9</ele>
        <time>2022-10-09T13:05:03Z</time>
      </trkpt>
      <trkpt lat="43.36004" lon="6.70627">
        <ele>113</ele>
        <time>2022-10-09T13:05:05Z</time>
      </trkpt>
      <trkpt lat="43.36009" lon="6.70629">
        <ele>112.4</ele>
        <time>2022-10-09T13:05:06Z</time>
      </trkpt>
      <trkpt lat="43.36014" lon="6.7063">
        <ele>111.9</ele>
        <time>2022-10-09T13:05:07Z</time>
      </trkpt>
      <trkpt lat="43.36019" lon="6.70631">
        <ele>111.4</ele>
        <time>2022-10-09T13:05:08Z</time>
      </trkpt>
      <trkpt lat="43.36025" lon="6.7063">
        <ele>110.8</ele>
        <time>2022-10-09T13:05:09Z</time>
      </trkpt>
      <trkpt lat="43.36029" lon="6.70628">
        <ele>110.3</ele>
        <time>2022-10-09T13:05:10Z</time>
      </trkpt>
      <trkpt lat="43.36034" lon="6.70627">
        <ele>109.7</ele>
        <time>2022-10-09T13:05:11Z</time>
      </trkpt>
      <trkpt lat="43.36039" lon="6.70626">
        <ele>109.1</ele>
        <time>2022-10-09T13:05:12Z</time>
      </trkpt>
      <trkpt lat="43.36044" lon="6.70627">
        <ele>108.5</ele>
        <time>2022-10-09T13:05:13Z</time>
      </trkpt>
      <trkpt lat="43.36048" lon="6.70629">
        <ele>108</ele>
        <time>2022-10-09T13:05:14Z</time>
      </trkpt>
      <trkpt lat="43.36053" lon="6.70632">
        <ele>107.5</ele>
        <time>2022-10-09T13:05:15Z</time>
      </trkpt>
      <trkpt lat="43.36058" lon="6.70635">
        <ele>106.9</ele>
        <time>2022-10-09T13:05:16Z</time>
      </trkpt>
      <trkpt lat="43.36063" lon="6.70637">
        <ele>106.4</ele>
        <time>2022-10-09T13:05:17Z</time>
      </trkpt>
      <trkpt lat="43.36072" lon="6.70642">
        <ele>105.4</ele>
        <time>2022-10-09T13:05:19Z</time>
      </trkpt>
      <trkpt lat="43.36077" lon="6.70645">
        <ele>104.9</ele>
        <time>2022-10-09T13:05:20Z</time>
      </trkpt>
      <trkpt lat="43.36086" lon="6.70649">
        <ele>103.9</ele>
        <time>2022-10-09T13:05:22Z</time>
      </trkpt>
      <trkpt lat="43.36089" lon="6.70651">
        <ele>103.4</ele>
        <time>2022-10-09T13:05:23Z</time>
      </trkpt>
      <trkpt lat="43.36093" lon="6.70652">
        <ele>102.9</ele>
        <time>2022-10-09T13:05:24Z</time>
      </trkpt>
      <trkpt lat="43.36096" lon="6.70654">
        <ele>102.4</ele>
        <time>2022-10-09T13:05:25Z</time>
      </trkpt>
      <trkpt lat="43.361" lon="6.70655">
        <ele>101.9</ele>
        <time>2022-10-09T13:05:26Z</time>
      </trkpt>
      <trkpt lat="43.36103" lon="6.70656">
        <ele>101.4</ele>
        <time>2022-10-09T13:05:27Z</time>
      </trkpt>
      <trkpt lat="43.36106" lon="6.70658">
        <ele>100.8</ele>
        <time>2022-10-09T13:05:28Z</time>
      </trkpt>
      <trkpt lat="43.3611" lon="6.70659">
        <ele>100.2</ele>
        <time>2022-10-09T13:05:29Z</time>
      </trkpt>
      <trkpt lat="43.36116" lon="6.70662">
        <ele>99.2</ele>
        <time>2022-10-09T13:05:31Z</time>
      </trkpt>
      <trkpt lat="43.36119" lon="6.70663">
        <ele>98.8</ele>
        <time>2022-10-09T13:05:32Z</time>
      </trkpt>
      <trkpt lat="43.36121" lon="6.70665">
        <ele>98.3</ele>
        <time>2022-10-09T13:05:33Z</time>
      </trkpt>
      <trkpt lat="43.36124" lon="6.70667">
        <ele>97.9</ele>
        <time>2022-10-09T13:05:34Z</time>
      </trkpt>
      <trkpt lat="43.36128" lon="6.70672">
        <ele>96.9</ele>
        <time>2022-10-09T13:05:36Z</time>
      </trkpt>
      <trkpt lat="43.36131" lon="6.70674">
        <ele>96.5</ele>
        <time>2022-10-09T13:05:37Z</time>
      </trkpt>
      <trkpt lat="43.36133" lon="6.70675">
        <ele>96.1</ele>
        <time>2022-10-09T13:05:38Z</time>
      </trkpt>
      <trkpt lat="43.36134" lon="6.70676">
        <ele>95.7</ele>
        <time>2022-10-09T13:05:39Z</time>
      </trkpt>
      <trkpt lat="43.36135" lon="6.70677">
        <ele>95.6</ele>
        <time>2022-10-09T13:05:40Z</time>
      </trkpt>
      <trkpt lat="43.36135" lon="6.70677">
        <ele>95.6</ele>
        <time>2022-10-09T13:05:41Z</time>
      </trkpt>
      <trkpt lat="43.36135" lon="6.70677">
        <ele>95.5</ele>
        <time>2022-10-09T13:05:42Z</time>
      </trkpt>
      <trkpt lat="43.36141" lon="6.70681">
        <ele>94.4</ele>
        <time>2022-10-09T13:05:51Z</time>
      </trkpt>
      <trkpt lat="43.36147" lon="6.70684">
        <ele>93.3</ele>
        <time>2022-10-09T13:05:53Z</time>
      </trkpt>
      <trkpt lat="43.36152" lon="6.70689">
        <ele>92.2</ele>
        <time>2022-10-09T13:05:55Z</time>
      </trkpt>
      <trkpt lat="43.36158" lon="6.70696">
        <ele>90.9</ele>
        <time>2022-10-09T13:05:57Z</time>
      </trkpt>
      <trkpt lat="43.3616" lon="6.70701">
        <ele>90.2</ele>
        <time>2022-10-09T13:05:58Z</time>
      </trkpt>
      <trkpt lat="43.36165" lon="6.70709">
        <ele>88.8</ele>
        <time>2022-10-09T13:06:00Z</time>
      </trkpt>
      <trkpt lat="43.36167" lon="6.70714">
        <ele>88.1</ele>
        <time>2022-10-09T13:06:01Z</time>
      </trkpt>
      <trkpt lat="43.36169" lon="6.70719">
        <ele>87.4</ele>
        <time>2022-10-09T13:06:02Z</time>
      </trkpt>
      <trkpt lat="43.36175" lon="6.70729">
        <ele>85.9</ele>
        <time>2022-10-09T13:06:04Z</time>
      </trkpt>
      <trkpt lat="43.36177" lon="6.70735">
        <ele>85.2</ele>
        <time>2022-10-09T13:06:05Z</time>
      </trkpt>
      <trkpt lat="43.36178" lon="6.70741">
        <ele>84.6</ele>
        <time>2022-10-09T13:06:06Z</time>
      </trkpt>
      <trkpt lat="43.36181" lon="6.70746">
        <ele>84</ele>
        <time>2022-10-09T13:06:07Z</time>
      </trkpt>
      <trkpt lat="43.36183" lon="6.70751">
        <ele>83.4</ele>
        <time>2022-10-09T13:06:08Z</time>
      </trkpt>
      <trkpt lat="43.36186" lon="6.70755">
        <ele>82.8</ele>
        <time>2022-10-09T13:06:09Z</time>
      </trkpt>
      <trkpt lat="43.36189" lon="6.7076">
        <ele>82.2</ele>
        <time>2022-10-09T13:06:10Z</time>
      </trkpt>
      <trkpt lat="43.36195" lon="6.70771">
        <ele>81.1</ele>
        <time>2022-10-09T13:06:12Z</time>
      </trkpt>
      <trkpt lat="43.36201" lon="6.7078">
        <ele>80</ele>
        <time>2022-10-09T13:06:14Z</time>
      </trkpt>
      <trkpt lat="43.36204" lon="6.70783">
        <ele>79.5</ele>
        <time>2022-10-09T13:06:15Z</time>
      </trkpt>
      <trkpt lat="43.36207" lon="6.70787">
        <ele>79</ele>
        <time>2022-10-09T13:06:16Z</time>
      </trkpt>
      <trkpt lat="43.36215" lon="6.70803">
        <ele>77</ele>
        <time>2022-10-09T13:06:19Z</time>
      </trkpt>
      <trkpt lat="43.36219" lon="6.70809">
        <ele>76.3</ele>
        <time>2022-10-09T13:06:20Z</time>
      </trkpt>
      <trkpt lat="43.36223" lon="6.70814">
        <ele>75.5</ele>
        <time>2022-10-09T13:06:21Z</time>
      </trkpt>
      <trkpt lat="43.36243" lon="6.70834">
        <ele>72.5</ele>
        <time>2022-10-09T13:06:25Z</time>
      </trkpt>
      <trkpt lat="43.36248" lon="6.7084">
        <ele>71.8</ele>
        <time>2022-10-09T13:06:26Z</time>
      </trkpt>
      <trkpt lat="43.36258" lon="6.70854">
        <ele>70.7</ele>
        <time>2022-10-09T13:06:28Z</time>
      </trkpt>
      <trkpt lat="43.36262" lon="6.70862">
        <ele>70.1</ele>
        <time>2022-10-09T13:06:29Z</time>
      </trkpt>
      <trkpt lat="43.36269" lon="6.70878">
        <ele>69.1</ele>
        <time>2022-10-09T13:06:31Z</time>
      </trkpt>
      <trkpt lat="43.36271" lon="6.70886">
        <ele>68.6</ele>
        <time>2022-10-09T13:06:32Z</time>
      </trkpt>
      <trkpt lat="43.36273" lon="6.70895">
        <ele>68</ele>
        <time>2022-10-09T13:06:33Z</time>
      </trkpt>
      <trkpt lat="43.36275" lon="6.70913">
        <ele>67</ele>
        <time>2022-10-09T13:06:35Z</time>
      </trkpt>
      <trkpt lat="43.36275" lon="6.70922">
        <ele>66.5</ele>
        <time>2022-10-09T13:06:36Z</time>
      </trkpt>
      <trkpt lat="43.36276" lon="6.70932">
        <ele>66</ele>
        <time>2022-10-09T13:06:37Z</time>
      </trkpt>
      <trkpt lat="43.36277" lon="6.70952">
        <ele>65.1</ele>
        <time>2022-10-09T13:06:39Z</time>
      </trkpt>
      <trkpt lat="43.36278" lon="6.70962">
        <ele>64.7</ele>
        <time>2022-10-09T13:06:40Z</time>
      </trkpt>
      <trkpt lat="43.3628" lon="6.70972">
        <ele>64.4</ele>
        <time>2022-10-09T13:06:41Z</time>
      </trkpt>
      <trkpt lat="43.36283" lon="6.7098">
        <ele>64.1</ele>
        <time>2022-10-09T13:06:42Z</time>
      </trkpt>
      <trkpt lat="43.36286" lon="6.70987">
        <ele>63.7</ele>
        <time>2022-10-09T13:06:43Z</time>
      </trkpt>
      <trkpt lat="43.36289" lon="6.70991">
        <ele>63.4</ele>
        <time>2022-10-09T13:06:44Z</time>
      </trkpt>
      <trkpt lat="43.36292" lon="6.70994">
        <ele>63.1</ele>
        <time>2022-10-09T13:06:45Z</time>
      </trkpt>
      <trkpt lat="43.36295" lon="6.70997">
        <ele>62.9</ele>
        <time>2022-10-09T13:06:46Z</time>
      </trkpt>
      <trkpt lat="43.36296" lon="6.70997">
        <ele>62.8</ele>
        <time>2022-10-09T13:06:47Z</time>
      </trkpt>
      <trkpt lat="43.36296" lon="6.70998">
        <ele>62.7</ele>
        <time>2022-10-09T13:06:48Z</time>
      </trkpt>
      <trkpt lat="43.36296" lon="6.70997">
        <ele>62.7</ele>
        <time>2022-10-09T13:06:49Z</time>
      </trkpt>
      <trkpt lat="43.36299" lon="6.70995">
        <ele>62.4</ele>
        <time>2022-10-09T13:07:13Z</time>
      </trkpt>
      <trkpt lat="43.36304" lon="6.70992">
        <ele>62</ele>
        <time>2022-10-09T13:07:15Z</time>
      </trkpt>
      <trkpt lat="43.36314" lon="6.70977">
        <ele>60.8</ele>
        <time>2022-10-09T13:07:19Z</time>
      </trkpt>
      <trkpt lat="43.36316" lon="6.70972">
        <ele>60.5</ele>
        <time>2022-10-09T13:07:20Z</time>
      </trkpt>
      <trkpt lat="43.36318" lon="6.70966">
        <ele>60.2</ele>
        <time>2022-10-09T13:07:21Z</time>
      </trkpt>
      <trkpt lat="43.36319" lon="6.7096">
        <ele>59.9</ele>
        <time>2022-10-09T13:07:22Z</time>
      </trkpt>
      <trkpt lat="43.36321" lon="6.70954">
        <ele>59.7</ele>
        <time>2022-10-09T13:07:23Z</time>
      </trkpt>
      <trkpt lat="43.36326" lon="6.70937">
        <ele>59.3</ele>
        <time>2022-10-09T13:07:26Z</time>
      </trkpt>
      <trkpt lat="43.36328" lon="6.70931">
        <ele>59.2</ele>
        <time>2022-10-09T13:07:27Z</time>
      </trkpt>
      <trkpt lat="43.36329" lon="6.70926">
        <ele>59.1</ele>
        <time>2022-10-09T13:07:28Z</time>
      </trkpt>
      <trkpt lat="43.36332" lon="6.70914">
        <ele>58.9</ele>
        <time>2022-10-09T13:07:30Z</time>
      </trkpt>
      <trkpt lat="43.36334" lon="6.70903">
        <ele>58.7</ele>
        <time>2022-10-09T13:07:32Z</time>
      </trkpt>
      <trkpt lat="43.36336" lon="6.70898">
        <ele>58.6</ele>
        <time>2022-10-09T13:07:33Z</time>
      </trkpt>
      <trkpt lat="43.36337" lon="6.70893">
        <ele>58.6</ele>
        <time>2022-10-09T13:07:34Z</time>
      </trkpt>
      <trkpt lat="43.36337" lon="6.70887">
        <ele>58.5</ele>
        <time>2022-10-09T13:07:35Z</time>
      </trkpt>
      <trkpt lat="43.36338" lon="6.70869">
        <ele>57.8</ele>
        <time>2022-10-09T13:07:38Z</time>
      </trkpt>
      <trkpt lat="43.36337" lon="6.70862">
        <ele>57.5</ele>
        <time>2022-10-09T13:07:39Z</time>
      </trkpt>
      <trkpt lat="43.36336" lon="6.70849">
        <ele>57</ele>
        <time>2022-10-09T13:07:41Z</time>
      </trkpt>
      <trkpt lat="43.36334" lon="6.70843">
        <ele>56.7</ele>
        <time>2022-10-09T13:07:42Z</time>
      </trkpt>
      <trkpt lat="43.36331" lon="6.70839">
        <ele>56.4</ele>
        <time>2022-10-09T13:07:43Z</time>
      </trkpt>
      <trkpt lat="43.36328" lon="6.70835">
        <ele>56.2</ele>
        <time>2022-10-09T13:07:44Z</time>
      </trkpt>
      <trkpt lat="43.36327" lon="6.7083">
        <ele>55.9</ele>
        <time>2022-10-09T13:07:45Z</time>
      </trkpt>
      <trkpt lat="43.36326" lon="6.70824">
        <ele>55.5</ele>
        <time>2022-10-09T13:07:46Z</time>
      </trkpt>
      <trkpt lat="43.36328" lon="6.70818">
        <ele>55.1</ele>
        <time>2022-10-09T13:07:47Z</time>
      </trkpt>
      <trkpt lat="43.36336" lon="6.7081">
        <ele>53.9</ele>
        <time>2022-10-09T13:07:49Z</time>
      </trkpt>
      <trkpt lat="43.3634" lon="6.7081">
        <ele>53.3</ele>
        <time>2022-10-09T13:07:50Z</time>
      </trkpt>
      <trkpt lat="43.36343" lon="6.70812">
        <ele>52.8</ele>
        <time>2022-10-09T13:07:51Z</time>
      </trkpt>
      <trkpt lat="43.36346" lon="6.70815">
        <ele>52.3</ele>
        <time>2022-10-09T13:07:52Z</time>
      </trkpt>
      <trkpt lat="43.36349" lon="6.70819">
        <ele>51.7</ele>
        <time>2022-10-09T13:07:53Z</time>
      </trkpt>
      <trkpt lat="43.36357" lon="6.70828">
        <ele>50.5</ele>
        <time>2022-10-09T13:07:55Z</time>
      </trkpt>
      <trkpt lat="43.36366" lon="6.70835">
        <ele>49.2</ele>
        <time>2022-10-09T13:07:57Z</time>
      </trkpt>
      <trkpt lat="43.3637" lon="6.70838">
        <ele>48.7</ele>
        <time>2022-10-09T13:07:58Z</time>
      </trkpt>
      <trkpt lat="43.36374" lon="6.70842">
        <ele>48.1</ele>
        <time>2022-10-09T13:07:59Z</time>
      </trkpt>
      <trkpt lat="43.36391" lon="6.7086">
        <ele>46</ele>
        <time>2022-10-09T13:08:03Z</time>
      </trkpt>
      <trkpt lat="43.36396" lon="6.70863">
        <ele>45.4</ele>
        <time>2022-10-09T13:08:04Z</time>
      </trkpt>
      <trkpt lat="43.36402" lon="6.70865">
        <ele>44.8</ele>
        <time>2022-10-09T13:08:05Z</time>
      </trkpt>
      <trkpt lat="43.36407" lon="6.70866">
        <ele>44.4</ele>
        <time>2022-10-09T13:08:06Z</time>
      </trkpt>
      <trkpt lat="43.36412" lon="6.70867">
        <ele>44.1</ele>
        <time>2022-10-09T13:08:07Z</time>
      </trkpt>
      <trkpt lat="43.36416" lon="6.70869">
        <ele>43.8</ele>
        <time>2022-10-09T13:08:08Z</time>
      </trkpt>
      <trkpt lat="43.36417" lon="6.70871">
        <ele>43.7</ele>
        <time>2022-10-09T13:08:09Z</time>
      </trkpt>
      <trkpt lat="43.36418" lon="6.70872">
        <ele>43.6</ele>
        <time>2022-10-09T13:08:10Z</time>
      </trkpt>
      <trkpt lat="43.36419" lon="6.70873">
        <ele>43.5</ele>
        <time>2022-10-09T13:08:11Z</time>
      </trkpt>
      <trkpt lat="43.36418" lon="6.70873">
        <ele>43.5</ele>
        <time>2022-10-09T13:08:12Z</time>
      </trkpt>
      <trkpt lat="43.36421" lon="6.70872">
        <ele>43.3</ele>
        <time>2022-10-09T13:10:37Z</time>
      </trkpt>
      <trkpt lat="43.36423" lon="6.70872">
        <ele>43.2</ele>
        <time>2022-10-09T13:10:38Z</time>
      </trkpt>
      <trkpt lat="43.36428" lon="6.70871">
        <ele>42.8</ele>
        <time>2022-10-09T13:10:40Z</time>
      </trkpt>
      <trkpt lat="43.36432" lon="6.7087">
        <ele>36.5</ele>
        <time>2022-10-09T13:10:42Z</time>
      </trkpt>
      <trkpt lat="43.36439" lon="6.70868">
        <ele>35.7</ele>
        <time>2022-10-09T13:10:44Z</time>
      </trkpt>
      <trkpt lat="43.36441" lon="6.70865">
        <ele>35.3</ele>
        <time>2022-10-09T13:10:45Z</time>
      </trkpt>
      <trkpt lat="43.36443" lon="6.7086">
        <ele>35</ele>
        <time>2022-10-09T13:10:46Z</time>
      </trkpt>
      <trkpt lat="43.36442" lon="6.70855">
        <ele>34.5</ele>
        <time>2022-10-09T13:10:47Z</time>
      </trkpt>
      <trkpt lat="43.36442" lon="6.70848">
        <ele>34</ele>
        <time>2022-10-09T13:10:48Z</time>
      </trkpt>
      <trkpt lat="43.36442" lon="6.70826">
        <ele>32.5</ele>
        <time>2022-10-09T13:10:51Z</time>
      </trkpt>
      <trkpt lat="43.36442" lon="6.70817">
        <ele>32.1</ele>
        <time>2022-10-09T13:10:52Z</time>
      </trkpt>
      <trkpt lat="43.36443" lon="6.70797">
        <ele>31.1</ele>
        <time>2022-10-09T13:10:54Z</time>
      </trkpt>
      <trkpt lat="43.36443" lon="6.70787">
        <ele>30.8</ele>
        <time>2022-10-09T13:10:55Z</time>
      </trkpt>
      <trkpt lat="43.36443" lon="6.70779">
        <ele>30.4</ele>
        <time>2022-10-09T13:10:56Z</time>
      </trkpt>
      <trkpt lat="43.36444" lon="6.70771">
        <ele>30.1</ele>
        <time>2022-10-09T13:10:57Z</time>
      </trkpt>
      <trkpt lat="43.36445" lon="6.70763">
        <ele>29.7</ele>
        <time>2022-10-09T13:10:58Z</time>
      </trkpt>
      <trkpt lat="43.36446" lon="6.70756">
        <ele>29.4</ele>
        <time>2022-10-09T13:10:59Z</time>
      </trkpt>
      <trkpt lat="43.36448" lon="6.7075">
        <ele>29</ele>
        <time>2022-10-09T13:11:00Z</time>
      </trkpt>
      <trkpt lat="43.3645" lon="6.70745">
        <ele>28.6</ele>
        <time>2022-10-09T13:11:01Z</time>
      </trkpt>
      <trkpt lat="43.36453" lon="6.7074">
        <ele>28.2</ele>
        <time>2022-10-09T13:11:02Z</time>
      </trkpt>
      <trkpt lat="43.36456" lon="6.70736">
        <ele>27.8</ele>
        <time>2022-10-09T13:11:03Z</time>
      </trkpt>
      <trkpt lat="43.36459" lon="6.70733">
        <ele>27.6</ele>
        <time>2022-10-09T13:11:04Z</time>
      </trkpt>
      <trkpt lat="43.3646" lon="6.70732">
        <ele>27.5</ele>
        <time>2022-10-09T13:11:05Z</time>
      </trkpt>
      <trkpt lat="43.3646" lon="6.70732">
        <ele>27.5</ele>
        <time>2022-10-09T13:11:06Z</time>
      </trkpt>
      <trkpt lat="43.3646" lon="6.70732">
        <ele>27.5</ele>
        <time>2022-10-09T13:11:07Z</time>
      </trkpt>
      <trkpt lat="43.3647" lon="6.70731">
        <ele>26.6</ele>
        <time>2022-10-09T13:11:33Z</time>
      </trkpt>
      <trkpt lat="43.36473" lon="6.7073">
        <ele>26.4</ele>
        <time>2022-10-09T13:11:34Z</time>
      </trkpt>
      <trkpt lat="43.36486" lon="6.70737">
        <ele>25.4</ele>
        <time>2022-10-09T13:11:38Z</time>
      </trkpt>
      <trkpt lat="43.36488" lon="6.70741">
        <ele>25.2</ele>
        <time>2022-10-09T13:11:39Z</time>
      </trkpt>
      <trkpt lat="43.36491" lon="6.70745">
        <ele>25</ele>
        <time>2022-10-09T13:11:40Z</time>
      </trkpt>
      <trkpt lat="43.36493" lon="6.70749">
        <ele>24.8</ele>
        <time>2022-10-09T13:11:41Z</time>
      </trkpt>
      <trkpt lat="43.36494" lon="6.70753">
        <ele>24.6</ele>
        <time>2022-10-09T13:11:42Z</time>
      </trkpt>
      <trkpt lat="43.36496" lon="6.70757">
        <ele>24.4</ele>
        <time>2022-10-09T13:11:43Z</time>
      </trkpt>
      <trkpt lat="43.36498" lon="6.70762">
        <ele>24.2</ele>
        <time>2022-10-09T13:11:44Z</time>
      </trkpt>
      <trkpt lat="43.365" lon="6.70778">
        <ele>23.6</ele>
        <time>2022-10-09T13:11:47Z</time>
      </trkpt>
      <trkpt lat="43.36501" lon="6.70781">
        <ele>23.5</ele>
        <time>2022-10-09T13:11:48Z</time>
      </trkpt>
      <trkpt lat="43.36502" lon="6.70784">
        <ele>23.3</ele>
        <time>2022-10-09T13:11:49Z</time>
      </trkpt>
      <trkpt lat="43.36502" lon="6.70787">
        <ele>23.1</ele>
        <time>2022-10-09T13:11:50Z</time>
      </trkpt>
      <trkpt lat="43.36502" lon="6.7079">
        <ele>22.9</ele>
        <time>2022-10-09T13:11:51Z</time>
      </trkpt>
      <trkpt lat="43.36502" lon="6.70794">
        <ele>22.6</ele>
        <time>2022-10-09T13:11:52Z</time>
      </trkpt>
      <trkpt lat="43.36504" lon="6.70797">
        <ele>22.3</ele>
        <time>2022-10-09T13:11:53Z</time>
      </trkpt>
      <trkpt lat="43.36506" lon="6.708">
        <ele>21.8</ele>
        <time>2022-10-09T13:11:54Z</time>
      </trkpt>
      <trkpt lat="43.36509" lon="6.70802">
        <ele>21.4</ele>
        <time>2022-10-09T13:11:55Z</time>
      </trkpt>
      <trkpt lat="43.36512" lon="6.70802">
        <ele>20.8</ele>
        <time>2022-10-09T13:11:56Z</time>
      </trkpt>
      <trkpt lat="43.36515" lon="6.708">
        <ele>20.4</ele>
        <time>2022-10-09T13:11:57Z</time>
      </trkpt>
      <trkpt lat="43.36517" lon="6.70797">
        <ele>19.8</ele>
        <time>2022-10-09T13:11:58Z</time>
      </trkpt>
      <trkpt lat="43.36519" lon="6.70793">
        <ele>19.1</ele>
        <time>2022-10-09T13:11:59Z</time>
      </trkpt>
      <trkpt lat="43.36523" lon="6.70788">
        <ele>18.4</ele>
        <time>2022-10-09T13:12:00Z</time>
      </trkpt>
      <trkpt lat="43.36527" lon="6.70782">
        <ele>17.6</ele>
        <time>2022-10-09T13:12:01Z</time>
      </trkpt>
      <trkpt lat="43.36531" lon="6.70777">
        <ele>16.9</ele>
        <time>2022-10-09T13:12:02Z</time>
      </trkpt>
      <trkpt lat="43.36536" lon="6.70774">
        <ele>16.3</ele>
        <time>2022-10-09T13:12:03Z</time>
      </trkpt>
      <trkpt lat="43.36541" lon="6.70774">
        <ele>15.8</ele>
        <time>2022-10-09T13:12:04Z</time>
      </trkpt>
      <trkpt lat="43.36546" lon="6.70775">
        <ele>15.3</ele>
        <time>2022-10-09T13:12:05Z</time>
      </trkpt>
      <trkpt lat="43.36551" lon="6.70775">
        <ele>14.6</ele>
        <time>2022-10-09T13:12:06Z</time>
      </trkpt>
      <trkpt lat="43.36555" lon="6.70773">
        <ele>14</ele>
        <time>2022-10-09T13:12:07Z</time>
      </trkpt>
      <trkpt lat="43.36558" lon="6.70768">
        <ele>13.5</ele>
        <time>2022-10-09T13:12:08Z</time>
      </trkpt>
      <trkpt lat="43.3656" lon="6.70763">
        <ele>13</ele>
        <time>2022-10-09T13:12:09Z</time>
      </trkpt>
      <trkpt lat="43.36561" lon="6.70758">
        <ele>12.5</ele>
        <time>2022-10-09T13:12:10Z</time>
      </trkpt>
      <trkpt lat="43.36562" lon="6.70753">
        <ele>12.1</ele>
        <time>2022-10-09T13:12:11Z</time>
      </trkpt>
      <trkpt lat="43.36563" lon="6.70748">
        <ele>11.7</ele>
        <time>2022-10-09T13:12:12Z</time>
      </trkpt>
      <trkpt lat="43.36565" lon="6.70743">
        <ele>11.4</ele>
        <time>2022-10-09T13:12:13Z</time>
      </trkpt>
      <trkpt lat="43.36567" lon="6.7074">
        <ele>11.3</ele>
        <time>2022-10-09T13:12:14Z</time>
      </trkpt>
      <trkpt lat="43.36569" lon="6.70736">
        <ele>11.3</ele>
        <time>2022-10-09T13:12:15Z</time>
      </trkpt>
      <trkpt lat="43.36572" lon="6.70734">
        <ele>11.3</ele>
        <time>2022-10-09T13:12:16Z</time>
      </trkpt>
      <trkpt lat="43.36575" lon="6.70733">
        <ele>11.3</ele>
        <time>2022-10-09T13:12:17Z</time>
      </trkpt>
      <trkpt lat="43.36578" lon="6.70732">
        <ele>11.3</ele>
        <time>2022-10-09T13:12:18Z</time>
      </trkpt>
      <trkpt lat="43.36581" lon="6.70732">
        <ele>11.4</ele>
        <time>2022-10-09T13:12:19Z</time>
      </trkpt>
      <trkpt lat="43.36584" lon="6.70732">
        <ele>11.4</ele>
        <time>2022-10-09T13:12:20Z</time>
      </trkpt>
      <trkpt lat="43.36586" lon="6.70733">
        <ele>11.4</ele>
        <time>2022-10-09T13:12:21Z</time>
      </trkpt>
      <trkpt lat="43.36589" lon="6.70735">
        <ele>11.5</ele>
        <time>2022-10-09T13:12:22Z</time>
      </trkpt>
      <trkpt lat="43.36591" lon="6.70737">
        <ele>11.5</ele>
        <time>2022-10-09T13:12:23Z</time>
      </trkpt>
      <trkpt lat="43.36594" lon="6.70739">
        <ele>11.6</ele>
        <time>2022-10-09T13:12:24Z</time>
      </trkpt>
      <trkpt lat="43.366" lon="6.70748">
        <ele>11.8</ele>
        <time>2022-10-09T13:12:27Z</time>
      </trkpt>
      <trkpt lat="43.36604" lon="6.70754">
        <ele>12</ele>
        <time>2022-10-09T13:12:29Z</time>
      </trkpt>
      <trkpt lat="43.36605" lon="6.70757">
        <ele>12.1</ele>
        <time>2022-10-09T13:12:30Z</time>
      </trkpt>
      <trkpt lat="43.36607" lon="6.7076">
        <ele>12.2</ele>
        <time>2022-10-09T13:12:31Z</time>
      </trkpt>
      <trkpt lat="43.36621" lon="6.7078">
        <ele>12.8</ele>
        <time>2022-10-09T13:12:38Z</time>
      </trkpt>
      <trkpt lat="43.36626" lon="6.70786">
        <ele>13</ele>
        <time>2022-10-09T13:12:40Z</time>
      </trkpt>
      <trkpt lat="43.36633" lon="6.70792">
        <ele>13.3</ele>
        <time>2022-10-09T13:12:43Z</time>
      </trkpt>
      <trkpt lat="43.36636" lon="6.70794">
        <ele>13.4</ele>
        <time>2022-10-09T13:12:44Z</time>
      </trkpt>
      <trkpt lat="43.36639" lon="6.70796">
        <ele>13.5</ele>
        <time>2022-10-09T13:12:45Z</time>
      </trkpt>
      <trkpt lat="43.36647" lon="6.70799">
        <ele>13.8</ele>
        <time>2022-10-09T13:12:48Z</time>
      </trkpt>
      <trkpt lat="43.36652" lon="6.70801">
        <ele>14.1</ele>
        <time>2022-10-09T13:12:50Z</time>
      </trkpt>
      <trkpt lat="43.36655" lon="6.70801">
        <ele>14.2</ele>
        <time>2022-10-09T13:12:51Z</time>
      </trkpt>
      <trkpt lat="43.36658" lon="6.70802">
        <ele>14.3</ele>
        <time>2022-10-09T13:12:52Z</time>
      </trkpt>
      <trkpt lat="43.36666" lon="6.70803">
        <ele>14.8</ele>
        <time>2022-10-09T13:12:55Z</time>
      </trkpt>
      <trkpt lat="43.36669" lon="6.70802">
        <ele>14.9</ele>
        <time>2022-10-09T13:12:56Z</time>
      </trkpt>
      <trkpt lat="43.36671" lon="6.70802">
        <ele>15.1</ele>
        <time>2022-10-09T13:12:57Z</time>
      </trkpt>
      <trkpt lat="43.36673" lon="6.70802">
        <ele>15.2</ele>
        <time>2022-10-09T13:12:58Z</time>
      </trkpt>
      <trkpt lat="43.36675" lon="6.70801">
        <ele>15.4</ele>
        <time>2022-10-09T13:12:59Z</time>
      </trkpt>
      <trkpt lat="43.36677" lon="6.70801">
        <ele>15.6</ele>
        <time>2022-10-09T13:13:00Z</time>
      </trkpt>
      <trkpt lat="43.36681" lon="6.70798">
        <ele>15.9</ele>
        <time>2022-10-09T13:13:02Z</time>
      </trkpt>
      <trkpt lat="43.36685" lon="6.70794">
        <ele>16.2</ele>
        <time>2022-10-09T13:13:04Z</time>
      </trkpt>
      <trkpt lat="43.36689" lon="6.70791">
        <ele>16.5</ele>
        <time>2022-10-09T13:13:06Z</time>
      </trkpt>
      <trkpt lat="43.36691" lon="6.70789">
        <ele>16.7</ele>
        <time>2022-10-09T13:13:07Z</time>
      </trkpt>
      <trkpt lat="43.36693" lon="6.70787">
        <ele>16.8</ele>
        <time>2022-10-09T13:13:08Z</time>
      </trkpt>
      <trkpt lat="43.36695" lon="6.70786">
        <ele>16.9</ele>
        <time>2022-10-09T13:13:09Z</time>
      </trkpt>
      <trkpt lat="43.36698" lon="6.70784">
        <ele>17.1</ele>
        <time>2022-10-09T13:13:10Z</time>
      </trkpt>
      <trkpt lat="43.367" lon="6.70782">
        <ele>17.2</ele>
        <time>2022-10-09T13:13:11Z</time>
      </trkpt>
      <trkpt lat="43.36704" lon="6.70778">
        <ele>17.5</ele>
        <time>2022-10-09T13:13:13Z</time>
      </trkpt>
      <trkpt lat="43.36712" lon="6.70766">
        <ele>17.9</ele>
        <time>2022-10-09T13:13:17Z</time>
      </trkpt>
      <trkpt lat="43.36717" lon="6.70758">
        <ele>18.2</ele>
        <time>2022-10-09T13:13:20Z</time>
      </trkpt>
      <trkpt lat="43.36721" lon="6.70748">
        <ele>18.4</ele>
        <time>2022-10-09T13:13:23Z</time>
      </trkpt>
      <trkpt lat="43.36722" lon="6.70745">
        <ele>18.5</ele>
        <time>2022-10-09T13:13:24Z</time>
      </trkpt>
      <trkpt lat="43.36723" lon="6.70738">
        <ele>18.7</ele>
        <time>2022-10-09T13:13:26Z</time>
      </trkpt>
      <trkpt lat="43.36724" lon="6.70731">
        <ele>18.9</ele>
        <time>2022-10-09T13:13:28Z</time>
      </trkpt>
      <trkpt lat="43.36726" lon="6.70721">
        <ele>19.2</ele>
        <time>2022-10-09T13:13:31Z</time>
      </trkpt>
      <trkpt lat="43.36726" lon="6.70717">
        <ele>19.3</ele>
        <time>2022-10-09T13:13:32Z</time>
      </trkpt>
      <trkpt lat="43.36726" lon="6.70714">
        <ele>19.2</ele>
        <time>2022-10-09T13:13:33Z</time>
      </trkpt>
      <trkpt lat="43.36728" lon="6.70694">
        <ele>17.8</ele>
        <time>2022-10-09T13:13:38Z</time>
      </trkpt>
      <trkpt lat="43.36729" lon="6.70677">
        <ele>17</ele>
        <time>2022-10-09T13:13:41Z</time>
      </trkpt>
      <trkpt lat="43.3673" lon="6.70658">
        <ele>16</ele>
        <time>2022-10-09T13:13:44Z</time>
      </trkpt>
      <trkpt lat="43.3673" lon="6.7065">
        <ele>15.6</ele>
        <time>2022-10-09T13:13:45Z</time>
      </trkpt>
      <trkpt lat="43.36732" lon="6.70643">
        <ele>15.2</ele>
        <time>2022-10-09T13:13:46Z</time>
      </trkpt>
      <trkpt lat="43.36735" lon="6.70636">
        <ele>14.8</ele>
        <time>2022-10-09T13:13:47Z</time>
      </trkpt>
      <trkpt lat="43.36739" lon="6.70631">
        <ele>14.3</ele>
        <time>2022-10-09T13:13:48Z</time>
      </trkpt>
      <trkpt lat="43.36745" lon="6.70627">
        <ele>13.8</ele>
        <time>2022-10-09T13:13:49Z</time>
      </trkpt>
      <trkpt lat="43.36751" lon="6.70627">
        <ele>13.4</ele>
        <time>2022-10-09T13:13:50Z</time>
      </trkpt>
      <trkpt lat="43.36757" lon="6.70629">
        <ele>13</ele>
        <time>2022-10-09T13:13:51Z</time>
      </trkpt>
      <trkpt lat="43.36762" lon="6.70634">
        <ele>12.7</ele>
        <time>2022-10-09T13:13:52Z</time>
      </trkpt>
      <trkpt lat="43.36766" lon="6.7064">
        <ele>12.5</ele>
        <time>2022-10-09T13:13:53Z</time>
      </trkpt>
      <trkpt lat="43.36774" lon="6.70649">
        <ele>12.2</ele>
        <time>2022-10-09T13:13:55Z</time>
      </trkpt>
      <trkpt lat="43.36778" lon="6.7065">
        <ele>12</ele>
        <time>2022-10-09T13:13:56Z</time>
      </trkpt>
      <trkpt lat="43.36781" lon="6.70647">
        <ele>11.7</ele>
        <time>2022-10-09T13:13:57Z</time>
      </trkpt>
      <trkpt lat="43.36782" lon="6.70643">
        <ele>11.4</ele>
        <time>2022-10-09T13:13:58Z</time>
      </trkpt>
      <trkpt lat="43.36784" lon="6.70638">
        <ele>11.2</ele>
        <time>2022-10-09T13:13:59Z</time>
      </trkpt>
      <trkpt lat="43.36786" lon="6.70632">
        <ele>10.9</ele>
        <time>2022-10-09T13:14:00Z</time>
      </trkpt>
      <trkpt lat="43.36788" lon="6.70627">
        <ele>10.7</ele>
        <time>2022-10-09T13:14:01Z</time>
      </trkpt>
      <trkpt lat="43.3679" lon="6.70622">
        <ele>10.5</ele>
        <time>2022-10-09T13:14:02Z</time>
      </trkpt>
      <trkpt lat="43.36792" lon="6.70618">
        <ele>10.4</ele>
        <time>2022-10-09T13:14:03Z</time>
      </trkpt>
      <trkpt lat="43.36794" lon="6.70614">
        <ele>10.4</ele>
        <time>2022-10-09T13:14:04Z</time>
      </trkpt>
      <trkpt lat="43.36796" lon="6.7061">
        <ele>10.4</ele>
        <time>2022-10-09T13:14:05Z</time>
      </trkpt>
      <trkpt lat="43.36796" lon="6.70607">
        <ele>10.3</ele>
        <time>2022-10-09T13:14:06Z</time>
      </trkpt>
      <trkpt lat="43.36796" lon="6.70604">
        <ele>10.3</ele>
        <time>2022-10-09T13:14:07Z</time>
      </trkpt>
      <trkpt lat="43.36796" lon="6.706">
        <ele>10.4</ele>
        <time>2022-10-09T13:14:08Z</time>
      </trkpt>
      <trkpt lat="43.36795" lon="6.70597">
        <ele>10.4</ele>
        <time>2022-10-09T13:14:09Z</time>
      </trkpt>
      <trkpt lat="43.36793" lon="6.70593">
        <ele>10.5</ele>
        <time>2022-10-09T13:14:10Z</time>
      </trkpt>
      <trkpt lat="43.36792" lon="6.7059">
        <ele>10.5</ele>
        <time>2022-10-09T13:14:11Z</time>
      </trkpt>
      <trkpt lat="43.36792" lon="6.70586">
        <ele>10.6</ele>
        <time>2022-10-09T13:14:12Z</time>
      </trkpt>
      <trkpt lat="43.36791" lon="6.70583">
        <ele>10.7</ele>
        <time>2022-10-09T13:14:13Z</time>
      </trkpt>
      <trkpt lat="43.3679" lon="6.70567">
        <ele>11.1</ele>
        <time>2022-10-09T13:14:17Z</time>
      </trkpt>
      <trkpt lat="43.36791" lon="6.70563">
        <ele>11.2</ele>
        <time>2022-10-09T13:14:18Z</time>
      </trkpt>
      <trkpt lat="43.36793" lon="6.70558">
        <ele>11.3</ele>
        <time>2022-10-09T13:14:19Z</time>
      </trkpt>
      <trkpt lat="43.36795" lon="6.70553">
        <ele>11.3</ele>
        <time>2022-10-09T13:14:20Z</time>
      </trkpt>
      <trkpt lat="43.36795" lon="6.70548">
        <ele>11.3</ele>
        <time>2022-10-09T13:14:21Z</time>
      </trkpt>
      <trkpt lat="43.36794" lon="6.70542">
        <ele>11.2</ele>
        <time>2022-10-09T13:14:22Z</time>
      </trkpt>
      <trkpt lat="43.36793" lon="6.70536">
        <ele>11.2</ele>
        <time>2022-10-09T13:14:23Z</time>
      </trkpt>
      <trkpt lat="43.36792" lon="6.70529">
        <ele>11.1</ele>
        <time>2022-10-09T13:14:24Z</time>
      </trkpt>
      <trkpt lat="43.36791" lon="6.70523">
        <ele>11.1</ele>
        <time>2022-10-09T13:14:25Z</time>
      </trkpt>
      <trkpt lat="43.36792" lon="6.70503">
        <ele>11</ele>
        <time>2022-10-09T13:14:28Z</time>
      </trkpt>
      <trkpt lat="43.36793" lon="6.70491">
        <ele>11</ele>
        <time>2022-10-09T13:14:30Z</time>
      </trkpt>
      <trkpt lat="43.36794" lon="6.70478">
        <ele>11</ele>
        <time>2022-10-09T13:14:32Z</time>
      </trkpt>
      <trkpt lat="43.36795" lon="6.70472">
        <ele>11</ele>
        <time>2022-10-09T13:14:33Z</time>
      </trkpt>
      <trkpt lat="43.36796" lon="6.70466">
        <ele>11.1</ele>
        <time>2022-10-09T13:14:34Z</time>
      </trkpt>
      <trkpt lat="43.36797" lon="6.7046">
        <ele>11.1</ele>
        <time>2022-10-09T13:14:35Z</time>
      </trkpt>
      <trkpt lat="43.36798" lon="6.70455">
        <ele>11.1</ele>
        <time>2022-10-09T13:14:36Z</time>
      </trkpt>
      <trkpt lat="43.36799" lon="6.70449">
        <ele>11.2</ele>
        <time>2022-10-09T13:14:37Z</time>
      </trkpt>
      <trkpt lat="43.368" lon="6.70444">
        <ele>11.2</ele>
        <time>2022-10-09T13:14:38Z</time>
      </trkpt>
      <trkpt lat="43.36801" lon="6.70439">
        <ele>11.3</ele>
        <time>2022-10-09T13:14:39Z</time>
      </trkpt>
      <trkpt lat="43.36805" lon="6.7043">
        <ele>11.4</ele>
        <time>2022-10-09T13:14:41Z</time>
      </trkpt>
      <trkpt lat="43.36808" lon="6.70429">
        <ele>11.5</ele>
        <time>2022-10-09T13:14:42Z</time>
      </trkpt>
      <trkpt lat="43.36811" lon="6.70429">
        <ele>11.6</ele>
        <time>2022-10-09T13:14:43Z</time>
      </trkpt>
      <trkpt lat="43.36814" lon="6.7043">
        <ele>11.7</ele>
        <time>2022-10-09T13:14:44Z</time>
      </trkpt>
      <trkpt lat="43.36818" lon="6.70432">
        <ele>11.8</ele>
        <time>2022-10-09T13:14:45Z</time>
      </trkpt>
      <trkpt lat="43.36821" lon="6.70433">
        <ele>12</ele>
        <time>2022-10-09T13:14:46Z</time>
      </trkpt>
      <trkpt lat="43.36824" lon="6.70435">
        <ele>12.2</ele>
        <time>2022-10-09T13:14:47Z</time>
      </trkpt>
      <trkpt lat="43.36826" lon="6.70435">
        <ele>12.3</ele>
        <time>2022-10-09T13:14:48Z</time>
      </trkpt>
      <trkpt lat="43.36829" lon="6.70436">
        <ele>12.5</ele>
        <time>2022-10-09T13:14:49Z</time>
      </trkpt>
      <trkpt lat="43.36831" lon="6.70437">
        <ele>12.7</ele>
        <time>2022-10-09T13:14:50Z</time>
      </trkpt>
      <trkpt lat="43.36833" lon="6.70438">
        <ele>12.9</ele>
        <time>2022-10-09T13:14:51Z</time>
      </trkpt>
      <trkpt lat="43.36835" lon="6.70439">
        <ele>13.1</ele>
        <time>2022-10-09T13:14:52Z</time>
      </trkpt>
      <trkpt lat="43.36837" lon="6.7044">
        <ele>13.2</ele>
        <time>2022-10-09T13:14:53Z</time>
      </trkpt>
      <trkpt lat="43.36838" lon="6.70442">
        <ele>13.4</ele>
        <time>2022-10-09T13:14:54Z</time>
      </trkpt>
      <trkpt lat="43.3684" lon="6.70443">
        <ele>13.6</ele>
        <time>2022-10-09T13:14:55Z</time>
      </trkpt>
      <trkpt lat="43.36841" lon="6.70445">
        <ele>13.8</ele>
        <time>2022-10-09T13:14:56Z</time>
      </trkpt>
      <trkpt lat="43.36843" lon="6.70447">
        <ele>13.9</ele>
        <time>2022-10-09T13:14:57Z</time>
      </trkpt>
      <trkpt lat="43.36845" lon="6.70449">
        <ele>14.2</ele>
        <time>2022-10-09T13:14:58Z</time>
      </trkpt>
      <trkpt lat="43.36847" lon="6.7045">
        <ele>14.3</ele>
        <time>2022-10-09T13:14:59Z</time>
      </trkpt>
      <trkpt lat="43.36848" lon="6.70452">
        <ele>14.5</ele>
        <time>2022-10-09T13:15:00Z</time>
      </trkpt>
      <trkpt lat="43.3685" lon="6.70454">
        <ele>14.7</ele>
        <time>2022-10-09T13:15:01Z</time>
      </trkpt>
      <trkpt lat="43.36851" lon="6.70456">
        <ele>14.9</ele>
        <time>2022-10-09T13:15:02Z</time>
      </trkpt>
      <trkpt lat="43.36853" lon="6.70458">
        <ele>15</ele>
        <time>2022-10-09T13:15:03Z</time>
      </trkpt>
      <trkpt lat="43.36854" lon="6.70459">
        <ele>15.2</ele>
        <time>2022-10-09T13:15:04Z</time>
      </trkpt>
      <trkpt lat="43.36856" lon="6.70461">
        <ele>15.4</ele>
        <time>2022-10-09T13:15:05Z</time>
      </trkpt>
      <trkpt lat="43.36857" lon="6.70463">
        <ele>15.5</ele>
        <time>2022-10-09T13:15:06Z</time>
      </trkpt>
      <trkpt lat="43.36858" lon="6.70465">
        <ele>15.7</ele>
        <time>2022-10-09T13:15:07Z</time>
      </trkpt>
      <trkpt lat="43.3686" lon="6.70467">
        <ele>15.9</ele>
        <time>2022-10-09T13:15:08Z</time>
      </trkpt>
      <trkpt lat="43.36861" lon="6.70468">
        <ele>16</ele>
        <time>2022-10-09T13:15:09Z</time>
      </trkpt>
      <trkpt lat="43.36863" lon="6.7047">
        <ele>16.2</ele>
        <time>2022-10-09T13:15:10Z</time>
      </trkpt>
      <trkpt lat="43.36864" lon="6.70473">
        <ele>16.3</ele>
        <time>2022-10-09T13:15:11Z</time>
      </trkpt>
      <trkpt lat="43.36865" lon="6.70475">
        <ele>16.4</ele>
        <time>2022-10-09T13:15:12Z</time>
      </trkpt>
      <trkpt lat="43.36866" lon="6.70477">
        <ele>16.6</ele>
        <time>2022-10-09T13:15:13Z</time>
      </trkpt>
      <trkpt lat="43.36867" lon="6.7048">
        <ele>16.7</ele>
        <time>2022-10-09T13:15:14Z</time>
      </trkpt>
      <trkpt lat="43.36869" lon="6.70483">
        <ele>16.9</ele>
        <time>2022-10-09T13:15:15Z</time>
      </trkpt>
      <trkpt lat="43.3687" lon="6.70485">
        <ele>17</ele>
        <time>2022-10-09T13:15:16Z</time>
      </trkpt>
      <trkpt lat="43.36871" lon="6.70488">
        <ele>17.1</ele>
        <time>2022-10-09T13:15:17Z</time>
      </trkpt>
      <trkpt lat="43.36872" lon="6.70491">
        <ele>17.2</ele>
        <time>2022-10-09T13:15:18Z</time>
      </trkpt>
      <trkpt lat="43.36874" lon="6.70494">
        <ele>17.4</ele>
        <time>2022-10-09T13:15:19Z</time>
      </trkpt>
      <trkpt lat="43.36875" lon="6.70496">
        <ele>17.5</ele>
        <time>2022-10-09T13:15:20Z</time>
      </trkpt>
      <trkpt lat="43.36876" lon="6.70499">
        <ele>17.6</ele>
        <time>2022-10-09T13:15:21Z</time>
      </trkpt>
      <trkpt lat="43.36876" lon="6.70502">
        <ele>17.7</ele>
        <time>2022-10-09T13:15:22Z</time>
      </trkpt>
      <trkpt lat="43.36877" lon="6.70504">
        <ele>17.9</ele>
        <time>2022-10-09T13:15:23Z</time>
      </trkpt>
      <trkpt lat="43.36877" lon="6.70507">
        <ele>18</ele>
        <time>2022-10-09T13:15:24Z</time>
      </trkpt>
      <trkpt lat="43.36878" lon="6.70508">
        <ele>18.1</ele>
        <time>2022-10-09T13:15:25Z</time>
      </trkpt>
      <trkpt lat="43.36878" lon="6.70509">
        <ele>18.1</ele>
        <time>2022-10-09T13:15:26Z</time>
      </trkpt>
      <trkpt lat="43.36878" lon="6.70509">
        <ele>18.1</ele>
        <time>2022-10-09T13:15:27Z</time>
      </trkpt>
      <trkpt lat="43.36878" lon="6.70511">
        <ele>18.3</ele>
        <time>2022-10-09T13:15:29Z</time>
      </trkpt>
      <trkpt lat="43.36879" lon="6.70512">
        <ele>18.4</ele>
        <time>2022-10-09T13:15:30Z</time>
      </trkpt>
      <trkpt lat="43.36879" lon="6.70514">
        <ele>18.4</ele>
        <time>2022-10-09T13:15:31Z</time>
      </trkpt>
      <trkpt lat="43.36879" lon="6.70515">
        <ele>18.5</ele>
        <time>2022-10-09T13:15:32Z</time>
      </trkpt>
      <trkpt lat="43.36879" lon="6.70516">
        <ele>18.6</ele>
        <time>2022-10-09T13:15:33Z</time>
      </trkpt>
      <trkpt lat="43.3688" lon="6.70518">
        <ele>18.8</ele>
        <time>2022-10-09T13:15:34Z</time>
      </trkpt>
      <trkpt lat="43.3688" lon="6.70519">
        <ele>18.9</ele>
        <time>2022-10-09T13:15:35Z</time>
      </trkpt>
      <trkpt lat="43.36881" lon="6.70521">
        <ele>19</ele>
        <time>2022-10-09T13:15:36Z</time>
      </trkpt>
      <trkpt lat="43.36881" lon="6.70522">
        <ele>19.1</ele>
        <time>2022-10-09T13:15:37Z</time>
      </trkpt>
      <trkpt lat="43.36881" lon="6.70523">
        <ele>19.2</ele>
        <time>2022-10-09T13:15:38Z</time>
      </trkpt>
      <trkpt lat="43.36881" lon="6.70525">
        <ele>19.4</ele>
        <time>2022-10-09T13:15:39Z</time>
      </trkpt>
      <trkpt lat="43.36881" lon="6.70526">
        <ele>19.5</ele>
        <time>2022-10-09T13:15:40Z</time>
      </trkpt>
      <trkpt lat="43.36882" lon="6.70527">
        <ele>19.6</ele>
        <time>2022-10-09T13:15:41Z</time>
      </trkpt>
      <trkpt lat="43.36882" lon="6.70529">
        <ele>19.8</ele>
        <time>2022-10-09T13:15:42Z</time>
      </trkpt>
      <trkpt lat="43.36882" lon="6.7053">
        <ele>19.9</ele>
        <time>2022-10-09T13:15:43Z</time>
      </trkpt>
      <trkpt lat="43.36883" lon="6.70531">
        <ele>20.1</ele>
        <time>2022-10-09T13:15:44Z</time>
      </trkpt>
      <trkpt lat="43.36883" lon="6.70532">
        <ele>20.2</ele>
        <time>2022-10-09T13:15:45Z</time>
      </trkpt>
      <trkpt lat="43.36883" lon="6.70534">
        <ele>20.3</ele>
        <time>2022-10-09T13:15:46Z</time>
      </trkpt>
      <trkpt lat="43.36883" lon="6.70535">
        <ele>20.5</ele>
        <time>2022-10-09T13:15:47Z</time>
      </trkpt>
      <trkpt lat="43.36883" lon="6.70536">
        <ele>20.7</ele>
        <time>2022-10-09T13:15:48Z</time>
      </trkpt>
      <trkpt lat="43.36883" lon="6.70538">
        <ele>20.8</ele>
        <time>2022-10-09T13:15:49Z</time>
      </trkpt>
      <trkpt lat="43.36883" lon="6.70539">
        <ele>21</ele>
        <time>2022-10-09T13:15:50Z</time>
      </trkpt>
      <trkpt lat="43.36883" lon="6.70541">
        <ele>21.2</ele>
        <time>2022-10-09T13:15:51Z</time>
      </trkpt>
      <trkpt lat="43.36884" lon="6.70542">
        <ele>21.4</ele>
        <time>2022-10-09T13:15:52Z</time>
      </trkpt>
      <trkpt lat="43.36884" lon="6.70543">
        <ele>21.5</ele>
        <time>2022-10-09T13:15:53Z</time>
      </trkpt>
      <trkpt lat="43.36885" lon="6.70544">
        <ele>21.7</ele>
        <time>2022-10-09T13:15:54Z</time>
      </trkpt>
      <trkpt lat="43.36885" lon="6.70546">
        <ele>22</ele>
        <time>2022-10-09T13:15:55Z</time>
      </trkpt>
      <trkpt lat="43.36886" lon="6.70547">
        <ele>22.2</ele>
        <time>2022-10-09T13:15:56Z</time>
      </trkpt>
      <trkpt lat="43.36887" lon="6.70548">
        <ele>22.4</ele>
        <time>2022-10-09T13:15:57Z</time>
      </trkpt>
      <trkpt lat="43.36888" lon="6.70549">
        <ele>22.6</ele>
        <time>2022-10-09T13:15:58Z</time>
      </trkpt>
      <trkpt lat="43.36888" lon="6.7055">
        <ele>24.4</ele>
        <time>2022-10-09T13:15:59Z</time>
      </trkpt>
      <trkpt lat="43.36889" lon="6.70551">
        <ele>24.6</ele>
        <time>2022-10-09T13:16:00Z</time>
      </trkpt>
      <trkpt lat="43.3689" lon="6.70552">
        <ele>24.9</ele>
        <time>2022-10-09T13:16:01Z</time>
      </trkpt>
      <trkpt lat="43.36891" lon="6.70552">
        <ele>25.2</ele>
        <time>2022-10-09T13:16:02Z</time>
      </trkpt>
      <trkpt lat="43.36892" lon="6.70552">
        <ele>25.5</ele>
        <time>2022-10-09T13:16:03Z</time>
      </trkpt>
      <trkpt lat="43.36893" lon="6.70553">
        <ele>25.7</ele>
        <time>2022-10-09T13:16:04Z</time>
      </trkpt>
      <trkpt lat="43.36894" lon="6.70553">
        <ele>25.9</ele>
        <time>2022-10-09T13:16:05Z</time>
      </trkpt>
      <trkpt lat="43.36895" lon="6.70553">
        <ele>26.1</ele>
        <time>2022-10-09T13:16:06Z</time>
      </trkpt>
      <trkpt lat="43.36896" lon="6.70552">
        <ele>26.3</ele>
        <time>2022-10-09T13:16:07Z</time>
      </trkpt>
      <trkpt lat="43.36897" lon="6.70552">
        <ele>26.5</ele>
        <time>2022-10-09T13:16:08Z</time>
      </trkpt>
      <trkpt lat="43.36897" lon="6.70551">
        <ele>26.7</ele>
        <time>2022-10-09T13:16:09Z</time>
      </trkpt>
      <trkpt lat="43.36897" lon="6.70551">
        <ele>26.7</ele>
        <time>2022-10-09T13:16:10Z</time>
      </trkpt>
      <trkpt lat="43.36897" lon="6.70551">
        <ele>26.8</ele>
        <time>2022-10-09T13:16:11Z</time>
      </trkpt>
      <trkpt lat="43.37016" lon="6.7047">
        <ele>48.4</ele>
        <time>2022-10-09T13:19:41Z</time>
      </trkpt>
      <trkpt lat="43.3702" lon="6.70462">
        <ele>49</ele>
        <time>2022-10-09T13:19:46Z</time>
      </trkpt>
      <trkpt lat="43.37026" lon="6.70454">
        <ele>49.7</ele>
        <time>2022-10-09T13:19:51Z</time>
      </trkpt>
      <trkpt lat="43.37028" lon="6.70451">
        <ele>50</ele>
        <time>2022-10-09T13:19:53Z</time>
      </trkpt>
      <trkpt lat="43.37029" lon="6.70449">
        <ele>50.1</ele>
        <time>2022-10-09T13:19:54Z</time>
      </trkpt>
      <trkpt lat="43.3703" lon="6.70448">
        <ele>50.2</ele>
        <time>2022-10-09T13:19:55Z</time>
      </trkpt>
      <trkpt lat="43.37035" lon="6.7044">
        <ele>50.7</ele>
        <time>2022-10-09T13:19:59Z</time>
      </trkpt>
      <trkpt lat="43.37037" lon="6.70438">
        <ele>50.9</ele>
        <time>2022-10-09T13:20:00Z</time>
      </trkpt>
      <trkpt lat="43.37038" lon="6.70436">
        <ele>51</ele>
        <time>2022-10-09T13:20:01Z</time>
      </trkpt>
      <trkpt lat="43.37039" lon="6.70435">
        <ele>51.1</ele>
        <time>2022-10-09T13:20:02Z</time>
      </trkpt>
      <trkpt lat="43.37041" lon="6.70433">
        <ele>51.2</ele>
        <time>2022-10-09T13:20:03Z</time>
      </trkpt>
      <trkpt lat="43.37042" lon="6.70431">
        <ele>51.4</ele>
        <time>2022-10-09T13:20:04Z</time>
      </trkpt>
      <trkpt lat="43.37043" lon="6.70429">
        <ele>51.5</ele>
        <time>2022-10-09T13:20:05Z</time>
      </trkpt>
      <trkpt lat="43.37045" lon="6.70428">
        <ele>51.6</ele>
        <time>2022-10-09T13:20:06Z</time>
      </trkpt>
      <trkpt lat="43.37046" lon="6.70426">
        <ele>51.7</ele>
        <time>2022-10-09T13:20:07Z</time>
      </trkpt>
      <trkpt lat="43.37047" lon="6.70424">
        <ele>51.8</ele>
        <time>2022-10-09T13:20:08Z</time>
      </trkpt>
      <trkpt lat="43.37048" lon="6.70422">
        <ele>51.9</ele>
        <time>2022-10-09T13:20:09Z</time>
      </trkpt>
      <trkpt lat="43.37049" lon="6.70421">
        <ele>52</ele>
        <time>2022-10-09T13:20:10Z</time>
      </trkpt>
      <trkpt lat="43.3705" lon="6.70419">
        <ele>52.2</ele>
        <time>2022-10-09T13:20:11Z</time>
      </trkpt>
      <trkpt lat="43.37052" lon="6.70418">
        <ele>52.3</ele>
        <time>2022-10-09T13:20:12Z</time>
      </trkpt>
      <trkpt lat="43.37053" lon="6.70416">
        <ele>52.4</ele>
        <time>2022-10-09T13:20:13Z</time>
      </trkpt>
      <trkpt lat="43.37054" lon="6.70415">
        <ele>52.5</ele>
        <time>2022-10-09T13:20:14Z</time>
      </trkpt>
      <trkpt lat="43.37055" lon="6.70413">
        <ele>52.6</ele>
        <time>2022-10-09T13:20:15Z</time>
      </trkpt>
      <trkpt lat="43.37056" lon="6.70411">
        <ele>52.7</ele>
        <time>2022-10-09T13:20:16Z</time>
      </trkpt>
      <trkpt lat="43.37057" lon="6.70409">
        <ele>52.8</ele>
        <time>2022-10-09T13:20:17Z</time>
      </trkpt>
      <trkpt lat="43.37058" lon="6.70407">
        <ele>52.9</ele>
        <time>2022-10-09T13:20:18Z</time>
      </trkpt>
      <trkpt lat="43.37059" lon="6.70405">
        <ele>53</ele>
        <time>2022-10-09T13:20:19Z</time>
      </trkpt>
      <trkpt lat="43.3706" lon="6.70403">
        <ele>53.1</ele>
        <time>2022-10-09T13:20:20Z</time>
      </trkpt>
      <trkpt lat="43.37061" lon="6.70401">
        <ele>53.2</ele>
        <time>2022-10-09T13:20:21Z</time>
      </trkpt>
      <trkpt lat="43.37062" lon="6.70399">
        <ele>53.4</ele>
        <time>2022-10-09T13:20:22Z</time>
      </trkpt>
      <trkpt lat="43.37063" lon="6.70397">
        <ele>53.4</ele>
        <time>2022-10-09T13:20:23Z</time>
      </trkpt>
      <trkpt lat="43.37065" lon="6.70396">
        <ele>53.5</ele>
        <time>2022-10-09T13:20:24Z</time>
      </trkpt>
      <trkpt lat="43.37066" lon="6.70394">
        <ele>53.6</ele>
        <time>2022-10-09T13:20:25Z</time>
      </trkpt>
      <trkpt lat="43.37067" lon="6.70392">
        <ele>53.7</ele>
        <time>2022-10-09T13:20:26Z</time>
      </trkpt>
      <trkpt lat="43.37068" lon="6.7039">
        <ele>53.8</ele>
        <time>2022-10-09T13:20:27Z</time>
      </trkpt>
      <trkpt lat="43.37068" lon="6.70389">
        <ele>53.8</ele>
        <time>2022-10-09T13:20:28Z</time>
      </trkpt>
      <trkpt lat="43.37069" lon="6.70387">
        <ele>53.9</ele>
        <time>2022-10-09T13:20:29Z</time>
      </trkpt>
      <trkpt lat="43.3707" lon="6.70385">
        <ele>54</ele>
        <time>2022-10-09T13:20:30Z</time>
      </trkpt>
      <trkpt lat="43.37071" lon="6.70384">
        <ele>54</ele>
        <time>2022-10-09T13:20:31Z</time>
      </trkpt>
      <trkpt lat="43.37072" lon="6.70383">
        <ele>54.1</ele>
        <time>2022-10-09T13:20:32Z</time>
      </trkpt>
      <trkpt lat="43.37073" lon="6.70381">
        <ele>54.1</ele>
        <time>2022-10-09T13:20:33Z</time>
      </trkpt>
      <trkpt lat="43.37074" lon="6.70379">
        <ele>54.1</ele>
        <time>2022-10-09T13:20:34Z</time>
      </trkpt>
      <trkpt lat="43.37075" lon="6.70378">
        <ele>54.2</ele>
        <time>2022-10-09T13:20:35Z</time>
      </trkpt>
      <trkpt lat="43.37076" lon="6.70376">
        <ele>54.2</ele>
        <time>2022-10-09T13:20:36Z</time>
      </trkpt>
      <trkpt lat="43.37078" lon="6.70374">
        <ele>54.2</ele>
        <time>2022-10-09T13:20:37Z</time>
      </trkpt>
      <trkpt lat="43.37079" lon="6.70373">
        <ele>54.3</ele>
        <time>2022-10-09T13:20:38Z</time>
      </trkpt>
      <trkpt lat="43.3708" lon="6.70371">
        <ele>54.3</ele>
        <time>2022-10-09T13:20:39Z</time>
      </trkpt>
      <trkpt lat="43.37081" lon="6.70369">
        <ele>54.3</ele>
        <time>2022-10-09T13:20:40Z</time>
      </trkpt>
      <trkpt lat="43.37083" lon="6.70365">
        <ele>54.3</ele>
        <time>2022-10-09T13:20:42Z</time>
      </trkpt>
      <trkpt lat="43.37095" lon="6.70348">
        <ele>54.2</ele>
        <time>2022-10-09T13:20:49Z</time>
      </trkpt>
      <trkpt lat="43.37104" lon="6.70321">
        <ele>53.9</ele>
        <time>2022-10-09T13:20:55Z</time>
      </trkpt>
      <trkpt lat="43.37117" lon="6.70289">
        <ele>54.4</ele>
        <time>2022-10-09T13:21:02Z</time>
      </trkpt>
      <trkpt lat="43.3712" lon="6.7028">
        <ele>54.8</ele>
        <time>2022-10-09T13:21:04Z</time>
      </trkpt>
      <trkpt lat="43.37121" lon="6.70276">
        <ele>55</ele>
        <time>2022-10-09T13:21:05Z</time>
      </trkpt>
      <trkpt lat="43.37121" lon="6.70273">
        <ele>55.3</ele>
        <time>2022-10-09T13:21:06Z</time>
      </trkpt>
      <trkpt lat="43.37122" lon="6.70269">
        <ele>55.5</ele>
        <time>2022-10-09T13:21:07Z</time>
      </trkpt>
      <trkpt lat="43.37122" lon="6.70266">
        <ele>55.7</ele>
        <time>2022-10-09T13:21:08Z</time>
      </trkpt>
      <trkpt lat="43.37123" lon="6.70263">
        <ele>55.9</ele>
        <time>2022-10-09T13:21:09Z</time>
      </trkpt>
      <trkpt lat="43.37123" lon="6.7026">
        <ele>56.1</ele>
        <time>2022-10-09T13:21:10Z</time>
      </trkpt>
      <trkpt lat="43.37124" lon="6.70257">
        <ele>56.3</ele>
        <time>2022-10-09T13:21:11Z</time>
      </trkpt>
      <trkpt lat="43.37124" lon="6.70255">
        <ele>56.6</ele>
        <time>2022-10-09T13:21:12Z</time>
      </trkpt>
      <trkpt lat="43.37125" lon="6.70252">
        <ele>56.8</ele>
        <time>2022-10-09T13:21:13Z</time>
      </trkpt>
      <trkpt lat="43.37125" lon="6.7025">
        <ele>57</ele>
        <time>2022-10-09T13:21:14Z</time>
      </trkpt>
      <trkpt lat="43.37126" lon="6.70247">
        <ele>57.2</ele>
        <time>2022-10-09T13:21:15Z</time>
      </trkpt>
      <trkpt lat="43.37126" lon="6.70245">
        <ele>57.4</ele>
        <time>2022-10-09T13:21:16Z</time>
      </trkpt>
      <trkpt lat="43.37126" lon="6.70242">
        <ele>57.6</ele>
        <time>2022-10-09T13:21:17Z</time>
      </trkpt>
      <trkpt lat="43.37127" lon="6.7024">
        <ele>57.8</ele>
        <time>2022-10-09T13:21:18Z</time>
      </trkpt>
      <trkpt lat="43.37128" lon="6.70238">
        <ele>57.9</ele>
        <time>2022-10-09T13:21:19Z</time>
      </trkpt>
      <trkpt lat="43.37128" lon="6.70236">
        <ele>58.1</ele>
        <time>2022-10-09T13:21:20Z</time>
      </trkpt>
      <trkpt lat="43.37129" lon="6.70235">
        <ele>58.3</ele>
        <time>2022-10-09T13:21:21Z</time>
      </trkpt>
      <trkpt lat="43.37129" lon="6.70233">
        <ele>58.4</ele>
        <time>2022-10-09T13:21:22Z</time>
      </trkpt>
      <trkpt lat="43.3713" lon="6.70231">
        <ele>58.6</ele>
        <time>2022-10-09T13:21:23Z</time>
      </trkpt>
      <trkpt lat="43.37131" lon="6.70229">
        <ele>58.7</ele>
        <time>2022-10-09T13:21:24Z</time>
      </trkpt>
      <trkpt lat="43.37131" lon="6.70227">
        <ele>58.9</ele>
        <time>2022-10-09T13:21:25Z</time>
      </trkpt>
      <trkpt lat="43.37132" lon="6.70226">
        <ele>59</ele>
        <time>2022-10-09T13:21:26Z</time>
      </trkpt>
      <trkpt lat="43.37133" lon="6.70224">
        <ele>59.1</ele>
        <time>2022-10-09T13:21:27Z</time>
      </trkpt>
      <trkpt lat="43.37133" lon="6.70222">
        <ele>59.3</ele>
        <time>2022-10-09T13:21:28Z</time>
      </trkpt>
      <trkpt lat="43.37134" lon="6.7022">
        <ele>59.4</ele>
        <time>2022-10-09T13:21:29Z</time>
      </trkpt>
      <trkpt lat="43.37135" lon="6.70218">
        <ele>59.5</ele>
        <time>2022-10-09T13:21:30Z</time>
      </trkpt>
      <trkpt lat="43.37135" lon="6.70216">
        <ele>59.6</ele>
        <time>2022-10-09T13:21:31Z</time>
      </trkpt>
      <trkpt lat="43.37136" lon="6.70215">
        <ele>59.8</ele>
        <time>2022-10-09T13:21:32Z</time>
      </trkpt>
      <trkpt lat="43.37137" lon="6.70213">
        <ele>59.9</ele>
        <time>2022-10-09T13:21:33Z</time>
      </trkpt>
      <trkpt lat="43.37137" lon="6.70211">
        <ele>60</ele>
        <time>2022-10-09T13:21:34Z</time>
      </trkpt>
      <trkpt lat="43.37138" lon="6.7021">
        <ele>60.1</ele>
        <time>2022-10-09T13:21:35Z</time>
      </trkpt>
      <trkpt lat="43.37139" lon="6.70208">
        <ele>60.2</ele>
        <time>2022-10-09T13:21:36Z</time>
      </trkpt>
      <trkpt lat="43.3714" lon="6.70206">
        <ele>60.3</ele>
        <time>2022-10-09T13:21:37Z</time>
      </trkpt>
      <trkpt lat="43.37141" lon="6.70205">
        <ele>60.4</ele>
        <time>2022-10-09T13:21:38Z</time>
      </trkpt>
      <trkpt lat="43.37142" lon="6.70203">
        <ele>60.5</ele>
        <time>2022-10-09T13:21:39Z</time>
      </trkpt>
      <trkpt lat="43.37143" lon="6.70201">
        <ele>60.6</ele>
        <time>2022-10-09T13:21:40Z</time>
      </trkpt>
      <trkpt lat="43.37144" lon="6.702">
        <ele>60.7</ele>
        <time>2022-10-09T13:21:41Z</time>
      </trkpt>
      <trkpt lat="43.37145" lon="6.70198">
        <ele>60.8</ele>
        <time>2022-10-09T13:21:42Z</time>
      </trkpt>
      <trkpt lat="43.37146" lon="6.70197">
        <ele>60.9</ele>
        <time>2022-10-09T13:21:43Z</time>
      </trkpt>
      <trkpt lat="43.37148" lon="6.70196">
        <ele>61</ele>
        <time>2022-10-09T13:21:44Z</time>
      </trkpt>
      <trkpt lat="43.37149" lon="6.70194">
        <ele>61.1</ele>
        <time>2022-10-09T13:21:45Z</time>
      </trkpt>
      <trkpt lat="43.3715" lon="6.70193">
        <ele>61.2</ele>
        <time>2022-10-09T13:21:46Z</time>
      </trkpt>
      <trkpt lat="43.37152" lon="6.70192">
        <ele>61.3</ele>
        <time>2022-10-09T13:21:47Z</time>
      </trkpt>
      <trkpt lat="43.37153" lon="6.70191">
        <ele>61.4</ele>
        <time>2022-10-09T13:21:48Z</time>
      </trkpt>
      <trkpt lat="43.37154" lon="6.7019">
        <ele>61.5</ele>
        <time>2022-10-09T13:21:49Z</time>
      </trkpt>
      <trkpt lat="43.37155" lon="6.70189">
        <ele>61.6</ele>
        <time>2022-10-09T13:21:50Z</time>
      </trkpt>
      <trkpt lat="43.37157" lon="6.70189">
        <ele>61.7</ele>
        <time>2022-10-09T13:21:51Z</time>
      </trkpt>
      <trkpt lat="43.37158" lon="6.70188">
        <ele>61.8</ele>
        <time>2022-10-09T13:21:52Z</time>
      </trkpt>
      <trkpt lat="43.3716" lon="6.70187">
        <ele>61.9</ele>
        <time>2022-10-09T13:21:53Z</time>
      </trkpt>
      <trkpt lat="43.37161" lon="6.70187">
        <ele>62</ele>
        <time>2022-10-09T13:21:54Z</time>
      </trkpt>
      <trkpt lat="43.37163" lon="6.70186">
        <ele>62.1</ele>
        <time>2022-10-09T13:21:55Z</time>
      </trkpt>
      <trkpt lat="43.37164" lon="6.70186">
        <ele>62.1</ele>
        <time>2022-10-09T13:21:56Z</time>
      </trkpt>
      <trkpt lat="43.37165" lon="6.70185">
        <ele>62.2</ele>
        <time>2022-10-09T13:21:57Z</time>
      </trkpt>
      <trkpt lat="43.37167" lon="6.70185">
        <ele>62.4</ele>
        <time>2022-10-09T13:21:58Z</time>
      </trkpt>
      <trkpt lat="43.37168" lon="6.70184">
        <ele>62.5</ele>
        <time>2022-10-09T13:21:59Z</time>
      </trkpt>
      <trkpt lat="43.3717" lon="6.70184">
        <ele>62.6</ele>
        <time>2022-10-09T13:22:00Z</time>
      </trkpt>
      <trkpt lat="43.37171" lon="6.70183">
        <ele>62.7</ele>
        <time>2022-10-09T13:22:01Z</time>
      </trkpt>
      <trkpt lat="43.37173" lon="6.70183">
        <ele>62.8</ele>
        <time>2022-10-09T13:22:02Z</time>
      </trkpt>
      <trkpt lat="43.37174" lon="6.70182">
        <ele>63</ele>
        <time>2022-10-09T13:22:03Z</time>
      </trkpt>
      <trkpt lat="43.37176" lon="6.70182">
        <ele>63.1</ele>
        <time>2022-10-09T13:22:04Z</time>
      </trkpt>
      <trkpt lat="43.37177" lon="6.70181">
        <ele>63.2</ele>
        <time>2022-10-09T13:22:05Z</time>
      </trkpt>
      <trkpt lat="43.3718" lon="6.7018">
        <ele>63.5</ele>
        <time>2022-10-09T13:22:07Z</time>
      </trkpt>
      <trkpt lat="43.37187" lon="6.70177">
        <ele>64.3</ele>
        <time>2022-10-09T13:22:12Z</time>
      </trkpt>
      <trkpt lat="43.37192" lon="6.70176">
        <ele>64.8</ele>
        <time>2022-10-09T13:22:15Z</time>
      </trkpt>
      <trkpt lat="43.37195" lon="6.70175">
        <ele>65.2</ele>
        <time>2022-10-09T13:22:17Z</time>
      </trkpt>
      <trkpt lat="43.37196" lon="6.70175">
        <ele>65.3</ele>
        <time>2022-10-09T13:22:18Z</time>
      </trkpt>
      <trkpt lat="43.37197" lon="6.70174">
        <ele>65.5</ele>
        <time>2022-10-09T13:22:19Z</time>
      </trkpt>
      <trkpt lat="43.372" lon="6.70173">
        <ele>65.9</ele>
        <time>2022-10-09T13:22:21Z</time>
      </trkpt>
      <trkpt lat="43.37203" lon="6.70171">
        <ele>66.3</ele>
        <time>2022-10-09T13:22:23Z</time>
      </trkpt>
      <trkpt lat="43.37205" lon="6.70171">
        <ele>66.5</ele>
        <time>2022-10-09T13:22:24Z</time>
      </trkpt>
      <trkpt lat="43.37206" lon="6.7017">
        <ele>66.7</ele>
        <time>2022-10-09T13:22:25Z</time>
      </trkpt>
      <trkpt lat="43.37207" lon="6.70169">
        <ele>66.8</ele>
        <time>2022-10-09T13:22:26Z</time>
      </trkpt>
      <trkpt lat="43.37207" lon="6.70169">
        <ele>66.9</ele>
        <time>2022-10-09T13:22:27Z</time>
      </trkpt>
      <trkpt lat="43.37207" lon="6.7017">
        <ele>66.9</ele>
        <time>2022-10-09T13:22:28Z</time>
      </trkpt>
      <trkpt lat="43.3728" lon="6.70157">
        <ele>76.1</ele>
        <time>2022-10-09T13:23:56Z</time>
      </trkpt>
      <trkpt lat="43.37282" lon="6.70156">
        <ele>76.5</ele>
        <time>2022-10-09T13:23:58Z</time>
      </trkpt>
      <trkpt lat="43.37288" lon="6.70153">
        <ele>77.5</ele>
        <time>2022-10-09T13:24:02Z</time>
      </trkpt>
      <trkpt lat="43.37289" lon="6.70152">
        <ele>77.7</ele>
        <time>2022-10-09T13:24:03Z</time>
      </trkpt>
      <trkpt lat="43.3729" lon="6.70152">
        <ele>78</ele>
        <time>2022-10-09T13:24:04Z</time>
      </trkpt>
      <trkpt lat="43.37292" lon="6.7015">
        <ele>78.2</ele>
        <time>2022-10-09T13:24:05Z</time>
      </trkpt>
      <trkpt lat="43.37293" lon="6.70149">
        <ele>78.5</ele>
        <time>2022-10-09T13:24:06Z</time>
      </trkpt>
      <trkpt lat="43.37294" lon="6.70149">
        <ele>78.7</ele>
        <time>2022-10-09T13:24:07Z</time>
      </trkpt>
      <trkpt lat="43.37295" lon="6.70148">
        <ele>79</ele>
        <time>2022-10-09T13:24:08Z</time>
      </trkpt>
      <trkpt lat="43.37296" lon="6.70147">
        <ele>79.3</ele>
        <time>2022-10-09T13:24:09Z</time>
      </trkpt>
      <trkpt lat="43.37299" lon="6.70144">
        <ele>79.9</ele>
        <time>2022-10-09T13:24:11Z</time>
      </trkpt>
      <trkpt lat="43.373" lon="6.70143">
        <ele>80.2</ele>
        <time>2022-10-09T13:24:12Z</time>
      </trkpt>
      <trkpt lat="43.37301" lon="6.70142">
        <ele>80.5</ele>
        <time>2022-10-09T13:24:13Z</time>
      </trkpt>
      <trkpt lat="43.37302" lon="6.7014">
        <ele>80.8</ele>
        <time>2022-10-09T13:24:14Z</time>
      </trkpt>
      <trkpt lat="43.37303" lon="6.7014">
        <ele>81</ele>
        <time>2022-10-09T13:24:15Z</time>
      </trkpt>
      <trkpt lat="43.37303" lon="6.70139">
        <ele>81.1</ele>
        <time>2022-10-09T13:24:16Z</time>
      </trkpt>
      <trkpt lat="43.37303" lon="6.70139">
        <ele>81.1</ele>
        <time>2022-10-09T13:24:17Z</time>
      </trkpt>
      <trkpt lat="43.37303" lon="6.70139">
        <ele>81.2</ele>
        <time>2022-10-09T13:24:18Z</time>
      </trkpt>
      <trkpt lat="43.37431" lon="6.70025">
        <ele>110.9</ele>
        <time>2022-10-09T13:30:27Z</time>
      </trkpt>
      <trkpt lat="43.37432" lon="6.70023">
        <ele>111</ele>
        <time>2022-10-09T13:30:28Z</time>
      </trkpt>
      <trkpt lat="43.37433" lon="6.70021">
        <ele>111</ele>
        <time>2022-10-09T13:30:29Z</time>
      </trkpt>
      <trkpt lat="43.37442" lon="6.70009">
        <ele>111.5</ele>
        <time>2022-10-09T13:30:35Z</time>
      </trkpt>
      <trkpt lat="43.37447" lon="6.70003">
        <ele>111.6</ele>
        <time>2022-10-09T13:30:38Z</time>
      </trkpt>
      <trkpt lat="43.37452" lon="6.69996">
        <ele>111.8</ele>
        <time>2022-10-09T13:30:41Z</time>
      </trkpt>
      <trkpt lat="43.37458" lon="6.69991">
        <ele>112</ele>
        <time>2022-10-09T13:30:44Z</time>
      </trkpt>
      <trkpt lat="43.37459" lon="6.69988">
        <ele>112.1</ele>
        <time>2022-10-09T13:30:45Z</time>
      </trkpt>
      <trkpt lat="43.3746" lon="6.69986">
        <ele>112.1</ele>
        <time>2022-10-09T13:30:46Z</time>
      </trkpt>
      <trkpt lat="43.37462" lon="6.69984">
        <ele>112.2</ele>
        <time>2022-10-09T13:30:47Z</time>
      </trkpt>
      <trkpt lat="43.37466" lon="6.6998">
        <ele>112.4</ele>
        <time>2022-10-09T13:30:49Z</time>
      </trkpt>
      <trkpt lat="43.37469" lon="6.69977">
        <ele>112.6</ele>
        <time>2022-10-09T13:30:51Z</time>
      </trkpt>
      <trkpt lat="43.3747" lon="6.69975">
        <ele>112.7</ele>
        <time>2022-10-09T13:30:52Z</time>
      </trkpt>
      <trkpt lat="43.37472" lon="6.69973">
        <ele>112.8</ele>
        <time>2022-10-09T13:30:53Z</time>
      </trkpt>
      <trkpt lat="43.37473" lon="6.69971">
        <ele>112.9</ele>
        <time>2022-10-09T13:30:54Z</time>
      </trkpt>
      <trkpt lat="43.37474" lon="6.69969">
        <ele>113</ele>
        <time>2022-10-09T13:30:55Z</time>
      </trkpt>
      <trkpt lat="43.37476" lon="6.69968">
        <ele>113.2</ele>
        <time>2022-10-09T13:30:56Z</time>
      </trkpt>
      <trkpt lat="43.37481" lon="6.6996">
        <ele>113.8</ele>
        <time>2022-10-09T13:31:00Z</time>
      </trkpt>
      <trkpt lat="43.37483" lon="6.69958">
        <ele>113.9</ele>
        <time>2022-10-09T13:31:01Z</time>
      </trkpt>
      <trkpt lat="43.37485" lon="6.69955">
        <ele>114.2</ele>
        <time>2022-10-09T13:31:03Z</time>
      </trkpt>
      <trkpt lat="43.37486" lon="6.69953">
        <ele>114.3</ele>
        <time>2022-10-09T13:31:04Z</time>
      </trkpt>
      <trkpt lat="43.37487" lon="6.69952">
        <ele>114.5</ele>
        <time>2022-10-09T13:31:05Z</time>
      </trkpt>
      <trkpt lat="43.37489" lon="6.6995">
        <ele>114.6</ele>
        <time>2022-10-09T13:31:06Z</time>
      </trkpt>
      <trkpt lat="43.37491" lon="6.69949">
        <ele>114.8</ele>
        <time>2022-10-09T13:31:07Z</time>
      </trkpt>
      <trkpt lat="43.37492" lon="6.69948">
        <ele>115</ele>
        <time>2022-10-09T13:31:08Z</time>
      </trkpt>
      <trkpt lat="43.37494" lon="6.69947">
        <ele>115.1</ele>
        <time>2022-10-09T13:31:09Z</time>
      </trkpt>
      <trkpt lat="43.37496" lon="6.69946">
        <ele>115.3</ele>
        <time>2022-10-09T13:31:10Z</time>
      </trkpt>
      <trkpt lat="43.37498" lon="6.69945">
        <ele>115.4</ele>
        <time>2022-10-09T13:31:11Z</time>
      </trkpt>
      <trkpt lat="43.375" lon="6.69944">
        <ele>115.6</ele>
        <time>2022-10-09T13:31:12Z</time>
      </trkpt>
      <trkpt lat="43.37502" lon="6.69944">
        <ele>115.7</ele>
        <time>2022-10-09T13:31:13Z</time>
      </trkpt>
      <trkpt lat="43.37504" lon="6.69943">
        <ele>115.9</ele>
        <time>2022-10-09T13:31:14Z</time>
      </trkpt>
      <trkpt lat="43.37506" lon="6.69943">
        <ele>116.1</ele>
        <time>2022-10-09T13:31:15Z</time>
      </trkpt>
      <trkpt lat="43.37508" lon="6.69944">
        <ele>116.2</ele>
        <time>2022-10-09T13:31:16Z</time>
      </trkpt>
      <trkpt lat="43.3751" lon="6.69944">
        <ele>116.3</ele>
        <time>2022-10-09T13:31:17Z</time>
      </trkpt>
      <trkpt lat="43.37512" lon="6.69945">
        <ele>116.4</ele>
        <time>2022-10-09T13:31:18Z</time>
      </trkpt>
      <trkpt lat="43.37514" lon="6.69946">
        <ele>116.5</ele>
        <time>2022-10-09T13:31:19Z</time>
      </trkpt>
      <trkpt lat="43.37515" lon="6.69948">
        <ele>116.6</ele>
        <time>2022-10-09T13:31:20Z</time>
      </trkpt>
      <trkpt lat="43.37516" lon="6.69949">
        <ele>116.7</ele>
        <time>2022-10-09T13:31:21Z</time>
      </trkpt>
      <trkpt lat="43.37517" lon="6.69951">
        <ele>116.8</ele>
        <time>2022-10-09T13:31:22Z</time>
      </trkpt>
      <trkpt lat="43.37518" lon="6.69953">
        <ele>116.8</ele>
        <time>2022-10-09T13:31:23Z</time>
      </trkpt>
      <trkpt lat="43.3752" lon="6.69955">
        <ele>116.9</ele>
        <time>2022-10-09T13:31:24Z</time>
      </trkpt>
      <trkpt lat="43.37521" lon="6.69957">
        <ele>117</ele>
        <time>2022-10-09T13:31:25Z</time>
      </trkpt>
      <trkpt lat="43.37522" lon="6.69959">
        <ele>117.1</ele>
        <time>2022-10-09T13:31:26Z</time>
      </trkpt>
      <trkpt lat="43.37523" lon="6.69962">
        <ele>117.2</ele>
        <time>2022-10-09T13:31:27Z</time>
      </trkpt>
      <trkpt lat="43.37524" lon="6.69965">
        <ele>117.3</ele>
        <time>2022-10-09T13:31:28Z</time>
      </trkpt>
      <trkpt lat="43.37524" lon="6.69968">
        <ele>117.4</ele>
        <time>2022-10-09T13:31:29Z</time>
      </trkpt>
      <trkpt lat="43.37525" lon="6.6997">
        <ele>117.5</ele>
        <time>2022-10-09T13:31:30Z</time>
      </trkpt>
      <trkpt lat="43.37526" lon="6.69973">
        <ele>117.6</ele>
        <time>2022-10-09T13:31:31Z</time>
      </trkpt>
      <trkpt lat="43.37528" lon="6.69976">
        <ele>117.8</ele>
        <time>2022-10-09T13:31:32Z</time>
      </trkpt>
      <trkpt lat="43.37529" lon="6.69978">
        <ele>117.9</ele>
        <time>2022-10-09T13:31:33Z</time>
      </trkpt>
      <trkpt lat="43.3753" lon="6.69981">
        <ele>118</ele>
        <time>2022-10-09T13:31:34Z</time>
      </trkpt>
      <trkpt lat="43.37531" lon="6.69984">
        <ele>118.2</ele>
        <time>2022-10-09T13:31:35Z</time>
      </trkpt>
      <trkpt lat="43.37532" lon="6.69986">
        <ele>118.3</ele>
        <time>2022-10-09T13:31:36Z</time>
      </trkpt>
      <trkpt lat="43.37534" lon="6.69987">
        <ele>118.4</ele>
        <time>2022-10-09T13:31:37Z</time>
      </trkpt>
      <trkpt lat="43.37535" lon="6.69989">
        <ele>118.6</ele>
        <time>2022-10-09T13:31:38Z</time>
      </trkpt>
      <trkpt lat="43.37536" lon="6.69991">
        <ele>118.7</ele>
        <time>2022-10-09T13:31:39Z</time>
      </trkpt>
      <trkpt lat="43.37537" lon="6.69993">
        <ele>118.8</ele>
        <time>2022-10-09T13:31:40Z</time>
      </trkpt>
      <trkpt lat="43.37539" lon="6.69994">
        <ele>119</ele>
        <time>2022-10-09T13:31:41Z</time>
      </trkpt>
      <trkpt lat="43.3754" lon="6.69995">
        <ele>119.1</ele>
        <time>2022-10-09T13:31:42Z</time>
      </trkpt>
      <trkpt lat="43.37541" lon="6.69997">
        <ele>119.3</ele>
        <time>2022-10-09T13:31:43Z</time>
      </trkpt>
      <trkpt lat="43.37543" lon="6.69998">
        <ele>119.5</ele>
        <time>2022-10-09T13:31:44Z</time>
      </trkpt>
      <trkpt lat="43.37544" lon="6.69999">
        <ele>119.6</ele>
        <time>2022-10-09T13:31:45Z</time>
      </trkpt>
      <trkpt lat="43.37545" lon="6.7">
        <ele>119.8</ele>
        <time>2022-10-09T13:31:46Z</time>
      </trkpt>
      <trkpt lat="43.37547" lon="6.70001">
        <ele>120</ele>
        <time>2022-10-09T13:31:47Z</time>
      </trkpt>
      <trkpt lat="43.37548" lon="6.70001">
        <ele>120.2</ele>
        <time>2022-10-09T13:31:48Z</time>
      </trkpt>
      <trkpt lat="43.3755" lon="6.70002">
        <ele>120.3</ele>
        <time>2022-10-09T13:31:49Z</time>
      </trkpt>
      <trkpt lat="43.37551" lon="6.70002">
        <ele>120.5</ele>
        <time>2022-10-09T13:31:50Z</time>
      </trkpt>
      <trkpt lat="43.37553" lon="6.70003">
        <ele>120.7</ele>
        <time>2022-10-09T13:31:51Z</time>
      </trkpt>
      <trkpt lat="43.37554" lon="6.70003">
        <ele>120.8</ele>
        <time>2022-10-09T13:31:52Z</time>
      </trkpt>
      <trkpt lat="43.37556" lon="6.70004">
        <ele>121</ele>
        <time>2022-10-09T13:31:53Z</time>
      </trkpt>
      <trkpt lat="43.37557" lon="6.70004">
        <ele>121.2</ele>
        <time>2022-10-09T13:31:54Z</time>
      </trkpt>
      <trkpt lat="43.37559" lon="6.70005">
        <ele>121.4</ele>
        <time>2022-10-09T13:31:55Z</time>
      </trkpt>
      <trkpt lat="43.3756" lon="6.70005">
        <ele>121.6</ele>
        <time>2022-10-09T13:31:56Z</time>
      </trkpt>
      <trkpt lat="43.37561" lon="6.70005">
        <ele>121.8</ele>
        <time>2022-10-09T13:31:57Z</time>
      </trkpt>
      <trkpt lat="43.37563" lon="6.70005">
        <ele>122</ele>
        <time>2022-10-09T13:31:58Z</time>
      </trkpt>
      <trkpt lat="43.37564" lon="6.70005">
        <ele>122.2</ele>
        <time>2022-10-09T13:31:59Z</time>
      </trkpt>
      <trkpt lat="43.37566" lon="6.70005">
        <ele>122.4</ele>
        <time>2022-10-09T13:32:00Z</time>
      </trkpt>
      <trkpt lat="43.37568" lon="6.70005">
        <ele>122.6</ele>
        <time>2022-10-09T13:32:01Z</time>
      </trkpt>
      <trkpt lat="43.37569" lon="6.70005">
        <ele>122.8</ele>
        <time>2022-10-09T13:32:02Z</time>
      </trkpt>
      <trkpt lat="43.37571" lon="6.70004">
        <ele>123</ele>
        <time>2022-10-09T13:32:03Z</time>
      </trkpt>
      <trkpt lat="43.37572" lon="6.70004">
        <ele>123.2</ele>
        <time>2022-10-09T13:32:04Z</time>
      </trkpt>
      <trkpt lat="43.37574" lon="6.70003">
        <ele>123.4</ele>
        <time>2022-10-09T13:32:05Z</time>
      </trkpt>
      <trkpt lat="43.37575" lon="6.70003">
        <ele>123.6</ele>
        <time>2022-10-09T13:32:06Z</time>
      </trkpt>
      <trkpt lat="43.37576" lon="6.70003">
        <ele>123.7</ele>
        <time>2022-10-09T13:32:07Z</time>
      </trkpt>
      <trkpt lat="43.37578" lon="6.70002">
        <ele>123.9</ele>
        <time>2022-10-09T13:32:08Z</time>
      </trkpt>
      <trkpt lat="43.37579" lon="6.70002">
        <ele>124.2</ele>
        <time>2022-10-09T13:32:09Z</time>
      </trkpt>
      <trkpt lat="43.3758" lon="6.70002">
        <ele>124.2</ele>
        <time>2022-10-09T13:32:10Z</time>
      </trkpt>
      <trkpt lat="43.37582" lon="6.70001">
        <ele>124.2</ele>
        <time>2022-10-09T13:32:11Z</time>
      </trkpt>
      <trkpt lat="43.37583" lon="6.7">
        <ele>124.2</ele>
        <time>2022-10-09T13:32:12Z</time>
      </trkpt>
      <trkpt lat="43.37584" lon="6.69999">
        <ele>124.3</ele>
        <time>2022-10-09T13:32:13Z</time>
      </trkpt>
      <trkpt lat="43.37586" lon="6.69999">
        <ele>124.3</ele>
        <time>2022-10-09T13:32:14Z</time>
      </trkpt>
      <trkpt lat="43.37587" lon="6.69999">
        <ele>124.4</ele>
        <time>2022-10-09T13:32:15Z</time>
      </trkpt>
      <trkpt lat="43.37589" lon="6.69999">
        <ele>124.5</ele>
        <time>2022-10-09T13:32:16Z</time>
      </trkpt>
      <trkpt lat="43.37591" lon="6.7">
        <ele>124.6</ele>
        <time>2022-10-09T13:32:17Z</time>
      </trkpt>
      <trkpt lat="43.37593" lon="6.7">
        <ele>124.6</ele>
        <time>2022-10-09T13:32:18Z</time>
      </trkpt>
      <trkpt lat="43.37595" lon="6.7">
        <ele>124.7</ele>
        <time>2022-10-09T13:32:19Z</time>
      </trkpt>
      <trkpt lat="43.37597" lon="6.7">
        <ele>124.7</ele>
        <time>2022-10-09T13:32:20Z</time>
      </trkpt>
      <trkpt lat="43.376" lon="6.7">
        <ele>124.8</ele>
        <time>2022-10-09T13:32:21Z</time>
      </trkpt>
      <trkpt lat="43.37602" lon="6.69999">
        <ele>124.8</ele>
        <time>2022-10-09T13:32:22Z</time>
      </trkpt>
      <trkpt lat="43.37605" lon="6.69998">
        <ele>124.8</ele>
        <time>2022-10-09T13:32:23Z</time>
      </trkpt>
      <trkpt lat="43.37607" lon="6.69997">
        <ele>124.8</ele>
        <time>2022-10-09T13:32:24Z</time>
      </trkpt>
      <trkpt lat="43.37609" lon="6.69995">
        <ele>124.8</ele>
        <time>2022-10-09T13:32:25Z</time>
      </trkpt>
      <trkpt lat="43.37611" lon="6.69993">
        <ele>124.7</ele>
        <time>2022-10-09T13:32:26Z</time>
      </trkpt>
      <trkpt lat="43.37614" lon="6.69991">
        <ele>124.6</ele>
        <time>2022-10-09T13:32:27Z</time>
      </trkpt>
      <trkpt lat="43.37618" lon="6.69988">
        <ele>124.5</ele>
        <time>2022-10-09T13:32:28Z</time>
      </trkpt>
      <trkpt lat="43.37622" lon="6.69986">
        <ele>124.4</ele>
        <time>2022-10-09T13:32:29Z</time>
      </trkpt>
      <trkpt lat="43.37626" lon="6.69984">
        <ele>124.2</ele>
        <time>2022-10-09T13:32:30Z</time>
      </trkpt>
      <trkpt lat="43.37631" lon="6.69982">
        <ele>124</ele>
        <time>2022-10-09T13:32:31Z</time>
      </trkpt>
      <trkpt lat="43.37643" lon="6.6998">
        <ele>123.5</ele>
        <time>2022-10-09T13:32:34Z</time>
      </trkpt>
      <trkpt lat="43.37645" lon="6.69979">
        <ele>123.4</ele>
        <time>2022-10-09T13:32:35Z</time>
      </trkpt>
      <trkpt lat="43.37647" lon="6.69978">
        <ele>123.3</ele>
        <time>2022-10-09T13:32:36Z</time>
      </trkpt>
      <trkpt lat="43.37649" lon="6.69978">
        <ele>123.1</ele>
        <time>2022-10-09T13:32:37Z</time>
      </trkpt>
      <trkpt lat="43.37651" lon="6.69978">
        <ele>123</ele>
        <time>2022-10-09T13:32:38Z</time>
      </trkpt>
      <trkpt lat="43.37653" lon="6.69977">
        <ele>122.8</ele>
        <time>2022-10-09T13:32:39Z</time>
      </trkpt>
      <trkpt lat="43.37655" lon="6.69977">
        <ele>122.6</ele>
        <time>2022-10-09T13:32:40Z</time>
      </trkpt>
      <trkpt lat="43.37661" lon="6.69974">
        <ele>122.1</ele>
        <time>2022-10-09T13:32:42Z</time>
      </trkpt>
      <trkpt lat="43.37669" lon="6.69968">
        <ele>121.2</ele>
        <time>2022-10-09T13:32:45Z</time>
      </trkpt>
      <trkpt lat="43.37679" lon="6.6996">
        <ele>120</ele>
        <time>2022-10-09T13:32:48Z</time>
      </trkpt>
      <trkpt lat="43.37685" lon="6.69954">
        <ele>119.3</ele>
        <time>2022-10-09T13:32:50Z</time>
      </trkpt>
      <trkpt lat="43.37688" lon="6.69952">
        <ele>119</ele>
        <time>2022-10-09T13:32:51Z</time>
      </trkpt>
      <trkpt lat="43.37691" lon="6.69949">
        <ele>118.7</ele>
        <time>2022-10-09T13:32:52Z</time>
      </trkpt>
      <trkpt lat="43.37697" lon="6.69941">
        <ele>118.1</ele>
        <time>2022-10-09T13:32:54Z</time>
      </trkpt>
      <trkpt lat="43.37705" lon="6.69933">
        <ele>117.6</ele>
        <time>2022-10-09T13:32:56Z</time>
      </trkpt>
      <trkpt lat="43.37709" lon="6.6993">
        <ele>117.4</ele>
        <time>2022-10-09T13:32:57Z</time>
      </trkpt>
      <trkpt lat="43.37713" lon="6.69929">
        <ele>117.2</ele>
        <time>2022-10-09T13:32:58Z</time>
      </trkpt>
      <trkpt lat="43.37717" lon="6.69931">
        <ele>117.1</ele>
        <time>2022-10-09T13:32:59Z</time>
      </trkpt>
      <trkpt lat="43.3772" lon="6.69934">
        <ele>117.1</ele>
        <time>2022-10-09T13:33:00Z</time>
      </trkpt>
      <trkpt lat="43.37722" lon="6.69938">
        <ele>117</ele>
        <time>2022-10-09T13:33:01Z</time>
      </trkpt>
      <trkpt lat="43.37723" lon="6.69941">
        <ele>117</ele>
        <time>2022-10-09T13:33:02Z</time>
      </trkpt>
      <trkpt lat="43.37724" lon="6.69942">
        <ele>117.1</ele>
        <time>2022-10-09T13:33:03Z</time>
      </trkpt>
      <trkpt lat="43.37725" lon="6.69943">
        <ele>117.1</ele>
        <time>2022-10-09T13:33:04Z</time>
      </trkpt>
      <trkpt lat="43.37725" lon="6.69943">
        <ele>117.1</ele>
        <time>2022-10-09T13:33:05Z</time>
      </trkpt>
      <trkpt lat="43.37725" lon="6.69944">
        <ele>117.1</ele>
        <time>2022-10-09T13:33:06Z</time>
      </trkpt>
      <trkpt lat="43.37726" lon="6.69945">
        <ele>117.1</ele>
        <time>2022-10-09T13:33:07Z</time>
      </trkpt>
      <trkpt lat="43.37729" lon="6.69952">
        <ele>117.3</ele>
        <time>2022-10-09T13:33:13Z</time>
      </trkpt>
      <trkpt lat="43.37729" lon="6.69953">
        <ele>117.3</ele>
        <time>2022-10-09T13:33:14Z</time>
      </trkpt>
      <trkpt lat="43.37729" lon="6.69954">
        <ele>117.3</ele>
        <time>2022-10-09T13:33:15Z</time>
      </trkpt>
      <trkpt lat="43.37729" lon="6.69954">
        <ele>117.4</ele>
        <time>2022-10-09T13:33:16Z</time>
      </trkpt>
      <trkpt lat="43.3773" lon="6.69955">
        <ele>117.4</ele>
        <time>2022-10-09T13:33:17Z</time>
      </trkpt>
      <trkpt lat="43.3773" lon="6.69955">
        <ele>117.4</ele>
        <time>2022-10-09T13:33:18Z</time>
      </trkpt>
      <trkpt lat="43.37735" lon="6.69962">
        <ele>117.8</ele>
        <time>2022-10-09T13:33:27Z</time>
      </trkpt>
      <trkpt lat="43.37737" lon="6.69964">
        <ele>117.9</ele>
        <time>2022-10-09T13:33:28Z</time>
      </trkpt>
      <trkpt lat="43.37744" lon="6.69975">
        <ele>118.5</ele>
        <time>2022-10-09T13:33:33Z</time>
      </trkpt>
      <trkpt lat="43.37745" lon="6.69976">
        <ele>118.7</ele>
        <time>2022-10-09T13:33:34Z</time>
      </trkpt>
      <trkpt lat="43.37746" lon="6.69978">
        <ele>118.8</ele>
        <time>2022-10-09T13:33:35Z</time>
      </trkpt>
      <trkpt lat="43.37747" lon="6.69979">
        <ele>118.9</ele>
        <time>2022-10-09T13:33:36Z</time>
      </trkpt>
      <trkpt lat="43.37748" lon="6.6998">
        <ele>119</ele>
        <time>2022-10-09T13:33:37Z</time>
      </trkpt>
      <trkpt lat="43.37749" lon="6.69982">
        <ele>119.1</ele>
        <time>2022-10-09T13:33:38Z</time>
      </trkpt>
      <trkpt lat="43.3775" lon="6.69983">
        <ele>119.3</ele>
        <time>2022-10-09T13:33:40Z</time>
      </trkpt>
      <trkpt lat="43.3775" lon="6.69983">
        <ele>119.3</ele>
        <time>2022-10-09T13:33:41Z</time>
      </trkpt>
      <trkpt lat="43.37751" lon="6.69982">
        <ele>119.4</ele>
        <time>2022-10-09T13:33:42Z</time>
      </trkpt>
      <trkpt lat="43.37767" lon="6.69997">
        <ele>121.5</ele>
        <time>2022-10-09T13:34:09Z</time>
      </trkpt>
      <trkpt lat="43.3777" lon="6.69998">
        <ele>121.8</ele>
        <time>2022-10-09T13:34:11Z</time>
      </trkpt>
      <trkpt lat="43.37772" lon="6.69999">
        <ele>121.9</ele>
        <time>2022-10-09T13:34:12Z</time>
      </trkpt>
      <trkpt lat="43.37775" lon="6.70002">
        <ele>122.3</ele>
        <time>2022-10-09T13:34:14Z</time>
      </trkpt>
      <trkpt lat="43.37777" lon="6.70006">
        <ele>122.6</ele>
        <time>2022-10-09T13:34:16Z</time>
      </trkpt>
      <trkpt lat="43.37779" lon="6.70008">
        <ele>122.8</ele>
        <time>2022-10-09T13:34:17Z</time>
      </trkpt>
      <trkpt lat="43.37781" lon="6.70011">
        <ele>123.2</ele>
        <time>2022-10-09T13:34:19Z</time>
      </trkpt>
      <trkpt lat="43.37782" lon="6.70013">
        <ele>123.3</ele>
        <time>2022-10-09T13:34:20Z</time>
      </trkpt>
      <trkpt lat="43.37783" lon="6.70014">
        <ele>123.5</ele>
        <time>2022-10-09T13:34:21Z</time>
      </trkpt>
      <trkpt lat="43.37784" lon="6.70016">
        <ele>123.7</ele>
        <time>2022-10-09T13:34:22Z</time>
      </trkpt>
      <trkpt lat="43.37785" lon="6.70017">
        <ele>123.8</ele>
        <time>2022-10-09T13:34:23Z</time>
      </trkpt>
      <trkpt lat="43.37787" lon="6.70017">
        <ele>123.9</ele>
        <time>2022-10-09T13:34:24Z</time>
      </trkpt>
      <trkpt lat="43.37789" lon="6.70018">
        <ele>124.3</ele>
        <time>2022-10-09T13:34:26Z</time>
      </trkpt>
      <trkpt lat="43.37791" lon="6.70019">
        <ele>124.5</ele>
        <time>2022-10-09T13:34:27Z</time>
      </trkpt>
      <trkpt lat="43.37792" lon="6.7002">
        <ele>124.7</ele>
        <time>2022-10-09T13:34:28Z</time>
      </trkpt>
      <trkpt lat="43.37793" lon="6.7002">
        <ele>124.8</ele>
        <time>2022-10-09T13:34:29Z</time>
      </trkpt>
      <trkpt lat="43.37794" lon="6.7002">
        <ele>124.9</ele>
        <time>2022-10-09T13:34:30Z</time>
      </trkpt>
      <trkpt lat="43.37794" lon="6.7002">
        <ele>125</ele>
        <time>2022-10-09T13:34:31Z</time>
      </trkpt>
      <trkpt lat="43.37819" lon="6.70025">
        <ele>128.8</ele>
        <time>2022-10-09T13:35:13Z</time>
      </trkpt>
      <trkpt lat="43.37821" lon="6.70026">
        <ele>129</ele>
        <time>2022-10-09T13:35:14Z</time>
      </trkpt>
      <trkpt lat="43.37823" lon="6.70026">
        <ele>129.2</ele>
        <time>2022-10-09T13:35:15Z</time>
      </trkpt>
      <trkpt lat="43.37824" lon="6.70026">
        <ele>129.4</ele>
        <time>2022-10-09T13:35:16Z</time>
      </trkpt>
      <trkpt lat="43.37831" lon="6.70027">
        <ele>130.2</ele>
        <time>2022-10-09T13:35:20Z</time>
      </trkpt>
      <trkpt lat="43.37833" lon="6.70027">
        <ele>130.3</ele>
        <time>2022-10-09T13:35:21Z</time>
      </trkpt>
      <trkpt lat="43.37836" lon="6.70028">
        <ele>130.6</ele>
        <time>2022-10-09T13:35:23Z</time>
      </trkpt>
      <trkpt lat="43.37837" lon="6.70028">
        <ele>130.7</ele>
        <time>2022-10-09T13:35:24Z</time>
      </trkpt>
      <trkpt lat="43.37839" lon="6.70029">
        <ele>130.9</ele>
        <time>2022-10-09T13:35:25Z</time>
      </trkpt>
      <trkpt lat="43.3784" lon="6.70029">
        <ele>131</ele>
        <time>2022-10-09T13:35:26Z</time>
      </trkpt>
      <trkpt lat="43.37848" lon="6.70033">
        <ele>131.6</ele>
        <time>2022-10-09T13:35:31Z</time>
      </trkpt>
      <trkpt lat="43.37849" lon="6.70033">
        <ele>131.7</ele>
        <time>2022-10-09T13:35:32Z</time>
      </trkpt>
      <trkpt lat="43.37862" lon="6.70041">
        <ele>132.4</ele>
        <time>2022-10-09T13:35:39Z</time>
      </trkpt>
      <trkpt lat="43.37864" lon="6.70042">
        <ele>132.4</ele>
        <time>2022-10-09T13:35:40Z</time>
      </trkpt>
      <trkpt lat="43.37865" lon="6.70044">
        <ele>132.5</ele>
        <time>2022-10-09T13:35:41Z</time>
      </trkpt>
      <trkpt lat="43.37867" lon="6.70045">
        <ele>132.5</ele>
        <time>2022-10-09T13:35:42Z</time>
      </trkpt>
      <trkpt lat="43.37876" lon="6.70055">
        <ele>132.6</ele>
        <time>2022-10-09T13:35:46Z</time>
      </trkpt>
      <trkpt lat="43.37891" lon="6.70072">
        <ele>132.3</ele>
        <time>2022-10-09T13:35:51Z</time>
      </trkpt>
      <trkpt lat="43.37896" lon="6.70083">
        <ele>132</ele>
        <time>2022-10-09T13:35:53Z</time>
      </trkpt>
      <trkpt lat="43.37897" lon="6.7009">
        <ele>131.8</ele>
        <time>2022-10-09T13:35:54Z</time>
      </trkpt>
      <trkpt lat="43.37898" lon="6.70097">
        <ele>131.5</ele>
        <time>2022-10-09T13:35:55Z</time>
      </trkpt>
      <trkpt lat="43.379" lon="6.70104">
        <ele>131.2</ele>
        <time>2022-10-09T13:35:56Z</time>
      </trkpt>
      <trkpt lat="43.37907" lon="6.70129">
        <ele>130</ele>
        <time>2022-10-09T13:35:59Z</time>
      </trkpt>
      <trkpt lat="43.37909" lon="6.70138">
        <ele>129.6</ele>
        <time>2022-10-09T13:36:00Z</time>
      </trkpt>
      <trkpt lat="43.37912" lon="6.70148">
        <ele>129.3</ele>
        <time>2022-10-09T13:36:01Z</time>
      </trkpt>
      <trkpt lat="43.37917" lon="6.70168">
        <ele>128.8</ele>
        <time>2022-10-09T13:36:03Z</time>
      </trkpt>
      <trkpt lat="43.37921" lon="6.70176">
        <ele>128.7</ele>
        <time>2022-10-09T13:36:04Z</time>
      </trkpt>
      <trkpt lat="43.37924" lon="6.70183">
        <ele>128.5</ele>
        <time>2022-10-09T13:36:05Z</time>
      </trkpt>
      <trkpt lat="43.37927" lon="6.70188">
        <ele>128.8</ele>
        <time>2022-10-09T13:36:06Z</time>
      </trkpt>
      <trkpt lat="43.3793" lon="6.70193">
        <ele>129</ele>
        <time>2022-10-09T13:36:07Z</time>
      </trkpt>
      <trkpt lat="43.37933" lon="6.70197">
        <ele>129.2</ele>
        <time>2022-10-09T13:36:08Z</time>
      </trkpt>
      <trkpt lat="43.37936" lon="6.702">
        <ele>129.4</ele>
        <time>2022-10-09T13:36:09Z</time>
      </trkpt>
      <trkpt lat="43.37939" lon="6.70202">
        <ele>129.7</ele>
        <time>2022-10-09T13:36:10Z</time>
      </trkpt>
      <trkpt lat="43.37941" lon="6.70203">
        <ele>130</ele>
        <time>2022-10-09T13:36:11Z</time>
      </trkpt>
      <trkpt lat="43.37944" lon="6.70205">
        <ele>130.3</ele>
        <time>2022-10-09T13:36:12Z</time>
      </trkpt>
      <trkpt lat="43.37947" lon="6.70207">
        <ele>130.7</ele>
        <time>2022-10-09T13:36:13Z</time>
      </trkpt>
      <trkpt lat="43.37948" lon="6.70208">
        <ele>131.1</ele>
        <time>2022-10-09T13:36:14Z</time>
      </trkpt>
      <trkpt lat="43.3795" lon="6.70209">
        <ele>131.4</ele>
        <time>2022-10-09T13:36:15Z</time>
      </trkpt>
      <trkpt lat="43.37952" lon="6.7021">
        <ele>131.8</ele>
        <time>2022-10-09T13:36:16Z</time>
      </trkpt>
      <trkpt lat="43.37953" lon="6.7021">
        <ele>132</ele>
        <time>2022-10-09T13:36:17Z</time>
      </trkpt>
      <trkpt lat="43.37953" lon="6.7021">
        <ele>132.1</ele>
        <time>2022-10-09T13:36:18Z</time>
      </trkpt>
      <trkpt lat="43.37953" lon="6.7021">
        <ele>132.2</ele>
        <time>2022-10-09T13:36:19Z</time>
      </trkpt>
      <trkpt lat="43.37989" lon="6.70297">
        <ele>147.8</ele>
        <time>2022-10-09T13:38:35Z</time>
      </trkpt>
      <trkpt lat="43.37991" lon="6.70296">
        <ele>147.9</ele>
        <time>2022-10-09T13:38:36Z</time>
      </trkpt>
      <trkpt lat="43.37993" lon="6.70296">
        <ele>148</ele>
        <time>2022-10-09T13:38:37Z</time>
      </trkpt>
      <trkpt lat="43.38009" lon="6.70292">
        <ele>147.9</ele>
        <time>2022-10-09T13:38:42Z</time>
      </trkpt>
      <trkpt lat="43.38034" lon="6.7029">
        <ele>147.6</ele>
        <time>2022-10-09T13:38:48Z</time>
      </trkpt>
      <trkpt lat="43.38038" lon="6.7029">
        <ele>147.6</ele>
        <time>2022-10-09T13:38:49Z</time>
      </trkpt>
      <trkpt lat="43.38041" lon="6.70289">
        <ele>147.6</ele>
        <time>2022-10-09T13:38:50Z</time>
      </trkpt>
      <trkpt lat="43.38045" lon="6.70289">
        <ele>147.5</ele>
        <time>2022-10-09T13:38:51Z</time>
      </trkpt>
      <trkpt lat="43.38049" lon="6.7029">
        <ele>147.5</ele>
        <time>2022-10-09T13:38:52Z</time>
      </trkpt>
      <trkpt lat="43.38052" lon="6.70291">
        <ele>147.4</ele>
        <time>2022-10-09T13:38:53Z</time>
      </trkpt>
      <trkpt lat="43.38056" lon="6.70291">
        <ele>147.4</ele>
        <time>2022-10-09T13:38:54Z</time>
      </trkpt>
      <trkpt lat="43.38079" lon="6.70296">
        <ele>146.6</ele>
        <time>2022-10-09T13:38:59Z</time>
      </trkpt>
      <trkpt lat="43.38085" lon="6.70296">
        <ele>146.3</ele>
        <time>2022-10-09T13:39:00Z</time>
      </trkpt>
      <trkpt lat="43.38091" lon="6.70296">
        <ele>146</ele>
        <time>2022-10-09T13:39:01Z</time>
      </trkpt>
      <trkpt lat="43.38104" lon="6.703">
        <ele>145.2</ele>
        <time>2022-10-09T13:39:03Z</time>
      </trkpt>
      <trkpt lat="43.3811" lon="6.70303">
        <ele>144.8</ele>
        <time>2022-10-09T13:39:04Z</time>
      </trkpt>
      <trkpt lat="43.3814" lon="6.70316">
        <ele>142.9</ele>
        <time>2022-10-09T13:39:08Z</time>
      </trkpt>
      <trkpt lat="43.38147" lon="6.7032">
        <ele>142.5</ele>
        <time>2022-10-09T13:39:09Z</time>
      </trkpt>
      <trkpt lat="43.38154" lon="6.70325">
        <ele>142.1</ele>
        <time>2022-10-09T13:39:10Z</time>
      </trkpt>
      <trkpt lat="43.38161" lon="6.70329">
        <ele>141.7</ele>
        <time>2022-10-09T13:39:11Z</time>
      </trkpt>
      <trkpt lat="43.38181" lon="6.70346">
        <ele>140.5</ele>
        <time>2022-10-09T13:39:14Z</time>
      </trkpt>
      <trkpt lat="43.38187" lon="6.70352">
        <ele>140.1</ele>
        <time>2022-10-09T13:39:15Z</time>
      </trkpt>
      <trkpt lat="43.38192" lon="6.70358">
        <ele>139.7</ele>
        <time>2022-10-09T13:39:16Z</time>
      </trkpt>
      <trkpt lat="43.38198" lon="6.70362">
        <ele>139.3</ele>
        <time>2022-10-09T13:39:17Z</time>
      </trkpt>
      <trkpt lat="43.38205" lon="6.70364">
        <ele>138.8</ele>
        <time>2022-10-09T13:39:18Z</time>
      </trkpt>
      <trkpt lat="43.38211" lon="6.70366">
        <ele>138.4</ele>
        <time>2022-10-09T13:39:19Z</time>
      </trkpt>
      <trkpt lat="43.38216" lon="6.7037">
        <ele>137.9</ele>
        <time>2022-10-09T13:39:20Z</time>
      </trkpt>
      <trkpt lat="43.38221" lon="6.70375">
        <ele>137.4</ele>
        <time>2022-10-09T13:39:21Z</time>
      </trkpt>
      <trkpt lat="43.38226" lon="6.70381">
        <ele>136.8</ele>
        <time>2022-10-09T13:39:22Z</time>
      </trkpt>
      <trkpt lat="43.38231" lon="6.70387">
        <ele>136.2</ele>
        <time>2022-10-09T13:39:23Z</time>
      </trkpt>
      <trkpt lat="43.38236" lon="6.70392">
        <ele>135.4</ele>
        <time>2022-10-09T13:39:24Z</time>
      </trkpt>
      <trkpt lat="43.38243" lon="6.70396">
        <ele>134.6</ele>
        <time>2022-10-09T13:39:25Z</time>
      </trkpt>
      <trkpt lat="43.3825" lon="6.70399">
        <ele>133.9</ele>
        <time>2022-10-09T13:39:26Z</time>
      </trkpt>
      <trkpt lat="43.38272" lon="6.70405">
        <ele>132</ele>
        <time>2022-10-09T13:39:29Z</time>
      </trkpt>
      <trkpt lat="43.38279" lon="6.70407">
        <ele>131.6</ele>
        <time>2022-10-09T13:39:30Z</time>
      </trkpt>
      <trkpt lat="43.38285" lon="6.70412">
        <ele>131.2</ele>
        <time>2022-10-09T13:39:31Z</time>
      </trkpt>
      <trkpt lat="43.3829" lon="6.70418">
        <ele>130.9</ele>
        <time>2022-10-09T13:39:32Z</time>
      </trkpt>
      <trkpt lat="43.38294" lon="6.70425">
        <ele>130.6</ele>
        <time>2022-10-09T13:39:33Z</time>
      </trkpt>
      <trkpt lat="43.38297" lon="6.70431">
        <ele>130.4</ele>
        <time>2022-10-09T13:39:34Z</time>
      </trkpt>
      <trkpt lat="43.383" lon="6.70437">
        <ele>130.2</ele>
        <time>2022-10-09T13:39:35Z</time>
      </trkpt>
      <trkpt lat="43.38303" lon="6.70442">
        <ele>129.9</ele>
        <time>2022-10-09T13:39:36Z</time>
      </trkpt>
      <trkpt lat="43.38307" lon="6.70447">
        <ele>129.7</ele>
        <time>2022-10-09T13:39:37Z</time>
      </trkpt>
      <trkpt lat="43.3831" lon="6.70452">
        <ele>129.6</ele>
        <time>2022-10-09T13:39:38Z</time>
      </trkpt>
      <trkpt lat="43.38314" lon="6.70456">
        <ele>129.4</ele>
        <time>2022-10-09T13:39:39Z</time>
      </trkpt>
      <trkpt lat="43.38322" lon="6.70463">
        <ele>129.1</ele>
        <time>2022-10-09T13:39:41Z</time>
      </trkpt>
      <trkpt lat="43.38327" lon="6.70466">
        <ele>129</ele>
        <time>2022-10-09T13:39:42Z</time>
      </trkpt>
      <trkpt lat="43.38332" lon="6.70469">
        <ele>128.8</ele>
        <time>2022-10-09T13:39:43Z</time>
      </trkpt>
      <trkpt lat="43.38338" lon="6.70472">
        <ele>128.6</ele>
        <time>2022-10-09T13:39:44Z</time>
      </trkpt>
      <trkpt lat="43.38344" lon="6.70477">
        <ele>128.4</ele>
        <time>2022-10-09T13:39:45Z</time>
      </trkpt>
      <trkpt lat="43.3835" lon="6.70482">
        <ele>128.2</ele>
        <time>2022-10-09T13:39:46Z</time>
      </trkpt>
      <trkpt lat="43.3836" lon="6.70498">
        <ele>127.8</ele>
        <time>2022-10-09T13:39:48Z</time>
      </trkpt>
      <trkpt lat="43.38362" lon="6.70505">
        <ele>127.8</ele>
        <time>2022-10-09T13:39:49Z</time>
      </trkpt>
      <trkpt lat="43.38365" lon="6.7051">
        <ele>127.8</ele>
        <time>2022-10-09T13:39:50Z</time>
      </trkpt>
      <trkpt lat="43.38369" lon="6.70514">
        <ele>127.5</ele>
        <time>2022-10-09T13:39:51Z</time>
      </trkpt>
      <trkpt lat="43.38373" lon="6.70516">
        <ele>126.7</ele>
        <time>2022-10-09T13:39:52Z</time>
      </trkpt>
      <trkpt lat="43.38378" lon="6.70516">
        <ele>125.9</ele>
        <time>2022-10-09T13:39:53Z</time>
      </trkpt>
      <trkpt lat="43.38383" lon="6.70516">
        <ele>125</ele>
        <time>2022-10-09T13:39:54Z</time>
      </trkpt>
      <trkpt lat="43.38387" lon="6.70514">
        <ele>124.1</ele>
        <time>2022-10-09T13:39:55Z</time>
      </trkpt>
      <trkpt lat="43.3839" lon="6.70514">
        <ele>123.3</ele>
        <time>2022-10-09T13:39:56Z</time>
      </trkpt>
      <trkpt lat="43.38393" lon="6.70514">
        <ele>122.7</ele>
        <time>2022-10-09T13:39:57Z</time>
      </trkpt>
      <trkpt lat="43.38396" lon="6.70516">
        <ele>122.1</ele>
        <time>2022-10-09T13:39:58Z</time>
      </trkpt>
      <trkpt lat="43.38398" lon="6.70517">
        <ele>121.5</ele>
        <time>2022-10-09T13:39:59Z</time>
      </trkpt>
      <trkpt lat="43.38401" lon="6.70519">
        <ele>120.8</ele>
        <time>2022-10-09T13:40:00Z</time>
      </trkpt>
      <trkpt lat="43.38404" lon="6.70521">
        <ele>119.9</ele>
        <time>2022-10-09T13:40:01Z</time>
      </trkpt>
      <trkpt lat="43.38407" lon="6.70525">
        <ele>118.9</ele>
        <time>2022-10-09T13:40:02Z</time>
      </trkpt>
      <trkpt lat="43.38414" lon="6.70533">
        <ele>117.4</ele>
        <time>2022-10-09T13:40:04Z</time>
      </trkpt>
      <trkpt lat="43.38418" lon="6.70536">
        <ele>116.9</ele>
        <time>2022-10-09T13:40:05Z</time>
      </trkpt>
      <trkpt lat="43.38421" lon="6.70539">
        <ele>116.4</ele>
        <time>2022-10-09T13:40:06Z</time>
      </trkpt>
      <trkpt lat="43.38423" lon="6.70542">
        <ele>116</ele>
        <time>2022-10-09T13:40:07Z</time>
      </trkpt>
      <trkpt lat="43.38425" lon="6.70546">
        <ele>115.5</ele>
        <time>2022-10-09T13:40:08Z</time>
      </trkpt>
      <trkpt lat="43.38428" lon="6.70549">
        <ele>115</ele>
        <time>2022-10-09T13:40:09Z</time>
      </trkpt>
      <trkpt lat="43.38433" lon="6.70557">
        <ele>113.8</ele>
        <time>2022-10-09T13:40:11Z</time>
      </trkpt>
      <trkpt lat="43.38436" lon="6.70561">
        <ele>113.2</ele>
        <time>2022-10-09T13:40:12Z</time>
      </trkpt>
      <trkpt lat="43.38439" lon="6.70566">
        <ele>112.5</ele>
        <time>2022-10-09T13:40:13Z</time>
      </trkpt>
      <trkpt lat="43.38442" lon="6.70571">
        <ele>111.7</ele>
        <time>2022-10-09T13:40:14Z</time>
      </trkpt>
      <trkpt lat="43.3845" lon="6.70579">
        <ele>110.1</ele>
        <time>2022-10-09T13:40:16Z</time>
      </trkpt>
      <trkpt lat="43.38455" lon="6.70581">
        <ele>109.4</ele>
        <time>2022-10-09T13:40:17Z</time>
      </trkpt>
      <trkpt lat="43.38459" lon="6.70581">
        <ele>108.6</ele>
        <time>2022-10-09T13:40:18Z</time>
      </trkpt>
      <trkpt lat="43.38465" lon="6.70582">
        <ele>107.7</ele>
        <time>2022-10-09T13:40:19Z</time>
      </trkpt>
      <trkpt lat="43.38471" lon="6.70582">
        <ele>106.9</ele>
        <time>2022-10-09T13:40:20Z</time>
      </trkpt>
      <trkpt lat="43.38477" lon="6.70582">
        <ele>106.1</ele>
        <time>2022-10-09T13:40:21Z</time>
      </trkpt>
      <trkpt lat="43.38489" lon="6.70583">
        <ele>104.7</ele>
        <time>2022-10-09T13:40:23Z</time>
      </trkpt>
      <trkpt lat="43.38493" lon="6.70586">
        <ele>104.1</ele>
        <time>2022-10-09T13:40:24Z</time>
      </trkpt>
      <trkpt lat="43.38496" lon="6.7059">
        <ele>103.6</ele>
        <time>2022-10-09T13:40:25Z</time>
      </trkpt>
      <trkpt lat="43.38498" lon="6.70595">
        <ele>103</ele>
        <time>2022-10-09T13:40:26Z</time>
      </trkpt>
      <trkpt lat="43.38501" lon="6.706">
        <ele>102.4</ele>
        <time>2022-10-09T13:40:27Z</time>
      </trkpt>
      <trkpt lat="43.38509" lon="6.70611">
        <ele>101</ele>
        <time>2022-10-09T13:40:29Z</time>
      </trkpt>
      <trkpt lat="43.38513" lon="6.70616">
        <ele>100.4</ele>
        <time>2022-10-09T13:40:30Z</time>
      </trkpt>
      <trkpt lat="43.3853" lon="6.70645">
        <ele>98.7</ele>
        <time>2022-10-09T13:40:34Z</time>
      </trkpt>
      <trkpt lat="43.38534" lon="6.70651">
        <ele>98.4</ele>
        <time>2022-10-09T13:40:35Z</time>
      </trkpt>
      <trkpt lat="43.38537" lon="6.70656">
        <ele>98.2</ele>
        <time>2022-10-09T13:40:36Z</time>
      </trkpt>
      <trkpt lat="43.38541" lon="6.70662">
        <ele>98.1</ele>
        <time>2022-10-09T13:40:37Z</time>
      </trkpt>
      <trkpt lat="43.38544" lon="6.70668">
        <ele>98.1</ele>
        <time>2022-10-09T13:40:38Z</time>
      </trkpt>
      <trkpt lat="43.38548" lon="6.70675">
        <ele>98.2</ele>
        <time>2022-10-09T13:40:39Z</time>
      </trkpt>
      <trkpt lat="43.38554" lon="6.70684">
        <ele>98.9</ele>
        <time>2022-10-09T13:40:41Z</time>
      </trkpt>
      <trkpt lat="43.38555" lon="6.70687">
        <ele>99.3</ele>
        <time>2022-10-09T13:40:42Z</time>
      </trkpt>
      <trkpt lat="43.38557" lon="6.7069">
        <ele>99.6</ele>
        <time>2022-10-09T13:40:43Z</time>
      </trkpt>
      <trkpt lat="43.38558" lon="6.70692">
        <ele>99.8</ele>
        <time>2022-10-09T13:40:44Z</time>
      </trkpt>
      <trkpt lat="43.38558" lon="6.70693">
        <ele>100</ele>
        <time>2022-10-09T13:40:45Z</time>
      </trkpt>
      <trkpt lat="43.38559" lon="6.70694">
        <ele>100.1</ele>
        <time>2022-10-09T13:40:46Z</time>
      </trkpt>
      <trkpt lat="43.38559" lon="6.70694">
        <ele>100.2</ele>
        <time>2022-10-09T13:40:47Z</time>
      </trkpt>
      <trkpt lat="43.38605" lon="6.70732">
        <ele>109.1</ele>
        <time>2022-10-09T13:42:03Z</time>
      </trkpt>
      <trkpt lat="43.3861" lon="6.70732">
        <ele>109.3</ele>
        <time>2022-10-09T13:42:06Z</time>
      </trkpt>
      <trkpt lat="43.38627" lon="6.70735">
        <ele>108.9</ele>
        <time>2022-10-09T13:42:13Z</time>
      </trkpt>
      <trkpt lat="43.38629" lon="6.70736">
        <ele>108.8</ele>
        <time>2022-10-09T13:42:14Z</time>
      </trkpt>
      <trkpt lat="43.38631" lon="6.70736">
        <ele>108.7</ele>
        <time>2022-10-09T13:42:15Z</time>
      </trkpt>
      <trkpt lat="43.38632" lon="6.70737">
        <ele>108.5</ele>
        <time>2022-10-09T13:42:16Z</time>
      </trkpt>
      <trkpt lat="43.38634" lon="6.70737">
        <ele>108.3</ele>
        <time>2022-10-09T13:42:17Z</time>
      </trkpt>
      <trkpt lat="43.38636" lon="6.70737">
        <ele>108.2</ele>
        <time>2022-10-09T13:42:18Z</time>
      </trkpt>
      <trkpt lat="43.38637" lon="6.70737">
        <ele>108</ele>
        <time>2022-10-09T13:42:19Z</time>
      </trkpt>
      <trkpt lat="43.38639" lon="6.70738">
        <ele>107.7</ele>
        <time>2022-10-09T13:42:20Z</time>
      </trkpt>
      <trkpt lat="43.38643" lon="6.70738">
        <ele>107.1</ele>
        <time>2022-10-09T13:42:22Z</time>
      </trkpt>
      <trkpt lat="43.38645" lon="6.70739">
        <ele>106.8</ele>
        <time>2022-10-09T13:42:23Z</time>
      </trkpt>
      <trkpt lat="43.38646" lon="6.70739">
        <ele>106.4</ele>
        <time>2022-10-09T13:42:24Z</time>
      </trkpt>
      <trkpt lat="43.38647" lon="6.70739">
        <ele>106.3</ele>
        <time>2022-10-09T13:42:25Z</time>
      </trkpt>
      <trkpt lat="43.38648" lon="6.70739">
        <ele>106.2</ele>
        <time>2022-10-09T13:42:26Z</time>
      </trkpt>
      <trkpt lat="43.38669" lon="6.70726">
        <ele>101.3</ele>
        <time>2022-10-09T13:43:06Z</time>
      </trkpt>
      <trkpt lat="43.38671" lon="6.70728">
        <ele>100.8</ele>
        <time>2022-10-09T13:43:07Z</time>
      </trkpt>
      <trkpt lat="43.38681" lon="6.70727">
        <ele>99.6</ele>
        <time>2022-10-09T13:43:10Z</time>
      </trkpt>
      <trkpt lat="43.38683" lon="6.70725">
        <ele>99.4</ele>
        <time>2022-10-09T13:43:11Z</time>
      </trkpt>
      <trkpt lat="43.38685" lon="6.70724">
        <ele>99.4</ele>
        <time>2022-10-09T13:43:12Z</time>
      </trkpt>
      <trkpt lat="43.38686" lon="6.70724">
        <ele>99.3</ele>
        <time>2022-10-09T13:43:13Z</time>
      </trkpt>
      <trkpt lat="43.38686" lon="6.70723">
        <ele>99.3</ele>
        <time>2022-10-09T13:43:14Z</time>
      </trkpt>
      <trkpt lat="43.38687" lon="6.70723">
        <ele>99.3</ele>
        <time>2022-10-09T13:43:15Z</time>
      </trkpt>
      <trkpt lat="43.38687" lon="6.70723">
        <ele>99.3</ele>
        <time>2022-10-09T13:43:16Z</time>
      </trkpt>
      <trkpt lat="43.38688" lon="6.70723">
        <ele>99.3</ele>
        <time>2022-10-09T13:43:17Z</time>
      </trkpt>
      <trkpt lat="43.38689" lon="6.70723">
        <ele>99.4</ele>
        <time>2022-10-09T13:43:18Z</time>
      </trkpt>
      <trkpt lat="43.3869" lon="6.70722">
        <ele>99.4</ele>
        <time>2022-10-09T13:43:19Z</time>
      </trkpt>
      <trkpt lat="43.38691" lon="6.70722">
        <ele>99.5</ele>
        <time>2022-10-09T13:43:20Z</time>
      </trkpt>
      <trkpt lat="43.38692" lon="6.70721">
        <ele>99.6</ele>
        <time>2022-10-09T13:43:22Z</time>
      </trkpt>
      <trkpt lat="43.38693" lon="6.7072">
        <ele>99.7</ele>
        <time>2022-10-09T13:43:23Z</time>
      </trkpt>
      <trkpt lat="43.38693" lon="6.7072">
        <ele>99.7</ele>
        <time>2022-10-09T13:43:24Z</time>
      </trkpt>
      <trkpt lat="43.38694" lon="6.70719">
        <ele>99.8</ele>
        <time>2022-10-09T13:43:25Z</time>
      </trkpt>
      <trkpt lat="43.38695" lon="6.70719">
        <ele>99.9</ele>
        <time>2022-10-09T13:43:26Z</time>
      </trkpt>
      <trkpt lat="43.38695" lon="6.70719">
        <ele>100</ele>
        <time>2022-10-09T13:43:27Z</time>
      </trkpt>
      <trkpt lat="43.38696" lon="6.70719">
        <ele>100.1</ele>
        <time>2022-10-09T13:43:28Z</time>
      </trkpt>
      <trkpt lat="43.38696" lon="6.70719">
        <ele>100.2</ele>
        <time>2022-10-09T13:43:29Z</time>
      </trkpt>
      <trkpt lat="43.38697" lon="6.70719">
        <ele>100.2</ele>
        <time>2022-10-09T13:43:30Z</time>
      </trkpt>
      <trkpt lat="43.38698" lon="6.7072">
        <ele>100.3</ele>
        <time>2022-10-09T13:43:31Z</time>
      </trkpt>
      <trkpt lat="43.38698" lon="6.7072">
        <ele>100.5</ele>
        <time>2022-10-09T13:43:32Z</time>
      </trkpt>
      <trkpt lat="43.38699" lon="6.7072">
        <ele>100.6</ele>
        <time>2022-10-09T13:43:33Z</time>
      </trkpt>
      <trkpt lat="43.38699" lon="6.7072">
        <ele>100.7</ele>
        <time>2022-10-09T13:43:34Z</time>
      </trkpt>
      <trkpt lat="43.387" lon="6.7072">
        <ele>100.8</ele>
        <time>2022-10-09T13:43:35Z</time>
      </trkpt>
      <trkpt lat="43.387" lon="6.7072">
        <ele>100.8</ele>
        <time>2022-10-09T13:43:37Z</time>
      </trkpt>
      <trkpt lat="43.38731" lon="6.70719">
        <ele>105.5</ele>
        <time>2022-10-09T13:44:26Z</time>
      </trkpt>
      <trkpt lat="43.38732" lon="6.70718">
        <ele>105.6</ele>
        <time>2022-10-09T13:44:27Z</time>
      </trkpt>
      <trkpt lat="43.38745" lon="6.70714">
        <ele>105.5</ele>
        <time>2022-10-09T13:44:33Z</time>
      </trkpt>
      <trkpt lat="43.38759" lon="6.70705">
        <ele>104.7</ele>
        <time>2022-10-09T13:44:37Z</time>
      </trkpt>
      <trkpt lat="43.38763" lon="6.70701">
        <ele>104.4</ele>
        <time>2022-10-09T13:44:38Z</time>
      </trkpt>
      <trkpt lat="43.38767" lon="6.70698">
        <ele>104.1</ele>
        <time>2022-10-09T13:44:39Z</time>
      </trkpt>
      <trkpt lat="43.38776" lon="6.70691">
        <ele>103.5</ele>
        <time>2022-10-09T13:44:41Z</time>
      </trkpt>
      <trkpt lat="43.3878" lon="6.7069">
        <ele>103.2</ele>
        <time>2022-10-09T13:44:42Z</time>
      </trkpt>
      <trkpt lat="43.38784" lon="6.70688">
        <ele>102.9</ele>
        <time>2022-10-09T13:44:43Z</time>
      </trkpt>
      <trkpt lat="43.38788" lon="6.70687">
        <ele>102.6</ele>
        <time>2022-10-09T13:44:44Z</time>
      </trkpt>
      <trkpt lat="43.38791" lon="6.70686">
        <ele>102.4</ele>
        <time>2022-10-09T13:44:45Z</time>
      </trkpt>
      <trkpt lat="43.38794" lon="6.70684">
        <ele>102.1</ele>
        <time>2022-10-09T13:44:46Z</time>
      </trkpt>
      <trkpt lat="43.38797" lon="6.70681">
        <ele>101.7</ele>
        <time>2022-10-09T13:44:47Z</time>
      </trkpt>
      <trkpt lat="43.38812" lon="6.70673">
        <ele>100.2</ele>
        <time>2022-10-09T13:44:50Z</time>
      </trkpt>
      <trkpt lat="43.38818" lon="6.7067">
        <ele>99.6</ele>
        <time>2022-10-09T13:44:51Z</time>
      </trkpt>
      <trkpt lat="43.38827" lon="6.70668">
        <ele>98.6</ele>
        <time>2022-10-09T13:44:53Z</time>
      </trkpt>
      <trkpt lat="43.3883" lon="6.70668">
        <ele>98.2</ele>
        <time>2022-10-09T13:44:54Z</time>
      </trkpt>
      <trkpt lat="43.38833" lon="6.70667">
        <ele>97.7</ele>
        <time>2022-10-09T13:44:55Z</time>
      </trkpt>
      <trkpt lat="43.38836" lon="6.70666">
        <ele>97.2</ele>
        <time>2022-10-09T13:44:56Z</time>
      </trkpt>
      <trkpt lat="43.38839" lon="6.70664">
        <ele>96.8</ele>
        <time>2022-10-09T13:44:57Z</time>
      </trkpt>
      <trkpt lat="43.38841" lon="6.70662">
        <ele>96.3</ele>
        <time>2022-10-09T13:44:58Z</time>
      </trkpt>
      <trkpt lat="43.38843" lon="6.70659">
        <ele>95.8</ele>
        <time>2022-10-09T13:44:59Z</time>
      </trkpt>
      <trkpt lat="43.38846" lon="6.70657">
        <ele>95.3</ele>
        <time>2022-10-09T13:45:00Z</time>
      </trkpt>
      <trkpt lat="43.38856" lon="6.70652">
        <ele>93.8</ele>
        <time>2022-10-09T13:45:03Z</time>
      </trkpt>
      <trkpt lat="43.38862" lon="6.7065">
        <ele>93.1</ele>
        <time>2022-10-09T13:45:04Z</time>
      </trkpt>
      <trkpt lat="43.38867" lon="6.70647">
        <ele>92.6</ele>
        <time>2022-10-09T13:45:05Z</time>
      </trkpt>
      <trkpt lat="43.38872" lon="6.70642">
        <ele>92.3</ele>
        <time>2022-10-09T13:45:06Z</time>
      </trkpt>
      <trkpt lat="43.38875" lon="6.70637">
        <ele>92.1</ele>
        <time>2022-10-09T13:45:07Z</time>
      </trkpt>
      <trkpt lat="43.38877" lon="6.70631">
        <ele>92.2</ele>
        <time>2022-10-09T13:45:08Z</time>
      </trkpt>
      <trkpt lat="43.38879" lon="6.70626">
        <ele>92.3</ele>
        <time>2022-10-09T13:45:09Z</time>
      </trkpt>
      <trkpt lat="43.38881" lon="6.70623">
        <ele>92.5</ele>
        <time>2022-10-09T13:45:10Z</time>
      </trkpt>
      <trkpt lat="43.38882" lon="6.70622">
        <ele>92.7</ele>
        <time>2022-10-09T13:45:11Z</time>
      </trkpt>
      <trkpt lat="43.38882" lon="6.70621">
        <ele>92.7</ele>
        <time>2022-10-09T13:45:12Z</time>
      </trkpt>
      <trkpt lat="43.38882" lon="6.70621">
        <ele>92.7</ele>
        <time>2022-10-09T13:45:14Z</time>
      </trkpt>
      <trkpt lat="43.38882" lon="6.7062">
        <ele>92.8</ele>
        <time>2022-10-09T13:45:15Z</time>
      </trkpt>
      <trkpt lat="43.38883" lon="6.70619">
        <ele>92.9</ele>
        <time>2022-10-09T13:45:17Z</time>
      </trkpt>
      <trkpt lat="43.38886" lon="6.70614">
        <ele>93.6</ele>
        <time>2022-10-09T13:45:23Z</time>
      </trkpt>
      <trkpt lat="43.38886" lon="6.70613">
        <ele>93.7</ele>
        <time>2022-10-09T13:45:24Z</time>
      </trkpt>
      <trkpt lat="43.38886" lon="6.70612">
        <ele>93.9</ele>
        <time>2022-10-09T13:45:25Z</time>
      </trkpt>
      <trkpt lat="43.38887" lon="6.70609">
        <ele>94.2</ele>
        <time>2022-10-09T13:45:27Z</time>
      </trkpt>
      <trkpt lat="43.38887" lon="6.70606">
        <ele>94.7</ele>
        <time>2022-10-09T13:45:29Z</time>
      </trkpt>
      <trkpt lat="43.38888" lon="6.70605">
        <ele>94.8</ele>
        <time>2022-10-09T13:45:30Z</time>
      </trkpt>
      <trkpt lat="43.38888" lon="6.70604">
        <ele>95</ele>
        <time>2022-10-09T13:45:31Z</time>
      </trkpt>
      <trkpt lat="43.38889" lon="6.70604">
        <ele>95.2</ele>
        <time>2022-10-09T13:45:32Z</time>
      </trkpt>
      <trkpt lat="43.38889" lon="6.70603">
        <ele>95.3</ele>
        <time>2022-10-09T13:45:33Z</time>
      </trkpt>
      <trkpt lat="43.3889" lon="6.70603">
        <ele>95.4</ele>
        <time>2022-10-09T13:45:34Z</time>
      </trkpt>
      <trkpt lat="43.3889" lon="6.70602">
        <ele>95.5</ele>
        <time>2022-10-09T13:45:35Z</time>
      </trkpt>
      <trkpt lat="43.38891" lon="6.70602">
        <ele>95.6</ele>
        <time>2022-10-09T13:45:36Z</time>
      </trkpt>
      <trkpt lat="43.38891" lon="6.70602">
        <ele>95.7</ele>
        <time>2022-10-09T13:45:37Z</time>
      </trkpt>
      <trkpt lat="43.38892" lon="6.70601">
        <ele>95.8</ele>
        <time>2022-10-09T13:45:38Z</time>
      </trkpt>
      <trkpt lat="43.38892" lon="6.70601">
        <ele>96</ele>
        <time>2022-10-09T13:45:39Z</time>
      </trkpt>
      <trkpt lat="43.38893" lon="6.70601">
        <ele>96.1</ele>
        <time>2022-10-09T13:45:41Z</time>
      </trkpt>
      <trkpt lat="43.38916" lon="6.70595">
        <ele>98.4</ele>
        <time>2022-10-09T13:46:17Z</time>
      </trkpt>
      <trkpt lat="43.38919" lon="6.70593">
        <ele>98.4</ele>
        <time>2022-10-09T13:46:19Z</time>
      </trkpt>
      <trkpt lat="43.38928" lon="6.7058">
        <ele>97.8</ele>
        <time>2022-10-09T13:46:24Z</time>
      </trkpt>
      <trkpt lat="43.3893" lon="6.70578">
        <ele>97.7</ele>
        <time>2022-10-09T13:46:25Z</time>
      </trkpt>
      <trkpt lat="43.38937" lon="6.7057">
        <ele>96.9</ele>
        <time>2022-10-09T13:46:28Z</time>
      </trkpt>
      <trkpt lat="43.3894" lon="6.70568">
        <ele>96.6</ele>
        <time>2022-10-09T13:46:29Z</time>
      </trkpt>
      <trkpt lat="43.3895" lon="6.70562">
        <ele>95.1</ele>
        <time>2022-10-09T13:46:32Z</time>
      </trkpt>
      <trkpt lat="43.38953" lon="6.7056">
        <ele>94.6</ele>
        <time>2022-10-09T13:46:33Z</time>
      </trkpt>
      <trkpt lat="43.38956" lon="6.70559">
        <ele>94</ele>
        <time>2022-10-09T13:46:34Z</time>
      </trkpt>
      <trkpt lat="43.38959" lon="6.70558">
        <ele>93.4</ele>
        <time>2022-10-09T13:46:35Z</time>
      </trkpt>
      <trkpt lat="43.38965" lon="6.70558">
        <ele>92</ele>
        <time>2022-10-09T13:46:37Z</time>
      </trkpt>
      <trkpt lat="43.38968" lon="6.70558">
        <ele>91.2</ele>
        <time>2022-10-09T13:46:38Z</time>
      </trkpt>
      <trkpt lat="43.3897" lon="6.70558">
        <ele>90.7</ele>
        <time>2022-10-09T13:46:39Z</time>
      </trkpt>
      <trkpt lat="43.38971" lon="6.70558">
        <ele>90.4</ele>
        <time>2022-10-09T13:46:40Z</time>
      </trkpt>
      <trkpt lat="43.38972" lon="6.70558">
        <ele>90.3</ele>
        <time>2022-10-09T13:46:41Z</time>
      </trkpt>
      <trkpt lat="43.38972" lon="6.70558">
        <ele>90.1</ele>
        <time>2022-10-09T13:46:42Z</time>
      </trkpt>
      <trkpt lat="43.38973" lon="6.70557">
        <ele>90</ele>
        <time>2022-10-09T13:46:43Z</time>
      </trkpt>
      <trkpt lat="43.38973" lon="6.70557">
        <ele>89.9</ele>
        <time>2022-10-09T13:46:44Z</time>
      </trkpt>
      <trkpt lat="43.38987" lon="6.70548">
        <ele>86.1</ele>
        <time>2022-10-09T13:47:13Z</time>
      </trkpt>
      <trkpt lat="43.38991" lon="6.70543">
        <ele>84.7</ele>
        <time>2022-10-09T13:47:15Z</time>
      </trkpt>
      <trkpt lat="43.38994" lon="6.70539">
        <ele>83.9</ele>
        <time>2022-10-09T13:47:17Z</time>
      </trkpt>
      <trkpt lat="43.38994" lon="6.70538">
        <ele>83.8</ele>
        <time>2022-10-09T13:47:18Z</time>
      </trkpt>
      <trkpt lat="43.38994" lon="6.70537">
        <ele>83.6</ele>
        <time>2022-10-09T13:47:19Z</time>
      </trkpt>
      <trkpt lat="43.38995" lon="6.70537">
        <ele>83.4</ele>
        <time>2022-10-09T13:47:20Z</time>
      </trkpt>
      <trkpt lat="43.38996" lon="6.70535">
        <ele>83.1</ele>
        <time>2022-10-09T13:47:21Z</time>
      </trkpt>
      <trkpt lat="43.38998" lon="6.70532">
        <ele>82.5</ele>
        <time>2022-10-09T13:47:23Z</time>
      </trkpt>
      <trkpt lat="43.38999" lon="6.70531">
        <ele>82</ele>
        <time>2022-10-09T13:47:24Z</time>
      </trkpt>
      <trkpt lat="43.39001" lon="6.70529">
        <ele>81.5</ele>
        <time>2022-10-09T13:47:26Z</time>
      </trkpt>
      <trkpt lat="43.39001" lon="6.70528">
        <ele>81.3</ele>
        <time>2022-10-09T13:47:27Z</time>
      </trkpt>
      <trkpt lat="43.39002" lon="6.70527">
        <ele>81.1</ele>
        <time>2022-10-09T13:47:28Z</time>
      </trkpt>
      <trkpt lat="43.39003" lon="6.70527">
        <ele>80.9</ele>
        <time>2022-10-09T13:47:29Z</time>
      </trkpt>
      <trkpt lat="43.39004" lon="6.70526">
        <ele>80.5</ele>
        <time>2022-10-09T13:47:31Z</time>
      </trkpt>
      <trkpt lat="43.39005" lon="6.70526">
        <ele>80.4</ele>
        <time>2022-10-09T13:47:32Z</time>
      </trkpt>
      <trkpt lat="43.39005" lon="6.70527">
        <ele>80.4</ele>
        <time>2022-10-09T13:47:33Z</time>
      </trkpt>
      <trkpt lat="43.39036" lon="6.70516">
        <ele>70.5</ele>
        <time>2022-10-09T13:48:31Z</time>
      </trkpt>
      <trkpt lat="43.39038" lon="6.70517">
        <ele>70</ele>
        <time>2022-10-09T13:48:32Z</time>
      </trkpt>
      <trkpt lat="43.3904" lon="6.70519">
        <ele>69.4</ele>
        <time>2022-10-09T13:48:33Z</time>
      </trkpt>
      <trkpt lat="43.39042" lon="6.7052">
        <ele>68.8</ele>
        <time>2022-10-09T13:48:34Z</time>
      </trkpt>
      <trkpt lat="43.39047" lon="6.70521">
        <ele>67.7</ele>
        <time>2022-10-09T13:48:36Z</time>
      </trkpt>
      <trkpt lat="43.3905" lon="6.70522">
        <ele>67.2</ele>
        <time>2022-10-09T13:48:37Z</time>
      </trkpt>
      <trkpt lat="43.39052" lon="6.70524">
        <ele>66.6</ele>
        <time>2022-10-09T13:48:38Z</time>
      </trkpt>
      <trkpt lat="43.39053" lon="6.70527">
        <ele>66.4</ele>
        <time>2022-10-09T13:48:39Z</time>
      </trkpt>
      <trkpt lat="43.39053" lon="6.70531">
        <ele>65.9</ele>
        <time>2022-10-09T13:48:40Z</time>
      </trkpt>
      <trkpt lat="43.39056" lon="6.70554">
        <ele>63.4</ele>
        <time>2022-10-09T13:48:44Z</time>
      </trkpt>
      <trkpt lat="43.39059" lon="6.70569">
        <ele>62.2</ele>
        <time>2022-10-09T13:48:46Z</time>
      </trkpt>
      <trkpt lat="43.39067" lon="6.70581">
        <ele>61.6</ele>
        <time>2022-10-09T13:48:48Z</time>
      </trkpt>
      <trkpt lat="43.39071" lon="6.70586">
        <ele>61.4</ele>
        <time>2022-10-09T13:48:49Z</time>
      </trkpt>
      <trkpt lat="43.39075" lon="6.70591">
        <ele>61.2</ele>
        <time>2022-10-09T13:48:50Z</time>
      </trkpt>
      <trkpt lat="43.39078" lon="6.70595">
        <ele>61.1</ele>
        <time>2022-10-09T13:48:51Z</time>
      </trkpt>
      <trkpt lat="43.3908" lon="6.70597">
        <ele>61.1</ele>
        <time>2022-10-09T13:48:52Z</time>
      </trkpt>
      <trkpt lat="43.39082" lon="6.70599">
        <ele>61</ele>
        <time>2022-10-09T13:48:53Z</time>
      </trkpt>
      <trkpt lat="43.39084" lon="6.706">
        <ele>61</ele>
        <time>2022-10-09T13:48:54Z</time>
      </trkpt>
      <trkpt lat="43.39086" lon="6.70601">
        <ele>61</ele>
        <time>2022-10-09T13:48:55Z</time>
      </trkpt>
      <trkpt lat="43.39088" lon="6.70602">
        <ele>60.9</ele>
        <time>2022-10-09T13:48:56Z</time>
      </trkpt>
      <trkpt lat="43.3909" lon="6.70602">
        <ele>60.9</ele>
        <time>2022-10-09T13:48:57Z</time>
      </trkpt>
      <trkpt lat="43.39099" lon="6.70601">
        <ele>60.7</ele>
        <time>2022-10-09T13:49:00Z</time>
      </trkpt>
      <trkpt lat="43.39103" lon="6.70602">
        <ele>60.4</ele>
        <time>2022-10-09T13:49:01Z</time>
      </trkpt>
      <trkpt lat="43.39108" lon="6.70605">
        <ele>59.9</ele>
        <time>2022-10-09T13:49:02Z</time>
      </trkpt>
      <trkpt lat="43.39112" lon="6.70609">
        <ele>59.4</ele>
        <time>2022-10-09T13:49:03Z</time>
      </trkpt>
      <trkpt lat="43.39117" lon="6.70615">
        <ele>58.9</ele>
        <time>2022-10-09T13:49:04Z</time>
      </trkpt>
      <trkpt lat="43.39121" lon="6.70621">
        <ele>58.4</ele>
        <time>2022-10-09T13:49:05Z</time>
      </trkpt>
      <trkpt lat="43.39124" lon="6.70629">
        <ele>58</ele>
        <time>2022-10-09T13:49:06Z</time>
      </trkpt>
      <trkpt lat="43.39126" lon="6.70635">
        <ele>57.6</ele>
        <time>2022-10-09T13:49:07Z</time>
      </trkpt>
      <trkpt lat="43.39129" lon="6.70641">
        <ele>57.3</ele>
        <time>2022-10-09T13:49:08Z</time>
      </trkpt>
      <trkpt lat="43.39132" lon="6.70645">
        <ele>57</ele>
        <time>2022-10-09T13:49:09Z</time>
      </trkpt>
      <trkpt lat="43.39136" lon="6.70649">
        <ele>56.6</ele>
        <time>2022-10-09T13:49:10Z</time>
      </trkpt>
      <trkpt lat="43.39139" lon="6.70652">
        <ele>56.3</ele>
        <time>2022-10-09T13:49:11Z</time>
      </trkpt>
      <trkpt lat="43.39143" lon="6.70657">
        <ele>55.9</ele>
        <time>2022-10-09T13:49:12Z</time>
      </trkpt>
      <trkpt lat="43.39147" lon="6.70661">
        <ele>55.5</ele>
        <time>2022-10-09T13:49:13Z</time>
      </trkpt>
      <trkpt lat="43.39155" lon="6.70671">
        <ele>54.7</ele>
        <time>2022-10-09T13:49:15Z</time>
      </trkpt>
      <trkpt lat="43.39159" lon="6.70673">
        <ele>54.3</ele>
        <time>2022-10-09T13:49:16Z</time>
      </trkpt>
      <trkpt lat="43.39164" lon="6.70674">
        <ele>54</ele>
        <time>2022-10-09T13:49:17Z</time>
      </trkpt>
      <trkpt lat="43.39169" lon="6.70675">
        <ele>53.7</ele>
        <time>2022-10-09T13:49:18Z</time>
      </trkpt>
      <trkpt lat="43.39174" lon="6.70675">
        <ele>53.5</ele>
        <time>2022-10-09T13:49:19Z</time>
      </trkpt>
      <trkpt lat="43.39179" lon="6.70675">
        <ele>53.3</ele>
        <time>2022-10-09T13:49:20Z</time>
      </trkpt>
      <trkpt lat="43.39183" lon="6.70675">
        <ele>53.1</ele>
        <time>2022-10-09T13:49:21Z</time>
      </trkpt>
      <trkpt lat="43.39188" lon="6.70677">
        <ele>52.9</ele>
        <time>2022-10-09T13:49:22Z</time>
      </trkpt>
      <trkpt lat="43.39192" lon="6.7068">
        <ele>52.6</ele>
        <time>2022-10-09T13:49:23Z</time>
      </trkpt>
      <trkpt lat="43.39197" lon="6.70682">
        <ele>52.4</ele>
        <time>2022-10-09T13:49:24Z</time>
      </trkpt>
      <trkpt lat="43.39206" lon="6.70684">
        <ele>51.9</ele>
        <time>2022-10-09T13:49:26Z</time>
      </trkpt>
      <trkpt lat="43.39211" lon="6.70685">
        <ele>51.7</ele>
        <time>2022-10-09T13:49:27Z</time>
      </trkpt>
      <trkpt lat="43.39215" lon="6.70687">
        <ele>51.5</ele>
        <time>2022-10-09T13:49:28Z</time>
      </trkpt>
      <trkpt lat="43.39219" lon="6.70688">
        <ele>51.4</ele>
        <time>2022-10-09T13:49:29Z</time>
      </trkpt>
      <trkpt lat="43.39223" lon="6.7069">
        <ele>51.2</ele>
        <time>2022-10-09T13:49:30Z</time>
      </trkpt>
      <trkpt lat="43.39227" lon="6.70691">
        <ele>51.1</ele>
        <time>2022-10-09T13:49:31Z</time>
      </trkpt>
      <trkpt lat="43.3923" lon="6.70693">
        <ele>50.9</ele>
        <time>2022-10-09T13:49:32Z</time>
      </trkpt>
      <trkpt lat="43.39234" lon="6.70695">
        <ele>50.8</ele>
        <time>2022-10-09T13:49:33Z</time>
      </trkpt>
      <trkpt lat="43.39236" lon="6.70698">
        <ele>50.7</ele>
        <time>2022-10-09T13:49:34Z</time>
      </trkpt>
      <trkpt lat="43.39239" lon="6.70701">
        <ele>50.6</ele>
        <time>2022-10-09T13:49:35Z</time>
      </trkpt>
      <trkpt lat="43.39241" lon="6.70704">
        <ele>50.5</ele>
        <time>2022-10-09T13:49:36Z</time>
      </trkpt>
      <trkpt lat="43.39243" lon="6.70706">
        <ele>50.4</ele>
        <time>2022-10-09T13:49:37Z</time>
      </trkpt>
      <trkpt lat="43.39246" lon="6.70708">
        <ele>50.3</ele>
        <time>2022-10-09T13:49:38Z</time>
      </trkpt>
      <trkpt lat="43.39248" lon="6.7071">
        <ele>50.2</ele>
        <time>2022-10-09T13:49:39Z</time>
      </trkpt>
      <trkpt lat="43.3925" lon="6.70712">
        <ele>50.1</ele>
        <time>2022-10-09T13:49:40Z</time>
      </trkpt>
      <trkpt lat="43.39252" lon="6.70714">
        <ele>50</ele>
        <time>2022-10-09T13:49:41Z</time>
      </trkpt>
      <trkpt lat="43.39254" lon="6.7072">
        <ele>49.9</ele>
        <time>2022-10-09T13:49:43Z</time>
      </trkpt>
      <trkpt lat="43.39254" lon="6.70722">
        <ele>49.8</ele>
        <time>2022-10-09T13:49:44Z</time>
      </trkpt>
      <trkpt lat="43.39256" lon="6.70724">
        <ele>49.8</ele>
        <time>2022-10-09T13:49:45Z</time>
      </trkpt>
      <trkpt lat="43.39258" lon="6.70726">
        <ele>49.7</ele>
        <time>2022-10-09T13:49:46Z</time>
      </trkpt>
      <trkpt lat="43.39261" lon="6.70727">
        <ele>49.6</ele>
        <time>2022-10-09T13:49:47Z</time>
      </trkpt>
      <trkpt lat="43.39266" lon="6.70728">
        <ele>50</ele>
        <time>2022-10-09T13:49:49Z</time>
      </trkpt>
      <trkpt lat="43.39269" lon="6.70729">
        <ele>50.1</ele>
        <time>2022-10-09T13:49:50Z</time>
      </trkpt>
      <trkpt lat="43.39271" lon="6.7073">
        <ele>50.2</ele>
        <time>2022-10-09T13:49:51Z</time>
      </trkpt>
      <trkpt lat="43.39273" lon="6.70731">
        <ele>50.3</ele>
        <time>2022-10-09T13:49:52Z</time>
      </trkpt>
      <trkpt lat="43.39275" lon="6.70733">
        <ele>50.4</ele>
        <time>2022-10-09T13:49:53Z</time>
      </trkpt>
      <trkpt lat="43.39277" lon="6.70735">
        <ele>50.6</ele>
        <time>2022-10-09T13:49:54Z</time>
      </trkpt>
      <trkpt lat="43.39278" lon="6.70736">
        <ele>50.7</ele>
        <time>2022-10-09T13:49:55Z</time>
      </trkpt>
      <trkpt lat="43.3928" lon="6.70738">
        <ele>50.8</ele>
        <time>2022-10-09T13:49:56Z</time>
      </trkpt>
      <trkpt lat="43.39281" lon="6.70739">
        <ele>50.8</ele>
        <time>2022-10-09T13:49:57Z</time>
      </trkpt>
      <trkpt lat="43.39281" lon="6.70739">
        <ele>50.9</ele>
        <time>2022-10-09T13:49:58Z</time>
      </trkpt>
      <trkpt lat="43.39282" lon="6.70739">
        <ele>50.9</ele>
        <time>2022-10-09T13:49:59Z</time>
      </trkpt>
      <trkpt lat="43.39291" lon="6.70738">
        <ele>51.4</ele>
        <time>2022-10-09T13:54:48Z</time>
      </trkpt>
      <trkpt lat="43.39292" lon="6.70734">
        <ele>51.6</ele>
        <time>2022-10-09T13:54:49Z</time>
      </trkpt>
      <trkpt lat="43.39293" lon="6.70728">
        <ele>51.9</ele>
        <time>2022-10-09T13:54:50Z</time>
      </trkpt>
      <trkpt lat="43.39292" lon="6.70722">
        <ele>51.7</ele>
        <time>2022-10-09T13:54:51Z</time>
      </trkpt>
      <trkpt lat="43.39291" lon="6.70717">
        <ele>51.3</ele>
        <time>2022-10-09T13:54:52Z</time>
      </trkpt>
      <trkpt lat="43.3929" lon="6.70714">
        <ele>51.1</ele>
        <time>2022-10-09T13:54:53Z</time>
      </trkpt>
      <trkpt lat="43.39288" lon="6.70711">
        <ele>50.8</ele>
        <time>2022-10-09T13:54:54Z</time>
      </trkpt>
      <trkpt lat="43.39286" lon="6.70707">
        <ele>50.6</ele>
        <time>2022-10-09T13:54:55Z</time>
      </trkpt>
      <trkpt lat="43.39283" lon="6.70704">
        <ele>50.3</ele>
        <time>2022-10-09T13:54:56Z</time>
      </trkpt>
      <trkpt lat="43.39276" lon="6.70699">
        <ele>49.7</ele>
        <time>2022-10-09T13:54:58Z</time>
      </trkpt>
      <trkpt lat="43.39273" lon="6.70697">
        <ele>49.5</ele>
        <time>2022-10-09T13:54:59Z</time>
      </trkpt>
      <trkpt lat="43.39271" lon="6.70695">
        <ele>48.9</ele>
        <time>2022-10-09T13:55:00Z</time>
      </trkpt>
      <trkpt lat="43.3927" lon="6.70693">
        <ele>48.2</ele>
        <time>2022-10-09T13:55:01Z</time>
      </trkpt>
      <trkpt lat="43.39269" lon="6.70692">
        <ele>47.9</ele>
        <time>2022-10-09T13:55:02Z</time>
      </trkpt>
      <trkpt lat="43.39268" lon="6.70692">
        <ele>47.7</ele>
        <time>2022-10-09T13:55:03Z</time>
      </trkpt>
      <trkpt lat="43.39269" lon="6.70691">
        <ele>47.6</ele>
        <time>2022-10-09T13:55:04Z</time>
      </trkpt>
      <trkpt lat="43.39269" lon="6.7069">
        <ele>47.3</ele>
        <time>2022-10-09T13:55:05Z</time>
      </trkpt>
      <trkpt lat="43.39269" lon="6.70689">
        <ele>47</ele>
        <time>2022-10-09T13:55:06Z</time>
      </trkpt>
      <trkpt lat="43.39268" lon="6.70687">
        <ele>46.6</ele>
        <time>2022-10-09T13:55:07Z</time>
      </trkpt>
      <trkpt lat="43.39267" lon="6.70685">
        <ele>45.8</ele>
        <time>2022-10-09T13:55:08Z</time>
      </trkpt>
      <trkpt lat="43.39262" lon="6.70681">
        <ele>44</ele>
        <time>2022-10-09T13:55:10Z</time>
      </trkpt>
      <trkpt lat="43.3926" lon="6.70678">
        <ele>43</ele>
        <time>2022-10-09T13:55:11Z</time>
      </trkpt>
      <trkpt lat="43.39258" lon="6.70671">
        <ele>41.4</ele>
        <time>2022-10-09T13:55:13Z</time>
      </trkpt>
      <trkpt lat="43.39258" lon="6.70669">
        <ele>40.8</ele>
        <time>2022-10-09T13:55:14Z</time>
      </trkpt>
      <trkpt lat="43.39258" lon="6.70668">
        <ele>40.7</ele>
        <time>2022-10-09T13:55:15Z</time>
      </trkpt>
      <trkpt lat="43.39258" lon="6.70668">
        <ele>40.6</ele>
        <time>2022-10-09T13:55:16Z</time>
      </trkpt>
      <trkpt lat="43.39261" lon="6.70661">
        <ele>40.1</ele>
        <time>2022-10-09T13:55:37Z</time>
      </trkpt>
      <trkpt lat="43.39261" lon="6.7066">
        <ele>40</ele>
        <time>2022-10-09T13:55:38Z</time>
      </trkpt>
      <trkpt lat="43.39262" lon="6.7066">
        <ele>40</ele>
        <time>2022-10-09T13:55:39Z</time>
      </trkpt>
      <trkpt lat="43.39262" lon="6.70659">
        <ele>39.9</ele>
        <time>2022-10-09T13:55:40Z</time>
      </trkpt>
      <trkpt lat="43.39263" lon="6.70659">
        <ele>39.9</ele>
        <time>2022-10-09T13:55:41Z</time>
      </trkpt>
      <trkpt lat="43.39269" lon="6.70659">
        <ele>39.4</ele>
        <time>2022-10-09T13:55:44Z</time>
      </trkpt>
      <trkpt lat="43.39274" lon="6.7066">
        <ele>39</ele>
        <time>2022-10-09T13:55:46Z</time>
      </trkpt>
      <trkpt lat="43.39275" lon="6.70659">
        <ele>39</ele>
        <time>2022-10-09T13:55:47Z</time>
      </trkpt>
      <trkpt lat="43.39276" lon="6.70659">
        <ele>39</ele>
        <time>2022-10-09T13:55:48Z</time>
      </trkpt>
      <trkpt lat="43.39276" lon="6.70659">
        <ele>38.9</ele>
        <time>2022-10-09T13:55:49Z</time>
      </trkpt>
      <trkpt lat="43.39277" lon="6.7066">
        <ele>38.9</ele>
        <time>2022-10-09T13:55:50Z</time>
      </trkpt>
      <trkpt lat="43.39278" lon="6.7066">
        <ele>38.9</ele>
        <time>2022-10-09T13:55:51Z</time>
      </trkpt>
      <trkpt lat="43.3928" lon="6.7066">
        <ele>38.9</ele>
        <time>2022-10-09T13:55:54Z</time>
      </trkpt>
      <trkpt lat="43.39281" lon="6.70661">
        <ele>38.9</ele>
        <time>2022-10-09T13:55:55Z</time>
      </trkpt>
      <trkpt lat="43.39282" lon="6.70661">
        <ele>38.9</ele>
        <time>2022-10-09T13:55:56Z</time>
      </trkpt>
      <trkpt lat="43.39282" lon="6.70661">
        <ele>39</ele>
        <time>2022-10-09T13:55:57Z</time>
      </trkpt>
      <trkpt lat="43.39284" lon="6.7066">
        <ele>39</ele>
        <time>2022-10-09T13:56:00Z</time>
      </trkpt>
      <trkpt lat="43.39285" lon="6.7066">
        <ele>39.1</ele>
        <time>2022-10-09T13:56:01Z</time>
      </trkpt>
      <trkpt lat="43.39287" lon="6.70659">
        <ele>39.2</ele>
        <time>2022-10-09T13:56:03Z</time>
      </trkpt>
      <trkpt lat="43.39287" lon="6.70659">
        <ele>39.3</ele>
        <time>2022-10-09T13:56:04Z</time>
      </trkpt>
      <trkpt lat="43.3929" lon="6.70659">
        <ele>39.5</ele>
        <time>2022-10-09T13:56:07Z</time>
      </trkpt>
      <trkpt lat="43.39291" lon="6.70659">
        <ele>39.6</ele>
        <time>2022-10-09T13:56:08Z</time>
      </trkpt>
      <trkpt lat="43.39292" lon="6.70659">
        <ele>39.7</ele>
        <time>2022-10-09T13:56:09Z</time>
      </trkpt>
      <trkpt lat="43.39293" lon="6.70658">
        <ele>39.9</ele>
        <time>2022-10-09T13:56:10Z</time>
      </trkpt>
      <trkpt lat="43.39294" lon="6.70657">
        <ele>40</ele>
        <time>2022-10-09T13:56:11Z</time>
      </trkpt>
      <trkpt lat="43.39295" lon="6.70657">
        <ele>40.1</ele>
        <time>2022-10-09T13:56:12Z</time>
      </trkpt>
      <trkpt lat="43.39296" lon="6.70657">
        <ele>40.2</ele>
        <time>2022-10-09T13:56:13Z</time>
      </trkpt>
      <trkpt lat="43.39296" lon="6.70657">
        <ele>40.3</ele>
        <time>2022-10-09T13:56:14Z</time>
      </trkpt>
      <trkpt lat="43.39297" lon="6.70657">
        <ele>40.5</ele>
        <time>2022-10-09T13:56:15Z</time>
      </trkpt>
      <trkpt lat="43.39298" lon="6.70656">
        <ele>40.6</ele>
        <time>2022-10-09T13:56:16Z</time>
      </trkpt>
      <trkpt lat="43.393" lon="6.70656">
        <ele>40.9</ele>
        <time>2022-10-09T13:56:18Z</time>
      </trkpt>
      <trkpt lat="43.393" lon="6.70656">
        <ele>41</ele>
        <time>2022-10-09T13:56:19Z</time>
      </trkpt>
      <trkpt lat="43.39301" lon="6.70656">
        <ele>41.1</ele>
        <time>2022-10-09T13:56:20Z</time>
      </trkpt>
      <trkpt lat="43.39304" lon="6.70654">
        <ele>41.7</ele>
        <time>2022-10-09T13:56:24Z</time>
      </trkpt>
      <trkpt lat="43.39305" lon="6.70654">
        <ele>41.9</ele>
        <time>2022-10-09T13:56:25Z</time>
      </trkpt>
      <trkpt lat="43.39307" lon="6.70654">
        <ele>42.2</ele>
        <time>2022-10-09T13:56:27Z</time>
      </trkpt>
      <trkpt lat="43.39307" lon="6.70654">
        <ele>42.3</ele>
        <time>2022-10-09T13:56:28Z</time>
      </trkpt>
      <trkpt lat="43.39309" lon="6.70654">
        <ele>42.7</ele>
        <time>2022-10-09T13:56:30Z</time>
      </trkpt>
      <trkpt lat="43.39312" lon="6.70655">
        <ele>43.2</ele>
        <time>2022-10-09T13:56:33Z</time>
      </trkpt>
      <trkpt lat="43.39312" lon="6.70655">
        <ele>43.3</ele>
        <time>2022-10-09T13:56:34Z</time>
      </trkpt>
      <trkpt lat="43.39313" lon="6.70655">
        <ele>43.5</ele>
        <time>2022-10-09T13:56:35Z</time>
      </trkpt>
      <trkpt lat="43.39314" lon="6.70655">
        <ele>43.6</ele>
        <time>2022-10-09T13:56:36Z</time>
      </trkpt>
      <trkpt lat="43.39316" lon="6.70655">
        <ele>44</ele>
        <time>2022-10-09T13:56:39Z</time>
      </trkpt>
      <trkpt lat="43.39317" lon="6.70655">
        <ele>44.3</ele>
        <time>2022-10-09T13:56:41Z</time>
      </trkpt>
      <trkpt lat="43.39318" lon="6.70655">
        <ele>44.4</ele>
        <time>2022-10-09T13:56:42Z</time>
      </trkpt>
      <trkpt lat="43.39318" lon="6.70655">
        <ele>44.5</ele>
        <time>2022-10-09T13:56:43Z</time>
      </trkpt>
      <trkpt lat="43.39319" lon="6.70655">
        <ele>44.6</ele>
        <time>2022-10-09T13:56:44Z</time>
      </trkpt>
      <trkpt lat="43.39321" lon="6.70655">
        <ele>45</ele>
        <time>2022-10-09T13:56:47Z</time>
      </trkpt>
      <trkpt lat="43.39322" lon="6.70655">
        <ele>45.1</ele>
        <time>2022-10-09T13:56:48Z</time>
      </trkpt>
      <trkpt lat="43.39322" lon="6.70655">
        <ele>45.2</ele>
        <time>2022-10-09T13:56:49Z</time>
      </trkpt>
      <trkpt lat="43.39323" lon="6.70655">
        <ele>45.4</ele>
        <time>2022-10-09T13:56:50Z</time>
      </trkpt>
      <trkpt lat="43.39324" lon="6.70655">
        <ele>45.5</ele>
        <time>2022-10-09T13:56:51Z</time>
      </trkpt>
      <trkpt lat="43.39326" lon="6.70655">
        <ele>45.9</ele>
        <time>2022-10-09T13:56:54Z</time>
      </trkpt>
      <trkpt lat="43.39327" lon="6.70655">
        <ele>46</ele>
        <time>2022-10-09T13:56:55Z</time>
      </trkpt>
      <trkpt lat="43.3933" lon="6.70656">
        <ele>46.5</ele>
        <time>2022-10-09T13:56:58Z</time>
      </trkpt>
      <trkpt lat="43.39331" lon="6.70656">
        <ele>46.6</ele>
        <time>2022-10-09T13:57:00Z</time>
      </trkpt>
      <trkpt lat="43.39332" lon="6.70657">
        <ele>46.7</ele>
        <time>2022-10-09T13:57:01Z</time>
      </trkpt>
      <trkpt lat="43.39332" lon="6.70657">
        <ele>46.8</ele>
        <time>2022-10-09T13:57:02Z</time>
      </trkpt>
      <trkpt lat="43.39333" lon="6.70657">
        <ele>46.9</ele>
        <time>2022-10-09T13:57:03Z</time>
      </trkpt>
      <trkpt lat="43.39333" lon="6.70657">
        <ele>46.9</ele>
        <time>2022-10-09T13:57:04Z</time>
      </trkpt>
      <trkpt lat="43.39334" lon="6.70657">
        <ele>47</ele>
        <time>2022-10-09T13:57:05Z</time>
      </trkpt>
      <trkpt lat="43.39334" lon="6.70657">
        <ele>47.1</ele>
        <time>2022-10-09T13:57:06Z</time>
      </trkpt>
      <trkpt lat="43.39335" lon="6.70657">
        <ele>47.2</ele>
        <time>2022-10-09T13:57:07Z</time>
      </trkpt>
      <trkpt lat="43.39336" lon="6.70656">
        <ele>47.2</ele>
        <time>2022-10-09T13:57:08Z</time>
      </trkpt>
      <trkpt lat="43.39336" lon="6.70656">
        <ele>47.3</ele>
        <time>2022-10-09T13:57:09Z</time>
      </trkpt>
      <trkpt lat="43.39337" lon="6.70655">
        <ele>47.4</ele>
        <time>2022-10-09T13:57:11Z</time>
      </trkpt>
      <trkpt lat="43.39338" lon="6.70655">
        <ele>47.4</ele>
        <time>2022-10-09T13:57:12Z</time>
      </trkpt>
      <trkpt lat="43.39338" lon="6.70655">
        <ele>47.5</ele>
        <time>2022-10-09T13:57:13Z</time>
      </trkpt>
      <trkpt lat="43.39346" lon="6.70654">
        <ele>48</ele>
        <time>2022-10-09T13:57:25Z</time>
      </trkpt>
      <trkpt lat="43.39347" lon="6.70653">
        <ele>48.1</ele>
        <time>2022-10-09T13:57:26Z</time>
      </trkpt>
      <trkpt lat="43.39362" lon="6.70655">
        <ele>48.4</ele>
        <time>2022-10-09T13:57:32Z</time>
      </trkpt>
      <trkpt lat="43.39365" lon="6.70657">
        <ele>48.4</ele>
        <time>2022-10-09T13:57:33Z</time>
      </trkpt>
      <trkpt lat="43.39379" lon="6.70666">
        <ele>48.5</ele>
        <time>2022-10-09T13:57:37Z</time>
      </trkpt>
      <trkpt lat="43.39386" lon="6.7067">
        <ele>48.7</ele>
        <time>2022-10-09T13:57:39Z</time>
      </trkpt>
      <trkpt lat="43.39389" lon="6.70672">
        <ele>48.9</ele>
        <time>2022-10-09T13:57:40Z</time>
      </trkpt>
      <trkpt lat="43.39391" lon="6.70672">
        <ele>49</ele>
        <time>2022-10-09T13:57:41Z</time>
      </trkpt>
      <trkpt lat="43.39393" lon="6.70671">
        <ele>49.1</ele>
        <time>2022-10-09T13:57:42Z</time>
      </trkpt>
      <trkpt lat="43.39395" lon="6.70672">
        <ele>49.2</ele>
        <time>2022-10-09T13:57:43Z</time>
      </trkpt>
      <trkpt lat="43.39397" lon="6.70673">
        <ele>49.3</ele>
        <time>2022-10-09T13:57:44Z</time>
      </trkpt>
      <trkpt lat="43.39398" lon="6.70674">
        <ele>49.5</ele>
        <time>2022-10-09T13:57:45Z</time>
      </trkpt>
      <trkpt lat="43.394" lon="6.70676">
        <ele>49.6</ele>
        <time>2022-10-09T13:57:46Z</time>
      </trkpt>
      <trkpt lat="43.39402" lon="6.70677">
        <ele>49.8</ele>
        <time>2022-10-09T13:57:47Z</time>
      </trkpt>
      <trkpt lat="43.39404" lon="6.70678">
        <ele>49.9</ele>
        <time>2022-10-09T13:57:48Z</time>
      </trkpt>
      <trkpt lat="43.39405" lon="6.70678">
        <ele>50.1</ele>
        <time>2022-10-09T13:57:49Z</time>
      </trkpt>
      <trkpt lat="43.39407" lon="6.70679">
        <ele>50.2</ele>
        <time>2022-10-09T13:57:50Z</time>
      </trkpt>
      <trkpt lat="43.3941" lon="6.7068">
        <ele>50.5</ele>
        <time>2022-10-09T13:57:52Z</time>
      </trkpt>
      <trkpt lat="43.39412" lon="6.7068">
        <ele>50.7</ele>
        <time>2022-10-09T13:57:53Z</time>
      </trkpt>
      <trkpt lat="43.39417" lon="6.70679">
        <ele>51.2</ele>
        <time>2022-10-09T13:57:56Z</time>
      </trkpt>
      <trkpt lat="43.3942" lon="6.70679">
        <ele>51.5</ele>
        <time>2022-10-09T13:57:58Z</time>
      </trkpt>
      <trkpt lat="43.39423" lon="6.7068">
        <ele>51.8</ele>
        <time>2022-10-09T13:58:00Z</time>
      </trkpt>
      <trkpt lat="43.39427" lon="6.7068">
        <ele>52.1</ele>
        <time>2022-10-09T13:58:02Z</time>
      </trkpt>
      <trkpt lat="43.39429" lon="6.7068">
        <ele>52.3</ele>
        <time>2022-10-09T13:58:03Z</time>
      </trkpt>
      <trkpt lat="43.3943" lon="6.7068">
        <ele>52.4</ele>
        <time>2022-10-09T13:58:04Z</time>
      </trkpt>
      <trkpt lat="43.39432" lon="6.70679">
        <ele>52.5</ele>
        <time>2022-10-09T13:58:05Z</time>
      </trkpt>
      <trkpt lat="43.39433" lon="6.70678">
        <ele>52.6</ele>
        <time>2022-10-09T13:58:06Z</time>
      </trkpt>
      <trkpt lat="43.39442" lon="6.70681">
        <ele>53.2</ele>
        <time>2022-10-09T13:58:11Z</time>
      </trkpt>
      <trkpt lat="43.39447" lon="6.70684">
        <ele>53.6</ele>
        <time>2022-10-09T13:58:14Z</time>
      </trkpt>
      <trkpt lat="43.39453" lon="6.70685">
        <ele>54</ele>
        <time>2022-10-09T13:58:17Z</time>
      </trkpt>
      <trkpt lat="43.39455" lon="6.70685">
        <ele>54.2</ele>
        <time>2022-10-09T13:58:18Z</time>
      </trkpt>
      <trkpt lat="43.39456" lon="6.70685">
        <ele>54.3</ele>
        <time>2022-10-09T13:58:19Z</time>
      </trkpt>
      <trkpt lat="43.39457" lon="6.70685">
        <ele>54.4</ele>
        <time>2022-10-09T13:58:20Z</time>
      </trkpt>
      <trkpt lat="43.39458" lon="6.70685">
        <ele>54.5</ele>
        <time>2022-10-09T13:58:21Z</time>
      </trkpt>
      <trkpt lat="43.39458" lon="6.70685">
        <ele>54.5</ele>
        <time>2022-10-09T13:58:22Z</time>
      </trkpt>
      <trkpt lat="43.39459" lon="6.70684">
        <ele>54.6</ele>
        <time>2022-10-09T13:58:23Z</time>
      </trkpt>
      <trkpt lat="43.39459" lon="6.70684">
        <ele>54.6</ele>
        <time>2022-10-09T13:58:24Z</time>
      </trkpt>
      <trkpt lat="43.39459" lon="6.70684">
        <ele>54.6</ele>
        <time>2022-10-09T13:58:25Z</time>
      </trkpt>
      <trkpt lat="43.39471" lon="6.70669">
        <ele>55.9</ele>
        <time>2022-10-09T13:58:54Z</time>
      </trkpt>
      <trkpt lat="43.39475" lon="6.70668">
        <ele>56.1</ele>
        <time>2022-10-09T13:58:56Z</time>
      </trkpt>
      <trkpt lat="43.39485" lon="6.70666">
        <ele>56.6</ele>
        <time>2022-10-09T13:59:00Z</time>
      </trkpt>
      <trkpt lat="43.39489" lon="6.70666">
        <ele>56.9</ele>
        <time>2022-10-09T13:59:02Z</time>
      </trkpt>
      <trkpt lat="43.39491" lon="6.70665">
        <ele>57</ele>
        <time>2022-10-09T13:59:03Z</time>
      </trkpt>
      <trkpt lat="43.39493" lon="6.70665">
        <ele>57.2</ele>
        <time>2022-10-09T13:59:04Z</time>
      </trkpt>
      <trkpt lat="43.39494" lon="6.70664">
        <ele>57.3</ele>
        <time>2022-10-09T13:59:05Z</time>
      </trkpt>
      <trkpt lat="43.39496" lon="6.70663">
        <ele>57.4</ele>
        <time>2022-10-09T13:59:06Z</time>
      </trkpt>
      <trkpt lat="43.39497" lon="6.70662">
        <ele>57.5</ele>
        <time>2022-10-09T13:59:07Z</time>
      </trkpt>
      <trkpt lat="43.39497" lon="6.7066">
        <ele>57.6</ele>
        <time>2022-10-09T13:59:08Z</time>
      </trkpt>
      <trkpt lat="43.39497" lon="6.70659">
        <ele>57.7</ele>
        <time>2022-10-09T13:59:09Z</time>
      </trkpt>
      <trkpt lat="43.39497" lon="6.70657">
        <ele>57.8</ele>
        <time>2022-10-09T13:59:10Z</time>
      </trkpt>
      <trkpt lat="43.39497" lon="6.70655">
        <ele>58</ele>
        <time>2022-10-09T13:59:11Z</time>
      </trkpt>
      <trkpt lat="43.39497" lon="6.70652">
        <ele>58.1</ele>
        <time>2022-10-09T13:59:12Z</time>
      </trkpt>
      <trkpt lat="43.39496" lon="6.70648">
        <ele>58.4</ele>
        <time>2022-10-09T13:59:14Z</time>
      </trkpt>
      <trkpt lat="43.39496" lon="6.70641">
        <ele>58.8</ele>
        <time>2022-10-09T13:59:17Z</time>
      </trkpt>
      <trkpt lat="43.39497" lon="6.70639">
        <ele>58.9</ele>
        <time>2022-10-09T13:59:18Z</time>
      </trkpt>
      <trkpt lat="43.39497" lon="6.70637">
        <ele>59</ele>
        <time>2022-10-09T13:59:19Z</time>
      </trkpt>
      <trkpt lat="43.39498" lon="6.70635">
        <ele>59.1</ele>
        <time>2022-10-09T13:59:20Z</time>
      </trkpt>
      <trkpt lat="43.39499" lon="6.70634">
        <ele>59.2</ele>
        <time>2022-10-09T13:59:21Z</time>
      </trkpt>
      <trkpt lat="43.395" lon="6.70632">
        <ele>59.3</ele>
        <time>2022-10-09T13:59:22Z</time>
      </trkpt>
      <trkpt lat="43.39501" lon="6.7063">
        <ele>59.4</ele>
        <time>2022-10-09T13:59:23Z</time>
      </trkpt>
      <trkpt lat="43.39506" lon="6.70624">
        <ele>59.7</ele>
        <time>2022-10-09T13:59:26Z</time>
      </trkpt>
      <trkpt lat="43.39512" lon="6.70606">
        <ele>60.1</ele>
        <time>2022-10-09T13:59:32Z</time>
      </trkpt>
      <trkpt lat="43.39514" lon="6.70604">
        <ele>60.2</ele>
        <time>2022-10-09T13:59:33Z</time>
      </trkpt>
      <trkpt lat="43.39516" lon="6.70602">
        <ele>60.2</ele>
        <time>2022-10-09T13:59:34Z</time>
      </trkpt>
      <trkpt lat="43.39518" lon="6.70601">
        <ele>60.2</ele>
        <time>2022-10-09T13:59:35Z</time>
      </trkpt>
      <trkpt lat="43.39521" lon="6.706">
        <ele>60.2</ele>
        <time>2022-10-09T13:59:36Z</time>
      </trkpt>
      <trkpt lat="43.39523" lon="6.70599">
        <ele>60.2</ele>
        <time>2022-10-09T13:59:37Z</time>
      </trkpt>
      <trkpt lat="43.39526" lon="6.70598">
        <ele>60.2</ele>
        <time>2022-10-09T13:59:38Z</time>
      </trkpt>
      <trkpt lat="43.39531" lon="6.70597">
        <ele>60.1</ele>
        <time>2022-10-09T13:59:40Z</time>
      </trkpt>
      <trkpt lat="43.39533" lon="6.70597">
        <ele>60</ele>
        <time>2022-10-09T13:59:41Z</time>
      </trkpt>
      <trkpt lat="43.39537" lon="6.70597">
        <ele>59.8</ele>
        <time>2022-10-09T13:59:43Z</time>
      </trkpt>
      <trkpt lat="43.39539" lon="6.70598">
        <ele>59.7</ele>
        <time>2022-10-09T13:59:44Z</time>
      </trkpt>
      <trkpt lat="43.3954" lon="6.706">
        <ele>59.6</ele>
        <time>2022-10-09T13:59:45Z</time>
      </trkpt>
      <trkpt lat="43.39541" lon="6.70602">
        <ele>59.4</ele>
        <time>2022-10-09T13:59:46Z</time>
      </trkpt>
      <trkpt lat="43.39542" lon="6.70607">
        <ele>59.1</ele>
        <time>2022-10-09T13:59:48Z</time>
      </trkpt>
      <trkpt lat="43.39542" lon="6.7061">
        <ele>59</ele>
        <time>2022-10-09T13:59:49Z</time>
      </trkpt>
      <trkpt lat="43.39543" lon="6.70611">
        <ele>58.8</ele>
        <time>2022-10-09T13:59:50Z</time>
      </trkpt>
      <trkpt lat="43.39543" lon="6.70612">
        <ele>58.8</ele>
        <time>2022-10-09T13:59:51Z</time>
      </trkpt>
      <trkpt lat="43.39543" lon="6.70613">
        <ele>58.7</ele>
        <time>2022-10-09T13:59:52Z</time>
      </trkpt>
      <trkpt lat="43.39545" lon="6.70621">
        <ele>57.9</ele>
        <time>2022-10-09T13:59:58Z</time>
      </trkpt>
      <trkpt lat="43.39546" lon="6.70626">
        <ele>57.4</ele>
        <time>2022-10-09T14:00:00Z</time>
      </trkpt>
      <trkpt lat="43.39549" lon="6.7063">
        <ele>56.8</ele>
        <time>2022-10-09T14:00:02Z</time>
      </trkpt>
      <trkpt lat="43.3955" lon="6.70631">
        <ele>56.6</ele>
        <time>2022-10-09T14:00:03Z</time>
      </trkpt>
      <trkpt lat="43.39551" lon="6.70632">
        <ele>56.3</ele>
        <time>2022-10-09T14:00:04Z</time>
      </trkpt>
      <trkpt lat="43.39553" lon="6.70632">
        <ele>56.1</ele>
        <time>2022-10-09T14:00:05Z</time>
      </trkpt>
      <trkpt lat="43.39554" lon="6.70632">
        <ele>55.9</ele>
        <time>2022-10-09T14:00:06Z</time>
      </trkpt>
      <trkpt lat="43.39556" lon="6.70631">
        <ele>55.6</ele>
        <time>2022-10-09T14:00:07Z</time>
      </trkpt>
      <trkpt lat="43.3956" lon="6.70627">
        <ele>54.8</ele>
        <time>2022-10-09T14:00:09Z</time>
      </trkpt>
      <trkpt lat="43.39568" lon="6.70611">
        <ele>53</ele>
        <time>2022-10-09T14:00:13Z</time>
      </trkpt>
      <trkpt lat="43.39569" lon="6.70606">
        <ele>52.7</ele>
        <time>2022-10-09T14:00:14Z</time>
      </trkpt>
      <trkpt lat="43.39571" lon="6.70602">
        <ele>52.5</ele>
        <time>2022-10-09T14:00:15Z</time>
      </trkpt>
      <trkpt lat="43.39573" lon="6.70599">
        <ele>52.3</ele>
        <time>2022-10-09T14:00:16Z</time>
      </trkpt>
      <trkpt lat="43.39575" lon="6.70597">
        <ele>52.2</ele>
        <time>2022-10-09T14:00:17Z</time>
      </trkpt>
      <trkpt lat="43.39577" lon="6.70596">
        <ele>52.2</ele>
        <time>2022-10-09T14:00:18Z</time>
      </trkpt>
      <trkpt lat="43.39579" lon="6.70596">
        <ele>52.2</ele>
        <time>2022-10-09T14:00:19Z</time>
      </trkpt>
      <trkpt lat="43.39579" lon="6.70597">
        <ele>52.1</ele>
        <time>2022-10-09T14:00:20Z</time>
      </trkpt>
      <trkpt lat="43.3958" lon="6.70597">
        <ele>52.1</ele>
        <time>2022-10-09T14:00:21Z</time>
      </trkpt>
      <trkpt lat="43.3958" lon="6.70597">
        <ele>52.1</ele>
        <time>2022-10-09T14:00:22Z</time>
      </trkpt>
      <trkpt lat="43.39598" lon="6.70618">
        <ele>52.7</ele>
        <time>2022-10-09T14:00:48Z</time>
      </trkpt>
      <trkpt lat="43.39601" lon="6.70623">
        <ele>53</ele>
        <time>2022-10-09T14:00:50Z</time>
      </trkpt>
      <trkpt lat="43.39603" lon="6.70629">
        <ele>53.3</ele>
        <time>2022-10-09T14:00:52Z</time>
      </trkpt>
      <trkpt lat="43.39604" lon="6.70632">
        <ele>53.5</ele>
        <time>2022-10-09T14:00:53Z</time>
      </trkpt>
      <trkpt lat="43.39604" lon="6.70635">
        <ele>53.6</ele>
        <time>2022-10-09T14:00:54Z</time>
      </trkpt>
      <trkpt lat="43.39604" lon="6.70637">
        <ele>53.7</ele>
        <time>2022-10-09T14:00:55Z</time>
      </trkpt>
      <trkpt lat="43.39605" lon="6.70639">
        <ele>53.9</ele>
        <time>2022-10-09T14:00:56Z</time>
      </trkpt>
      <trkpt lat="43.39605" lon="6.70641">
        <ele>54</ele>
        <time>2022-10-09T14:00:57Z</time>
      </trkpt>
      <trkpt lat="43.39606" lon="6.7065">
        <ele>54.7</ele>
        <time>2022-10-09T14:01:01Z</time>
      </trkpt>
      <trkpt lat="43.39606" lon="6.70652">
        <ele>54.8</ele>
        <time>2022-10-09T14:01:02Z</time>
      </trkpt>
      <trkpt lat="43.39606" lon="6.70652">
        <ele>54.8</ele>
        <time>2022-10-09T14:01:03Z</time>
      </trkpt>
      <trkpt lat="43.39606" lon="6.70652">
        <ele>54.9</ele>
        <time>2022-10-09T14:01:04Z</time>
      </trkpt>
      <trkpt lat="43.3962" lon="6.70684">
        <ele>57.7</ele>
        <time>2022-10-09T14:01:37Z</time>
      </trkpt>
      <trkpt lat="43.39622" lon="6.70684">
        <ele>57.9</ele>
        <time>2022-10-09T14:01:38Z</time>
      </trkpt>
      <trkpt lat="43.39623" lon="6.70683">
        <ele>58.1</ele>
        <time>2022-10-09T14:01:39Z</time>
      </trkpt>
      <trkpt lat="43.39625" lon="6.7068">
        <ele>58.4</ele>
        <time>2022-10-09T14:01:41Z</time>
      </trkpt>
      <trkpt lat="43.39626" lon="6.70679">
        <ele>58.5</ele>
        <time>2022-10-09T14:01:42Z</time>
      </trkpt>
      <trkpt lat="43.39628" lon="6.70679">
        <ele>58.6</ele>
        <time>2022-10-09T14:01:43Z</time>
      </trkpt>
      <trkpt lat="43.39629" lon="6.70679">
        <ele>58.7</ele>
        <time>2022-10-09T14:01:44Z</time>
      </trkpt>
      <trkpt lat="43.3963" lon="6.70679">
        <ele>58.9</ele>
        <time>2022-10-09T14:01:45Z</time>
      </trkpt>
      <trkpt lat="43.39632" lon="6.70679">
        <ele>59.1</ele>
        <time>2022-10-09T14:01:46Z</time>
      </trkpt>
      <trkpt lat="43.39633" lon="6.70679">
        <ele>59.2</ele>
        <time>2022-10-09T14:01:47Z</time>
      </trkpt>
      <trkpt lat="43.39635" lon="6.70679">
        <ele>59.4</ele>
        <time>2022-10-09T14:01:48Z</time>
      </trkpt>
      <trkpt lat="43.39636" lon="6.70679">
        <ele>59.5</ele>
        <time>2022-10-09T14:01:49Z</time>
      </trkpt>
      <trkpt lat="43.39637" lon="6.70678">
        <ele>59.7</ele>
        <time>2022-10-09T14:01:50Z</time>
      </trkpt>
      <trkpt lat="43.3964" lon="6.70677">
        <ele>60</ele>
        <time>2022-10-09T14:01:52Z</time>
      </trkpt>
      <trkpt lat="43.39641" lon="6.70676">
        <ele>60.2</ele>
        <time>2022-10-09T14:01:53Z</time>
      </trkpt>
      <trkpt lat="43.39644" lon="6.70675">
        <ele>60.6</ele>
        <time>2022-10-09T14:01:56Z</time>
      </trkpt>
      <trkpt lat="43.39644" lon="6.70675">
        <ele>60.6</ele>
        <time>2022-10-09T14:01:57Z</time>
      </trkpt>
      <trkpt lat="43.39645" lon="6.70675">
        <ele>60.6</ele>
        <time>2022-10-09T14:01:58Z</time>
      </trkpt>
      <trkpt lat="43.39677" lon="6.70653">
        <ele>63.4</ele>
        <time>2022-10-09T14:02:39Z</time>
      </trkpt>
      <trkpt lat="43.39687" lon="6.70648">
        <ele>63.3</ele>
        <time>2022-10-09T14:02:43Z</time>
      </trkpt>
      <trkpt lat="43.3969" lon="6.70647">
        <ele>63.3</ele>
        <time>2022-10-09T14:02:44Z</time>
      </trkpt>
      <trkpt lat="43.39701" lon="6.70644">
        <ele>63</ele>
        <time>2022-10-09T14:02:48Z</time>
      </trkpt>
      <trkpt lat="43.39704" lon="6.70644">
        <ele>62.9</ele>
        <time>2022-10-09T14:02:49Z</time>
      </trkpt>
      <trkpt lat="43.39707" lon="6.70644">
        <ele>62.8</ele>
        <time>2022-10-09T14:02:50Z</time>
      </trkpt>
      <trkpt lat="43.3971" lon="6.70644">
        <ele>62.7</ele>
        <time>2022-10-09T14:02:51Z</time>
      </trkpt>
      <trkpt lat="43.39719" lon="6.70645">
        <ele>62.5</ele>
        <time>2022-10-09T14:02:54Z</time>
      </trkpt>
      <trkpt lat="43.39727" lon="6.70651">
        <ele>62.3</ele>
        <time>2022-10-09T14:02:57Z</time>
      </trkpt>
      <trkpt lat="43.3973" lon="6.70654">
        <ele>62.2</ele>
        <time>2022-10-09T14:02:58Z</time>
      </trkpt>
      <trkpt lat="43.39736" lon="6.70656">
        <ele>62</ele>
        <time>2022-10-09T14:03:00Z</time>
      </trkpt>
      <trkpt lat="43.3974" lon="6.70655">
        <ele>62</ele>
        <time>2022-10-09T14:03:01Z</time>
      </trkpt>
      <trkpt lat="43.39742" lon="6.70652">
        <ele>61.9</ele>
        <time>2022-10-09T14:03:02Z</time>
      </trkpt>
      <trkpt lat="43.39745" lon="6.70643">
        <ele>61.8</ele>
        <time>2022-10-09T14:03:04Z</time>
      </trkpt>
      <trkpt lat="43.39747" lon="6.70638">
        <ele>61.8</ele>
        <time>2022-10-09T14:03:05Z</time>
      </trkpt>
      <trkpt lat="43.39748" lon="6.70634">
        <ele>61.7</ele>
        <time>2022-10-09T14:03:06Z</time>
      </trkpt>
      <trkpt lat="43.3975" lon="6.70631">
        <ele>61.7</ele>
        <time>2022-10-09T14:03:07Z</time>
      </trkpt>
      <trkpt lat="43.39752" lon="6.70627">
        <ele>61.8</ele>
        <time>2022-10-09T14:03:08Z</time>
      </trkpt>
      <trkpt lat="43.39753" lon="6.70624">
        <ele>61.8</ele>
        <time>2022-10-09T14:03:09Z</time>
      </trkpt>
      <trkpt lat="43.39754" lon="6.70621">
        <ele>61.8</ele>
        <time>2022-10-09T14:03:10Z</time>
      </trkpt>
      <trkpt lat="43.39756" lon="6.70617">
        <ele>61.8</ele>
        <time>2022-10-09T14:03:11Z</time>
      </trkpt>
      <trkpt lat="43.39757" lon="6.70615">
        <ele>61.9</ele>
        <time>2022-10-09T14:03:12Z</time>
      </trkpt>
      <trkpt lat="43.39759" lon="6.70612">
        <ele>61.9</ele>
        <time>2022-10-09T14:03:13Z</time>
      </trkpt>
      <trkpt lat="43.3976" lon="6.70609">
        <ele>62</ele>
        <time>2022-10-09T14:03:14Z</time>
      </trkpt>
      <trkpt lat="43.39761" lon="6.70607">
        <ele>62</ele>
        <time>2022-10-09T14:03:15Z</time>
      </trkpt>
      <trkpt lat="43.39764" lon="6.70602">
        <ele>62.1</ele>
        <time>2022-10-09T14:03:17Z</time>
      </trkpt>
      <trkpt lat="43.39766" lon="6.706">
        <ele>62.1</ele>
        <time>2022-10-09T14:03:18Z</time>
      </trkpt>
      <trkpt lat="43.39767" lon="6.70597">
        <ele>62.1</ele>
        <time>2022-10-09T14:03:19Z</time>
      </trkpt>
      <trkpt lat="43.3977" lon="6.70587">
        <ele>62.2</ele>
        <time>2022-10-09T14:03:22Z</time>
      </trkpt>
      <trkpt lat="43.3977" lon="6.70583">
        <ele>62.2</ele>
        <time>2022-10-09T14:03:23Z</time>
      </trkpt>
      <trkpt lat="43.3977" lon="6.7058">
        <ele>62.2</ele>
        <time>2022-10-09T14:03:24Z</time>
      </trkpt>
      <trkpt lat="43.3977" lon="6.70577">
        <ele>62.1</ele>
        <time>2022-10-09T14:03:25Z</time>
      </trkpt>
      <trkpt lat="43.39771" lon="6.70574">
        <ele>62.1</ele>
        <time>2022-10-09T14:03:26Z</time>
      </trkpt>
      <trkpt lat="43.39772" lon="6.70573">
        <ele>62.1</ele>
        <time>2022-10-09T14:03:27Z</time>
      </trkpt>
      <trkpt lat="43.39774" lon="6.70571">
        <ele>62.1</ele>
        <time>2022-10-09T14:03:28Z</time>
      </trkpt>
      <trkpt lat="43.39778" lon="6.70569">
        <ele>62.1</ele>
        <time>2022-10-09T14:03:30Z</time>
      </trkpt>
      <trkpt lat="43.3978" lon="6.70568">
        <ele>62.1</ele>
        <time>2022-10-09T14:03:31Z</time>
      </trkpt>
      <trkpt lat="43.39782" lon="6.70565">
        <ele>62.1</ele>
        <time>2022-10-09T14:03:32Z</time>
      </trkpt>
      <trkpt lat="43.3979" lon="6.70556">
        <ele>62.1</ele>
        <time>2022-10-09T14:03:36Z</time>
      </trkpt>
      <trkpt lat="43.39793" lon="6.70551">
        <ele>62.1</ele>
        <time>2022-10-09T14:03:38Z</time>
      </trkpt>
      <trkpt lat="43.39794" lon="6.70549">
        <ele>62.1</ele>
        <time>2022-10-09T14:03:39Z</time>
      </trkpt>
      <trkpt lat="43.39795" lon="6.70546">
        <ele>62.1</ele>
        <time>2022-10-09T14:03:40Z</time>
      </trkpt>
      <trkpt lat="43.39798" lon="6.7054">
        <ele>62.1</ele>
        <time>2022-10-09T14:03:42Z</time>
      </trkpt>
      <trkpt lat="43.398" lon="6.70537">
        <ele>62.2</ele>
        <time>2022-10-09T14:03:43Z</time>
      </trkpt>
      <trkpt lat="43.39802" lon="6.70529">
        <ele>62.1</ele>
        <time>2022-10-09T14:03:45Z</time>
      </trkpt>
      <trkpt lat="43.39807" lon="6.70515">
        <ele>62.1</ele>
        <time>2022-10-09T14:03:48Z</time>
      </trkpt>
      <trkpt lat="43.3981" lon="6.70514">
        <ele>62.1</ele>
        <time>2022-10-09T14:03:49Z</time>
      </trkpt>
      <trkpt lat="43.39812" lon="6.70512">
        <ele>62.1</ele>
        <time>2022-10-09T14:03:50Z</time>
      </trkpt>
      <trkpt lat="43.39814" lon="6.7051">
        <ele>62.1</ele>
        <time>2022-10-09T14:03:51Z</time>
      </trkpt>
      <trkpt lat="43.39816" lon="6.70507">
        <ele>62.1</ele>
        <time>2022-10-09T14:03:52Z</time>
      </trkpt>
      <trkpt lat="43.39818" lon="6.70503">
        <ele>62.1</ele>
        <time>2022-10-09T14:03:53Z</time>
      </trkpt>
      <trkpt lat="43.39819" lon="6.70499">
        <ele>62.1</ele>
        <time>2022-10-09T14:03:54Z</time>
      </trkpt>
      <trkpt lat="43.39821" lon="6.70496">
        <ele>62.1</ele>
        <time>2022-10-09T14:03:55Z</time>
      </trkpt>
      <trkpt lat="43.39822" lon="6.70493">
        <ele>62.1</ele>
        <time>2022-10-09T14:03:56Z</time>
      </trkpt>
      <trkpt lat="43.39824" lon="6.7049">
        <ele>62.2</ele>
        <time>2022-10-09T14:03:57Z</time>
      </trkpt>
      <trkpt lat="43.39825" lon="6.70486">
        <ele>62.2</ele>
        <time>2022-10-09T14:03:58Z</time>
      </trkpt>
      <trkpt lat="43.39826" lon="6.70483">
        <ele>62.3</ele>
        <time>2022-10-09T14:03:59Z</time>
      </trkpt>
      <trkpt lat="43.39828" lon="6.7048">
        <ele>62.4</ele>
        <time>2022-10-09T14:04:00Z</time>
      </trkpt>
      <trkpt lat="43.39831" lon="6.70479">
        <ele>62.5</ele>
        <time>2022-10-09T14:04:01Z</time>
      </trkpt>
      <trkpt lat="43.39833" lon="6.70479">
        <ele>62.6</ele>
        <time>2022-10-09T14:04:02Z</time>
      </trkpt>
      <trkpt lat="43.39835" lon="6.7048">
        <ele>62.8</ele>
        <time>2022-10-09T14:04:03Z</time>
      </trkpt>
      <trkpt lat="43.39836" lon="6.70483">
        <ele>62.9</ele>
        <time>2022-10-09T14:04:04Z</time>
      </trkpt>
      <trkpt lat="43.39838" lon="6.70485">
        <ele>63</ele>
        <time>2022-10-09T14:04:05Z</time>
      </trkpt>
      <trkpt lat="43.39838" lon="6.70486">
        <ele>63.1</ele>
        <time>2022-10-09T14:04:06Z</time>
      </trkpt>
      <trkpt lat="43.39839" lon="6.70487">
        <ele>63.2</ele>
        <time>2022-10-09T14:04:07Z</time>
      </trkpt>
      <trkpt lat="43.39839" lon="6.70487">
        <ele>63.2</ele>
        <time>2022-10-09T14:04:08Z</time>
      </trkpt>
      <trkpt lat="43.3986" lon="6.70521">
        <ele>66.1</ele>
        <time>2022-10-09T14:04:48Z</time>
      </trkpt>
      <trkpt lat="43.39861" lon="6.70524">
        <ele>66.2</ele>
        <time>2022-10-09T14:04:49Z</time>
      </trkpt>
      <trkpt lat="43.39869" lon="6.70543">
        <ele>66</ele>
        <time>2022-10-09T14:04:54Z</time>
      </trkpt>
      <trkpt lat="43.39875" lon="6.70555">
        <ele>65.7</ele>
        <time>2022-10-09T14:04:57Z</time>
      </trkpt>
      <trkpt lat="43.39881" lon="6.70561">
        <ele>65.4</ele>
        <time>2022-10-09T14:04:59Z</time>
      </trkpt>
      <trkpt lat="43.39883" lon="6.70565">
        <ele>65.3</ele>
        <time>2022-10-09T14:05:00Z</time>
      </trkpt>
      <trkpt lat="43.39886" lon="6.70568">
        <ele>65.2</ele>
        <time>2022-10-09T14:05:01Z</time>
      </trkpt>
      <trkpt lat="43.39888" lon="6.70571">
        <ele>65.1</ele>
        <time>2022-10-09T14:05:02Z</time>
      </trkpt>
      <trkpt lat="43.39889" lon="6.70574">
        <ele>65.1</ele>
        <time>2022-10-09T14:05:03Z</time>
      </trkpt>
      <trkpt lat="43.39891" lon="6.70577">
        <ele>65</ele>
        <time>2022-10-09T14:05:04Z</time>
      </trkpt>
      <trkpt lat="43.39902" lon="6.70585">
        <ele>64.9</ele>
        <time>2022-10-09T14:05:08Z</time>
      </trkpt>
      <trkpt lat="43.39905" lon="6.70586">
        <ele>64.9</ele>
        <time>2022-10-09T14:05:09Z</time>
      </trkpt>
      <trkpt lat="43.39907" lon="6.70586">
        <ele>64.9</ele>
        <time>2022-10-09T14:05:10Z</time>
      </trkpt>
      <trkpt lat="43.3991" lon="6.70587">
        <ele>64.9</ele>
        <time>2022-10-09T14:05:11Z</time>
      </trkpt>
      <trkpt lat="43.39912" lon="6.70588">
        <ele>65</ele>
        <time>2022-10-09T14:05:12Z</time>
      </trkpt>
      <trkpt lat="43.39915" lon="6.70589">
        <ele>65</ele>
        <time>2022-10-09T14:05:13Z</time>
      </trkpt>
      <trkpt lat="43.39917" lon="6.70589">
        <ele>65.1</ele>
        <time>2022-10-09T14:05:14Z</time>
      </trkpt>
      <trkpt lat="43.39919" lon="6.70589">
        <ele>65.2</ele>
        <time>2022-10-09T14:05:15Z</time>
      </trkpt>
      <trkpt lat="43.39922" lon="6.70588">
        <ele>65.3</ele>
        <time>2022-10-09T14:05:16Z</time>
      </trkpt>
      <trkpt lat="43.39924" lon="6.70587">
        <ele>65.4</ele>
        <time>2022-10-09T14:05:17Z</time>
      </trkpt>
      <trkpt lat="43.39926" lon="6.70586">
        <ele>65.5</ele>
        <time>2022-10-09T14:05:18Z</time>
      </trkpt>
      <trkpt lat="43.39928" lon="6.70585">
        <ele>65.7</ele>
        <time>2022-10-09T14:05:19Z</time>
      </trkpt>
      <trkpt lat="43.39929" lon="6.70584">
        <ele>65.8</ele>
        <time>2022-10-09T14:05:20Z</time>
      </trkpt>
      <trkpt lat="43.39931" lon="6.70582">
        <ele>65.9</ele>
        <time>2022-10-09T14:05:21Z</time>
      </trkpt>
      <trkpt lat="43.39941" lon="6.70571">
        <ele>66.7</ele>
        <time>2022-10-09T14:05:27Z</time>
      </trkpt>
      <trkpt lat="43.39942" lon="6.70569">
        <ele>66.8</ele>
        <time>2022-10-09T14:05:28Z</time>
      </trkpt>
      <trkpt lat="43.39944" lon="6.70567">
        <ele>67</ele>
        <time>2022-10-09T14:05:29Z</time>
      </trkpt>
      <trkpt lat="43.39947" lon="6.70565">
        <ele>67.2</ele>
        <time>2022-10-09T14:05:31Z</time>
      </trkpt>
      <trkpt lat="43.39949" lon="6.70563">
        <ele>67.3</ele>
        <time>2022-10-09T14:05:32Z</time>
      </trkpt>
      <trkpt lat="43.3995" lon="6.70561">
        <ele>67.4</ele>
        <time>2022-10-09T14:05:33Z</time>
      </trkpt>
      <trkpt lat="43.39953" lon="6.70558">
        <ele>67.6</ele>
        <time>2022-10-09T14:05:35Z</time>
      </trkpt>
      <trkpt lat="43.39955" lon="6.70557">
        <ele>67.8</ele>
        <time>2022-10-09T14:05:36Z</time>
      </trkpt>
      <trkpt lat="43.39957" lon="6.70556">
        <ele>67.9</ele>
        <time>2022-10-09T14:05:37Z</time>
      </trkpt>
      <trkpt lat="43.39959" lon="6.70556">
        <ele>68</ele>
        <time>2022-10-09T14:05:38Z</time>
      </trkpt>
      <trkpt lat="43.39961" lon="6.70555">
        <ele>68.1</ele>
        <time>2022-10-09T14:05:39Z</time>
      </trkpt>
      <trkpt lat="43.39962" lon="6.70555">
        <ele>68.2</ele>
        <time>2022-10-09T14:05:40Z</time>
      </trkpt>
      <trkpt lat="43.39964" lon="6.70554">
        <ele>68.3</ele>
        <time>2022-10-09T14:05:41Z</time>
      </trkpt>
      <trkpt lat="43.39967" lon="6.70552">
        <ele>68.5</ele>
        <time>2022-10-09T14:05:43Z</time>
      </trkpt>
      <trkpt lat="43.39972" lon="6.7055">
        <ele>68.7</ele>
        <time>2022-10-09T14:05:46Z</time>
      </trkpt>
      <trkpt lat="43.39976" lon="6.70547">
        <ele>68.8</ele>
        <time>2022-10-09T14:05:48Z</time>
      </trkpt>
      <trkpt lat="43.39983" lon="6.70538">
        <ele>69</ele>
        <time>2022-10-09T14:05:52Z</time>
      </trkpt>
      <trkpt lat="43.39986" lon="6.70532">
        <ele>69.1</ele>
        <time>2022-10-09T14:05:54Z</time>
      </trkpt>
      <trkpt lat="43.39987" lon="6.70529">
        <ele>69.1</ele>
        <time>2022-10-09T14:05:55Z</time>
      </trkpt>
      <trkpt lat="43.39987" lon="6.70526">
        <ele>69.1</ele>
        <time>2022-10-09T14:05:56Z</time>
      </trkpt>
      <trkpt lat="43.39987" lon="6.70522">
        <ele>69.2</ele>
        <time>2022-10-09T14:05:57Z</time>
      </trkpt>
      <trkpt lat="43.39986" lon="6.70519">
        <ele>69.2</ele>
        <time>2022-10-09T14:05:58Z</time>
      </trkpt>
      <trkpt lat="43.39986" lon="6.70516">
        <ele>69.2</ele>
        <time>2022-10-09T14:05:59Z</time>
      </trkpt>
      <trkpt lat="43.39986" lon="6.70513">
        <ele>69.2</ele>
        <time>2022-10-09T14:06:00Z</time>
      </trkpt>
      <trkpt lat="43.39985" lon="6.70503">
        <ele>69.3</ele>
        <time>2022-10-09T14:06:03Z</time>
      </trkpt>
      <trkpt lat="43.39985" lon="6.705">
        <ele>69.3</ele>
        <time>2022-10-09T14:06:04Z</time>
      </trkpt>
      <trkpt lat="43.39986" lon="6.70497">
        <ele>69.3</ele>
        <time>2022-10-09T14:06:05Z</time>
      </trkpt>
      <trkpt lat="43.39987" lon="6.70494">
        <ele>69.4</ele>
        <time>2022-10-09T14:06:06Z</time>
      </trkpt>
      <trkpt lat="43.39988" lon="6.70492">
        <ele>69.4</ele>
        <time>2022-10-09T14:06:07Z</time>
      </trkpt>
      <trkpt lat="43.39989" lon="6.70489">
        <ele>69.5</ele>
        <time>2022-10-09T14:06:08Z</time>
      </trkpt>
      <trkpt lat="43.3999" lon="6.70487">
        <ele>69.5</ele>
        <time>2022-10-09T14:06:09Z</time>
      </trkpt>
      <trkpt lat="43.39991" lon="6.70484">
        <ele>69.6</ele>
        <time>2022-10-09T14:06:10Z</time>
      </trkpt>
      <trkpt lat="43.39993" lon="6.70475">
        <ele>69.7</ele>
        <time>2022-10-09T14:06:13Z</time>
      </trkpt>
      <trkpt lat="43.39995" lon="6.70468">
        <ele>69.8</ele>
        <time>2022-10-09T14:06:15Z</time>
      </trkpt>
      <trkpt lat="43.39998" lon="6.7046">
        <ele>69.8</ele>
        <time>2022-10-09T14:06:17Z</time>
      </trkpt>
      <trkpt lat="43.4" lon="6.70457">
        <ele>69.7</ele>
        <time>2022-10-09T14:06:18Z</time>
      </trkpt>
      <trkpt lat="43.40003" lon="6.70448">
        <ele>69.5</ele>
        <time>2022-10-09T14:06:20Z</time>
      </trkpt>
      <trkpt lat="43.40003" lon="6.70443">
        <ele>69.3</ele>
        <time>2022-10-09T14:06:21Z</time>
      </trkpt>
      <trkpt lat="43.40003" lon="6.70438">
        <ele>69.2</ele>
        <time>2022-10-09T14:06:22Z</time>
      </trkpt>
      <trkpt lat="43.40004" lon="6.70434">
        <ele>69.1</ele>
        <time>2022-10-09T14:06:23Z</time>
      </trkpt>
      <trkpt lat="43.40005" lon="6.7043">
        <ele>68.9</ele>
        <time>2022-10-09T14:06:24Z</time>
      </trkpt>
      <trkpt lat="43.4001" lon="6.70425">
        <ele>68.6</ele>
        <time>2022-10-09T14:06:26Z</time>
      </trkpt>
      <trkpt lat="43.40013" lon="6.70425">
        <ele>68.5</ele>
        <time>2022-10-09T14:06:27Z</time>
      </trkpt>
      <trkpt lat="43.40015" lon="6.70424">
        <ele>68.3</ele>
        <time>2022-10-09T14:06:28Z</time>
      </trkpt>
      <trkpt lat="43.40018" lon="6.70425">
        <ele>68.2</ele>
        <time>2022-10-09T14:06:29Z</time>
      </trkpt>
      <trkpt lat="43.40021" lon="6.70426">
        <ele>68.1</ele>
        <time>2022-10-09T14:06:30Z</time>
      </trkpt>
      <trkpt lat="43.40023" lon="6.70427">
        <ele>68</ele>
        <time>2022-10-09T14:06:31Z</time>
      </trkpt>
      <trkpt lat="43.40036" lon="6.70425">
        <ele>67.6</ele>
        <time>2022-10-09T14:06:35Z</time>
      </trkpt>
      <trkpt lat="43.40039" lon="6.70424">
        <ele>67.5</ele>
        <time>2022-10-09T14:06:36Z</time>
      </trkpt>
      <trkpt lat="43.40041" lon="6.70422">
        <ele>67.4</ele>
        <time>2022-10-09T14:06:37Z</time>
      </trkpt>
      <trkpt lat="43.40044" lon="6.7042">
        <ele>67.3</ele>
        <time>2022-10-09T14:06:38Z</time>
      </trkpt>
      <trkpt lat="43.40049" lon="6.70416">
        <ele>67.2</ele>
        <time>2022-10-09T14:06:40Z</time>
      </trkpt>
      <trkpt lat="43.4005" lon="6.70416">
        <ele>67.2</ele>
        <time>2022-10-09T14:06:41Z</time>
      </trkpt>
      <trkpt lat="43.4005" lon="6.70416">
        <ele>67.2</ele>
        <time>2022-10-09T14:06:42Z</time>
      </trkpt>
      <trkpt lat="43.40051" lon="6.70416">
        <ele>67.1</ele>
        <time>2022-10-09T14:06:43Z</time>
      </trkpt>
      <trkpt lat="43.40063" lon="6.70419">
        <ele>66.6</ele>
        <time>2022-10-09T14:06:54Z</time>
      </trkpt>
      <trkpt lat="43.40066" lon="6.70419">
        <ele>66.4</ele>
        <time>2022-10-09T14:06:55Z</time>
      </trkpt>
      <trkpt lat="43.4007" lon="6.70419">
        <ele>66.2</ele>
        <time>2022-10-09T14:06:56Z</time>
      </trkpt>
      <trkpt lat="43.40072" lon="6.70421">
        <ele>65.9</ele>
        <time>2022-10-09T14:06:57Z</time>
      </trkpt>
      <trkpt lat="43.40074" lon="6.70424">
        <ele>65.7</ele>
        <time>2022-10-09T14:06:58Z</time>
      </trkpt>
      <trkpt lat="43.40078" lon="6.7044">
        <ele>64.9</ele>
        <time>2022-10-09T14:07:01Z</time>
      </trkpt>
      <trkpt lat="43.40081" lon="6.70444">
        <ele>64.7</ele>
        <time>2022-10-09T14:07:02Z</time>
      </trkpt>
      <trkpt lat="43.40083" lon="6.7045">
        <ele>64.5</ele>
        <time>2022-10-09T14:07:03Z</time>
      </trkpt>
      <trkpt lat="43.40084" lon="6.70461">
        <ele>64.2</ele>
        <time>2022-10-09T14:07:05Z</time>
      </trkpt>
      <trkpt lat="43.40084" lon="6.70466">
        <ele>64.1</ele>
        <time>2022-10-09T14:07:06Z</time>
      </trkpt>
      <trkpt lat="43.40086" lon="6.70469">
        <ele>64</ele>
        <time>2022-10-09T14:07:07Z</time>
      </trkpt>
      <trkpt lat="43.40089" lon="6.7047">
        <ele>64</ele>
        <time>2022-10-09T14:07:08Z</time>
      </trkpt>
      <trkpt lat="43.4009" lon="6.70469">
        <ele>64</ele>
        <time>2022-10-09T14:07:09Z</time>
      </trkpt>
      <trkpt lat="43.40092" lon="6.70468">
        <ele>64</ele>
        <time>2022-10-09T14:07:10Z</time>
      </trkpt>
      <trkpt lat="43.40095" lon="6.70468">
        <ele>64</ele>
        <time>2022-10-09T14:07:11Z</time>
      </trkpt>
      <trkpt lat="43.40096" lon="6.70468">
        <ele>64.1</ele>
        <time>2022-10-09T14:07:12Z</time>
      </trkpt>
      <trkpt lat="43.40098" lon="6.70469">
        <ele>64.1</ele>
        <time>2022-10-09T14:07:13Z</time>
      </trkpt>
      <trkpt lat="43.40104" lon="6.70479">
        <ele>64.3</ele>
        <time>2022-10-09T14:07:17Z</time>
      </trkpt>
      <trkpt lat="43.40104" lon="6.70483">
        <ele>64.4</ele>
        <time>2022-10-09T14:07:18Z</time>
      </trkpt>
      <trkpt lat="43.40106" lon="6.70493">
        <ele>64.7</ele>
        <time>2022-10-09T14:07:21Z</time>
      </trkpt>
      <trkpt lat="43.40109" lon="6.70499">
        <ele>64.9</ele>
        <time>2022-10-09T14:07:23Z</time>
      </trkpt>
      <trkpt lat="43.4011" lon="6.70502">
        <ele>65</ele>
        <time>2022-10-09T14:07:24Z</time>
      </trkpt>
      <trkpt lat="43.40111" lon="6.70505">
        <ele>65.1</ele>
        <time>2022-10-09T14:07:25Z</time>
      </trkpt>
      <trkpt lat="43.40112" lon="6.70507">
        <ele>65.2</ele>
        <time>2022-10-09T14:07:26Z</time>
      </trkpt>
      <trkpt lat="43.40113" lon="6.7051">
        <ele>65.2</ele>
        <time>2022-10-09T14:07:27Z</time>
      </trkpt>
      <trkpt lat="43.40115" lon="6.70515">
        <ele>65.4</ele>
        <time>2022-10-09T14:07:29Z</time>
      </trkpt>
      <trkpt lat="43.40116" lon="6.70518">
        <ele>65.4</ele>
        <time>2022-10-09T14:07:30Z</time>
      </trkpt>
      <trkpt lat="43.40117" lon="6.7053">
        <ele>65.7</ele>
        <time>2022-10-09T14:07:33Z</time>
      </trkpt>
      <trkpt lat="43.40117" lon="6.70536">
        <ele>65.9</ele>
        <time>2022-10-09T14:07:34Z</time>
      </trkpt>
      <trkpt lat="43.4012" lon="6.70542">
        <ele>66.1</ele>
        <time>2022-10-09T14:07:36Z</time>
      </trkpt>
      <trkpt lat="43.40122" lon="6.70543">
        <ele>66.2</ele>
        <time>2022-10-09T14:07:37Z</time>
      </trkpt>
      <trkpt lat="43.40124" lon="6.70543">
        <ele>66.2</ele>
        <time>2022-10-09T14:07:38Z</time>
      </trkpt>
      <trkpt lat="43.40126" lon="6.70543">
        <ele>66.3</ele>
        <time>2022-10-09T14:07:39Z</time>
      </trkpt>
      <trkpt lat="43.40127" lon="6.70544">
        <ele>66.4</ele>
        <time>2022-10-09T14:07:40Z</time>
      </trkpt>
      <trkpt lat="43.40129" lon="6.70544">
        <ele>66.4</ele>
        <time>2022-10-09T14:07:41Z</time>
      </trkpt>
      <trkpt lat="43.40131" lon="6.70545">
        <ele>66.5</ele>
        <time>2022-10-09T14:07:42Z</time>
      </trkpt>
      <trkpt lat="43.40132" lon="6.70546">
        <ele>66.6</ele>
        <time>2022-10-09T14:07:43Z</time>
      </trkpt>
      <trkpt lat="43.40134" lon="6.70547">
        <ele>66.6</ele>
        <time>2022-10-09T14:07:44Z</time>
      </trkpt>
      <trkpt lat="43.40136" lon="6.7055">
        <ele>66.7</ele>
        <time>2022-10-09T14:07:46Z</time>
      </trkpt>
      <trkpt lat="43.40136" lon="6.70552">
        <ele>66.7</ele>
        <time>2022-10-09T14:07:47Z</time>
      </trkpt>
      <trkpt lat="43.40136" lon="6.70555">
        <ele>66.7</ele>
        <time>2022-10-09T14:07:48Z</time>
      </trkpt>
      <trkpt lat="43.40136" lon="6.70557">
        <ele>66.7</ele>
        <time>2022-10-09T14:07:49Z</time>
      </trkpt>
      <trkpt lat="43.40137" lon="6.7056">
        <ele>66.6</ele>
        <time>2022-10-09T14:07:50Z</time>
      </trkpt>
      <trkpt lat="43.40138" lon="6.70562">
        <ele>66.6</ele>
        <time>2022-10-09T14:07:51Z</time>
      </trkpt>
      <trkpt lat="43.40139" lon="6.70564">
        <ele>66.5</ele>
        <time>2022-10-09T14:07:52Z</time>
      </trkpt>
      <trkpt lat="43.40141" lon="6.70565">
        <ele>66.4</ele>
        <time>2022-10-09T14:07:53Z</time>
      </trkpt>
      <trkpt lat="43.40143" lon="6.70567">
        <ele>66.3</ele>
        <time>2022-10-09T14:07:54Z</time>
      </trkpt>
      <trkpt lat="43.40143" lon="6.70569">
        <ele>66.2</ele>
        <time>2022-10-09T14:07:55Z</time>
      </trkpt>
      <trkpt lat="43.40144" lon="6.7057">
        <ele>66.1</ele>
        <time>2022-10-09T14:07:56Z</time>
      </trkpt>
      <trkpt lat="43.40144" lon="6.70572">
        <ele>65.9</ele>
        <time>2022-10-09T14:07:57Z</time>
      </trkpt>
      <trkpt lat="43.40145" lon="6.70574">
        <ele>65.8</ele>
        <time>2022-10-09T14:07:58Z</time>
      </trkpt>
      <trkpt lat="43.40147" lon="6.70576">
        <ele>65.6</ele>
        <time>2022-10-09T14:07:59Z</time>
      </trkpt>
      <trkpt lat="43.40149" lon="6.70578">
        <ele>65.3</ele>
        <time>2022-10-09T14:08:00Z</time>
      </trkpt>
      <trkpt lat="43.40151" lon="6.7058">
        <ele>65</ele>
        <time>2022-10-09T14:08:01Z</time>
      </trkpt>
      <trkpt lat="43.40152" lon="6.70582">
        <ele>64.7</ele>
        <time>2022-10-09T14:08:02Z</time>
      </trkpt>
      <trkpt lat="43.40154" lon="6.70585">
        <ele>64.4</ele>
        <time>2022-10-09T14:08:03Z</time>
      </trkpt>
      <trkpt lat="43.40155" lon="6.70588">
        <ele>64</ele>
        <time>2022-10-09T14:08:04Z</time>
      </trkpt>
      <trkpt lat="43.40157" lon="6.70592">
        <ele>63.6</ele>
        <time>2022-10-09T14:08:05Z</time>
      </trkpt>
      <trkpt lat="43.40164" lon="6.70605">
        <ele>62.1</ele>
        <time>2022-10-09T14:08:08Z</time>
      </trkpt>
      <trkpt lat="43.40166" lon="6.7061">
        <ele>61.6</ele>
        <time>2022-10-09T14:08:09Z</time>
      </trkpt>
      <trkpt lat="43.40167" lon="6.70615">
        <ele>61.2</ele>
        <time>2022-10-09T14:08:10Z</time>
      </trkpt>
      <trkpt lat="43.40169" lon="6.7062">
        <ele>60.7</ele>
        <time>2022-10-09T14:08:11Z</time>
      </trkpt>
      <trkpt lat="43.40174" lon="6.70632">
        <ele>59.8</ele>
        <time>2022-10-09T14:08:13Z</time>
      </trkpt>
      <trkpt lat="43.40178" lon="6.70636">
        <ele>59.4</ele>
        <time>2022-10-09T14:08:14Z</time>
      </trkpt>
      <trkpt lat="43.40182" lon="6.70639">
        <ele>59</ele>
        <time>2022-10-09T14:08:15Z</time>
      </trkpt>
      <trkpt lat="43.40185" lon="6.70644">
        <ele>58.5</ele>
        <time>2022-10-09T14:08:16Z</time>
      </trkpt>
      <trkpt lat="43.40186" lon="6.7065">
        <ele>58.1</ele>
        <time>2022-10-09T14:08:17Z</time>
      </trkpt>
      <trkpt lat="43.40187" lon="6.70656">
        <ele>57.7</ele>
        <time>2022-10-09T14:08:18Z</time>
      </trkpt>
      <trkpt lat="43.40189" lon="6.7066">
        <ele>57.4</ele>
        <time>2022-10-09T14:08:19Z</time>
      </trkpt>
      <trkpt lat="43.4019" lon="6.70664">
        <ele>57.1</ele>
        <time>2022-10-09T14:08:20Z</time>
      </trkpt>
      <trkpt lat="43.40192" lon="6.70668">
        <ele>56.9</ele>
        <time>2022-10-09T14:08:21Z</time>
      </trkpt>
      <trkpt lat="43.40194" lon="6.70672">
        <ele>56.6</ele>
        <time>2022-10-09T14:08:22Z</time>
      </trkpt>
      <trkpt lat="43.40196" lon="6.70677">
        <ele>56.3</ele>
        <time>2022-10-09T14:08:23Z</time>
      </trkpt>
      <trkpt lat="43.40198" lon="6.70681">
        <ele>56.1</ele>
        <time>2022-10-09T14:08:24Z</time>
      </trkpt>
      <trkpt lat="43.402" lon="6.70687">
        <ele>55.9</ele>
        <time>2022-10-09T14:08:25Z</time>
      </trkpt>
      <trkpt lat="43.40204" lon="6.70697">
        <ele>55.5</ele>
        <time>2022-10-09T14:08:27Z</time>
      </trkpt>
      <trkpt lat="43.40206" lon="6.70701">
        <ele>55.3</ele>
        <time>2022-10-09T14:08:28Z</time>
      </trkpt>
      <trkpt lat="43.40208" lon="6.70703">
        <ele>55.1</ele>
        <time>2022-10-09T14:08:29Z</time>
      </trkpt>
      <trkpt lat="43.40211" lon="6.70706">
        <ele>54.9</ele>
        <time>2022-10-09T14:08:30Z</time>
      </trkpt>
      <trkpt lat="43.40214" lon="6.70713">
        <ele>54.5</ele>
        <time>2022-10-09T14:08:32Z</time>
      </trkpt>
      <trkpt lat="43.40215" lon="6.70718">
        <ele>54.2</ele>
        <time>2022-10-09T14:08:33Z</time>
      </trkpt>
      <trkpt lat="43.40215" lon="6.70722">
        <ele>53.9</ele>
        <time>2022-10-09T14:08:34Z</time>
      </trkpt>
      <trkpt lat="43.40215" lon="6.70725">
        <ele>53.6</ele>
        <time>2022-10-09T14:08:35Z</time>
      </trkpt>
      <trkpt lat="43.40214" lon="6.70729">
        <ele>53.3</ele>
        <time>2022-10-09T14:08:36Z</time>
      </trkpt>
      <trkpt lat="43.40213" lon="6.70733">
        <ele>53</ele>
        <time>2022-10-09T14:08:37Z</time>
      </trkpt>
      <trkpt lat="43.40212" lon="6.70738">
        <ele>52.7</ele>
        <time>2022-10-09T14:08:38Z</time>
      </trkpt>
      <trkpt lat="43.40211" lon="6.70745">
        <ele>52.1</ele>
        <time>2022-10-09T14:08:40Z</time>
      </trkpt>
      <trkpt lat="43.40211" lon="6.70749">
        <ele>51.9</ele>
        <time>2022-10-09T14:08:41Z</time>
      </trkpt>
      <trkpt lat="43.40211" lon="6.70752">
        <ele>51.6</ele>
        <time>2022-10-09T14:08:42Z</time>
      </trkpt>
      <trkpt lat="43.40211" lon="6.70757">
        <ele>51.3</ele>
        <time>2022-10-09T14:08:43Z</time>
      </trkpt>
      <trkpt lat="43.4021" lon="6.70766">
        <ele>50.7</ele>
        <time>2022-10-09T14:08:45Z</time>
      </trkpt>
      <trkpt lat="43.40206" lon="6.70784">
        <ele>49.6</ele>
        <time>2022-10-09T14:08:49Z</time>
      </trkpt>
      <trkpt lat="43.40206" lon="6.70789">
        <ele>49.3</ele>
        <time>2022-10-09T14:08:50Z</time>
      </trkpt>
      <trkpt lat="43.40204" lon="6.70798">
        <ele>48.8</ele>
        <time>2022-10-09T14:08:52Z</time>
      </trkpt>
      <trkpt lat="43.40201" lon="6.70807">
        <ele>48.2</ele>
        <time>2022-10-09T14:08:54Z</time>
      </trkpt>
      <trkpt lat="43.40199" lon="6.70811">
        <ele>47.9</ele>
        <time>2022-10-09T14:08:55Z</time>
      </trkpt>
      <trkpt lat="43.40187" lon="6.7083">
        <ele>46.7</ele>
        <time>2022-10-09T14:08:59Z</time>
      </trkpt>
      <trkpt lat="43.40185" lon="6.70834">
        <ele>46.5</ele>
        <time>2022-10-09T14:09:00Z</time>
      </trkpt>
      <trkpt lat="43.40182" lon="6.70838">
        <ele>46.3</ele>
        <time>2022-10-09T14:09:01Z</time>
      </trkpt>
      <trkpt lat="43.40179" lon="6.7084">
        <ele>46.1</ele>
        <time>2022-10-09T14:09:02Z</time>
      </trkpt>
      <trkpt lat="43.40173" lon="6.70848">
        <ele>45.6</ele>
        <time>2022-10-09T14:09:04Z</time>
      </trkpt>
      <trkpt lat="43.40167" lon="6.70859">
        <ele>45</ele>
        <time>2022-10-09T14:09:06Z</time>
      </trkpt>
      <trkpt lat="43.40164" lon="6.70864">
        <ele>44.7</ele>
        <time>2022-10-09T14:09:07Z</time>
      </trkpt>
      <trkpt lat="43.40162" lon="6.70869">
        <ele>44.4</ele>
        <time>2022-10-09T14:09:08Z</time>
      </trkpt>
      <trkpt lat="43.40159" lon="6.70873">
        <ele>44</ele>
        <time>2022-10-09T14:09:09Z</time>
      </trkpt>
      <trkpt lat="43.40156" lon="6.70877">
        <ele>43.7</ele>
        <time>2022-10-09T14:09:10Z</time>
      </trkpt>
      <trkpt lat="43.40154" lon="6.70881">
        <ele>43.4</ele>
        <time>2022-10-09T14:09:11Z</time>
      </trkpt>
      <trkpt lat="43.40152" lon="6.70886">
        <ele>43.1</ele>
        <time>2022-10-09T14:09:12Z</time>
      </trkpt>
      <trkpt lat="43.40152" lon="6.70891">
        <ele>42.7</ele>
        <time>2022-10-09T14:09:13Z</time>
      </trkpt>
      <trkpt lat="43.40151" lon="6.70896">
        <ele>42.4</ele>
        <time>2022-10-09T14:09:14Z</time>
      </trkpt>
      <trkpt lat="43.40151" lon="6.70901">
        <ele>42</ele>
        <time>2022-10-09T14:09:15Z</time>
      </trkpt>
      <trkpt lat="43.40151" lon="6.70905">
        <ele>41.7</ele>
        <time>2022-10-09T14:09:16Z</time>
      </trkpt>
      <trkpt lat="43.4015" lon="6.70908">
        <ele>41.4</ele>
        <time>2022-10-09T14:09:17Z</time>
      </trkpt>
      <trkpt lat="43.4015" lon="6.70911">
        <ele>41.1</ele>
        <time>2022-10-09T14:09:18Z</time>
      </trkpt>
      <trkpt lat="43.40149" lon="6.70914">
        <ele>40.9</ele>
        <time>2022-10-09T14:09:19Z</time>
      </trkpt>
      <trkpt lat="43.40149" lon="6.70917">
        <ele>40.6</ele>
        <time>2022-10-09T14:09:20Z</time>
      </trkpt>
      <trkpt lat="43.40147" lon="6.70923">
        <ele>39.9</ele>
        <time>2022-10-09T14:09:22Z</time>
      </trkpt>
      <trkpt lat="43.40146" lon="6.70925">
        <ele>39.6</ele>
        <time>2022-10-09T14:09:23Z</time>
      </trkpt>
      <trkpt lat="43.40145" lon="6.70931">
        <ele>38.8</ele>
        <time>2022-10-09T14:09:25Z</time>
      </trkpt>
      <trkpt lat="43.40144" lon="6.70934">
        <ele>38.5</ele>
        <time>2022-10-09T14:09:26Z</time>
      </trkpt>
      <trkpt lat="43.40141" lon="6.70946">
        <ele>36.7</ele>
        <time>2022-10-09T14:09:30Z</time>
      </trkpt>
      <trkpt lat="43.4014" lon="6.70949">
        <ele>36.2</ele>
        <time>2022-10-09T14:09:31Z</time>
      </trkpt>
      <trkpt lat="43.40137" lon="6.70962">
        <ele>34.3</ele>
        <time>2022-10-09T14:09:35Z</time>
      </trkpt>
      <trkpt lat="43.40137" lon="6.70965">
        <ele>33.8</ele>
        <time>2022-10-09T14:09:36Z</time>
      </trkpt>
      <trkpt lat="43.40136" lon="6.70976">
        <ele>32.3</ele>
        <time>2022-10-09T14:09:39Z</time>
      </trkpt>
      <trkpt lat="43.40136" lon="6.70981">
        <ele>31.7</ele>
        <time>2022-10-09T14:09:40Z</time>
      </trkpt>
      <trkpt lat="43.40136" lon="6.70985">
        <ele>31.2</ele>
        <time>2022-10-09T14:09:41Z</time>
      </trkpt>
      <trkpt lat="43.40136" lon="6.70988">
        <ele>30.7</ele>
        <time>2022-10-09T14:09:42Z</time>
      </trkpt>
      <trkpt lat="43.40136" lon="6.70992">
        <ele>30.3</ele>
        <time>2022-10-09T14:09:43Z</time>
      </trkpt>
      <trkpt lat="43.40137" lon="6.70994">
        <ele>29.9</ele>
        <time>2022-10-09T14:09:44Z</time>
      </trkpt>
      <trkpt lat="43.40137" lon="6.70997">
        <ele>29.5</ele>
        <time>2022-10-09T14:09:45Z</time>
      </trkpt>
      <trkpt lat="43.40138" lon="6.71">
        <ele>29.1</ele>
        <time>2022-10-09T14:09:46Z</time>
      </trkpt>
      <trkpt lat="43.40139" lon="6.71004">
        <ele>28.6</ele>
        <time>2022-10-09T14:09:47Z</time>
      </trkpt>
      <trkpt lat="43.40139" lon="6.7102">
        <ele>26.4</ele>
        <time>2022-10-09T14:09:51Z</time>
      </trkpt>
      <trkpt lat="43.40139" lon="6.71025">
        <ele>25.8</ele>
        <time>2022-10-09T14:09:52Z</time>
      </trkpt>
      <trkpt lat="43.40139" lon="6.71029">
        <ele>25.3</ele>
        <time>2022-10-09T14:09:53Z</time>
      </trkpt>
      <trkpt lat="43.4014" lon="6.71041">
        <ele>23.7</ele>
        <time>2022-10-09T14:09:56Z</time>
      </trkpt>
      <trkpt lat="43.40141" lon="6.71045">
        <ele>23.1</ele>
        <time>2022-10-09T14:09:57Z</time>
      </trkpt>
      <trkpt lat="43.40142" lon="6.71048">
        <ele>22.6</ele>
        <time>2022-10-09T14:09:58Z</time>
      </trkpt>
      <trkpt lat="43.40143" lon="6.71051">
        <ele>22.1</ele>
        <time>2022-10-09T14:09:59Z</time>
      </trkpt>
      <trkpt lat="43.40143" lon="6.71055">
        <ele>21.5</ele>
        <time>2022-10-09T14:10:00Z</time>
      </trkpt>
      <trkpt lat="43.40144" lon="6.71069">
        <ele>19.1</ele>
        <time>2022-10-09T14:10:03Z</time>
      </trkpt>
      <trkpt lat="43.40144" lon="6.71076">
        <ele>18</ele>
        <time>2022-10-09T14:10:04Z</time>
      </trkpt>
      <trkpt lat="43.40146" lon="6.7111">
        <ele>12.7</ele>
        <time>2022-10-09T14:10:09Z</time>
      </trkpt>
      <trkpt lat="43.40145" lon="6.71116">
        <ele>11.9</ele>
        <time>2022-10-09T14:10:10Z</time>
      </trkpt>
      <trkpt lat="43.40145" lon="6.71121">
        <ele>11.1</ele>
        <time>2022-10-09T14:10:11Z</time>
      </trkpt>
      <trkpt lat="43.40144" lon="6.71135">
        <ele>10.4</ele>
        <time>2022-10-09T14:10:13Z</time>
      </trkpt>
      <trkpt lat="43.40144" lon="6.71144">
        <ele>9.5</ele>
        <time>2022-10-09T14:10:14Z</time>
      </trkpt>
      <trkpt lat="43.40145" lon="6.71153">
        <ele>8.6</ele>
        <time>2022-10-09T14:10:15Z</time>
      </trkpt>
      <trkpt lat="43.40145" lon="6.71163">
        <ele>7.7</ele>
        <time>2022-10-09T14:10:16Z</time>
      </trkpt>
      <trkpt lat="43.40146" lon="6.71175">
        <ele>6.9</ele>
        <time>2022-10-09T14:10:17Z</time>
      </trkpt>
      <trkpt lat="43.40146" lon="6.71185">
        <ele>6.3</ele>
        <time>2022-10-09T14:10:18Z</time>
      </trkpt>
      <trkpt lat="43.40149" lon="6.71216">
        <ele>4.8</ele>
        <time>2022-10-09T14:10:21Z</time>
      </trkpt>
      <trkpt lat="43.40149" lon="6.71225">
        <ele>4.5</ele>
        <time>2022-10-09T14:10:22Z</time>
      </trkpt>
      <trkpt lat="43.40149" lon="6.71233">
        <ele>4.3</ele>
        <time>2022-10-09T14:10:23Z</time>
      </trkpt>
      <trkpt lat="43.40148" lon="6.7124">
        <ele>4.1</ele>
        <time>2022-10-09T14:10:24Z</time>
      </trkpt>
      <trkpt lat="43.40148" lon="6.71246">
        <ele>4</ele>
        <time>2022-10-09T14:10:25Z</time>
      </trkpt>
      <trkpt lat="43.40147" lon="6.71251">
        <ele>3.9</ele>
        <time>2022-10-09T14:10:26Z</time>
      </trkpt>
      <trkpt lat="43.40145" lon="6.71255">
        <ele>3.8</ele>
        <time>2022-10-09T14:10:27Z</time>
      </trkpt>
      <trkpt lat="43.40141" lon="6.71259">
        <ele>3.7</ele>
        <time>2022-10-09T14:10:28Z</time>
      </trkpt>
      <trkpt lat="43.40134" lon="6.71265">
        <ele>3.4</ele>
        <time>2022-10-09T14:10:30Z</time>
      </trkpt>
      <trkpt lat="43.40131" lon="6.71268">
        <ele>3.3</ele>
        <time>2022-10-09T14:10:31Z</time>
      </trkpt>
      <trkpt lat="43.40128" lon="6.71271">
        <ele>3.2</ele>
        <time>2022-10-09T14:10:32Z</time>
      </trkpt>
      <trkpt lat="43.40125" lon="6.71274">
        <ele>3.1</ele>
        <time>2022-10-09T14:10:33Z</time>
      </trkpt>
      <trkpt lat="43.40122" lon="6.71277">
        <ele>3.1</ele>
        <time>2022-10-09T14:10:34Z</time>
      </trkpt>
      <trkpt lat="43.40119" lon="6.7128">
        <ele>3</ele>
        <time>2022-10-09T14:10:35Z</time>
      </trkpt>
      <trkpt lat="43.40117" lon="6.71282">
        <ele>3</ele>
        <time>2022-10-09T14:10:36Z</time>
      </trkpt>
      <trkpt lat="43.40111" lon="6.71287">
        <ele>2.9</ele>
        <time>2022-10-09T14:10:38Z</time>
      </trkpt>
      <trkpt lat="43.40102" lon="6.71295">
        <ele>2.8</ele>
        <time>2022-10-09T14:10:41Z</time>
      </trkpt>
      <trkpt lat="43.401" lon="6.71298">
        <ele>2.8</ele>
        <time>2022-10-09T14:10:42Z</time>
      </trkpt>
      <trkpt lat="43.40097" lon="6.713">
        <ele>2.8</ele>
        <time>2022-10-09T14:10:43Z</time>
      </trkpt>
      <trkpt lat="43.40094" lon="6.71302">
        <ele>2.8</ele>
        <time>2022-10-09T14:10:44Z</time>
      </trkpt>
      <trkpt lat="43.40089" lon="6.71307">
        <ele>2.8</ele>
        <time>2022-10-09T14:10:46Z</time>
      </trkpt>
      <trkpt lat="43.40086" lon="6.7131">
        <ele>2.8</ele>
        <time>2022-10-09T14:10:47Z</time>
      </trkpt>
      <trkpt lat="43.40083" lon="6.71312">
        <ele>2.8</ele>
        <time>2022-10-09T14:10:48Z</time>
      </trkpt>
      <trkpt lat="43.40078" lon="6.71317">
        <ele>2.8</ele>
        <time>2022-10-09T14:10:50Z</time>
      </trkpt>
      <trkpt lat="43.40068" lon="6.71326">
        <ele>2.8</ele>
        <time>2022-10-09T14:10:54Z</time>
      </trkpt>
      <trkpt lat="43.40062" lon="6.7133">
        <ele>2.9</ele>
        <time>2022-10-09T14:10:56Z</time>
      </trkpt>
      <trkpt lat="43.4006" lon="6.71333">
        <ele>2.9</ele>
        <time>2022-10-09T14:10:57Z</time>
      </trkpt>
      <trkpt lat="43.40058" lon="6.71336">
        <ele>2.9</ele>
        <time>2022-10-09T14:10:58Z</time>
      </trkpt>
      <trkpt lat="43.40051" lon="6.71344">
        <ele>3</ele>
        <time>2022-10-09T14:11:01Z</time>
      </trkpt>
      <trkpt lat="43.40049" lon="6.71346">
        <ele>3</ele>
        <time>2022-10-09T14:11:02Z</time>
      </trkpt>
      <trkpt lat="43.40046" lon="6.71352">
        <ele>3.1</ele>
        <time>2022-10-09T14:11:04Z</time>
      </trkpt>
      <trkpt lat="43.40042" lon="6.71359">
        <ele>3.1</ele>
        <time>2022-10-09T14:11:06Z</time>
      </trkpt>
      <trkpt lat="43.40033" lon="6.71379">
        <ele>3.3</ele>
        <time>2022-10-09T14:11:12Z</time>
      </trkpt>
      <trkpt lat="43.40031" lon="6.71383">
        <ele>3.3</ele>
        <time>2022-10-09T14:11:13Z</time>
      </trkpt>
      <trkpt lat="43.40028" lon="6.71389">
        <ele>3.4</ele>
        <time>2022-10-09T14:11:15Z</time>
      </trkpt>
      <trkpt lat="43.40027" lon="6.71392">
        <ele>3.4</ele>
        <time>2022-10-09T14:11:16Z</time>
      </trkpt>
      <trkpt lat="43.40023" lon="6.71398">
        <ele>3.4</ele>
        <time>2022-10-09T14:11:18Z</time>
      </trkpt>
      <trkpt lat="43.40022" lon="6.71401">
        <ele>3.5</ele>
        <time>2022-10-09T14:11:19Z</time>
      </trkpt>
      <trkpt lat="43.40021" lon="6.71404">
        <ele>3.5</ele>
        <time>2022-10-09T14:11:20Z</time>
      </trkpt>
      <trkpt lat="43.4002" lon="6.71407">
        <ele>3.5</ele>
        <time>2022-10-09T14:11:21Z</time>
      </trkpt>
      <trkpt lat="43.40017" lon="6.71413">
        <ele>3.6</ele>
        <time>2022-10-09T14:11:23Z</time>
      </trkpt>
      <trkpt lat="43.40015" lon="6.71419">
        <ele>3.6</ele>
        <time>2022-10-09T14:11:25Z</time>
      </trkpt>
      <trkpt lat="43.40014" lon="6.71422">
        <ele>3.6</ele>
        <time>2022-10-09T14:11:26Z</time>
      </trkpt>
      <trkpt lat="43.40012" lon="6.71429">
        <ele>3.7</ele>
        <time>2022-10-09T14:11:28Z</time>
      </trkpt>
      <trkpt lat="43.40011" lon="6.71431">
        <ele>3.7</ele>
        <time>2022-10-09T14:11:29Z</time>
      </trkpt>
      <trkpt lat="43.40009" lon="6.71434">
        <ele>3.7</ele>
        <time>2022-10-09T14:11:30Z</time>
      </trkpt>
      <trkpt lat="43.40006" lon="6.7144">
        <ele>3.8</ele>
        <time>2022-10-09T14:11:32Z</time>
      </trkpt>
      <trkpt lat="43.39993" lon="6.71461">
        <ele>4</ele>
        <time>2022-10-09T14:11:39Z</time>
      </trkpt>
      <trkpt lat="43.39989" lon="6.71467">
        <ele>4.1</ele>
        <time>2022-10-09T14:11:41Z</time>
      </trkpt>
      <trkpt lat="43.39987" lon="6.71469">
        <ele>4.1</ele>
        <time>2022-10-09T14:11:42Z</time>
      </trkpt>
      <trkpt lat="43.39984" lon="6.71475">
        <ele>4.2</ele>
        <time>2022-10-09T14:11:44Z</time>
      </trkpt>
      <trkpt lat="43.39983" lon="6.71477">
        <ele>4.2</ele>
        <time>2022-10-09T14:11:45Z</time>
      </trkpt>
      <trkpt lat="43.39982" lon="6.71483">
        <ele>4.3</ele>
        <time>2022-10-09T14:11:47Z</time>
      </trkpt>
      <trkpt lat="43.39982" lon="6.71487">
        <ele>4.3</ele>
        <time>2022-10-09T14:11:48Z</time>
      </trkpt>
      <trkpt lat="43.39982" lon="6.7149">
        <ele>4.3</ele>
        <time>2022-10-09T14:11:49Z</time>
      </trkpt>
      <trkpt lat="43.39983" lon="6.71494">
        <ele>4.2</ele>
        <time>2022-10-09T14:11:50Z</time>
      </trkpt>
      <trkpt lat="43.39983" lon="6.71498">
        <ele>4.2</ele>
        <time>2022-10-09T14:11:51Z</time>
      </trkpt>
      <trkpt lat="43.39984" lon="6.71506">
        <ele>4.1</ele>
        <time>2022-10-09T14:11:53Z</time>
      </trkpt>
      <trkpt lat="43.39984" lon="6.71509">
        <ele>4.1</ele>
        <time>2022-10-09T14:11:54Z</time>
      </trkpt>
      <trkpt lat="43.39984" lon="6.71513">
        <ele>4.1</ele>
        <time>2022-10-09T14:11:55Z</time>
      </trkpt>
      <trkpt lat="43.39985" lon="6.7152">
        <ele>4.1</ele>
        <time>2022-10-09T14:11:57Z</time>
      </trkpt>
      <trkpt lat="43.39985" lon="6.71524">
        <ele>4.1</ele>
        <time>2022-10-09T14:11:58Z</time>
      </trkpt>
      <trkpt lat="43.39989" lon="6.71548">
        <ele>4</ele>
        <time>2022-10-09T14:12:04Z</time>
      </trkpt>
      <trkpt lat="43.3999" lon="6.71556">
        <ele>3.9</ele>
        <time>2022-10-09T14:12:06Z</time>
      </trkpt>
      <trkpt lat="43.39991" lon="6.7156">
        <ele>3.9</ele>
        <time>2022-10-09T14:12:07Z</time>
      </trkpt>
      <trkpt lat="43.39992" lon="6.71564">
        <ele>3.9</ele>
        <time>2022-10-09T14:12:08Z</time>
      </trkpt>
      <trkpt lat="43.39993" lon="6.71568">
        <ele>3.9</ele>
        <time>2022-10-09T14:12:09Z</time>
      </trkpt>
      <trkpt lat="43.39993" lon="6.71571">
        <ele>3.9</ele>
        <time>2022-10-09T14:12:10Z</time>
      </trkpt>
      <trkpt lat="43.39994" lon="6.71576">
        <ele>3.9</ele>
        <time>2022-10-09T14:12:11Z</time>
      </trkpt>
      <trkpt lat="43.39994" lon="6.71584">
        <ele>3.8</ele>
        <time>2022-10-09T14:12:13Z</time>
      </trkpt>
      <trkpt lat="43.39994" lon="6.71588">
        <ele>3.8</ele>
        <time>2022-10-09T14:12:14Z</time>
      </trkpt>
      <trkpt lat="43.39994" lon="6.71591">
        <ele>3.8</ele>
        <time>2022-10-09T14:12:15Z</time>
      </trkpt>
      <trkpt lat="43.39993" lon="6.71595">
        <ele>3.8</ele>
        <time>2022-10-09T14:12:16Z</time>
      </trkpt>
      <trkpt lat="43.39993" lon="6.71599">
        <ele>3.8</ele>
        <time>2022-10-09T14:12:17Z</time>
      </trkpt>
      <trkpt lat="43.39992" lon="6.71602">
        <ele>3.8</ele>
        <time>2022-10-09T14:12:18Z</time>
      </trkpt>
      <trkpt lat="43.39992" lon="6.71606">
        <ele>3.8</ele>
        <time>2022-10-09T14:12:19Z</time>
      </trkpt>
      <trkpt lat="43.39989" lon="6.71612">
        <ele>3.8</ele>
        <time>2022-10-09T14:12:21Z</time>
      </trkpt>
      <trkpt lat="43.39987" lon="6.71619">
        <ele>3.9</ele>
        <time>2022-10-09T14:12:23Z</time>
      </trkpt>
      <trkpt lat="43.39987" lon="6.71622">
        <ele>3.9</ele>
        <time>2022-10-09T14:12:24Z</time>
      </trkpt>
      <trkpt lat="43.39986" lon="6.71624">
        <ele>4</ele>
        <time>2022-10-09T14:12:25Z</time>
      </trkpt>
      <trkpt lat="43.39986" lon="6.71626">
        <ele>4</ele>
        <time>2022-10-09T14:12:26Z</time>
      </trkpt>
      <trkpt lat="43.39985" lon="6.71629">
        <ele>4</ele>
        <time>2022-10-09T14:12:27Z</time>
      </trkpt>
      <trkpt lat="43.39985" lon="6.71631">
        <ele>4.1</ele>
        <time>2022-10-09T14:12:28Z</time>
      </trkpt>
      <trkpt lat="43.39985" lon="6.71632">
        <ele>4.1</ele>
        <time>2022-10-09T14:12:29Z</time>
      </trkpt>
      <trkpt lat="43.39985" lon="6.71633">
        <ele>4.1</ele>
        <time>2022-10-09T14:12:30Z</time>
      </trkpt>
      <trkpt lat="43.39985" lon="6.71633">
        <ele>4.1</ele>
        <time>2022-10-09T14:12:31Z</time>
      </trkpt>
      <trkpt lat="43.39998" lon="6.71678">
        <ele>3.9</ele>
        <time>2022-10-09T14:13:28Z</time>
      </trkpt>
      <trkpt lat="43.39997" lon="6.71681">
        <ele>3.9</ele>
        <time>2022-10-09T14:13:29Z</time>
      </trkpt>
      <trkpt lat="43.39996" lon="6.71683">
        <ele>3.9</ele>
        <time>2022-10-09T14:13:30Z</time>
      </trkpt>
      <trkpt lat="43.39992" lon="6.71695">
        <ele>3.8</ele>
        <time>2022-10-09T14:13:34Z</time>
      </trkpt>
      <trkpt lat="43.39991" lon="6.71698">
        <ele>3.8</ele>
        <time>2022-10-09T14:13:35Z</time>
      </trkpt>
      <trkpt lat="43.3999" lon="6.71701">
        <ele>3.8</ele>
        <time>2022-10-09T14:13:36Z</time>
      </trkpt>
      <trkpt lat="43.39989" lon="6.71704">
        <ele>3.8</ele>
        <time>2022-10-09T14:13:37Z</time>
      </trkpt>
      <trkpt lat="43.39988" lon="6.71707">
        <ele>3.8</ele>
        <time>2022-10-09T14:13:38Z</time>
      </trkpt>
      <trkpt lat="43.39987" lon="6.7171">
        <ele>3.8</ele>
        <time>2022-10-09T14:13:39Z</time>
      </trkpt>
      <trkpt lat="43.39986" lon="6.71716">
        <ele>3.8</ele>
        <time>2022-10-09T14:13:41Z</time>
      </trkpt>
      <trkpt lat="43.39985" lon="6.71718">
        <ele>3.8</ele>
        <time>2022-10-09T14:13:42Z</time>
      </trkpt>
      <trkpt lat="43.39985" lon="6.71721">
        <ele>3.8</ele>
        <time>2022-10-09T14:13:43Z</time>
      </trkpt>
      <trkpt lat="43.39983" lon="6.71729">
        <ele>3.9</ele>
        <time>2022-10-09T14:13:46Z</time>
      </trkpt>
      <trkpt lat="43.39981" lon="6.71732">
        <ele>3.9</ele>
        <time>2022-10-09T14:13:47Z</time>
      </trkpt>
      <trkpt lat="43.39977" lon="6.71741">
        <ele>4.2</ele>
        <time>2022-10-09T14:13:50Z</time>
      </trkpt>
      <trkpt lat="43.39973" lon="6.71748">
        <ele>4.4</ele>
        <time>2022-10-09T14:13:52Z</time>
      </trkpt>
      <trkpt lat="43.3997" lon="6.71751">
        <ele>4.6</ele>
        <time>2022-10-09T14:13:53Z</time>
      </trkpt>
      <trkpt lat="43.39968" lon="6.71754">
        <ele>4.8</ele>
        <time>2022-10-09T14:13:54Z</time>
      </trkpt>
      <trkpt lat="43.39966" lon="6.71756">
        <ele>5</ele>
        <time>2022-10-09T14:13:55Z</time>
      </trkpt>
      <trkpt lat="43.39965" lon="6.71758">
        <ele>5.1</ele>
        <time>2022-10-09T14:13:56Z</time>
      </trkpt>
      <trkpt lat="43.39964" lon="6.7176">
        <ele>5.2</ele>
        <time>2022-10-09T14:13:57Z</time>
      </trkpt>
      <trkpt lat="43.39963" lon="6.71762">
        <ele>5.3</ele>
        <time>2022-10-09T14:13:58Z</time>
      </trkpt>
      <trkpt lat="43.39962" lon="6.71764">
        <ele>5.5</ele>
        <time>2022-10-09T14:13:59Z</time>
      </trkpt>
      <trkpt lat="43.3996" lon="6.71767">
        <ele>5.7</ele>
        <time>2022-10-09T14:14:00Z</time>
      </trkpt>
      <trkpt lat="43.39956" lon="6.71772">
        <ele>6.4</ele>
        <time>2022-10-09T14:14:02Z</time>
      </trkpt>
      <trkpt lat="43.39945" lon="6.71788">
        <ele>7.3</ele>
        <time>2022-10-09T14:14:07Z</time>
      </trkpt>
      <trkpt lat="43.39941" lon="6.71794">
        <ele>7.4</ele>
        <time>2022-10-09T14:14:09Z</time>
      </trkpt>
      <trkpt lat="43.39933" lon="6.71803">
        <ele>7.5</ele>
        <time>2022-10-09T14:14:12Z</time>
      </trkpt>
      <trkpt lat="43.39925" lon="6.71813">
        <ele>7.6</ele>
        <time>2022-10-09T14:14:15Z</time>
      </trkpt>
      <trkpt lat="43.39915" lon="6.71821">
        <ele>7.7</ele>
        <time>2022-10-09T14:14:18Z</time>
      </trkpt>
      <trkpt lat="43.39912" lon="6.71824">
        <ele>7.7</ele>
        <time>2022-10-09T14:14:19Z</time>
      </trkpt>
      <trkpt lat="43.39904" lon="6.7183">
        <ele>7.7</ele>
        <time>2022-10-09T14:14:21Z</time>
      </trkpt>
      <trkpt lat="43.39893" lon="6.71836">
        <ele>7.8</ele>
        <time>2022-10-09T14:14:24Z</time>
      </trkpt>
      <trkpt lat="43.39858" lon="6.71852">
        <ele>7.9</ele>
        <time>2022-10-09T14:14:32Z</time>
      </trkpt>
      <trkpt lat="43.39837" lon="6.71859">
        <ele>8.1</ele>
        <time>2022-10-09T14:14:37Z</time>
      </trkpt>
      <trkpt lat="43.39815" lon="6.71865">
        <ele>8.2</ele>
        <time>2022-10-09T14:14:42Z</time>
      </trkpt>
      <trkpt lat="43.39811" lon="6.71866">
        <ele>8.2</ele>
        <time>2022-10-09T14:14:43Z</time>
      </trkpt>
      <trkpt lat="43.3979" lon="6.71873">
        <ele>8.3</ele>
        <time>2022-10-09T14:14:48Z</time>
      </trkpt>
      <trkpt lat="43.39773" lon="6.71878">
        <ele>8.5</ele>
        <time>2022-10-09T14:14:52Z</time>
      </trkpt>
      <trkpt lat="43.39761" lon="6.71882">
        <ele>8.7</ele>
        <time>2022-10-09T14:14:55Z</time>
      </trkpt>
      <trkpt lat="43.39752" lon="6.71884">
        <ele>8.7</ele>
        <time>2022-10-09T14:14:57Z</time>
      </trkpt>
      <trkpt lat="43.39735" lon="6.71888">
        <ele>8.8</ele>
        <time>2022-10-09T14:15:01Z</time>
      </trkpt>
      <trkpt lat="43.39731" lon="6.71889">
        <ele>8.9</ele>
        <time>2022-10-09T14:15:02Z</time>
      </trkpt>
      <trkpt lat="43.39723" lon="6.71891">
        <ele>8.9</ele>
        <time>2022-10-09T14:15:04Z</time>
      </trkpt>
      <trkpt lat="43.39706" lon="6.71894">
        <ele>9</ele>
        <time>2022-10-09T14:15:08Z</time>
      </trkpt>
      <trkpt lat="43.39703" lon="6.71898">
        <ele>9.4</ele>
        <time>2022-10-09T14:15:09Z</time>
      </trkpt>
      <trkpt lat="43.39701" lon="6.71903">
        <ele>8.7</ele>
        <time>2022-10-09T14:15:10Z</time>
      </trkpt>
      <trkpt lat="43.39699" lon="6.7191">
        <ele>9.1</ele>
        <time>2022-10-09T14:15:11Z</time>
      </trkpt>
      <trkpt lat="43.39698" lon="6.71926">
        <ele>8.4</ele>
        <time>2022-10-09T14:15:13Z</time>
      </trkpt>
      <trkpt lat="43.39697" lon="6.71935">
        <ele>8.3</ele>
        <time>2022-10-09T14:15:14Z</time>
      </trkpt>
      <trkpt lat="43.39696" lon="6.71952">
        <ele>8.7</ele>
        <time>2022-10-09T14:15:16Z</time>
      </trkpt>
      <trkpt lat="43.39695" lon="6.71988">
        <ele>8.1</ele>
        <time>2022-10-09T14:15:20Z</time>
      </trkpt>
      <trkpt lat="43.39692" lon="6.72007">
        <ele>7.7</ele>
        <time>2022-10-09T14:15:22Z</time>
      </trkpt>
      <trkpt lat="43.39686" lon="6.72055">
        <ele>6.6</ele>
        <time>2022-10-09T14:15:27Z</time>
      </trkpt>
      <trkpt lat="43.39685" lon="6.72064">
        <ele>6.5</ele>
        <time>2022-10-09T14:15:28Z</time>
      </trkpt>
      <trkpt lat="43.39684" lon="6.72072">
        <ele>6.4</ele>
        <time>2022-10-09T14:15:29Z</time>
      </trkpt>
      <trkpt lat="43.39683" lon="6.72081">
        <ele>6.3</ele>
        <time>2022-10-09T14:15:30Z</time>
      </trkpt>
      <trkpt lat="43.39682" lon="6.72089">
        <ele>6.2</ele>
        <time>2022-10-09T14:15:31Z</time>
      </trkpt>
      <trkpt lat="43.39681" lon="6.72098">
        <ele>6.1</ele>
        <time>2022-10-09T14:15:32Z</time>
      </trkpt>
      <trkpt lat="43.39679" lon="6.72106">
        <ele>6</ele>
        <time>2022-10-09T14:15:33Z</time>
      </trkpt>
      <trkpt lat="43.39679" lon="6.72114">
        <ele>5.9</ele>
        <time>2022-10-09T14:15:34Z</time>
      </trkpt>
      <trkpt lat="43.39677" lon="6.7213">
        <ele>5.8</ele>
        <time>2022-10-09T14:15:36Z</time>
      </trkpt>
      <trkpt lat="43.39675" lon="6.72146">
        <ele>5.6</ele>
        <time>2022-10-09T14:15:38Z</time>
      </trkpt>
      <trkpt lat="43.39671" lon="6.7217">
        <ele>5.5</ele>
        <time>2022-10-09T14:15:41Z</time>
      </trkpt>
      <trkpt lat="43.39668" lon="6.72186">
        <ele>5.4</ele>
        <time>2022-10-09T14:15:43Z</time>
      </trkpt>
      <trkpt lat="43.39667" lon="6.72194">
        <ele>5.4</ele>
        <time>2022-10-09T14:15:44Z</time>
      </trkpt>
      <trkpt lat="43.39666" lon="6.72202">
        <ele>5.4</ele>
        <time>2022-10-09T14:15:45Z</time>
      </trkpt>
      <trkpt lat="43.39664" lon="6.7221">
        <ele>5.4</ele>
        <time>2022-10-09T14:15:46Z</time>
      </trkpt>
      <trkpt lat="43.39662" lon="6.72218">
        <ele>5.4</ele>
        <time>2022-10-09T14:15:47Z</time>
      </trkpt>
      <trkpt lat="43.39651" lon="6.72267">
        <ele>5.3</ele>
        <time>2022-10-09T14:15:53Z</time>
      </trkpt>
      <trkpt lat="43.39649" lon="6.72275">
        <ele>5.3</ele>
        <time>2022-10-09T14:15:54Z</time>
      </trkpt>
      <trkpt lat="43.39647" lon="6.72291">
        <ele>5.3</ele>
        <time>2022-10-09T14:15:56Z</time>
      </trkpt>
      <trkpt lat="43.39645" lon="6.723">
        <ele>5.3</ele>
        <time>2022-10-09T14:15:57Z</time>
      </trkpt>
      <trkpt lat="43.39642" lon="6.72315">
        <ele>5.3</ele>
        <time>2022-10-09T14:15:59Z</time>
      </trkpt>
      <trkpt lat="43.39641" lon="6.72323">
        <ele>5.2</ele>
        <time>2022-10-09T14:16:00Z</time>
      </trkpt>
      <trkpt lat="43.39638" lon="6.7234">
        <ele>5.2</ele>
        <time>2022-10-09T14:16:02Z</time>
      </trkpt>
      <trkpt lat="43.39637" lon="6.72347">
        <ele>5.2</ele>
        <time>2022-10-09T14:16:03Z</time>
      </trkpt>
      <trkpt lat="43.39634" lon="6.72363">
        <ele>5.2</ele>
        <time>2022-10-09T14:16:05Z</time>
      </trkpt>
      <trkpt lat="43.39632" lon="6.72371">
        <ele>5.2</ele>
        <time>2022-10-09T14:16:06Z</time>
      </trkpt>
      <trkpt lat="43.3963" lon="6.72386">
        <ele>5.1</ele>
        <time>2022-10-09T14:16:08Z</time>
      </trkpt>
      <trkpt lat="43.39626" lon="6.72409">
        <ele>5.1</ele>
        <time>2022-10-09T14:16:11Z</time>
      </trkpt>
      <trkpt lat="43.39624" lon="6.72416">
        <ele>5.1</ele>
        <time>2022-10-09T14:16:12Z</time>
      </trkpt>
      <trkpt lat="43.39623" lon="6.72423">
        <ele>5.1</ele>
        <time>2022-10-09T14:16:13Z</time>
      </trkpt>
      <trkpt lat="43.39621" lon="6.7243">
        <ele>5.1</ele>
        <time>2022-10-09T14:16:14Z</time>
      </trkpt>
      <trkpt lat="43.3962" lon="6.72437">
        <ele>5.1</ele>
        <time>2022-10-09T14:16:15Z</time>
      </trkpt>
      <trkpt lat="43.39615" lon="6.72459">
        <ele>5</ele>
        <time>2022-10-09T14:16:18Z</time>
      </trkpt>
      <trkpt lat="43.39614" lon="6.72466">
        <ele>4.9</ele>
        <time>2022-10-09T14:16:19Z</time>
      </trkpt>
      <trkpt lat="43.39614" lon="6.72473">
        <ele>4.9</ele>
        <time>2022-10-09T14:16:20Z</time>
      </trkpt>
      <trkpt lat="43.39614" lon="6.72481">
        <ele>4.9</ele>
        <time>2022-10-09T14:16:21Z</time>
      </trkpt>
      <trkpt lat="43.39612" lon="6.72489">
        <ele>4.9</ele>
        <time>2022-10-09T14:16:22Z</time>
      </trkpt>
      <trkpt lat="43.39611" lon="6.72496">
        <ele>4.8</ele>
        <time>2022-10-09T14:16:23Z</time>
      </trkpt>
      <trkpt lat="43.3961" lon="6.72503">
        <ele>4.8</ele>
        <time>2022-10-09T14:16:24Z</time>
      </trkpt>
      <trkpt lat="43.39609" lon="6.72509">
        <ele>4.8</ele>
        <time>2022-10-09T14:16:25Z</time>
      </trkpt>
      <trkpt lat="43.39608" lon="6.72516">
        <ele>4.8</ele>
        <time>2022-10-09T14:16:26Z</time>
      </trkpt>
      <trkpt lat="43.39608" lon="6.72524">
        <ele>4.7</ele>
        <time>2022-10-09T14:16:27Z</time>
      </trkpt>
      <trkpt lat="43.39605" lon="6.72546">
        <ele>4.6</ele>
        <time>2022-10-09T14:16:30Z</time>
      </trkpt>
      <trkpt lat="43.39603" lon="6.72552">
        <ele>4.6</ele>
        <time>2022-10-09T14:16:31Z</time>
      </trkpt>
      <trkpt lat="43.39601" lon="6.72558">
        <ele>4.6</ele>
        <time>2022-10-09T14:16:32Z</time>
      </trkpt>
      <trkpt lat="43.39599" lon="6.72564">
        <ele>4.5</ele>
        <time>2022-10-09T14:16:33Z</time>
      </trkpt>
      <trkpt lat="43.39597" lon="6.72578">
        <ele>4.5</ele>
        <time>2022-10-09T14:16:35Z</time>
      </trkpt>
      <trkpt lat="43.39595" lon="6.72585">
        <ele>4.4</ele>
        <time>2022-10-09T14:16:36Z</time>
      </trkpt>
      <trkpt lat="43.39592" lon="6.72599">
        <ele>4.4</ele>
        <time>2022-10-09T14:16:38Z</time>
      </trkpt>
      <trkpt lat="43.39585" lon="6.72612">
        <ele>4.3</ele>
        <time>2022-10-09T14:16:40Z</time>
      </trkpt>
      <trkpt lat="43.3958" lon="6.72615">
        <ele>4.2</ele>
        <time>2022-10-09T14:16:41Z</time>
      </trkpt>
      <trkpt lat="43.39575" lon="6.72616">
        <ele>4.2</ele>
        <time>2022-10-09T14:16:42Z</time>
      </trkpt>
      <trkpt lat="43.39564" lon="6.72613">
        <ele>3.9</ele>
        <time>2022-10-09T14:16:44Z</time>
      </trkpt>
      <trkpt lat="43.39559" lon="6.72612">
        <ele>3.8</ele>
        <time>2022-10-09T14:16:45Z</time>
      </trkpt>
      <trkpt lat="43.39554" lon="6.72609">
        <ele>3.8</ele>
        <time>2022-10-09T14:16:46Z</time>
      </trkpt>
      <trkpt lat="43.39537" lon="6.72603">
        <ele>3.7</ele>
        <time>2022-10-09T14:16:49Z</time>
      </trkpt>
      <trkpt lat="43.39532" lon="6.72601">
        <ele>3.7</ele>
        <time>2022-10-09T14:16:50Z</time>
      </trkpt>
      <trkpt lat="43.39526" lon="6.726">
        <ele>3.7</ele>
        <time>2022-10-09T14:16:51Z</time>
      </trkpt>
      <trkpt lat="43.3951" lon="6.72594">
        <ele>3.7</ele>
        <time>2022-10-09T14:16:54Z</time>
      </trkpt>
      <trkpt lat="43.39499" lon="6.72594">
        <ele>3.6</ele>
        <time>2022-10-09T14:16:56Z</time>
      </trkpt>
      <trkpt lat="43.39494" lon="6.72595">
        <ele>3.6</ele>
        <time>2022-10-09T14:16:57Z</time>
      </trkpt>
      <trkpt lat="43.39472" lon="6.72602">
        <ele>3.7</ele>
        <time>2022-10-09T14:17:01Z</time>
      </trkpt>
      <trkpt lat="43.39467" lon="6.72603">
        <ele>3.7</ele>
        <time>2022-10-09T14:17:02Z</time>
      </trkpt>
      <trkpt lat="43.39461" lon="6.72604">
        <ele>3.7</ele>
        <time>2022-10-09T14:17:03Z</time>
      </trkpt>
      <trkpt lat="43.39424" lon="6.72617">
        <ele>3.8</ele>
        <time>2022-10-09T14:17:10Z</time>
      </trkpt>
      <trkpt lat="43.39418" lon="6.72619">
        <ele>3.8</ele>
        <time>2022-10-09T14:17:11Z</time>
      </trkpt>
      <trkpt lat="43.39396" lon="6.72625">
        <ele>3.9</ele>
        <time>2022-10-09T14:17:15Z</time>
      </trkpt>
      <trkpt lat="43.39385" lon="6.72629">
        <ele>3.9</ele>
        <time>2022-10-09T14:17:17Z</time>
      </trkpt>
      <trkpt lat="43.3938" lon="6.72631">
        <ele>3.8</ele>
        <time>2022-10-09T14:17:18Z</time>
      </trkpt>
      <trkpt lat="43.39375" lon="6.72633">
        <ele>3.8</ele>
        <time>2022-10-09T14:17:19Z</time>
      </trkpt>
      <trkpt lat="43.39365" lon="6.72637">
        <ele>3.8</ele>
        <time>2022-10-09T14:17:21Z</time>
      </trkpt>
      <trkpt lat="43.39355" lon="6.72647">
        <ele>3.8</ele>
        <time>2022-10-09T14:17:23Z</time>
      </trkpt>
      <trkpt lat="43.39351" lon="6.72653">
        <ele>3.8</ele>
        <time>2022-10-09T14:17:24Z</time>
      </trkpt>
      <trkpt lat="43.39347" lon="6.72661">
        <ele>3.2</ele>
        <time>2022-10-09T14:17:25Z</time>
      </trkpt>
      <trkpt lat="43.39343" lon="6.72668">
        <ele>3.4</ele>
        <time>2022-10-09T14:17:26Z</time>
      </trkpt>
      <trkpt lat="43.3934" lon="6.72675">
        <ele>3.1</ele>
        <time>2022-10-09T14:17:27Z</time>
      </trkpt>
      <trkpt lat="43.39337" lon="6.72682">
        <ele>3</ele>
        <time>2022-10-09T14:17:28Z</time>
      </trkpt>
      <trkpt lat="43.39333" lon="6.72689">
        <ele>3</ele>
        <time>2022-10-09T14:17:29Z</time>
      </trkpt>
      <trkpt lat="43.3933" lon="6.72695">
        <ele>3.4</ele>
        <time>2022-10-09T14:17:30Z</time>
      </trkpt>
      <trkpt lat="43.39326" lon="6.72701">
        <ele>3.3</ele>
        <time>2022-10-09T14:17:31Z</time>
      </trkpt>
      <trkpt lat="43.39321" lon="6.72706">
        <ele>3.3</ele>
        <time>2022-10-09T14:17:32Z</time>
      </trkpt>
      <trkpt lat="43.39317" lon="6.7271">
        <ele>3.6</ele>
        <time>2022-10-09T14:17:33Z</time>
      </trkpt>
      <trkpt lat="43.39312" lon="6.72712">
        <ele>3.6</ele>
        <time>2022-10-09T14:17:34Z</time>
      </trkpt>
      <trkpt lat="43.39306" lon="6.72711">
        <ele>4.1</ele>
        <time>2022-10-09T14:17:35Z</time>
      </trkpt>
      <trkpt lat="43.39302" lon="6.72708">
        <ele>4.1</ele>
        <time>2022-10-09T14:17:36Z</time>
      </trkpt>
      <trkpt lat="43.39299" lon="6.72703">
        <ele>3.9</ele>
        <time>2022-10-09T14:17:37Z</time>
      </trkpt>
      <trkpt lat="43.39293" lon="6.7269">
        <ele>4.4</ele>
        <time>2022-10-09T14:17:39Z</time>
      </trkpt>
      <trkpt lat="43.39289" lon="6.72685">
        <ele>4.4</ele>
        <time>2022-10-09T14:17:40Z</time>
      </trkpt>
      <trkpt lat="43.39284" lon="6.7268">
        <ele>4.4</ele>
        <time>2022-10-09T14:17:41Z</time>
      </trkpt>
      <trkpt lat="43.3928" lon="6.72675">
        <ele>4.9</ele>
        <time>2022-10-09T14:17:42Z</time>
      </trkpt>
      <trkpt lat="43.39276" lon="6.72671">
        <ele>5</ele>
        <time>2022-10-09T14:17:43Z</time>
      </trkpt>
      <trkpt lat="43.39271" lon="6.72669">
        <ele>5</ele>
        <time>2022-10-09T14:17:44Z</time>
      </trkpt>
      <trkpt lat="43.39266" lon="6.72668">
        <ele>5.5</ele>
        <time>2022-10-09T14:17:45Z</time>
      </trkpt>
      <trkpt lat="43.3926" lon="6.72669">
        <ele>5.5</ele>
        <time>2022-10-09T14:17:46Z</time>
      </trkpt>
      <trkpt lat="43.39255" lon="6.72671">
        <ele>5.9</ele>
        <time>2022-10-09T14:17:47Z</time>
      </trkpt>
      <trkpt lat="43.39251" lon="6.72673">
        <ele>5.8</ele>
        <time>2022-10-09T14:17:48Z</time>
      </trkpt>
      <trkpt lat="43.39247" lon="6.72678">
        <ele>5.8</ele>
        <time>2022-10-09T14:17:49Z</time>
      </trkpt>
      <trkpt lat="43.39245" lon="6.72684">
        <ele>6.3</ele>
        <time>2022-10-09T14:17:50Z</time>
      </trkpt>
      <trkpt lat="43.39245" lon="6.7269">
        <ele>5.6</ele>
        <time>2022-10-09T14:17:51Z</time>
      </trkpt>
      <trkpt lat="43.39247" lon="6.72696">
        <ele>5.5</ele>
        <time>2022-10-09T14:17:52Z</time>
      </trkpt>
      <trkpt lat="43.39256" lon="6.72711">
        <ele>5.5</ele>
        <time>2022-10-09T14:17:55Z</time>
      </trkpt>
      <trkpt lat="43.3926" lon="6.72715">
        <ele>4.9</ele>
        <time>2022-10-09T14:17:56Z</time>
      </trkpt>
      <trkpt lat="43.39265" lon="6.72718">
        <ele>4.8</ele>
        <time>2022-10-09T14:17:57Z</time>
      </trkpt>
      <trkpt lat="43.39273" lon="6.72725">
        <ele>4.2</ele>
        <time>2022-10-09T14:17:59Z</time>
      </trkpt>
      <trkpt lat="43.39277" lon="6.72729">
        <ele>4.2</ele>
        <time>2022-10-09T14:18:00Z</time>
      </trkpt>
      <trkpt lat="43.3928" lon="6.72734">
        <ele>4.2</ele>
        <time>2022-10-09T14:18:01Z</time>
      </trkpt>
      <trkpt lat="43.39282" lon="6.72739">
        <ele>4.1</ele>
        <time>2022-10-09T14:18:02Z</time>
      </trkpt>
      <trkpt lat="43.39284" lon="6.72744">
        <ele>3.6</ele>
        <time>2022-10-09T14:18:03Z</time>
      </trkpt>
      <trkpt lat="43.39284" lon="6.7275">
        <ele>3.6</ele>
        <time>2022-10-09T14:18:04Z</time>
      </trkpt>
      <trkpt lat="43.39284" lon="6.72757">
        <ele>3.5</ele>
        <time>2022-10-09T14:18:05Z</time>
      </trkpt>
      <trkpt lat="43.39283" lon="6.72764">
        <ele>3.4</ele>
        <time>2022-10-09T14:18:06Z</time>
      </trkpt>
      <trkpt lat="43.39281" lon="6.72771">
        <ele>3.4</ele>
        <time>2022-10-09T14:18:07Z</time>
      </trkpt>
      <trkpt lat="43.39279" lon="6.72778">
        <ele>3.5</ele>
        <time>2022-10-09T14:18:08Z</time>
      </trkpt>
      <trkpt lat="43.39277" lon="6.72785">
        <ele>3.5</ele>
        <time>2022-10-09T14:18:09Z</time>
      </trkpt>
      <trkpt lat="43.39275" lon="6.72792">
        <ele>3.6</ele>
        <time>2022-10-09T14:18:10Z</time>
      </trkpt>
      <trkpt lat="43.39273" lon="6.72798">
        <ele>3.7</ele>
        <time>2022-10-09T14:18:11Z</time>
      </trkpt>
      <trkpt lat="43.39271" lon="6.72804">
        <ele>3.7</ele>
        <time>2022-10-09T14:18:12Z</time>
      </trkpt>
      <trkpt lat="43.39269" lon="6.7281">
        <ele>3.8</ele>
        <time>2022-10-09T14:18:13Z</time>
      </trkpt>
      <trkpt lat="43.39267" lon="6.72816">
        <ele>3.9</ele>
        <time>2022-10-09T14:18:14Z</time>
      </trkpt>
      <trkpt lat="43.39265" lon="6.7282">
        <ele>4</ele>
        <time>2022-10-09T14:18:15Z</time>
      </trkpt>
      <trkpt lat="43.39265" lon="6.72824">
        <ele>4.1</ele>
        <time>2022-10-09T14:18:16Z</time>
      </trkpt>
      <trkpt lat="43.39264" lon="6.72829">
        <ele>4.1</ele>
        <time>2022-10-09T14:18:17Z</time>
      </trkpt>
      <trkpt lat="43.39263" lon="6.72834">
        <ele>4.2</ele>
        <time>2022-10-09T14:18:18Z</time>
      </trkpt>
      <trkpt lat="43.3926" lon="6.72842">
        <ele>4.3</ele>
        <time>2022-10-09T14:18:20Z</time>
      </trkpt>
      <trkpt lat="43.39257" lon="6.72845">
        <ele>4.4</ele>
        <time>2022-10-09T14:18:21Z</time>
      </trkpt>
      <trkpt lat="43.39254" lon="6.72848">
        <ele>4.4</ele>
        <time>2022-10-09T14:18:22Z</time>
      </trkpt>
      <trkpt lat="43.39251" lon="6.7285">
        <ele>4.5</ele>
        <time>2022-10-09T14:18:23Z</time>
      </trkpt>
      <trkpt lat="43.39248" lon="6.72851">
        <ele>4.6</ele>
        <time>2022-10-09T14:18:24Z</time>
      </trkpt>
      <trkpt lat="43.39245" lon="6.72852">
        <ele>4.7</ele>
        <time>2022-10-09T14:18:25Z</time>
      </trkpt>
      <trkpt lat="43.39241" lon="6.72852">
        <ele>4.8</ele>
        <time>2022-10-09T14:18:26Z</time>
      </trkpt>
      <trkpt lat="43.39238" lon="6.72852">
        <ele>5</ele>
        <time>2022-10-09T14:18:27Z</time>
      </trkpt>
      <trkpt lat="43.39235" lon="6.72851">
        <ele>5.1</ele>
        <time>2022-10-09T14:18:28Z</time>
      </trkpt>
      <trkpt lat="43.39232" lon="6.7285">
        <ele>5.3</ele>
        <time>2022-10-09T14:18:29Z</time>
      </trkpt>
      <trkpt lat="43.3923" lon="6.72848">
        <ele>5.4</ele>
        <time>2022-10-09T14:18:30Z</time>
      </trkpt>
      <trkpt lat="43.39228" lon="6.72846">
        <ele>5.6</ele>
        <time>2022-10-09T14:18:31Z</time>
      </trkpt>
      <trkpt lat="43.39227" lon="6.72844">
        <ele>5.7</ele>
        <time>2022-10-09T14:18:32Z</time>
      </trkpt>
      <trkpt lat="43.39226" lon="6.72842">
        <ele>5.8</ele>
        <time>2022-10-09T14:18:33Z</time>
      </trkpt>
      <trkpt lat="43.39225" lon="6.72839">
        <ele>6.4</ele>
        <time>2022-10-09T14:18:34Z</time>
      </trkpt>
      <trkpt lat="43.39225" lon="6.72837">
        <ele>6.4</ele>
        <time>2022-10-09T14:18:35Z</time>
      </trkpt>
      <trkpt lat="43.39224" lon="6.72836">
        <ele>6.4</ele>
        <time>2022-10-09T14:18:36Z</time>
      </trkpt>
      <trkpt lat="43.39225" lon="6.72835">
        <ele>6.4</ele>
        <time>2022-10-09T14:18:38Z</time>
      </trkpt>
      <trkpt lat="43.39216" lon="6.72816">
        <ele>8.7</ele>
        <time>2022-10-09T14:19:02Z</time>
      </trkpt>
      <trkpt lat="43.39214" lon="6.72815">
        <ele>8.8</ele>
        <time>2022-10-09T14:19:03Z</time>
      </trkpt>
      <trkpt lat="43.39206" lon="6.72812">
        <ele>8.9</ele>
        <time>2022-10-09T14:19:06Z</time>
      </trkpt>
      <trkpt lat="43.39203" lon="6.72811">
        <ele>9</ele>
        <time>2022-10-09T14:19:07Z</time>
      </trkpt>
      <trkpt lat="43.392" lon="6.7281">
        <ele>9.1</ele>
        <time>2022-10-09T14:19:08Z</time>
      </trkpt>
      <trkpt lat="43.39197" lon="6.7281">
        <ele>9.1</ele>
        <time>2022-10-09T14:19:09Z</time>
      </trkpt>
      <trkpt lat="43.39195" lon="6.72809">
        <ele>9.2</ele>
        <time>2022-10-09T14:19:10Z</time>
      </trkpt>
      <trkpt lat="43.39192" lon="6.72808">
        <ele>9.3</ele>
        <time>2022-10-09T14:19:11Z</time>
      </trkpt>
      <trkpt lat="43.39189" lon="6.72807">
        <ele>9.4</ele>
        <time>2022-10-09T14:19:12Z</time>
      </trkpt>
      <trkpt lat="43.39185" lon="6.72806">
        <ele>9.5</ele>
        <time>2022-10-09T14:19:13Z</time>
      </trkpt>
      <trkpt lat="43.39182" lon="6.72805">
        <ele>9.6</ele>
        <time>2022-10-09T14:19:14Z</time>
      </trkpt>
      <trkpt lat="43.39179" lon="6.72805">
        <ele>9.6</ele>
        <time>2022-10-09T14:19:15Z</time>
      </trkpt>
      <trkpt lat="43.39176" lon="6.72805">
        <ele>9.7</ele>
        <time>2022-10-09T14:19:16Z</time>
      </trkpt>
      <trkpt lat="43.39173" lon="6.72806">
        <ele>9.8</ele>
        <time>2022-10-09T14:19:17Z</time>
      </trkpt>
      <trkpt lat="43.3917" lon="6.72807">
        <ele>9.9</ele>
        <time>2022-10-09T14:19:18Z</time>
      </trkpt>
      <trkpt lat="43.39167" lon="6.72807">
        <ele>10.1</ele>
        <time>2022-10-09T14:19:19Z</time>
      </trkpt>
      <trkpt lat="43.39164" lon="6.72808">
        <ele>10.1</ele>
        <time>2022-10-09T14:19:20Z</time>
      </trkpt>
      <trkpt lat="43.39161" lon="6.72808">
        <ele>10.2</ele>
        <time>2022-10-09T14:19:21Z</time>
      </trkpt>
      <trkpt lat="43.39158" lon="6.72808">
        <ele>10.3</ele>
        <time>2022-10-09T14:19:22Z</time>
      </trkpt>
      <trkpt lat="43.39155" lon="6.72809">
        <ele>10.5</ele>
        <time>2022-10-09T14:19:23Z</time>
      </trkpt>
      <trkpt lat="43.39152" lon="6.72809">
        <ele>10.6</ele>
        <time>2022-10-09T14:19:24Z</time>
      </trkpt>
      <trkpt lat="43.39149" lon="6.7281">
        <ele>10.7</ele>
        <time>2022-10-09T14:19:25Z</time>
      </trkpt>
      <trkpt lat="43.39147" lon="6.72811">
        <ele>10.8</ele>
        <time>2022-10-09T14:19:26Z</time>
      </trkpt>
      <trkpt lat="43.39144" lon="6.72813">
        <ele>10.8</ele>
        <time>2022-10-09T14:19:27Z</time>
      </trkpt>
      <trkpt lat="43.39142" lon="6.72815">
        <ele>10.9</ele>
        <time>2022-10-09T14:19:28Z</time>
      </trkpt>
      <trkpt lat="43.3914" lon="6.72817">
        <ele>11</ele>
        <time>2022-10-09T14:19:29Z</time>
      </trkpt>
      <trkpt lat="43.39139" lon="6.7282">
        <ele>11</ele>
        <time>2022-10-09T14:19:30Z</time>
      </trkpt>
      <trkpt lat="43.39136" lon="6.72822">
        <ele>11.1</ele>
        <time>2022-10-09T14:19:31Z</time>
      </trkpt>
      <trkpt lat="43.39134" lon="6.72824">
        <ele>11.2</ele>
        <time>2022-10-09T14:19:32Z</time>
      </trkpt>
      <trkpt lat="43.39132" lon="6.72827">
        <ele>11.2</ele>
        <time>2022-10-09T14:19:33Z</time>
      </trkpt>
      <trkpt lat="43.3913" lon="6.7283">
        <ele>11.3</ele>
        <time>2022-10-09T14:19:34Z</time>
      </trkpt>
      <trkpt lat="43.39127" lon="6.72832">
        <ele>11.4</ele>
        <time>2022-10-09T14:19:35Z</time>
      </trkpt>
      <trkpt lat="43.39124" lon="6.72835">
        <ele>11.4</ele>
        <time>2022-10-09T14:19:36Z</time>
      </trkpt>
      <trkpt lat="43.39122" lon="6.72837">
        <ele>11.5</ele>
        <time>2022-10-09T14:19:37Z</time>
      </trkpt>
      <trkpt lat="43.39119" lon="6.7284">
        <ele>11.5</ele>
        <time>2022-10-09T14:19:38Z</time>
      </trkpt>
      <trkpt lat="43.39116" lon="6.72843">
        <ele>11.6</ele>
        <time>2022-10-09T14:19:39Z</time>
      </trkpt>
      <trkpt lat="43.39113" lon="6.72845">
        <ele>11.7</ele>
        <time>2022-10-09T14:19:40Z</time>
      </trkpt>
      <trkpt lat="43.3911" lon="6.72848">
        <ele>11.7</ele>
        <time>2022-10-09T14:19:41Z</time>
      </trkpt>
      <trkpt lat="43.39107" lon="6.72851">
        <ele>11.7</ele>
        <time>2022-10-09T14:19:42Z</time>
      </trkpt>
      <trkpt lat="43.39104" lon="6.72854">
        <ele>11.8</ele>
        <time>2022-10-09T14:19:43Z</time>
      </trkpt>
      <trkpt lat="43.39101" lon="6.72857">
        <ele>11.8</ele>
        <time>2022-10-09T14:19:44Z</time>
      </trkpt>
      <trkpt lat="43.39098" lon="6.7286">
        <ele>11.9</ele>
        <time>2022-10-09T14:19:45Z</time>
      </trkpt>
      <trkpt lat="43.39095" lon="6.72863">
        <ele>12</ele>
        <time>2022-10-09T14:19:46Z</time>
      </trkpt>
      <trkpt lat="43.39092" lon="6.72866">
        <ele>12.1</ele>
        <time>2022-10-09T14:19:47Z</time>
      </trkpt>
      <trkpt lat="43.39088" lon="6.72869">
        <ele>12.1</ele>
        <time>2022-10-09T14:19:48Z</time>
      </trkpt>
      <trkpt lat="43.39085" lon="6.72872">
        <ele>12.2</ele>
        <time>2022-10-09T14:19:49Z</time>
      </trkpt>
      <trkpt lat="43.39082" lon="6.72875">
        <ele>12.3</ele>
        <time>2022-10-09T14:19:50Z</time>
      </trkpt>
      <trkpt lat="43.39079" lon="6.72878">
        <ele>12.3</ele>
        <time>2022-10-09T14:19:51Z</time>
      </trkpt>
      <trkpt lat="43.39076" lon="6.72881">
        <ele>12.4</ele>
        <time>2022-10-09T14:19:52Z</time>
      </trkpt>
      <trkpt lat="43.39073" lon="6.72883">
        <ele>12.5</ele>
        <time>2022-10-09T14:19:53Z</time>
      </trkpt>
      <trkpt lat="43.39069" lon="6.72885">
        <ele>12.6</ele>
        <time>2022-10-09T14:19:54Z</time>
      </trkpt>
      <trkpt lat="43.39065" lon="6.72884">
        <ele>12.7</ele>
        <time>2022-10-09T14:19:55Z</time>
      </trkpt>
      <trkpt lat="43.39061" lon="6.72883">
        <ele>12.8</ele>
        <time>2022-10-09T14:19:56Z</time>
      </trkpt>
      <trkpt lat="43.39058" lon="6.7288">
        <ele>12.9</ele>
        <time>2022-10-09T14:19:57Z</time>
      </trkpt>
      <trkpt lat="43.39055" lon="6.72878">
        <ele>13</ele>
        <time>2022-10-09T14:19:58Z</time>
      </trkpt>
      <trkpt lat="43.39051" lon="6.72876">
        <ele>13.1</ele>
        <time>2022-10-09T14:19:59Z</time>
      </trkpt>
      <trkpt lat="43.39048" lon="6.72874">
        <ele>13.2</ele>
        <time>2022-10-09T14:20:00Z</time>
      </trkpt>
      <trkpt lat="43.39045" lon="6.72872">
        <ele>13.3</ele>
        <time>2022-10-09T14:20:01Z</time>
      </trkpt>
      <trkpt lat="43.39042" lon="6.7287">
        <ele>13.4</ele>
        <time>2022-10-09T14:20:02Z</time>
      </trkpt>
      <trkpt lat="43.39038" lon="6.72868">
        <ele>13.5</ele>
        <time>2022-10-09T14:20:03Z</time>
      </trkpt>
      <trkpt lat="43.39035" lon="6.72866">
        <ele>13.6</ele>
        <time>2022-10-09T14:20:04Z</time>
      </trkpt>
      <trkpt lat="43.39032" lon="6.72864">
        <ele>13.7</ele>
        <time>2022-10-09T14:20:05Z</time>
      </trkpt>
      <trkpt lat="43.39029" lon="6.72862">
        <ele>13.8</ele>
        <time>2022-10-09T14:20:06Z</time>
      </trkpt>
      <trkpt lat="43.39026" lon="6.7286">
        <ele>13.9</ele>
        <time>2022-10-09T14:20:07Z</time>
      </trkpt>
      <trkpt lat="43.39023" lon="6.72858">
        <ele>14</ele>
        <time>2022-10-09T14:20:08Z</time>
      </trkpt>
      <trkpt lat="43.3902" lon="6.72855">
        <ele>14.1</ele>
        <time>2022-10-09T14:20:09Z</time>
      </trkpt>
      <trkpt lat="43.39016" lon="6.72853">
        <ele>14.2</ele>
        <time>2022-10-09T14:20:10Z</time>
      </trkpt>
      <trkpt lat="43.39013" lon="6.72851">
        <ele>14.3</ele>
        <time>2022-10-09T14:20:11Z</time>
      </trkpt>
      <trkpt lat="43.3901" lon="6.72849">
        <ele>14.4</ele>
        <time>2022-10-09T14:20:12Z</time>
      </trkpt>
      <trkpt lat="43.39008" lon="6.72847">
        <ele>14.6</ele>
        <time>2022-10-09T14:20:13Z</time>
      </trkpt>
      <trkpt lat="43.39005" lon="6.72846">
        <ele>14.7</ele>
        <time>2022-10-09T14:20:14Z</time>
      </trkpt>
      <trkpt lat="43.39001" lon="6.72844">
        <ele>14.8</ele>
        <time>2022-10-09T14:20:15Z</time>
      </trkpt>
      <trkpt lat="43.38999" lon="6.72843">
        <ele>15</ele>
        <time>2022-10-09T14:20:16Z</time>
      </trkpt>
      <trkpt lat="43.38997" lon="6.72841">
        <ele>15.1</ele>
        <time>2022-10-09T14:20:17Z</time>
      </trkpt>
      <trkpt lat="43.38994" lon="6.7284">
        <ele>15.2</ele>
        <time>2022-10-09T14:20:18Z</time>
      </trkpt>
      <trkpt lat="43.38992" lon="6.72838">
        <ele>15.3</ele>
        <time>2022-10-09T14:20:19Z</time>
      </trkpt>
      <trkpt lat="43.38989" lon="6.72836">
        <ele>15.5</ele>
        <time>2022-10-09T14:20:20Z</time>
      </trkpt>
      <trkpt lat="43.38986" lon="6.72835">
        <ele>15.6</ele>
        <time>2022-10-09T14:20:21Z</time>
      </trkpt>
      <trkpt lat="43.38983" lon="6.72833">
        <ele>15.7</ele>
        <time>2022-10-09T14:20:22Z</time>
      </trkpt>
      <trkpt lat="43.3898" lon="6.72831">
        <ele>15.9</ele>
        <time>2022-10-09T14:20:23Z</time>
      </trkpt>
      <trkpt lat="43.38977" lon="6.7283">
        <ele>16</ele>
        <time>2022-10-09T14:20:24Z</time>
      </trkpt>
      <trkpt lat="43.38975" lon="6.72828">
        <ele>16.1</ele>
        <time>2022-10-09T14:20:25Z</time>
      </trkpt>
      <trkpt lat="43.38972" lon="6.72826">
        <ele>16.3</ele>
        <time>2022-10-09T14:20:26Z</time>
      </trkpt>
      <trkpt lat="43.3897" lon="6.72824">
        <ele>16.4</ele>
        <time>2022-10-09T14:20:27Z</time>
      </trkpt>
      <trkpt lat="43.38967" lon="6.72822">
        <ele>16.5</ele>
        <time>2022-10-09T14:20:28Z</time>
      </trkpt>
      <trkpt lat="43.38964" lon="6.7282">
        <ele>16.6</ele>
        <time>2022-10-09T14:20:29Z</time>
      </trkpt>
      <trkpt lat="43.38962" lon="6.72818">
        <ele>16.8</ele>
        <time>2022-10-09T14:20:30Z</time>
      </trkpt>
      <trkpt lat="43.38959" lon="6.72817">
        <ele>16.9</ele>
        <time>2022-10-09T14:20:31Z</time>
      </trkpt>
      <trkpt lat="43.38956" lon="6.72816">
        <ele>17</ele>
        <time>2022-10-09T14:20:32Z</time>
      </trkpt>
      <trkpt lat="43.38953" lon="6.72814">
        <ele>17.1</ele>
        <time>2022-10-09T14:20:33Z</time>
      </trkpt>
      <trkpt lat="43.38951" lon="6.72813">
        <ele>17.2</ele>
        <time>2022-10-09T14:20:34Z</time>
      </trkpt>
      <trkpt lat="43.38948" lon="6.72811">
        <ele>17.3</ele>
        <time>2022-10-09T14:20:35Z</time>
      </trkpt>
      <trkpt lat="43.38946" lon="6.72809">
        <ele>17.4</ele>
        <time>2022-10-09T14:20:36Z</time>
      </trkpt>
      <trkpt lat="43.38944" lon="6.72808">
        <ele>17.5</ele>
        <time>2022-10-09T14:20:37Z</time>
      </trkpt>
      <trkpt lat="43.38941" lon="6.72806">
        <ele>17.6</ele>
        <time>2022-10-09T14:20:38Z</time>
      </trkpt>
      <trkpt lat="43.38939" lon="6.72804">
        <ele>17.7</ele>
        <time>2022-10-09T14:20:39Z</time>
      </trkpt>
      <trkpt lat="43.38936" lon="6.72802">
        <ele>17.9</ele>
        <time>2022-10-09T14:20:40Z</time>
      </trkpt>
      <trkpt lat="43.38933" lon="6.72801">
        <ele>18</ele>
        <time>2022-10-09T14:20:41Z</time>
      </trkpt>
      <trkpt lat="43.38931" lon="6.72799">
        <ele>18.1</ele>
        <time>2022-10-09T14:20:42Z</time>
      </trkpt>
      <trkpt lat="43.38928" lon="6.72797">
        <ele>18.2</ele>
        <time>2022-10-09T14:20:43Z</time>
      </trkpt>
      <trkpt lat="43.38926" lon="6.72795">
        <ele>18.3</ele>
        <time>2022-10-09T14:20:44Z</time>
      </trkpt>
      <trkpt lat="43.38923" lon="6.72793">
        <ele>18.5</ele>
        <time>2022-10-09T14:20:45Z</time>
      </trkpt>
      <trkpt lat="43.3892" lon="6.72791">
        <ele>18.6</ele>
        <time>2022-10-09T14:20:46Z</time>
      </trkpt>
      <trkpt lat="43.38918" lon="6.72789">
        <ele>18.7</ele>
        <time>2022-10-09T14:20:47Z</time>
      </trkpt>
      <trkpt lat="43.38915" lon="6.72788">
        <ele>18.8</ele>
        <time>2022-10-09T14:20:48Z</time>
      </trkpt>
      <trkpt lat="43.38907" lon="6.72783">
        <ele>19.1</ele>
        <time>2022-10-09T14:20:51Z</time>
      </trkpt>
      <trkpt lat="43.38897" lon="6.72779">
        <ele>19.4</ele>
        <time>2022-10-09T14:20:54Z</time>
      </trkpt>
      <trkpt lat="43.3889" lon="6.72781">
        <ele>19.5</ele>
        <time>2022-10-09T14:20:56Z</time>
      </trkpt>
      <trkpt lat="43.38888" lon="6.72784">
        <ele>19.4</ele>
        <time>2022-10-09T14:20:57Z</time>
      </trkpt>
      <trkpt lat="43.38885" lon="6.72788">
        <ele>19.4</ele>
        <time>2022-10-09T14:20:58Z</time>
      </trkpt>
      <trkpt lat="43.38882" lon="6.72798">
        <ele>19.2</ele>
        <time>2022-10-09T14:21:00Z</time>
      </trkpt>
      <trkpt lat="43.3888" lon="6.72803">
        <ele>19.1</ele>
        <time>2022-10-09T14:21:01Z</time>
      </trkpt>
      <trkpt lat="43.38867" lon="6.72841">
        <ele>17.5</ele>
        <time>2022-10-09T14:21:07Z</time>
      </trkpt>
      <trkpt lat="43.38854" lon="6.72878">
        <ele>14.9</ele>
        <time>2022-10-09T14:21:11Z</time>
      </trkpt>
      <trkpt lat="43.38832" lon="6.72936">
        <ele>11.1</ele>
        <time>2022-10-09T14:21:16Z</time>
      </trkpt>
      <trkpt lat="43.38827" lon="6.72948">
        <ele>10.6</ele>
        <time>2022-10-09T14:21:17Z</time>
      </trkpt>
      <trkpt lat="43.38823" lon="6.72959">
        <ele>10.2</ele>
        <time>2022-10-09T14:21:18Z</time>
      </trkpt>
      <trkpt lat="43.3882" lon="6.72971">
        <ele>9.8</ele>
        <time>2022-10-09T14:21:19Z</time>
      </trkpt>
      <trkpt lat="43.38817" lon="6.72983">
        <ele>9.6</ele>
        <time>2022-10-09T14:21:20Z</time>
      </trkpt>
      <trkpt lat="43.38813" lon="6.72993">
        <ele>9.5</ele>
        <time>2022-10-09T14:21:21Z</time>
      </trkpt>
      <trkpt lat="43.3881" lon="6.73001">
        <ele>9.4</ele>
        <time>2022-10-09T14:21:22Z</time>
      </trkpt>
      <trkpt lat="43.38806" lon="6.73008">
        <ele>9.3</ele>
        <time>2022-10-09T14:21:23Z</time>
      </trkpt>
      <trkpt lat="43.38803" lon="6.73012">
        <ele>9.1</ele>
        <time>2022-10-09T14:21:24Z</time>
      </trkpt>
      <trkpt lat="43.38801" lon="6.73014">
        <ele>9</ele>
        <time>2022-10-09T14:21:25Z</time>
      </trkpt>
      <trkpt lat="43.38799" lon="6.73015">
        <ele>9</ele>
        <time>2022-10-09T14:21:26Z</time>
      </trkpt>
      <trkpt lat="43.38799" lon="6.73016">
        <ele>8.9</ele>
        <time>2022-10-09T14:21:27Z</time>
      </trkpt>
      <trkpt lat="43.38799" lon="6.73016">
        <ele>8.9</ele>
        <time>2022-10-09T14:21:28Z</time>
      </trkpt>
      <trkpt lat="43.38804" lon="6.73028">
        <ele>8</ele>
        <time>2022-10-09T14:21:50Z</time>
      </trkpt>
      <trkpt lat="43.38806" lon="6.73033">
        <ele>7.6</ele>
        <time>2022-10-09T14:21:52Z</time>
      </trkpt>
      <trkpt lat="43.38808" lon="6.73036">
        <ele>7.3</ele>
        <time>2022-10-09T14:21:53Z</time>
      </trkpt>
      <trkpt lat="43.38809" lon="6.7304">
        <ele>7.1</ele>
        <time>2022-10-09T14:21:54Z</time>
      </trkpt>
      <trkpt lat="43.3881" lon="6.73043">
        <ele>6.9</ele>
        <time>2022-10-09T14:21:55Z</time>
      </trkpt>
      <trkpt lat="43.38815" lon="6.73049">
        <ele>6.6</ele>
        <time>2022-10-09T14:21:57Z</time>
      </trkpt>
      <trkpt lat="43.38817" lon="6.73052">
        <ele>6.5</ele>
        <time>2022-10-09T14:21:58Z</time>
      </trkpt>
      <trkpt lat="43.38821" lon="6.73055">
        <ele>6.4</ele>
        <time>2022-10-09T14:21:59Z</time>
      </trkpt>
      <trkpt lat="43.38823" lon="6.73057">
        <ele>6.4</ele>
        <time>2022-10-09T14:22:00Z</time>
      </trkpt>
      <trkpt lat="43.38826" lon="6.73057">
        <ele>6.4</ele>
        <time>2022-10-09T14:22:01Z</time>
      </trkpt>
      <trkpt lat="43.38828" lon="6.73055">
        <ele>6.4</ele>
        <time>2022-10-09T14:22:02Z</time>
      </trkpt>
      <trkpt lat="43.3883" lon="6.73053">
        <ele>6.4</ele>
        <time>2022-10-09T14:22:03Z</time>
      </trkpt>
      <trkpt lat="43.38832" lon="6.7305">
        <ele>6.4</ele>
        <time>2022-10-09T14:22:04Z</time>
      </trkpt>
      <trkpt lat="43.38833" lon="6.73047">
        <ele>6.4</ele>
        <time>2022-10-09T14:22:05Z</time>
      </trkpt>
      <trkpt lat="43.38833" lon="6.73045">
        <ele>6.4</ele>
        <time>2022-10-09T14:22:06Z</time>
      </trkpt>
      <trkpt lat="43.38834" lon="6.73042">
        <ele>6.5</ele>
        <time>2022-10-09T14:22:07Z</time>
      </trkpt>
      <trkpt lat="43.38834" lon="6.73039">
        <ele>6.5</ele>
        <time>2022-10-09T14:22:08Z</time>
      </trkpt>
      <trkpt lat="43.38834" lon="6.73037">
        <ele>6.6</ele>
        <time>2022-10-09T14:22:09Z</time>
      </trkpt>
      <trkpt lat="43.38834" lon="6.73035">
        <ele>6.6</ele>
        <time>2022-10-09T14:22:10Z</time>
      </trkpt>
      <trkpt lat="43.38839" lon="6.73019">
        <ele>7.1</ele>
        <time>2022-10-09T14:22:16Z</time>
      </trkpt>
      <trkpt lat="43.3884" lon="6.73018">
        <ele>7.2</ele>
        <time>2022-10-09T14:22:17Z</time>
      </trkpt>
      <trkpt lat="43.38841" lon="6.73017">
        <ele>7.2</ele>
        <time>2022-10-09T14:22:18Z</time>
      </trkpt>
      <trkpt lat="43.38842" lon="6.73016">
        <ele>7.3</ele>
        <time>2022-10-09T14:22:20Z</time>
      </trkpt>
      <trkpt lat="43.38861" lon="6.73037">
        <ele>7.5</ele>
        <time>2022-10-09T14:23:12Z</time>
      </trkpt>
      <trkpt lat="43.38864" lon="6.7304">
        <ele>7.5</ele>
        <time>2022-10-09T14:23:14Z</time>
      </trkpt>
      <trkpt lat="43.38866" lon="6.73041">
        <ele>7.5</ele>
        <time>2022-10-09T14:23:15Z</time>
      </trkpt>
      <trkpt lat="43.3887" lon="6.73042">
        <ele>7.6</ele>
        <time>2022-10-09T14:23:17Z</time>
      </trkpt>
      <trkpt lat="43.38872" lon="6.73043">
        <ele>7.6</ele>
        <time>2022-10-09T14:23:18Z</time>
      </trkpt>
      <trkpt lat="43.38874" lon="6.73044">
        <ele>7.7</ele>
        <time>2022-10-09T14:23:19Z</time>
      </trkpt>
      <trkpt lat="43.38892" lon="6.73052">
        <ele>7.6</ele>
        <time>2022-10-09T14:23:25Z</time>
      </trkpt>
      <trkpt lat="43.38898" lon="6.73056">
        <ele>7.6</ele>
        <time>2022-10-09T14:23:27Z</time>
      </trkpt>
      <trkpt lat="43.38902" lon="6.73058">
        <ele>7.6</ele>
        <time>2022-10-09T14:23:28Z</time>
      </trkpt>
      <trkpt lat="43.38912" lon="6.73058">
        <ele>7.7</ele>
        <time>2022-10-09T14:23:31Z</time>
      </trkpt>
      <trkpt lat="43.38915" lon="6.73057">
        <ele>7.7</ele>
        <time>2022-10-09T14:23:32Z</time>
      </trkpt>
      <trkpt lat="43.38918" lon="6.73054">
        <ele>7.7</ele>
        <time>2022-10-09T14:23:33Z</time>
      </trkpt>
      <trkpt lat="43.3892" lon="6.73051">
        <ele>7.7</ele>
        <time>2022-10-09T14:23:34Z</time>
      </trkpt>
      <trkpt lat="43.38923" lon="6.7305">
        <ele>7.7</ele>
        <time>2022-10-09T14:23:35Z</time>
      </trkpt>
      <trkpt lat="43.38925" lon="6.73049">
        <ele>7.6</ele>
        <time>2022-10-09T14:23:36Z</time>
      </trkpt>
      <trkpt lat="43.38928" lon="6.73049">
        <ele>7.6</ele>
        <time>2022-10-09T14:23:37Z</time>
      </trkpt>
      <trkpt lat="43.3893" lon="6.73051">
        <ele>7.6</ele>
        <time>2022-10-09T14:23:38Z</time>
      </trkpt>
      <trkpt lat="43.38932" lon="6.73053">
        <ele>7.6</ele>
        <time>2022-10-09T14:23:39Z</time>
      </trkpt>
      <trkpt lat="43.38933" lon="6.73056">
        <ele>7.6</ele>
        <time>2022-10-09T14:23:40Z</time>
      </trkpt>
      <trkpt lat="43.38933" lon="6.73059">
        <ele>7.7</ele>
        <time>2022-10-09T14:23:41Z</time>
      </trkpt>
      <trkpt lat="43.38933" lon="6.73062">
        <ele>7.7</ele>
        <time>2022-10-09T14:23:42Z</time>
      </trkpt>
      <trkpt lat="43.38933" lon="6.73062">
        <ele>7.7</ele>
        <time>2022-10-09T14:23:43Z</time>
      </trkpt>
      <trkpt lat="43.38934" lon="6.73063">
        <ele>7.7</ele>
        <time>2022-10-09T14:23:44Z</time>
      </trkpt>
      <trkpt lat="43.38935" lon="6.73105">
        <ele>8.4</ele>
        <time>2022-10-09T14:24:21Z</time>
      </trkpt>
      <trkpt lat="43.38937" lon="6.73108">
        <ele>8.4</ele>
        <time>2022-10-09T14:24:23Z</time>
      </trkpt>
      <trkpt lat="43.38937" lon="6.73109">
        <ele>8.3</ele>
        <time>2022-10-09T14:24:24Z</time>
      </trkpt>
      <trkpt lat="43.38938" lon="6.7311">
        <ele>8.3</ele>
        <time>2022-10-09T14:24:25Z</time>
      </trkpt>
      <trkpt lat="43.38939" lon="6.7311">
        <ele>8.3</ele>
        <time>2022-10-09T14:24:26Z</time>
      </trkpt>
      <trkpt lat="43.3894" lon="6.7311">
        <ele>8.3</ele>
        <time>2022-10-09T14:24:27Z</time>
      </trkpt>
      <trkpt lat="43.3894" lon="6.7311">
        <ele>8.3</ele>
        <time>2022-10-09T14:24:28Z</time>
      </trkpt>
      <trkpt lat="43.38941" lon="6.7311">
        <ele>8.3</ele>
        <time>2022-10-09T14:24:29Z</time>
      </trkpt>
      <trkpt lat="43.38942" lon="6.7311">
        <ele>8.3</ele>
        <time>2022-10-09T14:24:30Z</time>
      </trkpt>
      <trkpt lat="43.38942" lon="6.7311">
        <ele>8.3</ele>
        <time>2022-10-09T14:24:31Z</time>
      </trkpt>
      <trkpt lat="43.38942" lon="6.7311">
        <ele>8.3</ele>
        <time>2022-10-09T14:24:32Z</time>
      </trkpt>
      <trkpt lat="43.38942" lon="6.7311">
        <ele>8.3</ele>
        <time>2022-10-09T14:24:33Z</time>
      </trkpt>
      <trkpt lat="43.38951" lon="6.73117">
        <ele>8.1</ele>
        <time>2022-10-09T14:24:42Z</time>
      </trkpt>
      <trkpt lat="43.38952" lon="6.73117">
        <ele>8.1</ele>
        <time>2022-10-09T14:24:43Z</time>
      </trkpt>
      <trkpt lat="43.38954" lon="6.7312">
        <ele>8</ele>
        <time>2022-10-09T14:24:45Z</time>
      </trkpt>
      <trkpt lat="43.38956" lon="6.73122">
        <ele>7.9</ele>
        <time>2022-10-09T14:24:47Z</time>
      </trkpt>
      <trkpt lat="43.38957" lon="6.73123">
        <ele>7.9</ele>
        <time>2022-10-09T14:24:48Z</time>
      </trkpt>
      <trkpt lat="43.38957" lon="6.73124">
        <ele>7.9</ele>
        <time>2022-10-09T14:24:49Z</time>
      </trkpt>
      <trkpt lat="43.38957" lon="6.73124">
        <ele>7.9</ele>
        <time>2022-10-09T14:24:50Z</time>
      </trkpt>
      <trkpt lat="43.38957" lon="6.73124">
        <ele>7.8</ele>
        <time>2022-10-09T14:24:51Z</time>
      </trkpt>
      <trkpt lat="43.38957" lon="6.73126">
        <ele>7.8</ele>
        <time>2022-10-09T14:24:52Z</time>
      </trkpt>
      <trkpt lat="43.38957" lon="6.73129">
        <ele>7.7</ele>
        <time>2022-10-09T14:24:53Z</time>
      </trkpt>
      <trkpt lat="43.38958" lon="6.73135">
        <ele>7.7</ele>
        <time>2022-10-09T14:24:55Z</time>
      </trkpt>
      <trkpt lat="43.38959" lon="6.73137">
        <ele>7.7</ele>
        <time>2022-10-09T14:24:56Z</time>
      </trkpt>
      <trkpt lat="43.38961" lon="6.7314">
        <ele>7.7</ele>
        <time>2022-10-09T14:24:57Z</time>
      </trkpt>
      <trkpt lat="43.38963" lon="6.73144">
        <ele>7.6</ele>
        <time>2022-10-09T14:24:58Z</time>
      </trkpt>
      <trkpt lat="43.38965" lon="6.73147">
        <ele>7.6</ele>
        <time>2022-10-09T14:24:59Z</time>
      </trkpt>
      <trkpt lat="43.38967" lon="6.73151">
        <ele>7.6</ele>
        <time>2022-10-09T14:25:00Z</time>
      </trkpt>
      <trkpt lat="43.38969" lon="6.73154">
        <ele>7.6</ele>
        <time>2022-10-09T14:25:01Z</time>
      </trkpt>
      <trkpt lat="43.38971" lon="6.73157">
        <ele>7.6</ele>
        <time>2022-10-09T14:25:02Z</time>
      </trkpt>
      <trkpt lat="43.38973" lon="6.73159">
        <ele>7.6</ele>
        <time>2022-10-09T14:25:03Z</time>
      </trkpt>
      <trkpt lat="43.38973" lon="6.73162">
        <ele>7.6</ele>
        <time>2022-10-09T14:25:04Z</time>
      </trkpt>
      <trkpt lat="43.38973" lon="6.73165">
        <ele>7.6</ele>
        <time>2022-10-09T14:25:05Z</time>
      </trkpt>
      <trkpt lat="43.38971" lon="6.73171">
        <ele>7.7</ele>
        <time>2022-10-09T14:25:07Z</time>
      </trkpt>
      <trkpt lat="43.38971" lon="6.73173">
        <ele>7.7</ele>
        <time>2022-10-09T14:25:08Z</time>
      </trkpt>
      <trkpt lat="43.38972" lon="6.73174">
        <ele>7.7</ele>
        <time>2022-10-09T14:25:09Z</time>
      </trkpt>
      <trkpt lat="43.38972" lon="6.73174">
        <ele>7.8</ele>
        <time>2022-10-09T14:25:10Z</time>
      </trkpt>
      <trkpt lat="43.38973" lon="6.73175">
        <ele>7.8</ele>
        <time>2022-10-09T14:25:12Z</time>
      </trkpt>
      <trkpt lat="43.38991" lon="6.7317">
        <ele>8</ele>
        <time>2022-10-09T14:25:35Z</time>
      </trkpt>
      <trkpt lat="43.38993" lon="6.73173">
        <ele>8</ele>
        <time>2022-10-09T14:25:36Z</time>
      </trkpt>
      <trkpt lat="43.39003" lon="6.73185">
        <ele>7.9</ele>
        <time>2022-10-09T14:25:41Z</time>
      </trkpt>
      <trkpt lat="43.39005" lon="6.73188">
        <ele>7.9</ele>
        <time>2022-10-09T14:25:42Z</time>
      </trkpt>
      <trkpt lat="43.39008" lon="6.73194">
        <ele>8</ele>
        <time>2022-10-09T14:25:44Z</time>
      </trkpt>
      <trkpt lat="43.3901" lon="6.73196">
        <ele>8</ele>
        <time>2022-10-09T14:25:45Z</time>
      </trkpt>
      <trkpt lat="43.39011" lon="6.73198">
        <ele>8</ele>
        <time>2022-10-09T14:25:46Z</time>
      </trkpt>
      <trkpt lat="43.39013" lon="6.73199">
        <ele>8.1</ele>
        <time>2022-10-09T14:25:47Z</time>
      </trkpt>
      <trkpt lat="43.39015" lon="6.732">
        <ele>8.1</ele>
        <time>2022-10-09T14:25:48Z</time>
      </trkpt>
      <trkpt lat="43.39018" lon="6.732">
        <ele>8.2</ele>
        <time>2022-10-09T14:25:49Z</time>
      </trkpt>
      <trkpt lat="43.3902" lon="6.732">
        <ele>8.2</ele>
        <time>2022-10-09T14:25:50Z</time>
      </trkpt>
      <trkpt lat="43.39022" lon="6.732">
        <ele>8.2</ele>
        <time>2022-10-09T14:25:51Z</time>
      </trkpt>
      <trkpt lat="43.39026" lon="6.73199">
        <ele>8.3</ele>
        <time>2022-10-09T14:25:53Z</time>
      </trkpt>
      <trkpt lat="43.39028" lon="6.73199">
        <ele>8.3</ele>
        <time>2022-10-09T14:25:54Z</time>
      </trkpt>
      <trkpt lat="43.3903" lon="6.73198">
        <ele>8.4</ele>
        <time>2022-10-09T14:25:55Z</time>
      </trkpt>
      <trkpt lat="43.39031" lon="6.73198">
        <ele>8.4</ele>
        <time>2022-10-09T14:25:56Z</time>
      </trkpt>
      <trkpt lat="43.39034" lon="6.73196">
        <ele>8.4</ele>
        <time>2022-10-09T14:25:58Z</time>
      </trkpt>
      <trkpt lat="43.39038" lon="6.73191">
        <ele>8.5</ele>
        <time>2022-10-09T14:26:01Z</time>
      </trkpt>
      <trkpt lat="43.3904" lon="6.73187">
        <ele>8.6</ele>
        <time>2022-10-09T14:26:03Z</time>
      </trkpt>
      <trkpt lat="43.39041" lon="6.73185">
        <ele>8.7</ele>
        <time>2022-10-09T14:26:04Z</time>
      </trkpt>
      <trkpt lat="43.39042" lon="6.73184">
        <ele>8.7</ele>
        <time>2022-10-09T14:26:05Z</time>
      </trkpt>
      <trkpt lat="43.39044" lon="6.73183">
        <ele>8.7</ele>
        <time>2022-10-09T14:26:06Z</time>
      </trkpt>
      <trkpt lat="43.39045" lon="6.73182">
        <ele>8.8</ele>
        <time>2022-10-09T14:26:07Z</time>
      </trkpt>
      <trkpt lat="43.39047" lon="6.7318">
        <ele>8.8</ele>
        <time>2022-10-09T14:26:08Z</time>
      </trkpt>
      <trkpt lat="43.39048" lon="6.73179">
        <ele>8.9</ele>
        <time>2022-10-09T14:26:09Z</time>
      </trkpt>
      <trkpt lat="43.39049" lon="6.73179">
        <ele>8.9</ele>
        <time>2022-10-09T14:26:10Z</time>
      </trkpt>
      <trkpt lat="43.39051" lon="6.73178">
        <ele>8.9</ele>
        <time>2022-10-09T14:26:11Z</time>
      </trkpt>
      <trkpt lat="43.39053" lon="6.73178">
        <ele>8.9</ele>
        <time>2022-10-09T14:26:12Z</time>
      </trkpt>
      <trkpt lat="43.39059" lon="6.73178">
        <ele>8.9</ele>
        <time>2022-10-09T14:26:15Z</time>
      </trkpt>
      <trkpt lat="43.39061" lon="6.73179">
        <ele>8.9</ele>
        <time>2022-10-09T14:26:16Z</time>
      </trkpt>
      <trkpt lat="43.39063" lon="6.73181">
        <ele>8.9</ele>
        <time>2022-10-09T14:26:17Z</time>
      </trkpt>
      <trkpt lat="43.39065" lon="6.73182">
        <ele>8.9</ele>
        <time>2022-10-09T14:26:18Z</time>
      </trkpt>
      <trkpt lat="43.39067" lon="6.73183">
        <ele>8.9</ele>
        <time>2022-10-09T14:26:19Z</time>
      </trkpt>
      <trkpt lat="43.39068" lon="6.73184">
        <ele>8.9</ele>
        <time>2022-10-09T14:26:20Z</time>
      </trkpt>
      <trkpt lat="43.39075" lon="6.73187">
        <ele>8.8</ele>
        <time>2022-10-09T14:26:23Z</time>
      </trkpt>
      <trkpt lat="43.39079" lon="6.73187">
        <ele>8.7</ele>
        <time>2022-10-09T14:26:25Z</time>
      </trkpt>
      <trkpt lat="43.39082" lon="6.73187">
        <ele>8.7</ele>
        <time>2022-10-09T14:26:26Z</time>
      </trkpt>
      <trkpt lat="43.39086" lon="6.73186">
        <ele>8.6</ele>
        <time>2022-10-09T14:26:28Z</time>
      </trkpt>
      <trkpt lat="43.39088" lon="6.73186">
        <ele>8.5</ele>
        <time>2022-10-09T14:26:29Z</time>
      </trkpt>
      <trkpt lat="43.3909" lon="6.73186">
        <ele>8.4</ele>
        <time>2022-10-09T14:26:30Z</time>
      </trkpt>
      <trkpt lat="43.39096" lon="6.73182">
        <ele>8.2</ele>
        <time>2022-10-09T14:26:33Z</time>
      </trkpt>
      <trkpt lat="43.39098" lon="6.73179">
        <ele>8.1</ele>
        <time>2022-10-09T14:26:34Z</time>
      </trkpt>
      <trkpt lat="43.39101" lon="6.73177">
        <ele>8</ele>
        <time>2022-10-09T14:26:35Z</time>
      </trkpt>
      <trkpt lat="43.39115" lon="6.7316">
        <ele>7.6</ele>
        <time>2022-10-09T14:26:41Z</time>
      </trkpt>
      <trkpt lat="43.39117" lon="6.73156">
        <ele>7.6</ele>
        <time>2022-10-09T14:26:42Z</time>
      </trkpt>
      <trkpt lat="43.39118" lon="6.73153">
        <ele>7.6</ele>
        <time>2022-10-09T14:26:43Z</time>
      </trkpt>
      <trkpt lat="43.39118" lon="6.7315">
        <ele>7.6</ele>
        <time>2022-10-09T14:26:44Z</time>
      </trkpt>
      <trkpt lat="43.39118" lon="6.73147">
        <ele>7.6</ele>
        <time>2022-10-09T14:26:45Z</time>
      </trkpt>
      <trkpt lat="43.39118" lon="6.73145">
        <ele>7.6</ele>
        <time>2022-10-09T14:26:46Z</time>
      </trkpt>
      <trkpt lat="43.39118" lon="6.73144">
        <ele>7.6</ele>
        <time>2022-10-09T14:26:47Z</time>
      </trkpt>
      <trkpt lat="43.39118" lon="6.73143">
        <ele>7.6</ele>
        <time>2022-10-09T14:26:48Z</time>
      </trkpt>
      <trkpt lat="43.39118" lon="6.7314">
        <ele>7.6</ele>
        <time>2022-10-09T14:26:50Z</time>
      </trkpt>
      <trkpt lat="43.39118" lon="6.73139">
        <ele>7.6</ele>
        <time>2022-10-09T14:26:51Z</time>
      </trkpt>
      <trkpt lat="43.39117" lon="6.73128">
        <ele>7.6</ele>
        <time>2022-10-09T14:26:55Z</time>
      </trkpt>
      <trkpt lat="43.39116" lon="6.73109">
        <ele>7.7</ele>
        <time>2022-10-09T14:27:00Z</time>
      </trkpt>
      <trkpt lat="43.39118" lon="6.73091">
        <ele>7.6</ele>
        <time>2022-10-09T14:27:04Z</time>
      </trkpt>
      <trkpt lat="43.3912" lon="6.73086">
        <ele>7.6</ele>
        <time>2022-10-09T14:27:05Z</time>
      </trkpt>
      <trkpt lat="43.39122" lon="6.7308">
        <ele>7.5</ele>
        <time>2022-10-09T14:27:06Z</time>
      </trkpt>
      <trkpt lat="43.39123" lon="6.7307">
        <ele>7.4</ele>
        <time>2022-10-09T14:27:08Z</time>
      </trkpt>
      <trkpt lat="43.39125" lon="6.73064">
        <ele>7.3</ele>
        <time>2022-10-09T14:27:09Z</time>
      </trkpt>
      <trkpt lat="43.39126" lon="6.73059">
        <ele>7.2</ele>
        <time>2022-10-09T14:27:10Z</time>
      </trkpt>
      <trkpt lat="43.39137" lon="6.73035">
        <ele>6.3</ele>
        <time>2022-10-09T14:27:14Z</time>
      </trkpt>
      <trkpt lat="43.39155" lon="6.72992">
        <ele>4.9</ele>
        <time>2022-10-09T14:27:19Z</time>
      </trkpt>
      <trkpt lat="43.39165" lon="6.72977">
        <ele>4.5</ele>
        <time>2022-10-09T14:27:21Z</time>
      </trkpt>
      <trkpt lat="43.3917" lon="6.7297">
        <ele>4.4</ele>
        <time>2022-10-09T14:27:22Z</time>
      </trkpt>
      <trkpt lat="43.39175" lon="6.72964">
        <ele>4.3</ele>
        <time>2022-10-09T14:27:23Z</time>
      </trkpt>
      <trkpt lat="43.39179" lon="6.72957">
        <ele>4.3</ele>
        <time>2022-10-09T14:27:24Z</time>
      </trkpt>
      <trkpt lat="43.39184" lon="6.7295">
        <ele>4.3</ele>
        <time>2022-10-09T14:27:25Z</time>
      </trkpt>
      <trkpt lat="43.39189" lon="6.72944">
        <ele>4.3</ele>
        <time>2022-10-09T14:27:26Z</time>
      </trkpt>
      <trkpt lat="43.39194" lon="6.72939">
        <ele>4.3</ele>
        <time>2022-10-09T14:27:27Z</time>
      </trkpt>
      <trkpt lat="43.39199" lon="6.72934">
        <ele>4.3</ele>
        <time>2022-10-09T14:27:28Z</time>
      </trkpt>
      <trkpt lat="43.39204" lon="6.72929">
        <ele>4.4</ele>
        <time>2022-10-09T14:27:29Z</time>
      </trkpt>
      <trkpt lat="43.39209" lon="6.72927">
        <ele>4.4</ele>
        <time>2022-10-09T14:27:30Z</time>
      </trkpt>
      <trkpt lat="43.39215" lon="6.72925">
        <ele>4.4</ele>
        <time>2022-10-09T14:27:31Z</time>
      </trkpt>
      <trkpt lat="43.39219" lon="6.72923">
        <ele>4.6</ele>
        <time>2022-10-09T14:27:32Z</time>
      </trkpt>
      <trkpt lat="43.39221" lon="6.72921">
        <ele>3.9</ele>
        <time>2022-10-09T14:27:33Z</time>
      </trkpt>
      <trkpt lat="43.39224" lon="6.72917">
        <ele>4.1</ele>
        <time>2022-10-09T14:27:34Z</time>
      </trkpt>
      <trkpt lat="43.39227" lon="6.72913">
        <ele>4.3</ele>
        <time>2022-10-09T14:27:35Z</time>
      </trkpt>
      <trkpt lat="43.39229" lon="6.72908">
        <ele>5.4</ele>
        <time>2022-10-09T14:27:36Z</time>
      </trkpt>
      <trkpt lat="43.39232" lon="6.72903">
        <ele>5.6</ele>
        <time>2022-10-09T14:27:37Z</time>
      </trkpt>
      <trkpt lat="43.39249" lon="6.7287">
        <ele>5.8</ele>
        <time>2022-10-09T14:27:43Z</time>
      </trkpt>
      <trkpt lat="43.39251" lon="6.72864">
        <ele>6</ele>
        <time>2022-10-09T14:27:44Z</time>
      </trkpt>
      <trkpt lat="43.39254" lon="6.72859">
        <ele>6.6</ele>
        <time>2022-10-09T14:27:45Z</time>
      </trkpt>
      <trkpt lat="43.39256" lon="6.72853">
        <ele>6.8</ele>
        <time>2022-10-09T14:27:46Z</time>
      </trkpt>
      <trkpt lat="43.39259" lon="6.72848">
        <ele>6</ele>
        <time>2022-10-09T14:27:47Z</time>
      </trkpt>
      <trkpt lat="43.39262" lon="6.72843">
        <ele>6.4</ele>
        <time>2022-10-09T14:27:48Z</time>
      </trkpt>
      <trkpt lat="43.39265" lon="6.72839">
        <ele>6.6</ele>
        <time>2022-10-09T14:27:49Z</time>
      </trkpt>
      <trkpt lat="43.39267" lon="6.72834">
        <ele>6.8</ele>
        <time>2022-10-09T14:27:50Z</time>
      </trkpt>
      <trkpt lat="43.39269" lon="6.72828">
        <ele>6.9</ele>
        <time>2022-10-09T14:27:51Z</time>
      </trkpt>
      <trkpt lat="43.3927" lon="6.72822">
        <ele>6.7</ele>
        <time>2022-10-09T14:27:52Z</time>
      </trkpt>
      <trkpt lat="43.39271" lon="6.72817">
        <ele>6.9</ele>
        <time>2022-10-09T14:27:53Z</time>
      </trkpt>
      <trkpt lat="43.39273" lon="6.72812">
        <ele>7.1</ele>
        <time>2022-10-09T14:27:54Z</time>
      </trkpt>
      <trkpt lat="43.39274" lon="6.72807">
        <ele>7.5</ele>
        <time>2022-10-09T14:27:55Z</time>
      </trkpt>
      <trkpt lat="43.39275" lon="6.72803">
        <ele>7.7</ele>
        <time>2022-10-09T14:27:56Z</time>
      </trkpt>
      <trkpt lat="43.39276" lon="6.72799">
        <ele>7.9</ele>
        <time>2022-10-09T14:27:57Z</time>
      </trkpt>
      <trkpt lat="43.39277" lon="6.72795">
        <ele>8</ele>
        <time>2022-10-09T14:27:58Z</time>
      </trkpt>
      <trkpt lat="43.39288" lon="6.72768">
        <ele>8.2</ele>
        <time>2022-10-09T14:28:04Z</time>
      </trkpt>
      <trkpt lat="43.39294" lon="6.7276">
        <ele>8.4</ele>
        <time>2022-10-09T14:28:06Z</time>
      </trkpt>
      <trkpt lat="43.39297" lon="6.72759">
        <ele>8.2</ele>
        <time>2022-10-09T14:28:07Z</time>
      </trkpt>
      <trkpt lat="43.393" lon="6.72759">
        <ele>8.3</ele>
        <time>2022-10-09T14:28:08Z</time>
      </trkpt>
      <trkpt lat="43.39311" lon="6.72763">
        <ele>8</ele>
        <time>2022-10-09T14:28:11Z</time>
      </trkpt>
      <trkpt lat="43.39316" lon="6.72765">
        <ele>8.2</ele>
        <time>2022-10-09T14:28:12Z</time>
      </trkpt>
      <trkpt lat="43.39326" lon="6.72769">
        <ele>8</ele>
        <time>2022-10-09T14:28:14Z</time>
      </trkpt>
      <trkpt lat="43.3933" lon="6.72771">
        <ele>8.2</ele>
        <time>2022-10-09T14:28:15Z</time>
      </trkpt>
      <trkpt lat="43.39335" lon="6.72773">
        <ele>7.9</ele>
        <time>2022-10-09T14:28:16Z</time>
      </trkpt>
      <trkpt lat="43.39344" lon="6.72776">
        <ele>7.8</ele>
        <time>2022-10-09T14:28:18Z</time>
      </trkpt>
      <trkpt lat="43.39348" lon="6.72778">
        <ele>7.5</ele>
        <time>2022-10-09T14:28:19Z</time>
      </trkpt>
      <trkpt lat="43.39362" lon="6.72783">
        <ele>7.1</ele>
        <time>2022-10-09T14:28:22Z</time>
      </trkpt>
      <trkpt lat="43.39366" lon="6.72783">
        <ele>7.3</ele>
        <time>2022-10-09T14:28:23Z</time>
      </trkpt>
      <trkpt lat="43.3937" lon="6.72783">
        <ele>7.5</ele>
        <time>2022-10-09T14:28:24Z</time>
      </trkpt>
      <trkpt lat="43.39373" lon="6.72782">
        <ele>7.3</ele>
        <time>2022-10-09T14:28:25Z</time>
      </trkpt>
      <trkpt lat="43.39375" lon="6.72781">
        <ele>7.2</ele>
        <time>2022-10-09T14:28:26Z</time>
      </trkpt>
      <trkpt lat="43.39377" lon="6.7278">
        <ele>7.2</ele>
        <time>2022-10-09T14:28:27Z</time>
      </trkpt>
      <trkpt lat="43.39379" lon="6.7278">
        <ele>7.2</ele>
        <time>2022-10-09T14:28:28Z</time>
      </trkpt>
      <trkpt lat="43.39381" lon="6.72779">
        <ele>7.1</ele>
        <time>2022-10-09T14:28:29Z</time>
      </trkpt>
      <trkpt lat="43.39383" lon="6.72779">
        <ele>7.1</ele>
        <time>2022-10-09T14:28:30Z</time>
      </trkpt>
      <trkpt lat="43.39386" lon="6.72779">
        <ele>7.1</ele>
        <time>2022-10-09T14:28:31Z</time>
      </trkpt>
      <trkpt lat="43.39388" lon="6.7278">
        <ele>7</ele>
        <time>2022-10-09T14:28:32Z</time>
      </trkpt>
      <trkpt lat="43.39395" lon="6.72782">
        <ele>7</ele>
        <time>2022-10-09T14:28:35Z</time>
      </trkpt>
      <trkpt lat="43.39417" lon="6.72789">
        <ele>6.8</ele>
        <time>2022-10-09T14:28:42Z</time>
      </trkpt>
      <trkpt lat="43.39439" lon="6.72797">
        <ele>6.5</ele>
        <time>2022-10-09T14:28:48Z</time>
      </trkpt>
      <trkpt lat="43.39464" lon="6.72807">
        <ele>6.3</ele>
        <time>2022-10-09T14:28:54Z</time>
      </trkpt>
      <trkpt lat="43.39468" lon="6.72808">
        <ele>6.3</ele>
        <time>2022-10-09T14:28:55Z</time>
      </trkpt>
      <trkpt lat="43.39489" lon="6.72816">
        <ele>6.2</ele>
        <time>2022-10-09T14:29:00Z</time>
      </trkpt>
      <trkpt lat="43.39502" lon="6.72821">
        <ele>6.1</ele>
        <time>2022-10-09T14:29:03Z</time>
      </trkpt>
      <trkpt lat="43.39506" lon="6.72822">
        <ele>6.1</ele>
        <time>2022-10-09T14:29:04Z</time>
      </trkpt>
      <trkpt lat="43.3951" lon="6.72824">
        <ele>6.1</ele>
        <time>2022-10-09T14:29:05Z</time>
      </trkpt>
      <trkpt lat="43.39515" lon="6.72825">
        <ele>6.1</ele>
        <time>2022-10-09T14:29:06Z</time>
      </trkpt>
      <trkpt lat="43.39519" lon="6.72827">
        <ele>6.1</ele>
        <time>2022-10-09T14:29:07Z</time>
      </trkpt>
      <trkpt lat="43.39527" lon="6.7283">
        <ele>6.1</ele>
        <time>2022-10-09T14:29:09Z</time>
      </trkpt>
      <trkpt lat="43.39535" lon="6.72833">
        <ele>6.1</ele>
        <time>2022-10-09T14:29:11Z</time>
      </trkpt>
      <trkpt lat="43.39561" lon="6.72842">
        <ele>6.1</ele>
        <time>2022-10-09T14:29:17Z</time>
      </trkpt>
      <trkpt lat="43.39583" lon="6.7285">
        <ele>6</ele>
        <time>2022-10-09T14:29:22Z</time>
      </trkpt>
      <trkpt lat="43.39592" lon="6.72853">
        <ele>6</ele>
        <time>2022-10-09T14:29:24Z</time>
      </trkpt>
      <trkpt lat="43.39606" lon="6.72858">
        <ele>5.9</ele>
        <time>2022-10-09T14:29:27Z</time>
      </trkpt>
      <trkpt lat="43.3962" lon="6.72864">
        <ele>5.8</ele>
        <time>2022-10-09T14:29:30Z</time>
      </trkpt>
      <trkpt lat="43.39659" lon="6.72878">
        <ele>5.6</ele>
        <time>2022-10-09T14:29:38Z</time>
      </trkpt>
      <trkpt lat="43.39664" lon="6.72879">
        <ele>5.6</ele>
        <time>2022-10-09T14:29:39Z</time>
      </trkpt>
      <trkpt lat="43.39669" lon="6.72881">
        <ele>5.5</ele>
        <time>2022-10-09T14:29:40Z</time>
      </trkpt>
      <trkpt lat="43.39679" lon="6.72885">
        <ele>5.5</ele>
        <time>2022-10-09T14:29:42Z</time>
      </trkpt>
      <trkpt lat="43.39684" lon="6.72887">
        <ele>5.5</ele>
        <time>2022-10-09T14:29:43Z</time>
      </trkpt>
      <trkpt lat="43.39693" lon="6.72891">
        <ele>5.5</ele>
        <time>2022-10-09T14:29:45Z</time>
      </trkpt>
      <trkpt lat="43.39734" lon="6.72906">
        <ele>5.4</ele>
        <time>2022-10-09T14:29:53Z</time>
      </trkpt>
      <trkpt lat="43.39765" lon="6.72918">
        <ele>5.5</ele>
        <time>2022-10-09T14:29:59Z</time>
      </trkpt>
      <trkpt lat="43.3977" lon="6.72919">
        <ele>5.5</ele>
        <time>2022-10-09T14:30:00Z</time>
      </trkpt>
      <trkpt lat="43.39775" lon="6.7292">
        <ele>5.5</ele>
        <time>2022-10-09T14:30:01Z</time>
      </trkpt>
      <trkpt lat="43.3978" lon="6.72922">
        <ele>5.4</ele>
        <time>2022-10-09T14:30:02Z</time>
      </trkpt>
      <trkpt lat="43.39785" lon="6.72925">
        <ele>5.4</ele>
        <time>2022-10-09T14:30:03Z</time>
      </trkpt>
      <trkpt lat="43.39805" lon="6.72932">
        <ele>5.4</ele>
        <time>2022-10-09T14:30:07Z</time>
      </trkpt>
      <trkpt lat="43.39815" lon="6.72936">
        <ele>5.4</ele>
        <time>2022-10-09T14:30:09Z</time>
      </trkpt>
      <trkpt lat="43.3982" lon="6.72937">
        <ele>5.4</ele>
        <time>2022-10-09T14:30:10Z</time>
      </trkpt>
      <trkpt lat="43.39824" lon="6.72939">
        <ele>5.4</ele>
        <time>2022-10-09T14:30:11Z</time>
      </trkpt>
      <trkpt lat="43.39834" lon="6.72942">
        <ele>5.4</ele>
        <time>2022-10-09T14:30:13Z</time>
      </trkpt>
      <trkpt lat="43.39839" lon="6.72944">
        <ele>5.4</ele>
        <time>2022-10-09T14:30:14Z</time>
      </trkpt>
      <trkpt lat="43.39843" lon="6.72945">
        <ele>5.4</ele>
        <time>2022-10-09T14:30:15Z</time>
      </trkpt>
      <trkpt lat="43.39857" lon="6.72949">
        <ele>5.4</ele>
        <time>2022-10-09T14:30:18Z</time>
      </trkpt>
      <trkpt lat="43.39862" lon="6.72951">
        <ele>5.4</ele>
        <time>2022-10-09T14:30:19Z</time>
      </trkpt>
      <trkpt lat="43.39867" lon="6.72952">
        <ele>5.4</ele>
        <time>2022-10-09T14:30:20Z</time>
      </trkpt>
      <trkpt lat="43.3988" lon="6.72958">
        <ele>5.4</ele>
        <time>2022-10-09T14:30:23Z</time>
      </trkpt>
      <trkpt lat="43.39921" lon="6.72971">
        <ele>5.4</ele>
        <time>2022-10-09T14:30:32Z</time>
      </trkpt>
      <trkpt lat="43.39926" lon="6.72972">
        <ele>5.4</ele>
        <time>2022-10-09T14:30:33Z</time>
      </trkpt>
      <trkpt lat="43.3993" lon="6.72973">
        <ele>5.4</ele>
        <time>2022-10-09T14:30:34Z</time>
      </trkpt>
      <trkpt lat="43.39962" lon="6.72978">
        <ele>5.4</ele>
        <time>2022-10-09T14:30:41Z</time>
      </trkpt>
      <trkpt lat="43.39972" lon="6.72979">
        <ele>5.4</ele>
        <time>2022-10-09T14:30:43Z</time>
      </trkpt>
      <trkpt lat="43.39976" lon="6.7298">
        <ele>5.4</ele>
        <time>2022-10-09T14:30:44Z</time>
      </trkpt>
      <trkpt lat="43.39981" lon="6.7298">
        <ele>5.4</ele>
        <time>2022-10-09T14:30:45Z</time>
      </trkpt>
      <trkpt lat="43.4" lon="6.72981">
        <ele>5.4</ele>
        <time>2022-10-09T14:30:49Z</time>
      </trkpt>
      <trkpt lat="43.40033" lon="6.72983">
        <ele>5.4</ele>
        <time>2022-10-09T14:30:56Z</time>
      </trkpt>
      <trkpt lat="43.40037" lon="6.72983">
        <ele>5.4</ele>
        <time>2022-10-09T14:30:57Z</time>
      </trkpt>
      <trkpt lat="43.40042" lon="6.72984">
        <ele>5.4</ele>
        <time>2022-10-09T14:30:58Z</time>
      </trkpt>
      <trkpt lat="43.40076" lon="6.72985">
        <ele>5.4</ele>
        <time>2022-10-09T14:31:05Z</time>
      </trkpt>
      <trkpt lat="43.4008" lon="6.72986">
        <ele>5.4</ele>
        <time>2022-10-09T14:31:06Z</time>
      </trkpt>
      <trkpt lat="43.401" lon="6.72987">
        <ele>5.4</ele>
        <time>2022-10-09T14:31:10Z</time>
      </trkpt>
      <trkpt lat="43.40115" lon="6.72988">
        <ele>5.4</ele>
        <time>2022-10-09T14:31:13Z</time>
      </trkpt>
      <trkpt lat="43.40154" lon="6.7299">
        <ele>5.4</ele>
        <time>2022-10-09T14:31:21Z</time>
      </trkpt>
      <trkpt lat="43.40206" lon="6.72992">
        <ele>5.4</ele>
        <time>2022-10-09T14:31:31Z</time>
      </trkpt>
      <trkpt lat="43.40254" lon="6.72986">
        <ele>5.3</ele>
        <time>2022-10-09T14:31:40Z</time>
      </trkpt>
      <trkpt lat="43.4027" lon="6.72981">
        <ele>5.3</ele>
        <time>2022-10-09T14:31:43Z</time>
      </trkpt>
      <trkpt lat="43.40276" lon="6.72979">
        <ele>5.3</ele>
        <time>2022-10-09T14:31:44Z</time>
      </trkpt>
      <trkpt lat="43.40303" lon="6.72971">
        <ele>5.3</ele>
        <time>2022-10-09T14:31:49Z</time>
      </trkpt>
      <trkpt lat="43.40309" lon="6.72969">
        <ele>5.3</ele>
        <time>2022-10-09T14:31:50Z</time>
      </trkpt>
      <trkpt lat="43.40314" lon="6.72967">
        <ele>5.3</ele>
        <time>2022-10-09T14:31:51Z</time>
      </trkpt>
      <trkpt lat="43.4032" lon="6.72966">
        <ele>5.3</ele>
        <time>2022-10-09T14:31:52Z</time>
      </trkpt>
      <trkpt lat="43.40325" lon="6.72964">
        <ele>5.3</ele>
        <time>2022-10-09T14:31:53Z</time>
      </trkpt>
      <trkpt lat="43.4033" lon="6.72961">
        <ele>5.3</ele>
        <time>2022-10-09T14:31:54Z</time>
      </trkpt>
      <trkpt lat="43.40351" lon="6.72949">
        <ele>5.3</ele>
        <time>2022-10-09T14:31:58Z</time>
      </trkpt>
      <trkpt lat="43.40378" lon="6.72932">
        <ele>5.3</ele>
        <time>2022-10-09T14:32:03Z</time>
      </trkpt>
      <trkpt lat="43.40384" lon="6.72929">
        <ele>5.3</ele>
        <time>2022-10-09T14:32:04Z</time>
      </trkpt>
      <trkpt lat="43.40395" lon="6.72922">
        <ele>5.3</ele>
        <time>2022-10-09T14:32:06Z</time>
      </trkpt>
      <trkpt lat="43.404" lon="6.72919">
        <ele>5.3</ele>
        <time>2022-10-09T14:32:07Z</time>
      </trkpt>
      <trkpt lat="43.40406" lon="6.72916">
        <ele>5.4</ele>
        <time>2022-10-09T14:32:08Z</time>
      </trkpt>
      <trkpt lat="43.40411" lon="6.72912">
        <ele>5.4</ele>
        <time>2022-10-09T14:32:09Z</time>
      </trkpt>
      <trkpt lat="43.40415" lon="6.72908">
        <ele>5.5</ele>
        <time>2022-10-09T14:32:10Z</time>
      </trkpt>
      <trkpt lat="43.4042" lon="6.72905">
        <ele>5.5</ele>
        <time>2022-10-09T14:32:11Z</time>
      </trkpt>
      <trkpt lat="43.40425" lon="6.72901">
        <ele>5.5</ele>
        <time>2022-10-09T14:32:12Z</time>
      </trkpt>
      <trkpt lat="43.40429" lon="6.72897">
        <ele>5.6</ele>
        <time>2022-10-09T14:32:13Z</time>
      </trkpt>
      <trkpt lat="43.40433" lon="6.72893">
        <ele>5.6</ele>
        <time>2022-10-09T14:32:14Z</time>
      </trkpt>
      <trkpt lat="43.40438" lon="6.72889">
        <ele>5.6</ele>
        <time>2022-10-09T14:32:15Z</time>
      </trkpt>
      <trkpt lat="43.40442" lon="6.72885">
        <ele>5.6</ele>
        <time>2022-10-09T14:32:16Z</time>
      </trkpt>
      <trkpt lat="43.40446" lon="6.72881">
        <ele>5.7</ele>
        <time>2022-10-09T14:32:17Z</time>
      </trkpt>
      <trkpt lat="43.4045" lon="6.72877">
        <ele>5.7</ele>
        <time>2022-10-09T14:32:18Z</time>
      </trkpt>
      <trkpt lat="43.40454" lon="6.72873">
        <ele>5.7</ele>
        <time>2022-10-09T14:32:19Z</time>
      </trkpt>
      <trkpt lat="43.40458" lon="6.72869">
        <ele>5.7</ele>
        <time>2022-10-09T14:32:20Z</time>
      </trkpt>
      <trkpt lat="43.40462" lon="6.72865">
        <ele>5.7</ele>
        <time>2022-10-09T14:32:21Z</time>
      </trkpt>
      <trkpt lat="43.40466" lon="6.72861">
        <ele>5.7</ele>
        <time>2022-10-09T14:32:22Z</time>
      </trkpt>
      <trkpt lat="43.4047" lon="6.72857">
        <ele>5.7</ele>
        <time>2022-10-09T14:32:23Z</time>
      </trkpt>
      <trkpt lat="43.40474" lon="6.72853">
        <ele>5.7</ele>
        <time>2022-10-09T14:32:24Z</time>
      </trkpt>
      <trkpt lat="43.40478" lon="6.72849">
        <ele>5.7</ele>
        <time>2022-10-09T14:32:25Z</time>
      </trkpt>
      <trkpt lat="43.40481" lon="6.72845">
        <ele>5.7</ele>
        <time>2022-10-09T14:32:26Z</time>
      </trkpt>
      <trkpt lat="43.40485" lon="6.72841">
        <ele>5.7</ele>
        <time>2022-10-09T14:32:27Z</time>
      </trkpt>
      <trkpt lat="43.40489" lon="6.72836">
        <ele>5.7</ele>
        <time>2022-10-09T14:32:28Z</time>
      </trkpt>
      <trkpt lat="43.40493" lon="6.72832">
        <ele>5.7</ele>
        <time>2022-10-09T14:32:29Z</time>
      </trkpt>
      <trkpt lat="43.40497" lon="6.72828">
        <ele>5.7</ele>
        <time>2022-10-09T14:32:30Z</time>
      </trkpt>
      <trkpt lat="43.405" lon="6.72824">
        <ele>5.7</ele>
        <time>2022-10-09T14:32:31Z</time>
      </trkpt>
      <trkpt lat="43.40504" lon="6.7282">
        <ele>5.7</ele>
        <time>2022-10-09T14:32:32Z</time>
      </trkpt>
      <trkpt lat="43.40508" lon="6.72815">
        <ele>5.7</ele>
        <time>2022-10-09T14:32:33Z</time>
      </trkpt>
      <trkpt lat="43.40512" lon="6.72811">
        <ele>5.7</ele>
        <time>2022-10-09T14:32:34Z</time>
      </trkpt>
      <trkpt lat="43.40516" lon="6.72807">
        <ele>5.7</ele>
        <time>2022-10-09T14:32:35Z</time>
      </trkpt>
      <trkpt lat="43.4052" lon="6.72803">
        <ele>5.7</ele>
        <time>2022-10-09T14:32:36Z</time>
      </trkpt>
      <trkpt lat="43.40524" lon="6.72799">
        <ele>5.7</ele>
        <time>2022-10-09T14:32:37Z</time>
      </trkpt>
      <trkpt lat="43.40528" lon="6.72795">
        <ele>5.8</ele>
        <time>2022-10-09T14:32:38Z</time>
      </trkpt>
      <trkpt lat="43.40532" lon="6.72791">
        <ele>5.8</ele>
        <time>2022-10-09T14:32:39Z</time>
      </trkpt>
      <trkpt lat="43.40536" lon="6.72787">
        <ele>5.8</ele>
        <time>2022-10-09T14:32:40Z</time>
      </trkpt>
      <trkpt lat="43.4054" lon="6.72783">
        <ele>5.8</ele>
        <time>2022-10-09T14:32:41Z</time>
      </trkpt>
      <trkpt lat="43.40544" lon="6.72779">
        <ele>5.8</ele>
        <time>2022-10-09T14:32:42Z</time>
      </trkpt>
      <trkpt lat="43.40548" lon="6.72775">
        <ele>5.8</ele>
        <time>2022-10-09T14:32:43Z</time>
      </trkpt>
      <trkpt lat="43.40552" lon="6.72771">
        <ele>5.8</ele>
        <time>2022-10-09T14:32:44Z</time>
      </trkpt>
      <trkpt lat="43.40559" lon="6.72764">
        <ele>5.8</ele>
        <time>2022-10-09T14:32:46Z</time>
      </trkpt>
      <trkpt lat="43.40564" lon="6.7276">
        <ele>5.7</ele>
        <time>2022-10-09T14:32:47Z</time>
      </trkpt>
      <trkpt lat="43.40572" lon="6.72751">
        <ele>5.7</ele>
        <time>2022-10-09T14:32:49Z</time>
      </trkpt>
      <trkpt lat="43.40577" lon="6.72747">
        <ele>5.6</ele>
        <time>2022-10-09T14:32:50Z</time>
      </trkpt>
      <trkpt lat="43.40581" lon="6.72742">
        <ele>5.6</ele>
        <time>2022-10-09T14:32:51Z</time>
      </trkpt>
      <trkpt lat="43.40585" lon="6.72738">
        <ele>5.7</ele>
        <time>2022-10-09T14:32:52Z</time>
      </trkpt>
      <trkpt lat="43.40589" lon="6.72733">
        <ele>5.7</ele>
        <time>2022-10-09T14:32:53Z</time>
      </trkpt>
      <trkpt lat="43.40598" lon="6.72725">
        <ele>5.7</ele>
        <time>2022-10-09T14:32:55Z</time>
      </trkpt>
      <trkpt lat="43.40606" lon="6.72717">
        <ele>5.7</ele>
        <time>2022-10-09T14:32:57Z</time>
      </trkpt>
      <trkpt lat="43.40614" lon="6.72708">
        <ele>5.8</ele>
        <time>2022-10-09T14:32:59Z</time>
      </trkpt>
      <trkpt lat="43.40618" lon="6.72704">
        <ele>5.8</ele>
        <time>2022-10-09T14:33:00Z</time>
      </trkpt>
      <trkpt lat="43.40626" lon="6.72696">
        <ele>5.8</ele>
        <time>2022-10-09T14:33:02Z</time>
      </trkpt>
      <trkpt lat="43.4063" lon="6.72692">
        <ele>5.8</ele>
        <time>2022-10-09T14:33:03Z</time>
      </trkpt>
      <trkpt lat="43.40634" lon="6.72688">
        <ele>5.8</ele>
        <time>2022-10-09T14:33:04Z</time>
      </trkpt>
      <trkpt lat="43.40638" lon="6.72684">
        <ele>5.9</ele>
        <time>2022-10-09T14:33:05Z</time>
      </trkpt>
      <trkpt lat="43.40641" lon="6.7268">
        <ele>5.9</ele>
        <time>2022-10-09T14:33:06Z</time>
      </trkpt>
      <trkpt lat="43.40645" lon="6.72676">
        <ele>5.9</ele>
        <time>2022-10-09T14:33:07Z</time>
      </trkpt>
      <trkpt lat="43.40648" lon="6.72671">
        <ele>5.9</ele>
        <time>2022-10-09T14:33:08Z</time>
      </trkpt>
      <trkpt lat="43.40652" lon="6.72668">
        <ele>5.9</ele>
        <time>2022-10-09T14:33:09Z</time>
      </trkpt>
      <trkpt lat="43.40656" lon="6.72664">
        <ele>5.9</ele>
        <time>2022-10-09T14:33:10Z</time>
      </trkpt>
      <trkpt lat="43.40659" lon="6.7266">
        <ele>5.9</ele>
        <time>2022-10-09T14:33:11Z</time>
      </trkpt>
      <trkpt lat="43.40669" lon="6.72648">
        <ele>5.9</ele>
        <time>2022-10-09T14:33:14Z</time>
      </trkpt>
      <trkpt lat="43.40683" lon="6.72636">
        <ele>5.8</ele>
        <time>2022-10-09T14:33:17Z</time>
      </trkpt>
      <trkpt lat="43.40701" lon="6.7262">
        <ele>5.8</ele>
        <time>2022-10-09T14:33:21Z</time>
      </trkpt>
      <trkpt lat="43.40705" lon="6.72616">
        <ele>5.8</ele>
        <time>2022-10-09T14:33:22Z</time>
      </trkpt>
      <trkpt lat="43.40709" lon="6.72611">
        <ele>5.8</ele>
        <time>2022-10-09T14:33:23Z</time>
      </trkpt>
      <trkpt lat="43.40713" lon="6.72607">
        <ele>5.8</ele>
        <time>2022-10-09T14:33:24Z</time>
      </trkpt>
      <trkpt lat="43.40717" lon="6.72603">
        <ele>5.8</ele>
        <time>2022-10-09T14:33:25Z</time>
      </trkpt>
      <trkpt lat="43.40735" lon="6.72587">
        <ele>5.8</ele>
        <time>2022-10-09T14:33:29Z</time>
      </trkpt>
      <trkpt lat="43.40739" lon="6.72583">
        <ele>5.8</ele>
        <time>2022-10-09T14:33:30Z</time>
      </trkpt>
      <trkpt lat="43.40743" lon="6.72579">
        <ele>5.8</ele>
        <time>2022-10-09T14:33:31Z</time>
      </trkpt>
      <trkpt lat="43.40747" lon="6.72575">
        <ele>5.8</ele>
        <time>2022-10-09T14:33:32Z</time>
      </trkpt>
      <trkpt lat="43.40751" lon="6.72571">
        <ele>5.8</ele>
        <time>2022-10-09T14:33:33Z</time>
      </trkpt>
      <trkpt lat="43.40755" lon="6.72568">
        <ele>5.8</ele>
        <time>2022-10-09T14:33:34Z</time>
      </trkpt>
      <trkpt lat="43.40779" lon="6.72544">
        <ele>5.7</ele>
        <time>2022-10-09T14:33:40Z</time>
      </trkpt>
      <trkpt lat="43.40783" lon="6.7254">
        <ele>5.7</ele>
        <time>2022-10-09T14:33:41Z</time>
      </trkpt>
      <trkpt lat="43.40787" lon="6.72536">
        <ele>5.7</ele>
        <time>2022-10-09T14:33:42Z</time>
      </trkpt>
      <trkpt lat="43.40791" lon="6.72533">
        <ele>5.7</ele>
        <time>2022-10-09T14:33:43Z</time>
      </trkpt>
      <trkpt lat="43.40795" lon="6.72529">
        <ele>5.7</ele>
        <time>2022-10-09T14:33:44Z</time>
      </trkpt>
      <trkpt lat="43.40802" lon="6.72521">
        <ele>5.7</ele>
        <time>2022-10-09T14:33:46Z</time>
      </trkpt>
      <trkpt lat="43.4081" lon="6.72513">
        <ele>5.7</ele>
        <time>2022-10-09T14:33:48Z</time>
      </trkpt>
      <trkpt lat="43.40814" lon="6.7251">
        <ele>5.7</ele>
        <time>2022-10-09T14:33:49Z</time>
      </trkpt>
      <trkpt lat="43.40818" lon="6.72506">
        <ele>5.7</ele>
        <time>2022-10-09T14:33:50Z</time>
      </trkpt>
      <trkpt lat="43.40821" lon="6.72503">
        <ele>5.7</ele>
        <time>2022-10-09T14:33:51Z</time>
      </trkpt>
      <trkpt lat="43.40831" lon="6.72491">
        <ele>5.8</ele>
        <time>2022-10-09T14:33:54Z</time>
      </trkpt>
      <trkpt lat="43.40846" lon="6.72476">
        <ele>5.9</ele>
        <time>2022-10-09T14:33:58Z</time>
      </trkpt>
      <trkpt lat="43.40849" lon="6.72472">
        <ele>5.9</ele>
        <time>2022-10-09T14:33:59Z</time>
      </trkpt>
      <trkpt lat="43.40853" lon="6.72468">
        <ele>5.9</ele>
        <time>2022-10-09T14:34:00Z</time>
      </trkpt>
      <trkpt lat="43.40855" lon="6.72465">
        <ele>5.9</ele>
        <time>2022-10-09T14:34:01Z</time>
      </trkpt>
      <trkpt lat="43.40858" lon="6.72462">
        <ele>5.9</ele>
        <time>2022-10-09T14:34:02Z</time>
      </trkpt>
      <trkpt lat="43.40861" lon="6.72459">
        <ele>5.9</ele>
        <time>2022-10-09T14:34:03Z</time>
      </trkpt>
      <trkpt lat="43.4087" lon="6.72449">
        <ele>5.9</ele>
        <time>2022-10-09T14:34:06Z</time>
      </trkpt>
      <trkpt lat="43.40878" lon="6.72442">
        <ele>5.9</ele>
        <time>2022-10-09T14:34:08Z</time>
      </trkpt>
      <trkpt lat="43.40886" lon="6.72434">
        <ele>6</ele>
        <time>2022-10-09T14:34:10Z</time>
      </trkpt>
      <trkpt lat="43.40898" lon="6.7242">
        <ele>6.1</ele>
        <time>2022-10-09T14:34:13Z</time>
      </trkpt>
      <trkpt lat="43.40903" lon="6.72418">
        <ele>6.1</ele>
        <time>2022-10-09T14:34:14Z</time>
      </trkpt>
      <trkpt lat="43.40909" lon="6.72417">
        <ele>6.1</ele>
        <time>2022-10-09T14:34:15Z</time>
      </trkpt>
      <trkpt lat="43.40915" lon="6.72418">
        <ele>6.1</ele>
        <time>2022-10-09T14:34:16Z</time>
      </trkpt>
      <trkpt lat="43.40919" lon="6.7242">
        <ele>6.1</ele>
        <time>2022-10-09T14:34:17Z</time>
      </trkpt>
      <trkpt lat="43.40924" lon="6.72421">
        <ele>6.2</ele>
        <time>2022-10-09T14:34:18Z</time>
      </trkpt>
      <trkpt lat="43.40929" lon="6.72421">
        <ele>6.2</ele>
        <time>2022-10-09T14:34:19Z</time>
      </trkpt>
      <trkpt lat="43.40934" lon="6.7242">
        <ele>6.1</ele>
        <time>2022-10-09T14:34:20Z</time>
      </trkpt>
      <trkpt lat="43.40939" lon="6.72418">
        <ele>6.1</ele>
        <time>2022-10-09T14:34:21Z</time>
      </trkpt>
      <trkpt lat="43.40944" lon="6.72417">
        <ele>6</ele>
        <time>2022-10-09T14:34:22Z</time>
      </trkpt>
      <trkpt lat="43.40974" lon="6.72411">
        <ele>5.9</ele>
        <time>2022-10-09T14:34:28Z</time>
      </trkpt>
      <trkpt lat="43.40984" lon="6.72411">
        <ele>5.9</ele>
        <time>2022-10-09T14:34:30Z</time>
      </trkpt>
      <trkpt lat="43.41004" lon="6.72411">
        <ele>5.9</ele>
        <time>2022-10-09T14:34:34Z</time>
      </trkpt>
      <trkpt lat="43.4103" lon="6.72415">
        <ele>6</ele>
        <time>2022-10-09T14:34:39Z</time>
      </trkpt>
      <trkpt lat="43.41035" lon="6.72416">
        <ele>6.1</ele>
        <time>2022-10-09T14:34:40Z</time>
      </trkpt>
      <trkpt lat="43.4104" lon="6.72417">
        <ele>6.1</ele>
        <time>2022-10-09T14:34:41Z</time>
      </trkpt>
      <trkpt lat="43.41059" lon="6.72428">
        <ele>6.4</ele>
        <time>2022-10-09T14:34:45Z</time>
      </trkpt>
      <trkpt lat="43.41063" lon="6.72431">
        <ele>6.5</ele>
        <time>2022-10-09T14:34:46Z</time>
      </trkpt>
      <trkpt lat="43.41067" lon="6.72435">
        <ele>6.6</ele>
        <time>2022-10-09T14:34:47Z</time>
      </trkpt>
      <trkpt lat="43.41072" lon="6.72437">
        <ele>6.7</ele>
        <time>2022-10-09T14:34:48Z</time>
      </trkpt>
      <trkpt lat="43.41076" lon="6.72437">
        <ele>6.7</ele>
        <time>2022-10-09T14:34:49Z</time>
      </trkpt>
      <trkpt lat="43.41081" lon="6.72436">
        <ele>6.8</ele>
        <time>2022-10-09T14:34:50Z</time>
      </trkpt>
      <trkpt lat="43.41085" lon="6.72436">
        <ele>6.8</ele>
        <time>2022-10-09T14:34:51Z</time>
      </trkpt>
      <trkpt lat="43.41089" lon="6.72438">
        <ele>6.8</ele>
        <time>2022-10-09T14:34:52Z</time>
      </trkpt>
      <trkpt lat="43.41094" lon="6.7244">
        <ele>6.8</ele>
        <time>2022-10-09T14:34:53Z</time>
      </trkpt>
      <trkpt lat="43.411" lon="6.72442">
        <ele>6.8</ele>
        <time>2022-10-09T14:34:54Z</time>
      </trkpt>
      <trkpt lat="43.41118" lon="6.72449">
        <ele>6.8</ele>
        <time>2022-10-09T14:34:57Z</time>
      </trkpt>
      <trkpt lat="43.41131" lon="6.72454">
        <ele>6.8</ele>
        <time>2022-10-09T14:34:59Z</time>
      </trkpt>
      <trkpt lat="43.41137" lon="6.72457">
        <ele>6.8</ele>
        <time>2022-10-09T14:35:00Z</time>
      </trkpt>
      <trkpt lat="43.41144" lon="6.72459">
        <ele>6.8</ele>
        <time>2022-10-09T14:35:01Z</time>
      </trkpt>
      <trkpt lat="43.4115" lon="6.72461">
        <ele>6.8</ele>
        <time>2022-10-09T14:35:02Z</time>
      </trkpt>
      <trkpt lat="43.41155" lon="6.72464">
        <ele>6.8</ele>
        <time>2022-10-09T14:35:03Z</time>
      </trkpt>
      <trkpt lat="43.41159" lon="6.72466">
        <ele>6.8</ele>
        <time>2022-10-09T14:35:04Z</time>
      </trkpt>
      <trkpt lat="43.4116" lon="6.72469">
        <ele>6.8</ele>
        <time>2022-10-09T14:35:05Z</time>
      </trkpt>
      <trkpt lat="43.4116" lon="6.72473">
        <ele>6.8</ele>
        <time>2022-10-09T14:35:06Z</time>
      </trkpt>
      <trkpt lat="43.41159" lon="6.72476">
        <ele>6.8</ele>
        <time>2022-10-09T14:35:07Z</time>
      </trkpt>
      <trkpt lat="43.41156" lon="6.72488">
        <ele>6.8</ele>
        <time>2022-10-09T14:35:10Z</time>
      </trkpt>
      <trkpt lat="43.41154" lon="6.72497">
        <ele>6.8</ele>
        <time>2022-10-09T14:35:12Z</time>
      </trkpt>
      <trkpt lat="43.41154" lon="6.725">
        <ele>6.8</ele>
        <time>2022-10-09T14:35:13Z</time>
      </trkpt>
      <trkpt lat="43.41151" lon="6.72516">
        <ele>6.8</ele>
        <time>2022-10-09T14:35:17Z</time>
      </trkpt>
      <trkpt lat="43.41151" lon="6.7252">
        <ele>6.8</ele>
        <time>2022-10-09T14:35:18Z</time>
      </trkpt>
      <trkpt lat="43.41152" lon="6.72523">
        <ele>6.8</ele>
        <time>2022-10-09T14:35:19Z</time>
      </trkpt>
      <trkpt lat="43.41153" lon="6.72527">
        <ele>6.8</ele>
        <time>2022-10-09T14:35:20Z</time>
      </trkpt>
      <trkpt lat="43.41155" lon="6.72535">
        <ele>6.7</ele>
        <time>2022-10-09T14:35:22Z</time>
      </trkpt>
      <trkpt lat="43.41155" lon="6.72548">
        <ele>6.7</ele>
        <time>2022-10-09T14:35:25Z</time>
      </trkpt>
      <trkpt lat="43.41154" lon="6.72551">
        <ele>6.7</ele>
        <time>2022-10-09T14:35:26Z</time>
      </trkpt>
      <trkpt lat="43.41152" lon="6.72555">
        <ele>6.7</ele>
        <time>2022-10-09T14:35:27Z</time>
      </trkpt>
      <trkpt lat="43.4115" lon="6.72558">
        <ele>6.7</ele>
        <time>2022-10-09T14:35:28Z</time>
      </trkpt>
      <trkpt lat="43.41149" lon="6.72562">
        <ele>6.7</ele>
        <time>2022-10-09T14:35:29Z</time>
      </trkpt>
      <trkpt lat="43.41149" lon="6.72565">
        <ele>6.7</ele>
        <time>2022-10-09T14:35:30Z</time>
      </trkpt>
      <trkpt lat="43.4115" lon="6.72566">
        <ele>6.6</ele>
        <time>2022-10-09T14:35:31Z</time>
      </trkpt>
      <trkpt lat="43.41154" lon="6.72565">
        <ele>6.6</ele>
        <time>2022-10-09T14:35:33Z</time>
      </trkpt>
      <trkpt lat="43.41157" lon="6.72561">
        <ele>6.6</ele>
        <time>2022-10-09T14:35:35Z</time>
      </trkpt>
      <trkpt lat="43.41158" lon="6.7256">
        <ele>6.6</ele>
        <time>2022-10-09T14:35:36Z</time>
      </trkpt>
      <trkpt lat="43.4116" lon="6.7256">
        <ele>6.6</ele>
        <time>2022-10-09T14:35:37Z</time>
      </trkpt>
      <trkpt lat="43.41162" lon="6.72559">
        <ele>6.6</ele>
        <time>2022-10-09T14:35:38Z</time>
      </trkpt>
      <trkpt lat="43.41164" lon="6.72558">
        <ele>6.6</ele>
        <time>2022-10-09T14:35:39Z</time>
      </trkpt>
      <trkpt lat="43.41166" lon="6.72557">
        <ele>6.6</ele>
        <time>2022-10-09T14:35:40Z</time>
      </trkpt>
      <trkpt lat="43.41168" lon="6.72557">
        <ele>6.6</ele>
        <time>2022-10-09T14:35:41Z</time>
      </trkpt>
      <trkpt lat="43.41174" lon="6.72555">
        <ele>6.6</ele>
        <time>2022-10-09T14:35:44Z</time>
      </trkpt>
      <trkpt lat="43.41184" lon="6.72554">
        <ele>6.5</ele>
        <time>2022-10-09T14:35:48Z</time>
      </trkpt>
      <trkpt lat="43.41199" lon="6.72557">
        <ele>6.4</ele>
        <time>2022-10-09T14:35:53Z</time>
      </trkpt>
      <trkpt lat="43.41205" lon="6.7256">
        <ele>6.4</ele>
        <time>2022-10-09T14:35:55Z</time>
      </trkpt>
      <trkpt lat="43.41211" lon="6.72563">
        <ele>6.3</ele>
        <time>2022-10-09T14:35:57Z</time>
      </trkpt>
      <trkpt lat="43.41214" lon="6.72564">
        <ele>6.3</ele>
        <time>2022-10-09T14:35:58Z</time>
      </trkpt>
      <trkpt lat="43.41217" lon="6.72565">
        <ele>6.3</ele>
        <time>2022-10-09T14:35:59Z</time>
      </trkpt>
      <trkpt lat="43.41223" lon="6.72566">
        <ele>6.3</ele>
        <time>2022-10-09T14:36:01Z</time>
      </trkpt>
      <trkpt lat="43.41227" lon="6.72567">
        <ele>6.3</ele>
        <time>2022-10-09T14:36:02Z</time>
      </trkpt>
      <trkpt lat="43.41233" lon="6.72567">
        <ele>6.3</ele>
        <time>2022-10-09T14:36:04Z</time>
      </trkpt>
      <trkpt lat="43.41235" lon="6.72568">
        <ele>6.3</ele>
        <time>2022-10-09T14:36:05Z</time>
      </trkpt>
      <trkpt lat="43.41238" lon="6.72568">
        <ele>6.3</ele>
        <time>2022-10-09T14:36:06Z</time>
      </trkpt>
      <trkpt lat="43.4124" lon="6.72569">
        <ele>6.3</ele>
        <time>2022-10-09T14:36:07Z</time>
      </trkpt>
      <trkpt lat="43.41242" lon="6.7257">
        <ele>6.3</ele>
        <time>2022-10-09T14:36:08Z</time>
      </trkpt>
      <trkpt lat="43.41245" lon="6.7257">
        <ele>6.3</ele>
        <time>2022-10-09T14:36:09Z</time>
      </trkpt>
      <trkpt lat="43.41252" lon="6.72573">
        <ele>6.3</ele>
        <time>2022-10-09T14:36:12Z</time>
      </trkpt>
      <trkpt lat="43.41254" lon="6.72574">
        <ele>6.3</ele>
        <time>2022-10-09T14:36:13Z</time>
      </trkpt>
      <trkpt lat="43.41256" lon="6.72575">
        <ele>6.3</ele>
        <time>2022-10-09T14:36:14Z</time>
      </trkpt>
      <trkpt lat="43.41275" lon="6.72582">
        <ele>6.3</ele>
        <time>2022-10-09T14:36:22Z</time>
      </trkpt>
      <trkpt lat="43.41287" lon="6.72588">
        <ele>6.2</ele>
        <time>2022-10-09T14:36:26Z</time>
      </trkpt>
      <trkpt lat="43.41294" lon="6.72592">
        <ele>6.2</ele>
        <time>2022-10-09T14:36:28Z</time>
      </trkpt>
      <trkpt lat="43.41297" lon="6.72594">
        <ele>6.2</ele>
        <time>2022-10-09T14:36:29Z</time>
      </trkpt>
      <trkpt lat="43.413" lon="6.72595">
        <ele>6.2</ele>
        <time>2022-10-09T14:36:30Z</time>
      </trkpt>
      <trkpt lat="43.41311" lon="6.726">
        <ele>6.1</ele>
        <time>2022-10-09T14:36:33Z</time>
      </trkpt>
      <trkpt lat="43.41315" lon="6.72602">
        <ele>6.1</ele>
        <time>2022-10-09T14:36:34Z</time>
      </trkpt>
      <trkpt lat="43.41318" lon="6.72604">
        <ele>6.1</ele>
        <time>2022-10-09T14:36:35Z</time>
      </trkpt>
      <trkpt lat="43.41322" lon="6.72605">
        <ele>6.1</ele>
        <time>2022-10-09T14:36:36Z</time>
      </trkpt>
      <trkpt lat="43.41325" lon="6.72607">
        <ele>6.1</ele>
        <time>2022-10-09T14:36:37Z</time>
      </trkpt>
      <trkpt lat="43.41334" lon="6.7261">
        <ele>6.2</ele>
        <time>2022-10-09T14:36:40Z</time>
      </trkpt>
      <trkpt lat="43.41337" lon="6.72611">
        <ele>6.2</ele>
        <time>2022-10-09T14:36:41Z</time>
      </trkpt>
      <trkpt lat="43.41342" lon="6.72614">
        <ele>6.3</ele>
        <time>2022-10-09T14:36:43Z</time>
      </trkpt>
      <trkpt lat="43.41353" lon="6.72624">
        <ele>6.4</ele>
        <time>2022-10-09T14:36:47Z</time>
      </trkpt>
      <trkpt lat="43.41357" lon="6.7263">
        <ele>6.3</ele>
        <time>2022-10-09T14:36:49Z</time>
      </trkpt>
      <trkpt lat="43.41359" lon="6.72632">
        <ele>6.2</ele>
        <time>2022-10-09T14:36:50Z</time>
      </trkpt>
      <trkpt lat="43.41361" lon="6.72634">
        <ele>6.1</ele>
        <time>2022-10-09T14:36:51Z</time>
      </trkpt>
      <trkpt lat="43.41362" lon="6.72637">
        <ele>6</ele>
        <time>2022-10-09T14:36:52Z</time>
      </trkpt>
      <trkpt lat="43.41363" lon="6.7264">
        <ele>6.3</ele>
        <time>2022-10-09T14:36:53Z</time>
      </trkpt>
      <trkpt lat="43.4137" lon="6.72658">
        <ele>6.3</ele>
        <time>2022-10-09T14:36:58Z</time>
      </trkpt>
      <trkpt lat="43.41372" lon="6.7266">
        <ele>6.2</ele>
        <time>2022-10-09T14:36:59Z</time>
      </trkpt>
      <trkpt lat="43.41375" lon="6.72661">
        <ele>6.2</ele>
        <time>2022-10-09T14:37:00Z</time>
      </trkpt>
      <trkpt lat="43.41379" lon="6.72662">
        <ele>5.9</ele>
        <time>2022-10-09T14:37:01Z</time>
      </trkpt>
      <trkpt lat="43.41382" lon="6.72663">
        <ele>5.8</ele>
        <time>2022-10-09T14:37:02Z</time>
      </trkpt>
      <trkpt lat="43.41388" lon="6.72667">
        <ele>5.8</ele>
        <time>2022-10-09T14:37:04Z</time>
      </trkpt>
      <trkpt lat="43.4139" lon="6.7267">
        <ele>5.7</ele>
        <time>2022-10-09T14:37:05Z</time>
      </trkpt>
      <trkpt lat="43.41392" lon="6.72674">
        <ele>5.7</ele>
        <time>2022-10-09T14:37:06Z</time>
      </trkpt>
      <trkpt lat="43.41393" lon="6.72677">
        <ele>5.6</ele>
        <time>2022-10-09T14:37:07Z</time>
      </trkpt>
      <trkpt lat="43.41395" lon="6.72681">
        <ele>5.5</ele>
        <time>2022-10-09T14:37:08Z</time>
      </trkpt>
      <trkpt lat="43.41395" lon="6.72685">
        <ele>5.5</ele>
        <time>2022-10-09T14:37:09Z</time>
      </trkpt>
      <trkpt lat="43.41395" lon="6.72688">
        <ele>5.4</ele>
        <time>2022-10-09T14:37:10Z</time>
      </trkpt>
      <trkpt lat="43.41395" lon="6.72692">
        <ele>5.4</ele>
        <time>2022-10-09T14:37:11Z</time>
      </trkpt>
      <trkpt lat="43.41395" lon="6.72696">
        <ele>5.3</ele>
        <time>2022-10-09T14:37:12Z</time>
      </trkpt>
      <trkpt lat="43.41394" lon="6.72699">
        <ele>5.3</ele>
        <time>2022-10-09T14:37:13Z</time>
      </trkpt>
      <trkpt lat="43.41386" lon="6.72729">
        <ele>5.2</ele>
        <time>2022-10-09T14:37:20Z</time>
      </trkpt>
      <trkpt lat="43.41374" lon="6.72769">
        <ele>4.9</ele>
        <time>2022-10-09T14:37:28Z</time>
      </trkpt>
      <trkpt lat="43.41369" lon="6.72791">
        <ele>4.6</ele>
        <time>2022-10-09T14:37:32Z</time>
      </trkpt>
      <trkpt lat="43.41367" lon="6.72796">
        <ele>4.3</ele>
        <time>2022-10-09T14:37:33Z</time>
      </trkpt>
      <trkpt lat="43.41365" lon="6.72801">
        <ele>4.2</ele>
        <time>2022-10-09T14:37:34Z</time>
      </trkpt>
      <trkpt lat="43.41364" lon="6.72806">
        <ele>4</ele>
        <time>2022-10-09T14:37:35Z</time>
      </trkpt>
      <trkpt lat="43.41363" lon="6.72811">
        <ele>4</ele>
        <time>2022-10-09T14:37:36Z</time>
      </trkpt>
      <trkpt lat="43.41352" lon="6.72845">
        <ele>3.9</ele>
        <time>2022-10-09T14:37:42Z</time>
      </trkpt>
      <trkpt lat="43.41351" lon="6.7285">
        <ele>3.9</ele>
        <time>2022-10-09T14:37:43Z</time>
      </trkpt>
      <trkpt lat="43.41349" lon="6.72856">
        <ele>3.9</ele>
        <time>2022-10-09T14:37:44Z</time>
      </trkpt>
      <trkpt lat="43.41343" lon="6.72867">
        <ele>3.8</ele>
        <time>2022-10-09T14:37:46Z</time>
      </trkpt>
      <trkpt lat="43.41337" lon="6.72876">
        <ele>3.8</ele>
        <time>2022-10-09T14:37:48Z</time>
      </trkpt>
      <trkpt lat="43.4133" lon="6.72885">
        <ele>3.7</ele>
        <time>2022-10-09T14:37:50Z</time>
      </trkpt>
      <trkpt lat="43.41327" lon="6.7289">
        <ele>3.7</ele>
        <time>2022-10-09T14:37:51Z</time>
      </trkpt>
      <trkpt lat="43.41324" lon="6.72894">
        <ele>3.7</ele>
        <time>2022-10-09T14:37:52Z</time>
      </trkpt>
      <trkpt lat="43.4132" lon="6.72898">
        <ele>3.7</ele>
        <time>2022-10-09T14:37:53Z</time>
      </trkpt>
      <trkpt lat="43.4131" lon="6.72911">
        <ele>3.6</ele>
        <time>2022-10-09T14:37:56Z</time>
      </trkpt>
      <trkpt lat="43.413" lon="6.72924">
        <ele>3.6</ele>
        <time>2022-10-09T14:37:59Z</time>
      </trkpt>
      <trkpt lat="43.41296" lon="6.72929">
        <ele>3.6</ele>
        <time>2022-10-09T14:38:00Z</time>
      </trkpt>
      <trkpt lat="43.41293" lon="6.72933">
        <ele>3.6</ele>
        <time>2022-10-09T14:38:01Z</time>
      </trkpt>
      <trkpt lat="43.41289" lon="6.72937">
        <ele>3.6</ele>
        <time>2022-10-09T14:38:02Z</time>
      </trkpt>
      <trkpt lat="43.41286" lon="6.72941">
        <ele>3.6</ele>
        <time>2022-10-09T14:38:03Z</time>
      </trkpt>
      <trkpt lat="43.41282" lon="6.72944">
        <ele>3.6</ele>
        <time>2022-10-09T14:38:04Z</time>
      </trkpt>
      <trkpt lat="43.41278" lon="6.72947">
        <ele>3.6</ele>
        <time>2022-10-09T14:38:05Z</time>
      </trkpt>
      <trkpt lat="43.41275" lon="6.7295">
        <ele>3.6</ele>
        <time>2022-10-09T14:38:06Z</time>
      </trkpt>
      <trkpt lat="43.41271" lon="6.72952">
        <ele>3.6</ele>
        <time>2022-10-09T14:38:07Z</time>
      </trkpt>
      <trkpt lat="43.41267" lon="6.72954">
        <ele>3.6</ele>
        <time>2022-10-09T14:38:08Z</time>
      </trkpt>
      <trkpt lat="43.41263" lon="6.72957">
        <ele>3.6</ele>
        <time>2022-10-09T14:38:09Z</time>
      </trkpt>
      <trkpt lat="43.4126" lon="6.72961">
        <ele>3.6</ele>
        <time>2022-10-09T14:38:10Z</time>
      </trkpt>
      <trkpt lat="43.41258" lon="6.72965">
        <ele>3.5</ele>
        <time>2022-10-09T14:38:11Z</time>
      </trkpt>
      <trkpt lat="43.41257" lon="6.7297">
        <ele>3.5</ele>
        <time>2022-10-09T14:38:12Z</time>
      </trkpt>
      <trkpt lat="43.41258" lon="6.72976">
        <ele>3.5</ele>
        <time>2022-10-09T14:38:13Z</time>
      </trkpt>
      <trkpt lat="43.41259" lon="6.72981">
        <ele>3.5</ele>
        <time>2022-10-09T14:38:14Z</time>
      </trkpt>
      <trkpt lat="43.41259" lon="6.72986">
        <ele>3.5</ele>
        <time>2022-10-09T14:38:15Z</time>
      </trkpt>
      <trkpt lat="43.41259" lon="6.72991">
        <ele>3.4</ele>
        <time>2022-10-09T14:38:16Z</time>
      </trkpt>
      <trkpt lat="43.41257" lon="6.72995">
        <ele>3.4</ele>
        <time>2022-10-09T14:38:17Z</time>
      </trkpt>
      <trkpt lat="43.41254" lon="6.72999">
        <ele>3.3</ele>
        <time>2022-10-09T14:38:18Z</time>
      </trkpt>
      <trkpt lat="43.41247" lon="6.73006">
        <ele>3.2</ele>
        <time>2022-10-09T14:38:20Z</time>
      </trkpt>
      <trkpt lat="43.41244" lon="6.7301">
        <ele>3.2</ele>
        <time>2022-10-09T14:38:21Z</time>
      </trkpt>
      <trkpt lat="43.41214" lon="6.73053">
        <ele>2.7</ele>
        <time>2022-10-09T14:38:31Z</time>
      </trkpt>
      <trkpt lat="43.41193" lon="6.73086">
        <ele>2.1</ele>
        <time>2022-10-09T14:38:38Z</time>
      </trkpt>
      <trkpt lat="43.41188" lon="6.73096">
        <ele>2</ele>
        <time>2022-10-09T14:38:40Z</time>
      </trkpt>
      <trkpt lat="43.41186" lon="6.73101">
        <ele>2</ele>
        <time>2022-10-09T14:38:41Z</time>
      </trkpt>
      <trkpt lat="43.41183" lon="6.73106">
        <ele>1.9</ele>
        <time>2022-10-09T14:38:42Z</time>
      </trkpt>
      <trkpt lat="43.41181" lon="6.73109">
        <ele>1.9</ele>
        <time>2022-10-09T14:38:43Z</time>
      </trkpt>
      <trkpt lat="43.41179" lon="6.73112">
        <ele>1.9</ele>
        <time>2022-10-09T14:38:44Z</time>
      </trkpt>
      <trkpt lat="43.41177" lon="6.73114">
        <ele>2</ele>
        <time>2022-10-09T14:38:45Z</time>
      </trkpt>
      <trkpt lat="43.41174" lon="6.7312">
        <ele>1.7</ele>
        <time>2022-10-09T14:38:47Z</time>
      </trkpt>
      <trkpt lat="43.41173" lon="6.73123">
        <ele>1.7</ele>
        <time>2022-10-09T14:38:48Z</time>
      </trkpt>
      <trkpt lat="43.41172" lon="6.73127">
        <ele>1.7</ele>
        <time>2022-10-09T14:38:49Z</time>
      </trkpt>
      <trkpt lat="43.41173" lon="6.7313">
        <ele>1.7</ele>
        <time>2022-10-09T14:38:50Z</time>
      </trkpt>
      <trkpt lat="43.41179" lon="6.73138">
        <ele>0.7</ele>
        <time>2022-10-09T14:38:53Z</time>
      </trkpt>
      <trkpt lat="43.41201" lon="6.73166">
        <ele>1.3</ele>
        <time>2022-10-09T14:39:01Z</time>
      </trkpt>
      <trkpt lat="43.41218" lon="6.73188">
        <ele>3.1</ele>
        <time>2022-10-09T14:39:07Z</time>
      </trkpt>
      <trkpt lat="43.41219" lon="6.73191">
        <ele>3.1</ele>
        <time>2022-10-09T14:39:08Z</time>
      </trkpt>
      <trkpt lat="43.4122" lon="6.73194">
        <ele>3.1</ele>
        <time>2022-10-09T14:39:09Z</time>
      </trkpt>
      <trkpt lat="43.4122" lon="6.73199">
        <ele>3.1</ele>
        <time>2022-10-09T14:39:10Z</time>
      </trkpt>
      <trkpt lat="43.41219" lon="6.73203">
        <ele>3.1</ele>
        <time>2022-10-09T14:39:11Z</time>
      </trkpt>
      <trkpt lat="43.41215" lon="6.73212">
        <ele>3.1</ele>
        <time>2022-10-09T14:39:13Z</time>
      </trkpt>
      <trkpt lat="43.41213" lon="6.73216">
        <ele>3.2</ele>
        <time>2022-10-09T14:39:14Z</time>
      </trkpt>
      <trkpt lat="43.4121" lon="6.7322">
        <ele>3.2</ele>
        <time>2022-10-09T14:39:15Z</time>
      </trkpt>
      <trkpt lat="43.41195" lon="6.73242">
        <ele>3.3</ele>
        <time>2022-10-09T14:39:20Z</time>
      </trkpt>
      <trkpt lat="43.41193" lon="6.73247">
        <ele>3.3</ele>
        <time>2022-10-09T14:39:21Z</time>
      </trkpt>
      <trkpt lat="43.41185" lon="6.73263">
        <ele>3.4</ele>
        <time>2022-10-09T14:39:24Z</time>
      </trkpt>
      <trkpt lat="43.41182" lon="6.73274">
        <ele>3.4</ele>
        <time>2022-10-09T14:39:26Z</time>
      </trkpt>
      <trkpt lat="43.4118" lon="6.7328">
        <ele>3.4</ele>
        <time>2022-10-09T14:39:27Z</time>
      </trkpt>
      <trkpt lat="43.41178" lon="6.73285">
        <ele>3.4</ele>
        <time>2022-10-09T14:39:28Z</time>
      </trkpt>
      <trkpt lat="43.41164" lon="6.7331">
        <ele>3.3</ele>
        <time>2022-10-09T14:39:33Z</time>
      </trkpt>
      <trkpt lat="43.4116" lon="6.73321">
        <ele>3.4</ele>
        <time>2022-10-09T14:39:35Z</time>
      </trkpt>
      <trkpt lat="43.41153" lon="6.73338">
        <ele>3.4</ele>
        <time>2022-10-09T14:39:38Z</time>
      </trkpt>
      <trkpt lat="43.4114" lon="6.73373">
        <ele>3.5</ele>
        <time>2022-10-09T14:39:44Z</time>
      </trkpt>
      <trkpt lat="43.4113" lon="6.73402">
        <ele>3.4</ele>
        <time>2022-10-09T14:39:49Z</time>
      </trkpt>
      <trkpt lat="43.41123" lon="6.7342">
        <ele>3.4</ele>
        <time>2022-10-09T14:39:52Z</time>
      </trkpt>
      <trkpt lat="43.41121" lon="6.73427">
        <ele>3.4</ele>
        <time>2022-10-09T14:39:53Z</time>
      </trkpt>
      <trkpt lat="43.41117" lon="6.73446">
        <ele>3.4</ele>
        <time>2022-10-09T14:39:56Z</time>
      </trkpt>
      <trkpt lat="43.41118" lon="6.7346">
        <ele>3.3</ele>
        <time>2022-10-09T14:39:58Z</time>
      </trkpt>
      <trkpt lat="43.4112" lon="6.73466">
        <ele>3.2</ele>
        <time>2022-10-09T14:39:59Z</time>
      </trkpt>
      <trkpt lat="43.41124" lon="6.7347">
        <ele>3.1</ele>
        <time>2022-10-09T14:40:00Z</time>
      </trkpt>
      <trkpt lat="43.41127" lon="6.73474">
        <ele>3.1</ele>
        <time>2022-10-09T14:40:01Z</time>
      </trkpt>
      <trkpt lat="43.41131" lon="6.73477">
        <ele>2.9</ele>
        <time>2022-10-09T14:40:02Z</time>
      </trkpt>
      <trkpt lat="43.41135" lon="6.73481">
        <ele>2.9</ele>
        <time>2022-10-09T14:40:03Z</time>
      </trkpt>
      <trkpt lat="43.41139" lon="6.73484">
        <ele>2.9</ele>
        <time>2022-10-09T14:40:04Z</time>
      </trkpt>
      <trkpt lat="43.41143" lon="6.73488">
        <ele>2.9</ele>
        <time>2022-10-09T14:40:05Z</time>
      </trkpt>
      <trkpt lat="43.41147" lon="6.73491">
        <ele>2.9</ele>
        <time>2022-10-09T14:40:06Z</time>
      </trkpt>
      <trkpt lat="43.4115" lon="6.73494">
        <ele>2.9</ele>
        <time>2022-10-09T14:40:07Z</time>
      </trkpt>
      <trkpt lat="43.41154" lon="6.73497">
        <ele>2.9</ele>
        <time>2022-10-09T14:40:08Z</time>
      </trkpt>
      <trkpt lat="43.41162" lon="6.73503">
        <ele>2.9</ele>
        <time>2022-10-09T14:40:10Z</time>
      </trkpt>
      <trkpt lat="43.41166" lon="6.73507">
        <ele>2.9</ele>
        <time>2022-10-09T14:40:11Z</time>
      </trkpt>
      <trkpt lat="43.41169" lon="6.7351">
        <ele>2.9</ele>
        <time>2022-10-09T14:40:12Z</time>
      </trkpt>
      <trkpt lat="43.41173" lon="6.73513">
        <ele>2.9</ele>
        <time>2022-10-09T14:40:13Z</time>
      </trkpt>
      <trkpt lat="43.41177" lon="6.73517">
        <ele>2.9</ele>
        <time>2022-10-09T14:40:14Z</time>
      </trkpt>
      <trkpt lat="43.41181" lon="6.73519">
        <ele>2.9</ele>
        <time>2022-10-09T14:40:15Z</time>
      </trkpt>
      <trkpt lat="43.41188" lon="6.73525">
        <ele>2.9</ele>
        <time>2022-10-09T14:40:17Z</time>
      </trkpt>
      <trkpt lat="43.41196" lon="6.73529">
        <ele>2.9</ele>
        <time>2022-10-09T14:40:19Z</time>
      </trkpt>
      <trkpt lat="43.41201" lon="6.73532">
        <ele>2.9</ele>
        <time>2022-10-09T14:40:20Z</time>
      </trkpt>
      <trkpt lat="43.41209" lon="6.73535">
        <ele>2.8</ele>
        <time>2022-10-09T14:40:22Z</time>
      </trkpt>
      <trkpt lat="43.41222" lon="6.73534">
        <ele>2.8</ele>
        <time>2022-10-09T14:40:25Z</time>
      </trkpt>
      <trkpt lat="43.41226" lon="6.73531">
        <ele>2.8</ele>
        <time>2022-10-09T14:40:26Z</time>
      </trkpt>
      <trkpt lat="43.41229" lon="6.73528">
        <ele>2.7</ele>
        <time>2022-10-09T14:40:27Z</time>
      </trkpt>
      <trkpt lat="43.41233" lon="6.73525">
        <ele>2.7</ele>
        <time>2022-10-09T14:40:28Z</time>
      </trkpt>
      <trkpt lat="43.41236" lon="6.73522">
        <ele>2.6</ele>
        <time>2022-10-09T14:40:29Z</time>
      </trkpt>
      <trkpt lat="43.41239" lon="6.73518">
        <ele>2.5</ele>
        <time>2022-10-09T14:40:30Z</time>
      </trkpt>
      <trkpt lat="43.41242" lon="6.73514">
        <ele>2.3</ele>
        <time>2022-10-09T14:40:31Z</time>
      </trkpt>
      <trkpt lat="43.41244" lon="6.7351">
        <ele>2.2</ele>
        <time>2022-10-09T14:40:32Z</time>
      </trkpt>
      <trkpt lat="43.41246" lon="6.73506">
        <ele>2.1</ele>
        <time>2022-10-09T14:40:33Z</time>
      </trkpt>
      <trkpt lat="43.41248" lon="6.73502">
        <ele>2</ele>
        <time>2022-10-09T14:40:34Z</time>
      </trkpt>
      <trkpt lat="43.4125" lon="6.735">
        <ele>1.9</ele>
        <time>2022-10-09T14:40:35Z</time>
      </trkpt>
      <trkpt lat="43.41252" lon="6.73497">
        <ele>1.7</ele>
        <time>2022-10-09T14:40:36Z</time>
      </trkpt>
      <trkpt lat="43.41253" lon="6.73495">
        <ele>2.1</ele>
        <time>2022-10-09T14:40:37Z</time>
      </trkpt>
      <trkpt lat="43.41255" lon="6.73492">
        <ele>1.9</ele>
        <time>2022-10-09T14:40:38Z</time>
      </trkpt>
      <trkpt lat="43.41256" lon="6.7349">
        <ele>1.8</ele>
        <time>2022-10-09T14:40:39Z</time>
      </trkpt>
      <trkpt lat="43.41262" lon="6.73483">
        <ele>1.7</ele>
        <time>2022-10-09T14:40:41Z</time>
      </trkpt>
      <trkpt lat="43.41267" lon="6.7348">
        <ele>1.8</ele>
        <time>2022-10-09T14:40:42Z</time>
      </trkpt>
      <trkpt lat="43.41272" lon="6.73477">
        <ele>2.1</ele>
        <time>2022-10-09T14:40:43Z</time>
      </trkpt>
      <trkpt lat="43.41277" lon="6.73476">
        <ele>2.1</ele>
        <time>2022-10-09T14:40:44Z</time>
      </trkpt>
      <trkpt lat="43.41282" lon="6.73477">
        <ele>2.1</ele>
        <time>2022-10-09T14:40:45Z</time>
      </trkpt>
      <trkpt lat="43.41286" lon="6.73478">
        <ele>2.1</ele>
        <time>2022-10-09T14:40:46Z</time>
      </trkpt>
      <trkpt lat="43.41291" lon="6.7348">
        <ele>2.1</ele>
        <time>2022-10-09T14:40:47Z</time>
      </trkpt>
      <trkpt lat="43.41296" lon="6.73481">
        <ele>2.1</ele>
        <time>2022-10-09T14:40:48Z</time>
      </trkpt>
      <trkpt lat="43.4131" lon="6.73485">
        <ele>2.1</ele>
        <time>2022-10-09T14:40:51Z</time>
      </trkpt>
      <trkpt lat="43.41314" lon="6.73487">
        <ele>2.1</ele>
        <time>2022-10-09T14:40:52Z</time>
      </trkpt>
      <trkpt lat="43.41319" lon="6.73488">
        <ele>2</ele>
        <time>2022-10-09T14:40:53Z</time>
      </trkpt>
      <trkpt lat="43.41332" lon="6.73491">
        <ele>2</ele>
        <time>2022-10-09T14:40:56Z</time>
      </trkpt>
      <trkpt lat="43.41337" lon="6.73492">
        <ele>2</ele>
        <time>2022-10-09T14:40:57Z</time>
      </trkpt>
      <trkpt lat="43.41341" lon="6.73493">
        <ele>2</ele>
        <time>2022-10-09T14:40:58Z</time>
      </trkpt>
      <trkpt lat="43.41346" lon="6.73495">
        <ele>2</ele>
        <time>2022-10-09T14:40:59Z</time>
      </trkpt>
      <trkpt lat="43.4135" lon="6.73496">
        <ele>2</ele>
        <time>2022-10-09T14:41:00Z</time>
      </trkpt>
      <trkpt lat="43.41354" lon="6.73497">
        <ele>2</ele>
        <time>2022-10-09T14:41:01Z</time>
      </trkpt>
      <trkpt lat="43.41363" lon="6.73499">
        <ele>2</ele>
        <time>2022-10-09T14:41:03Z</time>
      </trkpt>
      <trkpt lat="43.41367" lon="6.735">
        <ele>2</ele>
        <time>2022-10-09T14:41:04Z</time>
      </trkpt>
      <trkpt lat="43.41371" lon="6.73501">
        <ele>2</ele>
        <time>2022-10-09T14:41:05Z</time>
      </trkpt>
      <trkpt lat="43.41387" lon="6.73505">
        <ele>2</ele>
        <time>2022-10-09T14:41:09Z</time>
      </trkpt>
      <trkpt lat="43.41404" lon="6.7351">
        <ele>2</ele>
        <time>2022-10-09T14:41:13Z</time>
      </trkpt>
      <trkpt lat="43.41439" lon="6.73518">
        <ele>2.1</ele>
        <time>2022-10-09T14:41:21Z</time>
      </trkpt>
      <trkpt lat="43.41443" lon="6.73519">
        <ele>2.1</ele>
        <time>2022-10-09T14:41:22Z</time>
      </trkpt>
      <trkpt lat="43.41448" lon="6.7352">
        <ele>2.1</ele>
        <time>2022-10-09T14:41:23Z</time>
      </trkpt>
      <trkpt lat="43.41483" lon="6.73528">
        <ele>2</ele>
        <time>2022-10-09T14:41:31Z</time>
      </trkpt>
      <trkpt lat="43.41488" lon="6.73529">
        <ele>2</ele>
        <time>2022-10-09T14:41:32Z</time>
      </trkpt>
      <trkpt lat="43.41501" lon="6.73533">
        <ele>2</ele>
        <time>2022-10-09T14:41:35Z</time>
      </trkpt>
      <trkpt lat="43.41506" lon="6.73534">
        <ele>2</ele>
        <time>2022-10-09T14:41:36Z</time>
      </trkpt>
      <trkpt lat="43.4151" lon="6.73535">
        <ele>2</ele>
        <time>2022-10-09T14:41:37Z</time>
      </trkpt>
      <trkpt lat="43.41514" lon="6.73536">
        <ele>2</ele>
        <time>2022-10-09T14:41:38Z</time>
      </trkpt>
      <trkpt lat="43.41519" lon="6.73537">
        <ele>2</ele>
        <time>2022-10-09T14:41:39Z</time>
      </trkpt>
      <trkpt lat="43.41527" lon="6.73539">
        <ele>2</ele>
        <time>2022-10-09T14:41:41Z</time>
      </trkpt>
      <trkpt lat="43.4154" lon="6.73542">
        <ele>2</ele>
        <time>2022-10-09T14:41:44Z</time>
      </trkpt>
      <trkpt lat="43.41561" lon="6.73547">
        <ele>2</ele>
        <time>2022-10-09T14:41:49Z</time>
      </trkpt>
      <trkpt lat="43.41565" lon="6.73548">
        <ele>2</ele>
        <time>2022-10-09T14:41:50Z</time>
      </trkpt>
      <trkpt lat="43.41569" lon="6.73549">
        <ele>2.1</ele>
        <time>2022-10-09T14:41:51Z</time>
      </trkpt>
      <trkpt lat="43.41573" lon="6.7355">
        <ele>2.1</ele>
        <time>2022-10-09T14:41:52Z</time>
      </trkpt>
      <trkpt lat="43.41577" lon="6.73552">
        <ele>2.1</ele>
        <time>2022-10-09T14:41:53Z</time>
      </trkpt>
      <trkpt lat="43.4158" lon="6.73554">
        <ele>2.1</ele>
        <time>2022-10-09T14:41:54Z</time>
      </trkpt>
      <trkpt lat="43.41583" lon="6.73557">
        <ele>2.1</ele>
        <time>2022-10-09T14:41:55Z</time>
      </trkpt>
      <trkpt lat="43.41586" lon="6.7356">
        <ele>2.1</ele>
        <time>2022-10-09T14:41:56Z</time>
      </trkpt>
      <trkpt lat="43.41596" lon="6.73583">
        <ele>1.7</ele>
        <time>2022-10-09T14:42:01Z</time>
      </trkpt>
      <trkpt lat="43.41609" lon="6.73612">
        <ele>2.2</ele>
        <time>2022-10-09T14:42:07Z</time>
      </trkpt>
      <trkpt lat="43.41613" lon="6.73622">
        <ele>2.6</ele>
        <time>2022-10-09T14:42:09Z</time>
      </trkpt>
      <trkpt lat="43.41621" lon="6.73641">
        <ele>3.2</ele>
        <time>2022-10-09T14:42:13Z</time>
      </trkpt>
      <trkpt lat="43.41625" lon="6.73651">
        <ele>3.5</ele>
        <time>2022-10-09T14:42:15Z</time>
      </trkpt>
      <trkpt lat="43.41628" lon="6.73656">
        <ele>3.7</ele>
        <time>2022-10-09T14:42:16Z</time>
      </trkpt>
      <trkpt lat="43.4163" lon="6.7366">
        <ele>3.7</ele>
        <time>2022-10-09T14:42:17Z</time>
      </trkpt>
      <trkpt lat="43.41632" lon="6.73665">
        <ele>3.7</ele>
        <time>2022-10-09T14:42:18Z</time>
      </trkpt>
      <trkpt lat="43.41634" lon="6.7367">
        <ele>4</ele>
        <time>2022-10-09T14:42:19Z</time>
      </trkpt>
      <trkpt lat="43.41635" lon="6.73675">
        <ele>4</ele>
        <time>2022-10-09T14:42:20Z</time>
      </trkpt>
      <trkpt lat="43.41636" lon="6.7368">
        <ele>4</ele>
        <time>2022-10-09T14:42:21Z</time>
      </trkpt>
      <trkpt lat="43.41636" lon="6.73685">
        <ele>4</ele>
        <time>2022-10-09T14:42:22Z</time>
      </trkpt>
      <trkpt lat="43.41634" lon="6.73689">
        <ele>4.2</ele>
        <time>2022-10-09T14:42:23Z</time>
      </trkpt>
      <trkpt lat="43.41625" lon="6.73699">
        <ele>4.1</ele>
        <time>2022-10-09T14:42:26Z</time>
      </trkpt>
      <trkpt lat="43.41622" lon="6.73701">
        <ele>4.1</ele>
        <time>2022-10-09T14:42:27Z</time>
      </trkpt>
      <trkpt lat="43.41618" lon="6.73704">
        <ele>4.2</ele>
        <time>2022-10-09T14:42:28Z</time>
      </trkpt>
      <trkpt lat="43.41594" lon="6.73716">
        <ele>3.8</ele>
        <time>2022-10-09T14:42:34Z</time>
      </trkpt>
      <trkpt lat="43.4159" lon="6.73718">
        <ele>3.8</ele>
        <time>2022-10-09T14:42:35Z</time>
      </trkpt>
      <trkpt lat="43.41583" lon="6.73722">
        <ele>3.7</ele>
        <time>2022-10-09T14:42:37Z</time>
      </trkpt>
      <trkpt lat="43.4158" lon="6.73725">
        <ele>3.7</ele>
        <time>2022-10-09T14:42:38Z</time>
      </trkpt>
      <trkpt lat="43.41577" lon="6.73729">
        <ele>3.5</ele>
        <time>2022-10-09T14:42:39Z</time>
      </trkpt>
      <trkpt lat="43.41574" lon="6.73734">
        <ele>3.5</ele>
        <time>2022-10-09T14:42:40Z</time>
      </trkpt>
      <trkpt lat="43.41572" lon="6.73738">
        <ele>3.6</ele>
        <time>2022-10-09T14:42:41Z</time>
      </trkpt>
      <trkpt lat="43.41563" lon="6.73751">
        <ele>3.5</ele>
        <time>2022-10-09T14:42:44Z</time>
      </trkpt>
      <trkpt lat="43.4156" lon="6.73762">
        <ele>3.6</ele>
        <time>2022-10-09T14:42:46Z</time>
      </trkpt>
      <trkpt lat="43.41561" lon="6.73767">
        <ele>3.6</ele>
        <time>2022-10-09T14:42:47Z</time>
      </trkpt>
      <trkpt lat="43.41563" lon="6.73772">
        <ele>3.8</ele>
        <time>2022-10-09T14:42:48Z</time>
      </trkpt>
      <trkpt lat="43.41566" lon="6.73776">
        <ele>3.8</ele>
        <time>2022-10-09T14:42:49Z</time>
      </trkpt>
      <trkpt lat="43.41577" lon="6.73795">
        <ele>3.9</ele>
        <time>2022-10-09T14:42:53Z</time>
      </trkpt>
      <trkpt lat="43.41585" lon="6.73808">
        <ele>4.1</ele>
        <time>2022-10-09T14:42:56Z</time>
      </trkpt>
      <trkpt lat="43.41588" lon="6.73812">
        <ele>4.1</ele>
        <time>2022-10-09T14:42:57Z</time>
      </trkpt>
      <trkpt lat="43.41591" lon="6.73816">
        <ele>4.2</ele>
        <time>2022-10-09T14:42:58Z</time>
      </trkpt>
      <trkpt lat="43.41594" lon="6.7382">
        <ele>4.2</ele>
        <time>2022-10-09T14:42:59Z</time>
      </trkpt>
      <trkpt lat="43.41599" lon="6.73828">
        <ele>4.3</ele>
        <time>2022-10-09T14:43:01Z</time>
      </trkpt>
      <trkpt lat="43.41602" lon="6.73832">
        <ele>4.4</ele>
        <time>2022-10-09T14:43:02Z</time>
      </trkpt>
      <trkpt lat="43.41606" lon="6.73837">
        <ele>4.4</ele>
        <time>2022-10-09T14:43:03Z</time>
      </trkpt>
      <trkpt lat="43.41609" lon="6.73841">
        <ele>4.4</ele>
        <time>2022-10-09T14:43:04Z</time>
      </trkpt>
      <trkpt lat="43.41612" lon="6.73845">
        <ele>4.4</ele>
        <time>2022-10-09T14:43:05Z</time>
      </trkpt>
      <trkpt lat="43.41614" lon="6.73849">
        <ele>4.4</ele>
        <time>2022-10-09T14:43:06Z</time>
      </trkpt>
      <trkpt lat="43.41616" lon="6.73853">
        <ele>4.5</ele>
        <time>2022-10-09T14:43:07Z</time>
      </trkpt>
      <trkpt lat="43.41617" lon="6.73856">
        <ele>4.5</ele>
        <time>2022-10-09T14:43:08Z</time>
      </trkpt>
      <trkpt lat="43.41618" lon="6.73857">
        <ele>4.5</ele>
        <time>2022-10-09T14:43:09Z</time>
      </trkpt>
      <trkpt lat="43.41618" lon="6.73858">
        <ele>4.5</ele>
        <time>2022-10-09T14:43:10Z</time>
      </trkpt>
      <trkpt lat="43.41618" lon="6.73858">
        <ele>4.5</ele>
        <time>2022-10-09T14:43:11Z</time>
      </trkpt>
    </trkseg>
  </trk>
</gpx>